<?xml version='1.0' encoding='UTF-8'?><gpx version="1.1" creator="JPX - https://github.com/jenetics/jpx" xmlns="http://www.topografix.com/GPX/1/1"><trk><trkseg><trkpt lat="44.796727965723164" lon="13.91699993118634"><ele>19.0</ele><time>2026-04-12T07:19:16.964Z</time></trkpt><trkpt lat="44.79673722008254" lon="13.916869904666893"><ele>19.0</ele><time>2026-04-12T07:19:19.964Z</time></trkpt><trkpt lat="44.79673970537355" lon="13.916752627227877"><ele>19.0</ele><time>2026-04-12T07:19:21.964Z</time></trkpt><trkpt lat="44.796723950868675" lon="13.916665073831332"><ele>19.0</ele><time>2026-04-12T07:19:23.964Z</time></trkpt><trkpt lat="44.79670868033586" lon="13.91656219481749"><ele>19.0</ele><time>2026-04-12T07:19:25.964Z</time></trkpt><trkpt lat="44.79669955644153" lon="13.91643461204802"><ele>19.0</ele><time>2026-04-12T07:19:28.964Z</time></trkpt><trkpt lat="44.79668218392645" lon="13.91633922788588"><ele>20.799999999999997</ele><time>2026-04-12T07:19:31.964Z</time></trkpt><trkpt lat="44.796667736697664" lon="13.916208912871266"><ele>22.599999999999998</ele><time>2026-04-12T07:19:33.964Z</time></trkpt><trkpt lat="44.79664214018142" lon="13.916064097743375"><ele>24.4</ele><time>2026-04-12T07:19:35.964Z</time></trkpt><trkpt lat="44.79661083427541" lon="13.915921252927223"><ele>26.2</ele><time>2026-04-12T07:19:37.963Z</time></trkpt><trkpt lat="44.796592312506775" lon="13.915803225665284"><ele>28.0</ele><time>2026-04-12T07:19:39.963Z</time></trkpt><trkpt lat="44.79658474630811" lon="13.915698208110731"><ele>28.333333333333336</ele><time>2026-04-12T07:19:41.963Z</time></trkpt><trkpt lat="44.79657494771731" lon="13.915599934378074"><ele>28.666666666666668</ele><time>2026-04-12T07:19:44.963Z</time></trkpt><trkpt lat="44.79656075280306" lon="13.915512453093157"><ele>29.0</ele><time>2026-04-12T07:19:48.963Z</time></trkpt><trkpt lat="44.7965411985656" lon="13.915420026283739"><ele>29.333333333333336</ele><time>2026-04-12T07:19:50.963Z</time></trkpt><trkpt lat="44.79653894214544" lon="13.91529017634"><ele>29.666666666666668</ele><time>2026-04-12T07:19:52.963Z</time></trkpt><trkpt lat="44.79652543664376" lon="13.915164836600065"><ele>30.0</ele><time>2026-04-12T07:19:54.963Z</time></trkpt><trkpt lat="44.796498215854584" lon="13.91503736806039"><ele>30.6</ele><time>2026-04-12T07:19:56.963Z</time></trkpt><trkpt lat="44.79650153527449" lon="13.914877685392888"><ele>31.2</ele><time>2026-04-12T07:19:58.963Z</time></trkpt><trkpt lat="44.79647780562801" lon="13.914729067901458"><ele>31.799999999999997</ele><time>2026-04-12T07:20:00.963Z</time></trkpt><trkpt lat="44.79645695483922" lon="13.914589098435519"><ele>32.4</ele><time>2026-04-12T07:20:02.963Z</time></trkpt><trkpt lat="44.796450856364544" lon="13.914483645618088"><ele>33.0</ele><time>2026-04-12T07:20:04.963Z</time></trkpt><trkpt lat="44.79652492703463" lon="13.91447023162823"><ele>33.0</ele><time>2026-04-12T07:20:06.963Z</time></trkpt><trkpt lat="44.79660620259102" lon="13.914524617877113"><ele>33.0</ele><time>2026-04-12T07:20:08.963Z</time></trkpt><trkpt lat="44.79666972475511" lon="13.914547468427733"><ele>33.0</ele><time>2026-04-12T07:20:10.963Z</time></trkpt><trkpt lat="44.79683384287261" lon="13.914549831427816"><ele>33.0</ele><time>2026-04-12T07:20:14.963Z</time></trkpt><trkpt lat="44.79692014577389" lon="13.914516688647348"><ele>33.0</ele><time>2026-04-12T07:20:16.963Z</time></trkpt><trkpt lat="44.796984508957486" lon="13.914449076658975"><ele>31.4</ele><time>2026-04-12T07:20:18.962Z</time></trkpt><trkpt lat="44.797058757306026" lon="13.914360499884983"><ele>29.799999999999997</ele><time>2026-04-12T07:20:20.962Z</time></trkpt><trkpt lat="44.79713989084378" lon="13.914262975193648"><ele>28.2</ele><time>2026-04-12T07:20:23.962Z</time></trkpt><trkpt lat="44.79721130438796" lon="13.914166780850246"><ele>26.6</ele><time>2026-04-12T07:20:25.962Z</time></trkpt><trkpt lat="44.79728471372629" lon="13.914068059341663"><ele>25.0</ele><time>2026-04-12T07:20:27.962Z</time></trkpt><trkpt lat="44.797347045994584" lon="13.913973226861067"><ele>24.666666666666668</ele><time>2026-04-12T07:20:29.962Z</time></trkpt><trkpt lat="44.797419468248464" lon="13.913891429559687"><ele>24.333333333333336</ele><time>2026-04-12T07:20:31.962Z</time></trkpt><trkpt lat="44.79749820574814" lon="13.913823067894471"><ele>24.0</ele><time>2026-04-12T07:20:33.962Z</time></trkpt><trkpt lat="44.7975898167857" lon="13.91381594009257"><ele>23.666666666666668</ele><time>2026-04-12T07:20:35.962Z</time></trkpt><trkpt lat="44.79764758550507" lon="13.91389984035383"><ele>23.333333333333336</ele><time>2026-04-12T07:20:38.962Z</time></trkpt><trkpt lat="44.7977183443805" lon="13.913905064975081"><ele>23.0</ele><time>2026-04-12T07:20:41.962Z</time></trkpt><trkpt lat="44.79777865473496" lon="13.913875758813202"><ele>22.833333333333336</ele><time>2026-04-12T07:20:57.962Z</time></trkpt><trkpt lat="44.79782087733642" lon="13.913809645690321"><ele>22.666666666666668</ele><time>2026-04-12T07:21:29.961Z</time></trkpt><trkpt lat="44.797838435345575" lon="13.913698943294932"><ele>22.5</ele><time>2026-04-12T07:21:37.961Z</time></trkpt><trkpt lat="44.797841258678446" lon="13.913590952612127"><ele>22.333333333333332</ele><time>2026-04-12T07:21:41.961Z</time></trkpt><trkpt lat="44.79788016104496" lon="13.913493635003999"><ele>22.166666666666664</ele><time>2026-04-12T07:21:43.961Z</time></trkpt><trkpt lat="44.79795055249364" lon="13.913429939240658"><ele>22.0</ele><time>2026-04-12T07:21:45.961Z</time></trkpt><trkpt lat="44.79813502942347" lon="13.913398475033375"><ele>22.0</ele><time>2026-04-12T07:22:01.96Z</time></trkpt><trkpt lat="44.79826126025207" lon="13.91335823669288"><ele>22.0</ele><time>2026-04-12T07:22:03.96Z</time></trkpt><trkpt lat="44.79832338673705" lon="13.913332633532086"><ele>22.0</ele><time>2026-04-12T07:22:04.96Z</time></trkpt><trkpt lat="44.7983548971614" lon="13.913141212708684"><ele>22.0</ele><time>2026-04-12T07:22:08.96Z</time></trkpt><trkpt lat="44.79826822157801" lon="13.91302492195431"><ele>22.0</ele><time>2026-04-12T07:22:10.96Z</time></trkpt><trkpt lat="44.79822202218414" lon="13.912959466600183"><ele>22.0</ele><time>2026-04-12T07:22:11.96Z</time></trkpt><trkpt lat="44.79814744977695" lon="13.912834548337978"><ele>22.0</ele><time>2026-04-12T07:22:13.96Z</time></trkpt><trkpt lat="44.798105590420775" lon="13.91276169509819"><ele>22.0</ele><time>2026-04-12T07:22:14.96Z</time></trkpt><trkpt lat="44.798055089657595" lon="13.912686989367469"><ele>22.0</ele><time>2026-04-12T07:22:15.96Z</time></trkpt><trkpt lat="44.79800475372338" lon="13.912614067168889"><ele>22.0</ele><time>2026-04-12T07:22:16.96Z</time></trkpt><trkpt lat="44.797956658488495" lon="13.912537054173798"><ele>22.666666666666664</ele><time>2026-04-12T07:22:17.96Z</time></trkpt><trkpt lat="44.79790629798873" lon="13.912454627101033"><ele>23.333333333333332</ele><time>2026-04-12T07:22:18.96Z</time></trkpt><trkpt lat="44.79787698993923" lon="13.912360847914004"><ele>24.0</ele><time>2026-04-12T07:22:19.96Z</time></trkpt><trkpt lat="44.79781169425979" lon="13.912298655924763"><ele>24.666666666666664</ele><time>2026-04-12T07:22:20.96Z</time></trkpt><trkpt lat="44.79776621945431" lon="13.912212503056121"><ele>25.333333333333332</ele><time>2026-04-12T07:22:21.96Z</time></trkpt><trkpt lat="44.79772221050119" lon="13.912125377800495"><ele>26.0</ele><time>2026-04-12T07:22:22.96Z</time></trkpt><trkpt lat="44.79767511718718" lon="13.91204757057701"><ele>25.6</ele><time>2026-04-12T07:22:23.96Z</time></trkpt><trkpt lat="44.79763331270879" lon="13.911974032732518"><ele>25.200000000000003</ele><time>2026-04-12T07:22:24.96Z</time></trkpt><trkpt lat="44.79755945024162" lon="13.911842771995342"><ele>24.799999999999997</ele><time>2026-04-12T07:22:26.96Z</time></trkpt><trkpt lat="44.797481058638986" lon="13.911750341952185"><ele>24.4</ele><time>2026-04-12T07:22:28.96Z</time></trkpt><trkpt lat="44.79738218465136" lon="13.911710999537707"><ele>24.0</ele><time>2026-04-12T07:22:30.96Z</time></trkpt><trkpt lat="44.79730979165949" lon="13.911712487471128"><ele>24.0</ele><time>2026-04-12T07:22:32.96Z</time></trkpt><trkpt lat="44.797218331833584" lon="13.91178351997166"><ele>24.0</ele><time>2026-04-12T07:22:35.96Z</time></trkpt><trkpt lat="44.79714513571985" lon="13.911905261257223"><ele>24.0</ele><time>2026-04-12T07:22:37.96Z</time></trkpt><trkpt lat="44.79707551847545" lon="13.912001033818289"><ele>24.0</ele><time>2026-04-12T07:22:39.96Z</time></trkpt><trkpt lat="44.79699747189996" lon="13.91208537135231"><ele>24.0</ele><time>2026-04-12T07:22:41.959Z</time></trkpt><trkpt lat="44.796933172827565" lon="13.912166948419948"><ele>24.0</ele><time>2026-04-12T07:22:43.959Z</time></trkpt><trkpt lat="44.79684724515992" lon="13.912254353242233"><ele>24.0</ele><time>2026-04-12T07:22:45.959Z</time></trkpt><trkpt lat="44.79677833182419" lon="13.912348861543794"><ele>24.0</ele><time>2026-04-12T07:22:47.959Z</time></trkpt><trkpt lat="44.79670283871142" lon="13.912430756243568"><ele>24.0</ele><time>2026-04-12T07:22:49.959Z</time></trkpt><trkpt lat="44.79667770310248" lon="13.912525738889931"><ele>24.0</ele><time>2026-04-12T07:22:51.959Z</time></trkpt><trkpt lat="44.79666791547924" lon="13.91265091546298"><ele>24.4</ele><time>2026-04-12T07:22:53.959Z</time></trkpt><trkpt lat="44.79662460169494" lon="13.912782996855283"><ele>24.799999999999997</ele><time>2026-04-12T07:22:55.959Z</time></trkpt><trkpt lat="44.796568182381314" lon="13.912912348814897"><ele>25.200000000000003</ele><time>2026-04-12T07:22:57.959Z</time></trkpt><trkpt lat="44.79650598445328" lon="13.913059380314879"><ele>25.6</ele><time>2026-04-12T07:22:59.959Z</time></trkpt><trkpt lat="44.796444343538276" lon="13.913190587888332"><ele>26.0</ele><time>2026-04-12T07:23:01.959Z</time></trkpt><trkpt lat="44.796389239367336" lon="13.913295428311146"><ele>26.0</ele><time>2026-04-12T07:23:03.959Z</time></trkpt><trkpt lat="44.79631463718181" lon="13.913246923014043"><ele>26.0</ele><time>2026-04-12T07:23:08.959Z</time></trkpt><trkpt lat="44.79624827925095" lon="13.913261899637448"><ele>26.0</ele><time>2026-04-12T07:23:25.958Z</time></trkpt><trkpt lat="44.79631820262623" lon="13.913277876561033"><ele>26.0</ele><time>2026-04-12T07:23:31.958Z</time></trkpt><trkpt lat="44.796353949943644" lon="13.913353453078702"><ele>26.0</ele><time>2026-04-12T07:23:35.958Z</time></trkpt><trkpt lat="44.79631557963661" lon="13.913460911555877"><ele>26.0</ele><time>2026-04-12T07:23:38.958Z</time></trkpt><trkpt lat="44.79628381037839" lon="13.913537551243902"><ele>26.0</ele><time>2026-04-12T07:23:40.958Z</time></trkpt><trkpt lat="44.79625167499755" lon="13.913620653702703"><ele>26.285714285714285</ele><time>2026-04-12T07:23:42.957Z</time></trkpt><trkpt lat="44.79619580636446" lon="13.91367398400905"><ele>26.571428571428573</ele><time>2026-04-12T07:23:44.957Z</time></trkpt><trkpt lat="44.796131840640854" lon="13.913715576650565"><ele>26.857142857142858</ele><time>2026-04-12T07:23:46.957Z</time></trkpt><trkpt lat="44.796060706279036" lon="13.913710515441375"><ele>27.142857142857142</ele><time>2026-04-12T07:23:48.957Z</time></trkpt><trkpt lat="44.795991009084986" lon="13.913655303234709"><ele>27.42857142857143</ele><time>2026-04-12T07:23:50.957Z</time></trkpt><trkpt lat="44.795923116922786" lon="13.913614615221576"><ele>27.714285714285715</ele><time>2026-04-12T07:23:53.957Z</time></trkpt><trkpt lat="44.79585897496575" lon="13.913567987774464"><ele>28.0</ele><time>2026-04-12T07:23:57.957Z</time></trkpt><trkpt lat="44.79577918352225" lon="13.913480265394929"><ele>28.0</ele><time>2026-04-12T07:24:00.957Z</time></trkpt><trkpt lat="44.79571017219681" lon="13.913414409402005"><ele>27.999999999999996</ele><time>2026-04-12T07:24:02.957Z</time></trkpt><trkpt lat="44.795622962048704" lon="13.913356864245923"><ele>27.999999999999996</ele><time>2026-04-12T07:24:04.957Z</time></trkpt><trkpt lat="44.79552336167665" lon="13.913304001637291"><ele>28.0</ele><time>2026-04-12T07:24:06.957Z</time></trkpt><trkpt lat="44.79541832289757" lon="13.913235684351346"><ele>28.0</ele><time>2026-04-12T07:24:08.957Z</time></trkpt><trkpt lat="44.79534424785515" lon="13.91324867975853"><ele>27.500000000000004</ele><time>2026-04-12T07:24:09.957Z</time></trkpt><trkpt lat="44.79527148795812" lon="13.913218772690849"><ele>27.0</ele><time>2026-04-12T07:24:10.957Z</time></trkpt><trkpt lat="44.79519820748121" lon="13.913176440973375"><ele>26.5</ele><time>2026-04-12T07:24:11.957Z</time></trkpt><trkpt lat="44.795126438005454" lon="13.913150604819998"><ele>26.0</ele><time>2026-04-12T07:24:12.957Z</time></trkpt><trkpt lat="44.795047968459514" lon="13.913119248143945"><ele>25.500000000000004</ele><time>2026-04-12T07:24:13.957Z</time></trkpt><trkpt lat="44.79496922249609" lon="13.913082475696045"><ele>25.0</ele><time>2026-04-12T07:24:14.957Z</time></trkpt><trkpt lat="44.79490177679539" lon="13.913049001124307"><ele>24.333333333333336</ele><time>2026-04-12T07:24:15.957Z</time></trkpt><trkpt lat="44.79477662745873" lon="13.912996173207809"><ele>23.666666666666668</ele><time>2026-04-12T07:24:17.957Z</time></trkpt><trkpt lat="44.794708511476" lon="13.912960102531752"><ele>23.0</ele><time>2026-04-12T07:24:18.957Z</time></trkpt><trkpt lat="44.79464595942367" lon="13.912922516445272"><ele>22.333333333333336</ele><time>2026-04-12T07:24:19.957Z</time></trkpt><trkpt lat="44.7945824168396" lon="13.912874593158561"><ele>21.666666666666668</ele><time>2026-04-12T07:24:20.957Z</time></trkpt><trkpt lat="44.794519153013695" lon="13.912827520264386"><ele>21.0</ele><time>2026-04-12T07:24:21.957Z</time></trkpt><trkpt lat="44.794463884999644" lon="13.91276067413103"><ele>21.0</ele><time>2026-04-12T07:24:22.957Z</time></trkpt><trkpt lat="44.79441665393755" lon="13.912690654156657"><ele>21.0</ele><time>2026-04-12T07:24:23.957Z</time></trkpt><trkpt lat="44.79437898920366" lon="13.912617176214008"><ele>21.0</ele><time>2026-04-12T07:24:24.956Z</time></trkpt><trkpt lat="44.79435622099843" lon="13.912494610812267"><ele>21.0</ele><time>2026-04-12T07:24:26.956Z</time></trkpt><trkpt lat="44.794328322746416" lon="13.912335669226291"><ele>21.0</ele><time>2026-04-12T07:24:28.956Z</time></trkpt><trkpt lat="44.79435175723417" lon="13.912178724458457"><ele>21.166666666666668</ele><time>2026-04-12T07:24:30.956Z</time></trkpt><trkpt lat="44.79436294196901" lon="13.912086387850643"><ele>21.333333333333332</ele><time>2026-04-12T07:24:31.956Z</time></trkpt><trkpt lat="44.794377403231344" lon="13.911942234226142"><ele>21.5</ele><time>2026-04-12T07:24:33.956Z</time></trkpt><trkpt lat="44.794384225664956" lon="13.911820352108368"><ele>21.666666666666664</ele><time>2026-04-12T07:24:35.956Z</time></trkpt><trkpt lat="44.79438854879353" lon="13.911692575307786"><ele>21.833333333333332</ele><time>2026-04-12T07:24:37.956Z</time></trkpt><trkpt lat="44.79440056798761" lon="13.911578314178353"><ele>22.0</ele><time>2026-04-12T07:24:40.957Z</time></trkpt><trkpt lat="44.794514900514365" lon="13.91151173698525"><ele>22.166666666666664</ele><time>2026-04-12T07:24:43.957Z</time></trkpt><trkpt lat="44.7945947366489" lon="13.911488758998388"><ele>22.333333333333332</ele><time>2026-04-12T07:24:44.957Z</time></trkpt><trkpt lat="44.79467485879511" lon="13.911467513817435"><ele>22.5</ele><time>2026-04-12T07:24:45.957Z</time></trkpt><trkpt lat="44.79475788399884" lon="13.911433943758528"><ele>22.666666666666668</ele><time>2026-04-12T07:24:46.957Z</time></trkpt><trkpt lat="44.79484388152639" lon="13.91139394800013"><ele>22.833333333333336</ele><time>2026-04-12T07:24:47.957Z</time></trkpt><trkpt lat="44.79490523299684" lon="13.911349247824567"><ele>23.0</ele><time>2026-04-12T07:24:48.957Z</time></trkpt><trkpt lat="44.79496702391546" lon="13.911304573719631"><ele>23.0</ele><time>2026-04-12T07:24:49.957Z</time></trkpt><trkpt lat="44.795040891838724" lon="13.91125100178678"><ele>23.0</ele><time>2026-04-12T07:24:50.957Z</time></trkpt><trkpt lat="44.795120914313436" lon="13.911205325611885"><ele>23.0</ele><time>2026-04-12T07:24:51.957Z</time></trkpt><trkpt lat="44.79519353381308" lon="13.911173573726247"><ele>23.0</ele><time>2026-04-12T07:24:52.957Z</time></trkpt><trkpt lat="44.795270254852454" lon="13.911148403250314"><ele>23.0</ele><time>2026-04-12T07:24:53.957Z</time></trkpt><trkpt lat="44.79534616372131" lon="13.911131308605787"><ele>23.0</ele><time>2026-04-12T07:24:54.957Z</time></trkpt><trkpt lat="44.795465750774845" lon="13.911085787285653"><ele>23.799999999999997</ele><time>2026-04-12T07:24:56.957Z</time></trkpt><trkpt lat="44.79557812209179" lon="13.911002726099849"><ele>24.6</ele><time>2026-04-12T07:24:58.957Z</time></trkpt><trkpt lat="44.79566523330842" lon="13.910935664632179"><ele>25.400000000000002</ele><time>2026-04-12T07:25:00.957Z</time></trkpt><trkpt lat="44.79570010815322" lon="13.910839214928131"><ele>26.200000000000003</ele><time>2026-04-12T07:25:03.957Z</time></trkpt><trkpt lat="44.79563599551424" lon="13.91079347818929"><ele>27.0</ele><time>2026-04-12T07:25:05.957Z</time></trkpt><trkpt lat="44.79553612509694" lon="13.910766458936807"><ele>27.400000000000002</ele><time>2026-04-12T07:25:07.957Z</time></trkpt><trkpt lat="44.79540738954123" lon="13.910719518011877"><ele>27.800000000000004</ele><time>2026-04-12T07:25:09.957Z</time></trkpt><trkpt lat="44.79534407094165" lon="13.910684359585726"><ele>28.2</ele><time>2026-04-12T07:25:10.957Z</time></trkpt><trkpt lat="44.79526469997868" lon="13.910642310047164"><ele>28.6</ele><time>2026-04-12T07:25:11.957Z</time></trkpt><trkpt lat="44.7951794924209" lon="13.910600802211667"><ele>29.0</ele><time>2026-04-12T07:25:12.957Z</time></trkpt><trkpt lat="44.795094901288415" lon="13.910543611135552"><ele>28.28571428571429</ele><time>2026-04-12T07:25:13.957Z</time></trkpt><trkpt lat="44.79501892958526" lon="13.910497267437998"><ele>27.571428571428573</ele><time>2026-04-12T07:25:14.957Z</time></trkpt><trkpt lat="44.794952549657516" lon="13.910449861775268"><ele>26.857142857142858</ele><time>2026-04-12T07:25:15.957Z</time></trkpt><trkpt lat="44.79489154407384" lon="13.910405050575678"><ele>26.142857142857146</ele><time>2026-04-12T07:25:16.957Z</time></trkpt><trkpt lat="44.794833297263374" lon="13.910366783739862"><ele>25.42857142857143</ele><time>2026-04-12T07:25:17.957Z</time></trkpt><trkpt lat="44.79477558095786" lon="13.91032788482432"><ele>24.71428571428571</ele><time>2026-04-12T07:25:18.956Z</time></trkpt><trkpt lat="44.794713315805566" lon="13.910282568094928"><ele>24.0</ele><time>2026-04-12T07:25:19.956Z</time></trkpt><trkpt lat="44.79459198063775" lon="13.91023280894738"><ele>24.0</ele><time>2026-04-12T07:25:21.956Z</time></trkpt><trkpt lat="44.794482464614745" lon="13.910185986604212"><ele>24.0</ele><time>2026-04-12T07:25:23.957Z</time></trkpt><trkpt lat="44.794403484899796" lon="13.91016863671259"><ele>24.0</ele><time>2026-04-12T07:25:24.956Z</time></trkpt><trkpt lat="44.794334993764075" lon="13.910139044150826"><ele>24.0</ele><time>2026-04-12T07:25:25.956Z</time></trkpt><trkpt lat="44.79425358338755" lon="13.910121339156612"><ele>24.0</ele><time>2026-04-12T07:25:26.956Z</time></trkpt><trkpt lat="44.794181882154156" lon="13.91009307423321"><ele>24.0</ele><time>2026-04-12T07:25:27.956Z</time></trkpt><trkpt lat="44.7941072748855" lon="13.910074364576504"><ele>23.833333333333332</ele><time>2026-04-12T07:25:28.957Z</time></trkpt><trkpt lat="44.79402303457493" lon="13.910050511807837"><ele>23.666666666666668</ele><time>2026-04-12T07:25:29.957Z</time></trkpt><trkpt lat="44.79395319735957" lon="13.910032079707046"><ele>23.5</ele><time>2026-04-12T07:25:30.956Z</time></trkpt><trkpt lat="44.79387360487349" lon="13.910037131324351"><ele>23.333333333333336</ele><time>2026-04-12T07:25:31.956Z</time></trkpt><trkpt lat="44.79378678475207" lon="13.910038336933818"><ele>23.166666666666668</ele><time>2026-04-12T07:25:32.956Z</time></trkpt><trkpt lat="44.79369338362044" lon="13.910039249901537"><ele>23.0</ele><time>2026-04-12T07:25:33.956Z</time></trkpt><trkpt lat="44.793604218012774" lon="13.910043055638955"><ele>23.0</ele><time>2026-04-12T07:25:34.956Z</time></trkpt><trkpt lat="44.793523166755826" lon="13.910049137278852"><ele>23.0</ele><time>2026-04-12T07:25:35.956Z</time></trkpt><trkpt lat="44.793450808775575" lon="13.910046326929438"><ele>23.0</ele><time>2026-04-12T07:25:36.956Z</time></trkpt><trkpt lat="44.79336142731538" lon="13.910052298388983"><ele>23.0</ele><time>2026-04-12T07:25:37.956Z</time></trkpt><trkpt lat="44.79327484560664" lon="13.910052322647866"><ele>23.0</ele><time>2026-04-12T07:25:38.956Z</time></trkpt><trkpt lat="44.79319320875139" lon="13.91004786887515"><ele>23.0</ele><time>2026-04-12T07:25:39.956Z</time></trkpt><trkpt lat="44.79311432434131" lon="13.91005564817125"><ele>22.833333333333336</ele><time>2026-04-12T07:25:40.956Z</time></trkpt><trkpt lat="44.793038159423574" lon="13.910065379553535"><ele>22.666666666666668</ele><time>2026-04-12T07:25:41.956Z</time></trkpt><trkpt lat="44.792958903475764" lon="13.910079758476986"><ele>22.5</ele><time>2026-04-12T07:25:42.956Z</time></trkpt><trkpt lat="44.79288369960165" lon="13.910087456854688"><ele>22.333333333333332</ele><time>2026-04-12T07:25:43.956Z</time></trkpt><trkpt lat="44.79281947367065" lon="13.910098044962384"><ele>22.166666666666664</ele><time>2026-04-12T07:25:44.956Z</time></trkpt><trkpt lat="44.79271419834363" lon="13.910119129470312"><ele>22.0</ele><time>2026-04-12T07:25:46.956Z</time></trkpt><trkpt lat="44.79265404911595" lon="13.910154029420879"><ele>22.0</ele><time>2026-04-12T07:25:48.956Z</time></trkpt><trkpt lat="44.79258145831601" lon="13.910231444121703"><ele>22.0</ele><time>2026-04-12T07:25:51.956Z</time></trkpt><trkpt lat="44.792530669791134" lon="13.910340076723957"><ele>22.0</ele><time>2026-04-12T07:25:53.956Z</time></trkpt><trkpt lat="44.79248820730363" lon="13.91049646500823"><ele>22.0</ele><time>2026-04-12T07:25:55.956Z</time></trkpt><trkpt lat="44.792443045161775" lon="13.910657014870797"><ele>22.0</ele><time>2026-04-12T07:25:57.956Z</time></trkpt><trkpt lat="44.79239634060622" lon="13.910822164089657"><ele>22.0</ele><time>2026-04-12T07:25:59.956Z</time></trkpt><trkpt lat="44.7923629051274" lon="13.910905770309917"><ele>22.0</ele><time>2026-04-12T07:26:00.956Z</time></trkpt><trkpt lat="44.792327721888405" lon="13.910982598208554"><ele>22.0</ele><time>2026-04-12T07:26:01.956Z</time></trkpt><trkpt lat="44.79228181296949" lon="13.911067185156044"><ele>22.0</ele><time>2026-04-12T07:26:02.956Z</time></trkpt><trkpt lat="44.792233170125215" lon="13.911148511346486"><ele>22.0</ele><time>2026-04-12T07:26:03.956Z</time></trkpt><trkpt lat="44.792179572837355" lon="13.911220394000127"><ele>22.0</ele><time>2026-04-12T07:26:04.956Z</time></trkpt><trkpt lat="44.79212318499657" lon="13.911301746866972"><ele>22.0</ele><time>2026-04-12T07:26:05.956Z</time></trkpt><trkpt lat="44.79206298414851" lon="13.911381059047832"><ele>21.333333333333332</ele><time>2026-04-12T07:26:06.955Z</time></trkpt><trkpt lat="44.792014433444834" lon="13.911448909747325"><ele>20.666666666666664</ele><time>2026-04-12T07:26:07.955Z</time></trkpt><trkpt lat="44.79196129355164" lon="13.911520978074963"><ele>20.0</ele><time>2026-04-12T07:26:08.955Z</time></trkpt><trkpt lat="44.791901122746694" lon="13.911604526267675"><ele>19.333333333333332</ele><time>2026-04-12T07:26:09.955Z</time></trkpt><trkpt lat="44.79184278326345" lon="13.911687018712753"><ele>18.666666666666668</ele><time>2026-04-12T07:26:10.955Z</time></trkpt><trkpt lat="44.7917842180899" lon="13.911763836435204"><ele>18.0</ele><time>2026-04-12T07:26:11.955Z</time></trkpt><trkpt lat="44.791725161474034" lon="13.911845283998838"><ele>17.666666666666668</ele><time>2026-04-12T07:26:12.955Z</time></trkpt><trkpt lat="44.79166629456365" lon="13.911924839473363"><ele>17.333333333333332</ele><time>2026-04-12T07:26:13.955Z</time></trkpt><trkpt lat="44.79160112052569" lon="13.91200158064077"><ele>17.0</ele><time>2026-04-12T07:26:14.955Z</time></trkpt><trkpt lat="44.79153555017811" lon="13.912073018233778"><ele>16.666666666666664</ele><time>2026-04-12T07:26:15.955Z</time></trkpt><trkpt lat="44.79146707869342" lon="13.912128797407679"><ele>16.333333333333332</ele><time>2026-04-12T07:26:16.955Z</time></trkpt><trkpt lat="44.79139184866812" lon="13.912166182059735"><ele>16.0</ele><time>2026-04-12T07:26:17.955Z</time></trkpt><trkpt lat="44.79131262927072" lon="13.912193282701436"><ele>15.999999999999998</ele><time>2026-04-12T07:26:18.955Z</time></trkpt><trkpt lat="44.791233776998084" lon="13.912213463708826"><ele>16.0</ele><time>2026-04-12T07:26:19.955Z</time></trkpt><trkpt lat="44.79115101584239" lon="13.912228959967145"><ele>16.0</ele><time>2026-04-12T07:26:20.955Z</time></trkpt><trkpt lat="44.79106629046587" lon="13.91225067476161"><ele>16.0</ele><time>2026-04-12T07:26:21.955Z</time></trkpt><trkpt lat="44.79099078508664" lon="13.912251582950939"><ele>15.999999999999998</ele><time>2026-04-12T07:26:22.955Z</time></trkpt><trkpt lat="44.79090822905373" lon="13.912262550237044"><ele>16.0</ele><time>2026-04-12T07:26:23.955Z</time></trkpt><trkpt lat="44.79083825589258" lon="13.91228592460065"><ele>16.142857142857142</ele><time>2026-04-12T07:26:24.955Z</time></trkpt><trkpt lat="44.790776085914025" lon="13.912306067871585"><ele>16.285714285714285</ele><time>2026-04-12T07:26:25.955Z</time></trkpt><trkpt lat="44.79070407589643" lon="13.912319367560107"><ele>16.428571428571427</ele><time>2026-04-12T07:26:26.955Z</time></trkpt><trkpt lat="44.79063186019658" lon="13.912347566104755"><ele>16.57142857142857</ele><time>2026-04-12T07:26:27.955Z</time></trkpt><trkpt lat="44.7905652950299" lon="13.912361417153097"><ele>16.714285714285715</ele><time>2026-04-12T07:26:28.955Z</time></trkpt><trkpt lat="44.79049319034844" lon="13.912365750112922"><ele>16.857142857142854</ele><time>2026-04-12T07:26:29.955Z</time></trkpt><trkpt lat="44.79042307434458" lon="13.912380812078386"><ele>17.0</ele><time>2026-04-12T07:26:30.955Z</time></trkpt><trkpt lat="44.79035424322996" lon="13.9123886507229"><ele>17.0</ele><time>2026-04-12T07:26:31.955Z</time></trkpt><trkpt lat="44.790282390414845" lon="13.912393984460323"><ele>17.0</ele><time>2026-04-12T07:26:32.955Z</time></trkpt><trkpt lat="44.79019751884962" lon="13.912410089689969"><ele>17.0</ele><time>2026-04-12T07:26:33.955Z</time></trkpt><trkpt lat="44.790116216728784" lon="13.912426264382345"><ele>17.0</ele><time>2026-04-12T07:26:34.955Z</time></trkpt><trkpt lat="44.79004070529487" lon="13.912435477694014"><ele>17.0</ele><time>2026-04-12T07:26:35.955Z</time></trkpt><trkpt lat="44.7899641996484" lon="13.912439678800933"><ele>17.0</ele><time>2026-04-12T07:26:36.955Z</time></trkpt><trkpt lat="44.789875842837546" lon="13.912442709375734"><ele>16.6</ele><time>2026-04-12T07:26:37.955Z</time></trkpt><trkpt lat="44.78978616670101" lon="13.912455794471718"><ele>16.2</ele><time>2026-04-12T07:26:38.955Z</time></trkpt><trkpt lat="44.78970865697747" lon="13.91246015943454"><ele>15.8</ele><time>2026-04-12T07:26:39.955Z</time></trkpt><trkpt lat="44.789628864038214" lon="13.912468574401027"><ele>15.4</ele><time>2026-04-12T07:26:40.955Z</time></trkpt><trkpt lat="44.78950133921805" lon="13.912478981921076"><ele>15.0</ele><time>2026-04-12T07:26:42.955Z</time></trkpt><trkpt lat="44.789425910321185" lon="13.912464161151702"><ele>14.833333333333334</ele><time>2026-04-12T07:26:43.955Z</time></trkpt><trkpt lat="44.789341310001" lon="13.912450823403963"><ele>14.666666666666668</ele><time>2026-04-12T07:26:44.955Z</time></trkpt><trkpt lat="44.78926202738373" lon="13.912452510075498"><ele>14.5</ele><time>2026-04-12T07:26:45.955Z</time></trkpt><trkpt lat="44.7891651077811" lon="13.912461131880127"><ele>14.333333333333334</ele><time>2026-04-12T07:26:46.955Z</time></trkpt><trkpt lat="44.78907349182033" lon="13.912475666038523"><ele>14.166666666666668</ele><time>2026-04-12T07:26:47.955Z</time></trkpt><trkpt lat="44.78899253519982" lon="13.912492212237405"><ele>14.0</ele><time>2026-04-12T07:26:48.955Z</time></trkpt><trkpt lat="44.78891626547681" lon="13.912510821079792"><ele>14.0</ele><time>2026-04-12T07:26:49.955Z</time></trkpt><trkpt lat="44.788848331011565" lon="13.912529012709832"><ele>13.999999999999998</ele><time>2026-04-12T07:26:50.954Z</time></trkpt><trkpt lat="44.78873103924305" lon="13.912555935949836"><ele>13.999999999999998</ele><time>2026-04-12T07:26:52.954Z</time></trkpt><trkpt lat="44.78861062226941" lon="13.912585755831026"><ele>14.0</ele><time>2026-04-12T07:26:54.954Z</time></trkpt><trkpt lat="44.78851985482632" lon="13.9126137479773"><ele>14.0</ele><time>2026-04-12T07:26:56.954Z</time></trkpt><trkpt lat="44.78843865634649" lon="13.912634790574714"><ele>14.666666666666668</ele><time>2026-04-12T07:26:58.954Z</time></trkpt><trkpt lat="44.78836979733406" lon="13.912641658833005"><ele>15.333333333333334</ele><time>2026-04-12T07:26:59.954Z</time></trkpt><trkpt lat="44.788287469630674" lon="13.912641368017853"><ele>16.0</ele><time>2026-04-12T07:27:00.954Z</time></trkpt><trkpt lat="44.78820513001589" lon="13.91264981394154"><ele>16.666666666666668</ele><time>2026-04-12T07:27:01.954Z</time></trkpt><trkpt lat="44.78813193684476" lon="13.912666915554405"><ele>17.333333333333332</ele><time>2026-04-12T07:27:02.954Z</time></trkpt><trkpt lat="44.78806242813117" lon="13.912672111057928"><ele>18.0</ele><time>2026-04-12T07:27:03.954Z</time></trkpt><trkpt lat="44.78798833369435" lon="13.912669825109406"><ele>18.0</ele><time>2026-04-12T07:27:04.954Z</time></trkpt><trkpt lat="44.78791448898398" lon="13.912662988343225"><ele>18.0</ele><time>2026-04-12T07:27:05.954Z</time></trkpt><trkpt lat="44.78783360519054" lon="13.912660431587323"><ele>18.0</ele><time>2026-04-12T07:27:06.954Z</time></trkpt><trkpt lat="44.78774638199775" lon="13.912677861299695"><ele>18.0</ele><time>2026-04-12T07:27:07.954Z</time></trkpt><trkpt lat="44.787653393986545" lon="13.912673891449822"><ele>18.0</ele><time>2026-04-12T07:27:08.954Z</time></trkpt><trkpt lat="44.78758202716253" lon="13.912665910786508"><ele>18.0</ele><time>2026-04-12T07:27:09.954Z</time></trkpt><trkpt lat="44.78746551780134" lon="13.912661390739927"><ele>19.166666666666668</ele><time>2026-04-12T07:27:11.954Z</time></trkpt><trkpt lat="44.787399626097994" lon="13.91266899756757"><ele>20.333333333333336</ele><time>2026-04-12T07:27:12.954Z</time></trkpt><trkpt lat="44.7873222305907" lon="13.912670787278378"><ele>21.5</ele><time>2026-04-12T07:27:13.954Z</time></trkpt><trkpt lat="44.78725075460606" lon="13.912678969887361"><ele>22.666666666666668</ele><time>2026-04-12T07:27:14.954Z</time></trkpt><trkpt lat="44.787109657160315" lon="13.912676453845357"><ele>23.833333333333336</ele><time>2026-04-12T07:27:16.954Z</time></trkpt><trkpt lat="44.78702998794927" lon="13.912672198188089"><ele>25.0</ele><time>2026-04-12T07:27:17.954Z</time></trkpt><trkpt lat="44.78695362296107" lon="13.912685169977935"><ele>25.000000000000004</ele><time>2026-04-12T07:27:18.954Z</time></trkpt><trkpt lat="44.78687458887705" lon="13.912701219847328"><ele>25.0</ele><time>2026-04-12T07:27:19.954Z</time></trkpt><trkpt lat="44.78680059399185" lon="13.912704597136049"><ele>25.0</ele><time>2026-04-12T07:27:20.954Z</time></trkpt><trkpt lat="44.78673294641183" lon="13.912704743942461"><ele>25.0</ele><time>2026-04-12T07:27:21.954Z</time></trkpt><trkpt lat="44.786665705365024" lon="13.912705079748013"><ele>25.0</ele><time>2026-04-12T07:27:22.954Z</time></trkpt><trkpt lat="44.78659026631495" lon="13.912714268404141"><ele>25.000000000000004</ele><time>2026-04-12T07:27:23.954Z</time></trkpt><trkpt lat="44.78651514067543" lon="13.912712402070882"><ele>25.0</ele><time>2026-04-12T07:27:24.953Z</time></trkpt><trkpt lat="44.786447257345976" lon="13.912711729663368"><ele>25.500000000000004</ele><time>2026-04-12T07:27:25.953Z</time></trkpt><trkpt lat="44.7863808636987" lon="13.912708444319197"><ele>26.0</ele><time>2026-04-12T07:27:26.953Z</time></trkpt><trkpt lat="44.786279904021995" lon="13.912729462149143"><ele>26.5</ele><time>2026-04-12T07:27:28.953Z</time></trkpt><trkpt lat="44.78620618545914" lon="13.912730555255827"><ele>27.0</ele><time>2026-04-12T07:27:30.953Z</time></trkpt><trkpt lat="44.78612564742221" lon="13.912714615389351"><ele>27.500000000000004</ele><time>2026-04-12T07:27:33.953Z</time></trkpt><trkpt lat="44.786058269308384" lon="13.912635488637385"><ele>28.0</ele><time>2026-04-12T07:27:35.954Z</time></trkpt><trkpt lat="44.785998503680155" lon="13.912511305546687"><ele>28.666666666666668</ele><time>2026-04-12T07:27:37.953Z</time></trkpt><trkpt lat="44.78594308059581" lon="13.912366428851564"><ele>29.333333333333336</ele><time>2026-04-12T07:27:39.953Z</time></trkpt><trkpt lat="44.78589646181013" lon="13.91227555645775"><ele>30.0</ele><time>2026-04-12T07:27:40.953Z</time></trkpt><trkpt lat="44.78584796278559" lon="13.912204945211219"><ele>30.666666666666664</ele><time>2026-04-12T07:27:41.953Z</time></trkpt><trkpt lat="44.785801549810905" lon="13.912134594290315"><ele>31.333333333333332</ele><time>2026-04-12T07:27:42.953Z</time></trkpt><trkpt lat="44.78574714347275" lon="13.912075033514498"><ele>32.0</ele><time>2026-04-12T07:27:43.953Z</time></trkpt><trkpt lat="44.785704496455736" lon="13.911994586769051"><ele>31.999999999999996</ele><time>2026-04-12T07:27:44.953Z</time></trkpt><trkpt lat="44.78566718935846" lon="13.91191571817382"><ele>32.0</ele><time>2026-04-12T07:27:45.953Z</time></trkpt><trkpt lat="44.785626561069385" lon="13.91184602310199"><ele>32.0</ele><time>2026-04-12T07:27:46.953Z</time></trkpt><trkpt lat="44.785532527386124" lon="13.911755096937268"><ele>32.0</ele><time>2026-04-12T07:27:48.953Z</time></trkpt><trkpt lat="44.78542460148267" lon="13.911720907472375"><ele>31.999999999999996</ele><time>2026-04-12T07:27:50.953Z</time></trkpt><trkpt lat="44.785360437028395" lon="13.911706540711998"><ele>32.0</ele><time>2026-04-12T07:27:51.953Z</time></trkpt><trkpt lat="44.7852401253831" lon="13.911692360490873"><ele>31.57142857142857</ele><time>2026-04-12T07:27:53.953Z</time></trkpt><trkpt lat="44.785175957354696" lon="13.911686634388"><ele>31.14285714285714</ele><time>2026-04-12T07:27:54.953Z</time></trkpt><trkpt lat="44.78510758204494" lon="13.911668846100566"><ele>30.714285714285715</ele><time>2026-04-12T07:27:55.953Z</time></trkpt><trkpt lat="44.78503837158772" lon="13.911645049328287"><ele>30.285714285714285</ele><time>2026-04-12T07:27:56.953Z</time></trkpt><trkpt lat="44.7849696537167" lon="13.91161554464367"><ele>29.857142857142858</ele><time>2026-04-12T07:27:57.953Z</time></trkpt><trkpt lat="44.784898094681594" lon="13.911570303384043"><ele>29.42857142857143</ele><time>2026-04-12T07:27:58.953Z</time></trkpt><trkpt lat="44.78483503355085" lon="13.91150989448131"><ele>29.000000000000004</ele><time>2026-04-12T07:27:59.952Z</time></trkpt><trkpt lat="44.78476199146628" lon="13.91144270496555"><ele>28.999999999999996</ele><time>2026-04-12T07:28:00.952Z</time></trkpt><trkpt lat="44.78468580481293" lon="13.911375670258357"><ele>29.0</ele><time>2026-04-12T07:28:01.952Z</time></trkpt><trkpt lat="44.78461940431775" lon="13.911317901185951"><ele>29.0</ele><time>2026-04-12T07:28:02.952Z</time></trkpt><trkpt lat="44.78455156943247" lon="13.911255076518817"><ele>29.0</ele><time>2026-04-12T07:28:03.952Z</time></trkpt><trkpt lat="44.784492239576885" lon="13.911176793108291"><ele>28.999999999999996</ele><time>2026-04-12T07:28:04.952Z</time></trkpt><trkpt lat="44.7844412755018" lon="13.911095576698452"><ele>29.0</ele><time>2026-04-12T07:28:05.952Z</time></trkpt><trkpt lat="44.784396204836725" lon="13.910994807328017"><ele>28.833333333333332</ele><time>2026-04-12T07:28:06.952Z</time></trkpt><trkpt lat="44.78435918978667" lon="13.910886603515186"><ele>28.666666666666664</ele><time>2026-04-12T07:28:07.952Z</time></trkpt><trkpt lat="44.784322855596685" lon="13.910786815176875"><ele>28.5</ele><time>2026-04-12T07:28:08.952Z</time></trkpt><trkpt lat="44.784273032021765" lon="13.9106921696635"><ele>28.333333333333336</ele><time>2026-04-12T07:28:09.952Z</time></trkpt><trkpt lat="44.78421579969658" lon="13.910607820938244"><ele>28.166666666666668</ele><time>2026-04-12T07:28:10.952Z</time></trkpt><trkpt lat="44.7841504796728" lon="13.91053174080528"><ele>28.0</ele><time>2026-04-12T07:28:11.952Z</time></trkpt><trkpt lat="44.784087294531346" lon="13.910468564605015"><ele>28.000000000000004</ele><time>2026-04-12T07:28:12.952Z</time></trkpt><trkpt lat="44.78401995877161" lon="13.910405099751612"><ele>28.0</ele><time>2026-04-12T07:28:13.952Z</time></trkpt><trkpt lat="44.78395234268788" lon="13.910338042267721"><ele>28.0</ele><time>2026-04-12T07:28:14.952Z</time></trkpt><trkpt lat="44.78388539171522" lon="13.910273297964807"><ele>28.0</ele><time>2026-04-12T07:28:15.952Z</time></trkpt><trkpt lat="44.78381510012407" lon="13.910213045716068"><ele>28.000000000000004</ele><time>2026-04-12T07:28:16.952Z</time></trkpt><trkpt lat="44.783753932624975" lon="13.910137721545789"><ele>28.0</ele><time>2026-04-12T07:28:17.952Z</time></trkpt><trkpt lat="44.78370587523036" lon="13.910042994203852"><ele>27.833333333333336</ele><time>2026-04-12T07:28:18.952Z</time></trkpt><trkpt lat="44.78366639733953" lon="13.909938824999688"><ele>27.666666666666668</ele><time>2026-04-12T07:28:19.952Z</time></trkpt><trkpt lat="44.783616802126005" lon="13.909840636038457"><ele>27.5</ele><time>2026-04-12T07:28:20.952Z</time></trkpt><trkpt lat="44.783562688572104" lon="13.909763650591378"><ele>27.333333333333336</ele><time>2026-04-12T07:28:21.952Z</time></trkpt><trkpt lat="44.78350005103032" lon="13.909696830511168"><ele>27.166666666666668</ele><time>2026-04-12T07:28:22.952Z</time></trkpt><trkpt lat="44.7834375233286" lon="13.90964293145788"><ele>27.0</ele><time>2026-04-12T07:28:23.952Z</time></trkpt><trkpt lat="44.78337012050673" lon="13.90960226013588"><ele>27.0</ele><time>2026-04-12T07:28:24.952Z</time></trkpt><trkpt lat="44.78330054059241" lon="13.909577331954706"><ele>27.0</ele><time>2026-04-12T07:28:25.952Z</time></trkpt><trkpt lat="44.78317476762158" lon="13.909571009209781"><ele>27.0</ele><time>2026-04-12T07:28:27.952Z</time></trkpt><trkpt lat="44.78309633206607" lon="13.90958216687036"><ele>27.0</ele><time>2026-04-12T07:28:28.952Z</time></trkpt><trkpt lat="44.78301898902138" lon="13.909602387623194"><ele>27.0</ele><time>2026-04-12T07:28:29.952Z</time></trkpt><trkpt lat="44.78294485696692" lon="13.90962399207942"><ele>27.0</ele><time>2026-04-12T07:28:30.952Z</time></trkpt><trkpt lat="44.78286480497937" lon="13.90964253901513"><ele>27.0</ele><time>2026-04-12T07:28:31.952Z</time></trkpt><trkpt lat="44.782788549924874" lon="13.90966009647284"><ele>27.0</ele><time>2026-04-12T07:28:32.952Z</time></trkpt><trkpt lat="44.78270323807681" lon="13.909678171862089"><ele>27.0</ele><time>2026-04-12T07:28:33.952Z</time></trkpt><trkpt lat="44.78261981060542" lon="13.909698568712372"><ele>27.0</ele><time>2026-04-12T07:28:34.952Z</time></trkpt><trkpt lat="44.78253447177511" lon="13.909717207726121"><ele>27.0</ele><time>2026-04-12T07:28:35.952Z</time></trkpt><trkpt lat="44.782450968932174" lon="13.909741261309032"><ele>27.0</ele><time>2026-04-12T07:28:36.952Z</time></trkpt><trkpt lat="44.782370616095406" lon="13.909771995774115"><ele>25.833333333333332</ele><time>2026-04-12T07:28:37.952Z</time></trkpt><trkpt lat="44.78228196450747" lon="13.909803134349131"><ele>24.666666666666668</ele><time>2026-04-12T07:28:38.952Z</time></trkpt><trkpt lat="44.78219870439977" lon="13.909828716521254"><ele>23.5</ele><time>2026-04-12T07:28:39.952Z</time></trkpt><trkpt lat="44.78211309710816" lon="13.909857414872581"><ele>22.333333333333336</ele><time>2026-04-12T07:28:40.952Z</time></trkpt><trkpt lat="44.78203275477116" lon="13.90988632168716"><ele>21.166666666666668</ele><time>2026-04-12T07:28:41.952Z</time></trkpt><trkpt lat="44.781945634129336" lon="13.909917993227388"><ele>20.0</ele><time>2026-04-12T07:28:42.952Z</time></trkpt><trkpt lat="44.781862771012726" lon="13.9099503596032"><ele>19.166666666666668</ele><time>2026-04-12T07:28:43.951Z</time></trkpt><trkpt lat="44.78177779566836" lon="13.90997988572406"><ele>18.333333333333336</ele><time>2026-04-12T07:28:44.951Z</time></trkpt><trkpt lat="44.781698386278535" lon="13.910011238093382"><ele>17.5</ele><time>2026-04-12T07:28:45.951Z</time></trkpt><trkpt lat="44.78161541101769" lon="13.910040018201943"><ele>16.666666666666668</ele><time>2026-04-12T07:28:46.951Z</time></trkpt><trkpt lat="44.781527672181426" lon="13.910070285884103"><ele>15.833333333333334</ele><time>2026-04-12T07:28:47.951Z</time></trkpt><trkpt lat="44.78144151994536" lon="13.910098082580559"><ele>15.0</ele><time>2026-04-12T07:28:48.951Z</time></trkpt><trkpt lat="44.78136085501608" lon="13.910125762652395"><ele>14.333333333333334</ele><time>2026-04-12T07:28:49.951Z</time></trkpt><trkpt lat="44.78128049520383" lon="13.910152753116408"><ele>13.666666666666666</ele><time>2026-04-12T07:28:50.951Z</time></trkpt><trkpt lat="44.78119978078491" lon="13.910188287925266"><ele>13.0</ele><time>2026-04-12T07:28:51.951Z</time></trkpt><trkpt lat="44.78112063393856" lon="13.910231293159134"><ele>12.333333333333332</ele><time>2026-04-12T07:28:52.951Z</time></trkpt><trkpt lat="44.78104231952447" lon="13.910277573248639"><ele>11.666666666666666</ele><time>2026-04-12T07:28:53.951Z</time></trkpt><trkpt lat="44.780962353738175" lon="13.910317512015908"><ele>11.0</ele><time>2026-04-12T07:28:54.951Z</time></trkpt><trkpt lat="44.7808792427096" lon="13.910352369623196"><ele>10.833333333333332</ele><time>2026-04-12T07:28:55.951Z</time></trkpt><trkpt lat="44.78079375663411" lon="13.910383655868602"><ele>10.666666666666666</ele><time>2026-04-12T07:28:56.951Z</time></trkpt><trkpt lat="44.78070782555731" lon="13.910408060555186"><ele>10.5</ele><time>2026-04-12T07:28:57.951Z</time></trkpt><trkpt lat="44.7806221189367" lon="13.910429540918313"><ele>10.333333333333334</ele><time>2026-04-12T07:28:58.951Z</time></trkpt><trkpt lat="44.78054275476673" lon="13.910460209377291"><ele>10.166666666666668</ele><time>2026-04-12T07:28:59.951Z</time></trkpt><trkpt lat="44.780456710690636" lon="13.910492963284577"><ele>10.0</ele><time>2026-04-12T07:29:00.951Z</time></trkpt><trkpt lat="44.780386578591965" lon="13.91053639464282"><ele>10.0</ele><time>2026-04-12T07:29:01.951Z</time></trkpt><trkpt lat="44.78031889471189" lon="13.910586343127267"><ele>10.0</ele><time>2026-04-12T07:29:02.951Z</time></trkpt><trkpt lat="44.78026080175755" lon="13.91063670974566"><ele>10.0</ele><time>2026-04-12T07:29:03.951Z</time></trkpt><trkpt lat="44.780206026898995" lon="13.9106884482877"><ele>10.0</ele><time>2026-04-12T07:29:04.951Z</time></trkpt><trkpt lat="44.78015081878948" lon="13.910739663564831"><ele>10.0</ele><time>2026-04-12T07:29:05.951Z</time></trkpt><trkpt lat="44.78004996343909" lon="13.910816513042846"><ele>10.0</ele><time>2026-04-12T07:29:07.951Z</time></trkpt><trkpt lat="44.779940472037296" lon="13.910808561869581"><ele>10.285714285714285</ele><time>2026-04-12T07:29:09.951Z</time></trkpt><trkpt lat="44.77987704058729" lon="13.910782356498911"><ele>10.571428571428571</ele><time>2026-04-12T07:29:10.951Z</time></trkpt><trkpt lat="44.7798148214511" lon="13.910748146815088"><ele>10.857142857142858</ele><time>2026-04-12T07:29:11.951Z</time></trkpt><trkpt lat="44.77974985029744" lon="13.910722957179322"><ele>11.142857142857142</ele><time>2026-04-12T07:29:12.951Z</time></trkpt><trkpt lat="44.77967938304661" lon="13.910698912894645"><ele>11.428571428571429</ele><time>2026-04-12T07:29:13.951Z</time></trkpt><trkpt lat="44.779602639634945" lon="13.910688436830538"><ele>11.714285714285714</ele><time>2026-04-12T07:29:14.951Z</time></trkpt><trkpt lat="44.779524990679484" lon="13.910686837469973"><ele>12.0</ele><time>2026-04-12T07:29:15.951Z</time></trkpt><trkpt lat="44.779438091681214" lon="13.910685389367707"><ele>13.2</ele><time>2026-04-12T07:29:16.951Z</time></trkpt><trkpt lat="44.779345226186905" lon="13.910688305561862"><ele>14.399999999999999</ele><time>2026-04-12T07:29:17.951Z</time></trkpt><trkpt lat="44.77925151187881" lon="13.910700692085435"><ele>15.600000000000001</ele><time>2026-04-12T07:29:18.951Z</time></trkpt><trkpt lat="44.77915615940661" lon="13.910712132973032"><ele>16.8</ele><time>2026-04-12T07:29:19.951Z</time></trkpt><trkpt lat="44.77905527016699" lon="13.910726855536142"><ele>18.0</ele><time>2026-04-12T07:29:20.951Z</time></trkpt><trkpt lat="44.77896174296592" lon="13.910750240111994"><ele>18.0</ele><time>2026-04-12T07:29:21.951Z</time></trkpt><trkpt lat="44.778862886427035" lon="13.910774192800964"><ele>18.0</ele><time>2026-04-12T07:29:22.951Z</time></trkpt><trkpt lat="44.778766393460785" lon="13.910802264314436"><ele>18.0</ele><time>2026-04-12T07:29:23.951Z</time></trkpt><trkpt lat="44.7786674339983" lon="13.91083804677064"><ele>18.0</ele><time>2026-04-12T07:29:24.951Z</time></trkpt><trkpt lat="44.77857185166778" lon="13.910875213225088"><ele>18.0</ele><time>2026-04-12T07:29:25.951Z</time></trkpt><trkpt lat="44.778471907482746" lon="13.910912845455359"><ele>18.8</ele><time>2026-04-12T07:29:26.95Z</time></trkpt><trkpt lat="44.77837317348736" lon="13.910946473195507"><ele>19.6</ele><time>2026-04-12T07:29:27.95Z</time></trkpt><trkpt lat="44.77827053537193" lon="13.910969403280664"><ele>20.400000000000002</ele><time>2026-04-12T07:29:28.95Z</time></trkpt><trkpt lat="44.77817726948274" lon="13.910961079159765"><ele>21.200000000000003</ele><time>2026-04-12T07:29:29.95Z</time></trkpt><trkpt lat="44.77809653623399" lon="13.911001517911394"><ele>22.0</ele><time>2026-04-12T07:29:30.95Z</time></trkpt><trkpt lat="44.778019860351854" lon="13.911014316858916"><ele>22.0</ele><time>2026-04-12T07:29:31.95Z</time></trkpt><trkpt lat="44.77794291831974" lon="13.911025196088557"><ele>22.0</ele><time>2026-04-12T07:29:32.95Z</time></trkpt><trkpt lat="44.77786573164437" lon="13.911029788446465"><ele>22.0</ele><time>2026-04-12T07:29:33.95Z</time></trkpt><trkpt lat="44.77779482573759" lon="13.911034267852916"><ele>22.0</ele><time>2026-04-12T07:29:34.95Z</time></trkpt><trkpt lat="44.777726758856545" lon="13.911033216713715"><ele>22.0</ele><time>2026-04-12T07:29:35.95Z</time></trkpt><trkpt lat="44.77766128638515" lon="13.911031871892435"><ele>22.0</ele><time>2026-04-12T07:29:36.95Z</time></trkpt><trkpt lat="44.77759688590875" lon="13.911019031114046"><ele>22.0</ele><time>2026-04-12T07:29:37.95Z</time></trkpt><trkpt lat="44.77752441224541" lon="13.911011338409908"><ele>20.833333333333332</ele><time>2026-04-12T07:29:38.95Z</time></trkpt><trkpt lat="44.77744251188578" lon="13.911001694246602"><ele>19.666666666666664</ele><time>2026-04-12T07:29:39.95Z</time></trkpt><trkpt lat="44.777362556609994" lon="13.91099253255342"><ele>18.5</ele><time>2026-04-12T07:29:40.95Z</time></trkpt><trkpt lat="44.7772887602543" lon="13.91098100969861"><ele>17.333333333333332</ele><time>2026-04-12T07:29:41.95Z</time></trkpt><trkpt lat="44.77720754611323" lon="13.910986274081598"><ele>16.166666666666668</ele><time>2026-04-12T07:29:42.949Z</time></trkpt><trkpt lat="44.7771208629559" lon="13.910985667004649"><ele>15.0</ele><time>2026-04-12T07:29:43.95Z</time></trkpt><trkpt lat="44.77704334138596" lon="13.910975002804342"><ele>15.0</ele><time>2026-04-12T07:29:44.95Z</time></trkpt><trkpt lat="44.77697158212639" lon="13.910944955109505"><ele>15.0</ele><time>2026-04-12T07:29:45.95Z</time></trkpt><trkpt lat="44.77689357800396" lon="13.910904856015478"><ele>15.0</ele><time>2026-04-12T07:29:46.95Z</time></trkpt><trkpt lat="44.7768200043918" lon="13.910865792161843"><ele>15.0</ele><time>2026-04-12T07:29:47.95Z</time></trkpt><trkpt lat="44.776744921386225" lon="13.910826079374567"><ele>15.0</ele><time>2026-04-12T07:29:48.95Z</time></trkpt><trkpt lat="44.77667778550092" lon="13.910787169779143"><ele>15.0</ele><time>2026-04-12T07:29:49.95Z</time></trkpt><trkpt lat="44.776621083863546" lon="13.910747849052928"><ele>14.833333333333334</ele><time>2026-04-12T07:29:50.95Z</time></trkpt><trkpt lat="44.77656278714233" lon="13.910700959559621"><ele>14.666666666666668</ele><time>2026-04-12T07:29:51.95Z</time></trkpt><trkpt lat="44.7765082508357" lon="13.910641334186606"><ele>14.5</ele><time>2026-04-12T07:29:52.95Z</time></trkpt><trkpt lat="44.77646368574883" lon="13.91056230702872"><ele>14.333333333333334</ele><time>2026-04-12T07:29:53.95Z</time></trkpt><trkpt lat="44.77639391384409" lon="13.910406409069354"><ele>14.166666666666668</ele><time>2026-04-12T07:29:55.95Z</time></trkpt><trkpt lat="44.77634820825429" lon="13.910264616209574"><ele>14.0</ele><time>2026-04-12T07:29:57.95Z</time></trkpt><trkpt lat="44.776302926675925" lon="13.910122748801271"><ele>14.2</ele><time>2026-04-12T07:29:59.95Z</time></trkpt><trkpt lat="44.776267717105384" lon="13.910038809709235"><ele>14.399999999999999</ele><time>2026-04-12T07:30:00.95Z</time></trkpt><trkpt lat="44.77622443671751" lon="13.909963042838742"><ele>14.6</ele><time>2026-04-12T07:30:01.95Z</time></trkpt><trkpt lat="44.776128040243094" lon="13.909887183012273"><ele>14.8</ele><time>2026-04-12T07:30:03.949Z</time></trkpt><trkpt lat="44.77600421397841" lon="13.909879882023413"><ele>15.0</ele><time>2026-04-12T07:30:05.949Z</time></trkpt><trkpt lat="44.775882825605706" lon="13.909937346678266"><ele>15.166666666666666</ele><time>2026-04-12T07:30:07.949Z</time></trkpt><trkpt lat="44.775815300925565" lon="13.909985877576423"><ele>15.333333333333332</ele><time>2026-04-12T07:30:08.949Z</time></trkpt><trkpt lat="44.775745358213065" lon="13.910027201361174"><ele>15.5</ele><time>2026-04-12T07:30:09.949Z</time></trkpt><trkpt lat="44.77568068512125" lon="13.910062767637823"><ele>15.666666666666666</ele><time>2026-04-12T07:30:10.949Z</time></trkpt><trkpt lat="44.77561455202823" lon="13.91008705547428"><ele>15.833333333333332</ele><time>2026-04-12T07:30:11.949Z</time></trkpt><trkpt lat="44.77554618988968" lon="13.910098663053844"><ele>16.0</ele><time>2026-04-12T07:30:12.949Z</time></trkpt><trkpt lat="44.77542104969887" lon="13.91010484438852"><ele>15.999999999999998</ele><time>2026-04-12T07:30:14.949Z</time></trkpt><trkpt lat="44.77534723501641" lon="13.910101821117673"><ele>16.0</ele><time>2026-04-12T07:30:15.949Z</time></trkpt><trkpt lat="44.775270636247626" lon="13.910098606994897"><ele>16.0</ele><time>2026-04-12T07:30:16.949Z</time></trkpt><trkpt lat="44.775187513871565" lon="13.910100098682667"><ele>16.0</ele><time>2026-04-12T07:30:17.949Z</time></trkpt><trkpt lat="44.775111344860875" lon="13.910094619977409"><ele>15.999999999999998</ele><time>2026-04-12T07:30:18.949Z</time></trkpt><trkpt lat="44.77503702498053" lon="13.91009055547421"><ele>16.0</ele><time>2026-04-12T07:30:19.949Z</time></trkpt><trkpt lat="44.774958064821305" lon="13.91010380622263"><ele>15.999999999999998</ele><time>2026-04-12T07:30:20.949Z</time></trkpt><trkpt lat="44.77488173864166" lon="13.910129204740468"><ele>16.0</ele><time>2026-04-12T07:30:21.949Z</time></trkpt><trkpt lat="44.774814076420476" lon="13.910169704318937"><ele>16.0</ele><time>2026-04-12T07:30:22.949Z</time></trkpt><trkpt lat="44.77476417701572" lon="13.910224660323188"><ele>16.0</ele><time>2026-04-12T07:30:23.949Z</time></trkpt><trkpt lat="44.774717387023486" lon="13.910293827122821"><ele>15.999999999999998</ele><time>2026-04-12T07:30:24.949Z</time></trkpt><trkpt lat="44.77465787953571" lon="13.910414464615256"><ele>16.0</ele><time>2026-04-12T07:30:26.949Z</time></trkpt><trkpt lat="44.77463929544141" lon="13.910503514999144"><ele>16.0</ele><time>2026-04-12T07:31:03.948Z</time></trkpt><trkpt lat="44.774582001904484" lon="13.91058252162298"><ele>16.0</ele><time>2026-04-12T07:31:06.948Z</time></trkpt><trkpt lat="44.774509961847606" lon="13.910637626171372"><ele>16.0</ele><time>2026-04-12T07:31:09.948Z</time></trkpt><trkpt lat="44.77440972350549" lon="13.910703550805861"><ele>16.0</ele><time>2026-04-12T07:31:11.948Z</time></trkpt><trkpt lat="44.77431320764997" lon="13.910771584222301"><ele>16.0</ele><time>2026-04-12T07:31:13.948Z</time></trkpt><trkpt lat="44.77421541427708" lon="13.91084462983785"><ele>15.8</ele><time>2026-04-12T07:31:15.948Z</time></trkpt><trkpt lat="44.774149602414994" lon="13.910834173133455"><ele>15.600000000000001</ele><time>2026-04-12T07:31:16.948Z</time></trkpt><trkpt lat="44.77404820776575" lon="13.910897053083763"><ele>15.4</ele><time>2026-04-12T07:31:18.948Z</time></trkpt><trkpt lat="44.77392129381713" lon="13.910907814802618"><ele>15.2</ele><time>2026-04-12T07:31:20.948Z</time></trkpt><trkpt lat="44.77378713297182" lon="13.910898082835041"><ele>15.0</ele><time>2026-04-12T07:31:22.948Z</time></trkpt><trkpt lat="44.77372043637533" lon="13.910886945201812"><ele>15.166666666666666</ele><time>2026-04-12T07:31:23.948Z</time></trkpt><trkpt lat="44.77365702220327" lon="13.910879239533802"><ele>15.333333333333332</ele><time>2026-04-12T07:31:24.948Z</time></trkpt><trkpt lat="44.77354325376461" lon="13.910861311224345"><ele>15.5</ele><time>2026-04-12T07:31:26.948Z</time></trkpt><trkpt lat="44.773443287640035" lon="13.9108665647591"><ele>15.666666666666666</ele><time>2026-04-12T07:31:28.948Z</time></trkpt><trkpt lat="44.77334271950968" lon="13.910900992679075"><ele>15.833333333333332</ele><time>2026-04-12T07:31:30.947Z</time></trkpt><trkpt lat="44.77328053825727" lon="13.910919549466463"><ele>16.0</ele><time>2026-04-12T07:31:31.947Z</time></trkpt><trkpt lat="44.77315576093564" lon="13.910953347587633"><ele>16.0</ele><time>2026-04-12T07:31:33.947Z</time></trkpt><trkpt lat="44.77304007579851" lon="13.910953723371955"><ele>16.0</ele><time>2026-04-12T07:31:35.947Z</time></trkpt><trkpt lat="44.7729134426959" lon="13.910924284056053"><ele>16.0</ele><time>2026-04-12T07:31:37.947Z</time></trkpt><trkpt lat="44.77284306887531" lon="13.910912498145464"><ele>16.0</ele><time>2026-04-12T07:31:38.947Z</time></trkpt><trkpt lat="44.77277757069357" lon="13.91089706236898"><ele>16.0</ele><time>2026-04-12T07:31:39.947Z</time></trkpt><trkpt lat="44.7727107526385" lon="13.910872882106764"><ele>17.200000000000003</ele><time>2026-04-12T07:31:40.947Z</time></trkpt><trkpt lat="44.77260344144837" lon="13.91081378885904"><ele>18.400000000000002</ele><time>2026-04-12T07:31:42.947Z</time></trkpt><trkpt lat="44.77254885016467" lon="13.91076938040331"><ele>19.6</ele><time>2026-04-12T07:31:43.947Z</time></trkpt><trkpt lat="44.77249371149612" lon="13.91072209044911"><ele>20.8</ele><time>2026-04-12T07:31:44.947Z</time></trkpt><trkpt lat="44.77240024143491" lon="13.910605362438265"><ele>22.0</ele><time>2026-04-12T07:31:46.946Z</time></trkpt><trkpt lat="44.7723022017884" lon="13.91047116259198"><ele>22.0</ele><time>2026-04-12T07:31:48.947Z</time></trkpt><trkpt lat="44.772249108331486" lon="13.91041029803406"><ele>22.0</ele><time>2026-04-12T07:31:49.947Z</time></trkpt><trkpt lat="44.77219857834275" lon="13.910351184646153"><ele>22.0</ele><time>2026-04-12T07:31:50.947Z</time></trkpt><trkpt lat="44.77214219398388" lon="13.910293351203489"><ele>22.0</ele><time>2026-04-12T07:31:51.947Z</time></trkpt><trkpt lat="44.77203979242005" lon="13.910167954401059"><ele>22.0</ele><time>2026-04-12T07:31:53.947Z</time></trkpt><trkpt lat="44.77198501059665" lon="13.910083572591459"><ele>22.0</ele><time>2026-04-12T07:31:54.947Z</time></trkpt><trkpt lat="44.771925930528546" lon="13.90999704084581"><ele>21.833333333333332</ele><time>2026-04-12T07:31:55.947Z</time></trkpt><trkpt lat="44.771873099227015" lon="13.90991124251237"><ele>21.666666666666664</ele><time>2026-04-12T07:31:56.947Z</time></trkpt><trkpt lat="44.77181733058542" lon="13.90982477127148"><ele>21.5</ele><time>2026-04-12T07:31:57.947Z</time></trkpt><trkpt lat="44.77175837998705" lon="13.909725318047796"><ele>21.333333333333332</ele><time>2026-04-12T07:31:58.947Z</time></trkpt><trkpt lat="44.77170575949101" lon="13.909636935025198"><ele>21.166666666666668</ele><time>2026-04-12T07:31:59.947Z</time></trkpt><trkpt lat="44.771647322849795" lon="13.909554980177433"><ele>21.0</ele><time>2026-04-12T07:32:00.947Z</time></trkpt><trkpt lat="44.77158809651967" lon="13.909481914567465"><ele>21.166666666666668</ele><time>2026-04-12T07:32:01.947Z</time></trkpt><trkpt lat="44.77152604730004" lon="13.90941156815697"><ele>21.333333333333332</ele><time>2026-04-12T07:32:02.947Z</time></trkpt><trkpt lat="44.77145510781977" lon="13.90934884324997"><ele>21.5</ele><time>2026-04-12T07:32:03.947Z</time></trkpt><trkpt lat="44.771374220330614" lon="13.90929531179266"><ele>21.666666666666664</ele><time>2026-04-12T07:32:04.947Z</time></trkpt><trkpt lat="44.771304794950105" lon="13.909249745154082"><ele>21.833333333333332</ele><time>2026-04-12T07:32:05.947Z</time></trkpt><trkpt lat="44.771249666198734" lon="13.909202733121418"><ele>22.0</ele><time>2026-04-12T07:32:06.947Z</time></trkpt><trkpt lat="44.77114844056838" lon="13.90913531485771"><ele>22.0</ele><time>2026-04-12T07:32:08.947Z</time></trkpt><trkpt lat="44.77103140345528" lon="13.909076647905012"><ele>22.0</ele><time>2026-04-12T07:32:10.947Z</time></trkpt><trkpt lat="44.77096765440849" lon="13.909061564881814"><ele>22.0</ele><time>2026-04-12T07:32:11.947Z</time></trkpt><trkpt lat="44.77084626357353" lon="13.909044468546066"><ele>22.0</ele><time>2026-04-12T07:32:13.947Z</time></trkpt><trkpt lat="44.7707774537682" lon="13.909039516077792"><ele>22.0</ele><time>2026-04-12T07:32:14.947Z</time></trkpt><trkpt lat="44.77069483154415" lon="13.909054251396453"><ele>22.666666666666664</ele><time>2026-04-12T07:32:15.947Z</time></trkpt><trkpt lat="44.77060434225435" lon="13.909068901932754"><ele>23.333333333333332</ele><time>2026-04-12T07:32:16.947Z</time></trkpt><trkpt lat="44.770525712277056" lon="13.909084635468485"><ele>24.0</ele><time>2026-04-12T07:32:17.947Z</time></trkpt><trkpt lat="44.77045977534909" lon="13.909105102511521"><ele>24.666666666666664</ele><time>2026-04-12T07:32:18.947Z</time></trkpt><trkpt lat="44.77040107614496" lon="13.909139887044669"><ele>25.333333333333332</ele><time>2026-04-12T07:32:19.947Z</time></trkpt><trkpt lat="44.77030250336221" lon="13.909240199871837"><ele>26.0</ele><time>2026-04-12T07:32:21.947Z</time></trkpt><trkpt lat="44.77025364724943" lon="13.909302750978407"><ele>25.5</ele><time>2026-04-12T07:32:22.947Z</time></trkpt><trkpt lat="44.77017466248773" lon="13.909442266328092"><ele>25.0</ele><time>2026-04-12T07:32:24.947Z</time></trkpt><trkpt lat="44.770106749526846" lon="13.90959448017101"><ele>24.5</ele><time>2026-04-12T07:32:26.947Z</time></trkpt><trkpt lat="44.7700472537726" lon="13.909744378305817"><ele>24.0</ele><time>2026-04-12T07:32:28.946Z</time></trkpt><trkpt lat="44.77000445549651" lon="13.90988691796494"><ele>24.0</ele><time>2026-04-12T07:32:30.946Z</time></trkpt><trkpt lat="44.7699691087266" lon="13.910015078745477"><ele>24.0</ele><time>2026-04-12T07:32:32.946Z</time></trkpt><trkpt lat="44.7699285502478" lon="13.910115135550326"><ele>24.0</ele><time>2026-04-12T07:32:34.946Z</time></trkpt><trkpt lat="44.7698898653284" lon="13.91022880440718"><ele>24.0</ele><time>2026-04-12T07:32:37.946Z</time></trkpt><trkpt lat="44.769913351198966" lon="13.910348791823775"><ele>24.0</ele><time>2026-04-12T07:33:05.946Z</time></trkpt><trkpt lat="44.76999554490208" lon="13.91037761781398"><ele>24.0</ele><time>2026-04-12T07:33:08.946Z</time></trkpt><trkpt lat="44.76994380691405" lon="13.910324680720102"><ele>23.999999999999996</ele><time>2026-04-12T07:36:16.943Z</time></trkpt><trkpt lat="44.76988329193799" lon="13.91028245290214"><ele>24.0</ele><time>2026-04-12T07:36:28.943Z</time></trkpt><trkpt lat="44.76981745364134" lon="13.910303704762747"><ele>24.0</ele><time>2026-04-12T07:36:44.942Z</time></trkpt><trkpt lat="44.769764892242435" lon="13.910359587757064"><ele>24.0</ele><time>2026-04-12T07:36:52.942Z</time></trkpt><trkpt lat="44.76969690156058" lon="13.91039043370194"><ele>24.0</ele><time>2026-04-12T07:37:16.941Z</time></trkpt><trkpt lat="44.76963458484565" lon="13.910377251451527"><ele>23.999999999999996</ele><time>2026-04-12T07:37:27.941Z</time></trkpt><trkpt lat="44.76957087490012" lon="13.910331452819591"><ele>24.0</ele><time>2026-04-12T07:37:56.942Z</time></trkpt><trkpt lat="44.76950469708461" lon="13.91033290515416"><ele>23.999999999999996</ele><time>2026-04-12T07:38:18.941Z</time></trkpt><trkpt lat="44.76944606768537" lon="13.91029926218546"><ele>24.0</ele><time>2026-04-12T07:38:43.94Z</time></trkpt><trkpt lat="44.76938815783645" lon="13.910344780847419"><ele>24.0</ele><time>2026-04-12T07:39:12.94Z</time></trkpt><trkpt lat="44.769326622639625" lon="13.910319499091255"><ele>24.0</ele><time>2026-04-12T07:39:50.939Z</time></trkpt><trkpt lat="44.76926256366386" lon="13.910329443506997"><ele>24.0</ele><time>2026-04-12T07:39:57.938Z</time></trkpt><trkpt lat="44.7693236309173" lon="13.9102996849914"><ele>23.999999999999996</ele><time>2026-04-12T07:45:39.933Z</time></trkpt><trkpt lat="44.76937751139588" lon="13.910352508480164"><ele>24.0</ele><time>2026-04-12T07:46:10.933Z</time></trkpt><trkpt lat="44.76944046023614" lon="13.910360148444767"><ele>23.999999999999996</ele><time>2026-04-12T07:46:33.934Z</time></trkpt><trkpt lat="44.76951650702746" lon="13.910315105739626"><ele>24.0</ele><time>2026-04-12T07:46:56.933Z</time></trkpt><trkpt lat="44.76958352920977" lon="13.910344187511795"><ele>24.0</ele><time>2026-04-12T07:47:02.933Z</time></trkpt><trkpt lat="44.76964806647682" lon="13.910371084751532"><ele>24.0</ele><time>2026-04-12T07:47:12.933Z</time></trkpt><trkpt lat="44.76971756223254" lon="13.910370743267537"><ele>24.0</ele><time>2026-04-12T07:47:26.933Z</time></trkpt><trkpt lat="44.76976075942582" lon="13.91044301622564"><ele>23.999999999999996</ele><time>2026-04-12T07:47:36.932Z</time></trkpt><trkpt lat="44.769824631546236" lon="13.91044171705275"><ele>24.0</ele><time>2026-04-12T07:47:48.932Z</time></trkpt><trkpt lat="44.76988324640363" lon="13.910396457597578"><ele>24.0</ele><time>2026-04-12T07:47:57.932Z</time></trkpt><trkpt lat="44.76993888141949" lon="13.910353322978056"><ele>24.0</ele><time>2026-04-12T07:48:05.932Z</time></trkpt><trkpt lat="44.77002947580492" lon="13.910352022637465"><ele>24.0</ele><time>2026-04-12T07:50:08.931Z</time></trkpt><trkpt lat="44.770034559344126" lon="13.910227441618824"><ele>24.0</ele><time>2026-04-12T07:50:11.931Z</time></trkpt><trkpt lat="44.769996398916604" lon="13.910130262498793"><ele>24.0</ele><time>2026-04-12T07:50:13.931Z</time></trkpt><trkpt lat="44.76996778512925" lon="13.910014411466204"><ele>24.0</ele><time>2026-04-12T07:50:16.931Z</time></trkpt><trkpt lat="44.77000100887919" lon="13.90993148940875"><ele>24.0</ele><time>2026-04-12T07:50:18.931Z</time></trkpt><trkpt lat="44.77002757627824" lon="13.909828852352698"><ele>24.0</ele><time>2026-04-12T07:50:20.931Z</time></trkpt><trkpt lat="44.77007144568169" lon="13.909699841515613"><ele>24.0</ele><time>2026-04-12T07:50:22.93Z</time></trkpt><trkpt lat="44.77011724165626" lon="13.909634856012824"><ele>24.0</ele><time>2026-04-12T07:50:24.93Z</time></trkpt><trkpt lat="44.77019835343206" lon="13.90965185309183"><ele>24.0</ele><time>2026-04-12T07:50:27.93Z</time></trkpt><trkpt lat="44.77023047599273" lon="13.909745699685201"><ele>24.0</ele><time>2026-04-12T07:50:29.931Z</time></trkpt><trkpt lat="44.77024975575021" lon="13.909844842492522"><ele>25.2</ele><time>2026-04-12T07:50:31.931Z</time></trkpt><trkpt lat="44.77026417288113" lon="13.909946945136355"><ele>26.4</ele><time>2026-04-12T07:50:33.93Z</time></trkpt><trkpt lat="44.770294319183925" lon="13.910085139653232"><ele>27.6</ele><time>2026-04-12T07:50:35.931Z</time></trkpt><trkpt lat="44.77031040538136" lon="13.91017811891226"><ele>28.8</ele><time>2026-04-12T07:50:36.931Z</time></trkpt><trkpt lat="44.770357771484186" lon="13.91034226415933"><ele>30.0</ele><time>2026-04-12T07:50:38.931Z</time></trkpt><trkpt lat="44.77041062898498" lon="13.910504035268886"><ele>30.333333333333332</ele><time>2026-04-12T07:50:40.93Z</time></trkpt><trkpt lat="44.77044238174158" lon="13.910590659307294"><ele>30.666666666666664</ele><time>2026-04-12T07:50:41.931Z</time></trkpt><trkpt lat="44.770475924898086" lon="13.910681585883156"><ele>31.0</ele><time>2026-04-12T07:50:42.931Z</time></trkpt><trkpt lat="44.77051498315981" lon="13.91076530544187"><ele>31.333333333333332</ele><time>2026-04-12T07:50:43.931Z</time></trkpt><trkpt lat="44.77054911158243" lon="13.910842161804803"><ele>31.666666666666664</ele><time>2026-04-12T07:50:44.931Z</time></trkpt><trkpt lat="44.77062352868339" lon="13.91095647343785"><ele>32.0</ele><time>2026-04-12T07:50:46.931Z</time></trkpt><trkpt lat="44.77071973784495" lon="13.911024742560421"><ele>32.2</ele><time>2026-04-12T07:50:48.931Z</time></trkpt><trkpt lat="44.77084641031948" lon="13.911054610327215"><ele>32.400000000000006</ele><time>2026-04-12T07:50:50.931Z</time></trkpt><trkpt lat="44.770915591425165" lon="13.911057626335651"><ele>32.599999999999994</ele><time>2026-04-12T07:50:51.931Z</time></trkpt><trkpt lat="44.77102619121375" lon="13.911048897400631"><ele>32.8</ele><time>2026-04-12T07:50:53.93Z</time></trkpt><trkpt lat="44.771121243719634" lon="13.911064772483885"><ele>33.0</ele><time>2026-04-12T07:50:55.93Z</time></trkpt><trkpt lat="44.77121106561869" lon="13.911093284511148"><ele>32.5</ele><time>2026-04-12T07:50:57.93Z</time></trkpt><trkpt lat="44.77131363371678" lon="13.911107278190459"><ele>32.0</ele><time>2026-04-12T07:50:59.93Z</time></trkpt><trkpt lat="44.77140469385933" lon="13.911098374497508"><ele>31.5</ele><time>2026-04-12T07:51:01.93Z</time></trkpt><trkpt lat="44.771464512612674" lon="13.911053796979603"><ele>31.0</ele><time>2026-04-12T07:51:03.93Z</time></trkpt><trkpt lat="44.771490273844634" lon="13.910930342662288"><ele>30.5</ele><time>2026-04-12T07:51:05.93Z</time></trkpt><trkpt lat="44.77148384889538" lon="13.910807980792676"><ele>30.0</ele><time>2026-04-12T07:51:07.93Z</time></trkpt><trkpt lat="44.77146222025752" lon="13.910678375026247"><ele>30.0</ele><time>2026-04-12T07:51:09.93Z</time></trkpt><trkpt lat="44.77141063174112" lon="13.910529529499948"><ele>30.0</ele><time>2026-04-12T07:51:11.93Z</time></trkpt><trkpt lat="44.77138910588729" lon="13.910418417630972"><ele>30.0</ele><time>2026-04-12T07:51:12.93Z</time></trkpt><trkpt lat="44.77137347194351" lon="13.910317926731695"><ele>30.0</ele><time>2026-04-12T07:51:13.93Z</time></trkpt><trkpt lat="44.77136186948046" lon="13.9102275660824"><ele>30.0</ele><time>2026-04-12T07:51:14.93Z</time></trkpt><trkpt lat="44.77134789580391" lon="13.91013959087826"><ele>30.0</ele><time>2026-04-12T07:51:15.93Z</time></trkpt><trkpt lat="44.77133384394776" lon="13.91005263859244"><ele>29.4</ele><time>2026-04-12T07:51:16.93Z</time></trkpt><trkpt lat="44.77130238911694" lon="13.909892305020104"><ele>28.8</ele><time>2026-04-12T07:51:18.93Z</time></trkpt><trkpt lat="44.77126369298363" lon="13.90973732090796"><ele>28.200000000000003</ele><time>2026-04-12T07:51:20.93Z</time></trkpt><trkpt lat="44.77121489220618" lon="13.909587802818457"><ele>27.6</ele><time>2026-04-12T07:51:22.93Z</time></trkpt><trkpt lat="44.77117438591395" lon="13.909476022615806"><ele>27.0</ele><time>2026-04-12T07:51:24.93Z</time></trkpt><trkpt lat="44.771142848060535" lon="13.909355624388887"><ele>27.0</ele><time>2026-04-12T07:51:26.93Z</time></trkpt><trkpt lat="44.771157837248936" lon="13.909231458486358"><ele>27.000000000000004</ele><time>2026-04-12T07:51:28.93Z</time></trkpt><trkpt lat="44.77123578577609" lon="13.909174746487713"><ele>27.000000000000004</ele><time>2026-04-12T07:51:31.93Z</time></trkpt><trkpt lat="44.77131827586777" lon="13.909229868744426"><ele>27.0</ele><time>2026-04-12T07:51:33.93Z</time></trkpt><trkpt lat="44.77140506638469" lon="13.909317318266838"><ele>27.0</ele><time>2026-04-12T07:51:35.93Z</time></trkpt><trkpt lat="44.771461140540204" lon="13.909388374839654"><ele>27.0</ele><time>2026-04-12T07:51:36.929Z</time></trkpt><trkpt lat="44.771519210073215" lon="13.909444485209171"><ele>27.0</ele><time>2026-04-12T07:51:37.929Z</time></trkpt><trkpt lat="44.77157961634431" lon="13.909506606033847"><ele>27.0</ele><time>2026-04-12T07:51:38.929Z</time></trkpt><trkpt lat="44.77167746709086" lon="13.909609469301357"><ele>27.0</ele><time>2026-04-12T07:51:40.929Z</time></trkpt><trkpt lat="44.771729871949184" lon="13.909685878736289"><ele>27.0</ele><time>2026-04-12T07:51:41.929Z</time></trkpt><trkpt lat="44.77178089135481" lon="13.909769590525896"><ele>27.0</ele><time>2026-04-12T07:51:42.929Z</time></trkpt><trkpt lat="44.771823232774224" lon="13.909842715084038"><ele>26.285714285714285</ele><time>2026-04-12T07:51:43.929Z</time></trkpt><trkpt lat="44.771868514937296" lon="13.909919520243557"><ele>25.57142857142857</ele><time>2026-04-12T07:51:44.929Z</time></trkpt><trkpt lat="44.77191657003271" lon="13.909990787195486"><ele>24.857142857142858</ele><time>2026-04-12T07:51:45.929Z</time></trkpt><trkpt lat="44.771965847294226" lon="13.910063487928902"><ele>24.142857142857142</ele><time>2026-04-12T07:51:46.929Z</time></trkpt><trkpt lat="44.77201842749196" lon="13.91013443646909"><ele>23.428571428571427</ele><time>2026-04-12T07:51:47.929Z</time></trkpt><trkpt lat="44.77206833854564" lon="13.910208306392375"><ele>22.714285714285715</ele><time>2026-04-12T07:51:48.929Z</time></trkpt><trkpt lat="44.77211394267708" lon="13.910286354669443"><ele>22.0</ele><time>2026-04-12T07:51:49.929Z</time></trkpt><trkpt lat="44.77217518349093" lon="13.910356385433198"><ele>22.0</ele><time>2026-04-12T07:51:50.929Z</time></trkpt><trkpt lat="44.772229006505846" lon="13.910414428645518"><ele>22.0</ele><time>2026-04-12T07:51:51.929Z</time></trkpt><trkpt lat="44.772282531005295" lon="13.91048766639074"><ele>22.0</ele><time>2026-04-12T07:51:52.929Z</time></trkpt><trkpt lat="44.772333595363506" lon="13.910541747675612"><ele>22.0</ele><time>2026-04-12T07:51:53.929Z</time></trkpt><trkpt lat="44.77238721859326" lon="13.910596479485857"><ele>22.0</ele><time>2026-04-12T07:51:54.929Z</time></trkpt><trkpt lat="44.77244253439224" lon="13.910656847594165"><ele>22.0</ele><time>2026-04-12T07:51:55.929Z</time></trkpt><trkpt lat="44.772523793188526" lon="13.910781782748952"><ele>22.0</ele><time>2026-04-12T07:51:57.929Z</time></trkpt><trkpt lat="44.77261073827182" lon="13.91089453601002"><ele>22.0</ele><time>2026-04-12T07:51:59.929Z</time></trkpt><trkpt lat="44.77270379993965" lon="13.911008090735244"><ele>22.0</ele><time>2026-04-12T07:52:01.929Z</time></trkpt><trkpt lat="44.772807480561575" lon="13.91110567871549"><ele>22.0</ele><time>2026-04-12T07:52:03.929Z</time></trkpt><trkpt lat="44.77290895933607" lon="13.911125247514844"><ele>21.666666666666664</ele><time>2026-04-12T07:52:05.929Z</time></trkpt><trkpt lat="44.77302395011329" lon="13.911073758685268"><ele>21.333333333333332</ele><time>2026-04-12T07:52:07.929Z</time></trkpt><trkpt lat="44.77309044785516" lon="13.911039389138892"><ele>21.0</ele><time>2026-04-12T07:52:08.929Z</time></trkpt><trkpt lat="44.77315875428127" lon="13.910996254614943"><ele>20.666666666666668</ele><time>2026-04-12T07:52:09.929Z</time></trkpt><trkpt lat="44.77322985336998" lon="13.910953902750233"><ele>20.333333333333336</ele><time>2026-04-12T07:52:10.929Z</time></trkpt><trkpt lat="44.77329990938056" lon="13.910916720653027"><ele>20.0</ele><time>2026-04-12T07:52:11.929Z</time></trkpt><trkpt lat="44.77337025936199" lon="13.91088383514077"><ele>20.0</ele><time>2026-04-12T07:52:12.929Z</time></trkpt><trkpt lat="44.773447430851824" lon="13.91086500927616"><ele>20.0</ele><time>2026-04-12T07:52:13.929Z</time></trkpt><trkpt lat="44.773526457759566" lon="13.91085145788471"><ele>20.0</ele><time>2026-04-12T07:52:14.929Z</time></trkpt><trkpt lat="44.7735946879666" lon="13.910855651597165"><ele>20.0</ele><time>2026-04-12T07:52:15.929Z</time></trkpt><trkpt lat="44.773678580956584" lon="13.91086254592154"><ele>20.0</ele><time>2026-04-12T07:52:16.929Z</time></trkpt><trkpt lat="44.773745140369115" lon="13.910872049941696"><ele>20.0</ele><time>2026-04-12T07:52:17.929Z</time></trkpt><trkpt lat="44.77385429894309" lon="13.910873403491554"><ele>20.166666666666668</ele><time>2026-04-12T07:52:19.929Z</time></trkpt><trkpt lat="44.77396322418933" lon="13.910866965168058"><ele>20.333333333333336</ele><time>2026-04-12T07:52:21.928Z</time></trkpt><trkpt lat="44.77407208998801" lon="13.910848142651101"><ele>20.5</ele><time>2026-04-12T07:52:23.928Z</time></trkpt><trkpt lat="44.77413670664466" lon="13.910822607974731"><ele>20.666666666666668</ele><time>2026-04-12T07:52:24.928Z</time></trkpt><trkpt lat="44.774205516705045" lon="13.91078936768416"><ele>20.833333333333332</ele><time>2026-04-12T07:52:25.928Z</time></trkpt><trkpt lat="44.774275690831075" lon="13.91074568976801"><ele>21.0</ele><time>2026-04-12T07:52:26.928Z</time></trkpt><trkpt lat="44.77433314188804" lon="13.91070539593712"><ele>20.166666666666668</ele><time>2026-04-12T07:52:27.928Z</time></trkpt><trkpt lat="44.77443999648927" lon="13.910622191782911"><ele>19.333333333333332</ele><time>2026-04-12T07:52:29.928Z</time></trkpt><trkpt lat="44.77449881446068" lon="13.910573959984147"><ele>18.5</ele><time>2026-04-12T07:52:30.928Z</time></trkpt><trkpt lat="44.77455002264974" lon="13.910515933553913"><ele>17.666666666666664</ele><time>2026-04-12T07:52:31.928Z</time></trkpt><trkpt lat="44.77459704392645" lon="13.91045426719141"><ele>16.833333333333332</ele><time>2026-04-12T07:52:32.928Z</time></trkpt><trkpt lat="44.77465037141789" lon="13.9103860003617"><ele>16.0</ele><time>2026-04-12T07:52:33.928Z</time></trkpt><trkpt lat="44.77470028362896" lon="13.910320511196188"><ele>16.0</ele><time>2026-04-12T07:52:34.926Z</time></trkpt><trkpt lat="44.774758437924525" lon="13.910251321007054"><ele>15.999999999999998</ele><time>2026-04-12T07:52:35.926Z</time></trkpt><trkpt lat="44.7748225426179" lon="13.910180203259298"><ele>16.0</ele><time>2026-04-12T07:52:36.926Z</time></trkpt><trkpt lat="44.774887938832066" lon="13.910130846212649"><ele>16.0</ele><time>2026-04-12T07:52:37.926Z</time></trkpt><trkpt lat="44.77495263655702" lon="13.910101120199805"><ele>15.999999999999998</ele><time>2026-04-12T07:52:38.925Z</time></trkpt><trkpt lat="44.77502071100376" lon="13.910082169838853"><ele>16.0</ele><time>2026-04-12T07:52:39.925Z</time></trkpt><trkpt lat="44.77508999441268" lon="13.910082999465029"><ele>16.0</ele><time>2026-04-12T07:52:40.926Z</time></trkpt><trkpt lat="44.77516203963398" lon="13.910086968595595"><ele>16.0</ele><time>2026-04-12T07:52:41.925Z</time></trkpt><trkpt lat="44.775235736410714" lon="13.910090618320815"><ele>15.999999999999998</ele><time>2026-04-12T07:52:42.925Z</time></trkpt><trkpt lat="44.775317440406766" lon="13.910090329554546"><ele>16.0</ele><time>2026-04-12T07:52:43.926Z</time></trkpt><trkpt lat="44.77538800124562" lon="13.910094261338013"><ele>16.0</ele><time>2026-04-12T07:52:44.925Z</time></trkpt><trkpt lat="44.77546114259672" lon="13.910108277081132"><ele>15.999999999999998</ele><time>2026-04-12T07:52:45.925Z</time></trkpt><trkpt lat="44.77553096424635" lon="13.910108192329231"><ele>16.0</ele><time>2026-04-12T07:52:46.925Z</time></trkpt><trkpt lat="44.77559607294244" lon="13.910093589083198"><ele>16.0</ele><time>2026-04-12T07:52:47.925Z</time></trkpt><trkpt lat="44.775671373430946" lon="13.910058979721713"><ele>15.833333333333332</ele><time>2026-04-12T07:52:48.925Z</time></trkpt><trkpt lat="44.77574776316365" lon="13.910016582916313"><ele>15.666666666666666</ele><time>2026-04-12T07:52:49.925Z</time></trkpt><trkpt lat="44.77582265728859" lon="13.9099685942547"><ele>15.5</ele><time>2026-04-12T07:52:50.925Z</time></trkpt><trkpt lat="44.77589050119846" lon="13.909925864494278"><ele>15.333333333333332</ele><time>2026-04-12T07:52:51.925Z</time></trkpt><trkpt lat="44.77595866882235" lon="13.909897513947906"><ele>15.166666666666666</ele><time>2026-04-12T07:52:52.925Z</time></trkpt><trkpt lat="44.776024025630996" lon="13.909875528898008"><ele>15.0</ele><time>2026-04-12T07:52:53.925Z</time></trkpt><trkpt lat="44.77609723009539" lon="13.909875361558576"><ele>15.0</ele><time>2026-04-12T07:52:54.925Z</time></trkpt><trkpt lat="44.776161968481766" lon="13.909902234160413"><ele>15.0</ele><time>2026-04-12T07:52:55.925Z</time></trkpt><trkpt lat="44.77621766333573" lon="13.90995332442953"><ele>15.0</ele><time>2026-04-12T07:52:56.925Z</time></trkpt><trkpt lat="44.77626018489917" lon="13.910019980226435"><ele>15.0</ele><time>2026-04-12T07:52:57.925Z</time></trkpt><trkpt lat="44.77629752460177" lon="13.910104632541895"><ele>15.0</ele><time>2026-04-12T07:52:58.925Z</time></trkpt><trkpt lat="44.77632502892304" lon="13.91019849662894"><ele>15.0</ele><time>2026-04-12T07:52:59.925Z</time></trkpt><trkpt lat="44.77635474164287" lon="13.91030392524209"><ele>15.0</ele><time>2026-04-12T07:53:00.925Z</time></trkpt><trkpt lat="44.776391786009455" lon="13.910411431394934"><ele>14.8</ele><time>2026-04-12T07:53:01.925Z</time></trkpt><trkpt lat="44.77644315718184" lon="13.91052511506482"><ele>14.6</ele><time>2026-04-12T07:53:02.925Z</time></trkpt><trkpt lat="44.77650390571297" lon="13.910637924180698"><ele>14.399999999999999</ele><time>2026-04-12T07:53:03.925Z</time></trkpt><trkpt lat="44.776570613239095" lon="13.91071595378575"><ele>14.2</ele><time>2026-04-12T07:53:04.925Z</time></trkpt><trkpt lat="44.776649971034125" lon="13.910792128169398"><ele>14.0</ele><time>2026-04-12T07:53:05.925Z</time></trkpt><trkpt lat="44.776734537515246" lon="13.910849308971837"><ele>14.0</ele><time>2026-04-12T07:53:06.925Z</time></trkpt><trkpt lat="44.776825037802276" lon="13.910891065149418"><ele>13.999999999999998</ele><time>2026-04-12T07:53:07.925Z</time></trkpt><trkpt lat="44.776924966650036" lon="13.910932954560796"><ele>13.999999999999998</ele><time>2026-04-12T07:53:08.925Z</time></trkpt><trkpt lat="44.777033071547336" lon="13.91097606801237"><ele>14.0</ele><time>2026-04-12T07:53:09.925Z</time></trkpt><trkpt lat="44.777144146436385" lon="13.91100410069747"><ele>14.0</ele><time>2026-04-12T07:53:10.925Z</time></trkpt><trkpt lat="44.7772423771132" lon="13.911013047309366"><ele>14.166666666666668</ele><time>2026-04-12T07:53:11.925Z</time></trkpt><trkpt lat="44.77733612067083" lon="13.91101647759379"><ele>14.333333333333334</ele><time>2026-04-12T07:53:12.925Z</time></trkpt><trkpt lat="44.7774261146591" lon="13.911012971799774"><ele>14.5</ele><time>2026-04-12T07:53:13.925Z</time></trkpt><trkpt lat="44.777511736578575" lon="13.911023730370175"><ele>14.666666666666668</ele><time>2026-04-12T07:53:14.925Z</time></trkpt><trkpt lat="44.77759656105069" lon="13.911028532179259"><ele>14.833333333333334</ele><time>2026-04-12T07:53:15.925Z</time></trkpt><trkpt lat="44.77768166640344" lon="13.911036057874313"><ele>15.0</ele><time>2026-04-12T07:53:16.925Z</time></trkpt><trkpt lat="44.777768689135115" lon="13.9110740122486"><ele>16.4</ele><time>2026-04-12T07:53:17.925Z</time></trkpt><trkpt lat="44.77785199215966" lon="13.911069098151465"><ele>17.8</ele><time>2026-04-12T07:53:18.925Z</time></trkpt><trkpt lat="44.77794293970446" lon="13.91106380422065"><ele>19.200000000000003</ele><time>2026-04-12T07:53:19.925Z</time></trkpt><trkpt lat="44.77803537242654" lon="13.91102149824993"><ele>20.6</ele><time>2026-04-12T07:53:20.925Z</time></trkpt><trkpt lat="44.77812513105724" lon="13.91102717675975"><ele>22.0</ele><time>2026-04-12T07:53:21.925Z</time></trkpt><trkpt lat="44.778216873736184" lon="13.911001183222389"><ele>22.0</ele><time>2026-04-12T07:53:22.925Z</time></trkpt><trkpt lat="44.77831692107971" lon="13.910973625342868"><ele>22.0</ele><time>2026-04-12T07:53:23.925Z</time></trkpt><trkpt lat="44.77841777750468" lon="13.910945677252931"><ele>22.0</ele><time>2026-04-12T07:53:24.925Z</time></trkpt><trkpt lat="44.77852818855321" lon="13.910914054427021"><ele>22.0</ele><time>2026-04-12T07:53:25.924Z</time></trkpt><trkpt lat="44.778630531242904" lon="13.910878467412338"><ele>22.0</ele><time>2026-04-12T07:53:26.924Z</time></trkpt><trkpt lat="44.77872560432671" lon="13.910838988391266"><ele>21.200000000000003</ele><time>2026-04-12T07:53:27.924Z</time></trkpt><trkpt lat="44.77881491668366" lon="13.910807271385632"><ele>20.400000000000002</ele><time>2026-04-12T07:53:28.924Z</time></trkpt><trkpt lat="44.77890013646321" lon="13.91078283849577"><ele>19.6</ele><time>2026-04-12T07:53:29.924Z</time></trkpt><trkpt lat="44.77899073803591" lon="13.910760131018272"><ele>18.8</ele><time>2026-04-12T07:53:30.924Z</time></trkpt><trkpt lat="44.77908339582098" lon="13.910739684353707"><ele>18.0</ele><time>2026-04-12T07:53:31.924Z</time></trkpt><trkpt lat="44.779180626233774" lon="13.91074264934364"><ele>18.0</ele><time>2026-04-12T07:53:32.924Z</time></trkpt><trkpt lat="44.77928119111007" lon="13.910734722342221"><ele>18.0</ele><time>2026-04-12T07:53:33.924Z</time></trkpt><trkpt lat="44.77937764680609" lon="13.910730842558023"><ele>18.0</ele><time>2026-04-12T07:53:34.924Z</time></trkpt><trkpt lat="44.779477978212846" lon="13.910726837240853"><ele>18.0</ele><time>2026-04-12T07:53:35.924Z</time></trkpt><trkpt lat="44.77957080384437" lon="13.910726988702514"><ele>18.0</ele><time>2026-04-12T07:53:36.924Z</time></trkpt><trkpt lat="44.77966398214723" lon="13.910736281716336"><ele>16.8</ele><time>2026-04-12T07:53:37.924Z</time></trkpt><trkpt lat="44.77975008306894" lon="13.9107570133475"><ele>15.600000000000001</ele><time>2026-04-12T07:53:38.924Z</time></trkpt><trkpt lat="44.77983170763008" lon="13.910776563828325"><ele>14.399999999999999</ele><time>2026-04-12T07:53:39.924Z</time></trkpt><trkpt lat="44.77991942900192" lon="13.910801569958991"><ele>13.2</ele><time>2026-04-12T07:53:40.924Z</time></trkpt><trkpt lat="44.77998211106392" lon="13.910847776549218"><ele>12.0</ele><time>2026-04-12T07:53:41.924Z</time></trkpt><trkpt lat="44.780110971674645" lon="13.910860432026729"><ele>12.0</ele><time>2026-04-12T07:53:43.924Z</time></trkpt><trkpt lat="44.78017687115435" lon="13.91082915398475"><ele>12.0</ele><time>2026-04-12T07:53:44.924Z</time></trkpt><trkpt lat="44.78022075225495" lon="13.910726805004638"><ele>12.0</ele><time>2026-04-12T07:53:45.924Z</time></trkpt><trkpt lat="44.78027398665021" lon="13.910655466301785"><ele>12.0</ele><time>2026-04-12T07:53:46.924Z</time></trkpt><trkpt lat="44.78033603385175" lon="13.910588381927758"><ele>12.0</ele><time>2026-04-12T07:53:47.924Z</time></trkpt><trkpt lat="44.78042049504415" lon="13.910530193846952"><ele>12.0</ele><time>2026-04-12T07:53:48.924Z</time></trkpt><trkpt lat="44.78051491897051" lon="13.910482402779255"><ele>11.6</ele><time>2026-04-12T07:53:49.924Z</time></trkpt><trkpt lat="44.7806111001167" lon="13.910444873391917"><ele>11.2</ele><time>2026-04-12T07:53:50.924Z</time></trkpt><trkpt lat="44.7807117049784" lon="13.91041141593598"><ele>10.8</ele><time>2026-04-12T07:53:51.924Z</time></trkpt><trkpt lat="44.780807169783984" lon="13.910379430732553"><ele>10.4</ele><time>2026-04-12T07:53:52.924Z</time></trkpt><trkpt lat="44.78089649712456" lon="13.910336549187003"><ele>10.0</ele><time>2026-04-12T07:53:53.924Z</time></trkpt><trkpt lat="44.78098804386499" lon="13.910294306392926"><ele>10.2</ele><time>2026-04-12T07:53:54.924Z</time></trkpt><trkpt lat="44.78107857535716" lon="13.910246164681531"><ele>10.4</ele><time>2026-04-12T07:53:55.924Z</time></trkpt><trkpt lat="44.78117368009491" lon="13.910196388432277"><ele>10.600000000000001</ele><time>2026-04-12T07:53:56.924Z</time></trkpt><trkpt lat="44.781258765924825" lon="13.910151999894753"><ele>10.8</ele><time>2026-04-12T07:53:57.924Z</time></trkpt><trkpt lat="44.78135417628587" lon="13.910123388913084"><ele>11.0</ele><time>2026-04-12T07:53:58.924Z</time></trkpt><trkpt lat="44.78144523352692" lon="13.910103702256157"><ele>11.0</ele><time>2026-04-12T07:53:59.924Z</time></trkpt><trkpt lat="44.7815406557945" lon="13.910086582379432"><ele>11.0</ele><time>2026-04-12T07:54:00.924Z</time></trkpt><trkpt lat="44.78164333077288" lon="13.910053117289399"><ele>11.0</ele><time>2026-04-12T07:54:01.924Z</time></trkpt><trkpt lat="44.781749356984236" lon="13.9100157542187"><ele>11.0</ele><time>2026-04-12T07:54:02.924Z</time></trkpt><trkpt lat="44.78185512407262" lon="13.909996142444399"><ele>11.0</ele><time>2026-04-12T07:54:03.924Z</time></trkpt><trkpt lat="44.78194405721753" lon="13.909955997964266"><ele>12.5</ele><time>2026-04-12T07:54:04.924Z</time></trkpt><trkpt lat="44.78203063413626" lon="13.909921437592434"><ele>14.0</ele><time>2026-04-12T07:54:05.924Z</time></trkpt><trkpt lat="44.782120664080644" lon="13.909891277418147"><ele>15.5</ele><time>2026-04-12T07:54:06.924Z</time></trkpt><trkpt lat="44.78220646698682" lon="13.909864158484924"><ele>17.0</ele><time>2026-04-12T07:54:07.924Z</time></trkpt><trkpt lat="44.782292709916526" lon="13.909833399161672"><ele>18.5</ele><time>2026-04-12T07:54:08.924Z</time></trkpt><trkpt lat="44.78237847855521" lon="13.909807474378733"><ele>20.0</ele><time>2026-04-12T07:54:09.924Z</time></trkpt><trkpt lat="44.78246480390246" lon="13.909784171160704"><ele>20.0</ele><time>2026-04-12T07:54:10.923Z</time></trkpt><trkpt lat="44.78255082109072" lon="13.909758900113873"><ele>20.0</ele><time>2026-04-12T07:54:11.923Z</time></trkpt><trkpt lat="44.78264270001506" lon="13.90972892341161"><ele>20.0</ele><time>2026-04-12T07:54:12.923Z</time></trkpt><trkpt lat="44.782736116400024" lon="13.909707971529405"><ele>20.0</ele><time>2026-04-12T07:54:13.923Z</time></trkpt><trkpt lat="44.782829070639714" lon="13.909687263540825"><ele>20.0</ele><time>2026-04-12T07:54:14.923Z</time></trkpt><trkpt lat="44.782924069951704" lon="13.909667523995715"><ele>21.0</ele><time>2026-04-12T07:54:15.923Z</time></trkpt><trkpt lat="44.783008797175455" lon="13.909644952675377"><ele>22.0</ele><time>2026-04-12T07:54:16.923Z</time></trkpt><trkpt lat="44.78308997606256" lon="13.909621475307688"><ele>23.0</ele><time>2026-04-12T07:54:17.923Z</time></trkpt><trkpt lat="44.78316526493919" lon="13.909598644091899"><ele>24.0</ele><time>2026-04-12T07:54:18.923Z</time></trkpt><trkpt lat="44.783236371600744" lon="13.909590726269988"><ele>25.0</ele><time>2026-04-12T07:54:19.923Z</time></trkpt><trkpt lat="44.783303227343964" lon="13.90959137787761"><ele>26.0</ele><time>2026-04-12T07:54:20.923Z</time></trkpt><trkpt lat="44.783366467779004" lon="13.909605290088152"><ele>27.0</ele><time>2026-04-12T07:54:21.923Z</time></trkpt><trkpt lat="44.78343556931202" lon="13.90963046523204"><ele>27.0</ele><time>2026-04-12T07:54:22.923Z</time></trkpt><trkpt lat="44.78349426873502" lon="13.909672877171042"><ele>27.0</ele><time>2026-04-12T07:54:23.923Z</time></trkpt><trkpt lat="44.78355010864935" lon="13.909734336521113"><ele>27.0</ele><time>2026-04-12T07:54:24.923Z</time></trkpt><trkpt lat="44.783594340138706" lon="13.909812563884913"><ele>27.0</ele><time>2026-04-12T07:54:25.923Z</time></trkpt><trkpt lat="44.78364308261054" lon="13.909917131418368"><ele>27.0</ele><time>2026-04-12T07:54:26.923Z</time></trkpt><trkpt lat="44.783695192671864" lon="13.910029581568061"><ele>27.0</ele><time>2026-04-12T07:54:27.923Z</time></trkpt><trkpt lat="44.7837420268271" lon="13.910121265161731"><ele>27.166666666666668</ele><time>2026-04-12T07:54:28.923Z</time></trkpt><trkpt lat="44.78378790013937" lon="13.91020834551912"><ele>27.333333333333336</ele><time>2026-04-12T07:54:29.923Z</time></trkpt><trkpt lat="44.783830837527724" lon="13.910285026952124"><ele>27.5</ele><time>2026-04-12T07:54:30.923Z</time></trkpt><trkpt lat="44.78388664845803" lon="13.910343468315832"><ele>27.666666666666668</ele><time>2026-04-12T07:54:31.923Z</time></trkpt><trkpt lat="44.7839598753121" lon="13.910399893268393"><ele>27.833333333333336</ele><time>2026-04-12T07:54:32.923Z</time></trkpt><trkpt lat="44.784041624951826" lon="13.910464422285246"><ele>28.0</ele><time>2026-04-12T07:54:33.923Z</time></trkpt><trkpt lat="44.784107300914194" lon="13.910522701983416"><ele>28.000000000000004</ele><time>2026-04-12T07:54:34.923Z</time></trkpt><trkpt lat="44.784163683109234" lon="13.91058771414759"><ele>28.0</ele><time>2026-04-12T07:54:35.923Z</time></trkpt><trkpt lat="44.78422257508687" lon="13.910657449246148"><ele>28.0</ele><time>2026-04-12T07:54:36.923Z</time></trkpt><trkpt lat="44.784275196675374" lon="13.910746780743745"><ele>28.0</ele><time>2026-04-12T07:54:37.923Z</time></trkpt><trkpt lat="44.78432261003765" lon="13.910838932215304"><ele>28.000000000000004</ele><time>2026-04-12T07:54:38.923Z</time></trkpt><trkpt lat="44.784369939035805" lon="13.910946886348569"><ele>28.0</ele><time>2026-04-12T07:54:39.923Z</time></trkpt><trkpt lat="44.78441689931935" lon="13.911063491376371"><ele>28.2</ele><time>2026-04-12T07:54:40.921Z</time></trkpt><trkpt lat="44.78446806785462" lon="13.9111711555765"><ele>28.4</ele><time>2026-04-12T07:54:41.921Z</time></trkpt><trkpt lat="44.78453171825255" lon="13.911264653408109"><ele>28.599999999999998</ele><time>2026-04-12T07:54:42.921Z</time></trkpt><trkpt lat="44.78460395558526" lon="13.911340144575366"><ele>28.799999999999997</ele><time>2026-04-12T07:54:43.922Z</time></trkpt><trkpt lat="44.7846818132613" lon="13.911404453212972"><ele>29.0</ele><time>2026-04-12T07:54:44.921Z</time></trkpt><trkpt lat="44.78476768740758" lon="13.911473554019183"><ele>28.999999999999996</ele><time>2026-04-12T07:54:45.921Z</time></trkpt><trkpt lat="44.78485061275752" lon="13.911539357355219"><ele>29.0</ele><time>2026-04-12T07:54:46.922Z</time></trkpt><trkpt lat="44.78493974327009" lon="13.911615527978308"><ele>29.0</ele><time>2026-04-12T07:54:47.921Z</time></trkpt><trkpt lat="44.78501743342482" lon="13.911668519939747"><ele>29.0</ele><time>2026-04-12T07:54:48.921Z</time></trkpt><trkpt lat="44.78509531742281" lon="13.9117062574654"><ele>28.999999999999996</ele><time>2026-04-12T07:54:49.922Z</time></trkpt><trkpt lat="44.78517105390757" lon="13.911707982760838"><ele>29.0</ele><time>2026-04-12T07:54:50.921Z</time></trkpt><trkpt lat="44.785259371016096" lon="13.91173397505003"><ele>29.6</ele><time>2026-04-12T07:54:51.921Z</time></trkpt><trkpt lat="44.78534925311294" lon="13.911715141886255"><ele>30.2</ele><time>2026-04-12T07:54:52.922Z</time></trkpt><trkpt lat="44.78543435950191" lon="13.911727334712936"><ele>30.800000000000004</ele><time>2026-04-12T07:54:53.921Z</time></trkpt><trkpt lat="44.785547800431026" lon="13.911775746045489"><ele>31.400000000000002</ele><time>2026-04-12T07:54:55.921Z</time></trkpt><trkpt lat="44.78563321223576" lon="13.911894677522058"><ele>32.0</ele><time>2026-04-12T07:54:57.921Z</time></trkpt><trkpt lat="44.78568059328401" lon="13.911988966030657"><ele>31.999999999999996</ele><time>2026-04-12T07:54:58.921Z</time></trkpt><trkpt lat="44.78572972466028" lon="13.912080429648062"><ele>32.0</ele><time>2026-04-12T07:54:59.921Z</time></trkpt><trkpt lat="44.785785222761014" lon="13.912188065825749"><ele>32.0</ele><time>2026-04-12T07:55:00.921Z</time></trkpt><trkpt lat="44.78583454340724" lon="13.912281516589465"><ele>32.0</ele><time>2026-04-12T07:55:01.921Z</time></trkpt><trkpt lat="44.785880168719366" lon="13.912367701876638"><ele>31.999999999999996</ele><time>2026-04-12T07:55:02.921Z</time></trkpt><trkpt lat="44.785922469795466" lon="13.912448332198043"><ele>32.0</ele><time>2026-04-12T07:55:03.921Z</time></trkpt><trkpt lat="44.78596569477404" lon="13.912521114973504"><ele>31.200000000000003</ele><time>2026-04-12T07:55:04.921Z</time></trkpt><trkpt lat="44.78603141935179" lon="13.91261353449948"><ele>30.400000000000002</ele><time>2026-04-12T07:55:06.921Z</time></trkpt><trkpt lat="44.78612462294481" lon="13.912691024381362"><ele>29.599999999999998</ele><time>2026-04-12T07:55:08.921Z</time></trkpt><trkpt lat="44.786241089306515" lon="13.912740919800084"><ele>28.799999999999997</ele><time>2026-04-12T07:55:10.921Z</time></trkpt><trkpt lat="44.78633448561727" lon="13.912741006787018"><ele>28.0</ele><time>2026-04-12T07:55:11.921Z</time></trkpt><trkpt lat="44.786425875536956" lon="13.912731014523388"><ele>28.0</ele><time>2026-04-12T07:55:12.921Z</time></trkpt><trkpt lat="44.786513867240885" lon="13.91272085160531"><ele>27.999999999999996</ele><time>2026-04-12T07:55:13.921Z</time></trkpt><trkpt lat="44.78659437587934" lon="13.912704000012356"><ele>27.999999999999996</ele><time>2026-04-12T07:55:14.921Z</time></trkpt><trkpt lat="44.786695539857384" lon="13.912701955962515"><ele>28.0</ele><time>2026-04-12T07:55:15.921Z</time></trkpt><trkpt lat="44.786811015876815" lon="13.912699243507378"><ele>28.0</ele><time>2026-04-12T07:55:16.921Z</time></trkpt><trkpt lat="44.786921089828404" lon="13.912694236619057"><ele>27.4</ele><time>2026-04-12T07:55:17.921Z</time></trkpt><trkpt lat="44.787021616646086" lon="13.91268813200718"><ele>26.799999999999997</ele><time>2026-04-12T07:55:18.921Z</time></trkpt><trkpt lat="44.78711930317868" lon="13.912682438916622"><ele>26.2</ele><time>2026-04-12T07:55:19.921Z</time></trkpt><trkpt lat="44.78722239677716" lon="13.912681712913276"><ele>25.6</ele><time>2026-04-12T07:55:20.921Z</time></trkpt><trkpt lat="44.78732270335966" lon="13.91266596855427"><ele>25.0</ele><time>2026-04-12T07:55:21.921Z</time></trkpt><trkpt lat="44.7874255980519" lon="13.912670021962258"><ele>25.0</ele><time>2026-04-12T07:55:22.921Z</time></trkpt><trkpt lat="44.787528994061084" lon="13.9126645904873"><ele>25.0</ele><time>2026-04-12T07:55:23.921Z</time></trkpt><trkpt lat="44.787628932951115" lon="13.91267251469703"><ele>25.0</ele><time>2026-04-12T07:55:24.921Z</time></trkpt><trkpt lat="44.78771668754527" lon="13.912675256612726"><ele>25.0</ele><time>2026-04-12T07:55:25.921Z</time></trkpt><trkpt lat="44.78780336345031" lon="13.912675401554234"><ele>25.0</ele><time>2026-04-12T07:55:26.921Z</time></trkpt><trkpt lat="44.787893981962306" lon="13.91267284088591"><ele>23.6</ele><time>2026-04-12T07:55:27.921Z</time></trkpt><trkpt lat="44.787980867191585" lon="13.91267360945557"><ele>22.2</ele><time>2026-04-12T07:55:28.921Z</time></trkpt><trkpt lat="44.78807317911007" lon="13.912674808589024"><ele>20.8</ele><time>2026-04-12T07:55:29.92Z</time></trkpt><trkpt lat="44.78817138281544" lon="13.912676383372617"><ele>19.4</ele><time>2026-04-12T07:55:30.92Z</time></trkpt><trkpt lat="44.78825995215177" lon="13.91266688473204"><ele>18.0</ele><time>2026-04-12T07:55:31.92Z</time></trkpt><trkpt lat="44.788356869908206" lon="13.912653549974136"><ele>18.0</ele><time>2026-04-12T07:55:32.92Z</time></trkpt><trkpt lat="44.78845443154357" lon="13.91264160962361"><ele>18.0</ele><time>2026-04-12T07:55:33.92Z</time></trkpt><trkpt lat="44.78855917537436" lon="13.912627336888885"><ele>18.0</ele><time>2026-04-12T07:55:34.92Z</time></trkpt><trkpt lat="44.78866707416824" lon="13.912620076300609"><ele>18.0</ele><time>2026-04-12T07:55:35.92Z</time></trkpt><trkpt lat="44.788771885409886" lon="13.91259035371944"><ele>18.0</ele><time>2026-04-12T07:55:36.92Z</time></trkpt><trkpt lat="44.78888040534372" lon="13.912563222741014"><ele>17.4</ele><time>2026-04-12T07:55:37.92Z</time></trkpt><trkpt lat="44.788985847801406" lon="13.912536867089239"><ele>16.8</ele><time>2026-04-12T07:55:38.92Z</time></trkpt><trkpt lat="44.78907850278799" lon="13.912520563169853"><ele>16.2</ele><time>2026-04-12T07:55:39.92Z</time></trkpt><trkpt lat="44.78917030225132" lon="13.912506911500499"><ele>15.6</ele><time>2026-04-12T07:55:40.92Z</time></trkpt><trkpt lat="44.78925999358759" lon="13.912506842825723"><ele>15.0</ele><time>2026-04-12T07:55:41.92Z</time></trkpt><trkpt lat="44.78934996572748" lon="13.912502001644157"><ele>15.0</ele><time>2026-04-12T07:55:42.92Z</time></trkpt><trkpt lat="44.78943479453722" lon="13.912505140009218"><ele>15.0</ele><time>2026-04-12T07:55:43.92Z</time></trkpt><trkpt lat="44.789519536176655" lon="13.912501351902794"><ele>15.0</ele><time>2026-04-12T07:55:44.92Z</time></trkpt><trkpt lat="44.78959961234218" lon="13.912495735435172"><ele>15.0</ele><time>2026-04-12T07:55:45.92Z</time></trkpt><trkpt lat="44.789696155283245" lon="13.912495478031165"><ele>15.0</ele><time>2026-04-12T07:55:46.92Z</time></trkpt><trkpt lat="44.78979549169612" lon="13.912487055015928"><ele>15.0</ele><time>2026-04-12T07:55:47.92Z</time></trkpt><trkpt lat="44.78989201809517" lon="13.912490928100654"><ele>15.0</ele><time>2026-04-12T07:55:48.92Z</time></trkpt><trkpt lat="44.78998614379608" lon="13.912481386097117"><ele>15.0</ele><time>2026-04-12T07:55:49.92Z</time></trkpt><trkpt lat="44.79007103860925" lon="13.912476086890651"><ele>15.0</ele><time>2026-04-12T07:55:50.92Z</time></trkpt><trkpt lat="44.790168417726335" lon="13.91246545055698"><ele>15.0</ele><time>2026-04-12T07:55:51.92Z</time></trkpt><trkpt lat="44.790275638545495" lon="13.912445220874671"><ele>15.0</ele><time>2026-04-12T07:55:52.92Z</time></trkpt><trkpt lat="44.79036972825864" lon="13.912425752343461"><ele>15.4</ele><time>2026-04-12T07:55:53.92Z</time></trkpt><trkpt lat="44.79047175650852" lon="13.912405621506556"><ele>15.8</ele><time>2026-04-12T07:55:54.92Z</time></trkpt><trkpt lat="44.79055916186148" lon="13.912377468419342"><ele>16.2</ele><time>2026-04-12T07:55:55.92Z</time></trkpt><trkpt lat="44.79065218677341" lon="13.912350478182313"><ele>16.6</ele><time>2026-04-12T07:55:56.92Z</time></trkpt><trkpt lat="44.790751803498" lon="13.912328479522197"><ele>17.0</ele><time>2026-04-12T07:55:57.92Z</time></trkpt><trkpt lat="44.79084757022788" lon="13.912353524499684"><ele>17.0</ele><time>2026-04-12T07:55:58.92Z</time></trkpt><trkpt lat="44.790940129623074" lon="13.912332978170115"><ele>17.0</ele><time>2026-04-12T07:55:59.92Z</time></trkpt><trkpt lat="44.79103403422605" lon="13.91231166273378"><ele>17.0</ele><time>2026-04-12T07:56:00.92Z</time></trkpt><trkpt lat="44.79111839702923" lon="13.91229234853083"><ele>17.0</ele><time>2026-04-12T07:56:01.92Z</time></trkpt><trkpt lat="44.79119251824817" lon="13.912252640879887"><ele>17.0</ele><time>2026-04-12T07:56:02.92Z</time></trkpt><trkpt lat="44.79127971333018" lon="13.912270412391834"><ele>17.0</ele><time>2026-04-12T07:56:03.92Z</time></trkpt><trkpt lat="44.79135285985932" lon="13.912257937662119"><ele>16.8</ele><time>2026-04-12T07:56:04.92Z</time></trkpt><trkpt lat="44.79141329123999" lon="13.912220083432684"><ele>16.6</ele><time>2026-04-12T07:56:05.92Z</time></trkpt><trkpt lat="44.791521468152894" lon="13.9121432439826"><ele>16.400000000000002</ele><time>2026-04-12T07:56:07.92Z</time></trkpt><trkpt lat="44.7916192209633" lon="13.912040102875709"><ele>16.2</ele><time>2026-04-12T07:56:09.92Z</time></trkpt><trkpt lat="44.79167464966062" lon="13.911969278776041"><ele>16.0</ele><time>2026-04-12T07:56:10.92Z</time></trkpt><trkpt lat="44.7917364360478" lon="13.911886089657365"><ele>15.999999999999998</ele><time>2026-04-12T07:56:11.92Z</time></trkpt><trkpt lat="44.79180605594431" lon="13.91179175285202"><ele>16.0</ele><time>2026-04-12T07:56:12.92Z</time></trkpt><trkpt lat="44.79187268387518" lon="13.911699479744273"><ele>16.0</ele><time>2026-04-12T07:56:13.92Z</time></trkpt><trkpt lat="44.79193052722354" lon="13.911618732457466"><ele>16.0</ele><time>2026-04-12T07:56:14.919Z</time></trkpt><trkpt lat="44.79198669597992" lon="13.911533970835649"><ele>15.999999999999998</ele><time>2026-04-12T07:56:15.919Z</time></trkpt><trkpt lat="44.79205101557583" lon="13.91144837506742"><ele>16.0</ele><time>2026-04-12T07:56:16.919Z</time></trkpt><trkpt lat="44.7921134661423" lon="13.911363360247458"><ele>16.333333333333332</ele><time>2026-04-12T07:56:17.919Z</time></trkpt><trkpt lat="44.792174390054186" lon="13.91126729676611"><ele>16.666666666666664</ele><time>2026-04-12T07:56:18.919Z</time></trkpt><trkpt lat="44.79223395490467" lon="13.911171239645096"><ele>17.0</ele><time>2026-04-12T07:56:19.919Z</time></trkpt><trkpt lat="44.79229531552556" lon="13.911073838891037"><ele>17.333333333333332</ele><time>2026-04-12T07:56:20.919Z</time></trkpt><trkpt lat="44.792343626162555" lon="13.910991291001489"><ele>17.666666666666668</ele><time>2026-04-12T07:56:21.919Z</time></trkpt><trkpt lat="44.79237714642235" lon="13.910910950640437"><ele>18.0</ele><time>2026-04-12T07:56:22.919Z</time></trkpt><trkpt lat="44.792410403937325" lon="13.910813252418066"><ele>18.666666666666668</ele><time>2026-04-12T07:56:23.919Z</time></trkpt><trkpt lat="44.79243335992256" lon="13.910721719520462"><ele>19.333333333333332</ele><time>2026-04-12T07:56:24.919Z</time></trkpt><trkpt lat="44.79246158142097" lon="13.91061233251997"><ele>20.0</ele><time>2026-04-12T07:56:25.919Z</time></trkpt><trkpt lat="44.79249386628455" lon="13.910502602422953"><ele>20.666666666666664</ele><time>2026-04-12T07:56:26.919Z</time></trkpt><trkpt lat="44.79254218099633" lon="13.910375184625657"><ele>21.333333333333332</ele><time>2026-04-12T07:56:27.919Z</time></trkpt><trkpt lat="44.792583630614004" lon="13.91023321253585"><ele>22.0</ele><time>2026-04-12T07:56:28.919Z</time></trkpt><trkpt lat="44.792629842251365" lon="13.910102003023159"><ele>22.0</ele><time>2026-04-12T07:56:29.919Z</time></trkpt><trkpt lat="44.792683816085265" lon="13.909988689377872"><ele>22.0</ele><time>2026-04-12T07:56:30.919Z</time></trkpt><trkpt lat="44.792734695011355" lon="13.909888701643874"><ele>22.0</ele><time>2026-04-12T07:56:31.919Z</time></trkpt><trkpt lat="44.79277876929588" lon="13.909802327639708"><ele>22.0</ele><time>2026-04-12T07:56:32.919Z</time></trkpt><trkpt lat="44.79283731709624" lon="13.909713853904922"><ele>22.0</ele><time>2026-04-12T07:56:33.919Z</time></trkpt><trkpt lat="44.79289209571864" lon="13.90962331174589"><ele>22.0</ele><time>2026-04-12T07:56:34.919Z</time></trkpt><trkpt lat="44.79294872774514" lon="13.909530941492621"><ele>22.0</ele><time>2026-04-12T07:56:35.919Z</time></trkpt><trkpt lat="44.79300209669485" lon="13.909422646974587"><ele>22.0</ele><time>2026-04-12T07:56:36.919Z</time></trkpt><trkpt lat="44.79305765861764" lon="13.909319405560122"><ele>22.0</ele><time>2026-04-12T07:56:37.92Z</time></trkpt><trkpt lat="44.79311405469019" lon="13.909219950369389"><ele>22.0</ele><time>2026-04-12T07:56:38.921Z</time></trkpt><trkpt lat="44.79316712821153" lon="13.909133762062549"><ele>22.0</ele><time>2026-04-12T07:56:39.922Z</time></trkpt><trkpt lat="44.79322301828245" lon="13.909045456426805"><ele>22.0</ele><time>2026-04-12T07:56:40.922Z</time></trkpt><trkpt lat="44.793277964109464" lon="13.9089668463881"><ele>22.5</ele><time>2026-04-12T07:56:41.923Z</time></trkpt><trkpt lat="44.79334925800377" lon="13.908905884038587"><ele>23.0</ele><time>2026-04-12T07:56:42.923Z</time></trkpt><trkpt lat="44.79340990741832" lon="13.908805800745599"><ele>23.5</ele><time>2026-04-12T07:56:43.924Z</time></trkpt><trkpt lat="44.7934807468818" lon="13.908722649656495"><ele>24.0</ele><time>2026-04-12T07:56:44.924Z</time></trkpt><trkpt lat="44.79355055196738" lon="13.908644975137708"><ele>24.500000000000004</ele><time>2026-04-12T07:56:45.925Z</time></trkpt><trkpt lat="44.79362524963645" lon="13.908574144312505"><ele>25.0</ele><time>2026-04-12T07:56:46.924Z</time></trkpt><trkpt lat="44.79370653851468" lon="13.908508514449924"><ele>25.166666666666668</ele><time>2026-04-12T07:56:47.925Z</time></trkpt><trkpt lat="44.79379165584495" lon="13.908438263794318"><ele>25.333333333333336</ele><time>2026-04-12T07:56:48.926Z</time></trkpt><trkpt lat="44.793881473210234" lon="13.908377442011323"><ele>25.5</ele><time>2026-04-12T07:56:49.925Z</time></trkpt><trkpt lat="44.793973096089665" lon="13.90833300879821"><ele>25.666666666666664</ele><time>2026-04-12T07:56:50.926Z</time></trkpt><trkpt lat="44.79404037634027" lon="13.908292201790974"><ele>25.833333333333332</ele><time>2026-04-12T07:56:51.927Z</time></trkpt><trkpt lat="44.79410511471347" lon="13.908273624033422"><ele>26.0</ele><time>2026-04-12T07:56:52.926Z</time></trkpt><trkpt lat="44.794200266392416" lon="13.90825072930068"><ele>26.833333333333332</ele><time>2026-04-12T07:56:53.927Z</time></trkpt><trkpt lat="44.794292086985266" lon="13.90822079794254"><ele>27.666666666666664</ele><time>2026-04-12T07:56:54.927Z</time></trkpt><trkpt lat="44.79439236920867" lon="13.908202254630284"><ele>28.5</ele><time>2026-04-12T07:56:55.927Z</time></trkpt><trkpt lat="44.7944712685863" lon="13.908195243255573"><ele>29.333333333333336</ele><time>2026-04-12T07:56:56.927Z</time></trkpt><trkpt lat="44.79454424631384" lon="13.908185645831816"><ele>30.166666666666668</ele><time>2026-04-12T07:56:57.927Z</time></trkpt><trkpt lat="44.79462380353055" lon="13.908183445509307"><ele>31.0</ele><time>2026-04-12T07:56:58.928Z</time></trkpt><trkpt lat="44.79471239705636" lon="13.908195738628685"><ele>31.6</ele><time>2026-04-12T07:56:59.928Z</time></trkpt><trkpt lat="44.794822793546935" lon="13.908220049755956"><ele>32.2</ele><time>2026-04-12T07:57:00.928Z</time></trkpt><trkpt lat="44.79491942188115" lon="13.908220335218639"><ele>32.8</ele><time>2026-04-12T07:57:01.928Z</time></trkpt><trkpt lat="44.79502002753802" lon="13.908232527455086"><ele>33.4</ele><time>2026-04-12T07:57:02.928Z</time></trkpt><trkpt lat="44.79511346252187" lon="13.908250219878347"><ele>34.0</ele><time>2026-04-12T07:57:03.928Z</time></trkpt><trkpt lat="44.79519583505738" lon="13.908256366676738"><ele>34.6</ele><time>2026-04-12T07:57:04.928Z</time></trkpt><trkpt lat="44.79526482629186" lon="13.90826149876508"><ele>35.2</ele><time>2026-04-12T07:57:05.928Z</time></trkpt><trkpt lat="44.79538922183542" lon="13.90830639451031"><ele>35.800000000000004</ele><time>2026-04-12T07:57:07.929Z</time></trkpt><trkpt lat="44.795470768192565" lon="13.908314483430285"><ele>36.4</ele><time>2026-04-12T07:57:08.929Z</time></trkpt><trkpt lat="44.79554169895725" lon="13.908318777974026"><ele>37.0</ele><time>2026-04-12T07:57:09.929Z</time></trkpt><trkpt lat="44.795649687165934" lon="13.908299033000574"><ele>37.0</ele><time>2026-04-12T07:57:11.929Z</time></trkpt><trkpt lat="44.795735547699884" lon="13.908274587748162"><ele>37.0</ele><time>2026-04-12T07:57:13.929Z</time></trkpt><trkpt lat="44.79581171449346" lon="13.9082424248359"><ele>37.0</ele><time>2026-04-12T07:57:16.929Z</time></trkpt><trkpt lat="44.795883478686754" lon="13.908221287326624"><ele>37.0</ele><time>2026-04-12T07:57:22.929Z</time></trkpt><trkpt lat="44.795948060270014" lon="13.908192453533877"><ele>37.0</ele><time>2026-04-12T07:57:32.929Z</time></trkpt><trkpt lat="44.79601437078566" lon="13.908158025465909"><ele>37.0</ele><time>2026-04-12T07:57:35.929Z</time></trkpt><trkpt lat="44.79610090229206" lon="13.908089417098278"><ele>36.5</ele><time>2026-04-12T07:57:37.929Z</time></trkpt><trkpt lat="44.79617799459841" lon="13.908007235240513"><ele>36.0</ele><time>2026-04-12T07:57:39.929Z</time></trkpt><trkpt lat="44.79624883310101" lon="13.907987615849791"><ele>35.5</ele><time>2026-04-12T07:57:41.929Z</time></trkpt><trkpt lat="44.79631849405206" lon="13.907982572479046"><ele>35.0</ele><time>2026-04-12T07:57:43.929Z</time></trkpt><trkpt lat="44.79643259293311" lon="13.907889728413702"><ele>34.5</ele><time>2026-04-12T08:00:12.927Z</time></trkpt><trkpt lat="44.79649929862115" lon="13.907835087872158"><ele>34.0</ele><time>2026-04-12T08:00:13.927Z</time></trkpt><trkpt lat="44.796568380560664" lon="13.907756913503938"><ele>34.0</ele><time>2026-04-12T08:00:14.927Z</time></trkpt><trkpt lat="44.79666029775533" lon="13.907681071074817"><ele>34.0</ele><time>2026-04-12T08:00:15.927Z</time></trkpt><trkpt lat="44.796775938641524" lon="13.907602744678027"><ele>34.0</ele><time>2026-04-12T08:00:16.927Z</time></trkpt><trkpt lat="44.796850293500405" lon="13.907480598090268"><ele>34.0</ele><time>2026-04-12T08:00:17.927Z</time></trkpt><trkpt lat="44.79693312777035" lon="13.907372737266675"><ele>33.16666666666667</ele><time>2026-04-12T08:00:18.927Z</time></trkpt><trkpt lat="44.79700829475575" lon="13.907269201360727"><ele>32.333333333333336</ele><time>2026-04-12T08:00:19.927Z</time></trkpt><trkpt lat="44.797078101868195" lon="13.907193291078269"><ele>31.5</ele><time>2026-04-12T08:00:20.927Z</time></trkpt><trkpt lat="44.79712402201887" lon="13.90712552412006"><ele>30.666666666666664</ele><time>2026-04-12T08:00:21.927Z</time></trkpt><trkpt lat="44.79716606172071" lon="13.907033697963161"><ele>29.833333333333332</ele><time>2026-04-12T08:00:38.927Z</time></trkpt><trkpt lat="44.79723400741517" lon="13.906977736744576"><ele>29.0</ele><time>2026-04-12T08:00:40.927Z</time></trkpt><trkpt lat="44.797326971685166" lon="13.906868993481751"><ele>28.999999999999996</ele><time>2026-04-12T08:00:42.926Z</time></trkpt><trkpt lat="44.797427555472204" lon="13.906781237315638"><ele>29.0</ele><time>2026-04-12T08:00:44.926Z</time></trkpt><trkpt lat="44.79747728175424" lon="13.906722227138404"><ele>29.0</ele><time>2026-04-12T08:00:45.926Z</time></trkpt><trkpt lat="44.79753764828083" lon="13.90665618396692"><ele>29.0</ele><time>2026-04-12T08:00:46.926Z</time></trkpt><trkpt lat="44.797596142580325" lon="13.906596070986675"><ele>28.999999999999996</ele><time>2026-04-12T08:00:47.926Z</time></trkpt><trkpt lat="44.79764212704368" lon="13.906511743949553"><ele>29.0</ele><time>2026-04-12T08:00:48.926Z</time></trkpt><trkpt lat="44.79769800096063" lon="13.906446481610345"><ele>28.499999999999996</ele><time>2026-04-12T08:00:49.926Z</time></trkpt><trkpt lat="44.797755864648934" lon="13.906392943104622"><ele>28.0</ele><time>2026-04-12T08:00:50.926Z</time></trkpt><trkpt lat="44.797833938349626" lon="13.906349403371507"><ele>27.5</ele><time>2026-04-12T08:00:51.926Z</time></trkpt><trkpt lat="44.79791394416242" lon="13.90631026914723"><ele>27.0</ele><time>2026-04-12T08:00:52.926Z</time></trkpt><trkpt lat="44.79799236558112" lon="13.906277649355596"><ele>26.499999999999996</ele><time>2026-04-12T08:00:53.926Z</time></trkpt><trkpt lat="44.79805717487069" lon="13.906248142294732"><ele>26.0</ele><time>2026-04-12T08:00:54.926Z</time></trkpt><trkpt lat="44.79816927156645" lon="13.906197889514761"><ele>25.999999999999996</ele><time>2026-04-12T08:00:56.926Z</time></trkpt><trkpt lat="44.7982922265386" lon="13.906145063280182"><ele>26.0</ele><time>2026-04-12T08:00:58.927Z</time></trkpt><trkpt lat="44.79835957503094" lon="13.906118363516843"><ele>26.0</ele><time>2026-04-12T08:00:59.926Z</time></trkpt><trkpt lat="44.79842710223786" lon="13.906084286323829"><ele>26.0</ele><time>2026-04-12T08:01:00.926Z</time></trkpt><trkpt lat="44.7984925889472" lon="13.906048290285662"><ele>25.999999999999996</ele><time>2026-04-12T08:01:01.926Z</time></trkpt><trkpt lat="44.79856196449261" lon="13.906010019595682"><ele>26.0</ele><time>2026-04-12T08:01:02.926Z</time></trkpt><trkpt lat="44.79863147174588" lon="13.905970003342771"><ele>27.166666666666664</ele><time>2026-04-12T08:01:03.926Z</time></trkpt><trkpt lat="44.79870041817502" lon="13.905937272278758"><ele>28.333333333333332</ele><time>2026-04-12T08:01:04.926Z</time></trkpt><trkpt lat="44.798761409603195" lon="13.905912151184848"><ele>29.5</ele><time>2026-04-12T08:01:05.926Z</time></trkpt><trkpt lat="44.798870907520026" lon="13.905859405420529"><ele>30.666666666666664</ele><time>2026-04-12T08:01:07.926Z</time></trkpt><trkpt lat="44.798934736862144" lon="13.905835760800944"><ele>31.833333333333332</ele><time>2026-04-12T08:01:08.926Z</time></trkpt><trkpt lat="44.79899684095503" lon="13.905807331646244"><ele>33.0</ele><time>2026-04-12T08:01:09.926Z</time></trkpt><trkpt lat="44.799060456185366" lon="13.9057810685356"><ele>33.199999999999996</ele><time>2026-04-12T08:01:10.926Z</time></trkpt><trkpt lat="44.799181445604624" lon="13.905750165226566"><ele>33.4</ele><time>2026-04-12T08:01:12.926Z</time></trkpt><trkpt lat="44.79927205239456" lon="13.90575354102854"><ele>33.599999999999994</ele><time>2026-04-12T08:01:14.926Z</time></trkpt><trkpt lat="44.79935689514841" lon="13.905742112822352"><ele>33.8</ele><time>2026-04-12T08:01:25.926Z</time></trkpt><trkpt lat="44.79947218411749" lon="13.905742818700977"><ele>34.0</ele><time>2026-04-12T08:01:27.926Z</time></trkpt><trkpt lat="44.79954088752234" lon="13.90575710073947"><ele>34.2</ele><time>2026-04-12T08:01:28.926Z</time></trkpt><trkpt lat="44.79961837770933" lon="13.905786094802792"><ele>34.4</ele><time>2026-04-12T08:01:29.926Z</time></trkpt><trkpt lat="44.799720563673816" lon="13.905827848228459"><ele>34.6</ele><time>2026-04-12T08:01:30.926Z</time></trkpt><trkpt lat="44.79983899840796" lon="13.90587935235392"><ele>34.8</ele><time>2026-04-12T08:01:31.926Z</time></trkpt><trkpt lat="44.79995204145221" lon="13.905934796747752"><ele>35.0</ele><time>2026-04-12T08:01:32.925Z</time></trkpt><trkpt lat="44.800065409452166" lon="13.905988686381741"><ele>35.5</ele><time>2026-04-12T08:01:33.925Z</time></trkpt><trkpt lat="44.800186779172016" lon="13.906044186902408"><ele>36.0</ele><time>2026-04-12T08:01:34.925Z</time></trkpt><trkpt lat="44.80031720104303" lon="13.906102799845623"><ele>36.5</ele><time>2026-04-12T08:01:35.925Z</time></trkpt><trkpt lat="44.800448648093045" lon="13.906158170860143"><ele>37.0</ele><time>2026-04-12T08:01:36.925Z</time></trkpt><trkpt lat="44.80057252056016" lon="13.90620169562176"><ele>37.0</ele><time>2026-04-12T08:01:37.925Z</time></trkpt><trkpt lat="44.80069883359931" lon="13.90623813441404"><ele>37.0</ele><time>2026-04-12T08:01:38.925Z</time></trkpt><trkpt lat="44.80083197123453" lon="13.906260607613206"><ele>37.0</ele><time>2026-04-12T08:01:39.925Z</time></trkpt><trkpt lat="44.80096490846446" lon="13.906265457692108"><ele>37.0</ele><time>2026-04-12T08:01:40.925Z</time></trkpt><trkpt lat="44.80109021844023" lon="13.90625966129811"><ele>38.0</ele><time>2026-04-12T08:01:41.925Z</time></trkpt><trkpt lat="44.8012127460389" lon="13.906254028404794"><ele>39.0</ele><time>2026-04-12T08:01:42.925Z</time></trkpt><trkpt lat="44.801329493804914" lon="13.90623721007962"><ele>40.0</ele><time>2026-04-12T08:01:43.925Z</time></trkpt><trkpt lat="44.80143109205109" lon="13.90621130365355"><ele>41.0</ele><time>2026-04-12T08:01:44.925Z</time></trkpt><trkpt lat="44.80151021942988" lon="13.906201063677445"><ele>42.0</ele><time>2026-04-12T08:01:45.925Z</time></trkpt><trkpt lat="44.801597992639934" lon="13.906310602405465"><ele>42.0</ele><time>2026-04-12T08:01:47.925Z</time></trkpt><trkpt lat="44.801606697275666" lon="13.906416607794279"><ele>42.0</ele><time>2026-04-12T08:01:48.925Z</time></trkpt><trkpt lat="44.801604151430865" lon="13.906522021035661"><ele>42.0</ele><time>2026-04-12T08:01:49.925Z</time></trkpt><trkpt lat="44.80160601539856" lon="13.906640224852246"><ele>42.0</ele><time>2026-04-12T08:01:50.925Z</time></trkpt><trkpt lat="44.801619144075076" lon="13.906761660024154"><ele>42.0</ele><time>2026-04-12T08:01:51.925Z</time></trkpt><trkpt lat="44.801642988619115" lon="13.90691114983867"><ele>42.0</ele><time>2026-04-12T08:01:52.925Z</time></trkpt><trkpt lat="44.80167585697768" lon="13.907055454962222"><ele>42.0</ele><time>2026-04-12T08:01:53.925Z</time></trkpt><trkpt lat="44.801730515640244" lon="13.907177233745806"><ele>42.0</ele><time>2026-04-12T08:01:54.925Z</time></trkpt><trkpt lat="44.80179907024115" lon="13.907275750201974"><ele>42.0</ele><time>2026-04-12T08:01:55.925Z</time></trkpt><trkpt lat="44.80188603657759" lon="13.907372532363887"><ele>42.0</ele><time>2026-04-12T08:01:56.925Z</time></trkpt><trkpt lat="44.801971149546155" lon="13.907470820316323"><ele>42.0</ele><time>2026-04-12T08:01:57.925Z</time></trkpt><trkpt lat="44.802064959348606" lon="13.907585943771322"><ele>42.0</ele><time>2026-04-12T08:01:58.925Z</time></trkpt><trkpt lat="44.8021669669814" lon="13.907705452635309"><ele>42.0</ele><time>2026-04-12T08:01:59.925Z</time></trkpt><trkpt lat="44.802243926951185" lon="13.907812217710285"><ele>42.0</ele><time>2026-04-12T08:02:00.925Z</time></trkpt><trkpt lat="44.80232481062829" lon="13.907910742882853"><ele>42.0</ele><time>2026-04-12T08:02:01.925Z</time></trkpt><trkpt lat="44.802402228508484" lon="13.908002531087194"><ele>42.0</ele><time>2026-04-12T08:02:02.925Z</time></trkpt><trkpt lat="44.80248072324211" lon="13.908095650381705"><ele>42.0</ele><time>2026-04-12T08:02:03.925Z</time></trkpt><trkpt lat="44.802550233829145" lon="13.908207597005566"><ele>42.0</ele><time>2026-04-12T08:02:04.925Z</time></trkpt><trkpt lat="44.802629907950724" lon="13.908293595785057"><ele>42.0</ele><time>2026-04-12T08:02:05.925Z</time></trkpt><trkpt lat="44.80270238844842" lon="13.908392611283002"><ele>42.0</ele><time>2026-04-12T08:02:06.925Z</time></trkpt><trkpt lat="44.80277965837344" lon="13.908487775372407"><ele>42.0</ele><time>2026-04-12T08:02:07.925Z</time></trkpt><trkpt lat="44.80286994143425" lon="13.90856053955597"><ele>42.2</ele><time>2026-04-12T08:02:08.925Z</time></trkpt><trkpt lat="44.80296895419304" lon="13.908624050844363"><ele>42.400000000000006</ele><time>2026-04-12T08:02:09.925Z</time></trkpt><trkpt lat="44.80307223619986" lon="13.908674808123108"><ele>42.599999999999994</ele><time>2026-04-12T08:02:10.925Z</time></trkpt><trkpt lat="44.80318063831025" lon="13.908707248692403"><ele>42.8</ele><time>2026-04-12T08:02:11.925Z</time></trkpt><trkpt lat="44.803288614227675" lon="13.908714982717854"><ele>43.0</ele><time>2026-04-12T08:02:12.925Z</time></trkpt><trkpt lat="44.80339827935293" lon="13.90871093228671"><ele>43.4</ele><time>2026-04-12T08:02:13.925Z</time></trkpt><trkpt lat="44.80350977651996" lon="13.908694721133323"><ele>43.8</ele><time>2026-04-12T08:02:14.925Z</time></trkpt><trkpt lat="44.80362084999531" lon="13.908712777079234"><ele>44.2</ele><time>2026-04-12T08:02:15.925Z</time></trkpt><trkpt lat="44.803729410245055" lon="13.908704275277277"><ele>44.6</ele><time>2026-04-12T08:02:16.925Z</time></trkpt><trkpt lat="44.80382836853033" lon="13.908758171020892"><ele>45.0</ele><time>2026-04-12T08:02:17.925Z</time></trkpt><trkpt lat="44.80391021399481" lon="13.908826258519825"><ele>45.0</ele><time>2026-04-12T08:02:18.925Z</time></trkpt><trkpt lat="44.803980091036365" lon="13.908913565336283"><ele>45.0</ele><time>2026-04-12T08:02:19.925Z</time></trkpt><trkpt lat="44.804036546132586" lon="13.909016115132538"><ele>45.0</ele><time>2026-04-12T08:02:20.925Z</time></trkpt><trkpt lat="44.8040792324196" lon="13.909113947584128"><ele>45.0</ele><time>2026-04-12T08:02:21.924Z</time></trkpt><trkpt lat="44.80411774712253" lon="13.909213500945121"><ele>45.0</ele><time>2026-04-12T08:02:22.924Z</time></trkpt><trkpt lat="44.8041492030189" lon="13.909306006454255"><ele>45.0</ele><time>2026-04-12T08:02:23.924Z</time></trkpt><trkpt lat="44.804177134520515" lon="13.90939931942392"><ele>44.666666666666664</ele><time>2026-04-12T08:02:24.924Z</time></trkpt><trkpt lat="44.80419904008817" lon="13.909486012129998"><ele>44.333333333333336</ele><time>2026-04-12T08:02:25.924Z</time></trkpt><trkpt lat="44.80422057650447" lon="13.909572682375646"><ele>44.0</ele><time>2026-04-12T08:02:26.924Z</time></trkpt><trkpt lat="44.804246716853534" lon="13.909677880535469"><ele>43.66666666666667</ele><time>2026-04-12T08:02:28.924Z</time></trkpt><trkpt lat="44.80421889302609" lon="13.909787104888222"><ele>43.333333333333336</ele><time>2026-04-12T08:02:33.924Z</time></trkpt><trkpt lat="44.8041143011666" lon="13.909815506244414"><ele>43.0</ele><time>2026-04-12T08:02:35.924Z</time></trkpt><trkpt lat="44.804030356765544" lon="13.909820457021862"><ele>43.0</ele><time>2026-04-12T08:02:36.924Z</time></trkpt><trkpt lat="44.80393516425" lon="13.909843993902626"><ele>43.0</ele><time>2026-04-12T08:02:37.924Z</time></trkpt><trkpt lat="44.80383643260869" lon="13.909870287257835"><ele>43.0</ele><time>2026-04-12T08:02:38.924Z</time></trkpt><trkpt lat="44.803744853224266" lon="13.909879862502907"><ele>43.0</ele><time>2026-04-12T08:02:39.924Z</time></trkpt><trkpt lat="44.803661732909305" lon="13.909897942490423"><ele>43.0</ele><time>2026-04-12T08:02:40.924Z</time></trkpt><trkpt lat="44.80358475628817" lon="13.909920011530708"><ele>43.0</ele><time>2026-04-12T08:02:41.924Z</time></trkpt><trkpt lat="44.80351142182653" lon="13.90993937241947"><ele>43.0</ele><time>2026-04-12T08:02:42.924Z</time></trkpt><trkpt lat="44.80342786779813" lon="13.909945427799881"><ele>43.0</ele><time>2026-04-12T08:02:43.924Z</time></trkpt><trkpt lat="44.803347523552596" lon="13.909943629981143"><ele>43.0</ele><time>2026-04-12T08:02:44.924Z</time></trkpt><trkpt lat="44.80325943526071" lon="13.909941083963004"><ele>43.0</ele><time>2026-04-12T08:02:45.924Z</time></trkpt><trkpt lat="44.80317291903299" lon="13.909926607581054"><ele>43.0</ele><time>2026-04-12T08:02:46.924Z</time></trkpt><trkpt lat="44.803080967985096" lon="13.909911933923112"><ele>43.0</ele><time>2026-04-12T08:02:47.924Z</time></trkpt><trkpt lat="44.802984987504516" lon="13.909914067662752"><ele>43.0</ele><time>2026-04-12T08:02:48.924Z</time></trkpt><trkpt lat="44.80288850821721" lon="13.90991920848035"><ele>43.0</ele><time>2026-04-12T08:02:49.924Z</time></trkpt><trkpt lat="44.802793701749835" lon="13.909921981830472"><ele>43.0</ele><time>2026-04-12T08:02:50.924Z</time></trkpt><trkpt lat="44.80270457148862" lon="13.909946130889765"><ele>43.0</ele><time>2026-04-12T08:02:51.924Z</time></trkpt><trkpt lat="44.80262962555984" lon="13.909961451423678"><ele>43.0</ele><time>2026-04-12T08:02:52.924Z</time></trkpt><trkpt lat="44.80255305674504" lon="13.909975354139574"><ele>43.0</ele><time>2026-04-12T08:02:54.924Z</time></trkpt><trkpt lat="44.80249264806777" lon="13.909923981895288"><ele>43.0</ele><time>2026-04-12T08:02:58.924Z</time></trkpt><trkpt lat="44.80249017305522" lon="13.909807723707672"><ele>43.0</ele><time>2026-04-12T08:03:02.924Z</time></trkpt><trkpt lat="44.80249665293619" lon="13.909690583692445"><ele>43.0</ele><time>2026-04-12T08:03:05.923Z</time></trkpt><trkpt lat="44.80242926542342" lon="13.90970233063689"><ele>43.0</ele><time>2026-04-12T08:03:08.923Z</time></trkpt><trkpt lat="44.80245796081639" lon="13.909791721827494"><ele>43.0</ele><time>2026-04-12T08:03:11.923Z</time></trkpt><trkpt lat="44.80246919427953" lon="13.909879298173234"><ele>43.0</ele><time>2026-04-12T08:03:13.923Z</time></trkpt><trkpt lat="44.80247437525442" lon="13.910083808196804"><ele>43.0</ele><time>2026-04-12T08:14:16.933Z</time></trkpt><trkpt lat="44.802452281324896" lon="13.909943181565732"><ele>43.0</ele><time>2026-04-12T08:16:06.933Z</time></trkpt><trkpt lat="44.80253340431385" lon="13.910007741301694"><ele>43.0</ele><time>2026-04-12T08:18:33.933Z</time></trkpt><trkpt lat="44.80268752164143" lon="13.909965987539614"><ele>42.833333333333336</ele><time>2026-04-12T08:18:36.933Z</time></trkpt><trkpt lat="44.80276315484568" lon="13.909950400199655"><ele>42.66666666666667</ele><time>2026-04-12T08:18:37.933Z</time></trkpt><trkpt lat="44.80283878603645" lon="13.90995488009304"><ele>42.5</ele><time>2026-04-12T08:18:38.933Z</time></trkpt><trkpt lat="44.802928583172374" lon="13.90995099438443"><ele>42.333333333333336</ele><time>2026-04-12T08:18:39.933Z</time></trkpt><trkpt lat="44.80303508602333" lon="13.909950020828585"><ele>42.166666666666664</ele><time>2026-04-12T08:18:40.933Z</time></trkpt><trkpt lat="44.803129608476745" lon="13.909953501000121"><ele>42.0</ele><time>2026-04-12T08:18:41.933Z</time></trkpt><trkpt lat="44.803217933488334" lon="13.909966998978286"><ele>42.0</ele><time>2026-04-12T08:18:42.933Z</time></trkpt><trkpt lat="44.80328671113744" lon="13.909977531059592"><ele>42.0</ele><time>2026-04-12T08:18:43.933Z</time></trkpt><trkpt lat="44.80335635133236" lon="13.909983131866724"><ele>42.0</ele><time>2026-04-12T08:18:44.933Z</time></trkpt><trkpt lat="44.80342629610555" lon="13.909986642557161"><ele>42.0</ele><time>2026-04-12T08:18:45.933Z</time></trkpt><trkpt lat="44.80350483951488" lon="13.909981455437423"><ele>42.0</ele><time>2026-04-12T08:18:46.933Z</time></trkpt><trkpt lat="44.80358440405295" lon="13.909961310590898"><ele>42.0</ele><time>2026-04-12T08:18:47.933Z</time></trkpt><trkpt lat="44.8036572125037" lon="13.909942313252003"><ele>42.0</ele><time>2026-04-12T08:18:48.933Z</time></trkpt><trkpt lat="44.80375036429856" lon="13.909933836490186"><ele>42.166666666666664</ele><time>2026-04-12T08:18:49.933Z</time></trkpt><trkpt lat="44.803838402986024" lon="13.909915477410214"><ele>42.333333333333336</ele><time>2026-04-12T08:18:50.932Z</time></trkpt><trkpt lat="44.8039236683432" lon="13.90989771856771"><ele>42.5</ele><time>2026-04-12T08:18:51.932Z</time></trkpt><trkpt lat="44.80400945390881" lon="13.909858497546116"><ele>42.66666666666667</ele><time>2026-04-12T08:18:52.932Z</time></trkpt><trkpt lat="44.80409378723401" lon="13.909842384512402"><ele>42.833333333333336</ele><time>2026-04-12T08:18:53.932Z</time></trkpt><trkpt lat="44.80417783918279" lon="13.909820068394264"><ele>43.0</ele><time>2026-04-12T08:18:54.932Z</time></trkpt><trkpt lat="44.80426808661537" lon="13.909807464091068"><ele>42.8</ele><time>2026-04-12T08:18:55.932Z</time></trkpt><trkpt lat="44.8043548525522" lon="13.909788356807923"><ele>42.599999999999994</ele><time>2026-04-12T08:18:56.932Z</time></trkpt><trkpt lat="44.80444024266767" lon="13.90977612217947"><ele>42.400000000000006</ele><time>2026-04-12T08:18:57.932Z</time></trkpt><trkpt lat="44.80452863678137" lon="13.909752240017946"><ele>42.2</ele><time>2026-04-12T08:18:58.932Z</time></trkpt><trkpt lat="44.804618376212254" lon="13.90971972971368"><ele>42.0</ele><time>2026-04-12T08:18:59.932Z</time></trkpt><trkpt lat="44.80471777360032" lon="13.909678873639255"><ele>42.0</ele><time>2026-04-12T08:19:00.932Z</time></trkpt><trkpt lat="44.804820689443225" lon="13.909650717956207"><ele>42.0</ele><time>2026-04-12T08:19:01.932Z</time></trkpt><trkpt lat="44.804914262526324" lon="13.909607149615008"><ele>42.0</ele><time>2026-04-12T08:19:02.932Z</time></trkpt><trkpt lat="44.805006196617185" lon="13.909564188521763"><ele>42.0</ele><time>2026-04-12T08:19:03.932Z</time></trkpt><trkpt lat="44.805107757592296" lon="13.90951899452522"><ele>42.0</ele><time>2026-04-12T08:19:04.932Z</time></trkpt><trkpt lat="44.80520655577314" lon="13.909479983362608"><ele>42.2</ele><time>2026-04-12T08:19:05.932Z</time></trkpt><trkpt lat="44.80530392888067" lon="13.909440331404669"><ele>42.400000000000006</ele><time>2026-04-12T08:19:06.932Z</time></trkpt><trkpt lat="44.80540045702877" lon="13.909396822164148"><ele>42.599999999999994</ele><time>2026-04-12T08:19:07.932Z</time></trkpt><trkpt lat="44.80549219439963" lon="13.909361337468454"><ele>42.8</ele><time>2026-04-12T08:19:08.932Z</time></trkpt><trkpt lat="44.80557928081645" lon="13.90932483279086"><ele>43.0</ele><time>2026-04-12T08:19:09.932Z</time></trkpt><trkpt lat="44.80567081058013" lon="13.909285122546784"><ele>43.0</ele><time>2026-04-12T08:19:10.932Z</time></trkpt><trkpt lat="44.80576969607793" lon="13.909276870394125"><ele>43.0</ele><time>2026-04-12T08:19:11.932Z</time></trkpt><trkpt lat="44.8058643340574" lon="13.909232828450882"><ele>43.0</ele><time>2026-04-12T08:19:12.932Z</time></trkpt><trkpt lat="44.80595993320666" lon="13.909194871538178"><ele>43.0</ele><time>2026-04-12T08:19:13.932Z</time></trkpt><trkpt lat="44.806058988693266" lon="13.909161546733078"><ele>43.0</ele><time>2026-04-12T08:19:14.932Z</time></trkpt><trkpt lat="44.80615238492056" lon="13.909128392632805"><ele>45.2</ele><time>2026-04-12T08:19:15.932Z</time></trkpt><trkpt lat="44.80624661331871" lon="13.909103356656118"><ele>47.4</ele><time>2026-04-12T08:19:16.932Z</time></trkpt><trkpt lat="44.806345067184864" lon="13.909087623713777"><ele>49.60000000000001</ele><time>2026-04-12T08:19:17.932Z</time></trkpt><trkpt lat="44.80644450829666" lon="13.909069787974277"><ele>51.800000000000004</ele><time>2026-04-12T08:19:18.932Z</time></trkpt><trkpt lat="44.80654406365606" lon="13.90905246803742"><ele>54.0</ele><time>2026-04-12T08:19:19.932Z</time></trkpt><trkpt lat="44.806638475703885" lon="13.909029694197114"><ele>54.0</ele><time>2026-04-12T08:19:20.932Z</time></trkpt><trkpt lat="44.80672888926518" lon="13.90901921723526"><ele>54.00000000000001</ele><time>2026-04-12T08:19:21.932Z</time></trkpt><trkpt lat="44.8068276533679" lon="13.909000514984942"><ele>54.00000000000001</ele><time>2026-04-12T08:19:22.932Z</time></trkpt><trkpt lat="44.80692863032333" lon="13.908983997810873"><ele>54.0</ele><time>2026-04-12T08:19:23.932Z</time></trkpt><trkpt lat="44.80702608031066" lon="13.90897236837117"><ele>54.0</ele><time>2026-04-12T08:19:24.932Z</time></trkpt><trkpt lat="44.80712012737695" lon="13.908961014446428"><ele>55.400000000000006</ele><time>2026-04-12T08:19:25.932Z</time></trkpt><trkpt lat="44.80722632834767" lon="13.908954636582598"><ele>56.800000000000004</ele><time>2026-04-12T08:19:26.932Z</time></trkpt><trkpt lat="44.80731764948738" lon="13.908928604646446"><ele>58.199999999999996</ele><time>2026-04-12T08:19:27.932Z</time></trkpt><trkpt lat="44.80741006304339" lon="13.90891628648336"><ele>59.599999999999994</ele><time>2026-04-12T08:19:28.932Z</time></trkpt><trkpt lat="44.807508599084514" lon="13.908885075657688"><ele>61.0</ele><time>2026-04-12T08:19:29.932Z</time></trkpt><trkpt lat="44.807617326124" lon="13.908866688384768"><ele>61.4</ele><time>2026-04-12T08:19:30.932Z</time></trkpt><trkpt lat="44.80771943372003" lon="13.908854797995577"><ele>61.8</ele><time>2026-04-12T08:19:31.932Z</time></trkpt><trkpt lat="44.80781721650707" lon="13.908839112416912"><ele>62.199999999999996</ele><time>2026-04-12T08:19:32.932Z</time></trkpt><trkpt lat="44.807914568309876" lon="13.908815092967856"><ele>62.599999999999994</ele><time>2026-04-12T08:19:33.932Z</time></trkpt><trkpt lat="44.80801385194329" lon="13.908793544861698"><ele>63.0</ele><time>2026-04-12T08:19:34.932Z</time></trkpt><trkpt lat="44.80811091585755" lon="13.908766386720178"><ele>63.0</ele><time>2026-04-12T08:19:35.932Z</time></trkpt><trkpt lat="44.808216058424286" lon="13.90879184590844"><ele>63.0</ele><time>2026-04-12T08:19:36.932Z</time></trkpt><trkpt lat="44.80831366262016" lon="13.908772462623663"><ele>63.0</ele><time>2026-04-12T08:19:37.932Z</time></trkpt><trkpt lat="44.80840720657371" lon="13.908748501844864"><ele>63.0</ele><time>2026-04-12T08:19:38.932Z</time></trkpt><trkpt lat="44.80851515929072" lon="13.908731802233318"><ele>63.0</ele><time>2026-04-12T08:19:39.932Z</time></trkpt><trkpt lat="44.80861532686846" lon="13.908701960425436"><ele>63.5</ele><time>2026-04-12T08:19:40.932Z</time></trkpt><trkpt lat="44.80873088433558" lon="13.908697149230166"><ele>64.0</ele><time>2026-04-12T08:19:41.932Z</time></trkpt><trkpt lat="44.808848577686796" lon="13.908674258568508"><ele>64.5</ele><time>2026-04-12T08:19:42.932Z</time></trkpt><trkpt lat="44.808971484338414" lon="13.908654335929182"><ele>65.0</ele><time>2026-04-12T08:19:43.932Z</time></trkpt><trkpt lat="44.80909001959394" lon="13.908636033054597"><ele>65.0</ele><time>2026-04-12T08:19:44.932Z</time></trkpt><trkpt lat="44.809208239795566" lon="13.908609772291348"><ele>65.0</ele><time>2026-04-12T08:19:45.932Z</time></trkpt><trkpt lat="44.80931227569686" lon="13.908584776154383"><ele>65.0</ele><time>2026-04-12T08:19:46.931Z</time></trkpt><trkpt lat="44.80941696563244" lon="13.908561309758683"><ele>65.0</ele><time>2026-04-12T08:19:47.931Z</time></trkpt><trkpt lat="44.80952028410003" lon="13.908539549640569"><ele>65.0</ele><time>2026-04-12T08:19:48.931Z</time></trkpt><trkpt lat="44.809630195034536" lon="13.908519420495264"><ele>64.2</ele><time>2026-04-12T08:19:49.931Z</time></trkpt><trkpt lat="44.80973493151509" lon="13.90850778451645"><ele>63.4</ele><time>2026-04-12T08:19:50.931Z</time></trkpt><trkpt lat="44.80984378961357" lon="13.908498411193086"><ele>62.599999999999994</ele><time>2026-04-12T08:19:51.931Z</time></trkpt><trkpt lat="44.809963672714694" lon="13.908483156712641"><ele>61.8</ele><time>2026-04-12T08:19:52.931Z</time></trkpt><trkpt lat="44.81007638334996" lon="13.90848058096555"><ele>61.0</ele><time>2026-04-12T08:19:53.931Z</time></trkpt><trkpt lat="44.81017978408536" lon="13.908493740935494"><ele>59.75</ele><time>2026-04-12T08:19:54.931Z</time></trkpt><trkpt lat="44.81028384030865" lon="13.908538440030394"><ele>58.5</ele><time>2026-04-12T08:19:55.931Z</time></trkpt><trkpt lat="44.810381351565375" lon="13.908618974324206"><ele>57.25</ele><time>2026-04-12T08:19:56.931Z</time></trkpt><trkpt lat="44.81046148157679" lon="13.908745199987658"><ele>56.0</ele><time>2026-04-12T08:19:57.931Z</time></trkpt><trkpt lat="44.810545755593395" lon="13.908857107555397"><ele>56.0</ele><time>2026-04-12T08:19:58.931Z</time></trkpt><trkpt lat="44.81060820421864" lon="13.90899004722959"><ele>56.0</ele><time>2026-04-12T08:19:59.931Z</time></trkpt><trkpt lat="44.81069150769789" lon="13.909116777902396"><ele>56.0</ele><time>2026-04-12T08:20:00.931Z</time></trkpt><trkpt lat="44.81077764045358" lon="13.909233863240674"><ele>56.0</ele><time>2026-04-12T08:20:01.931Z</time></trkpt><trkpt lat="44.81086912628267" lon="13.909365420847516"><ele>55.0</ele><time>2026-04-12T08:20:02.931Z</time></trkpt><trkpt lat="44.81095937571296" lon="13.909496138621671"><ele>54.0</ele><time>2026-04-12T08:20:03.931Z</time></trkpt><trkpt lat="44.811047812949134" lon="13.909629625588654"><ele>53.0</ele><time>2026-04-12T08:20:04.931Z</time></trkpt><trkpt lat="44.81114188554707" lon="13.90976601920725"><ele>52.0</ele><time>2026-04-12T08:20:05.931Z</time></trkpt><trkpt lat="44.811234810435266" lon="13.909898910964001"><ele>51.75</ele><time>2026-04-12T08:20:06.931Z</time></trkpt><trkpt lat="44.811328491565405" lon="13.910046939212009"><ele>51.5</ele><time>2026-04-12T08:20:07.931Z</time></trkpt><trkpt lat="44.81142798063487" lon="13.910181783317586"><ele>51.25</ele><time>2026-04-12T08:20:08.931Z</time></trkpt><trkpt lat="44.811527539915005" lon="13.910315888109361"><ele>51.0</ele><time>2026-04-12T08:20:09.931Z</time></trkpt><trkpt lat="44.81161765416249" lon="13.910455034060455"><ele>50.25</ele><time>2026-04-12T08:20:10.931Z</time></trkpt><trkpt lat="44.81170714197584" lon="13.910600659588464"><ele>49.5</ele><time>2026-04-12T08:20:11.931Z</time></trkpt><trkpt lat="44.81180744104814" lon="13.910740935387826"><ele>48.75</ele><time>2026-04-12T08:20:12.931Z</time></trkpt><trkpt lat="44.81189135121579" lon="13.91087944075259"><ele>48.0</ele><time>2026-04-12T08:20:13.931Z</time></trkpt><trkpt lat="44.81197995835741" lon="13.911020547308802"><ele>44.5</ele><time>2026-04-12T08:20:14.931Z</time></trkpt><trkpt lat="44.81207087326185" lon="13.911156004918588"><ele>41.0</ele><time>2026-04-12T08:20:15.93Z</time></trkpt><trkpt lat="44.81216314501437" lon="13.911283011168754"><ele>37.5</ele><time>2026-04-12T08:20:16.93Z</time></trkpt><trkpt lat="44.812259027989995" lon="13.91141257570324"><ele>34.0</ele><time>2026-04-12T08:20:17.93Z</time></trkpt><trkpt lat="44.81234996632616" lon="13.911543063418348"><ele>34.0</ele><time>2026-04-12T08:20:18.93Z</time></trkpt><trkpt lat="44.81244699025741" lon="13.911678758654867"><ele>34.0</ele><time>2026-04-12T08:20:19.93Z</time></trkpt><trkpt lat="44.81253704186705" lon="13.911807437865566"><ele>34.0</ele><time>2026-04-12T08:20:20.93Z</time></trkpt><trkpt lat="44.81263140281065" lon="13.91194574990651"><ele>34.0</ele><time>2026-04-12T08:20:21.93Z</time></trkpt><trkpt lat="44.812730089010685" lon="13.912074740305416"><ele>32.5</ele><time>2026-04-12T08:20:22.93Z</time></trkpt><trkpt lat="44.81283020626616" lon="13.91220376119959"><ele>31.0</ele><time>2026-04-12T08:20:23.93Z</time></trkpt><trkpt lat="44.81294175760613" lon="13.912325229053836"><ele>29.5</ele><time>2026-04-12T08:20:24.93Z</time></trkpt><trkpt lat="44.81307191437935" lon="13.912442087783278"><ele>28.0</ele><time>2026-04-12T08:20:25.93Z</time></trkpt><trkpt lat="44.81319421455306" lon="13.91255689973094"><ele>24.25</ele><time>2026-04-12T08:20:26.93Z</time></trkpt><trkpt lat="44.81332438381045" lon="13.9126801447648"><ele>20.5</ele><time>2026-04-12T08:20:27.93Z</time></trkpt><trkpt lat="44.81344942538048" lon="13.912783780476245"><ele>16.75</ele><time>2026-04-12T08:20:28.93Z</time></trkpt><trkpt lat="44.81357984220221" lon="13.912846073902715"><ele>13.0</ele><time>2026-04-12T08:20:29.93Z</time></trkpt><trkpt lat="44.81371813024852" lon="13.912886135667435"><ele>11.75</ele><time>2026-04-12T08:20:30.93Z</time></trkpt><trkpt lat="44.81385565047728" lon="13.912898142194154"><ele>10.5</ele><time>2026-04-12T08:20:31.93Z</time></trkpt><trkpt lat="44.813999273588436" lon="13.912834732933081"><ele>9.25</ele><time>2026-04-12T08:20:32.93Z</time></trkpt><trkpt lat="44.81414468477046" lon="13.912759987958625"><ele>8.0</ele><time>2026-04-12T08:20:33.93Z</time></trkpt><trkpt lat="44.81427642259989" lon="13.912588324525693"><ele>7.0</ele><time>2026-04-12T08:20:34.93Z</time></trkpt><trkpt lat="44.81437099479023" lon="13.91242121405574"><ele>6.0</ele><time>2026-04-12T08:20:35.93Z</time></trkpt><trkpt lat="44.81445379978906" lon="13.912233704381869"><ele>5.0</ele><time>2026-04-12T08:20:36.93Z</time></trkpt><trkpt lat="44.814497315776414" lon="13.912054551827515"><ele>4.0</ele><time>2026-04-12T08:20:37.93Z</time></trkpt><trkpt lat="44.81452186359884" lon="13.911869563584132"><ele>4.25</ele><time>2026-04-12T08:20:38.93Z</time></trkpt><trkpt lat="44.81454711707915" lon="13.911688564943013"><ele>4.5</ele><time>2026-04-12T08:20:39.93Z</time></trkpt><trkpt lat="44.81459293789161" lon="13.911514708691792"><ele>4.75</ele><time>2026-04-12T08:20:40.93Z</time></trkpt><trkpt lat="44.8146131416927" lon="13.91134678669335"><ele>5.0</ele><time>2026-04-12T08:20:41.93Z</time></trkpt><trkpt lat="44.814649648569024" lon="13.91117993774397"><ele>5.0</ele><time>2026-04-12T08:20:42.93Z</time></trkpt><trkpt lat="44.81468371546179" lon="13.911004081377156"><ele>5.0</ele><time>2026-04-12T08:20:43.93Z</time></trkpt><trkpt lat="44.81472042310184" lon="13.910827997900476"><ele>5.0</ele><time>2026-04-12T08:20:44.93Z</time></trkpt><trkpt lat="44.81478502700548" lon="13.91067263534291"><ele>5.0</ele><time>2026-04-12T08:20:45.93Z</time></trkpt><trkpt lat="44.81481398405574" lon="13.910502569446908"><ele>5.5</ele><time>2026-04-12T08:20:46.93Z</time></trkpt><trkpt lat="44.814841078133064" lon="13.910323966558035"><ele>6.0</ele><time>2026-04-12T08:20:47.93Z</time></trkpt><trkpt lat="44.81487593527106" lon="13.910133852128642"><ele>6.5</ele><time>2026-04-12T08:20:48.93Z</time></trkpt><trkpt lat="44.81490948819722" lon="13.9099530795245"><ele>7.0</ele><time>2026-04-12T08:20:49.93Z</time></trkpt><trkpt lat="44.81493851576571" lon="13.909770823032018"><ele>8.0</ele><time>2026-04-12T08:20:50.93Z</time></trkpt><trkpt lat="44.814972606768976" lon="13.909589462605384"><ele>9.0</ele><time>2026-04-12T08:20:51.93Z</time></trkpt><trkpt lat="44.81499308411475" lon="13.909390519522463"><ele>10.0</ele><time>2026-04-12T08:20:52.93Z</time></trkpt><trkpt lat="44.815028797551285" lon="13.909206041661795"><ele>11.0</ele><time>2026-04-12T08:20:53.93Z</time></trkpt><trkpt lat="44.81504409312304" lon="13.909017547378513"><ele>11.0</ele><time>2026-04-12T08:20:54.93Z</time></trkpt><trkpt lat="44.81505944910899" lon="13.908823303684391"><ele>11.0</ele><time>2026-04-12T08:20:55.93Z</time></trkpt><trkpt lat="44.8150858137607" lon="13.908631225718112"><ele>11.0</ele><time>2026-04-12T08:20:56.93Z</time></trkpt><trkpt lat="44.81510348495921" lon="13.908426614111457"><ele>11.0</ele><time>2026-04-12T08:20:57.93Z</time></trkpt><trkpt lat="44.81511568991219" lon="13.90820577021426"><ele>11.666666666666666</ele><time>2026-04-12T08:20:58.93Z</time></trkpt><trkpt lat="44.81513663979859" lon="13.907980448415662"><ele>12.333333333333332</ele><time>2026-04-12T08:20:59.93Z</time></trkpt><trkpt lat="44.815160113747446" lon="13.907745493640277"><ele>13.0</ele><time>2026-04-12T08:21:00.93Z</time></trkpt><trkpt lat="44.81517146958151" lon="13.907498636653788"><ele>13.333333333333332</ele><time>2026-04-12T08:21:01.93Z</time></trkpt><trkpt lat="44.81517420493781" lon="13.907246033882396"><ele>13.666666666666668</ele><time>2026-04-12T08:21:02.93Z</time></trkpt><trkpt lat="44.815159246782486" lon="13.906993785766982"><ele>14.0</ele><time>2026-04-12T08:21:03.93Z</time></trkpt><trkpt lat="44.81513105252599" lon="13.906753445552383"><ele>12.666666666666668</ele><time>2026-04-12T08:21:04.93Z</time></trkpt><trkpt lat="44.81509333638866" lon="13.906533864058199"><ele>11.333333333333334</ele><time>2026-04-12T08:21:05.93Z</time></trkpt><trkpt lat="44.81504049037546" lon="13.906322346492873"><ele>10.0</ele><time>2026-04-12T08:21:06.93Z</time></trkpt><trkpt lat="44.8149806898672" lon="13.90610631049732"><ele>8.666666666666668</ele><time>2026-04-12T08:21:07.93Z</time></trkpt><trkpt lat="44.8149249420289" lon="13.905893876532518"><ele>7.333333333333334</ele><time>2026-04-12T08:21:08.93Z</time></trkpt><trkpt lat="44.81487781051979" lon="13.905683631013542"><ele>6.0</ele><time>2026-04-12T08:21:09.93Z</time></trkpt><trkpt lat="44.81483058442672" lon="13.90547192430242"><ele>6.0</ele><time>2026-04-12T08:21:10.93Z</time></trkpt><trkpt lat="44.81478509039266" lon="13.905264265689219"><ele>6.0</ele><time>2026-04-12T08:21:11.929Z</time></trkpt><trkpt lat="44.8147483761858" lon="13.905059608335533"><ele>6.0</ele><time>2026-04-12T08:21:12.929Z</time></trkpt><trkpt lat="44.814708375403875" lon="13.904849660143"><ele>4.666666666666667</ele><time>2026-04-12T08:21:13.929Z</time></trkpt><trkpt lat="44.81466879928981" lon="13.90464183392562"><ele>3.333333333333333</ele><time>2026-04-12T08:21:14.929Z</time></trkpt><trkpt lat="44.81462106321528" lon="13.904430012710717"><ele>2.0</ele><time>2026-04-12T08:21:15.929Z</time></trkpt><trkpt lat="44.81457738119949" lon="13.904222503705462"><ele>1.3333333333333333</ele><time>2026-04-12T08:21:16.929Z</time></trkpt><trkpt lat="44.81455643817523" lon="13.90400997334722"><ele>0.6666666666666666</ele><time>2026-04-12T08:21:17.929Z</time></trkpt><trkpt lat="44.81454162902193" lon="13.90379734199994"><ele>0.0</ele><time>2026-04-12T08:21:18.929Z</time></trkpt><trkpt lat="44.81453839162713" lon="13.90357502841107"><ele>0.0</ele><time>2026-04-12T08:21:19.929Z</time></trkpt><trkpt lat="44.814530182758695" lon="13.903349353995647"><ele>0.0</ele><time>2026-04-12T08:21:20.929Z</time></trkpt><trkpt lat="44.814532139008065" lon="13.903131192689166"><ele>0.0</ele><time>2026-04-12T08:21:21.929Z</time></trkpt><trkpt lat="44.81453827143912" lon="13.90291680299333"><ele>0.0</ele><time>2026-04-12T08:21:22.929Z</time></trkpt><trkpt lat="44.81454351654021" lon="13.902699757084426"><ele>0.0</ele><time>2026-04-12T08:21:23.929Z</time></trkpt><trkpt lat="44.81455649518029" lon="13.90249000915198"><ele>0.0</ele><time>2026-04-12T08:21:24.929Z</time></trkpt><trkpt lat="44.81457799905965" lon="13.90228593904782"><ele>0.25</ele><time>2026-04-12T08:21:25.929Z</time></trkpt><trkpt lat="44.81460505388881" lon="13.902080972563704"><ele>0.5</ele><time>2026-04-12T08:21:26.929Z</time></trkpt><trkpt lat="44.81463779236334" lon="13.90188276676919"><ele>0.75</ele><time>2026-04-12T08:21:27.929Z</time></trkpt><trkpt lat="44.81467658489177" lon="13.901688022937401"><ele>1.0</ele><time>2026-04-12T08:21:28.929Z</time></trkpt><trkpt lat="44.814715511524376" lon="13.901492964290044"><ele>1.0</ele><time>2026-04-12T08:21:29.929Z</time></trkpt><trkpt lat="44.814763232528485" lon="13.901306595806755"><ele>1.0</ele><time>2026-04-12T08:21:30.929Z</time></trkpt><trkpt lat="44.814818232035336" lon="13.901121097771089"><ele>1.0</ele><time>2026-04-12T08:21:31.929Z</time></trkpt><trkpt lat="44.81489144125625" lon="13.90095548364896"><ele>1.0</ele><time>2026-04-12T08:21:32.929Z</time></trkpt><trkpt lat="44.81496863927132" lon="13.900792529777203"><ele>1.25</ele><time>2026-04-12T08:21:33.929Z</time></trkpt><trkpt lat="44.81504912197623" lon="13.900635284790303"><ele>1.5</ele><time>2026-04-12T08:21:34.929Z</time></trkpt><trkpt lat="44.81512675870561" lon="13.900477162274527"><ele>1.75</ele><time>2026-04-12T08:21:35.929Z</time></trkpt><trkpt lat="44.81520448922226" lon="13.900316926831998"><ele>2.0</ele><time>2026-04-12T08:21:36.929Z</time></trkpt><trkpt lat="44.81527740191713" lon="13.900166291165725"><ele>1.8333333333333333</ele><time>2026-04-12T08:21:37.929Z</time></trkpt><trkpt lat="44.81535082455721" lon="13.900039588879055"><ele>1.6666666666666665</ele><time>2026-04-12T08:21:38.929Z</time></trkpt><trkpt lat="44.815406558814864" lon="13.899944263865397"><ele>1.5</ele><time>2026-04-12T08:21:39.929Z</time></trkpt><trkpt lat="44.815470787878446" lon="13.89982682818209"><ele>1.3333333333333333</ele><time>2026-04-12T08:21:41.929Z</time></trkpt><trkpt lat="44.81552361094813" lon="13.899762047436187"><ele>1.1666666666666665</ele><time>2026-04-12T08:21:44.929Z</time></trkpt><trkpt lat="44.815575536748234" lon="13.89969808983936"><ele>1.0</ele><time>2026-04-12T08:21:47.929Z</time></trkpt><trkpt lat="44.815702123499435" lon="13.899719931360906"><ele>1.0</ele><time>2026-04-12T08:21:49.929Z</time></trkpt><trkpt lat="44.81577245793279" lon="13.899693114421142"><ele>1.0</ele><time>2026-04-12T08:21:51.929Z</time></trkpt><trkpt lat="44.81584119366204" lon="13.89965568691826"><ele>1.0</ele><time>2026-04-12T08:21:53.929Z</time></trkpt><trkpt lat="44.81594956842049" lon="13.89960259695094"><ele>1.0</ele><time>2026-04-12T08:21:55.929Z</time></trkpt><trkpt lat="44.816038875303654" lon="13.899513490446974"><ele>1.0</ele><time>2026-04-12T08:21:57.928Z</time></trkpt><trkpt lat="44.816094788756075" lon="13.899388943752644"><ele>0.8</ele><time>2026-04-12T08:21:59.928Z</time></trkpt><trkpt lat="44.81613922770861" lon="13.899266808362203"><ele>0.6000000000000001</ele><time>2026-04-12T08:22:01.928Z</time></trkpt><trkpt lat="44.81617734481565" lon="13.899144518016286"><ele>0.4</ele><time>2026-04-12T08:22:03.928Z</time></trkpt><trkpt lat="44.81621916901943" lon="13.89901768717744"><ele>0.2</ele><time>2026-04-12T08:22:05.928Z</time></trkpt><trkpt lat="44.81625898988011" lon="13.898901595316815"><ele>0.0</ele><time>2026-04-12T08:22:07.928Z</time></trkpt><trkpt lat="44.816327037603315" lon="13.898809406353813"><ele>0.0</ele><time>2026-04-12T08:22:09.928Z</time></trkpt><trkpt lat="44.8163886326403" lon="13.898720577612709"><ele>0.0</ele><time>2026-04-12T08:22:11.928Z</time></trkpt><trkpt lat="44.81643987433552" lon="13.89860198363195"><ele>0.0</ele><time>2026-04-12T08:22:13.928Z</time></trkpt><trkpt lat="44.816479785634876" lon="13.898492002522053"><ele>0.0</ele><time>2026-04-12T08:22:15.928Z</time></trkpt><trkpt lat="44.816481872388984" lon="13.89839256754989"><ele>0.0</ele><time>2026-04-12T08:22:17.928Z</time></trkpt><trkpt lat="44.81650472058032" lon="13.898255687530384"><ele>0.0</ele><time>2026-04-12T08:22:20.928Z</time></trkpt><trkpt lat="44.81656988709186" lon="13.898144763657848"><ele>0.16666666666666666</ele><time>2026-04-12T08:22:22.928Z</time></trkpt><trkpt lat="44.81663422291118" lon="13.898033350901965"><ele>0.3333333333333333</ele><time>2026-04-12T08:22:24.928Z</time></trkpt><trkpt lat="44.81664832291913" lon="13.897931191072825"><ele>0.5</ele><time>2026-04-12T08:22:26.928Z</time></trkpt><trkpt lat="44.81664246563848" lon="13.89783227502238"><ele>0.6666666666666666</ele><time>2026-04-12T08:22:28.928Z</time></trkpt><trkpt lat="44.81661225220352" lon="13.897734318622751"><ele>0.8333333333333333</ele><time>2026-04-12T08:22:31.928Z</time></trkpt><trkpt lat="44.81661305081354" lon="13.897623545663386"><ele>1.0</ele><time>2026-04-12T08:22:33.928Z</time></trkpt><trkpt lat="44.81663501705993" lon="13.897533205473904"><ele>1.0</ele><time>2026-04-12T08:22:34.928Z</time></trkpt><trkpt lat="44.81667438694786" lon="13.897429782800627"><ele>1.0</ele><time>2026-04-12T08:22:35.928Z</time></trkpt><trkpt lat="44.816722044167015" lon="13.897308466020572"><ele>1.0</ele><time>2026-04-12T08:22:36.928Z</time></trkpt><trkpt lat="44.8167747118873" lon="13.89715074322899"><ele>1.0</ele><time>2026-04-12T08:22:37.928Z</time></trkpt><trkpt lat="44.81682305133413" lon="13.8969912877978"><ele>1.0</ele><time>2026-04-12T08:22:38.928Z</time></trkpt><trkpt lat="44.81687012803704" lon="13.896838062076931"><ele>1.0</ele><time>2026-04-12T08:22:39.928Z</time></trkpt><trkpt lat="44.81692507690154" lon="13.896671500126258"><ele>1.0</ele><time>2026-04-12T08:22:40.928Z</time></trkpt><trkpt lat="44.816975800247235" lon="13.89648852385382"><ele>1.0</ele><time>2026-04-12T08:22:41.928Z</time></trkpt><trkpt lat="44.81702102853789" lon="13.896304579716134"><ele>1.0</ele><time>2026-04-12T08:22:42.928Z</time></trkpt><trkpt lat="44.817055486822284" lon="13.89612975868429"><ele>1.0</ele><time>2026-04-12T08:22:43.928Z</time></trkpt><trkpt lat="44.817095233786134" lon="13.89596209641211"><ele>1.0</ele><time>2026-04-12T08:22:44.928Z</time></trkpt><trkpt lat="44.817124684431676" lon="13.895787705911722"><ele>1.0</ele><time>2026-04-12T08:22:45.928Z</time></trkpt><trkpt lat="44.81714865327496" lon="13.895603161798103"><ele>1.0</ele><time>2026-04-12T08:22:46.928Z</time></trkpt><trkpt lat="44.81716253517649" lon="13.895410731094572"><ele>0.75</ele><time>2026-04-12T08:22:47.928Z</time></trkpt><trkpt lat="44.81715765772332" lon="13.895219053735895"><ele>0.5</ele><time>2026-04-12T08:22:48.927Z</time></trkpt><trkpt lat="44.817154227864194" lon="13.895030395306017"><ele>0.25</ele><time>2026-04-12T08:22:49.927Z</time></trkpt><trkpt lat="44.81710233708976" lon="13.894855067943125"><ele>0.0</ele><time>2026-04-12T08:22:50.927Z</time></trkpt><trkpt lat="44.81704760847142" lon="13.894682634302598"><ele>0.0</ele><time>2026-04-12T08:22:51.927Z</time></trkpt><trkpt lat="44.8169751347813" lon="13.894507152075539"><ele>0.0</ele><time>2026-04-12T08:22:52.927Z</time></trkpt><trkpt lat="44.8168919801173" lon="13.894336464040677"><ele>0.0</ele><time>2026-04-12T08:22:53.927Z</time></trkpt><trkpt lat="44.81680100394393" lon="13.894175052761057"><ele>0.0</ele><time>2026-04-12T08:22:54.927Z</time></trkpt><trkpt lat="44.81670923154699" lon="13.89400607002762"><ele>0.25</ele><time>2026-04-12T08:22:55.927Z</time></trkpt><trkpt lat="44.81661362210984" lon="13.893844738407706"><ele>0.5</ele><time>2026-04-12T08:22:56.927Z</time></trkpt><trkpt lat="44.816518447051166" lon="13.893690631104004"><ele>0.75</ele><time>2026-04-12T08:22:57.927Z</time></trkpt><trkpt lat="44.81642298155199" lon="13.893529041563948"><ele>1.0</ele><time>2026-04-12T08:22:58.927Z</time></trkpt><trkpt lat="44.81633267365553" lon="13.893363979362901"><ele>1.0</ele><time>2026-04-12T08:22:59.927Z</time></trkpt><trkpt lat="44.816245388624274" lon="13.89319518809368"><ele>1.0</ele><time>2026-04-12T08:23:00.927Z</time></trkpt><trkpt lat="44.81615925162803" lon="13.893020116813954"><ele>1.0</ele><time>2026-04-12T08:23:01.927Z</time></trkpt><trkpt lat="44.81608010263922" lon="13.892841463827777"><ele>1.0</ele><time>2026-04-12T08:23:02.927Z</time></trkpt><trkpt lat="44.81600978010951" lon="13.892660970493258"><ele>2.0</ele><time>2026-04-12T08:23:03.927Z</time></trkpt><trkpt lat="44.81595670914776" lon="13.892462067161587"><ele>3.0</ele><time>2026-04-12T08:23:04.927Z</time></trkpt><trkpt lat="44.81593856496842" lon="13.892248351652482"><ele>4.0</ele><time>2026-04-12T08:23:05.927Z</time></trkpt><trkpt lat="44.815981793469575" lon="13.89204182553185"><ele>3.0</ele><time>2026-04-12T08:23:06.927Z</time></trkpt><trkpt lat="44.81603746017303" lon="13.891830111416484"><ele>2.0</ele><time>2026-04-12T08:23:07.927Z</time></trkpt><trkpt lat="44.81610631886101" lon="13.891624789087267"><ele>1.0</ele><time>2026-04-12T08:23:08.927Z</time></trkpt><trkpt lat="44.8161765304444" lon="13.891412278130744"><ele>1.0</ele><time>2026-04-12T08:23:09.927Z</time></trkpt><trkpt lat="44.81623466635051" lon="13.891188700578645"><ele>1.0</ele><time>2026-04-12T08:23:10.927Z</time></trkpt><trkpt lat="44.81630607953232" lon="13.890956263207062"><ele>1.0</ele><time>2026-04-12T08:23:11.927Z</time></trkpt><trkpt lat="44.816373784331645" lon="13.890717157603063"><ele>1.6666666666666665</ele><time>2026-04-12T08:23:12.927Z</time></trkpt><trkpt lat="44.816424819410244" lon="13.8904530724857"><ele>2.3333333333333335</ele><time>2026-04-12T08:23:13.927Z</time></trkpt><trkpt lat="44.816464924812394" lon="13.890176348584744"><ele>3.0</ele><time>2026-04-12T08:23:14.927Z</time></trkpt><trkpt lat="44.81652069021068" lon="13.889919987596102"><ele>3.666666666666667</ele><time>2026-04-12T08:23:15.927Z</time></trkpt><trkpt lat="44.81657352211978" lon="13.889674087318411"><ele>4.333333333333334</ele><time>2026-04-12T08:23:16.927Z</time></trkpt><trkpt lat="44.816622762845064" lon="13.889436247196096"><ele>5.0</ele><time>2026-04-12T08:23:17.927Z</time></trkpt><trkpt lat="44.81666324302936" lon="13.889203437164518"><ele>5.333333333333334</ele><time>2026-04-12T08:23:18.927Z</time></trkpt><trkpt lat="44.81670900264017" lon="13.888963666745624"><ele>5.666666666666667</ele><time>2026-04-12T08:23:19.927Z</time></trkpt><trkpt lat="44.8167589826004" lon="13.888733351828247"><ele>6.0</ele><time>2026-04-12T08:23:20.927Z</time></trkpt><trkpt lat="44.81680504609336" lon="13.888511196232159"><ele>4.0</ele><time>2026-04-12T08:23:21.927Z</time></trkpt><trkpt lat="44.81685878201294" lon="13.888288139489402"><ele>2.0</ele><time>2026-04-12T08:23:22.927Z</time></trkpt><trkpt lat="44.81692349823987" lon="13.8880705172233"><ele>0.0</ele><time>2026-04-12T08:23:23.927Z</time></trkpt><trkpt lat="44.81699923891096" lon="13.887865602119865"><ele>0.0</ele><time>2026-04-12T08:23:24.927Z</time></trkpt><trkpt lat="44.81708397559811" lon="13.887669604174574"><ele>0.0</ele><time>2026-04-12T08:23:25.927Z</time></trkpt><trkpt lat="44.81718299937396" lon="13.887480379019125"><ele>0.0</ele><time>2026-04-12T08:23:26.927Z</time></trkpt><trkpt lat="44.81728959488127" lon="13.887294355532207"><ele>1.3333333333333333</ele><time>2026-04-12T08:23:27.927Z</time></trkpt><trkpt lat="44.81739577568028" lon="13.887110166171107"><ele>2.6666666666666665</ele><time>2026-04-12T08:23:28.927Z</time></trkpt><trkpt lat="44.817515791942384" lon="13.886929401154292"><ele>4.0</ele><time>2026-04-12T08:23:29.927Z</time></trkpt><trkpt lat="44.81763861025635" lon="13.886740755529916"><ele>4.333333333333333</ele><time>2026-04-12T08:23:30.927Z</time></trkpt><trkpt lat="44.81774944438397" lon="13.886551977714909"><ele>4.666666666666667</ele><time>2026-04-12T08:23:31.927Z</time></trkpt><trkpt lat="44.81786380247809" lon="13.886359322822418"><ele>5.0</ele><time>2026-04-12T08:23:32.927Z</time></trkpt><trkpt lat="44.817981700913606" lon="13.886168491541993"><ele>5.0</ele><time>2026-04-12T08:23:33.927Z</time></trkpt><trkpt lat="44.818095656181264" lon="13.8859747967875"><ele>5.0</ele><time>2026-04-12T08:23:34.927Z</time></trkpt><trkpt lat="44.818208198530684" lon="13.885773425181895"><ele>5.0</ele><time>2026-04-12T08:23:35.927Z</time></trkpt><trkpt lat="44.81832680002551" lon="13.8855930870337"><ele>5.666666666666667</ele><time>2026-04-12T08:23:36.927Z</time></trkpt><trkpt lat="44.818439926810015" lon="13.885417961587413"><ele>6.333333333333334</ele><time>2026-04-12T08:23:37.927Z</time></trkpt><trkpt lat="44.818549802844586" lon="13.885245446934698"><ele>7.0</ele><time>2026-04-12T08:23:38.927Z</time></trkpt><trkpt lat="44.81866475608277" lon="13.885062346957366"><ele>7.0</ele><time>2026-04-12T08:23:39.927Z</time></trkpt><trkpt lat="44.81877528905695" lon="13.88488430599041"><ele>7.0</ele><time>2026-04-12T08:23:40.927Z</time></trkpt><trkpt lat="44.81888638002602" lon="13.88471495887877"><ele>7.0</ele><time>2026-04-12T08:23:41.927Z</time></trkpt><trkpt lat="44.8189972379504" lon="13.88453512497399"><ele>7.0</ele><time>2026-04-12T08:23:42.927Z</time></trkpt><trkpt lat="44.81910307472811" lon="13.88436355846306"><ele>7.0</ele><time>2026-04-12T08:23:43.927Z</time></trkpt><trkpt lat="44.81920892783177" lon="13.884180336260695"><ele>7.0</ele><time>2026-04-12T08:23:44.926Z</time></trkpt><trkpt lat="44.81931497189592" lon="13.883998139778459"><ele>5.0</ele><time>2026-04-12T08:23:45.926Z</time></trkpt><trkpt lat="44.81942146739686" lon="13.883819497447632"><ele>3.0</ele><time>2026-04-12T08:23:46.926Z</time></trkpt><trkpt lat="44.819528964282206" lon="13.88363883609267"><ele>1.0</ele><time>2026-04-12T08:23:47.926Z</time></trkpt><trkpt lat="44.81964126403279" lon="13.883453670361053"><ele>2.3333333333333335</ele><time>2026-04-12T08:23:48.926Z</time></trkpt><trkpt lat="44.81974760939849" lon="13.883280726859041"><ele>3.666666666666667</ele><time>2026-04-12T08:23:49.926Z</time></trkpt><trkpt lat="44.81985174264644" lon="13.883106344050953"><ele>5.0</ele><time>2026-04-12T08:23:50.926Z</time></trkpt><trkpt lat="44.81995382830794" lon="13.882944099970668"><ele>5.0</ele><time>2026-04-12T08:23:51.926Z</time></trkpt><trkpt lat="44.82004546254571" lon="13.88278046672685"><ele>5.0</ele><time>2026-04-12T08:23:52.926Z</time></trkpt><trkpt lat="44.82013456793314" lon="13.882626356783764"><ele>5.0</ele><time>2026-04-12T08:23:53.926Z</time></trkpt><trkpt lat="44.82022302114603" lon="13.882482706677623"><ele>5.0</ele><time>2026-04-12T08:23:54.926Z</time></trkpt><trkpt lat="44.82030508194715" lon="13.88235367383341"><ele>4.25</ele><time>2026-04-12T08:23:55.926Z</time></trkpt><trkpt lat="44.82038166712838" lon="13.882224144393446"><ele>3.5</ele><time>2026-04-12T08:23:56.926Z</time></trkpt><trkpt lat="44.820456440245394" lon="13.882112985062824"><ele>2.75</ele><time>2026-04-12T08:23:57.926Z</time></trkpt><trkpt lat="44.820528421207825" lon="13.881996540009922"><ele>2.0</ele><time>2026-04-12T08:23:58.926Z</time></trkpt><trkpt lat="44.820600422615925" lon="13.881873393292949"><ele>2.5</ele><time>2026-04-12T08:23:59.926Z</time></trkpt><trkpt lat="44.82068488249224" lon="13.881760869201642"><ele>3.0</ele><time>2026-04-12T08:24:00.926Z</time></trkpt><trkpt lat="44.82077603472247" lon="13.881646674081278"><ele>3.5</ele><time>2026-04-12T08:24:01.926Z</time></trkpt><trkpt lat="44.82087212384072" lon="13.881533760958105"><ele>4.0</ele><time>2026-04-12T08:24:02.926Z</time></trkpt><trkpt lat="44.82097982260738" lon="13.881426897716581"><ele>3.75</ele><time>2026-04-12T08:24:03.925Z</time></trkpt><trkpt lat="44.821090465018806" lon="13.881317772313002"><ele>3.5</ele><time>2026-04-12T08:24:04.926Z</time></trkpt><trkpt lat="44.8212044785354" lon="13.881197619611244"><ele>3.25</ele><time>2026-04-12T08:24:05.926Z</time></trkpt><trkpt lat="44.82132206155497" lon="13.881084169974125"><ele>3.0</ele><time>2026-04-12T08:24:06.925Z</time></trkpt><trkpt lat="44.82144358191484" lon="13.880962401824538"><ele>4.333333333333334</ele><time>2026-04-12T08:24:07.925Z</time></trkpt><trkpt lat="44.82157007519816" lon="13.880839100870041"><ele>5.666666666666667</ele><time>2026-04-12T08:24:08.925Z</time></trkpt><trkpt lat="44.82169815624656" lon="13.880713369019528"><ele>7.0</ele><time>2026-04-12T08:24:09.925Z</time></trkpt><trkpt lat="44.82182885713878" lon="13.880578097473053"><ele>10.0</ele><time>2026-04-12T08:24:10.925Z</time></trkpt><trkpt lat="44.82196407640557" lon="13.88043842706128"><ele>13.0</ele><time>2026-04-12T08:24:11.925Z</time></trkpt><trkpt lat="44.8221046097097" lon="13.88030367778572"><ele>16.0</ele><time>2026-04-12T08:24:12.925Z</time></trkpt><trkpt lat="44.82224507572686" lon="13.880163063404286"><ele>15.5</ele><time>2026-04-12T08:24:13.925Z</time></trkpt><trkpt lat="44.82238526728236" lon="13.880018209398155"><ele>15.0</ele><time>2026-04-12T08:24:14.925Z</time></trkpt><trkpt lat="44.822663793275765" lon="13.879751318683518"><ele>17.0</ele><time>2026-04-12T08:24:16.925Z</time></trkpt><trkpt lat="44.82278845734568" lon="13.879622386287204"><ele>19.0</ele><time>2026-04-12T08:24:17.925Z</time></trkpt><trkpt lat="44.8229249984149" lon="13.879528558842004"><ele>21.0</ele><time>2026-04-12T08:24:18.925Z</time></trkpt><trkpt lat="44.82304993844638" lon="13.879430638157308"><ele>23.0</ele><time>2026-04-12T08:24:19.925Z</time></trkpt><trkpt lat="44.82317480137876" lon="13.879352006002824"><ele>23.0</ele><time>2026-04-12T08:24:20.925Z</time></trkpt><trkpt lat="44.82331117522224" lon="13.879282344617971"><ele>23.0</ele><time>2026-04-12T08:24:21.925Z</time></trkpt><trkpt lat="44.823455235297935" lon="13.879233347817257"><ele>23.0</ele><time>2026-04-12T08:24:22.925Z</time></trkpt><trkpt lat="44.8236023511594" lon="13.879178647664935"><ele>23.0</ele><time>2026-04-12T08:24:23.925Z</time></trkpt><trkpt lat="44.82374984023468" lon="13.879111267715734"><ele>20.666666666666668</ele><time>2026-04-12T08:24:24.925Z</time></trkpt><trkpt lat="44.823899348084595" lon="13.879041400499005"><ele>18.333333333333332</ele><time>2026-04-12T08:24:25.925Z</time></trkpt><trkpt lat="44.82404495518748" lon="13.878972980751989"><ele>16.0</ele><time>2026-04-12T08:24:26.925Z</time></trkpt><trkpt lat="44.824192422219205" lon="13.87890706522271"><ele>16.0</ele><time>2026-04-12T08:24:27.925Z</time></trkpt><trkpt lat="44.8243385602269" lon="13.878846594686637"><ele>16.0</ele><time>2026-04-12T08:24:28.924Z</time></trkpt><trkpt lat="44.824482079973095" lon="13.878789335895355"><ele>16.0</ele><time>2026-04-12T08:24:29.924Z</time></trkpt><trkpt lat="44.82462062784054" lon="13.878745202372727"><ele>16.0</ele><time>2026-04-12T08:24:30.924Z</time></trkpt><trkpt lat="44.8247561195589" lon="13.878713201049422"><ele>16.0</ele><time>2026-04-12T08:24:31.924Z</time></trkpt><trkpt lat="44.824878478870225" lon="13.878713195982703"><ele>16.0</ele><time>2026-04-12T08:24:32.924Z</time></trkpt><trkpt lat="44.824990283001505" lon="13.878731278619641"><ele>16.0</ele><time>2026-04-12T08:24:33.924Z</time></trkpt><trkpt lat="44.82507234538247" lon="13.878748758765063"><ele>16.0</ele><time>2026-04-12T08:24:34.924Z</time></trkpt><trkpt lat="44.82519043550894" lon="13.878799606537045"><ele>16.0</ele><time>2026-04-12T08:24:36.924Z</time></trkpt><trkpt lat="44.825297896096636" lon="13.87884587452125"><ele>16.166666666666664</ele><time>2026-04-12T08:24:38.924Z</time></trkpt><trkpt lat="44.82536412143948" lon="13.878870648876434"><ele>16.333333333333332</ele><time>2026-04-12T08:24:39.924Z</time></trkpt><trkpt lat="44.825433546981394" lon="13.878896874518112"><ele>16.5</ele><time>2026-04-12T08:24:40.924Z</time></trkpt><trkpt lat="44.825507132926994" lon="13.878929365494924"><ele>16.666666666666668</ele><time>2026-04-12T08:24:41.924Z</time></trkpt><trkpt lat="44.825583981445945" lon="13.878974902681126"><ele>16.833333333333336</ele><time>2026-04-12T08:24:42.924Z</time></trkpt><trkpt lat="44.82565237267138" lon="13.879049961964501"><ele>17.0</ele><time>2026-04-12T08:24:43.924Z</time></trkpt><trkpt lat="44.82571150827336" lon="13.879124890929804"><ele>17.0</ele><time>2026-04-12T08:24:44.924Z</time></trkpt><trkpt lat="44.82578758226882" lon="13.879153092207813"><ele>17.0</ele><time>2026-04-12T08:24:45.924Z</time></trkpt><trkpt lat="44.825860623266664" lon="13.87913734326643"><ele>17.0</ele><time>2026-04-12T08:24:46.924Z</time></trkpt><trkpt lat="44.82593847439002" lon="13.879076934160418"><ele>17.0</ele><time>2026-04-12T08:24:47.924Z</time></trkpt><trkpt lat="44.82602732268906" lon="13.879070606791476"><ele>17.0</ele><time>2026-04-12T08:24:48.924Z</time></trkpt><trkpt lat="44.82612324501746" lon="13.879091691145245"><ele>17.0</ele><time>2026-04-12T08:24:49.924Z</time></trkpt><trkpt lat="44.826244357885344" lon="13.879138389988183"><ele>17.0</ele><time>2026-04-12T08:24:50.924Z</time></trkpt><trkpt lat="44.82637506217108" lon="13.87917751848806"><ele>17.0</ele><time>2026-04-12T08:24:51.924Z</time></trkpt><trkpt lat="44.826480947242395" lon="13.879204391206617"><ele>17.0</ele><time>2026-04-12T08:24:52.924Z</time></trkpt><trkpt lat="44.8265585880622" lon="13.87923271621001"><ele>17.0</ele><time>2026-04-12T08:24:53.924Z</time></trkpt><trkpt lat="44.82663177567315" lon="13.879261251176986"><ele>17.0</ele><time>2026-04-12T08:24:54.924Z</time></trkpt><trkpt lat="44.82670311042347" lon="13.879296427567825"><ele>16.8</ele><time>2026-04-12T08:24:55.924Z</time></trkpt><trkpt lat="44.82677906490749" lon="13.879329521025058"><ele>16.6</ele><time>2026-04-12T08:24:56.924Z</time></trkpt><trkpt lat="44.82686253578518" lon="13.879357960523725"><ele>16.400000000000002</ele><time>2026-04-12T08:24:57.924Z</time></trkpt><trkpt lat="44.82695265675914" lon="13.879389901583558"><ele>16.2</ele><time>2026-04-12T08:24:58.924Z</time></trkpt><trkpt lat="44.82705593881826" lon="13.879421748792266"><ele>16.0</ele><time>2026-04-12T08:24:59.924Z</time></trkpt><trkpt lat="44.827151630486995" lon="13.879442000529519"><ele>15.8</ele><time>2026-04-12T08:25:00.924Z</time></trkpt><trkpt lat="44.82722664596153" lon="13.879447667888773"><ele>15.600000000000001</ele><time>2026-04-12T08:25:01.924Z</time></trkpt><trkpt lat="44.8273048028271" lon="13.879473710739685"><ele>15.4</ele><time>2026-04-12T08:25:03.924Z</time></trkpt><trkpt lat="44.827367948743984" lon="13.879290154481609"><ele>15.2</ele><time>2026-04-12T08:25:06.924Z</time></trkpt><trkpt lat="44.82738694227325" lon="13.879203753091643"><ele>15.0</ele><time>2026-04-12T08:25:10.924Z</time></trkpt><trkpt lat="44.82724762923186" lon="13.879132333329558"><ele>15.285714285714286</ele><time>2026-04-12T08:25:11.924Z</time></trkpt><trkpt lat="44.82718439035095" lon="13.879129852787798"><ele>15.57142857142857</ele><time>2026-04-12T08:25:12.924Z</time></trkpt><trkpt lat="44.82707215108339" lon="13.879081109501833"><ele>15.857142857142856</ele><time>2026-04-12T08:25:14.924Z</time></trkpt><trkpt lat="44.827006998746825" lon="13.879058015811328"><ele>16.142857142857142</ele><time>2026-04-12T08:25:15.924Z</time></trkpt><trkpt lat="44.82694154349322" lon="13.879047416379931"><ele>16.428571428571427</ele><time>2026-04-12T08:25:16.924Z</time></trkpt><trkpt lat="44.82688192504699" lon="13.879002881585878"><ele>16.71428571428571</ele><time>2026-04-12T08:25:17.924Z</time></trkpt><trkpt lat="44.82681882966652" lon="13.878990807918562"><ele>17.0</ele><time>2026-04-12T08:25:18.924Z</time></trkpt><trkpt lat="44.826757926636674" lon="13.878952560418137"><ele>17.0</ele><time>2026-04-12T08:25:19.924Z</time></trkpt><trkpt lat="44.82664922745736" lon="13.87890645377475"><ele>17.0</ele><time>2026-04-12T08:25:21.924Z</time></trkpt><trkpt lat="44.826648377319984" lon="13.87878507743437"><ele>17.0</ele><time>2026-04-12T08:25:24.923Z</time></trkpt><trkpt lat="44.826690287216266" lon="13.878602607747048"><ele>17.0</ele><time>2026-04-12T08:25:26.923Z</time></trkpt><trkpt lat="44.82672678170204" lon="13.878453399237895"><ele>17.0</ele><time>2026-04-12T08:25:28.923Z</time></trkpt><trkpt lat="44.82677831349787" lon="13.878387177939734"><ele>17.2</ele><time>2026-04-12T08:25:30.923Z</time></trkpt><trkpt lat="44.826887263164465" lon="13.878417836837686"><ele>17.4</ele><time>2026-04-12T08:25:32.923Z</time></trkpt><trkpt lat="44.82695034186955" lon="13.878447419817267"><ele>17.6</ele><time>2026-04-12T08:25:33.923Z</time></trkpt><trkpt lat="44.82703802423734" lon="13.878476002030268"><ele>17.8</ele><time>2026-04-12T08:25:34.923Z</time></trkpt><trkpt lat="44.82714844059275" lon="13.87850203739209"><ele>18.0</ele><time>2026-04-12T08:25:35.923Z</time></trkpt><trkpt lat="44.8272554746806" lon="13.878517877601185"><ele>18.0</ele><time>2026-04-12T08:25:36.923Z</time></trkpt><trkpt lat="44.82734557692206" lon="13.878542828890215"><ele>18.0</ele><time>2026-04-12T08:25:37.923Z</time></trkpt><trkpt lat="44.82743850292895" lon="13.878564802375374"><ele>18.0</ele><time>2026-04-12T08:25:38.923Z</time></trkpt><trkpt lat="44.82751943435727" lon="13.878584057979525"><ele>18.0</ele><time>2026-04-12T08:25:39.923Z</time></trkpt><trkpt lat="44.82758985197461" lon="13.878596688912037"><ele>18.0</ele><time>2026-04-12T08:25:40.923Z</time></trkpt><trkpt lat="44.82769885084299" lon="13.878584620874195"><ele>18.0</ele><time>2026-04-12T08:25:42.923Z</time></trkpt><trkpt lat="44.82779627804938" lon="13.878489695786584"><ele>18.5</ele><time>2026-04-12T08:25:44.923Z</time></trkpt><trkpt lat="44.8279065407469" lon="13.878364361637253"><ele>19.0</ele><time>2026-04-12T08:25:46.923Z</time></trkpt><trkpt lat="44.82798516711739" lon="13.878267542575555"><ele>19.5</ele><time>2026-04-12T08:25:47.923Z</time></trkpt><trkpt lat="44.82807053348314" lon="13.878148276127456"><ele>20.0</ele><time>2026-04-12T08:25:48.923Z</time></trkpt><trkpt lat="44.82814254549756" lon="13.878046676818098"><ele>20.0</ele><time>2026-04-12T08:25:49.923Z</time></trkpt><trkpt lat="44.82820566831222" lon="13.877948188726391"><ele>20.0</ele><time>2026-04-12T08:25:50.923Z</time></trkpt><trkpt lat="44.828262229086604" lon="13.87784096459079"><ele>20.0</ele><time>2026-04-12T08:25:51.923Z</time></trkpt><trkpt lat="44.828314450319205" lon="13.877721879788592"><ele>20.0</ele><time>2026-04-12T08:25:52.923Z</time></trkpt><trkpt lat="44.82835205457995" lon="13.877579712557507"><ele>20.0</ele><time>2026-04-12T08:25:53.923Z</time></trkpt><trkpt lat="44.828378842058804" lon="13.877416642490752"><ele>20.75</ele><time>2026-04-12T08:25:54.923Z</time></trkpt><trkpt lat="44.82840213704104" lon="13.877247979354504"><ele>21.5</ele><time>2026-04-12T08:25:55.923Z</time></trkpt><trkpt lat="44.82841729966042" lon="13.877068764828955"><ele>22.25</ele><time>2026-04-12T08:25:56.923Z</time></trkpt><trkpt lat="44.82842855729324" lon="13.876896370064385"><ele>23.0</ele><time>2026-04-12T08:25:57.923Z</time></trkpt><trkpt lat="44.828428941675924" lon="13.876742187542712"><ele>22.799999999999997</ele><time>2026-04-12T08:25:58.923Z</time></trkpt><trkpt lat="44.82842568884482" lon="13.87661453528041"><ele>22.6</ele><time>2026-04-12T08:25:59.923Z</time></trkpt><trkpt lat="44.82843612813291" lon="13.876471629722406"><ele>22.4</ele><time>2026-04-12T08:26:01.923Z</time></trkpt><trkpt lat="44.82845872122775" lon="13.876329481518438"><ele>22.200000000000003</ele><time>2026-04-12T08:26:03.923Z</time></trkpt><trkpt lat="44.82848204465509" lon="13.876182635894457"><ele>22.0</ele><time>2026-04-12T08:26:05.923Z</time></trkpt><trkpt lat="44.82851628475365" lon="13.876032416876022"><ele>21.8</ele><time>2026-04-12T08:26:07.923Z</time></trkpt><trkpt lat="44.82855617180197" lon="13.875887126935458"><ele>21.6</ele><time>2026-04-12T08:26:09.922Z</time></trkpt><trkpt lat="44.82861593763597" lon="13.87572202080025"><ele>21.400000000000002</ele><time>2026-04-12T08:26:11.922Z</time></trkpt><trkpt lat="44.82866050998493" lon="13.875643164283856"><ele>21.200000000000003</ele><time>2026-04-12T08:26:12.922Z</time></trkpt><trkpt lat="44.828719633510936" lon="13.875572640942691"><ele>21.0</ele><time>2026-04-12T08:26:13.922Z</time></trkpt><trkpt lat="44.82878346356591" lon="13.875503766413571"><ele>21.0</ele><time>2026-04-12T08:26:14.922Z</time></trkpt><trkpt lat="44.82884106736363" lon="13.875429410121063"><ele>21.0</ele><time>2026-04-12T08:26:15.921Z</time></trkpt><trkpt lat="44.828897089946906" lon="13.875351503631604"><ele>21.0</ele><time>2026-04-12T08:26:16.921Z</time></trkpt><trkpt lat="44.82895713017584" lon="13.875263274515245"><ele>21.0</ele><time>2026-04-12T08:26:17.921Z</time></trkpt><trkpt lat="44.82899967055293" lon="13.87516972700773"><ele>21.0</ele><time>2026-04-12T08:26:18.922Z</time></trkpt><trkpt lat="44.82907856151094" lon="13.87505855977595"><ele>21.0</ele><time>2026-04-12T08:26:20.921Z</time></trkpt><trkpt lat="44.82915800046478" lon="13.875079257170343"><ele>21.0</ele><time>2026-04-12T08:26:23.922Z</time></trkpt><trkpt lat="44.8292236985534" lon="13.875131732459394"><ele>21.0</ele><time>2026-04-12T08:26:26.922Z</time></trkpt><trkpt lat="44.82930799629732" lon="13.875159963597405"><ele>21.0</ele><time>2026-04-12T08:26:29.922Z</time></trkpt><trkpt lat="44.829394541654956" lon="13.875171532242051"><ele>21.0</ele><time>2026-04-12T08:26:31.922Z</time></trkpt><trkpt lat="44.82947518443037" lon="13.875200884616193"><ele>21.0</ele><time>2026-04-12T08:26:33.922Z</time></trkpt><trkpt lat="44.829544528705085" lon="13.875244355016838"><ele>21.0</ele><time>2026-04-12T08:26:36.922Z</time></trkpt><trkpt lat="44.82961740401846" lon="13.875198210850668"><ele>20.833333333333332</ele><time>2026-04-12T08:26:39.922Z</time></trkpt><trkpt lat="44.82966344552269" lon="13.875113347331967"><ele>20.666666666666668</ele><time>2026-04-12T08:26:41.922Z</time></trkpt><trkpt lat="44.829692655645374" lon="13.875018101798524"><ele>20.5</ele><time>2026-04-12T08:26:45.921Z</time></trkpt><trkpt lat="44.829718424926355" lon="13.874924249328867"><ele>20.333333333333336</ele><time>2026-04-12T08:26:47.921Z</time></trkpt><trkpt lat="44.82973818534027" lon="13.874805967908076"><ele>20.166666666666668</ele><time>2026-04-12T08:26:49.921Z</time></trkpt><trkpt lat="44.829761582848455" lon="13.874667363454282"><ele>20.0</ele><time>2026-04-12T08:26:51.921Z</time></trkpt><trkpt lat="44.829791240558485" lon="13.874562959144264"><ele>19.666666666666668</ele><time>2026-04-12T08:26:53.921Z</time></trkpt><trkpt lat="44.8298378366088" lon="13.874491055846063"><ele>19.333333333333336</ele><time>2026-04-12T08:26:56.921Z</time></trkpt><trkpt lat="44.829884630018576" lon="13.874409837253243"><ele>19.0</ele><time>2026-04-12T08:27:10.921Z</time></trkpt><trkpt lat="44.829821390269004" lon="13.874374898114064"><ele>18.666666666666668</ele><time>2026-04-12T08:27:13.921Z</time></trkpt><trkpt lat="44.82981600215861" lon="13.874483220747669"><ele>18.333333333333332</ele><time>2026-04-12T08:27:16.921Z</time></trkpt><trkpt lat="44.82978080743315" lon="13.874612618408257"><ele>18.0</ele><time>2026-04-12T08:27:18.921Z</time></trkpt><trkpt lat="44.82975909084797" lon="13.87471050199231"><ele>18.0</ele><time>2026-04-12T08:27:19.921Z</time></trkpt><trkpt lat="44.82974168541562" lon="13.874798237543098"><ele>18.0</ele><time>2026-04-12T08:27:20.921Z</time></trkpt><trkpt lat="44.82972768844409" lon="13.8749060518953"><ele>18.0</ele><time>2026-04-12T08:27:21.921Z</time></trkpt><trkpt lat="44.82968944724871" lon="13.875065670505274"><ele>18.0</ele><time>2026-04-12T08:27:23.921Z</time></trkpt><trkpt lat="44.829642313109524" lon="13.875170595244121"><ele>18.0</ele><time>2026-04-12T08:27:25.921Z</time></trkpt><trkpt lat="44.82964448265469" lon="13.87528534607961"><ele>18.0</ele><time>2026-04-12T08:27:29.921Z</time></trkpt><trkpt lat="44.82972214876313" lon="13.8753481314694"><ele>18.0</ele><time>2026-04-12T08:27:31.921Z</time></trkpt><trkpt lat="44.82978126805019" lon="13.875382155657114"><ele>18.0</ele><time>2026-04-12T08:27:32.921Z</time></trkpt><trkpt lat="44.829893793035474" lon="13.875447808351263"><ele>18.0</ele><time>2026-04-12T08:27:34.921Z</time></trkpt><trkpt lat="44.82998897878294" lon="13.87550464403224"><ele>18.0</ele><time>2026-04-12T08:27:36.921Z</time></trkpt><trkpt lat="44.83008430177653" lon="13.875577091373374"><ele>18.0</ele><time>2026-04-12T08:27:38.921Z</time></trkpt><trkpt lat="44.8301946242851" lon="13.875680025104174"><ele>18.0</ele><time>2026-04-12T08:27:40.92Z</time></trkpt><trkpt lat="44.83026635331238" lon="13.87574406601146"><ele>18.0</ele><time>2026-04-12T08:27:41.92Z</time></trkpt><trkpt lat="44.830339247813235" lon="13.875808597257489"><ele>18.0</ele><time>2026-04-12T08:27:42.92Z</time></trkpt><trkpt lat="44.830411500620414" lon="13.875868293499156"><ele>18.0</ele><time>2026-04-12T08:27:43.92Z</time></trkpt><trkpt lat="44.830474492287486" lon="13.875916596805432"><ele>18.0</ele><time>2026-04-12T08:27:44.92Z</time></trkpt><trkpt lat="44.83053621986186" lon="13.875967689891276"><ele>18.0</ele><time>2026-04-12T08:27:45.92Z</time></trkpt><trkpt lat="44.83059700514559" lon="13.876013108055329"><ele>18.0</ele><time>2026-04-12T08:27:46.92Z</time></trkpt><trkpt lat="44.830711285107604" lon="13.87609409955581"><ele>18.0</ele><time>2026-04-12T08:27:48.92Z</time></trkpt><trkpt lat="44.83080972182856" lon="13.876155323080829"><ele>18.0</ele><time>2026-04-12T08:27:50.92Z</time></trkpt><trkpt lat="44.830898934308316" lon="13.876128659461461"><ele>18.0</ele><time>2026-04-12T08:27:52.92Z</time></trkpt><trkpt lat="44.83092997696242" lon="13.87601482936597"><ele>18.0</ele><time>2026-04-12T08:27:54.92Z</time></trkpt><trkpt lat="44.83096074469605" lon="13.875839200371367"><ele>17.833333333333332</ele><time>2026-04-12T08:27:56.92Z</time></trkpt><trkpt lat="44.830984965616736" lon="13.875734964065849"><ele>17.666666666666668</ele><time>2026-04-12T08:27:57.92Z</time></trkpt><trkpt lat="44.831011258914025" lon="13.875618712010139"><ele>17.5</ele><time>2026-04-12T08:27:58.92Z</time></trkpt><trkpt lat="44.831031021094084" lon="13.875508194957629"><ele>17.333333333333336</ele><time>2026-04-12T08:27:59.92Z</time></trkpt><trkpt lat="44.83104567406636" lon="13.875399138708902"><ele>17.166666666666668</ele><time>2026-04-12T08:28:00.92Z</time></trkpt><trkpt lat="44.83106347309126" lon="13.875284440578046"><ele>17.0</ele><time>2026-04-12T08:28:01.92Z</time></trkpt><trkpt lat="44.83107965900912" lon="13.875188390932543"><ele>17.0</ele><time>2026-04-12T08:28:02.92Z</time></trkpt><trkpt lat="44.83109519675862" lon="13.875082556674842"><ele>17.0</ele><time>2026-04-12T08:28:03.92Z</time></trkpt><trkpt lat="44.83111087981103" lon="13.8749835088579"><ele>17.0</ele><time>2026-04-12T08:28:04.92Z</time></trkpt><trkpt lat="44.83112445674185" lon="13.874893746349462"><ele>17.0</ele><time>2026-04-12T08:28:05.92Z</time></trkpt><trkpt lat="44.83114723339821" lon="13.874739065468463"><ele>17.0</ele><time>2026-04-12T08:28:07.92Z</time></trkpt><trkpt lat="44.83117304218002" lon="13.8746025856539"><ele>17.0</ele><time>2026-04-12T08:28:09.92Z</time></trkpt><trkpt lat="44.831217436171656" lon="13.874471941640028"><ele>17.0</ele><time>2026-04-12T08:28:11.92Z</time></trkpt><trkpt lat="44.83125957604441" lon="13.874364929667202"><ele>17.0</ele><time>2026-04-12T08:28:13.92Z</time></trkpt><trkpt lat="44.83128670053481" lon="13.874247915688596"><ele>17.0</ele><time>2026-04-12T08:28:16.918Z</time></trkpt><trkpt lat="44.83128925400872" lon="13.874156836010885"><ele>17.0</ele><time>2026-04-12T08:28:18.919Z</time></trkpt><trkpt lat="44.83129673240975" lon="13.874061840768563"><ele>17.0</ele><time>2026-04-12T08:28:20.918Z</time></trkpt><trkpt lat="44.831286721139705" lon="13.873911892879487"><ele>17.0</ele><time>2026-04-12T08:28:22.918Z</time></trkpt><trkpt lat="44.83127748006878" lon="13.873766729987848"><ele>17.2</ele><time>2026-04-12T08:28:24.918Z</time></trkpt><trkpt lat="44.83125926183446" lon="13.873615211869986"><ele>17.4</ele><time>2026-04-12T08:28:26.918Z</time></trkpt><trkpt lat="44.831249012647135" lon="13.87349575007027"><ele>17.6</ele><time>2026-04-12T08:28:28.918Z</time></trkpt><trkpt lat="44.83126523722806" lon="13.873363709858747"><ele>17.8</ele><time>2026-04-12T08:28:31.918Z</time></trkpt><trkpt lat="44.83130960438058" lon="13.873277878719904"><ele>18.0</ele><time>2026-04-12T08:28:33.918Z</time></trkpt><trkpt lat="44.831397852089665" lon="13.873214981371058"><ele>18.333333333333332</ele><time>2026-04-12T08:28:35.918Z</time></trkpt><trkpt lat="44.831497186127116" lon="13.873209905381769"><ele>18.666666666666668</ele><time>2026-04-12T08:28:37.919Z</time></trkpt><trkpt lat="44.83156455447295" lon="13.873225460206546"><ele>19.0</ele><time>2026-04-12T08:28:38.919Z</time></trkpt><trkpt lat="44.83163807699314" lon="13.873246325053659"><ele>19.333333333333336</ele><time>2026-04-12T08:28:39.92Z</time></trkpt><trkpt lat="44.831727476255836" lon="13.873258261715453"><ele>19.666666666666668</ele><time>2026-04-12T08:28:40.921Z</time></trkpt><trkpt lat="44.83181747965257" lon="13.873257011910198"><ele>20.0</ele><time>2026-04-12T08:28:41.921Z</time></trkpt><trkpt lat="44.83189612027492" lon="13.873245317355115"><ele>20.666666666666668</ele><time>2026-04-12T08:28:42.922Z</time></trkpt><trkpt lat="44.83196765533412" lon="13.873228902841216"><ele>21.333333333333336</ele><time>2026-04-12T08:28:43.922Z</time></trkpt><trkpt lat="44.832047274230995" lon="13.873204279143682"><ele>22.0</ele><time>2026-04-12T08:28:44.923Z</time></trkpt><trkpt lat="44.83211834426739" lon="13.873173868644924"><ele>22.666666666666668</ele><time>2026-04-12T08:28:45.923Z</time></trkpt><trkpt lat="44.83219820632818" lon="13.87314372375759"><ele>23.333333333333332</ele><time>2026-04-12T08:28:46.924Z</time></trkpt><trkpt lat="44.83227920917818" lon="13.87309847819377"><ele>24.0</ele><time>2026-04-12T08:28:47.924Z</time></trkpt><trkpt lat="44.832362543614146" lon="13.873044385790452"><ele>24.0</ele><time>2026-04-12T08:28:48.924Z</time></trkpt><trkpt lat="44.83245736982928" lon="13.872983874312654"><ele>24.0</ele><time>2026-04-12T08:28:49.925Z</time></trkpt><trkpt lat="44.83253438825929" lon="13.872950431330692"><ele>24.0</ele><time>2026-04-12T08:28:50.925Z</time></trkpt><trkpt lat="44.832606762044605" lon="13.872923896205299"><ele>24.0</ele><time>2026-04-12T08:28:51.925Z</time></trkpt><trkpt lat="44.83267461548958" lon="13.87291666708113"><ele>24.0</ele><time>2026-04-12T08:28:52.926Z</time></trkpt><trkpt lat="44.83274712270986" lon="13.872891540172544"><ele>24.0</ele><time>2026-04-12T08:28:53.926Z</time></trkpt><trkpt lat="44.832809789512226" lon="13.872851930004545"><ele>24.57142857142857</ele><time>2026-04-12T08:28:54.926Z</time></trkpt><trkpt lat="44.83286818588997" lon="13.87281009672597"><ele>25.142857142857142</ele><time>2026-04-12T08:28:55.926Z</time></trkpt><trkpt lat="44.83293068881582" lon="13.87273875432267"><ele>25.714285714285715</ele><time>2026-04-12T08:28:56.927Z</time></trkpt><trkpt lat="44.83299871492074" lon="13.872675646090038"><ele>26.285714285714285</ele><time>2026-04-12T08:28:57.927Z</time></trkpt><trkpt lat="44.83306652376044" lon="13.87263876559705"><ele>26.857142857142858</ele><time>2026-04-12T08:28:58.927Z</time></trkpt><trkpt lat="44.83313829421663" lon="13.872613879992718"><ele>27.428571428571427</ele><time>2026-04-12T08:28:59.927Z</time></trkpt><trkpt lat="44.833202839074566" lon="13.872582817804007"><ele>28.0</ele><time>2026-04-12T08:29:00.927Z</time></trkpt><trkpt lat="44.83328195636169" lon="13.872518068709653"><ele>28.666666666666668</ele><time>2026-04-12T08:29:02.928Z</time></trkpt><trkpt lat="44.833353548296884" lon="13.872442794943803"><ele>29.333333333333336</ele><time>2026-04-12T08:29:04.928Z</time></trkpt><trkpt lat="44.83343047948722" lon="13.872344219951923"><ele>30.0</ele><time>2026-04-12T08:29:06.928Z</time></trkpt><trkpt lat="44.833484313538335" lon="13.872253419753697"><ele>30.666666666666664</ele><time>2026-04-12T08:29:07.928Z</time></trkpt><trkpt lat="44.833525757617096" lon="13.87217073552896"><ele>31.333333333333332</ele><time>2026-04-12T08:29:08.928Z</time></trkpt><trkpt lat="44.83357246108991" lon="13.87210485739498"><ele>32.0</ele><time>2026-04-12T08:29:09.928Z</time></trkpt><trkpt lat="44.83366950236163" lon="13.872003031053367"><ele>33.0</ele><time>2026-04-12T08:29:11.929Z</time></trkpt><trkpt lat="44.833741290206596" lon="13.871949153897482"><ele>34.0</ele><time>2026-04-12T08:29:12.929Z</time></trkpt><trkpt lat="44.833824777998714" lon="13.871884489272004"><ele>35.0</ele><time>2026-04-12T08:29:13.929Z</time></trkpt><trkpt lat="44.83387608638025" lon="13.871807934998982"><ele>36.0</ele><time>2026-04-12T08:29:14.929Z</time></trkpt><trkpt lat="44.83393137974337" lon="13.871734285028671"><ele>37.0</ele><time>2026-04-12T08:29:15.929Z</time></trkpt><trkpt lat="44.83397961230481" lon="13.871660380492047"><ele>38.0</ele><time>2026-04-12T08:29:16.929Z</time></trkpt><trkpt lat="44.83405894256284" lon="13.871541421162984"><ele>38.199999999999996</ele><time>2026-04-12T08:29:18.929Z</time></trkpt><trkpt lat="44.834111587934245" lon="13.871420605649545"><ele>38.4</ele><time>2026-04-12T08:29:20.929Z</time></trkpt><trkpt lat="44.83419163546173" lon="13.871408199422802"><ele>38.599999999999994</ele><time>2026-04-12T08:29:22.929Z</time></trkpt><trkpt lat="44.83426178930054" lon="13.871473831884012"><ele>38.8</ele><time>2026-04-12T08:29:24.929Z</time></trkpt><trkpt lat="44.834309656591095" lon="13.87164653851221"><ele>39.0</ele><time>2026-04-12T08:29:26.929Z</time></trkpt><trkpt lat="44.8343321501421" lon="13.871775171446519"><ele>39.8</ele><time>2026-04-12T08:29:27.929Z</time></trkpt><trkpt lat="44.83435135583711" lon="13.871918594244105"><ele>40.599999999999994</ele><time>2026-04-12T08:29:28.929Z</time></trkpt><trkpt lat="44.834356734009226" lon="13.872049666558896"><ele>41.4</ele><time>2026-04-12T08:29:29.929Z</time></trkpt><trkpt lat="44.83435232724638" lon="13.872193671946956"><ele>42.199999999999996</ele><time>2026-04-12T08:29:30.929Z</time></trkpt><trkpt lat="44.83434136618034" lon="13.872318342468848"><ele>43.0</ele><time>2026-04-12T08:29:31.929Z</time></trkpt><trkpt lat="44.83432394163089" lon="13.872439659429144"><ele>42.0</ele><time>2026-04-12T08:29:32.929Z</time></trkpt><trkpt lat="44.834285471531366" lon="13.872550842718999"><ele>41.0</ele><time>2026-04-12T08:29:33.929Z</time></trkpt><trkpt lat="44.83424139764568" lon="13.87268276290302"><ele>40.0</ele><time>2026-04-12T08:29:34.929Z</time></trkpt><trkpt lat="44.83419315395606" lon="13.872829352101839"><ele>39.0</ele><time>2026-04-12T08:29:35.929Z</time></trkpt><trkpt lat="44.83416536841944" lon="13.872988694075975"><ele>38.0</ele><time>2026-04-12T08:29:36.929Z</time></trkpt><trkpt lat="44.834161521789156" lon="13.873144689897297"><ele>37.0</ele><time>2026-04-12T08:29:37.929Z</time></trkpt><trkpt lat="44.83420055135632" lon="13.873284703927517"><ele>36.0</ele><time>2026-04-12T08:29:38.929Z</time></trkpt><trkpt lat="44.83426960847895" lon="13.873398036516944"><ele>35.0</ele><time>2026-04-12T08:29:39.929Z</time></trkpt><trkpt lat="44.83435884088153" lon="13.873507251452066"><ele>34.0</ele><time>2026-04-12T08:29:40.929Z</time></trkpt><trkpt lat="44.834459731993405" lon="13.873602010603886"><ele>34.0</ele><time>2026-04-12T08:29:41.929Z</time></trkpt><trkpt lat="44.83456626054938" lon="13.873707388457271"><ele>34.0</ele><time>2026-04-12T08:29:42.929Z</time></trkpt><trkpt lat="44.834686190842916" lon="13.873815005082667"><ele>34.0</ele><time>2026-04-12T08:29:43.929Z</time></trkpt><trkpt lat="44.834792970992844" lon="13.87392628327243"><ele>34.0</ele><time>2026-04-12T08:29:44.929Z</time></trkpt><trkpt lat="44.83490068707214" lon="13.87403850631189"><ele>34.0</ele><time>2026-04-12T08:29:45.929Z</time></trkpt><trkpt lat="44.8350174195683" lon="13.874149284243238"><ele>34.0</ele><time>2026-04-12T08:29:46.929Z</time></trkpt><trkpt lat="44.83513153596807" lon="13.874265534049188"><ele>34.0</ele><time>2026-04-12T08:29:47.929Z</time></trkpt><trkpt lat="44.835251396936854" lon="13.874375770500745"><ele>34.0</ele><time>2026-04-12T08:29:48.929Z</time></trkpt><trkpt lat="44.83537586872179" lon="13.874442432304589"><ele>32.25</ele><time>2026-04-12T08:29:49.929Z</time></trkpt><trkpt lat="44.83550339355164" lon="13.87450636829658"><ele>30.5</ele><time>2026-04-12T08:29:50.929Z</time></trkpt><trkpt lat="44.83562983036482" lon="13.874544144120229"><ele>28.75</ele><time>2026-04-12T08:29:51.929Z</time></trkpt><trkpt lat="44.83575313592286" lon="13.874575736133837"><ele>27.0</ele><time>2026-04-12T08:29:52.929Z</time></trkpt><trkpt lat="44.83587196150059" lon="13.874608971421551"><ele>26.400000000000002</ele><time>2026-04-12T08:29:53.929Z</time></trkpt><trkpt lat="44.83598133331298" lon="13.874653195272147"><ele>25.800000000000004</ele><time>2026-04-12T08:29:54.929Z</time></trkpt><trkpt lat="44.83609406190566" lon="13.874698839368165"><ele>25.2</ele><time>2026-04-12T08:29:55.929Z</time></trkpt><trkpt lat="44.83618440529935" lon="13.874733515337995"><ele>24.6</ele><time>2026-04-12T08:29:56.929Z</time></trkpt><trkpt lat="44.83626363474555" lon="13.874769780148448"><ele>24.0</ele><time>2026-04-12T08:29:58.929Z</time></trkpt><trkpt lat="44.8363617428615" lon="13.87480065790818"><ele>24.0</ele><time>2026-04-12T08:30:08.929Z</time></trkpt><trkpt lat="44.83643081999351" lon="13.874801453176618"><ele>24.0</ele><time>2026-04-12T08:30:09.929Z</time></trkpt><trkpt lat="44.83650495758666" lon="13.874763947897923"><ele>24.0</ele><time>2026-04-12T08:30:10.929Z</time></trkpt><trkpt lat="44.836605409062635" lon="13.874716888601723"><ele>24.0</ele><time>2026-04-12T08:30:11.929Z</time></trkpt><trkpt lat="44.836727219566036" lon="13.87466602059399"><ele>24.0</ele><time>2026-04-12T08:30:12.929Z</time></trkpt><trkpt lat="44.836839298134976" lon="13.874614421552389"><ele>23.666666666666668</ele><time>2026-04-12T08:30:13.929Z</time></trkpt><trkpt lat="44.83696943920925" lon="13.874567718930656"><ele>23.333333333333336</ele><time>2026-04-12T08:30:14.929Z</time></trkpt><trkpt lat="44.83711780784545" lon="13.874502904063263"><ele>23.0</ele><time>2026-04-12T08:30:15.929Z</time></trkpt><trkpt lat="44.837301455386765" lon="13.874426496955799"><ele>23.0</ele><time>2026-04-12T08:30:16.929Z</time></trkpt><trkpt lat="44.837471867988675" lon="13.874339999478355"><ele>23.0</ele><time>2026-04-12T08:30:17.929Z</time></trkpt><trkpt lat="44.837635171881814" lon="13.874260002353527"><ele>23.0</ele><time>2026-04-12T08:30:18.929Z</time></trkpt><trkpt lat="44.83779921424214" lon="13.874167991163198"><ele>23.333333333333336</ele><time>2026-04-12T08:30:19.929Z</time></trkpt><trkpt lat="44.83797560920272" lon="13.8740612627732"><ele>23.666666666666668</ele><time>2026-04-12T08:30:20.929Z</time></trkpt><trkpt lat="44.83815399944699" lon="13.87395159530609"><ele>24.0</ele><time>2026-04-12T08:30:21.928Z</time></trkpt><trkpt lat="44.83832247161947" lon="13.87385086533113"><ele>24.333333333333336</ele><time>2026-04-12T08:30:22.928Z</time></trkpt><trkpt lat="44.83848062783669" lon="13.873757552179157"><ele>24.666666666666668</ele><time>2026-04-12T08:30:23.928Z</time></trkpt><trkpt lat="44.83863266796146" lon="13.873661891424902"><ele>25.0</ele><time>2026-04-12T08:30:24.928Z</time></trkpt><trkpt lat="44.83878443868097" lon="13.87357267745655"><ele>25.0</ele><time>2026-04-12T08:30:25.928Z</time></trkpt><trkpt lat="44.838930210096365" lon="13.873490789001142"><ele>25.0</ele><time>2026-04-12T08:30:26.928Z</time></trkpt><trkpt lat="44.83906980295795" lon="13.873410641432555"><ele>25.0</ele><time>2026-04-12T08:30:27.927Z</time></trkpt><trkpt lat="44.83920437699898" lon="13.873327920866974"><ele>26.0</ele><time>2026-04-12T08:30:28.927Z</time></trkpt><trkpt lat="44.83933306148797" lon="13.87324681370524"><ele>27.0</ele><time>2026-04-12T08:30:29.927Z</time></trkpt><trkpt lat="44.83945179183187" lon="13.873171644975113"><ele>28.0</ele><time>2026-04-12T08:30:30.927Z</time></trkpt><trkpt lat="44.83956172469104" lon="13.873103730609929"><ele>29.0</ele><time>2026-04-12T08:30:31.928Z</time></trkpt><trkpt lat="44.83963960583485" lon="13.87305202661237"><ele>29.0</ele><time>2026-04-12T08:30:32.928Z</time></trkpt><trkpt lat="44.83970760193784" lon="13.873028000416928"><ele>29.0</ele><time>2026-04-12T08:30:33.928Z</time></trkpt><trkpt lat="44.83979324252979" lon="13.872979619106319"><ele>29.0</ele><time>2026-04-12T08:30:35.928Z</time></trkpt><trkpt lat="44.83978990535328" lon="13.87274337011103"><ele>29.0</ele><time>2026-04-12T08:30:37.928Z</time></trkpt><trkpt lat="44.83983063415429" lon="13.872571407765648"><ele>28.833333333333332</ele><time>2026-04-12T08:30:39.928Z</time></trkpt><trkpt lat="44.83985179963748" lon="13.872476257324307"><ele>28.666666666666664</ele><time>2026-04-12T08:30:40.928Z</time></trkpt><trkpt lat="44.83986703797785" lon="13.872371490283124"><ele>28.5</ele><time>2026-04-12T08:30:41.927Z</time></trkpt><trkpt lat="44.83988699913717" lon="13.872268168046295"><ele>28.333333333333336</ele><time>2026-04-12T08:30:42.927Z</time></trkpt><trkpt lat="44.83992217985741" lon="13.87208353548459"><ele>28.166666666666668</ele><time>2026-04-12T08:30:44.927Z</time></trkpt><trkpt lat="44.83993548194902" lon="13.871987141403018"><ele>28.0</ele><time>2026-04-12T08:30:45.927Z</time></trkpt><trkpt lat="44.839947732436826" lon="13.87189555736637"><ele>28.000000000000004</ele><time>2026-04-12T08:30:46.927Z</time></trkpt><trkpt lat="44.83996581673556" lon="13.871807380348107"><ele>28.0</ele><time>2026-04-12T08:30:47.927Z</time></trkpt><trkpt lat="44.840004987051095" lon="13.87171123555461"><ele>28.0</ele><time>2026-04-12T08:30:48.927Z</time></trkpt><trkpt lat="44.84003813828377" lon="13.87159985603736"><ele>28.0</ele><time>2026-04-12T08:30:49.927Z</time></trkpt><trkpt lat="44.840057008250135" lon="13.871489530532465"><ele>28.000000000000004</ele><time>2026-04-12T08:30:50.927Z</time></trkpt><trkpt lat="44.84005571100592" lon="13.87137428015696"><ele>28.0</ele><time>2026-04-12T08:30:51.927Z</time></trkpt><trkpt lat="44.840048958078675" lon="13.871260561780797"><ele>28.0</ele><time>2026-04-12T08:30:52.927Z</time></trkpt><trkpt lat="44.84002431707416" lon="13.871129712136097"><ele>27.999999999999996</ele><time>2026-04-12T08:30:53.927Z</time></trkpt><trkpt lat="44.83999642694738" lon="13.870992987180937"><ele>27.999999999999996</ele><time>2026-04-12T08:30:54.927Z</time></trkpt><trkpt lat="44.839971275919225" lon="13.870866011443388"><ele>28.0</ele><time>2026-04-12T08:30:55.927Z</time></trkpt><trkpt lat="44.83995782660067" lon="13.8707440537934"><ele>28.0</ele><time>2026-04-12T08:30:56.927Z</time></trkpt><trkpt lat="44.83995281962934" lon="13.870628789034079"><ele>28.0</ele><time>2026-04-12T08:30:57.927Z</time></trkpt><trkpt lat="44.83996118110361" lon="13.870532292926828"><ele>27.999999999999996</ele><time>2026-04-12T08:30:58.927Z</time></trkpt><trkpt lat="44.839987826454475" lon="13.870430372854607"><ele>27.999999999999996</ele><time>2026-04-12T08:30:59.927Z</time></trkpt><trkpt lat="44.840040247073" lon="13.87032598123317"><ele>28.0</ele><time>2026-04-12T08:31:00.927Z</time></trkpt><trkpt lat="44.840109420718115" lon="13.870199987217836"><ele>28.0</ele><time>2026-04-12T08:31:01.927Z</time></trkpt><trkpt lat="44.84016914293724" lon="13.87006101430439"><ele>27.2</ele><time>2026-04-12T08:31:02.927Z</time></trkpt><trkpt lat="44.8402188368904" lon="13.869913341368115"><ele>26.4</ele><time>2026-04-12T08:31:03.927Z</time></trkpt><trkpt lat="44.84025628331758" lon="13.869765616086278"><ele>25.599999999999998</ele><time>2026-04-12T08:31:04.927Z</time></trkpt><trkpt lat="44.840298347216404" lon="13.86963950429322"><ele>24.799999999999997</ele><time>2026-04-12T08:31:05.927Z</time></trkpt><trkpt lat="44.84035898595791" lon="13.869529144225531"><ele>24.0</ele><time>2026-04-12T08:31:06.927Z</time></trkpt><trkpt lat="44.840432609106095" lon="13.86942447200408"><ele>24.0</ele><time>2026-04-12T08:31:07.927Z</time></trkpt><trkpt lat="44.84051162925122" lon="13.86931719072945"><ele>24.0</ele><time>2026-04-12T08:31:08.927Z</time></trkpt><trkpt lat="44.84058611412995" lon="13.869213257743164"><ele>24.0</ele><time>2026-04-12T08:31:09.927Z</time></trkpt><trkpt lat="44.840627894032096" lon="13.869086188003244"><ele>24.0</ele><time>2026-04-12T08:31:10.927Z</time></trkpt><trkpt lat="44.84070624110471" lon="13.868984933349088"><ele>24.0</ele><time>2026-04-12T08:31:11.927Z</time></trkpt><trkpt lat="44.840769676848375" lon="13.868871456424326"><ele>23.6</ele><time>2026-04-12T08:31:12.927Z</time></trkpt><trkpt lat="44.84083011229179" lon="13.868750548303867"><ele>23.2</ele><time>2026-04-12T08:31:13.927Z</time></trkpt><trkpt lat="44.8408775637433" lon="13.868634237135435"><ele>22.8</ele><time>2026-04-12T08:31:14.927Z</time></trkpt><trkpt lat="44.840916340748905" lon="13.868520302874728"><ele>22.400000000000002</ele><time>2026-04-12T08:31:15.927Z</time></trkpt><trkpt lat="44.8409404849506" lon="13.868402465045031"><ele>22.0</ele><time>2026-04-12T08:31:16.927Z</time></trkpt><trkpt lat="44.84096792993003" lon="13.868277721228605"><ele>21.285714285714285</ele><time>2026-04-12T08:31:17.927Z</time></trkpt><trkpt lat="44.84100984105002" lon="13.868168643132579"><ele>20.57142857142857</ele><time>2026-04-12T08:31:18.927Z</time></trkpt><trkpt lat="44.84103994171997" lon="13.868062884621057"><ele>19.857142857142854</ele><time>2026-04-12T08:31:19.927Z</time></trkpt><trkpt lat="44.84107580547893" lon="13.867974014669738"><ele>19.142857142857142</ele><time>2026-04-12T08:31:20.927Z</time></trkpt><trkpt lat="44.841096880808344" lon="13.867877130503246"><ele>18.428571428571427</ele><time>2026-04-12T08:31:21.927Z</time></trkpt><trkpt lat="44.84113142895321" lon="13.867800550740853"><ele>17.71428571428571</ele><time>2026-04-12T08:31:22.927Z</time></trkpt><trkpt lat="44.8411616449507" lon="13.86771202779826"><ele>17.0</ele><time>2026-04-12T08:31:23.927Z</time></trkpt><trkpt lat="44.84117992656052" lon="13.867593216193802"><ele>16.4</ele><time>2026-04-12T08:31:24.927Z</time></trkpt><trkpt lat="44.84120406119184" lon="13.867458201753584"><ele>15.799999999999999</ele><time>2026-04-12T08:31:25.927Z</time></trkpt><trkpt lat="44.84122808554464" lon="13.867324452904569"><ele>15.2</ele><time>2026-04-12T08:31:26.927Z</time></trkpt><trkpt lat="44.84126025668955" lon="13.867196357066327"><ele>14.6</ele><time>2026-04-12T08:31:27.927Z</time></trkpt><trkpt lat="44.84128880485988" lon="13.867062442042394"><ele>14.0</ele><time>2026-04-12T08:31:28.927Z</time></trkpt><trkpt lat="44.84131513339627" lon="13.866938659404296"><ele>14.0</ele><time>2026-04-12T08:31:29.927Z</time></trkpt><trkpt lat="44.84133671951511" lon="13.866812324298701"><ele>13.999999999999998</ele><time>2026-04-12T08:31:30.927Z</time></trkpt><trkpt lat="44.84136203466554" lon="13.866689036439098"><ele>13.999999999999998</ele><time>2026-04-12T08:31:31.927Z</time></trkpt><trkpt lat="44.84138742921861" lon="13.866554125475162"><ele>14.0</ele><time>2026-04-12T08:31:32.927Z</time></trkpt><trkpt lat="44.84142475289723" lon="13.866419963764605"><ele>14.0</ele><time>2026-04-12T08:31:33.927Z</time></trkpt><trkpt lat="44.84145651919799" lon="13.86627227460435"><ele>13.6</ele><time>2026-04-12T08:31:34.927Z</time></trkpt><trkpt lat="44.84148467215049" lon="13.866129170967456"><ele>13.2</ele><time>2026-04-12T08:31:35.927Z</time></trkpt><trkpt lat="44.84152003882806" lon="13.865988942062515"><ele>12.799999999999999</ele><time>2026-04-12T08:31:36.927Z</time></trkpt><trkpt lat="44.84155274841385" lon="13.865863969913217"><ele>12.399999999999999</ele><time>2026-04-12T08:31:37.927Z</time></trkpt><trkpt lat="44.84158162245744" lon="13.865745561912444"><ele>12.0</ele><time>2026-04-12T08:31:38.927Z</time></trkpt><trkpt lat="44.841608744631046" lon="13.865626351315008"><ele>11.0</ele><time>2026-04-12T08:31:39.927Z</time></trkpt><trkpt lat="44.84164036408528" lon="13.86551065719116"><ele>10.0</ele><time>2026-04-12T08:31:40.927Z</time></trkpt><trkpt lat="44.84167159455765" lon="13.865391489514412"><ele>9.0</ele><time>2026-04-12T08:31:41.927Z</time></trkpt><trkpt lat="44.84170559694494" lon="13.865248706488112"><ele>8.0</ele><time>2026-04-12T08:31:42.927Z</time></trkpt><trkpt lat="44.84173399320573" lon="13.865104331865641"><ele>7.0</ele><time>2026-04-12T08:31:43.927Z</time></trkpt><trkpt lat="44.84179566662776" lon="13.864947216664252"><ele>7.0</ele><time>2026-04-12T08:31:44.927Z</time></trkpt><trkpt lat="44.84182257950734" lon="13.864783620547264"><ele>6.999999999999999</ele><time>2026-04-12T08:31:45.927Z</time></trkpt><trkpt lat="44.84183743082934" lon="13.864626777607937"><ele>6.999999999999999</ele><time>2026-04-12T08:31:46.926Z</time></trkpt><trkpt lat="44.84186064540396" lon="13.864488195797017"><ele>7.0</ele><time>2026-04-12T08:31:47.926Z</time></trkpt><trkpt lat="44.841891113694416" lon="13.86435068949819"><ele>7.0</ele><time>2026-04-12T08:31:48.926Z</time></trkpt><trkpt lat="44.841914154119905" lon="13.864223510623868"><ele>7.0</ele><time>2026-04-12T08:31:49.926Z</time></trkpt><trkpt lat="44.841936257139025" lon="13.864108784309396"><ele>6.999999999999999</ele><time>2026-04-12T08:31:50.926Z</time></trkpt><trkpt lat="44.84195947488323" lon="13.86399864762437"><ele>6.999999999999999</ele><time>2026-04-12T08:31:51.926Z</time></trkpt><trkpt lat="44.8419724977538" lon="13.863868117633958"><ele>7.0</ele><time>2026-04-12T08:31:52.926Z</time></trkpt><trkpt lat="44.842015638568824" lon="13.863724095611804"><ele>7.0</ele><time>2026-04-12T08:31:53.926Z</time></trkpt><trkpt lat="44.84206220552761" lon="13.863560546847594"><ele>6.75</ele><time>2026-04-12T08:31:54.926Z</time></trkpt><trkpt lat="44.84210440239975" lon="13.863400998109766"><ele>6.5</ele><time>2026-04-12T08:31:55.926Z</time></trkpt><trkpt lat="44.84214190153949" lon="13.863245108147163"><ele>6.25</ele><time>2026-04-12T08:31:56.926Z</time></trkpt><trkpt lat="44.84217721954819" lon="13.863088601784922"><ele>6.0</ele><time>2026-04-12T08:31:57.926Z</time></trkpt><trkpt lat="44.842198277344075" lon="13.862935551598495"><ele>6.0</ele><time>2026-04-12T08:31:58.926Z</time></trkpt><trkpt lat="44.84222889568525" lon="13.862826187812407"><ele>6.0</ele><time>2026-04-12T08:31:59.926Z</time></trkpt><trkpt lat="44.842255538017895" lon="13.862694411987356"><ele>6.0</ele><time>2026-04-12T08:32:01.926Z</time></trkpt><trkpt lat="44.842426978535144" lon="13.862665658971029"><ele>6.0</ele><time>2026-04-12T08:32:04.926Z</time></trkpt><trkpt lat="44.84248394575761" lon="13.862616793250531"><ele>6.0</ele><time>2026-04-12T08:32:05.926Z</time></trkpt><trkpt lat="44.842545564406365" lon="13.862637545773477"><ele>6.0</ele><time>2026-04-12T08:32:06.926Z</time></trkpt><trkpt lat="44.84261158711904" lon="13.862656239405686"><ele>6.0</ele><time>2026-04-12T08:32:07.926Z</time></trkpt><trkpt lat="44.84268946111014" lon="13.862703248803042"><ele>6.0</ele><time>2026-04-12T08:32:08.926Z</time></trkpt><trkpt lat="44.84281780586974" lon="13.862757355911222"><ele>6.0</ele><time>2026-04-12T08:32:09.926Z</time></trkpt><trkpt lat="44.84294694678406" lon="13.862748366026096"><ele>6.0</ele><time>2026-04-12T08:32:10.926Z</time></trkpt><trkpt lat="44.84308219495605" lon="13.862731195103729"><ele>7.199999999999999</ele><time>2026-04-12T08:32:11.926Z</time></trkpt><trkpt lat="44.843206384700906" lon="13.862710664882695"><ele>8.399999999999999</ele><time>2026-04-12T08:32:12.926Z</time></trkpt><trkpt lat="44.8433125797614" lon="13.862706164976826"><ele>9.6</ele><time>2026-04-12T08:32:13.926Z</time></trkpt><trkpt lat="44.84340315489548" lon="13.862729999310615"><ele>10.799999999999999</ele><time>2026-04-12T08:32:14.926Z</time></trkpt><trkpt lat="44.843500639110744" lon="13.862737049806556"><ele>12.0</ele><time>2026-04-12T08:32:15.926Z</time></trkpt><trkpt lat="44.84361736329824" lon="13.862723018842479"><ele>13.0</ele><time>2026-04-12T08:32:16.926Z</time></trkpt><trkpt lat="44.84373369148857" lon="13.862702429345493"><ele>14.0</ele><time>2026-04-12T08:32:17.926Z</time></trkpt><trkpt lat="44.84383675934778" lon="13.862693874852493"><ele>15.0</ele><time>2026-04-12T08:32:18.926Z</time></trkpt><trkpt lat="44.84393291270204" lon="13.86271471962158"><ele>16.0</ele><time>2026-04-12T08:32:19.926Z</time></trkpt><trkpt lat="44.84402133643148" lon="13.862772659561864"><ele>17.0</ele><time>2026-04-12T08:32:20.926Z</time></trkpt><trkpt lat="44.844107033211365" lon="13.862877594980779"><ele>17.0</ele><time>2026-04-12T08:32:21.926Z</time></trkpt><trkpt lat="44.84421281254906" lon="13.862998904057784"><ele>17.0</ele><time>2026-04-12T08:32:22.926Z</time></trkpt><trkpt lat="44.84432255538442" lon="13.863108973701761"><ele>17.0</ele><time>2026-04-12T08:32:23.926Z</time></trkpt><trkpt lat="44.84443319986733" lon="13.86319479704459"><ele>17.0</ele><time>2026-04-12T08:32:24.926Z</time></trkpt><trkpt lat="44.84454727395288" lon="13.863251102456157"><ele>17.25</ele><time>2026-04-12T08:32:25.926Z</time></trkpt><trkpt lat="44.84468142353688" lon="13.863253800045806"><ele>17.5</ele><time>2026-04-12T08:32:26.926Z</time></trkpt><trkpt lat="44.84482615221928" lon="13.863227684342236"><ele>17.75</ele><time>2026-04-12T08:32:27.924Z</time></trkpt><trkpt lat="44.8449756981156" lon="13.863236723934259"><ele>18.0</ele><time>2026-04-12T08:32:28.924Z</time></trkpt><trkpt lat="44.84512803255509" lon="13.863198953133686"><ele>17.666666666666668</ele><time>2026-04-12T08:32:29.924Z</time></trkpt><trkpt lat="44.84528203079022" lon="13.863173652136583"><ele>17.333333333333336</ele><time>2026-04-12T08:32:30.924Z</time></trkpt><trkpt lat="44.845434989993855" lon="13.86315228395823"><ele>17.0</ele><time>2026-04-12T08:32:31.924Z</time></trkpt><trkpt lat="44.84558242330826" lon="13.863133929250534"><ele>17.0</ele><time>2026-04-12T08:32:32.924Z</time></trkpt><trkpt lat="44.84572643059015" lon="13.863110421205684"><ele>17.0</ele><time>2026-04-12T08:32:33.924Z</time></trkpt><trkpt lat="44.84586701651028" lon="13.863089396892077"><ele>17.0</ele><time>2026-04-12T08:32:34.924Z</time></trkpt><trkpt lat="44.846000104016014" lon="13.863066177761516"><ele>17.0</ele><time>2026-04-12T08:32:35.924Z</time></trkpt><trkpt lat="44.8461311722617" lon="13.863056168636135"><ele>16.75</ele><time>2026-04-12T08:32:36.924Z</time></trkpt><trkpt lat="44.84625722364448" lon="13.863063058284476"><ele>16.5</ele><time>2026-04-12T08:32:37.924Z</time></trkpt><trkpt lat="44.846387802792684" lon="13.863097865104502"><ele>16.25</ele><time>2026-04-12T08:32:38.924Z</time></trkpt><trkpt lat="44.84651579805965" lon="13.863156475615453"><ele>16.0</ele><time>2026-04-12T08:32:39.924Z</time></trkpt><trkpt lat="44.846640614478886" lon="13.863234639323828"><ele>16.0</ele><time>2026-04-12T08:32:40.923Z</time></trkpt><trkpt lat="44.84677008029405" lon="13.86332076314918"><ele>16.0</ele><time>2026-04-12T08:32:41.923Z</time></trkpt><trkpt lat="44.84689958119821" lon="13.863414862553672"><ele>16.0</ele><time>2026-04-12T08:32:42.923Z</time></trkpt><trkpt lat="44.8470155113502" lon="13.86351243974975"><ele>16.0</ele><time>2026-04-12T08:32:43.923Z</time></trkpt><trkpt lat="44.84712689158526" lon="13.86360924384565"><ele>16.400000000000002</ele><time>2026-04-12T08:32:44.923Z</time></trkpt><trkpt lat="44.84723187677951" lon="13.863692337641494"><ele>16.8</ele><time>2026-04-12T08:32:45.923Z</time></trkpt><trkpt lat="44.84733366552237" lon="13.863757941967437"><ele>17.200000000000003</ele><time>2026-04-12T08:32:46.923Z</time></trkpt><trkpt lat="44.84743900045703" lon="13.86381253994109"><ele>17.6</ele><time>2026-04-12T08:32:47.923Z</time></trkpt><trkpt lat="44.84753472146827" lon="13.863858419479227"><ele>18.0</ele><time>2026-04-12T08:32:48.923Z</time></trkpt><trkpt lat="44.847626647466264" lon="13.863911210352414"><ele>19.0</ele><time>2026-04-12T08:32:49.923Z</time></trkpt><trkpt lat="44.847724840189" lon="13.86397708244376"><ele>20.0</ele><time>2026-04-12T08:32:50.923Z</time></trkpt><trkpt lat="44.847829978396796" lon="13.864048190459163"><ele>21.0</ele><time>2026-04-12T08:32:51.923Z</time></trkpt><trkpt lat="44.847918713725036" lon="13.864159358431953"><ele>22.0</ele><time>2026-04-12T08:32:52.923Z</time></trkpt><trkpt lat="44.84800800234311" lon="13.864278770991977"><ele>21.25</ele><time>2026-04-12T08:32:53.923Z</time></trkpt><trkpt lat="44.84810918506993" lon="13.864408795524774"><ele>20.5</ele><time>2026-04-12T08:32:54.923Z</time></trkpt><trkpt lat="44.848201078935524" lon="13.864571291339681"><ele>19.75</ele><time>2026-04-12T08:32:55.923Z</time></trkpt><trkpt lat="44.84829975572231" lon="13.864734478878818"><ele>19.0</ele><time>2026-04-12T08:32:56.923Z</time></trkpt><trkpt lat="44.848383509945954" lon="13.864905029720362"><ele>19.0</ele><time>2026-04-12T08:32:57.923Z</time></trkpt><trkpt lat="44.848510719403635" lon="13.86502850050473"><ele>19.0</ele><time>2026-04-12T08:32:58.923Z</time></trkpt><trkpt lat="44.84863841632845" lon="13.86517254592592"><ele>19.0</ele><time>2026-04-12T08:32:59.923Z</time></trkpt><trkpt lat="44.84878290653819" lon="13.865267927049244"><ele>19.0</ele><time>2026-04-12T08:33:00.923Z</time></trkpt><trkpt lat="44.848915024674206" lon="13.865341838257333"><ele>19.0</ele><time>2026-04-12T08:33:01.923Z</time></trkpt><trkpt lat="44.849045179996004" lon="13.865388141879912"><ele>19.0</ele><time>2026-04-12T08:33:02.923Z</time></trkpt><trkpt lat="44.849175731535844" lon="13.865409975027084"><ele>19.0</ele><time>2026-04-12T08:33:03.923Z</time></trkpt><trkpt lat="44.84930869765329" lon="13.865395262338739"><ele>19.25</ele><time>2026-04-12T08:33:04.923Z</time></trkpt><trkpt lat="44.849444176935265" lon="13.86537595159529"><ele>19.5</ele><time>2026-04-12T08:33:05.923Z</time></trkpt><trkpt lat="44.849589360104446" lon="13.865356342401912"><ele>19.75</ele><time>2026-04-12T08:33:06.923Z</time></trkpt><trkpt lat="44.84972096210456" lon="13.865334294923834"><ele>20.0</ele><time>2026-04-12T08:33:07.923Z</time></trkpt><trkpt lat="44.84984969998078" lon="13.865319230629511"><ele>20.0</ele><time>2026-04-12T08:33:08.923Z</time></trkpt><trkpt lat="44.84997316381898" lon="13.865300787606907"><ele>20.0</ele><time>2026-04-12T08:33:09.923Z</time></trkpt><trkpt lat="44.85010191440462" lon="13.865271946669651"><ele>20.0</ele><time>2026-04-12T08:33:10.923Z</time></trkpt><trkpt lat="44.85022258382315" lon="13.865218511335927"><ele>20.0</ele><time>2026-04-12T08:33:11.923Z</time></trkpt><trkpt lat="44.850343108916555" lon="13.86514832567529"><ele>18.5</ele><time>2026-04-12T08:33:12.923Z</time></trkpt><trkpt lat="44.85046659256992" lon="13.865074279219863"><ele>17.0</ele><time>2026-04-12T08:33:13.923Z</time></trkpt><trkpt lat="44.850578815507106" lon="13.8650075486183"><ele>15.5</ele><time>2026-04-12T08:33:14.923Z</time></trkpt><trkpt lat="44.85069203286815" lon="13.864927919751812"><ele>14.0</ele><time>2026-04-12T08:33:15.923Z</time></trkpt><trkpt lat="44.8507929938762" lon="13.864836493209674"><ele>14.0</ele><time>2026-04-12T08:33:16.923Z</time></trkpt><trkpt lat="44.850893737373774" lon="13.864741047057075"><ele>14.0</ele><time>2026-04-12T08:33:17.923Z</time></trkpt><trkpt lat="44.8509935812451" lon="13.864665096506451"><ele>14.0</ele><time>2026-04-12T08:33:18.923Z</time></trkpt><trkpt lat="44.851101325562595" lon="13.864616792605608"><ele>14.0</ele><time>2026-04-12T08:33:19.923Z</time></trkpt><trkpt lat="44.85119214847161" lon="13.864533815009517"><ele>14.0</ele><time>2026-04-12T08:33:20.922Z</time></trkpt><trkpt lat="44.851293317544005" lon="13.864468904334716"><ele>13.999999999999998</ele><time>2026-04-12T08:33:21.922Z</time></trkpt><trkpt lat="44.85138725506237" lon="13.864424059232862"><ele>13.999999999999998</ele><time>2026-04-12T08:33:22.922Z</time></trkpt><trkpt lat="44.851479217445814" lon="13.864365158198273"><ele>14.0</ele><time>2026-04-12T08:33:23.922Z</time></trkpt><trkpt lat="44.8515751051156" lon="13.864326930225028"><ele>14.0</ele><time>2026-04-12T08:33:24.922Z</time></trkpt><trkpt lat="44.85167128845325" lon="13.864280512081468"><ele>14.2</ele><time>2026-04-12T08:33:25.922Z</time></trkpt><trkpt lat="44.851771989286426" lon="13.864240109659889"><ele>14.399999999999999</ele><time>2026-04-12T08:33:26.922Z</time></trkpt><trkpt lat="44.85186480759096" lon="13.864239235509443"><ele>14.6</ele><time>2026-04-12T08:33:27.922Z</time></trkpt><trkpt lat="44.85196393401368" lon="13.864242850360446"><ele>14.8</ele><time>2026-04-12T08:33:28.922Z</time></trkpt><trkpt lat="44.8520682792527" lon="13.864273667490673"><ele>15.0</ele><time>2026-04-12T08:33:29.922Z</time></trkpt><trkpt lat="44.85217775489484" lon="13.864324633419336"><ele>15.25</ele><time>2026-04-12T08:33:30.922Z</time></trkpt><trkpt lat="44.852299837234874" lon="13.864370022982023"><ele>15.5</ele><time>2026-04-12T08:33:31.922Z</time></trkpt><trkpt lat="44.85241695770952" lon="13.864421274664014"><ele>15.75</ele><time>2026-04-12T08:33:32.922Z</time></trkpt><trkpt lat="44.852534821361644" lon="13.864455722872986"><ele>16.0</ele><time>2026-04-12T08:33:33.922Z</time></trkpt><trkpt lat="44.852642287119636" lon="13.86449360274145"><ele>16.400000000000002</ele><time>2026-04-12T08:33:34.922Z</time></trkpt><trkpt lat="44.85275504423826" lon="13.864525592571123"><ele>16.8</ele><time>2026-04-12T08:33:35.922Z</time></trkpt><trkpt lat="44.852860145960605" lon="13.864564410382012"><ele>17.200000000000003</ele><time>2026-04-12T08:33:36.922Z</time></trkpt><trkpt lat="44.85295242211239" lon="13.864598751693372"><ele>17.6</ele><time>2026-04-12T08:33:37.922Z</time></trkpt><trkpt lat="44.853057566747765" lon="13.864630959520749"><ele>18.0</ele><time>2026-04-12T08:33:39.922Z</time></trkpt><trkpt lat="44.85312820439425" lon="13.86466006757282"><ele>18.0</ele><time>2026-04-12T08:33:41.922Z</time></trkpt><trkpt lat="44.853176962530235" lon="13.864723963858582"><ele>18.0</ele><time>2026-04-12T08:33:50.922Z</time></trkpt><trkpt lat="44.85322702941748" lon="13.864792707138564"><ele>18.0</ele><time>2026-04-12T08:33:52.922Z</time></trkpt><trkpt lat="44.85329458638278" lon="13.864865795433891"><ele>18.0</ele><time>2026-04-12T08:33:54.922Z</time></trkpt><trkpt lat="44.85335977667565" lon="13.864736972694947"><ele>18.0</ele><time>2026-04-12T08:33:56.922Z</time></trkpt><trkpt lat="44.85340471629455" lon="13.864632856447235"><ele>18.0</ele><time>2026-04-12T08:33:57.922Z</time></trkpt><trkpt lat="44.85346563409714" lon="13.864531545974174"><ele>18.5</ele><time>2026-04-12T08:33:58.922Z</time></trkpt><trkpt lat="44.85354445369095" lon="13.864415825091594"><ele>19.0</ele><time>2026-04-12T08:33:59.922Z</time></trkpt><trkpt lat="44.853632408901106" lon="13.864291733496195"><ele>19.5</ele><time>2026-04-12T08:34:00.922Z</time></trkpt><trkpt lat="44.853720926076505" lon="13.86415817557669"><ele>20.0</ele><time>2026-04-12T08:34:01.922Z</time></trkpt><trkpt lat="44.853809841421864" lon="13.864016444427556"><ele>19.0</ele><time>2026-04-12T08:34:02.922Z</time></trkpt><trkpt lat="44.85391186885697" lon="13.863864690263659"><ele>18.0</ele><time>2026-04-12T08:34:03.922Z</time></trkpt><trkpt lat="44.85401300513494" lon="13.863714129073"><ele>17.0</ele><time>2026-04-12T08:34:04.922Z</time></trkpt><trkpt lat="44.85410319899703" lon="13.86357021597197"><ele>16.0</ele><time>2026-04-12T08:34:05.922Z</time></trkpt><trkpt lat="44.85418911299415" lon="13.863433686006106"><ele>15.8</ele><time>2026-04-12T08:34:06.922Z</time></trkpt><trkpt lat="44.8542765949923" lon="13.863305944347427"><ele>15.600000000000001</ele><time>2026-04-12T08:34:07.922Z</time></trkpt><trkpt lat="44.85434726216202" lon="13.863194619070434"><ele>15.4</ele><time>2026-04-12T08:34:08.922Z</time></trkpt><trkpt lat="44.854414043095574" lon="13.86312672936436"><ele>15.2</ele><time>2026-04-12T08:34:09.922Z</time></trkpt><trkpt lat="44.854491887803626" lon="13.863092433656536"><ele>15.0</ele><time>2026-04-12T08:34:10.922Z</time></trkpt><trkpt lat="44.85455767507158" lon="13.863061313141138"><ele>13.25</ele><time>2026-04-12T08:34:11.922Z</time></trkpt><trkpt lat="44.85464984364882" lon="13.863151851676689"><ele>11.5</ele><time>2026-04-12T08:34:12.922Z</time></trkpt><trkpt lat="44.85473729205525" lon="13.86322066478988"><ele>9.75</ele><time>2026-04-12T08:34:13.922Z</time></trkpt><trkpt lat="44.8548420086991" lon="13.863303318852811"><ele>8.0</ele><time>2026-04-12T08:34:14.922Z</time></trkpt><trkpt lat="44.85495491935747" lon="13.863376420819934"><ele>8.0</ele><time>2026-04-12T08:34:15.922Z</time></trkpt><trkpt lat="44.85507487560906" lon="13.863444881031173"><ele>8.0</ele><time>2026-04-12T08:34:16.922Z</time></trkpt><trkpt lat="44.85518787292819" lon="13.86349342610063"><ele>8.0</ele><time>2026-04-12T08:34:17.922Z</time></trkpt><trkpt lat="44.85529954931605" lon="13.863538983503089"><ele>8.0</ele><time>2026-04-12T08:34:18.922Z</time></trkpt><trkpt lat="44.855404439793695" lon="13.86358080182432"><ele>8.75</ele><time>2026-04-12T08:34:19.922Z</time></trkpt><trkpt lat="44.8555174345983" lon="13.863611500963081"><ele>9.5</ele><time>2026-04-12T08:34:20.922Z</time></trkpt><trkpt lat="44.85562815393031" lon="13.863647769363139"><ele>10.25</ele><time>2026-04-12T08:34:21.922Z</time></trkpt><trkpt lat="44.85574338668155" lon="13.863685131050534"><ele>11.0</ele><time>2026-04-12T08:34:22.922Z</time></trkpt><trkpt lat="44.85586094889834" lon="13.863716606565255"><ele>11.5</ele><time>2026-04-12T08:34:23.922Z</time></trkpt><trkpt lat="44.855976178744605" lon="13.8637499965269"><ele>12.0</ele><time>2026-04-12T08:34:24.921Z</time></trkpt><trkpt lat="44.856096648534496" lon="13.86377296891369"><ele>12.5</ele><time>2026-04-12T08:34:25.921Z</time></trkpt><trkpt lat="44.856216890484546" lon="13.863792783433617"><ele>13.0</ele><time>2026-04-12T08:34:26.921Z</time></trkpt><trkpt lat="44.856342936224195" lon="13.863809434720764"><ele>13.0</ele><time>2026-04-12T08:34:27.921Z</time></trkpt><trkpt lat="44.85647815145168" lon="13.863822236317796"><ele>13.0</ele><time>2026-04-12T08:34:28.921Z</time></trkpt><trkpt lat="44.856619282513265" lon="13.863828201359302"><ele>13.0</ele><time>2026-04-12T08:34:29.921Z</time></trkpt><trkpt lat="44.856766813033296" lon="13.863829047356859"><ele>13.0</ele><time>2026-04-12T08:34:30.921Z</time></trkpt><trkpt lat="44.85691876974707" lon="13.863823665050473"><ele>14.0</ele><time>2026-04-12T08:34:31.921Z</time></trkpt><trkpt lat="44.85707558286097" lon="13.863811876029843"><ele>15.0</ele><time>2026-04-12T08:34:32.921Z</time></trkpt><trkpt lat="44.857240048065826" lon="13.863793775068304"><ele>16.0</ele><time>2026-04-12T08:34:33.921Z</time></trkpt><trkpt lat="44.857402067670954" lon="13.863764328966873"><ele>16.0</ele><time>2026-04-12T08:34:34.921Z</time></trkpt><trkpt lat="44.857550467349704" lon="13.863730083329918"><ele>16.0</ele><time>2026-04-12T08:34:35.921Z</time></trkpt><trkpt lat="44.857689498257905" lon="13.863691404371952"><ele>16.0</ele><time>2026-04-12T08:34:36.92Z</time></trkpt><trkpt lat="44.85782315723909" lon="13.86366011719625"><ele>16.0</ele><time>2026-04-12T08:34:37.92Z</time></trkpt><trkpt lat="44.85795941163185" lon="13.86361937973582"><ele>16.0</ele><time>2026-04-12T08:34:38.92Z</time></trkpt><trkpt lat="44.85808417484526" lon="13.863585464933058"><ele>16.0</ele><time>2026-04-12T08:34:39.92Z</time></trkpt><trkpt lat="44.85822113995484" lon="13.863552366599055"><ele>16.0</ele><time>2026-04-12T08:34:40.921Z</time></trkpt><trkpt lat="44.858346625972636" lon="13.863516468601127"><ele>16.0</ele><time>2026-04-12T08:34:41.921Z</time></trkpt><trkpt lat="44.85847569464942" lon="13.86348716838755"><ele>16.0</ele><time>2026-04-12T08:34:42.921Z</time></trkpt><trkpt lat="44.858610511764084" lon="13.863456163620882"><ele>16.0</ele><time>2026-04-12T08:34:43.92Z</time></trkpt><trkpt lat="44.8587493382732" lon="13.863434942097728"><ele>16.0</ele><time>2026-04-12T08:34:44.92Z</time></trkpt><trkpt lat="44.858886609304975" lon="13.863415546629863"><ele>16.0</ele><time>2026-04-12T08:34:45.92Z</time></trkpt><trkpt lat="44.85902929035284" lon="13.863402101995279"><ele>15.75</ele><time>2026-04-12T08:34:46.92Z</time></trkpt><trkpt lat="44.859171627904594" lon="13.86340089421778"><ele>15.5</ele><time>2026-04-12T08:34:47.92Z</time></trkpt><trkpt lat="44.859307516580785" lon="13.863407563879445"><ele>15.25</ele><time>2026-04-12T08:34:48.92Z</time></trkpt><trkpt lat="44.85943796000886" lon="13.863417061845306"><ele>15.0</ele><time>2026-04-12T08:34:49.92Z</time></trkpt><trkpt lat="44.85955570997102" lon="13.863424972556468"><ele>14.6</ele><time>2026-04-12T08:34:50.92Z</time></trkpt><trkpt lat="44.85966088307883" lon="13.863444948467377"><ele>14.2</ele><time>2026-04-12T08:34:51.92Z</time></trkpt><trkpt lat="44.85975805370493" lon="13.863473743199926"><ele>13.8</ele><time>2026-04-12T08:34:52.92Z</time></trkpt><trkpt lat="44.8598514565469" lon="13.863524712267692"><ele>13.4</ele><time>2026-04-12T08:34:53.92Z</time></trkpt><trkpt lat="44.859943035972634" lon="13.863578668697567"><ele>13.0</ele><time>2026-04-12T08:34:54.92Z</time></trkpt><trkpt lat="44.86003298270769" lon="13.863642642643196"><ele>11.25</ele><time>2026-04-12T08:34:55.92Z</time></trkpt><trkpt lat="44.860133844382894" lon="13.863715738953566"><ele>9.5</ele><time>2026-04-12T08:34:56.92Z</time></trkpt><trkpt lat="44.86024417341382" lon="13.863785362809223"><ele>7.75</ele><time>2026-04-12T08:34:57.92Z</time></trkpt><trkpt lat="44.86036118250427" lon="13.863846671195864"><ele>6.0</ele><time>2026-04-12T08:34:58.92Z</time></trkpt><trkpt lat="44.86049388540188" lon="13.86392174580829"><ele>6.0</ele><time>2026-04-12T08:34:59.92Z</time></trkpt><trkpt lat="44.86063794907594" lon="13.863996501188163"><ele>6.0</ele><time>2026-04-12T08:35:00.92Z</time></trkpt><trkpt lat="44.86078522531871" lon="13.864091106649521"><ele>6.0</ele><time>2026-04-12T08:35:01.92Z</time></trkpt><trkpt lat="44.860933302235146" lon="13.864202516773707"><ele>5.75</ele><time>2026-04-12T08:35:02.92Z</time></trkpt><trkpt lat="44.861065604398455" lon="13.864310416049044"><ele>5.5</ele><time>2026-04-12T08:35:03.92Z</time></trkpt><trkpt lat="44.86117776400032" lon="13.864416729556561"><ele>5.25</ele><time>2026-04-12T08:35:04.92Z</time></trkpt><trkpt lat="44.86127043288124" lon="13.864526302750132"><ele>5.0</ele><time>2026-04-12T08:35:05.92Z</time></trkpt><trkpt lat="44.86133421259575" lon="13.864623867562731"><ele>5.0</ele><time>2026-04-12T08:35:06.92Z</time></trkpt><trkpt lat="44.86136339523767" lon="13.86473048134614"><ele>5.0</ele><time>2026-04-12T08:35:07.92Z</time></trkpt><trkpt lat="44.861389244100245" lon="13.864862965928385"><ele>5.0</ele><time>2026-04-12T08:35:08.92Z</time></trkpt><trkpt lat="44.86140777067511" lon="13.865003338652125"><ele>5.0</ele><time>2026-04-12T08:35:09.92Z</time></trkpt><trkpt lat="44.861428585645534" lon="13.865129631271055"><ele>5.0</ele><time>2026-04-12T08:35:10.92Z</time></trkpt><trkpt lat="44.86146254033718" lon="13.865231410774213"><ele>5.0</ele><time>2026-04-12T08:35:11.92Z</time></trkpt><trkpt lat="44.861519077891614" lon="13.865308963091698"><ele>5.0</ele><time>2026-04-12T08:35:12.92Z</time></trkpt><trkpt lat="44.861594696549815" lon="13.865363458048625"><ele>5.0</ele><time>2026-04-12T08:35:13.92Z</time></trkpt><trkpt lat="44.86177214591883" lon="13.865417674481264"><ele>5.0</ele><time>2026-04-12T08:35:15.92Z</time></trkpt><trkpt lat="44.86187138423953" lon="13.865429454341845"><ele>5.0</ele><time>2026-04-12T08:35:16.92Z</time></trkpt><trkpt lat="44.861977114550115" lon="13.865463223784438"><ele>4.75</ele><time>2026-04-12T08:35:17.92Z</time></trkpt><trkpt lat="44.862077356204125" lon="13.865571586501112"><ele>4.5</ele><time>2026-04-12T08:35:18.92Z</time></trkpt><trkpt lat="44.862181401784696" lon="13.86570621176913"><ele>4.25</ele><time>2026-04-12T08:35:19.92Z</time></trkpt><trkpt lat="44.86228883652458" lon="13.865855398401916"><ele>4.0</ele><time>2026-04-12T08:35:20.92Z</time></trkpt><trkpt lat="44.86239083949836" lon="13.866009314368393"><ele>5.0</ele><time>2026-04-12T08:35:21.92Z</time></trkpt><trkpt lat="44.86250523719483" lon="13.86617601388389"><ele>6.0</ele><time>2026-04-12T08:35:22.92Z</time></trkpt><trkpt lat="44.862630433983576" lon="13.866353691109817"><ele>7.0</ele><time>2026-04-12T08:35:23.92Z</time></trkpt><trkpt lat="44.86276488849571" lon="13.866540451926227"><ele>7.333333333333334</ele><time>2026-04-12T08:35:24.92Z</time></trkpt><trkpt lat="44.862886466633086" lon="13.866729037870709"><ele>7.666666666666666</ele><time>2026-04-12T08:35:25.92Z</time></trkpt><trkpt lat="44.86300050751401" lon="13.866911079761763"><ele>8.0</ele><time>2026-04-12T08:35:26.92Z</time></trkpt><trkpt lat="44.863127280457554" lon="13.867093103384198"><ele>8.0</ele><time>2026-04-12T08:35:27.92Z</time></trkpt><trkpt lat="44.8632545555666" lon="13.867261569545786"><ele>8.0</ele><time>2026-04-12T08:35:28.92Z</time></trkpt><trkpt lat="44.86339223342412" lon="13.867432094591308"><ele>8.0</ele><time>2026-04-12T08:35:29.92Z</time></trkpt><trkpt lat="44.86352495134575" lon="13.867607965054704"><ele>9.0</ele><time>2026-04-12T08:35:30.92Z</time></trkpt><trkpt lat="44.86367048187449" lon="13.867774220256294"><ele>10.0</ele><time>2026-04-12T08:35:31.92Z</time></trkpt><trkpt lat="44.863807364238056" lon="13.867942263907215"><ele>11.0</ele><time>2026-04-12T08:35:32.92Z</time></trkpt><trkpt lat="44.86395461789687" lon="13.868103660949448"><ele>11.0</ele><time>2026-04-12T08:35:33.92Z</time></trkpt><trkpt lat="44.86410522226966" lon="13.868259152698114"><ele>11.0</ele><time>2026-04-12T08:35:34.92Z</time></trkpt><trkpt lat="44.86425946071969" lon="13.8684076149341"><ele>11.0</ele><time>2026-04-12T08:35:35.92Z</time></trkpt><trkpt lat="44.8644174197606" lon="13.868543301085246"><ele>11.333333333333332</ele><time>2026-04-12T08:35:36.92Z</time></trkpt><trkpt lat="44.864578011378725" lon="13.868670494872191"><ele>11.666666666666666</ele><time>2026-04-12T08:35:37.92Z</time></trkpt><trkpt lat="44.864744151758224" lon="13.868784322963638"><ele>12.0</ele><time>2026-04-12T08:35:38.92Z</time></trkpt><trkpt lat="44.86491202775108" lon="13.868890007766609"><ele>12.0</ele><time>2026-04-12T08:35:39.92Z</time></trkpt><trkpt lat="44.86507614702517" lon="13.868990665882935"><ele>12.0</ele><time>2026-04-12T08:35:40.92Z</time></trkpt><trkpt lat="44.86524070976382" lon="13.869086034988818"><ele>12.0</ele><time>2026-04-12T08:35:41.919Z</time></trkpt><trkpt lat="44.86540315700699" lon="13.869171123000344"><ele>11.666666666666666</ele><time>2026-04-12T08:35:42.919Z</time></trkpt><trkpt lat="44.86556528517319" lon="13.869242853533793"><ele>11.333333333333332</ele><time>2026-04-12T08:35:43.919Z</time></trkpt><trkpt lat="44.865722177596766" lon="13.869307432426728"><ele>11.0</ele><time>2026-04-12T08:35:44.919Z</time></trkpt><trkpt lat="44.86587398043362" lon="13.869358174212445"><ele>12.333333333333332</ele><time>2026-04-12T08:35:45.919Z</time></trkpt><trkpt lat="44.86602763151141" lon="13.869406722752048"><ele>13.666666666666666</ele><time>2026-04-12T08:35:46.919Z</time></trkpt><trkpt lat="44.86618026363961" lon="13.86944852025728"><ele>15.0</ele><time>2026-04-12T08:35:47.919Z</time></trkpt><trkpt lat="44.86632400468032" lon="13.869485922856853"><ele>15.0</ele><time>2026-04-12T08:35:48.919Z</time></trkpt><trkpt lat="44.86645354366257" lon="13.869508248336459"><ele>15.0</ele><time>2026-04-12T08:35:49.919Z</time></trkpt><trkpt lat="44.866585152206234" lon="13.869531054513464"><ele>15.0</ele><time>2026-04-12T08:35:50.919Z</time></trkpt><trkpt lat="44.86670858264316" lon="13.869545825474779"><ele>15.0</ele><time>2026-04-12T08:35:51.919Z</time></trkpt><trkpt lat="44.866821870234716" lon="13.869559131588916"><ele>14.6</ele><time>2026-04-12T08:35:52.919Z</time></trkpt><trkpt lat="44.866924414913264" lon="13.869569296251342"><ele>14.2</ele><time>2026-04-12T08:35:53.919Z</time></trkpt><trkpt lat="44.86700055738535" lon="13.869577061248382"><ele>13.8</ele><time>2026-04-12T08:35:54.919Z</time></trkpt><trkpt lat="44.86710977056748" lon="13.869580983976249"><ele>13.4</ele><time>2026-04-12T08:35:56.919Z</time></trkpt><trkpt lat="44.867203570711425" lon="13.869610807075484"><ele>13.0</ele><time>2026-04-12T08:35:58.919Z</time></trkpt><trkpt lat="44.86730023546436" lon="13.86971028367127"><ele>13.0</ele><time>2026-04-12T08:36:00.919Z</time></trkpt><trkpt lat="44.86742948238741" lon="13.869778130992216"><ele>13.0</ele><time>2026-04-12T08:36:02.919Z</time></trkpt><trkpt lat="44.86750415075435" lon="13.869772082415544"><ele>13.0</ele><time>2026-04-12T08:36:03.919Z</time></trkpt><trkpt lat="44.86758040255733" lon="13.869737167316881"><ele>13.0</ele><time>2026-04-12T08:36:04.919Z</time></trkpt><trkpt lat="44.867642507641" lon="13.869648528202479"><ele>13.0</ele><time>2026-04-12T08:36:05.919Z</time></trkpt><trkpt lat="44.867699541828834" lon="13.86957859876486"><ele>13.600000000000001</ele><time>2026-04-12T08:36:06.919Z</time></trkpt><trkpt lat="44.867773000812626" lon="13.869552497053434"><ele>14.200000000000001</ele><time>2026-04-12T08:36:07.919Z</time></trkpt><trkpt lat="44.86785617933434" lon="13.869540237507673"><ele>14.8</ele><time>2026-04-12T08:36:08.919Z</time></trkpt><trkpt lat="44.86795807974654" lon="13.869511488446852"><ele>15.4</ele><time>2026-04-12T08:36:09.919Z</time></trkpt><trkpt lat="44.86808223101917" lon="13.86948324968497"><ele>16.0</ele><time>2026-04-12T08:36:10.919Z</time></trkpt><trkpt lat="44.86823479712272" lon="13.869448533691417"><ele>16.0</ele><time>2026-04-12T08:36:11.919Z</time></trkpt><trkpt lat="44.868396865920545" lon="13.869399593576677"><ele>16.0</ele><time>2026-04-12T08:36:12.919Z</time></trkpt><trkpt lat="44.86854759510256" lon="13.869361463634279"><ele>16.0</ele><time>2026-04-12T08:36:13.919Z</time></trkpt><trkpt lat="44.868708111130914" lon="13.869331118024443"><ele>16.0</ele><time>2026-04-12T08:36:14.919Z</time></trkpt><trkpt lat="44.868884686653665" lon="13.869297326549834"><ele>16.0</ele><time>2026-04-12T08:36:15.919Z</time></trkpt><trkpt lat="44.86906653735298" lon="13.86924947945034"><ele>16.0</ele><time>2026-04-12T08:36:16.919Z</time></trkpt><trkpt lat="44.86923448375081" lon="13.869204762495214"><ele>17.0</ele><time>2026-04-12T08:36:17.919Z</time></trkpt><trkpt lat="44.869403466165046" lon="13.869161613034992"><ele>18.0</ele><time>2026-04-12T08:36:18.919Z</time></trkpt><trkpt lat="44.869577404488375" lon="13.869115811297048"><ele>19.0</ele><time>2026-04-12T08:36:19.919Z</time></trkpt><trkpt lat="44.86975966381085" lon="13.869065038382558"><ele>19.0</ele><time>2026-04-12T08:36:20.919Z</time></trkpt><trkpt lat="44.86994317404204" lon="13.869025169284358"><ele>19.0</ele><time>2026-04-12T08:36:21.919Z</time></trkpt><trkpt lat="44.87012523797047" lon="13.868978771157476"><ele>19.0</ele><time>2026-04-12T08:36:22.919Z</time></trkpt><trkpt lat="44.87030783166531" lon="13.868938861932248"><ele>19.0</ele><time>2026-04-12T08:36:23.919Z</time></trkpt><trkpt lat="44.870484743132884" lon="13.868891153703771"><ele>19.0</ele><time>2026-04-12T08:36:24.919Z</time></trkpt><trkpt lat="44.87065665081765" lon="13.868848876722371"><ele>19.0</ele><time>2026-04-12T08:36:25.919Z</time></trkpt><trkpt lat="44.87082809388967" lon="13.86880323725555"><ele>18.666666666666664</ele><time>2026-04-12T08:36:26.919Z</time></trkpt><trkpt lat="44.8709997194819" lon="13.868755950793613"><ele>18.333333333333332</ele><time>2026-04-12T08:36:27.919Z</time></trkpt><trkpt lat="44.871170526714515" lon="13.868709214862863"><ele>18.0</ele><time>2026-04-12T08:36:28.919Z</time></trkpt><trkpt lat="44.871344101363775" lon="13.868671466147203"><ele>18.0</ele><time>2026-04-12T08:36:29.919Z</time></trkpt><trkpt lat="44.871513322374" lon="13.868628021719996"><ele>18.0</ele><time>2026-04-12T08:36:30.919Z</time></trkpt><trkpt lat="44.8716837442" lon="13.86858279728662"><ele>18.0</ele><time>2026-04-12T08:36:31.919Z</time></trkpt><trkpt lat="44.871856253355915" lon="13.868535717605875"><ele>17.666666666666668</ele><time>2026-04-12T08:36:32.919Z</time></trkpt><trkpt lat="44.872034447873816" lon="13.868487270233821"><ele>17.333333333333336</ele><time>2026-04-12T08:36:33.919Z</time></trkpt><trkpt lat="44.87222483743149" lon="13.868441392107316"><ele>17.0</ele><time>2026-04-12T08:36:34.919Z</time></trkpt><trkpt lat="44.872414459765004" lon="13.868398630020494"><ele>16.666666666666668</ele><time>2026-04-12T08:36:35.919Z</time></trkpt><trkpt lat="44.87260392240032" lon="13.868350336563129"><ele>16.333333333333332</ele><time>2026-04-12T08:36:36.919Z</time></trkpt><trkpt lat="44.87278423864638" lon="13.868304024360128"><ele>16.0</ele><time>2026-04-12T08:36:37.919Z</time></trkpt><trkpt lat="44.872961019696035" lon="13.868258084763651"><ele>16.0</ele><time>2026-04-12T08:36:38.919Z</time></trkpt><trkpt lat="44.87313420218955" lon="13.86821318079541"><ele>16.0</ele><time>2026-04-12T08:36:39.917Z</time></trkpt><trkpt lat="44.87331519447352" lon="13.868164656120955"><ele>16.0</ele><time>2026-04-12T08:36:40.916Z</time></trkpt><trkpt lat="44.8734960563735" lon="13.868113789009676"><ele>16.0</ele><time>2026-04-12T08:36:41.916Z</time></trkpt><trkpt lat="44.87367966675236" lon="13.86806462693311"><ele>16.0</ele><time>2026-04-12T08:36:42.916Z</time></trkpt><trkpt lat="44.8738564717111" lon="13.868018258342273"><ele>16.0</ele><time>2026-04-12T08:36:43.917Z</time></trkpt><trkpt lat="44.87402909579864" lon="13.867969912082687"><ele>16.0</ele><time>2026-04-12T08:36:44.917Z</time></trkpt><trkpt lat="44.874198576219776" lon="13.867928126150685"><ele>16.0</ele><time>2026-04-12T08:36:45.916Z</time></trkpt><trkpt lat="44.87436470630017" lon="13.867882126857557"><ele>16.0</ele><time>2026-04-12T08:36:46.916Z</time></trkpt><trkpt lat="44.87452877315715" lon="13.867838238219415"><ele>17.0</ele><time>2026-04-12T08:36:47.916Z</time></trkpt><trkpt lat="44.8746881813806" lon="13.86779867706215"><ele>18.0</ele><time>2026-04-12T08:36:48.917Z</time></trkpt><trkpt lat="44.874845524831045" lon="13.867755326346687"><ele>19.0</ele><time>2026-04-12T08:36:49.917Z</time></trkpt><trkpt lat="44.87500144182811" lon="13.867719316228916"><ele>20.0</ele><time>2026-04-12T08:36:50.917Z</time></trkpt><trkpt lat="44.875153501050555" lon="13.86768326402698"><ele>21.0</ele><time>2026-04-12T08:36:51.916Z</time></trkpt><trkpt lat="44.875310997224766" lon="13.867645658663504"><ele>22.0</ele><time>2026-04-12T08:36:52.917Z</time></trkpt><trkpt lat="44.875468443812885" lon="13.867600449506256"><ele>22.0</ele><time>2026-04-12T08:36:53.917Z</time></trkpt><trkpt lat="44.8756121026901" lon="13.867551410378065"><ele>22.0</ele><time>2026-04-12T08:36:54.917Z</time></trkpt><trkpt lat="44.87574509384782" lon="13.867507782258231"><ele>22.0</ele><time>2026-04-12T08:36:55.917Z</time></trkpt><trkpt lat="44.875859079181204" lon="13.867481953314803"><ele>22.0</ele><time>2026-04-12T08:36:56.917Z</time></trkpt><trkpt lat="44.87596886533749" lon="13.86746961794351"><ele>22.0</ele><time>2026-04-12T08:36:57.917Z</time></trkpt><trkpt lat="44.87607601109204" lon="13.867473789067216"><ele>22.0</ele><time>2026-04-12T08:36:58.917Z</time></trkpt><trkpt lat="44.87617338579844" lon="13.867494508051692"><ele>22.0</ele><time>2026-04-12T08:36:59.917Z</time></trkpt><trkpt lat="44.876264362895306" lon="13.86749641627945"><ele>22.0</ele><time>2026-04-12T08:37:00.917Z</time></trkpt><trkpt lat="44.8763520878368" lon="13.86745282330173"><ele>22.0</ele><time>2026-04-12T08:37:01.917Z</time></trkpt><trkpt lat="44.87642974864505" lon="13.867378402028598"><ele>22.0</ele><time>2026-04-12T08:37:02.917Z</time></trkpt><trkpt lat="44.87650837232136" lon="13.86729271715744"><ele>22.0</ele><time>2026-04-12T08:37:03.917Z</time></trkpt><trkpt lat="44.876621685202316" lon="13.867214453686795"><ele>22.0</ele><time>2026-04-12T08:37:04.917Z</time></trkpt><trkpt lat="44.87676225788468" lon="13.867148001835663"><ele>22.0</ele><time>2026-04-12T08:37:05.917Z</time></trkpt><trkpt lat="44.876927276845734" lon="13.867076992886831"><ele>22.0</ele><time>2026-04-12T08:37:06.917Z</time></trkpt><trkpt lat="44.87707910823655" lon="13.86699625341285"><ele>22.0</ele><time>2026-04-12T08:37:07.917Z</time></trkpt><trkpt lat="44.87722113653366" lon="13.866908847181442"><ele>22.0</ele><time>2026-04-12T08:37:08.916Z</time></trkpt><trkpt lat="44.87736816296964" lon="13.866811912640976"><ele>20.666666666666664</ele><time>2026-04-12T08:37:09.916Z</time></trkpt><trkpt lat="44.87751921967392" lon="13.86671288772202"><ele>19.333333333333332</ele><time>2026-04-12T08:37:10.916Z</time></trkpt><trkpt lat="44.87767059758111" lon="13.866613259337454"><ele>18.0</ele><time>2026-04-12T08:37:11.916Z</time></trkpt><trkpt lat="44.87782133870956" lon="13.866504734724566"><ele>18.0</ele><time>2026-04-12T08:37:12.916Z</time></trkpt><trkpt lat="44.87796778848189" lon="13.866391583046655"><ele>18.0</ele><time>2026-04-12T08:37:13.916Z</time></trkpt><trkpt lat="44.87810755826555" lon="13.866276855536446"><ele>18.0</ele><time>2026-04-12T08:37:14.916Z</time></trkpt><trkpt lat="44.878242007363035" lon="13.866168417842763"><ele>18.0</ele><time>2026-04-12T08:37:15.916Z</time></trkpt><trkpt lat="44.87836884410677" lon="13.866068349220596"><ele>18.0</ele><time>2026-04-12T08:37:16.916Z</time></trkpt><trkpt lat="44.87849361505964" lon="13.865977582671484"><ele>18.0</ele><time>2026-04-12T08:37:17.916Z</time></trkpt><trkpt lat="44.878613998328156" lon="13.865891817188214"><ele>18.0</ele><time>2026-04-12T08:37:18.916Z</time></trkpt><trkpt lat="44.87873129499422" lon="13.865812597273365"><ele>17.25</ele><time>2026-04-12T08:37:19.916Z</time></trkpt><trkpt lat="44.878852606463845" lon="13.865743968455936"><ele>16.5</ele><time>2026-04-12T08:37:20.916Z</time></trkpt><trkpt lat="44.87897683719857" lon="13.865690677504057"><ele>15.75</ele><time>2026-04-12T08:37:21.916Z</time></trkpt><trkpt lat="44.8791073505206" lon="13.865636708808317"><ele>15.0</ele><time>2026-04-12T08:37:22.916Z</time></trkpt><trkpt lat="44.87924138364826" lon="13.865563903845217"><ele>15.0</ele><time>2026-04-12T08:37:23.916Z</time></trkpt><trkpt lat="44.87936499308609" lon="13.865470994721393"><ele>15.0</ele><time>2026-04-12T08:37:24.916Z</time></trkpt><trkpt lat="44.87949152083897" lon="13.865365298986264"><ele>15.0</ele><time>2026-04-12T08:37:25.916Z</time></trkpt><trkpt lat="44.87961835807176" lon="13.865266534231608"><ele>15.0</ele><time>2026-04-12T08:37:26.916Z</time></trkpt><trkpt lat="44.879746668861905" lon="13.865170011817666"><ele>14.75</ele><time>2026-04-12T08:37:27.916Z</time></trkpt><trkpt lat="44.87986740428495" lon="13.865082714172106"><ele>14.5</ele><time>2026-04-12T08:37:28.916Z</time></trkpt><trkpt lat="44.879984730063654" lon="13.865009499939426"><ele>14.25</ele><time>2026-04-12T08:37:29.916Z</time></trkpt><trkpt lat="44.88009324673933" lon="13.86496822626783"><ele>14.0</ele><time>2026-04-12T08:37:30.916Z</time></trkpt><trkpt lat="44.880174857985196" lon="13.864966881283081"><ele>14.0</ele><time>2026-04-12T08:37:31.916Z</time></trkpt><trkpt lat="44.88024630653564" lon="13.864974823212318"><ele>13.999999999999998</ele><time>2026-04-12T08:37:32.916Z</time></trkpt><trkpt lat="44.88032250048447" lon="13.86499153053382"><ele>13.999999999999998</ele><time>2026-04-12T08:37:33.916Z</time></trkpt><trkpt lat="44.88040931498967" lon="13.86502597469871"><ele>14.0</ele><time>2026-04-12T08:37:34.916Z</time></trkpt><trkpt lat="44.88049935041107" lon="13.865081542561411"><ele>14.0</ele><time>2026-04-12T08:37:35.916Z</time></trkpt><trkpt lat="44.880605931402535" lon="13.86513453119557"><ele>14.0</ele><time>2026-04-12T08:37:36.916Z</time></trkpt><trkpt lat="44.88072470864257" lon="13.86516600280682"><ele>14.0</ele><time>2026-04-12T08:37:37.916Z</time></trkpt><trkpt lat="44.88087206755714" lon="13.865159006479745"><ele>14.0</ele><time>2026-04-12T08:37:38.916Z</time></trkpt><trkpt lat="44.88102974405902" lon="13.865105006175972"><ele>14.0</ele><time>2026-04-12T08:37:39.916Z</time></trkpt><trkpt lat="44.88116809541043" lon="13.865002638668095"><ele>14.0</ele><time>2026-04-12T08:37:40.916Z</time></trkpt><trkpt lat="44.881280260294595" lon="13.864874006643296"><ele>14.0</ele><time>2026-04-12T08:37:41.916Z</time></trkpt><trkpt lat="44.881365081317774" lon="13.864724780321799"><ele>14.0</ele><time>2026-04-12T08:37:42.916Z</time></trkpt><trkpt lat="44.881420202846954" lon="13.864554194493802"><ele>14.0</ele><time>2026-04-12T08:37:43.916Z</time></trkpt><trkpt lat="44.88145829885101" lon="13.864372673009058"><ele>13.5</ele><time>2026-04-12T08:37:44.916Z</time></trkpt><trkpt lat="44.881478605079835" lon="13.864180253565685"><ele>13.0</ele><time>2026-04-12T08:37:45.916Z</time></trkpt><trkpt lat="44.88151924381634" lon="13.863991906919182"><ele>12.5</ele><time>2026-04-12T08:37:46.916Z</time></trkpt><trkpt lat="44.881596398582445" lon="13.863821556367684"><ele>12.0</ele><time>2026-04-12T08:37:47.916Z</time></trkpt><trkpt lat="44.881710970128545" lon="13.863690690864972"><ele>12.666666666666668</ele><time>2026-04-12T08:37:48.916Z</time></trkpt><trkpt lat="44.88185459100973" lon="13.863591494899424"><ele>13.333333333333334</ele><time>2026-04-12T08:37:49.916Z</time></trkpt><trkpt lat="44.88199305043985" lon="13.863486050287507"><ele>14.0</ele><time>2026-04-12T08:37:50.916Z</time></trkpt><trkpt lat="44.88213371837594" lon="13.863375455533708"><ele>14.0</ele><time>2026-04-12T08:37:51.916Z</time></trkpt><trkpt lat="44.88227227604661" lon="13.863253359582407"><ele>14.0</ele><time>2026-04-12T08:37:52.916Z</time></trkpt><trkpt lat="44.882400219174684" lon="13.863134538817514"><ele>14.0</ele><time>2026-04-12T08:37:53.916Z</time></trkpt><trkpt lat="44.88253144630215" lon="13.863008616922377"><ele>14.333333333333334</ele><time>2026-04-12T08:37:54.916Z</time></trkpt><trkpt lat="44.88266414269321" lon="13.8628802206222"><ele>14.666666666666668</ele><time>2026-04-12T08:37:55.916Z</time></trkpt><trkpt lat="44.88279787411458" lon="13.862750342322508"><ele>15.0</ele><time>2026-04-12T08:37:56.916Z</time></trkpt><trkpt lat="44.88293291685845" lon="13.862613116448898"><ele>15.0</ele><time>2026-04-12T08:37:57.916Z</time></trkpt><trkpt lat="44.8830616444936" lon="13.862468899666357"><ele>15.0</ele><time>2026-04-12T08:37:58.916Z</time></trkpt><trkpt lat="44.88319415723494" lon="13.862312649362005"><ele>15.0</ele><time>2026-04-12T08:37:59.916Z</time></trkpt><trkpt lat="44.88332865541073" lon="13.862158183787157"><ele>15.333333333333332</ele><time>2026-04-12T08:38:00.916Z</time></trkpt><trkpt lat="44.88346822201246" lon="13.86201049454771"><ele>15.666666666666666</ele><time>2026-04-12T08:38:01.916Z</time></trkpt><trkpt lat="44.883609207904456" lon="13.861870500509488"><ele>16.0</ele><time>2026-04-12T08:38:02.916Z</time></trkpt><trkpt lat="44.883753817446596" lon="13.86173018134861"><ele>16.0</ele><time>2026-04-12T08:38:03.916Z</time></trkpt><trkpt lat="44.88389439437259" lon="13.861583387923119"><ele>16.0</ele><time>2026-04-12T08:38:04.916Z</time></trkpt><trkpt lat="44.88403556663106" lon="13.861424583760215"><ele>16.0</ele><time>2026-04-12T08:38:05.916Z</time></trkpt><trkpt lat="44.88417198239486" lon="13.861255766110803"><ele>16.0</ele><time>2026-04-12T08:38:06.916Z</time></trkpt><trkpt lat="44.88430153390754" lon="13.86108338538905"><ele>16.0</ele><time>2026-04-12T08:38:07.916Z</time></trkpt><trkpt lat="44.88443283121547" lon="13.860909902086881"><ele>16.0</ele><time>2026-04-12T08:38:08.916Z</time></trkpt><trkpt lat="44.884560411527914" lon="13.860728284613005"><ele>16.333333333333332</ele><time>2026-04-12T08:38:09.916Z</time></trkpt><trkpt lat="44.884685688327146" lon="13.860544554891293"><ele>16.666666666666668</ele><time>2026-04-12T08:38:10.916Z</time></trkpt><trkpt lat="44.88480798765662" lon="13.860358783407273"><ele>17.0</ele><time>2026-04-12T08:38:11.916Z</time></trkpt><trkpt lat="44.88492512541353" lon="13.86016799611134"><ele>17.0</ele><time>2026-04-12T08:38:12.916Z</time></trkpt><trkpt lat="44.8850377398465" lon="13.859967610749305"><ele>17.0</ele><time>2026-04-12T08:38:13.915Z</time></trkpt><trkpt lat="44.88513756318028" lon="13.859753847010522"><ele>17.0</ele><time>2026-04-12T08:38:14.915Z</time></trkpt><trkpt lat="44.88523393869925" lon="13.859538489991849"><ele>17.0</ele><time>2026-04-12T08:38:15.915Z</time></trkpt><trkpt lat="44.88532418738713" lon="13.859324099960796"><ele>17.0</ele><time>2026-04-12T08:38:16.915Z</time></trkpt><trkpt lat="44.88540464203606" lon="13.859111494094225"><ele>17.0</ele><time>2026-04-12T08:38:17.915Z</time></trkpt><trkpt lat="44.88547757915579" lon="13.858902017454021"><ele>17.25</ele><time>2026-04-12T08:38:18.915Z</time></trkpt><trkpt lat="44.88553845695995" lon="13.858706024162254"><ele>17.5</ele><time>2026-04-12T08:38:19.915Z</time></trkpt><trkpt lat="44.88559079926291" lon="13.858523012250396"><ele>17.75</ele><time>2026-04-12T08:38:20.915Z</time></trkpt><trkpt lat="44.88564056895833" lon="13.858353173847188"><ele>18.0</ele><time>2026-04-12T08:38:21.915Z</time></trkpt><trkpt lat="44.88568822673863" lon="13.858193052559507"><ele>18.4</ele><time>2026-04-12T08:38:22.915Z</time></trkpt><trkpt lat="44.885750328180706" lon="13.858052987886786"><ele>18.8</ele><time>2026-04-12T08:38:23.915Z</time></trkpt><trkpt lat="44.88578523672306" lon="13.857905875652827"><ele>19.2</ele><time>2026-04-12T08:38:24.915Z</time></trkpt><trkpt lat="44.8858170729176" lon="13.857766143302507"><ele>19.6</ele><time>2026-04-12T08:38:25.915Z</time></trkpt><trkpt lat="44.88585072122766" lon="13.857636037820704"><ele>20.0</ele><time>2026-04-12T08:38:26.915Z</time></trkpt><trkpt lat="44.88588571275683" lon="13.857512945948704"><ele>20.2</ele><time>2026-04-12T08:38:27.915Z</time></trkpt><trkpt lat="44.88592144502689" lon="13.857401746757231"><ele>20.4</ele><time>2026-04-12T08:38:28.915Z</time></trkpt><trkpt lat="44.88594569061074" lon="13.857279648675261"><ele>20.6</ele><time>2026-04-12T08:38:29.915Z</time></trkpt><trkpt lat="44.88595812112551" lon="13.857147803766914"><ele>20.8</ele><time>2026-04-12T08:38:30.915Z</time></trkpt><trkpt lat="44.88596381959699" lon="13.857006958164009"><ele>21.0</ele><time>2026-04-12T08:38:31.915Z</time></trkpt><trkpt lat="44.88597632415865" lon="13.856851044447387"><ele>19.666666666666668</ele><time>2026-04-12T08:38:32.915Z</time></trkpt><trkpt lat="44.8859934798237" lon="13.856656126998452"><ele>18.333333333333336</ele><time>2026-04-12T08:38:33.915Z</time></trkpt><trkpt lat="44.88601268328446" lon="13.856435218714056"><ele>17.0</ele><time>2026-04-12T08:38:34.915Z</time></trkpt><trkpt lat="44.886032043858215" lon="13.856196208180283"><ele>17.0</ele><time>2026-04-12T08:38:35.915Z</time></trkpt><trkpt lat="44.88604414273461" lon="13.855976462375967"><ele>17.0</ele><time>2026-04-12T08:38:36.915Z</time></trkpt><trkpt lat="44.886049649993296" lon="13.855749879984112"><ele>17.0</ele><time>2026-04-12T08:38:37.915Z</time></trkpt><trkpt lat="44.88605454887688" lon="13.855507972245698"><ele>16.666666666666668</ele><time>2026-04-12T08:38:38.915Z</time></trkpt><trkpt lat="44.88605615759176" lon="13.85525026397328"><ele>16.333333333333332</ele><time>2026-04-12T08:38:39.915Z</time></trkpt><trkpt lat="44.88605059385803" lon="13.854979425909029"><ele>16.0</ele><time>2026-04-12T08:38:40.915Z</time></trkpt><trkpt lat="44.88603441667527" lon="13.854713256537966"><ele>16.0</ele><time>2026-04-12T08:38:41.915Z</time></trkpt><trkpt lat="44.886010172247055" lon="13.854460565918544"><ele>16.0</ele><time>2026-04-12T08:38:42.915Z</time></trkpt><trkpt lat="44.88598435562649" lon="13.854216832989268"><ele>16.0</ele><time>2026-04-12T08:38:43.915Z</time></trkpt><trkpt lat="44.885953770969145" lon="13.853978439637174"><ele>16.333333333333332</ele><time>2026-04-12T08:38:44.915Z</time></trkpt><trkpt lat="44.885921635495556" lon="13.853741842557444"><ele>16.666666666666668</ele><time>2026-04-12T08:38:45.913Z</time></trkpt><trkpt lat="44.885888691197856" lon="13.85351212039336"><ele>17.0</ele><time>2026-04-12T08:38:46.914Z</time></trkpt><trkpt lat="44.88585511397162" lon="13.853288905422488"><ele>16.333333333333336</ele><time>2026-04-12T08:38:47.914Z</time></trkpt><trkpt lat="44.88581978080387" lon="13.853069822504825"><ele>15.666666666666668</ele><time>2026-04-12T08:38:48.914Z</time></trkpt><trkpt lat="44.88578612142219" lon="13.85285495085454"><ele>15.0</ele><time>2026-04-12T08:38:49.913Z</time></trkpt><trkpt lat="44.885748977745244" lon="13.852644210184497"><ele>14.0</ele><time>2026-04-12T08:38:50.913Z</time></trkpt><trkpt lat="44.885702567539816" lon="13.852436795005163"><ele>13.0</ele><time>2026-04-12T08:38:51.914Z</time></trkpt><trkpt lat="44.88565861772007" lon="13.852232797578308"><ele>12.0</ele><time>2026-04-12T08:38:52.913Z</time></trkpt><trkpt lat="44.88561888715149" lon="13.852024866883877"><ele>12.0</ele><time>2026-04-12T08:38:53.913Z</time></trkpt><trkpt lat="44.88558545682098" lon="13.85183529183475"><ele>12.0</ele><time>2026-04-12T08:38:54.913Z</time></trkpt><trkpt lat="44.88556385983495" lon="13.851672501489386"><ele>12.0</ele><time>2026-04-12T08:38:55.913Z</time></trkpt><trkpt lat="44.88556593489823" lon="13.851517492176574"><ele>12.0</ele><time>2026-04-12T08:38:56.913Z</time></trkpt><trkpt lat="44.88556095654849" lon="13.851390752229406"><ele>11.5</ele><time>2026-04-12T08:38:57.913Z</time></trkpt><trkpt lat="44.88555547764375" lon="13.85125948961327"><ele>11.0</ele><time>2026-04-12T08:38:58.913Z</time></trkpt><trkpt lat="44.885557578809006" lon="13.851134399937777"><ele>10.5</ele><time>2026-04-12T08:38:59.913Z</time></trkpt><trkpt lat="44.88556181063737" lon="13.851012305278225"><ele>10.0</ele><time>2026-04-12T08:39:00.913Z</time></trkpt><trkpt lat="44.88556539240043" lon="13.85089671213005"><ele>9.5</ele><time>2026-04-12T08:39:01.913Z</time></trkpt><trkpt lat="44.88557356031759" lon="13.850782007420325"><ele>9.0</ele><time>2026-04-12T08:39:02.913Z</time></trkpt><trkpt lat="44.88558112204943" lon="13.850676125396275"><ele>8.833333333333334</ele><time>2026-04-12T08:39:03.913Z</time></trkpt><trkpt lat="44.88560203745768" lon="13.850580235035792"><ele>8.666666666666666</ele><time>2026-04-12T08:39:04.913Z</time></trkpt><trkpt lat="44.88562067392116" lon="13.850491772432004"><ele>8.5</ele><time>2026-04-12T08:39:05.913Z</time></trkpt><trkpt lat="44.88564544420527" lon="13.85039042315268"><ele>8.333333333333332</ele><time>2026-04-12T08:39:06.913Z</time></trkpt><trkpt lat="44.88567504250905" lon="13.850284917330372"><ele>8.166666666666666</ele><time>2026-04-12T08:39:07.913Z</time></trkpt><trkpt lat="44.88571422660344" lon="13.850156579090317"><ele>8.0</ele><time>2026-04-12T08:39:08.913Z</time></trkpt><trkpt lat="44.885768917990454" lon="13.850016728192692"><ele>7.2</ele><time>2026-04-12T08:39:09.913Z</time></trkpt><trkpt lat="44.885820063969256" lon="13.849873110062848"><ele>6.4</ele><time>2026-04-12T08:39:10.913Z</time></trkpt><trkpt lat="44.88587779019144" lon="13.849727988886311"><ele>5.6000000000000005</ele><time>2026-04-12T08:39:11.913Z</time></trkpt><trkpt lat="44.885930160813075" lon="13.849595771999786"><ele>4.800000000000001</ele><time>2026-04-12T08:39:12.913Z</time></trkpt><trkpt lat="44.88599190007494" lon="13.849474457525721"><ele>4.0</ele><time>2026-04-12T08:39:13.913Z</time></trkpt><trkpt lat="44.88607023473257" lon="13.849359061691656"><ele>3.75</ele><time>2026-04-12T08:39:14.913Z</time></trkpt><trkpt lat="44.88615296181317" lon="13.849243018960893"><ele>3.5</ele><time>2026-04-12T08:39:15.913Z</time></trkpt><trkpt lat="44.886247118941974" lon="13.849127205700633"><ele>3.25</ele><time>2026-04-12T08:39:16.913Z</time></trkpt><trkpt lat="44.88634398846183" lon="13.849027089874498"><ele>3.0</ele><time>2026-04-12T08:39:17.913Z</time></trkpt><trkpt lat="44.88644814581277" lon="13.84893086215974"><ele>3.0</ele><time>2026-04-12T08:39:18.913Z</time></trkpt><trkpt lat="44.88655047697085" lon="13.848850494223132"><ele>3.0</ele><time>2026-04-12T08:39:19.913Z</time></trkpt><trkpt lat="44.886655064307725" lon="13.848775712868958"><ele>3.0</ele><time>2026-04-12T08:39:20.913Z</time></trkpt><trkpt lat="44.88675459806205" lon="13.848709073002858"><ele>3.0</ele><time>2026-04-12T08:39:21.913Z</time></trkpt><trkpt lat="44.886853756763706" lon="13.848651063992126"><ele>3.0</ele><time>2026-04-12T08:39:22.913Z</time></trkpt><trkpt lat="44.886948498833505" lon="13.84860022876107"><ele>3.0</ele><time>2026-04-12T08:39:23.913Z</time></trkpt><trkpt lat="44.88704389029677" lon="13.848547217682041"><ele>3.0</ele><time>2026-04-12T08:39:24.913Z</time></trkpt><trkpt lat="44.887137192039695" lon="13.848491396833815"><ele>3.0</ele><time>2026-04-12T08:39:25.913Z</time></trkpt><trkpt lat="44.88723153948081" lon="13.8484350920186"><ele>3.0</ele><time>2026-04-12T08:39:26.913Z</time></trkpt><trkpt lat="44.88731986061818" lon="13.848383203181877"><ele>3.3333333333333335</ele><time>2026-04-12T08:39:27.913Z</time></trkpt><trkpt lat="44.88740197941937" lon="13.848336714903155"><ele>3.666666666666667</ele><time>2026-04-12T08:39:28.913Z</time></trkpt><trkpt lat="44.887478135396044" lon="13.848292086618628"><ele>4.0</ele><time>2026-04-12T08:39:29.913Z</time></trkpt><trkpt lat="44.887550400309294" lon="13.848254268216541"><ele>4.333333333333334</ele><time>2026-04-12T08:39:30.913Z</time></trkpt><trkpt lat="44.88761870574818" lon="13.848226683707262"><ele>4.666666666666667</ele><time>2026-04-12T08:39:31.913Z</time></trkpt><trkpt lat="44.887684760262474" lon="13.848209296180055"><ele>5.0</ele><time>2026-04-12T08:39:32.913Z</time></trkpt><trkpt lat="44.88779690873255" lon="13.848187759155742"><ele>6.0</ele><time>2026-04-12T08:39:34.913Z</time></trkpt><trkpt lat="44.88789761180128" lon="13.848127964629766"><ele>7.0</ele><time>2026-04-12T08:39:36.912Z</time></trkpt><trkpt lat="44.88800601406032" lon="13.848213567836366"><ele>8.0</ele><time>2026-04-12T08:39:37.912Z</time></trkpt><trkpt lat="44.888095777176865" lon="13.84826154969135"><ele>9.0</ele><time>2026-04-12T08:39:38.912Z</time></trkpt><trkpt lat="44.88818529842735" lon="13.848251104388996"><ele>10.0</ele><time>2026-04-12T08:39:39.912Z</time></trkpt><trkpt lat="44.88826191943559" lon="13.848173717499362"><ele>10.0</ele><time>2026-04-12T08:39:40.912Z</time></trkpt><trkpt lat="44.88833263177549" lon="13.848070655489112"><ele>10.0</ele><time>2026-04-12T08:39:41.912Z</time></trkpt><trkpt lat="44.88839898816423" lon="13.847950405789078"><ele>10.0</ele><time>2026-04-12T08:39:42.912Z</time></trkpt><trkpt lat="44.88846153607183" lon="13.847848931819568"><ele>10.0</ele><time>2026-04-12T08:39:43.912Z</time></trkpt><trkpt lat="44.888525985560925" lon="13.847777734000793"><ele>10.0</ele><time>2026-04-12T08:39:44.912Z</time></trkpt><trkpt lat="44.888604918123285" lon="13.847721943966134"><ele>11.0</ele><time>2026-04-12T08:39:45.912Z</time></trkpt><trkpt lat="44.88869846559151" lon="13.84768384045524"><ele>12.0</ele><time>2026-04-12T08:39:46.912Z</time></trkpt><trkpt lat="44.888795862850316" lon="13.847651754537205"><ele>13.0</ele><time>2026-04-12T08:39:47.912Z</time></trkpt><trkpt lat="44.888896157849906" lon="13.847609650812908"><ele>14.0</ele><time>2026-04-12T08:39:48.912Z</time></trkpt><trkpt lat="44.88900538911485" lon="13.847568062969135"><ele>15.0</ele><time>2026-04-12T08:39:49.912Z</time></trkpt><trkpt lat="44.88912044269214" lon="13.847516480337562"><ele>15.6</ele><time>2026-04-12T08:39:50.912Z</time></trkpt><trkpt lat="44.88920311173151" lon="13.847376110338164"><ele>16.2</ele><time>2026-04-12T08:39:51.912Z</time></trkpt><trkpt lat="44.889294791150455" lon="13.84730584985965"><ele>16.8</ele><time>2026-04-12T08:39:52.912Z</time></trkpt><trkpt lat="44.88938100981291" lon="13.847232629360045"><ele>17.4</ele><time>2026-04-12T08:39:53.912Z</time></trkpt><trkpt lat="44.88945792221486" lon="13.84715967259492"><ele>18.0</ele><time>2026-04-12T08:39:54.912Z</time></trkpt><trkpt lat="44.88953487226347" lon="13.847083385752873"><ele>19.6</ele><time>2026-04-12T08:39:55.912Z</time></trkpt><trkpt lat="44.889612724447396" lon="13.84699928346756"><ele>21.200000000000003</ele><time>2026-04-12T08:39:56.912Z</time></trkpt><trkpt lat="44.889689151790854" lon="13.84690687929215"><ele>22.8</ele><time>2026-04-12T08:39:57.912Z</time></trkpt><trkpt lat="44.88977288023079" lon="13.84680188408727"><ele>24.400000000000002</ele><time>2026-04-12T08:39:58.912Z</time></trkpt><trkpt lat="44.88985088535474" lon="13.84669807382815"><ele>26.0</ele><time>2026-04-12T08:39:59.912Z</time></trkpt><trkpt lat="44.889926498570105" lon="13.846597720774563"><ele>25.999999999999996</ele><time>2026-04-12T08:40:00.912Z</time></trkpt><trkpt lat="44.8899925106501" lon="13.846515956889045"><ele>26.0</ele><time>2026-04-12T08:40:01.912Z</time></trkpt><trkpt lat="44.89005716397509" lon="13.846435909997982"><ele>26.0</ele><time>2026-04-12T08:40:02.912Z</time></trkpt><trkpt lat="44.890114413427135" lon="13.846374256853458"><ele>26.0</ele><time>2026-04-12T08:40:03.912Z</time></trkpt><trkpt lat="44.890166367059955" lon="13.846320353443486"><ele>25.999999999999996</ele><time>2026-04-12T08:40:04.912Z</time></trkpt><trkpt lat="44.890226719357194" lon="13.84625827884396"><ele>26.0</ele><time>2026-04-12T08:40:06.912Z</time></trkpt><trkpt lat="44.890282916315364" lon="13.846200478145485"><ele>28.5</ele><time>2026-04-12T08:40:09.912Z</time></trkpt><trkpt lat="44.890407121969034" lon="13.846281643615225"><ele>31.0</ele><time>2026-04-12T08:40:12.912Z</time></trkpt><trkpt lat="44.8904909485041" lon="13.84623294505248"><ele>33.5</ele><time>2026-04-12T08:40:14.912Z</time></trkpt><trkpt lat="44.89060300218227" lon="13.846159735127447"><ele>36.0</ele><time>2026-04-12T08:40:16.912Z</time></trkpt><trkpt lat="44.890730386066515" lon="13.846086520872772"><ele>36.0</ele><time>2026-04-12T08:40:18.912Z</time></trkpt><trkpt lat="44.890799478490436" lon="13.846058329920334"><ele>36.0</ele><time>2026-04-12T08:40:19.912Z</time></trkpt><trkpt lat="44.89086966847041" lon="13.846040158975327"><ele>36.0</ele><time>2026-04-12T08:40:20.912Z</time></trkpt><trkpt lat="44.89094637118701" lon="13.846028305794327"><ele>36.0</ele><time>2026-04-12T08:40:21.912Z</time></trkpt><trkpt lat="44.89103257887361" lon="13.846022095296938"><ele>36.0</ele><time>2026-04-12T08:40:22.912Z</time></trkpt><trkpt lat="44.891123407589724" lon="13.846025149069137"><ele>36.0</ele><time>2026-04-12T08:40:23.912Z</time></trkpt><trkpt lat="44.89121099013812" lon="13.846025703658977"><ele>38.25</ele><time>2026-04-12T08:40:24.912Z</time></trkpt><trkpt lat="44.891305786186976" lon="13.846034488891764"><ele>40.5</ele><time>2026-04-12T08:40:25.912Z</time></trkpt><trkpt lat="44.891408952723154" lon="13.846046609386482"><ele>42.75</ele><time>2026-04-12T08:40:26.912Z</time></trkpt><trkpt lat="44.89154104158342" lon="13.846050796238554"><ele>45.0</ele><time>2026-04-12T08:40:27.912Z</time></trkpt><trkpt lat="44.891662183981445" lon="13.846061881155036"><ele>44.0</ele><time>2026-04-12T08:40:28.912Z</time></trkpt><trkpt lat="44.89176919141401" lon="13.8460688556373"><ele>43.0</ele><time>2026-04-12T08:40:29.912Z</time></trkpt><trkpt lat="44.89186848995262" lon="13.846069339155433"><ele>42.0</ele><time>2026-04-12T08:40:30.912Z</time></trkpt><trkpt lat="44.89196009019768" lon="13.846072941321907"><ele>41.0</ele><time>2026-04-12T08:40:31.912Z</time></trkpt><trkpt lat="44.89203378579054" lon="13.84608233420157"><ele>40.0</ele><time>2026-04-12T08:40:32.912Z</time></trkpt><trkpt lat="44.89210914978185" lon="13.846092623211424"><ele>39.0</ele><time>2026-04-12T08:40:33.912Z</time></trkpt><trkpt lat="44.89218612881332" lon="13.846098224845838"><ele>39.0</ele><time>2026-04-12T08:40:34.912Z</time></trkpt><trkpt lat="44.89225801256554" lon="13.846107867056984"><ele>39.0</ele><time>2026-04-12T08:40:35.912Z</time></trkpt><trkpt lat="44.8923337083963" lon="13.846115017323088"><ele>39.0</ele><time>2026-04-12T08:40:36.912Z</time></trkpt><trkpt lat="44.8924113185267" lon="13.84611708046559"><ele>39.0</ele><time>2026-04-12T08:40:37.912Z</time></trkpt><trkpt lat="44.892490540262635" lon="13.84611458899511"><ele>39.0</ele><time>2026-04-12T08:40:38.912Z</time></trkpt><trkpt lat="44.89256714294712" lon="13.84610838413129"><ele>39.0</ele><time>2026-04-12T08:40:39.912Z</time></trkpt><trkpt lat="44.89263673593123" lon="13.846100508284414"><ele>38.2</ele><time>2026-04-12T08:40:40.911Z</time></trkpt><trkpt lat="44.892739307306236" lon="13.846078311109107"><ele>37.4</ele><time>2026-04-12T08:40:42.911Z</time></trkpt><trkpt lat="44.892851223689284" lon="13.846049599587358"><ele>36.6</ele><time>2026-04-12T08:40:44.911Z</time></trkpt><trkpt lat="44.89292949619045" lon="13.846034887958222"><ele>35.8</ele><time>2026-04-12T08:40:45.911Z</time></trkpt><trkpt lat="44.893034988291156" lon="13.846015501010667"><ele>35.0</ele><time>2026-04-12T08:40:46.911Z</time></trkpt><trkpt lat="44.893143318063984" lon="13.845984553924374"><ele>35.0</ele><time>2026-04-12T08:40:47.911Z</time></trkpt><trkpt lat="44.89326222128947" lon="13.845931965109735"><ele>35.0</ele><time>2026-04-12T08:40:48.911Z</time></trkpt><trkpt lat="44.893374836886665" lon="13.845881024441521"><ele>35.0</ele><time>2026-04-12T08:40:49.911Z</time></trkpt><trkpt lat="44.89350999884043" lon="13.84580778213621"><ele>35.0</ele><time>2026-04-12T08:40:50.911Z</time></trkpt><trkpt lat="44.893642080825295" lon="13.845726387842292"><ele>35.0</ele><time>2026-04-12T08:40:51.911Z</time></trkpt><trkpt lat="44.893789301147905" lon="13.845634680003121"><ele>35.0</ele><time>2026-04-12T08:40:52.911Z</time></trkpt><trkpt lat="44.89393917373015" lon="13.84554437740577"><ele>35.0</ele><time>2026-04-12T08:40:53.911Z</time></trkpt><trkpt lat="44.894079994558226" lon="13.845464501866601"><ele>35.0</ele><time>2026-04-12T08:40:54.91Z</time></trkpt><trkpt lat="44.89422073111301" lon="13.845402867037206"><ele>35.0</ele><time>2026-04-12T08:40:55.91Z</time></trkpt><trkpt lat="44.8943602632058" lon="13.84534224859601"><ele>35.0</ele><time>2026-04-12T08:40:56.91Z</time></trkpt><trkpt lat="44.89449891439154" lon="13.845286408065153"><ele>35.0</ele><time>2026-04-12T08:40:57.91Z</time></trkpt><trkpt lat="44.894638455859095" lon="13.845238892106606"><ele>35.0</ele><time>2026-04-12T08:40:58.91Z</time></trkpt><trkpt lat="44.894776478204705" lon="13.845196576310641"><ele>35.0</ele><time>2026-04-12T08:40:59.91Z</time></trkpt><trkpt lat="44.89490968809726" lon="13.845169764595573"><ele>35.0</ele><time>2026-04-12T08:41:00.91Z</time></trkpt><trkpt lat="44.89504375941022" lon="13.845149400802077"><ele>35.0</ele><time>2026-04-12T08:41:01.91Z</time></trkpt><trkpt lat="44.89516803642233" lon="13.84514432183727"><ele>34.75</ele><time>2026-04-12T08:41:02.91Z</time></trkpt><trkpt lat="44.895290516618985" lon="13.845136680829606"><ele>34.5</ele><time>2026-04-12T08:41:03.91Z</time></trkpt><trkpt lat="44.89540697867204" lon="13.845134927991696"><ele>34.25</ele><time>2026-04-12T08:41:04.91Z</time></trkpt><trkpt lat="44.89551807130218" lon="13.845136382800508"><ele>34.0</ele><time>2026-04-12T08:41:05.91Z</time></trkpt><trkpt lat="44.89563041243949" lon="13.845133053831074"><ele>34.0</ele><time>2026-04-12T08:41:06.91Z</time></trkpt><trkpt lat="44.89574309492705" lon="13.845132277179419"><ele>34.0</ele><time>2026-04-12T08:41:07.91Z</time></trkpt><trkpt lat="44.8958562289889" lon="13.845130320972457"><ele>34.0</ele><time>2026-04-12T08:41:08.91Z</time></trkpt><trkpt lat="44.89596869799847" lon="13.845128190647454"><ele>34.0</ele><time>2026-04-12T08:41:09.91Z</time></trkpt><trkpt lat="44.896081214809755" lon="13.845127571445603"><ele>33.4</ele><time>2026-04-12T08:41:10.91Z</time></trkpt><trkpt lat="44.896191619373816" lon="13.845125867822576"><ele>32.8</ele><time>2026-04-12T08:41:11.909Z</time></trkpt><trkpt lat="44.89629590137127" lon="13.845124689424859"><ele>32.2</ele><time>2026-04-12T08:41:12.909Z</time></trkpt><trkpt lat="44.89639424024437" lon="13.845123377639101"><ele>31.6</ele><time>2026-04-12T08:41:13.909Z</time></trkpt><trkpt lat="44.89649201354826" lon="13.84512107047621"><ele>31.0</ele><time>2026-04-12T08:41:14.909Z</time></trkpt><trkpt lat="44.896591372214736" lon="13.845120798517259"><ele>31.0</ele><time>2026-04-12T08:41:15.909Z</time></trkpt><trkpt lat="44.89669492423978" lon="13.845119019167845"><ele>31.0</ele><time>2026-04-12T08:41:16.909Z</time></trkpt><trkpt lat="44.89681040926048" lon="13.84512054428989"><ele>31.0</ele><time>2026-04-12T08:41:17.909Z</time></trkpt><trkpt lat="44.89693360455191" lon="13.845120061944442"><ele>31.0</ele><time>2026-04-12T08:41:18.909Z</time></trkpt><trkpt lat="44.8970699223748" lon="13.845119009197084"><ele>30.0</ele><time>2026-04-12T08:41:19.909Z</time></trkpt><trkpt lat="44.897229132692885" lon="13.84511970461831"><ele>29.0</ele><time>2026-04-12T08:41:20.909Z</time></trkpt><trkpt lat="44.89740979250619" lon="13.845113868117288"><ele>28.0</ele><time>2026-04-12T08:41:21.909Z</time></trkpt><trkpt lat="44.897577620685645" lon="13.845107774890307"><ele>27.25</ele><time>2026-04-12T08:41:22.909Z</time></trkpt><trkpt lat="44.89772593166756" lon="13.845108824810541"><ele>26.5</ele><time>2026-04-12T08:41:23.909Z</time></trkpt><trkpt lat="44.897842950958086" lon="13.845101124601815"><ele>25.75</ele><time>2026-04-12T08:41:24.909Z</time></trkpt><trkpt lat="44.897937414995695" lon="13.84509685089573"><ele>25.0</ele><time>2026-04-12T08:41:25.909Z</time></trkpt><trkpt lat="44.89802791028377" lon="13.845098516091332"><ele>25.000000000000004</ele><time>2026-04-12T08:41:26.909Z</time></trkpt><trkpt lat="44.89812072643508" lon="13.845100256946735"><ele>25.0</ele><time>2026-04-12T08:41:27.909Z</time></trkpt><trkpt lat="44.898209590675116" lon="13.845102648357662"><ele>25.0</ele><time>2026-04-12T08:41:28.909Z</time></trkpt><trkpt lat="44.898296253116676" lon="13.845100943198299"><ele>25.0</ele><time>2026-04-12T08:41:29.909Z</time></trkpt><trkpt lat="44.898382978465726" lon="13.845099565843071"><ele>25.000000000000004</ele><time>2026-04-12T08:41:30.909Z</time></trkpt><trkpt lat="44.89847025529" lon="13.845103470029645"><ele>25.0</ele><time>2026-04-12T08:41:31.909Z</time></trkpt><trkpt lat="44.89855827779543" lon="13.845115226763262"><ele>25.4</ele><time>2026-04-12T08:41:32.909Z</time></trkpt><trkpt lat="44.89865545163179" lon="13.845130777309867"><ele>25.8</ele><time>2026-04-12T08:41:33.909Z</time></trkpt><trkpt lat="44.898751880958514" lon="13.845162044839848"><ele>26.200000000000003</ele><time>2026-04-12T08:41:34.909Z</time></trkpt><trkpt lat="44.89884588993105" lon="13.845208673384896"><ele>26.6</ele><time>2026-04-12T08:41:35.909Z</time></trkpt><trkpt lat="44.89893817144136" lon="13.845254722842078"><ele>27.0</ele><time>2026-04-12T08:41:36.909Z</time></trkpt><trkpt lat="44.89903621327793" lon="13.845272144579235"><ele>27.0</ele><time>2026-04-12T08:41:37.909Z</time></trkpt><trkpt lat="44.899130683065636" lon="13.845265388393626"><ele>27.000000000000004</ele><time>2026-04-12T08:41:38.909Z</time></trkpt><trkpt lat="44.89922895397205" lon="13.845237421041052"><ele>27.000000000000004</ele><time>2026-04-12T08:41:39.909Z</time></trkpt><trkpt lat="44.899342654025816" lon="13.845213223079934"><ele>27.0</ele><time>2026-04-12T08:41:40.909Z</time></trkpt><trkpt lat="44.899478848890276" lon="13.845223569364931"><ele>27.0</ele><time>2026-04-12T08:41:41.909Z</time></trkpt><trkpt lat="44.899611810301295" lon="13.845252639404968"><ele>27.25</ele><time>2026-04-12T08:41:42.909Z</time></trkpt><trkpt lat="44.8997314564911" lon="13.845276101857712"><ele>27.5</ele><time>2026-04-12T08:41:43.909Z</time></trkpt><trkpt lat="44.899852407030636" lon="13.845297704303826"><ele>27.75</ele><time>2026-04-12T08:41:44.909Z</time></trkpt><trkpt lat="44.89996242750734" lon="13.845315878143781"><ele>28.0</ele><time>2026-04-12T08:41:45.909Z</time></trkpt><trkpt lat="44.900071893748986" lon="13.845328215143608"><ele>27.799999999999997</ele><time>2026-04-12T08:41:46.909Z</time></trkpt><trkpt lat="44.90017266030254" lon="13.845338149718014"><ele>27.599999999999998</ele><time>2026-04-12T08:41:47.909Z</time></trkpt><trkpt lat="44.90026743688887" lon="13.84535428608773"><ele>27.400000000000002</ele><time>2026-04-12T08:41:48.909Z</time></trkpt><trkpt lat="44.90033504941401" lon="13.845362950402572"><ele>27.200000000000003</ele><time>2026-04-12T08:41:49.909Z</time></trkpt><trkpt lat="44.900419660831766" lon="13.84538381036422"><ele>27.0</ele><time>2026-04-12T08:41:51.909Z</time></trkpt><trkpt lat="44.900471643107885" lon="13.84519156545196"><ele>26.666666666666668</ele><time>2026-04-12T08:41:53.909Z</time></trkpt><trkpt lat="44.90051582379305" lon="13.845117608783545"><ele>26.333333333333336</ele><time>2026-04-12T08:43:23.907Z</time></trkpt><trkpt lat="44.900582549955246" lon="13.845028013070436"><ele>26.0</ele><time>2026-04-12T08:43:25.907Z</time></trkpt><trkpt lat="44.900642846489305" lon="13.844960838981898"><ele>25.666666666666668</ele><time>2026-04-12T08:43:26.907Z</time></trkpt><trkpt lat="44.90070073099003" lon="13.844888711215814"><ele>25.333333333333336</ele><time>2026-04-12T08:43:27.907Z</time></trkpt><trkpt lat="44.90077698945128" lon="13.84482339256278"><ele>25.0</ele><time>2026-04-12T08:43:28.907Z</time></trkpt><trkpt lat="44.90085736140599" lon="13.844727260845621"><ele>24.6</ele><time>2026-04-12T08:43:29.907Z</time></trkpt><trkpt lat="44.90093106348095" lon="13.84463752408011"><ele>24.2</ele><time>2026-04-12T08:43:30.907Z</time></trkpt><trkpt lat="44.901003160860355" lon="13.844555482959501"><ele>23.799999999999997</ele><time>2026-04-12T08:43:31.907Z</time></trkpt><trkpt lat="44.901063335372314" lon="13.844461394503337"><ele>23.4</ele><time>2026-04-12T08:43:32.907Z</time></trkpt><trkpt lat="44.90113743535895" lon="13.844388059532243"><ele>23.0</ele><time>2026-04-12T08:43:33.907Z</time></trkpt><trkpt lat="44.90121038913204" lon="13.844321482122636"><ele>22.799999999999997</ele><time>2026-04-12T08:43:34.907Z</time></trkpt><trkpt lat="44.90128224815086" lon="13.84425322947728"><ele>22.6</ele><time>2026-04-12T08:43:35.907Z</time></trkpt><trkpt lat="44.90135872299152" lon="13.844179195903648"><ele>22.4</ele><time>2026-04-12T08:43:36.907Z</time></trkpt><trkpt lat="44.901438233461825" lon="13.84410513989133"><ele>22.200000000000003</ele><time>2026-04-12T08:43:37.907Z</time></trkpt><trkpt lat="44.90152306306991" lon="13.844031966245344"><ele>22.0</ele><time>2026-04-12T08:43:38.907Z</time></trkpt><trkpt lat="44.901608666495605" lon="13.843955096150607"><ele>22.0</ele><time>2026-04-12T08:43:39.907Z</time></trkpt><trkpt lat="44.90169278742211" lon="13.843873562926511"><ele>22.0</ele><time>2026-04-12T08:43:40.907Z</time></trkpt><trkpt lat="44.90177311927374" lon="13.843804050184204"><ele>22.0</ele><time>2026-04-12T08:43:41.907Z</time></trkpt><trkpt lat="44.901848154797996" lon="13.84372844824169"><ele>22.0</ele><time>2026-04-12T08:43:42.907Z</time></trkpt><trkpt lat="44.901931511761596" lon="13.843663607661375"><ele>22.0</ele><time>2026-04-12T08:43:43.907Z</time></trkpt><trkpt lat="44.902013123165226" lon="13.843584286479082"><ele>22.0</ele><time>2026-04-12T08:43:44.907Z</time></trkpt><trkpt lat="44.90208974580744" lon="13.843500653614205"><ele>22.0</ele><time>2026-04-12T08:43:45.907Z</time></trkpt><trkpt lat="44.90216193900297" lon="13.843419546673182"><ele>22.0</ele><time>2026-04-12T08:43:46.907Z</time></trkpt><trkpt lat="44.90223385607482" lon="13.843336609462847"><ele>22.0</ele><time>2026-04-12T08:43:47.907Z</time></trkpt><trkpt lat="44.902308383245874" lon="13.84325101736107"><ele>22.0</ele><time>2026-04-12T08:43:48.907Z</time></trkpt><trkpt lat="44.90237808585547" lon="13.84315568410902"><ele>22.0</ele><time>2026-04-12T08:43:49.907Z</time></trkpt><trkpt lat="44.90245825807538" lon="13.843076542398892"><ele>22.0</ele><time>2026-04-12T08:43:50.907Z</time></trkpt><trkpt lat="44.90253862217814" lon="13.84299559761929"><ele>22.0</ele><time>2026-04-12T08:43:51.907Z</time></trkpt><trkpt lat="44.90262182839516" lon="13.842916385925347"><ele>22.0</ele><time>2026-04-12T08:43:52.907Z</time></trkpt><trkpt lat="44.90270453041067" lon="13.842844049193799"><ele>22.0</ele><time>2026-04-12T08:43:53.907Z</time></trkpt><trkpt lat="44.90278237828293" lon="13.84278046919755"><ele>22.166666666666664</ele><time>2026-04-12T08:43:54.907Z</time></trkpt><trkpt lat="44.90285595814342" lon="13.8427251271077"><ele>22.333333333333332</ele><time>2026-04-12T08:43:55.907Z</time></trkpt><trkpt lat="44.902933494691204" lon="13.842668360352606"><ele>22.5</ele><time>2026-04-12T08:43:56.907Z</time></trkpt><trkpt lat="44.90301345165779" lon="13.842603498810371"><ele>22.666666666666668</ele><time>2026-04-12T08:43:57.907Z</time></trkpt><trkpt lat="44.903090790739505" lon="13.842531223326993"><ele>22.833333333333336</ele><time>2026-04-12T08:43:58.907Z</time></trkpt><trkpt lat="44.903163616231254" lon="13.842460885345732"><ele>23.0</ele><time>2026-04-12T08:43:59.907Z</time></trkpt><trkpt lat="44.90323319524193" lon="13.842392021352927"><ele>23.0</ele><time>2026-04-12T08:44:00.907Z</time></trkpt><trkpt lat="44.90330812713525" lon="13.842324470341499"><ele>23.0</ele><time>2026-04-12T08:44:01.907Z</time></trkpt><trkpt lat="44.90337085855604" lon="13.8422597270817"><ele>23.0</ele><time>2026-04-12T08:44:02.907Z</time></trkpt><trkpt lat="44.903435490711274" lon="13.842196233733445"><ele>23.0</ele><time>2026-04-12T08:44:03.907Z</time></trkpt><trkpt lat="44.903496427191314" lon="13.842133440443613"><ele>23.0</ele><time>2026-04-12T08:44:04.907Z</time></trkpt><trkpt lat="44.90355110186832" lon="13.842070848662507"><ele>23.0</ele><time>2026-04-12T08:44:05.907Z</time></trkpt><trkpt lat="44.90362135843758" lon="13.841995494301088"><ele>23.0</ele><time>2026-04-12T08:44:07.907Z</time></trkpt><trkpt lat="44.90369016144268" lon="13.84193568530051"><ele>23.0</ele><time>2026-04-12T08:44:10.907Z</time></trkpt><trkpt lat="44.90376294262012" lon="13.84186166706248"><ele>23.0</ele><time>2026-04-12T08:44:13.907Z</time></trkpt><trkpt lat="44.903824810691916" lon="13.841805350295761"><ele>23.0</ele><time>2026-04-12T08:44:15.907Z</time></trkpt><trkpt lat="44.90389388626334" lon="13.841710896358727"><ele>23.0</ele><time>2026-04-12T08:44:17.906Z</time></trkpt><trkpt lat="44.903976225127316" lon="13.84161504157565"><ele>23.0</ele><time>2026-04-12T08:44:19.906Z</time></trkpt><trkpt lat="44.90402627562413" lon="13.841554753217915"><ele>23.0</ele><time>2026-04-12T08:44:20.906Z</time></trkpt><trkpt lat="44.904079658193176" lon="13.841475965811346"><ele>23.0</ele><time>2026-04-12T08:44:21.906Z</time></trkpt><trkpt lat="44.9041396685326" lon="13.841376244209671"><ele>23.0</ele><time>2026-04-12T08:44:22.906Z</time></trkpt><trkpt lat="44.904200168600305" lon="13.841297798392317"><ele>23.0</ele><time>2026-04-12T08:44:23.906Z</time></trkpt><trkpt lat="44.90426965382658" lon="13.841212913094603"><ele>23.0</ele><time>2026-04-12T08:44:24.906Z</time></trkpt><trkpt lat="44.90434473846373" lon="13.841096141360222"><ele>23.0</ele><time>2026-04-12T08:44:25.906Z</time></trkpt><trkpt lat="44.904401518128545" lon="13.840976111415786"><ele>23.0</ele><time>2026-04-12T08:44:26.906Z</time></trkpt><trkpt lat="44.904456447633336" lon="13.840878099525698"><ele>23.0</ele><time>2026-04-12T08:44:27.906Z</time></trkpt><trkpt lat="44.90450756841604" lon="13.84077896711551"><ele>23.0</ele><time>2026-04-12T08:44:28.906Z</time></trkpt><trkpt lat="44.904555532381785" lon="13.840683627380388"><ele>23.0</ele><time>2026-04-12T08:44:29.906Z</time></trkpt><trkpt lat="44.904586240677894" lon="13.840602350441472"><ele>23.0</ele><time>2026-04-12T08:44:30.906Z</time></trkpt><trkpt lat="44.90465259100946" lon="13.840485425800516"><ele>23.333333333333336</ele><time>2026-04-12T08:44:32.906Z</time></trkpt><trkpt lat="44.9047553411136" lon="13.8403827251813"><ele>23.666666666666668</ele><time>2026-04-12T08:44:34.906Z</time></trkpt><trkpt lat="44.904826549434105" lon="13.840326757435564"><ele>24.0</ele><time>2026-04-12T08:44:35.906Z</time></trkpt><trkpt lat="44.90489158879927" lon="13.840288813989114"><ele>24.333333333333336</ele><time>2026-04-12T08:44:36.907Z</time></trkpt><trkpt lat="44.90496659113216" lon="13.840247920805082"><ele>24.666666666666668</ele><time>2026-04-12T08:44:37.908Z</time></trkpt><trkpt lat="44.9050407296378" lon="13.840211990185276"><ele>25.0</ele><time>2026-04-12T08:44:38.909Z</time></trkpt><trkpt lat="44.90512375117312" lon="13.840164602951223"><ele>25.0</ele><time>2026-04-12T08:44:39.909Z</time></trkpt><trkpt lat="44.90520695514937" lon="13.84010898666925"><ele>25.0</ele><time>2026-04-12T08:44:40.91Z</time></trkpt><trkpt lat="44.905305628043024" lon="13.840048796333493"><ele>25.0</ele><time>2026-04-12T08:44:41.911Z</time></trkpt><trkpt lat="44.905412805125245" lon="13.840002141497564"><ele>25.0</ele><time>2026-04-12T08:44:42.911Z</time></trkpt><trkpt lat="44.905527516432365" lon="13.839963270005638"><ele>25.0</ele><time>2026-04-12T08:44:43.912Z</time></trkpt><trkpt lat="44.90564487362188" lon="13.83992181215102"><ele>25.0</ele><time>2026-04-12T08:44:44.913Z</time></trkpt><trkpt lat="44.905747326015415" lon="13.839890157687664"><ele>25.0</ele><time>2026-04-12T08:44:45.913Z</time></trkpt><trkpt lat="44.90585184495701" lon="13.83987502421128"><ele>25.0</ele><time>2026-04-12T08:44:46.914Z</time></trkpt><trkpt lat="44.90592965331277" lon="13.839865312015109"><ele>25.0</ele><time>2026-04-12T08:44:47.914Z</time></trkpt><trkpt lat="44.90600098230554" lon="13.839856144078933"><ele>25.0</ele><time>2026-04-12T08:44:48.915Z</time></trkpt><trkpt lat="44.90611965529191" lon="13.839793383383999"><ele>25.5</ele><time>2026-04-12T08:44:50.915Z</time></trkpt><trkpt lat="44.906240874576056" lon="13.839762323768705"><ele>26.0</ele><time>2026-04-12T08:44:52.916Z</time></trkpt><trkpt lat="44.90636645316753" lon="13.839719128392195"><ele>26.5</ele><time>2026-04-12T08:44:54.917Z</time></trkpt><trkpt lat="44.906472079360285" lon="13.839675460655878"><ele>27.0</ele><time>2026-04-12T08:44:56.917Z</time></trkpt><trkpt lat="44.90657811143103" lon="13.839629351774382"><ele>27.0</ele><time>2026-04-12T08:44:58.918Z</time></trkpt><trkpt lat="44.90663757557844" lon="13.83960007874403"><ele>27.0</ele><time>2026-04-12T08:44:59.918Z</time></trkpt><trkpt lat="44.9067033244387" lon="13.839578290151064"><ele>27.0</ele><time>2026-04-12T08:45:00.918Z</time></trkpt><trkpt lat="44.90678095643291" lon="13.8395541800629"><ele>27.0</ele><time>2026-04-12T08:45:01.918Z</time></trkpt><trkpt lat="44.90686480379941" lon="13.839534082655325"><ele>27.0</ele><time>2026-04-12T08:45:02.918Z</time></trkpt><trkpt lat="44.90694497116464" lon="13.839512866520408"><ele>27.0</ele><time>2026-04-12T08:45:03.918Z</time></trkpt><trkpt lat="44.907031538478236" lon="13.839485751854797"><ele>27.6</ele><time>2026-04-12T08:45:04.918Z</time></trkpt><trkpt lat="44.907125626952315" lon="13.839463735321303"><ele>28.200000000000003</ele><time>2026-04-12T08:45:05.918Z</time></trkpt><trkpt lat="44.90721903172712" lon="13.839429122463455"><ele>28.8</ele><time>2026-04-12T08:45:06.918Z</time></trkpt><trkpt lat="44.90730794351818" lon="13.83939391389505"><ele>29.4</ele><time>2026-04-12T08:45:07.918Z</time></trkpt><trkpt lat="44.9073940890018" lon="13.83935786879546"><ele>30.0</ele><time>2026-04-12T08:45:08.918Z</time></trkpt><trkpt lat="44.90748406984962" lon="13.83933272078051"><ele>30.2</ele><time>2026-04-12T08:45:09.918Z</time></trkpt><trkpt lat="44.907581957215704" lon="13.839308368425556"><ele>30.4</ele><time>2026-04-12T08:45:10.919Z</time></trkpt><trkpt lat="44.90767027243468" lon="13.839283825044927"><ele>30.6</ele><time>2026-04-12T08:45:11.919Z</time></trkpt><trkpt lat="44.907771345558004" lon="13.839262652849522"><ele>30.8</ele><time>2026-04-12T08:45:12.918Z</time></trkpt><trkpt lat="44.90786967359747" lon="13.839217925565245"><ele>31.0</ele><time>2026-04-12T08:45:13.918Z</time></trkpt><trkpt lat="44.9079687642836" lon="13.839163708814622"><ele>30.0</ele><time>2026-04-12T08:45:14.918Z</time></trkpt><trkpt lat="44.90806517712754" lon="13.839122310288575"><ele>29.0</ele><time>2026-04-12T08:45:15.919Z</time></trkpt><trkpt lat="44.90816681245027" lon="13.839092687261168"><ele>28.0</ele><time>2026-04-12T08:45:16.918Z</time></trkpt><trkpt lat="44.90828479199848" lon="13.839088324988081"><ele>27.0</ele><time>2026-04-12T08:45:17.918Z</time></trkpt><trkpt lat="44.908392109096035" lon="13.839053380959525"><ele>26.0</ele><time>2026-04-12T08:45:18.918Z</time></trkpt><trkpt lat="44.90849468952652" lon="13.83900671482659"><ele>25.8</ele><time>2026-04-12T08:45:19.919Z</time></trkpt><trkpt lat="44.90858644797668" lon="13.838975668492548"><ele>25.6</ele><time>2026-04-12T08:45:20.919Z</time></trkpt><trkpt lat="44.90870100108619" lon="13.838959713596878"><ele>25.4</ele><time>2026-04-12T08:45:21.919Z</time></trkpt><trkpt lat="44.90879590544862" lon="13.838909838227067"><ele>25.2</ele><time>2026-04-12T08:45:22.919Z</time></trkpt><trkpt lat="44.90888903734972" lon="13.838889475271612"><ele>25.0</ele><time>2026-04-12T08:45:23.919Z</time></trkpt><trkpt lat="44.908986385045864" lon="13.83885664347369"><ele>25.0</ele><time>2026-04-12T08:45:24.919Z</time></trkpt><trkpt lat="44.90909664081964" lon="13.838818342088995"><ele>25.0</ele><time>2026-04-12T08:45:25.919Z</time></trkpt><trkpt lat="44.90919877831121" lon="13.83878178914053"><ele>25.0</ele><time>2026-04-12T08:45:26.919Z</time></trkpt><trkpt lat="44.90932322872088" lon="13.838737976545143"><ele>25.0</ele><time>2026-04-12T08:45:27.919Z</time></trkpt><trkpt lat="44.909447631770256" lon="13.838721309158245"><ele>25.25</ele><time>2026-04-12T08:45:28.919Z</time></trkpt><trkpt lat="44.9095627437921" lon="13.838685238394916"><ele>25.5</ele><time>2026-04-12T08:45:29.919Z</time></trkpt><trkpt lat="44.909675098534734" lon="13.83862709029864"><ele>25.75</ele><time>2026-04-12T08:45:30.919Z</time></trkpt><trkpt lat="44.909781345502175" lon="13.838595827584914"><ele>26.0</ele><time>2026-04-12T08:45:31.919Z</time></trkpt><trkpt lat="44.909894455825665" lon="13.838567400708623"><ele>26.0</ele><time>2026-04-12T08:45:32.919Z</time></trkpt><trkpt lat="44.91000385434105" lon="13.838554388800606"><ele>26.0</ele><time>2026-04-12T08:45:33.919Z</time></trkpt><trkpt lat="44.91011504130613" lon="13.838523376055509"><ele>26.0</ele><time>2026-04-12T08:45:34.919Z</time></trkpt><trkpt lat="44.91023005475048" lon="13.838492105059323"><ele>26.0</ele><time>2026-04-12T08:45:35.919Z</time></trkpt><trkpt lat="44.91034034503099" lon="13.83846100819242"><ele>25.25</ele><time>2026-04-12T08:45:36.919Z</time></trkpt><trkpt lat="44.91044655250914" lon="13.838400308737663"><ele>24.5</ele><time>2026-04-12T08:45:37.919Z</time></trkpt><trkpt lat="44.9105609939523" lon="13.838360040033868"><ele>23.75</ele><time>2026-04-12T08:45:38.919Z</time></trkpt><trkpt lat="44.91067238333097" lon="13.838314501991535"><ele>23.0</ele><time>2026-04-12T08:45:39.919Z</time></trkpt><trkpt lat="44.910783698406185" lon="13.838293281910781"><ele>23.0</ele><time>2026-04-12T08:45:40.919Z</time></trkpt><trkpt lat="44.910884360291746" lon="13.838252336321872"><ele>23.0</ele><time>2026-04-12T08:45:41.919Z</time></trkpt><trkpt lat="44.91098392219259" lon="13.838210875528501"><ele>23.0</ele><time>2026-04-12T08:45:42.919Z</time></trkpt><trkpt lat="44.91107717029084" lon="13.838148329911075"><ele>23.0</ele><time>2026-04-12T08:45:43.919Z</time></trkpt><trkpt lat="44.911171068976145" lon="13.838101665852498"><ele>23.0</ele><time>2026-04-12T08:45:44.919Z</time></trkpt><trkpt lat="44.911264383608106" lon="13.838060334298905"><ele>23.0</ele><time>2026-04-12T08:45:45.919Z</time></trkpt><trkpt lat="44.911354001706336" lon="13.838009635216123"><ele>23.0</ele><time>2026-04-12T08:45:46.919Z</time></trkpt><trkpt lat="44.911443277615156" lon="13.837952695539258"><ele>23.0</ele><time>2026-04-12T08:45:47.919Z</time></trkpt><trkpt lat="44.91153774400842" lon="13.83788842928706"><ele>23.0</ele><time>2026-04-12T08:45:48.919Z</time></trkpt><trkpt lat="44.911639145287126" lon="13.837821570729915"><ele>23.0</ele><time>2026-04-12T08:45:49.919Z</time></trkpt><trkpt lat="44.91173228069797" lon="13.837758923743227"><ele>23.25</ele><time>2026-04-12T08:45:50.919Z</time></trkpt><trkpt lat="44.91183993568745" lon="13.83768365618172"><ele>23.5</ele><time>2026-04-12T08:45:51.919Z</time></trkpt><trkpt lat="44.91194231409156" lon="13.837597837281377"><ele>23.75</ele><time>2026-04-12T08:45:52.919Z</time></trkpt><trkpt lat="44.91203817621461" lon="13.83751978274362"><ele>24.0</ele><time>2026-04-12T08:45:53.919Z</time></trkpt><trkpt lat="44.912131494606164" lon="13.837456206382717"><ele>24.25</ele><time>2026-04-12T08:45:54.919Z</time></trkpt><trkpt lat="44.912238153955855" lon="13.837419308024742"><ele>24.5</ele><time>2026-04-12T08:45:55.919Z</time></trkpt><trkpt lat="44.91233977002464" lon="13.837369039175504"><ele>24.75</ele><time>2026-04-12T08:45:56.919Z</time></trkpt><trkpt lat="44.91245913945963" lon="13.83731193367273"><ele>25.0</ele><time>2026-04-12T08:45:57.919Z</time></trkpt><trkpt lat="44.9125775740046" lon="13.837232139865412"><ele>25.75</ele><time>2026-04-12T08:45:58.919Z</time></trkpt><trkpt lat="44.91270258920384" lon="13.837174826444922"><ele>26.5</ele><time>2026-04-12T08:45:59.919Z</time></trkpt><trkpt lat="44.91281932268326" lon="13.837118841083822"><ele>27.25</ele><time>2026-04-12T08:46:00.919Z</time></trkpt><trkpt lat="44.912932234802064" lon="13.837049175825552"><ele>28.0</ele><time>2026-04-12T08:46:01.919Z</time></trkpt><trkpt lat="44.913040102273825" lon="13.836985729165889"><ele>28.0</ele><time>2026-04-12T08:46:02.919Z</time></trkpt><trkpt lat="44.91314527025206" lon="13.836916301803086"><ele>28.0</ele><time>2026-04-12T08:46:03.919Z</time></trkpt><trkpt lat="44.91324886198594" lon="13.836844106956875"><ele>28.0</ele><time>2026-04-12T08:46:04.919Z</time></trkpt><trkpt lat="44.91334762148472" lon="13.83676714266831"><ele>28.0</ele><time>2026-04-12T08:46:05.919Z</time></trkpt><trkpt lat="44.913446451381674" lon="13.836688604926312"><ele>28.2</ele><time>2026-04-12T08:46:06.919Z</time></trkpt><trkpt lat="44.913546135982024" lon="13.836612363951891"><ele>28.4</ele><time>2026-04-12T08:46:07.919Z</time></trkpt><trkpt lat="44.913641473412724" lon="13.836536434376987"><ele>28.599999999999998</ele><time>2026-04-12T08:46:08.919Z</time></trkpt><trkpt lat="44.91373789125809" lon="13.836466273844533"><ele>28.799999999999997</ele><time>2026-04-12T08:46:09.919Z</time></trkpt><trkpt lat="44.91384535484577" lon="13.836411446400515"><ele>29.0</ele><time>2026-04-12T08:46:10.919Z</time></trkpt><trkpt lat="44.91394285225893" lon="13.836327839940813"><ele>29.0</ele><time>2026-04-12T08:46:11.919Z</time></trkpt><trkpt lat="44.91403890834417" lon="13.836256562155572"><ele>29.0</ele><time>2026-04-12T08:46:12.919Z</time></trkpt><trkpt lat="44.914132104793595" lon="13.836188092951643"><ele>29.0</ele><time>2026-04-12T08:46:13.919Z</time></trkpt><trkpt lat="44.91422466174489" lon="13.8361196252011"><ele>29.0</ele><time>2026-04-12T08:46:14.919Z</time></trkpt><trkpt lat="44.914298044569975" lon="13.836058180112694"><ele>29.0</ele><time>2026-04-12T08:46:15.919Z</time></trkpt><trkpt lat="44.91437261570763" lon="13.835990925411947"><ele>29.166666666666664</ele><time>2026-04-12T08:46:17.919Z</time></trkpt><trkpt lat="44.91448036818463" lon="13.83607940970322"><ele>29.333333333333332</ele><time>2026-04-12T08:46:22.919Z</time></trkpt><trkpt lat="44.91451955879353" lon="13.836151838303447"><ele>29.5</ele><time>2026-04-12T08:46:23.919Z</time></trkpt><trkpt lat="44.91455539793481" lon="13.836250508744396"><ele>29.666666666666664</ele><time>2026-04-12T08:46:24.919Z</time></trkpt><trkpt lat="44.914607793421354" lon="13.836353820384364"><ele>29.833333333333332</ele><time>2026-04-12T08:46:25.919Z</time></trkpt><trkpt lat="44.91463229321727" lon="13.83645018113009"><ele>30.0</ele><time>2026-04-12T08:46:26.919Z</time></trkpt><trkpt lat="44.91465502212675" lon="13.836570082517376"><ele>30.0</ele><time>2026-04-12T08:46:28.919Z</time></trkpt><trkpt lat="44.914699318657206" lon="13.836655062891673"><ele>30.0</ele><time>2026-04-12T08:46:30.919Z</time></trkpt><trkpt lat="44.914737157983126" lon="13.836727450043139"><ele>30.0</ele><time>2026-04-12T08:46:32.918Z</time></trkpt><trkpt lat="44.91478907432841" lon="13.836821886947694"><ele>30.0</ele><time>2026-04-12T08:46:34.918Z</time></trkpt><trkpt lat="44.9148244510289" lon="13.836900352145667"><ele>30.0</ele><time>2026-04-12T08:46:36.918Z</time></trkpt><trkpt lat="44.91478518938695" lon="13.836771950100307"><ele>30.0</ele><time>2026-04-12T08:46:44.918Z</time></trkpt><trkpt lat="44.914727199329796" lon="13.836681196501162"><ele>30.0</ele><time>2026-04-12T08:46:45.918Z</time></trkpt><trkpt lat="44.91467517878634" lon="13.836578635280969"><ele>30.0</ele><time>2026-04-12T08:46:46.918Z</time></trkpt><trkpt lat="44.914647625733004" lon="13.836406493159597"><ele>30.0</ele><time>2026-04-12T08:46:47.918Z</time></trkpt><trkpt lat="44.914601413722934" lon="13.836254089094032"><ele>30.0</ele><time>2026-04-12T08:46:48.918Z</time></trkpt><trkpt lat="44.91454558660825" lon="13.836151241902089"><ele>30.0</ele><time>2026-04-12T08:46:49.918Z</time></trkpt><trkpt lat="44.91451415870513" lon="13.836066457224623"><ele>30.0</ele><time>2026-04-12T08:46:50.918Z</time></trkpt><trkpt lat="44.91452485223381" lon="13.83593948129088"><ele>30.0</ele><time>2026-04-12T08:46:53.918Z</time></trkpt><trkpt lat="44.914600986048875" lon="13.835891980115457"><ele>30.0</ele><time>2026-04-12T08:46:55.918Z</time></trkpt><trkpt lat="44.914717520975564" lon="13.835912451873511"><ele>30.0</ele><time>2026-04-12T08:46:57.918Z</time></trkpt><trkpt lat="44.91480107028362" lon="13.835946737589394"><ele>30.0</ele><time>2026-04-12T08:46:58.918Z</time></trkpt><trkpt lat="44.91490272524125" lon="13.835977432922448"><ele>30.0</ele><time>2026-04-12T08:46:59.918Z</time></trkpt><trkpt lat="44.91501108523283" lon="13.836007625992789"><ele>30.0</ele><time>2026-04-12T08:47:00.918Z</time></trkpt><trkpt lat="44.91512721009926" lon="13.83604113015037"><ele>30.0</ele><time>2026-04-12T08:47:01.918Z</time></trkpt><trkpt lat="44.91524746374177" lon="13.83608228461397"><ele>30.0</ele><time>2026-04-12T08:47:02.918Z</time></trkpt><trkpt lat="44.9153872829136" lon="13.836124951202992"><ele>30.0</ele><time>2026-04-12T08:47:03.918Z</time></trkpt><trkpt lat="44.915527818308064" lon="13.836172829821853"><ele>30.0</ele><time>2026-04-12T08:47:04.918Z</time></trkpt><trkpt lat="44.91565325278898" lon="13.836220157189592"><ele>30.0</ele><time>2026-04-12T08:47:05.918Z</time></trkpt><trkpt lat="44.915771506102594" lon="13.836271503718333"><ele>30.0</ele><time>2026-04-12T08:47:06.918Z</time></trkpt><trkpt lat="44.91587898168091" lon="13.836305094283217"><ele>29.0</ele><time>2026-04-12T08:47:07.918Z</time></trkpt><trkpt lat="44.91599024434203" lon="13.836359689136694"><ele>28.0</ele><time>2026-04-12T08:47:08.918Z</time></trkpt><trkpt lat="44.91610252272857" lon="13.836406170644645"><ele>27.0</ele><time>2026-04-12T08:47:09.917Z</time></trkpt><trkpt lat="44.91622144168418" lon="13.836457676537547"><ele>26.0</ele><time>2026-04-12T08:47:10.916Z</time></trkpt><trkpt lat="44.91634775445987" lon="13.83651409004369"><ele>26.0</ele><time>2026-04-12T08:47:11.916Z</time></trkpt><trkpt lat="44.91647253537369" lon="13.83659912672189"><ele>26.0</ele><time>2026-04-12T08:47:12.916Z</time></trkpt><trkpt lat="44.91659660400561" lon="13.83663815817487"><ele>26.0</ele><time>2026-04-12T08:47:13.916Z</time></trkpt><trkpt lat="44.916704947172214" lon="13.836693783626949"><ele>26.0</ele><time>2026-04-12T08:47:14.916Z</time></trkpt><trkpt lat="44.91681354422906" lon="13.836740469740965"><ele>26.0</ele><time>2026-04-12T08:47:15.916Z</time></trkpt><trkpt lat="44.916902628913924" lon="13.836777060580541"><ele>26.0</ele><time>2026-04-12T08:47:16.916Z</time></trkpt><trkpt lat="44.917005648103824" lon="13.836844787240032"><ele>26.0</ele><time>2026-04-12T08:47:17.916Z</time></trkpt><trkpt lat="44.917121123607174" lon="13.836881528166574"><ele>26.0</ele><time>2026-04-12T08:47:18.916Z</time></trkpt><trkpt lat="44.917236107719866" lon="13.836930620860764"><ele>26.0</ele><time>2026-04-12T08:47:19.916Z</time></trkpt><trkpt lat="44.917342190694534" lon="13.83697693503903"><ele>25.999999999999996</ele><time>2026-04-12T08:47:20.916Z</time></trkpt><trkpt lat="44.91745064097601" lon="13.837025351387453"><ele>26.0</ele><time>2026-04-12T08:47:21.916Z</time></trkpt><trkpt lat="44.91753716406614" lon="13.837061595580375"><ele>26.0</ele><time>2026-04-12T08:47:22.916Z</time></trkpt><trkpt lat="44.91760812418917" lon="13.837089539428334"><ele>26.0</ele><time>2026-04-12T08:47:23.916Z</time></trkpt><trkpt lat="44.917677949196076" lon="13.837145483257036"><ele>25.999999999999996</ele><time>2026-04-12T08:47:24.916Z</time></trkpt><trkpt lat="44.91774882512651" lon="13.837153190053462"><ele>26.0</ele><time>2026-04-12T08:47:25.916Z</time></trkpt><trkpt lat="44.9178072887978" lon="13.837188635889326"><ele>26.0</ele><time>2026-04-12T08:47:26.916Z</time></trkpt><trkpt lat="44.91787267396279" lon="13.83721685071495"><ele>26.0</ele><time>2026-04-12T08:47:27.916Z</time></trkpt><trkpt lat="44.91793619778007" lon="13.837245056355549"><ele>26.0</ele><time>2026-04-12T08:47:28.916Z</time></trkpt><trkpt lat="44.918014828565525" lon="13.83727331994167"><ele>26.0</ele><time>2026-04-12T08:47:29.916Z</time></trkpt><trkpt lat="44.91809364304056" lon="13.837309732572914"><ele>26.0</ele><time>2026-04-12T08:47:30.916Z</time></trkpt><trkpt lat="44.9181585995733" lon="13.837338852107072"><ele>26.0</ele><time>2026-04-12T08:47:31.916Z</time></trkpt><trkpt lat="44.918221574307736" lon="13.837364911648452"><ele>26.0</ele><time>2026-04-12T08:47:32.916Z</time></trkpt><trkpt lat="44.91828712841929" lon="13.837389430671527"><ele>25.999999999999996</ele><time>2026-04-12T08:47:33.916Z</time></trkpt><trkpt lat="44.918362610455745" lon="13.83742705033681"><ele>26.0</ele><time>2026-04-12T08:47:34.916Z</time></trkpt><trkpt lat="44.91844768525151" lon="13.837459935863958"><ele>26.0</ele><time>2026-04-12T08:47:35.916Z</time></trkpt><trkpt lat="44.918524398219674" lon="13.837491254583663"><ele>26.0</ele><time>2026-04-12T08:47:36.916Z</time></trkpt><trkpt lat="44.91860160572786" lon="13.83751993445291"><ele>25.999999999999996</ele><time>2026-04-12T08:47:37.916Z</time></trkpt><trkpt lat="44.91867471380212" lon="13.837559066981186"><ele>26.0</ele><time>2026-04-12T08:47:38.916Z</time></trkpt><trkpt lat="44.91875825296755" lon="13.837592054285956"><ele>25.999999999999996</ele><time>2026-04-12T08:47:39.916Z</time></trkpt><trkpt lat="44.91883395510433" lon="13.837632233205165"><ele>26.0</ele><time>2026-04-12T08:47:40.916Z</time></trkpt><trkpt lat="44.9189140244095" lon="13.837664844944857"><ele>26.0</ele><time>2026-04-12T08:47:41.916Z</time></trkpt><trkpt lat="44.918977251767686" lon="13.837701355859906"><ele>26.0</ele><time>2026-04-12T08:47:42.916Z</time></trkpt><trkpt lat="44.9190556078509" lon="13.83775070032293"><ele>25.999999999999996</ele><time>2026-04-12T08:47:43.916Z</time></trkpt><trkpt lat="44.91913454782853" lon="13.83779054363672"><ele>26.0</ele><time>2026-04-12T08:47:44.916Z</time></trkpt><trkpt lat="44.91919984290464" lon="13.837835612913427"><ele>26.333333333333332</ele><time>2026-04-12T08:47:45.916Z</time></trkpt><trkpt lat="44.91924812935183" lon="13.83790352757862"><ele>26.666666666666664</ele><time>2026-04-12T08:47:46.916Z</time></trkpt><trkpt lat="44.91929305817729" lon="13.837993465385887"><ele>27.0</ele><time>2026-04-12T08:47:47.916Z</time></trkpt><trkpt lat="44.919333006049904" lon="13.838114039772547"><ele>27.333333333333336</ele><time>2026-04-12T08:47:48.916Z</time></trkpt><trkpt lat="44.919379549386285" lon="13.838207562455775"><ele>27.666666666666668</ele><time>2026-04-12T08:47:49.916Z</time></trkpt><trkpt lat="44.91943759714967" lon="13.838292231803612"><ele>28.0</ele><time>2026-04-12T08:47:50.916Z</time></trkpt><trkpt lat="44.91949970580513" lon="13.838365162498361"><ele>28.000000000000004</ele><time>2026-04-12T08:47:51.916Z</time></trkpt><trkpt lat="44.91955540133529" lon="13.838475643641736"><ele>28.0</ele><time>2026-04-12T08:47:53.916Z</time></trkpt><trkpt lat="44.91961831280574" lon="13.838463711496765"><ele>28.0</ele><time>2026-04-12T08:47:55.916Z</time></trkpt><trkpt lat="44.91968322030904" lon="13.838386550990869"><ele>28.0</ele><time>2026-04-12T08:47:57.916Z</time></trkpt><trkpt lat="44.91971844654616" lon="13.838293117143767"><ele>28.000000000000004</ele><time>2026-04-12T08:47:58.916Z</time></trkpt><trkpt lat="44.919768387034416" lon="13.838225796383302"><ele>28.0</ele><time>2026-04-12T08:48:00.916Z</time></trkpt><trkpt lat="44.91987836616854" lon="13.838283370532517"><ele>28.0</ele><time>2026-04-12T08:48:02.916Z</time></trkpt><trkpt lat="44.919956360296204" lon="13.838342473420571"><ele>27.999999999999996</ele><time>2026-04-12T08:48:03.916Z</time></trkpt><trkpt lat="44.92005054305861" lon="13.838401123845733"><ele>27.999999999999996</ele><time>2026-04-12T08:48:04.916Z</time></trkpt><trkpt lat="44.920145991634435" lon="13.838452986034888"><ele>28.0</ele><time>2026-04-12T08:48:05.916Z</time></trkpt><trkpt lat="44.92023451190072" lon="13.838476718199871"><ele>28.0</ele><time>2026-04-12T08:48:06.916Z</time></trkpt><trkpt lat="44.920314184345784" lon="13.838493028889514"><ele>27.0</ele><time>2026-04-12T08:48:07.916Z</time></trkpt><trkpt lat="44.92043462814084" lon="13.83851170114594"><ele>26.0</ele><time>2026-04-12T08:48:09.916Z</time></trkpt><trkpt lat="44.92055947022583" lon="13.838457782027357"><ele>25.0</ele><time>2026-04-12T08:48:11.916Z</time></trkpt><trkpt lat="44.920687036698375" lon="13.838485692434396"><ele>24.0</ele><time>2026-04-12T08:48:13.916Z</time></trkpt><trkpt lat="44.920785729775574" lon="13.838525267977111"><ele>23.666666666666668</ele><time>2026-04-12T08:48:14.916Z</time></trkpt><trkpt lat="44.92086662996041" lon="13.838543949844496"><ele>23.333333333333332</ele><time>2026-04-12T08:48:15.916Z</time></trkpt><trkpt lat="44.92094436900238" lon="13.838557449452173"><ele>23.0</ele><time>2026-04-12T08:48:16.916Z</time></trkpt><trkpt lat="44.92101506308972" lon="13.838593313005532"><ele>22.666666666666664</ele><time>2026-04-12T08:48:17.916Z</time></trkpt><trkpt lat="44.921098354941286" lon="13.838653156974297"><ele>22.333333333333332</ele><time>2026-04-12T08:48:18.916Z</time></trkpt><trkpt lat="44.92117696994187" lon="13.838706323672335"><ele>22.0</ele><time>2026-04-12T08:48:19.916Z</time></trkpt><trkpt lat="44.92125109459315" lon="13.838710930191809"><ele>22.666666666666664</ele><time>2026-04-12T08:48:20.916Z</time></trkpt><trkpt lat="44.92133139735371" lon="13.838699182130485"><ele>23.333333333333332</ele><time>2026-04-12T08:48:21.916Z</time></trkpt><trkpt lat="44.921416771274444" lon="13.838679383322015"><ele>24.0</ele><time>2026-04-12T08:48:22.915Z</time></trkpt><trkpt lat="44.921489653825795" lon="13.838667895524832"><ele>24.666666666666664</ele><time>2026-04-12T08:48:24.915Z</time></trkpt><trkpt lat="44.921544893057074" lon="13.838605911981888"><ele>25.333333333333332</ele><time>2026-04-12T08:48:28.915Z</time></trkpt><trkpt lat="44.92152365201588" lon="13.838500101119632"><ele>26.0</ele><time>2026-04-12T08:48:30.915Z</time></trkpt><trkpt lat="44.92149440136819" lon="13.838416548701588"><ele>26.166666666666664</ele><time>2026-04-12T08:48:31.915Z</time></trkpt><trkpt lat="44.92146437477283" lon="13.838320716266464"><ele>26.333333333333332</ele><time>2026-04-12T08:48:32.915Z</time></trkpt><trkpt lat="44.92143982134546" lon="13.838225483839764"><ele>26.5</ele><time>2026-04-12T08:48:33.915Z</time></trkpt><trkpt lat="44.92140684294095" lon="13.838104772039252"><ele>26.666666666666664</ele><time>2026-04-12T08:48:34.915Z</time></trkpt><trkpt lat="44.921367560375664" lon="13.837977967054432"><ele>26.833333333333332</ele><time>2026-04-12T08:48:35.915Z</time></trkpt><trkpt lat="44.92133764733361" lon="13.837871855008624"><ele>27.0</ele><time>2026-04-12T08:48:36.915Z</time></trkpt><trkpt lat="44.921312195610305" lon="13.837770066218612"><ele>27.0</ele><time>2026-04-12T08:48:37.915Z</time></trkpt><trkpt lat="44.92129550878779" lon="13.837674736962908"><ele>27.0</ele><time>2026-04-12T08:48:38.915Z</time></trkpt><trkpt lat="44.921288717956884" lon="13.837571658594829"><ele>27.0</ele><time>2026-04-12T08:48:39.915Z</time></trkpt><trkpt lat="44.92128325140709" lon="13.83746634834568"><ele>27.0</ele><time>2026-04-12T08:48:40.915Z</time></trkpt><trkpt lat="44.92127427915823" lon="13.837350487143857"><ele>27.0</ele><time>2026-04-12T08:48:41.915Z</time></trkpt><trkpt lat="44.92126117301561" lon="13.837244234070099"><ele>27.0</ele><time>2026-04-12T08:48:42.915Z</time></trkpt><trkpt lat="44.92125618090886" lon="13.837147269219939"><ele>27.0</ele><time>2026-04-12T08:48:43.915Z</time></trkpt><trkpt lat="44.921268884051116" lon="13.837056969549586"><ele>26.666666666666668</ele><time>2026-04-12T08:48:44.915Z</time></trkpt><trkpt lat="44.921301219547665" lon="13.836967932216986"><ele>26.333333333333336</ele><time>2026-04-12T08:48:45.915Z</time></trkpt><trkpt lat="44.92133145639094" lon="13.83686920505549"><ele>26.0</ele><time>2026-04-12T08:48:46.915Z</time></trkpt><trkpt lat="44.92136633082899" lon="13.836783589591398"><ele>25.666666666666668</ele><time>2026-04-12T08:48:47.915Z</time></trkpt><trkpt lat="44.9213984032247" lon="13.836632320913548"><ele>25.333333333333336</ele><time>2026-04-12T08:48:49.915Z</time></trkpt><trkpt lat="44.92142098793365" lon="13.836491792313707"><ele>25.0</ele><time>2026-04-12T08:48:51.915Z</time></trkpt><trkpt lat="44.921413563401664" lon="13.836377809105922"><ele>24.666666666666668</ele><time>2026-04-12T08:48:53.915Z</time></trkpt><trkpt lat="44.9213589867772" lon="13.83626431283097"><ele>24.333333333333336</ele><time>2026-04-12T08:48:56.915Z</time></trkpt><trkpt lat="44.92127560667475" lon="13.836197724102853"><ele>24.0</ele><time>2026-04-12T08:48:58.915Z</time></trkpt><trkpt lat="44.92119277227269" lon="13.836138220474794"><ele>23.666666666666668</ele><time>2026-04-12T08:49:00.915Z</time></trkpt><trkpt lat="44.921129044824276" lon="13.8361106748367"><ele>23.333333333333336</ele><time>2026-04-12T08:49:02.915Z</time></trkpt><trkpt lat="44.921056073719924" lon="13.836076643595698"><ele>23.0</ele><time>2026-04-12T08:49:04.915Z</time></trkpt><trkpt lat="44.9209957672436" lon="13.836022782107953"><ele>23.0</ele><time>2026-04-12T08:49:06.915Z</time></trkpt><trkpt lat="44.920923640702746" lon="13.835983855786491"><ele>23.0</ele><time>2026-04-12T08:49:09.915Z</time></trkpt><trkpt lat="44.92084191816902" lon="13.835901318374226"><ele>23.0</ele><time>2026-04-12T08:49:11.915Z</time></trkpt><trkpt lat="44.92077614622711" lon="13.835830021796852"><ele>23.0</ele><time>2026-04-12T08:49:13.915Z</time></trkpt><trkpt lat="44.92071011001106" lon="13.835790367363979"><ele>23.0</ele><time>2026-04-12T08:49:15.913Z</time></trkpt><trkpt lat="44.92065170397903" lon="13.835734920834845"><ele>23.0</ele><time>2026-04-12T08:49:18.913Z</time></trkpt><trkpt lat="44.92053803628645" lon="13.835650939683536"><ele>23.0</ele><time>2026-04-12T08:49:49.913Z</time></trkpt><trkpt lat="44.9206368095809" lon="13.835681674522853"><ele>23.0</ele><time>2026-04-12T08:50:21.913Z</time></trkpt><trkpt lat="44.92069505535356" lon="13.835722409749156"><ele>23.0</ele><time>2026-04-12T08:50:22.913Z</time></trkpt><trkpt lat="44.920763561950956" lon="13.835775094026175"><ele>23.0</ele><time>2026-04-12T08:50:23.913Z</time></trkpt><trkpt lat="44.92082884018754" lon="13.835835655908"><ele>23.0</ele><time>2026-04-12T08:50:24.913Z</time></trkpt><trkpt lat="44.9209196937669" lon="13.83589400211376"><ele>23.0</ele><time>2026-04-12T08:50:25.913Z</time></trkpt><trkpt lat="44.921001316938835" lon="13.83595032216055"><ele>23.0</ele><time>2026-04-12T08:50:26.913Z</time></trkpt><trkpt lat="44.921075652265664" lon="13.835978135978506"><ele>23.0</ele><time>2026-04-12T08:50:27.913Z</time></trkpt><trkpt lat="44.92113746265675" lon="13.836020335525586"><ele>23.0</ele><time>2026-04-12T08:50:28.913Z</time></trkpt><trkpt lat="44.92119617388498" lon="13.836062174841175"><ele>23.0</ele><time>2026-04-12T08:50:29.912Z</time></trkpt><trkpt lat="44.92125478239248" lon="13.836106537251387"><ele>23.0</ele><time>2026-04-12T08:50:30.912Z</time></trkpt><trkpt lat="44.921329708538586" lon="13.836166198573059"><ele>23.0</ele><time>2026-04-12T08:50:32.912Z</time></trkpt><trkpt lat="44.92135009809773" lon="13.836251552864749"><ele>23.0</ele><time>2026-04-12T08:50:35.912Z</time></trkpt><trkpt lat="44.92137385447919" lon="13.83639082667243"><ele>23.0</ele><time>2026-04-12T08:50:37.912Z</time></trkpt><trkpt lat="44.92141296423988" lon="13.836479762067958"><ele>23.0</ele><time>2026-04-12T08:50:39.912Z</time></trkpt><trkpt lat="44.921480998958764" lon="13.836535665431136"><ele>23.0</ele><time>2026-04-12T08:50:41.912Z</time></trkpt><trkpt lat="44.921528639099485" lon="13.83659632453034"><ele>23.0</ele><time>2026-04-12T08:50:44.912Z</time></trkpt><trkpt lat="44.92152362278503" lon="13.83668713568031"><ele>23.0</ele><time>2026-04-12T08:50:47.912Z</time></trkpt><trkpt lat="44.921584767966046" lon="13.83673035268197"><ele>23.0</ele><time>2026-04-12T08:50:50.912Z</time></trkpt><trkpt lat="44.92158849563999" lon="13.836639849928728"><ele>23.0</ele><time>2026-04-12T08:50:52.912Z</time></trkpt><trkpt lat="44.92158571794317" lon="13.836526387577184"><ele>23.0</ele><time>2026-04-12T08:51:04.912Z</time></trkpt><trkpt lat="44.92164296597085" lon="13.83643619415171"><ele>23.0</ele><time>2026-04-12T08:51:07.912Z</time></trkpt><trkpt lat="44.92170662088251" lon="13.836385821684587"><ele>23.0</ele><time>2026-04-12T08:51:10.912Z</time></trkpt><trkpt lat="44.92176836392398" lon="13.83634848343133"><ele>23.0</ele><time>2026-04-12T08:51:13.912Z</time></trkpt><trkpt lat="44.92176225252988" lon="13.83647824377226"><ele>23.0</ele><time>2026-04-12T08:52:12.91Z</time></trkpt><trkpt lat="44.92166119309077" lon="13.836497478802611"><ele>23.0</ele><time>2026-04-12T08:52:14.91Z</time></trkpt><trkpt lat="44.921590918130825" lon="13.836527198061106"><ele>23.0</ele><time>2026-04-12T08:52:17.91Z</time></trkpt><trkpt lat="44.92155186466319" lon="13.8365980529562"><ele>23.0</ele><time>2026-04-12T08:52:24.91Z</time></trkpt><trkpt lat="44.92148179499165" lon="13.836540847107994"><ele>23.0</ele><time>2026-04-12T08:52:31.91Z</time></trkpt><trkpt lat="44.92142578524153" lon="13.836432819042125"><ele>23.0</ele><time>2026-04-12T08:53:09.91Z</time></trkpt><trkpt lat="44.92141902891326" lon="13.836333218797488"><ele>23.0</ele><time>2026-04-12T08:53:11.909Z</time></trkpt><trkpt lat="44.92139147544963" lon="13.83622684160769"><ele>23.0</ele><time>2026-04-12T08:53:13.909Z</time></trkpt><trkpt lat="44.9213325805964" lon="13.83618106825814"><ele>23.0</ele><time>2026-04-12T08:53:15.909Z</time></trkpt><trkpt lat="44.92122587426259" lon="13.83611145235237"><ele>23.0</ele><time>2026-04-12T08:53:17.909Z</time></trkpt><trkpt lat="44.92113659252288" lon="13.836058035966898"><ele>23.0</ele><time>2026-04-12T08:53:19.909Z</time></trkpt><trkpt lat="44.921014987531244" lon="13.836005609312567"><ele>23.0</ele><time>2026-04-12T08:53:21.909Z</time></trkpt><trkpt lat="44.92089904673693" lon="13.835926553773758"><ele>23.166666666666668</ele><time>2026-04-12T08:53:23.909Z</time></trkpt><trkpt lat="44.920798788031185" lon="13.835863261629902"><ele>23.333333333333336</ele><time>2026-04-12T08:53:25.909Z</time></trkpt><trkpt lat="44.92074046644928" lon="13.835824302388133"><ele>23.5</ele><time>2026-04-12T08:53:26.909Z</time></trkpt><trkpt lat="44.92068576879454" lon="13.83577617291774"><ele>23.666666666666668</ele><time>2026-04-12T08:53:27.908Z</time></trkpt><trkpt lat="44.92062820743532" lon="13.835727861161795"><ele>23.833333333333332</ele><time>2026-04-12T08:53:28.909Z</time></trkpt><trkpt lat="44.92056490274932" lon="13.835654123040424"><ele>24.0</ele><time>2026-04-12T08:53:30.909Z</time></trkpt><trkpt lat="44.92052494750104" lon="13.835494660807719"><ele>24.0</ele><time>2026-04-12T08:53:32.909Z</time></trkpt><trkpt lat="44.92050429650712" lon="13.835401096681736"><ele>24.0</ele><time>2026-04-12T08:53:33.909Z</time></trkpt><trkpt lat="44.92048411582678" lon="13.835311457418344"><ele>24.0</ele><time>2026-04-12T08:53:34.908Z</time></trkpt><trkpt lat="44.9204492443272" lon="13.83515046895487"><ele>24.0</ele><time>2026-04-12T08:53:36.909Z</time></trkpt><trkpt lat="44.920403864453405" lon="13.835013621921517"><ele>24.0</ele><time>2026-04-12T08:53:38.908Z</time></trkpt><trkpt lat="44.92035879642834" lon="13.834939396910235"><ele>24.0</ele><time>2026-04-12T08:53:41.909Z</time></trkpt><trkpt lat="44.92033975838493" lon="13.834747603156629"><ele>23.6</ele><time>2026-04-12T08:54:00.909Z</time></trkpt><trkpt lat="44.92044223451508" lon="13.834764931315302"><ele>23.2</ele><time>2026-04-12T08:54:03.909Z</time></trkpt><trkpt lat="44.92052807175492" lon="13.834721161467401"><ele>22.8</ele><time>2026-04-12T08:54:05.909Z</time></trkpt><trkpt lat="44.92063983775521" lon="13.834650937865176"><ele>22.400000000000002</ele><time>2026-04-12T08:54:07.909Z</time></trkpt><trkpt lat="44.92075460271018" lon="13.834602853950594"><ele>22.0</ele><time>2026-04-12T08:54:09.908Z</time></trkpt><trkpt lat="44.92085194261487" lon="13.834574740668918"><ele>22.0</ele><time>2026-04-12T08:54:11.908Z</time></trkpt><trkpt lat="44.920923716568" lon="13.834558934526024"><ele>22.0</ele><time>2026-04-12T08:54:16.908Z</time></trkpt><trkpt lat="44.920998139163196" lon="13.834539356224868"><ele>22.0</ele><time>2026-04-12T08:54:29.908Z</time></trkpt><trkpt lat="44.92105505484319" lon="13.83458142609514"><ele>22.0</ele><time>2026-04-12T08:54:33.908Z</time></trkpt><trkpt lat="44.92103601582365" lon="13.834492067965575"><ele>22.0</ele><time>2026-04-12T08:54:45.908Z</time></trkpt><trkpt lat="44.92093546960464" lon="13.83453577241478"><ele>22.0</ele><time>2026-04-12T08:54:48.908Z</time></trkpt><trkpt lat="44.92085738613092" lon="13.834562978003047"><ele>22.0</ele><time>2026-04-12T08:54:49.908Z</time></trkpt><trkpt lat="44.920770946934596" lon="13.834592439304306"><ele>22.0</ele><time>2026-04-12T08:54:50.908Z</time></trkpt><trkpt lat="44.920678945971645" lon="13.834626609129021"><ele>22.0</ele><time>2026-04-12T08:54:51.908Z</time></trkpt><trkpt lat="44.92059459552209" lon="13.834660259736463"><ele>22.0</ele><time>2026-04-12T08:54:52.908Z</time></trkpt><trkpt lat="44.920526576220425" lon="13.834701686814208"><ele>22.0</ele><time>2026-04-12T08:54:53.908Z</time></trkpt><trkpt lat="44.920466459266216" lon="13.834742241560345"><ele>22.0</ele><time>2026-04-12T08:54:54.908Z</time></trkpt><trkpt lat="44.92038494530397" lon="13.834800383156606"><ele>22.0</ele><time>2026-04-12T08:54:56.908Z</time></trkpt><trkpt lat="44.920320936752105" lon="13.834848227518226"><ele>22.0</ele><time>2026-04-12T08:55:16.908Z</time></trkpt><trkpt lat="44.92026808160723" lon="13.834921621295535"><ele>22.0</ele><time>2026-04-12T08:55:18.908Z</time></trkpt><trkpt lat="44.92017198503451" lon="13.834962651153418"><ele>22.0</ele><time>2026-04-12T08:55:20.908Z</time></trkpt><trkpt lat="44.92010986960707" lon="13.83498314030106"><ele>22.0</ele><time>2026-04-12T08:55:21.908Z</time></trkpt><trkpt lat="44.92003963996715" lon="13.835010230140563"><ele>22.0</ele><time>2026-04-12T08:55:22.908Z</time></trkpt><trkpt lat="44.919964056761074" lon="13.835036617850033"><ele>22.0</ele><time>2026-04-12T08:55:23.908Z</time></trkpt><trkpt lat="44.9198879126343" lon="13.83505139695028"><ele>22.0</ele><time>2026-04-12T08:55:24.908Z</time></trkpt><trkpt lat="44.91981729270805" lon="13.835080812322508"><ele>22.0</ele><time>2026-04-12T08:55:25.908Z</time></trkpt><trkpt lat="44.91970187305233" lon="13.835131025851332"><ele>22.0</ele><time>2026-04-12T08:55:27.908Z</time></trkpt><trkpt lat="44.91963797580568" lon="13.835145905560449"><ele>22.0</ele><time>2026-04-12T08:55:28.907Z</time></trkpt><trkpt lat="44.919541746519286" lon="13.835188811269335"><ele>22.0</ele><time>2026-04-12T08:55:30.907Z</time></trkpt><trkpt lat="44.91945086369963" lon="13.835222956914839"><ele>22.0</ele><time>2026-04-12T08:55:32.907Z</time></trkpt><trkpt lat="44.919388471291015" lon="13.835194768538885"><ele>22.0</ele><time>2026-04-12T08:55:46.906Z</time></trkpt><trkpt lat="44.91935773128494" lon="13.835091451231072"><ele>22.0</ele><time>2026-04-12T08:56:05.906Z</time></trkpt><trkpt lat="44.91933957580789" lon="13.83497711744656"><ele>22.0</ele><time>2026-04-12T08:56:07.906Z</time></trkpt><trkpt lat="44.919304994829545" lon="13.834872991478155"><ele>22.0</ele><time>2026-04-12T08:56:09.906Z</time></trkpt><trkpt lat="44.91930099483674" lon="13.834767626662238"><ele>22.0</ele><time>2026-04-12T08:56:11.906Z</time></trkpt><trkpt lat="44.919290814057454" lon="13.834642469456034"><ele>21.857142857142858</ele><time>2026-04-12T08:56:14.906Z</time></trkpt><trkpt lat="44.919269312378795" lon="13.834556242938094"><ele>21.714285714285715</ele><time>2026-04-12T08:56:17.906Z</time></trkpt><trkpt lat="44.91922907794159" lon="13.834483054615822"><ele>21.57142857142857</ele><time>2026-04-12T08:56:21.906Z</time></trkpt><trkpt lat="44.91916020397754" lon="13.83452564565504"><ele>21.42857142857143</ele><time>2026-04-12T08:56:26.906Z</time></trkpt><trkpt lat="44.919197690809966" lon="13.834599204632834"><ele>21.285714285714285</ele><time>2026-04-12T08:56:30.906Z</time></trkpt><trkpt lat="44.91925648983409" lon="13.834564744571766"><ele>21.142857142857142</ele><time>2026-04-12T08:56:34.906Z</time></trkpt><trkpt lat="44.91929933485092" lon="13.834634639986428"><ele>21.0</ele><time>2026-04-12T08:56:37.906Z</time></trkpt><trkpt lat="44.919300357919546" lon="13.834769736888184"><ele>21.0</ele><time>2026-04-12T08:56:39.906Z</time></trkpt><trkpt lat="44.91931814757721" lon="13.83492599161592"><ele>21.0</ele><time>2026-04-12T08:56:41.906Z</time></trkpt><trkpt lat="44.91934081822203" lon="13.835011979580573"><ele>21.0</ele><time>2026-04-12T08:56:42.906Z</time></trkpt><trkpt lat="44.91937494795981" lon="13.835121317655194"><ele>21.0</ele><time>2026-04-12T08:56:44.906Z</time></trkpt><trkpt lat="44.919382870647" lon="13.835223662839589"><ele>21.0</ele><time>2026-04-12T08:58:03.903Z</time></trkpt><trkpt lat="44.9194442959551" lon="13.835248623501233"><ele>21.0</ele><time>2026-04-12T08:58:06.903Z</time></trkpt><trkpt lat="44.91955967608573" lon="13.835186792921386"><ele>21.0</ele><time>2026-04-12T08:58:08.903Z</time></trkpt><trkpt lat="44.919634798640175" lon="13.835164250831"><ele>21.0</ele><time>2026-04-12T08:58:09.903Z</time></trkpt><trkpt lat="44.91969769259542" lon="13.835139562309829"><ele>21.0</ele><time>2026-04-12T08:58:10.903Z</time></trkpt><trkpt lat="44.919766548109784" lon="13.83511725244633"><ele>21.0</ele><time>2026-04-12T08:58:11.903Z</time></trkpt><trkpt lat="44.91983467251218" lon="13.835092189530533"><ele>21.0</ele><time>2026-04-12T08:58:12.903Z</time></trkpt><trkpt lat="44.91990410158185" lon="13.835059998286805"><ele>21.0</ele><time>2026-04-12T08:58:13.903Z</time></trkpt><trkpt lat="44.919972580026815" lon="13.835037768038514"><ele>21.0</ele><time>2026-04-12T08:58:14.903Z</time></trkpt><trkpt lat="44.920088697846786" lon="13.83499276865712"><ele>21.166666666666668</ele><time>2026-04-12T08:58:16.903Z</time></trkpt><trkpt lat="44.9201553721741" lon="13.834969009777934"><ele>21.333333333333332</ele><time>2026-04-12T08:58:17.903Z</time></trkpt><trkpt lat="44.92026686764541" lon="13.83492635012068"><ele>21.5</ele><time>2026-04-12T08:58:19.903Z</time></trkpt><trkpt lat="44.92035253774774" lon="13.83493849377101"><ele>21.666666666666664</ele><time>2026-04-12T08:58:21.903Z</time></trkpt><trkpt lat="44.9204012606421" lon="13.834999577149825"><ele>21.833333333333332</ele><time>2026-04-12T08:58:23.903Z</time></trkpt><trkpt lat="44.920422412998064" lon="13.835094644248837"><ele>22.0</ele><time>2026-04-12T08:58:25.903Z</time></trkpt><trkpt lat="44.92044033799669" lon="13.835218393998293"><ele>22.400000000000002</ele><time>2026-04-12T08:58:27.903Z</time></trkpt><trkpt lat="44.920471774855095" lon="13.835386251684646"><ele>22.8</ele><time>2026-04-12T08:58:29.903Z</time></trkpt><trkpt lat="44.92049086452081" lon="13.835473921696886"><ele>23.2</ele><time>2026-04-12T08:58:30.903Z</time></trkpt><trkpt lat="44.92053007884723" lon="13.835601392516686"><ele>23.6</ele><time>2026-04-12T08:58:32.903Z</time></trkpt><trkpt lat="44.92059466728319" lon="13.835664358494519"><ele>24.0</ele><time>2026-04-12T08:58:34.903Z</time></trkpt><trkpt lat="44.920692855407914" lon="13.835713209474784"><ele>24.0</ele><time>2026-04-12T08:58:36.903Z</time></trkpt><trkpt lat="44.92076738041996" lon="13.835793266050688"><ele>24.0</ele><time>2026-04-12T08:58:37.903Z</time></trkpt><trkpt lat="44.920831725104875" lon="13.835860649533538"><ele>24.0</ele><time>2026-04-12T08:58:38.903Z</time></trkpt><trkpt lat="44.92089360226375" lon="13.835903452503477"><ele>24.0</ele><time>2026-04-12T08:58:39.903Z</time></trkpt><trkpt lat="44.920960800483286" lon="13.835934547844193"><ele>24.0</ele><time>2026-04-12T08:58:40.903Z</time></trkpt><trkpt lat="44.92107268837612" lon="13.836003107600254"><ele>24.0</ele><time>2026-04-12T08:58:42.903Z</time></trkpt><trkpt lat="44.92113669715324" lon="13.836041392619501"><ele>23.75</ele><time>2026-04-12T08:58:43.903Z</time></trkpt><trkpt lat="44.921249445499576" lon="13.83613563445545"><ele>23.5</ele><time>2026-04-12T08:58:45.903Z</time></trkpt><trkpt lat="44.921301901664" lon="13.836187044114578"><ele>23.25</ele><time>2026-04-12T08:58:46.903Z</time></trkpt><trkpt lat="44.92137106716838" lon="13.836381412815163"><ele>23.0</ele><time>2026-04-12T08:58:49.903Z</time></trkpt><trkpt lat="44.92137719157734" lon="13.83652828329484"><ele>23.0</ele><time>2026-04-12T08:58:51.903Z</time></trkpt><trkpt lat="44.92134597725457" lon="13.836695539255361"><ele>23.0</ele><time>2026-04-12T08:58:53.903Z</time></trkpt><trkpt lat="44.92132328634409" lon="13.836809835155295"><ele>23.0</ele><time>2026-04-12T08:58:54.903Z</time></trkpt><trkpt lat="44.92129298686355" lon="13.836896516788226"><ele>23.0</ele><time>2026-04-12T08:58:55.903Z</time></trkpt><trkpt lat="44.921247392951166" lon="13.837072762602949"><ele>23.0</ele><time>2026-04-12T08:58:57.903Z</time></trkpt><trkpt lat="44.921240118028464" lon="13.837166526841433"><ele>23.333333333333336</ele><time>2026-04-12T08:58:58.903Z</time></trkpt><trkpt lat="44.92123808523113" lon="13.83725993509829"><ele>23.666666666666668</ele><time>2026-04-12T08:58:59.903Z</time></trkpt><trkpt lat="44.92124929947808" lon="13.837356652662553"><ele>24.0</ele><time>2026-04-12T08:59:00.903Z</time></trkpt><trkpt lat="44.92126357776014" lon="13.837486731490692"><ele>24.333333333333336</ele><time>2026-04-12T08:59:01.903Z</time></trkpt><trkpt lat="44.92127537839561" lon="13.837596466385984"><ele>24.666666666666668</ele><time>2026-04-12T08:59:02.903Z</time></trkpt><trkpt lat="44.92127869711873" lon="13.837704438679687"><ele>25.0</ele><time>2026-04-12T08:59:03.903Z</time></trkpt><trkpt lat="44.92129502406079" lon="13.83781590963198"><ele>25.4</ele><time>2026-04-12T08:59:04.903Z</time></trkpt><trkpt lat="44.92132621539024" lon="13.837921094066708"><ele>25.8</ele><time>2026-04-12T08:59:05.903Z</time></trkpt><trkpt lat="44.9213645259479" lon="13.838025999645128"><ele>26.200000000000003</ele><time>2026-04-12T08:59:06.903Z</time></trkpt><trkpt lat="44.92139298614822" lon="13.83811773286485"><ele>26.6</ele><time>2026-04-12T08:59:07.903Z</time></trkpt><trkpt lat="44.921445229341934" lon="13.838264875238258"><ele>27.0</ele><time>2026-04-12T08:59:09.903Z</time></trkpt><trkpt lat="44.921480387502484" lon="13.83840776764848"><ele>26.833333333333332</ele><time>2026-04-12T08:59:11.903Z</time></trkpt><trkpt lat="44.92151901993714" lon="13.838512735347653"><ele>26.666666666666664</ele><time>2026-04-12T08:59:13.902Z</time></trkpt><trkpt lat="44.92155611581756" lon="13.838598577625124"><ele>26.5</ele><time>2026-04-12T08:59:15.902Z</time></trkpt><trkpt lat="44.92160817865982" lon="13.838672253779679"><ele>26.333333333333332</ele><time>2026-04-12T08:59:17.902Z</time></trkpt><trkpt lat="44.92169494783007" lon="13.838722501115434"><ele>26.166666666666664</ele><time>2026-04-12T08:59:20.902Z</time></trkpt><trkpt lat="44.9217978828293" lon="13.838767662275751"><ele>26.0</ele><time>2026-04-12T08:59:22.902Z</time></trkpt><trkpt lat="44.92190559045353" lon="13.838809367309196"><ele>26.666666666666664</ele><time>2026-04-12T08:59:24.902Z</time></trkpt><trkpt lat="44.921993247567464" lon="13.838867674635807"><ele>27.333333333333332</ele><time>2026-04-12T08:59:26.902Z</time></trkpt><trkpt lat="44.92203910279238" lon="13.838931637295875"><ele>28.0</ele><time>2026-04-12T08:59:28.902Z</time></trkpt><trkpt lat="44.922091867411986" lon="13.83901431735391"><ele>28.666666666666664</ele><time>2026-04-12T08:59:33.902Z</time></trkpt><trkpt lat="44.9221411122697" lon="13.838934171033326"><ele>29.333333333333332</ele><time>2026-04-12T08:59:37.902Z</time></trkpt><trkpt lat="44.922049618689655" lon="13.83890703513915"><ele>30.0</ele><time>2026-04-12T08:59:41.902Z</time></trkpt><trkpt lat="44.92194478021768" lon="13.83883747532159"><ele>30.0</ele><time>2026-04-12T08:59:43.902Z</time></trkpt><trkpt lat="44.9217486200806" lon="13.83875288071119"><ele>30.0</ele><time>2026-04-12T08:59:46.902Z</time></trkpt><trkpt lat="44.92167039070199" lon="13.838711938568068"><ele>30.0</ele><time>2026-04-12T08:59:47.902Z</time></trkpt><trkpt lat="44.921593989456234" lon="13.8386838400191"><ele>30.0</ele><time>2026-04-12T08:59:48.901Z</time></trkpt><trkpt lat="44.92152088831774" lon="13.838664340765511"><ele>30.0</ele><time>2026-04-12T08:59:49.901Z</time></trkpt><trkpt lat="44.921445439956265" lon="13.83865245057549"><ele>29.333333333333332</ele><time>2026-04-12T08:59:50.901Z</time></trkpt><trkpt lat="44.921365588334915" lon="13.838653787540302"><ele>28.666666666666664</ele><time>2026-04-12T08:59:51.902Z</time></trkpt><trkpt lat="44.92128780586265" lon="13.838659116741656"><ele>28.0</ele><time>2026-04-12T08:59:52.901Z</time></trkpt><trkpt lat="44.921217640422526" lon="13.838663535249523"><ele>27.333333333333332</ele><time>2026-04-12T08:59:53.901Z</time></trkpt><trkpt lat="44.921149375866676" lon="13.83865466475529"><ele>26.666666666666664</ele><time>2026-04-12T08:59:54.901Z</time></trkpt><trkpt lat="44.92103464532374" lon="13.838591785358904"><ele>26.0</ele><time>2026-04-12T08:59:56.901Z</time></trkpt><trkpt lat="44.92096529697206" lon="13.83853938013099"><ele>25.6</ele><time>2026-04-12T08:59:57.901Z</time></trkpt><trkpt lat="44.92084035422596" lon="13.838499338582187"><ele>25.200000000000003</ele><time>2026-04-12T08:59:59.901Z</time></trkpt><trkpt lat="44.92076929473205" lon="13.838498119036263"><ele>24.799999999999997</ele><time>2026-04-12T09:00:00.901Z</time></trkpt><trkpt lat="44.920696011634206" lon="13.838473986517537"><ele>24.4</ele><time>2026-04-12T09:00:01.901Z</time></trkpt><trkpt lat="44.92057894172779" lon="13.838430175702175"><ele>24.0</ele><time>2026-04-12T09:00:03.901Z</time></trkpt><trkpt lat="44.92047536162896" lon="13.83848008180459"><ele>24.0</ele><time>2026-04-12T09:00:05.901Z</time></trkpt><trkpt lat="44.92037400124469" lon="13.83851589488533"><ele>24.0</ele><time>2026-04-12T09:00:07.901Z</time></trkpt><trkpt lat="44.92025325752273" lon="13.838456081322867"><ele>24.0</ele><time>2026-04-12T09:00:09.901Z</time></trkpt><trkpt lat="44.92016834693672" lon="13.838428875022602"><ele>24.0</ele><time>2026-04-12T09:00:10.901Z</time></trkpt><trkpt lat="44.920075303836775" lon="13.838384664884241"><ele>24.0</ele><time>2026-04-12T09:00:11.901Z</time></trkpt><trkpt lat="44.91997895688201" lon="13.8383216173967"><ele>24.799999999999997</ele><time>2026-04-12T09:00:12.901Z</time></trkpt><trkpt lat="44.9199088106926" lon="13.838281826843904"><ele>25.599999999999998</ele><time>2026-04-12T09:00:13.901Z</time></trkpt><trkpt lat="44.9198068348218" lon="13.838212917981943"><ele>26.4</ele><time>2026-04-12T09:00:15.901Z</time></trkpt><trkpt lat="44.91973428097941" lon="13.838246731957643"><ele>27.2</ele><time>2026-04-12T09:00:17.901Z</time></trkpt><trkpt lat="44.91968436370455" lon="13.838362546715887"><ele>28.0</ele><time>2026-04-12T09:00:19.901Z</time></trkpt><trkpt lat="44.91962496431239" lon="13.838478759170043"><ele>28.0</ele><time>2026-04-12T09:00:21.901Z</time></trkpt><trkpt lat="44.919552889570625" lon="13.83843238392024"><ele>27.999999999999996</ele><time>2026-04-12T09:00:24.901Z</time></trkpt><trkpt lat="44.91947699838846" lon="13.838288598433396"><ele>27.999999999999996</ele><time>2026-04-12T09:00:26.901Z</time></trkpt><trkpt lat="44.91941705817669" lon="13.838206599618324"><ele>28.0</ele><time>2026-04-12T09:00:27.901Z</time></trkpt><trkpt lat="44.91935243193342" lon="13.838104513446464"><ele>28.0</ele><time>2026-04-12T09:00:28.901Z</time></trkpt><trkpt lat="44.91930832284534" lon="13.837993891858233"><ele>28.000000000000004</ele><time>2026-04-12T09:00:29.901Z</time></trkpt><trkpt lat="44.91927308829549" lon="13.837895704019779"><ele>28.0</ele><time>2026-04-12T09:00:30.901Z</time></trkpt><trkpt lat="44.91922545216477" lon="13.837824447990249"><ele>28.0</ele><time>2026-04-12T09:00:31.901Z</time></trkpt><trkpt lat="44.91916480745609" lon="13.837778266383378"><ele>28.0</ele><time>2026-04-12T09:00:32.901Z</time></trkpt><trkpt lat="44.91908809018333" lon="13.837748532831398"><ele>28.000000000000004</ele><time>2026-04-12T09:00:33.901Z</time></trkpt><trkpt lat="44.91898751932284" lon="13.837710115335078"><ele>28.0</ele><time>2026-04-12T09:00:34.901Z</time></trkpt><trkpt lat="44.91888805255457" lon="13.837661472002873"><ele>27.599999999999998</ele><time>2026-04-12T09:00:35.901Z</time></trkpt><trkpt lat="44.91878755214752" lon="13.837628719505132"><ele>27.199999999999996</ele><time>2026-04-12T09:00:36.901Z</time></trkpt><trkpt lat="44.91868461272402" lon="13.837584265691321"><ele>26.8</ele><time>2026-04-12T09:00:37.901Z</time></trkpt><trkpt lat="44.91859141291582" lon="13.83754216717907"><ele>26.4</ele><time>2026-04-12T09:00:38.901Z</time></trkpt><trkpt lat="44.918509832073255" lon="13.837498203342552"><ele>26.0</ele><time>2026-04-12T09:00:39.903Z</time></trkpt><trkpt lat="44.918425789180695" lon="13.83745860194634"><ele>25.999999999999996</ele><time>2026-04-12T09:00:40.904Z</time></trkpt><trkpt lat="44.91834637082832" lon="13.83742161228398"><ele>26.0</ele><time>2026-04-12T09:00:41.905Z</time></trkpt><trkpt lat="44.91826408488793" lon="13.837390306829104"><ele>26.0</ele><time>2026-04-12T09:00:42.906Z</time></trkpt><trkpt lat="44.91818465735012" lon="13.837357638896163"><ele>26.0</ele><time>2026-04-12T09:00:43.907Z</time></trkpt><trkpt lat="44.91810096758193" lon="13.837328993652651"><ele>25.999999999999996</ele><time>2026-04-12T09:00:44.908Z</time></trkpt><trkpt lat="44.91800859459134" lon="13.837293746463052"><ele>26.0</ele><time>2026-04-12T09:00:45.909Z</time></trkpt><trkpt lat="44.917924772869405" lon="13.83725270281288"><ele>25.999999999999996</ele><time>2026-04-12T09:00:46.909Z</time></trkpt><trkpt lat="44.917852328450195" lon="13.837216209301825"><ele>26.0</ele><time>2026-04-12T09:00:47.91Z</time></trkpt><trkpt lat="44.91775993305448" lon="13.83716680143445"><ele>26.0</ele><time>2026-04-12T09:00:49.911Z</time></trkpt><trkpt lat="44.91768162692785" lon="13.837126299362412"><ele>26.0</ele><time>2026-04-12T09:00:51.913Z</time></trkpt><trkpt lat="44.91758255620432" lon="13.837092389914456"><ele>25.999999999999996</ele><time>2026-04-12T09:00:53.914Z</time></trkpt><trkpt lat="44.91751490668227" lon="13.83705742556034"><ele>26.0</ele><time>2026-04-12T09:00:54.914Z</time></trkpt><trkpt lat="44.91744069488884" lon="13.837024366727192"><ele>26.4</ele><time>2026-04-12T09:00:55.915Z</time></trkpt><trkpt lat="44.917354210888334" lon="13.836997662714069"><ele>26.8</ele><time>2026-04-12T09:00:56.915Z</time></trkpt><trkpt lat="44.91726772726082" lon="13.836951827631585"><ele>27.199999999999996</ele><time>2026-04-12T09:00:57.915Z</time></trkpt><trkpt lat="44.917186606388626" lon="13.83690853278956"><ele>27.599999999999998</ele><time>2026-04-12T09:00:58.916Z</time></trkpt><trkpt lat="44.91710177889359" lon="13.836862978095537"><ele>28.0</ele><time>2026-04-12T09:00:59.916Z</time></trkpt><trkpt lat="44.91701043092281" lon="13.836820735986414"><ele>27.599999999999998</ele><time>2026-04-12T09:01:00.916Z</time></trkpt><trkpt lat="44.91691626927814" lon="13.836774713747433"><ele>27.199999999999996</ele><time>2026-04-12T09:01:01.917Z</time></trkpt><trkpt lat="44.916824436680166" lon="13.836735374307082"><ele>26.8</ele><time>2026-04-12T09:01:02.917Z</time></trkpt><trkpt lat="44.91674121654486" lon="13.83670464678689"><ele>26.4</ele><time>2026-04-12T09:01:03.917Z</time></trkpt><trkpt lat="44.9166551802771" lon="13.836657750135203"><ele>26.0</ele><time>2026-04-12T09:01:04.917Z</time></trkpt><trkpt lat="44.91657571105043" lon="13.836612672356912"><ele>25.999999999999996</ele><time>2026-04-12T09:01:05.918Z</time></trkpt><trkpt lat="44.91647159183108" lon="13.836569718064013"><ele>26.0</ele><time>2026-04-12T09:01:07.918Z</time></trkpt><trkpt lat="44.91639937683616" lon="13.836519667186572"><ele>26.0</ele><time>2026-04-12T09:01:10.919Z</time></trkpt><trkpt lat="44.91633846886931" lon="13.836487656454432"><ele>26.0</ele><time>2026-04-12T09:01:12.919Z</time></trkpt><trkpt lat="44.91626171856441" lon="13.83645172668774"><ele>25.999999999999996</ele><time>2026-04-12T09:01:14.919Z</time></trkpt><trkpt lat="44.91620025041958" lon="13.836422570249416"><ele>26.0</ele><time>2026-04-12T09:01:16.919Z</time></trkpt><trkpt lat="44.91612736772413" lon="13.83641188180416"><ele>25.999999999999996</ele><time>2026-04-12T09:01:20.92Z</time></trkpt><trkpt lat="44.91613217483982" lon="13.836503317894984"><ele>26.0</ele><time>2026-04-12T09:01:23.92Z</time></trkpt><trkpt lat="44.91626876690331" lon="13.83647251887922"><ele>26.0</ele><time>2026-04-12T09:01:26.92Z</time></trkpt><trkpt lat="44.91633305177959" lon="13.836480973357732"><ele>26.0</ele><time>2026-04-12T09:01:27.92Z</time></trkpt><trkpt lat="44.91639497734541" lon="13.836502055616974"><ele>25.999999999999996</ele><time>2026-04-12T09:01:28.92Z</time></trkpt><trkpt lat="44.91645302920634" lon="13.836538532002809"><ele>26.0</ele><time>2026-04-12T09:01:29.92Z</time></trkpt><trkpt lat="44.91654696771483" lon="13.836570502931941"><ele>25.999999999999996</ele><time>2026-04-12T09:01:31.92Z</time></trkpt><trkpt lat="44.91663608589966" lon="13.83651165832834"><ele>26.0</ele><time>2026-04-12T09:01:33.92Z</time></trkpt><trkpt lat="44.91669520350395" lon="13.836460397758586"><ele>26.0</ele><time>2026-04-12T09:01:34.92Z</time></trkpt><trkpt lat="44.916770855735926" lon="13.836391649235884"><ele>26.0</ele><time>2026-04-12T09:01:35.92Z</time></trkpt><trkpt lat="44.916831772409935" lon="13.836321219280999"><ele>25.999999999999996</ele><time>2026-04-12T09:01:36.92Z</time></trkpt><trkpt lat="44.91687452260596" lon="13.836240832657621"><ele>26.0</ele><time>2026-04-12T09:01:37.92Z</time></trkpt><trkpt lat="44.91691768769345" lon="13.836164364195719"><ele>25.999999999999996</ele><time>2026-04-12T09:01:38.92Z</time></trkpt><trkpt lat="44.91697365172456" lon="13.836083447224054"><ele>26.0</ele><time>2026-04-12T09:01:39.92Z</time></trkpt><trkpt lat="44.91704073595686" lon="13.836024047862924"><ele>26.0</ele><time>2026-04-12T09:01:40.92Z</time></trkpt><trkpt lat="44.91710998410558" lon="13.835933677491123"><ele>26.0</ele><time>2026-04-12T09:01:41.92Z</time></trkpt><trkpt lat="44.91716697038952" lon="13.835842441736093"><ele>25.999999999999996</ele><time>2026-04-12T09:01:42.92Z</time></trkpt><trkpt lat="44.91722781997392" lon="13.835757796620099"><ele>26.0</ele><time>2026-04-12T09:01:43.921Z</time></trkpt><trkpt lat="44.9173045682556" lon="13.835691271917256"><ele>25.333333333333332</ele><time>2026-04-12T09:01:44.921Z</time></trkpt><trkpt lat="44.917385985960784" lon="13.835603858974194"><ele>24.666666666666664</ele><time>2026-04-12T09:01:45.921Z</time></trkpt><trkpt lat="44.91744084050721" lon="13.835530129080432"><ele>24.0</ele><time>2026-04-12T09:01:46.921Z</time></trkpt><trkpt lat="44.9174794434511" lon="13.835456798099143"><ele>23.333333333333332</ele><time>2026-04-12T09:01:47.921Z</time></trkpt><trkpt lat="44.91747755771028" lon="13.835360915608062"><ele>22.666666666666664</ele><time>2026-04-12T09:01:49.921Z</time></trkpt><trkpt lat="44.91753037277821" lon="13.835263759224327"><ele>22.0</ele><time>2026-04-12T09:01:53.919Z</time></trkpt><trkpt lat="44.91762748664121" lon="13.835156098150449"><ele>21.5</ele><time>2026-04-12T09:01:55.919Z</time></trkpt><trkpt lat="44.917682353719904" lon="13.835095587982908"><ele>21.0</ele><time>2026-04-12T09:01:56.919Z</time></trkpt><trkpt lat="44.9177697813149" lon="13.834989088917139"><ele>20.5</ele><time>2026-04-12T09:01:58.919Z</time></trkpt><trkpt lat="44.91781460010185" lon="13.83484845934573"><ele>20.0</ele><time>2026-04-12T09:02:00.919Z</time></trkpt><trkpt lat="44.917831136667324" lon="13.83476000663755"><ele>19.5</ele><time>2026-04-12T09:02:02.919Z</time></trkpt><trkpt lat="44.91791348474328" lon="13.83473419339531"><ele>19.0</ele><time>2026-04-12T09:02:07.919Z</time></trkpt><trkpt lat="44.917981219588" lon="13.834750022307311"><ele>19.0</ele><time>2026-04-12T09:02:09.919Z</time></trkpt><trkpt lat="44.91804519835317" lon="13.834713369354585"><ele>19.0</ele><time>2026-04-12T09:02:11.919Z</time></trkpt><trkpt lat="44.91813890435544" lon="13.834648795718703"><ele>19.0</ele><time>2026-04-12T09:02:13.919Z</time></trkpt><trkpt lat="44.918225011763724" lon="13.834575139710708"><ele>19.0</ele><time>2026-04-12T09:02:15.919Z</time></trkpt><trkpt lat="44.91828626461855" lon="13.834489033124184"><ele>19.0</ele><time>2026-04-12T09:02:17.919Z</time></trkpt><trkpt lat="44.918359781770306" lon="13.834426314341854"><ele>19.0</ele><time>2026-04-12T09:02:19.919Z</time></trkpt><trkpt lat="44.9184326692403" lon="13.834399479531944"><ele>18.666666666666664</ele><time>2026-04-12T09:02:21.919Z</time></trkpt><trkpt lat="44.91855540074745" lon="13.834348889933448"><ele>18.333333333333332</ele><time>2026-04-12T09:02:23.919Z</time></trkpt><trkpt lat="44.918614452168335" lon="13.834303766336005"><ele>18.0</ele><time>2026-04-12T09:02:24.919Z</time></trkpt><trkpt lat="44.918669709531144" lon="13.834246037212685"><ele>17.666666666666668</ele><time>2026-04-12T09:02:25.919Z</time></trkpt><trkpt lat="44.91872636428191" lon="13.834194504217274"><ele>17.333333333333336</ele><time>2026-04-12T09:02:26.919Z</time></trkpt><trkpt lat="44.91879240750845" lon="13.834144375621735"><ele>17.0</ele><time>2026-04-12T09:02:27.919Z</time></trkpt><trkpt lat="44.91884953317535" lon="13.834098208668443"><ele>17.0</ele><time>2026-04-12T09:02:28.919Z</time></trkpt><trkpt lat="44.91891222832104" lon="13.83404465594603"><ele>17.0</ele><time>2026-04-12T09:02:29.919Z</time></trkpt><trkpt lat="44.918977217554485" lon="13.83400737490531"><ele>17.0</ele><time>2026-04-12T09:02:30.919Z</time></trkpt><trkpt lat="44.919081057076085" lon="13.833923362259737"><ele>17.0</ele><time>2026-04-12T09:02:32.919Z</time></trkpt><trkpt lat="44.91913971022369" lon="13.833890014411816"><ele>17.0</ele><time>2026-04-12T09:02:33.919Z</time></trkpt><trkpt lat="44.919221997322424" lon="13.833841336368597"><ele>17.0</ele><time>2026-04-12T09:02:35.919Z</time></trkpt><trkpt lat="44.91930233051263" lon="13.833835331555173"><ele>17.0</ele><time>2026-04-12T09:04:27.917Z</time></trkpt><trkpt lat="44.919202250076324" lon="13.833839278424957"><ele>17.0</ele><time>2026-04-12T09:05:49.916Z</time></trkpt><trkpt lat="44.919109368020465" lon="13.833886646573625"><ele>17.0</ele><time>2026-04-12T09:05:51.916Z</time></trkpt><trkpt lat="44.91902790075533" lon="13.833943947136188"><ele>17.0</ele><time>2026-04-12T09:05:53.916Z</time></trkpt><trkpt lat="44.91894568513864" lon="13.834006910677042"><ele>17.0</ele><time>2026-04-12T09:05:55.916Z</time></trkpt><trkpt lat="44.91887098969272" lon="13.834060652596243"><ele>17.0</ele><time>2026-04-12T09:05:57.916Z</time></trkpt><trkpt lat="44.918766514477475" lon="13.834144212438371"><ele>17.0</ele><time>2026-04-12T09:05:59.916Z</time></trkpt><trkpt lat="44.91867662912193" lon="13.834214020780207"><ele>17.0</ele><time>2026-04-12T09:06:01.916Z</time></trkpt><trkpt lat="44.918571178852496" lon="13.83430474522766"><ele>17.0</ele><time>2026-04-12T09:06:03.916Z</time></trkpt><trkpt lat="44.9185111352982" lon="13.83435456945602"><ele>17.0</ele><time>2026-04-12T09:06:04.917Z</time></trkpt><trkpt lat="44.9184067805692" lon="13.834394098971094"><ele>17.4</ele><time>2026-04-12T09:06:06.917Z</time></trkpt><trkpt lat="44.918314999360625" lon="13.834440665540141"><ele>17.799999999999997</ele><time>2026-04-12T09:06:08.917Z</time></trkpt><trkpt lat="44.91823416727075" lon="13.834524641426922"><ele>18.2</ele><time>2026-04-12T09:06:10.917Z</time></trkpt><trkpt lat="44.918166387238074" lon="13.83462930004965"><ele>18.599999999999998</ele><time>2026-04-12T09:06:12.917Z</time></trkpt><trkpt lat="44.91807673431267" lon="13.834678770143324"><ele>19.0</ele><time>2026-04-12T09:06:14.917Z</time></trkpt><trkpt lat="44.91799438815159" lon="13.83474165683834"><ele>19.0</ele><time>2026-04-12T09:06:16.917Z</time></trkpt><trkpt lat="44.91792033175288" lon="13.834754222831881"><ele>19.0</ele><time>2026-04-12T09:06:18.917Z</time></trkpt><trkpt lat="44.917853047527984" lon="13.834721702457475"><ele>19.0</ele><time>2026-04-12T09:06:20.917Z</time></trkpt><trkpt lat="44.91781173568647" lon="13.834856692429483"><ele>19.0</ele><time>2026-04-12T09:06:23.917Z</time></trkpt><trkpt lat="44.917752827859154" lon="13.835010683035605"><ele>19.0</ele><time>2026-04-12T09:06:25.917Z</time></trkpt><trkpt lat="44.91769909510837" lon="13.835074657566011"><ele>19.0</ele><time>2026-04-12T09:06:26.917Z</time></trkpt><trkpt lat="44.917621070708506" lon="13.835152277857814"><ele>19.6</ele><time>2026-04-12T09:06:27.917Z</time></trkpt><trkpt lat="44.917554644676116" lon="13.83522443596231"><ele>20.2</ele><time>2026-04-12T09:06:28.917Z</time></trkpt><trkpt lat="44.91748004418018" lon="13.835320845923926"><ele>20.8</ele><time>2026-04-12T09:06:30.917Z</time></trkpt><trkpt lat="44.9174603843981" lon="13.835428984860561"><ele>21.400000000000002</ele><time>2026-04-12T09:06:32.917Z</time></trkpt><trkpt lat="44.91741154563093" lon="13.835577023462097"><ele>22.0</ele><time>2026-04-12T09:06:34.917Z</time></trkpt><trkpt lat="44.91733768716996" lon="13.835644232444306"><ele>22.0</ele><time>2026-04-12T09:06:35.917Z</time></trkpt><trkpt lat="44.9172514971195" lon="13.835740172952216"><ele>22.0</ele><time>2026-04-12T09:06:36.917Z</time></trkpt><trkpt lat="44.91717901276377" lon="13.835826160658181"><ele>22.0</ele><time>2026-04-12T09:06:37.917Z</time></trkpt><trkpt lat="44.917125242887174" lon="13.83590273431872"><ele>22.0</ele><time>2026-04-12T09:06:38.917Z</time></trkpt><trkpt lat="44.91708974961308" lon="13.835977544646848"><ele>22.0</ele><time>2026-04-12T09:06:39.917Z</time></trkpt><trkpt lat="44.91703785145224" lon="13.836041339994296"><ele>22.0</ele><time>2026-04-12T09:06:40.917Z</time></trkpt><trkpt lat="44.916972072393584" lon="13.836102537618936"><ele>22.666666666666664</ele><time>2026-04-12T09:06:41.917Z</time></trkpt><trkpt lat="44.9169122825594" lon="13.83615570044726"><ele>23.333333333333332</ele><time>2026-04-12T09:06:42.917Z</time></trkpt><trkpt lat="44.9168604277021" lon="13.83623090282959"><ele>24.0</ele><time>2026-04-12T09:06:43.917Z</time></trkpt><trkpt lat="44.91681753595232" lon="13.83631442350355"><ele>24.666666666666664</ele><time>2026-04-12T09:06:44.917Z</time></trkpt><trkpt lat="44.916733595019686" lon="13.836438491027602"><ele>25.333333333333332</ele><time>2026-04-12T09:06:46.917Z</time></trkpt><trkpt lat="44.916669807347176" lon="13.836479616920201"><ele>26.0</ele><time>2026-04-12T09:06:47.917Z</time></trkpt><trkpt lat="44.916612126988355" lon="13.836517767191085"><ele>25.999999999999996</ele><time>2026-04-12T09:06:48.917Z</time></trkpt><trkpt lat="44.91656930042368" lon="13.83659914653576"><ele>26.0</ele><time>2026-04-12T09:06:53.917Z</time></trkpt><trkpt lat="44.91664519831155" lon="13.836671483051406"><ele>26.0</ele><time>2026-04-12T09:06:56.916Z</time></trkpt><trkpt lat="44.91672042029691" lon="13.836702744423024"><ele>26.0</ele><time>2026-04-12T09:06:57.916Z</time></trkpt><trkpt lat="44.91679964367445" lon="13.8367298347092"><ele>25.999999999999996</ele><time>2026-04-12T09:06:58.916Z</time></trkpt><trkpt lat="44.9168998938559" lon="13.836761560359475"><ele>26.0</ele><time>2026-04-12T09:06:59.916Z</time></trkpt><trkpt lat="44.916996209492666" lon="13.836840536495494"><ele>26.4</ele><time>2026-04-12T09:07:00.916Z</time></trkpt><trkpt lat="44.91709115290539" lon="13.83688285488412"><ele>26.8</ele><time>2026-04-12T09:07:01.916Z</time></trkpt><trkpt lat="44.91718598505128" lon="13.836924950513318"><ele>27.199999999999996</ele><time>2026-04-12T09:07:02.916Z</time></trkpt><trkpt lat="44.91728508519645" lon="13.836946883205814"><ele>27.599999999999998</ele><time>2026-04-12T09:07:03.916Z</time></trkpt><trkpt lat="44.91737467579519" lon="13.836991918058521"><ele>28.0</ele><time>2026-04-12T09:07:04.916Z</time></trkpt><trkpt lat="44.917463359740466" lon="13.837042284202473"><ele>28.000000000000004</ele><time>2026-04-12T09:07:05.916Z</time></trkpt><trkpt lat="44.917532993082794" lon="13.837070020627072"><ele>28.0</ele><time>2026-04-12T09:07:06.916Z</time></trkpt><trkpt lat="44.91759743607801" lon="13.837095749983346"><ele>28.0</ele><time>2026-04-12T09:07:07.916Z</time></trkpt><trkpt lat="44.917719049072474" lon="13.837139934001003"><ele>28.0</ele><time>2026-04-12T09:07:09.916Z</time></trkpt><trkpt lat="44.917785858335264" lon="13.83717358102019"><ele>28.000000000000004</ele><time>2026-04-12T09:07:10.916Z</time></trkpt><trkpt lat="44.91786436991428" lon="13.837212470262816"><ele>28.0</ele><time>2026-04-12T09:07:11.916Z</time></trkpt><trkpt lat="44.917936678853415" lon="13.837255440861066"><ele>27.666666666666668</ele><time>2026-04-12T09:07:12.916Z</time></trkpt><trkpt lat="44.91801059005301" lon="13.837286228337883"><ele>27.333333333333336</ele><time>2026-04-12T09:07:13.916Z</time></trkpt><trkpt lat="44.91809138275756" lon="13.837315836681094"><ele>27.0</ele><time>2026-04-12T09:07:14.916Z</time></trkpt><trkpt lat="44.9181710926151" lon="13.837344480404875"><ele>26.666666666666664</ele><time>2026-04-12T09:07:15.916Z</time></trkpt><trkpt lat="44.91824800439701" lon="13.837375553132347"><ele>26.333333333333332</ele><time>2026-04-12T09:07:16.916Z</time></trkpt><trkpt lat="44.918315310703456" lon="13.837409812450128"><ele>26.0</ele><time>2026-04-12T09:07:17.916Z</time></trkpt><trkpt lat="44.91838386565223" lon="13.837444526798523"><ele>25.999999999999996</ele><time>2026-04-12T09:07:18.916Z</time></trkpt><trkpt lat="44.91845729368743" lon="13.837477456240103"><ele>26.0</ele><time>2026-04-12T09:07:19.916Z</time></trkpt><trkpt lat="44.918528076343506" lon="13.837510307659947"><ele>26.0</ele><time>2026-04-12T09:07:20.916Z</time></trkpt><trkpt lat="44.918596094845476" lon="13.83754181742358"><ele>26.0</ele><time>2026-04-12T09:07:21.916Z</time></trkpt><trkpt lat="44.9186571720798" lon="13.83757233729072"><ele>25.999999999999996</ele><time>2026-04-12T09:07:22.916Z</time></trkpt><trkpt lat="44.91872195875162" lon="13.837599748444113"><ele>26.0</ele><time>2026-04-12T09:07:23.916Z</time></trkpt><trkpt lat="44.918839620970374" lon="13.837642827526755"><ele>26.4</ele><time>2026-04-12T09:07:25.916Z</time></trkpt><trkpt lat="44.91890368633297" lon="13.837668198138212"><ele>26.8</ele><time>2026-04-12T09:07:26.916Z</time></trkpt><trkpt lat="44.91902639265875" lon="13.837722498873022"><ele>27.199999999999996</ele><time>2026-04-12T09:07:28.916Z</time></trkpt><trkpt lat="44.91909146144193" lon="13.837757239059888"><ele>27.599999999999998</ele><time>2026-04-12T09:07:29.916Z</time></trkpt><trkpt lat="44.919198225176025" lon="13.837837806407435"><ele>28.0</ele><time>2026-04-12T09:07:31.916Z</time></trkpt><trkpt lat="44.91925148997611" lon="13.837903118595305"><ele>28.0</ele><time>2026-04-12T09:07:32.916Z</time></trkpt><trkpt lat="44.9192870600638" lon="13.837985929694149"><ele>27.999999999999996</ele><time>2026-04-12T09:07:33.916Z</time></trkpt><trkpt lat="44.91931371224633" lon="13.83807066349005"><ele>27.999999999999996</ele><time>2026-04-12T09:07:34.916Z</time></trkpt><trkpt lat="44.919381351427475" lon="13.838208175316309"><ele>28.0</ele><time>2026-04-12T09:07:36.916Z</time></trkpt><trkpt lat="44.91947350415363" lon="13.838320612051094"><ele>28.0</ele><time>2026-04-12T09:07:38.916Z</time></trkpt><trkpt lat="44.919540550828444" lon="13.83843675339175"><ele>28.000000000000004</ele><time>2026-04-12T09:07:40.916Z</time></trkpt><trkpt lat="44.919612168233876" lon="13.838486118969826"><ele>28.0</ele><time>2026-04-12T09:07:54.916Z</time></trkpt><trkpt lat="44.919662546725924" lon="13.838424905358165"><ele>28.0</ele><time>2026-04-12T09:07:56.916Z</time></trkpt><trkpt lat="44.91972376506104" lon="13.838313532904936"><ele>28.0</ele><time>2026-04-12T09:07:58.916Z</time></trkpt><trkpt lat="44.91979283611922" lon="13.838210102539033"><ele>28.000000000000004</ele><time>2026-04-12T09:08:00.916Z</time></trkpt><trkpt lat="44.91987376614909" lon="13.838299184509397"><ele>28.0</ele><time>2026-04-12T09:08:02.916Z</time></trkpt><trkpt lat="44.91995402440962" lon="13.838344320512974"><ele>28.0</ele><time>2026-04-12T09:08:03.916Z</time></trkpt><trkpt lat="44.920050513959175" lon="13.838380888646906"><ele>27.999999999999996</ele><time>2026-04-12T09:08:04.916Z</time></trkpt><trkpt lat="44.920170019656574" lon="13.838428109990069"><ele>27.999999999999996</ele><time>2026-04-12T09:08:05.916Z</time></trkpt><trkpt lat="44.9202778448061" lon="13.838470009458053"><ele>28.0</ele><time>2026-04-12T09:08:06.916Z</time></trkpt><trkpt lat="44.920364455135335" lon="13.838497505970395"><ele>28.0</ele><time>2026-04-12T09:08:07.916Z</time></trkpt><trkpt lat="44.92046236162485" lon="13.838500459852058"><ele>27.666666666666668</ele><time>2026-04-12T09:08:09.915Z</time></trkpt><trkpt lat="44.92056180842178" lon="13.83845422516619"><ele>27.333333333333336</ele><time>2026-04-12T09:08:11.915Z</time></trkpt><trkpt lat="44.920630756965664" lon="13.838451806911827"><ele>27.0</ele><time>2026-04-12T09:08:12.914Z</time></trkpt><trkpt lat="44.92070225360624" lon="13.83847841969929"><ele>26.666666666666664</ele><time>2026-04-12T09:08:13.915Z</time></trkpt><trkpt lat="44.92078239819375" lon="13.838509592412333"><ele>26.333333333333332</ele><time>2026-04-12T09:08:14.915Z</time></trkpt><trkpt lat="44.9208767406227" lon="13.838532026056297"><ele>26.0</ele><time>2026-04-12T09:08:15.915Z</time></trkpt><trkpt lat="44.92096722905171" lon="13.838553446673817"><ele>25.999999999999996</ele><time>2026-04-12T09:08:16.915Z</time></trkpt><trkpt lat="44.921046262279866" lon="13.838596495296951"><ele>26.0</ele><time>2026-04-12T09:08:17.915Z</time></trkpt><trkpt lat="44.921125758081814" lon="13.838659771590445"><ele>26.0</ele><time>2026-04-12T09:08:18.914Z</time></trkpt><trkpt lat="44.921198620169186" lon="13.838694485563803"><ele>26.0</ele><time>2026-04-12T09:08:19.914Z</time></trkpt><trkpt lat="44.921270008416215" lon="13.838701816443482"><ele>25.999999999999996</ele><time>2026-04-12T09:08:20.914Z</time></trkpt><trkpt lat="44.92135704008948" lon="13.838677558221134"><ele>26.0</ele><time>2026-04-12T09:08:21.915Z</time></trkpt><trkpt lat="44.92145697240284" lon="13.838655879526634"><ele>26.0</ele><time>2026-04-12T09:08:22.915Z</time></trkpt><trkpt lat="44.92155174310381" lon="13.838658486301288"><ele>26.0</ele><time>2026-04-12T09:08:23.915Z</time></trkpt><trkpt lat="44.921642769936035" lon="13.83868224828365"><ele>26.0</ele><time>2026-04-12T09:08:24.915Z</time></trkpt><trkpt lat="44.92173165520785" lon="13.83872445011367"><ele>26.0</ele><time>2026-04-12T09:08:25.915Z</time></trkpt><trkpt lat="44.92183313749002" lon="13.838776639466266"><ele>26.0</ele><time>2026-04-12T09:08:26.915Z</time></trkpt><trkpt lat="44.921942514807974" lon="13.838826096466985"><ele>26.666666666666664</ele><time>2026-04-12T09:08:27.915Z</time></trkpt><trkpt lat="44.922018836727794" lon="13.838873787569849"><ele>27.333333333333332</ele><time>2026-04-12T09:08:28.915Z</time></trkpt><trkpt lat="44.92207255927619" lon="13.838939242689438"><ele>28.0</ele><time>2026-04-12T09:08:29.915Z</time></trkpt><trkpt lat="44.92216115335335" lon="13.839090381547738"><ele>28.666666666666664</ele><time>2026-04-12T09:08:31.915Z</time></trkpt><trkpt lat="44.922219479053986" lon="13.839148809434688"><ele>29.333333333333332</ele><time>2026-04-12T09:08:32.915Z</time></trkpt><trkpt lat="44.9222959441052" lon="13.839187980816362"><ele>30.0</ele><time>2026-04-12T09:08:33.915Z</time></trkpt><trkpt lat="44.92239837231711" lon="13.839223527990375"><ele>30.0</ele><time>2026-04-12T09:08:34.915Z</time></trkpt><trkpt lat="44.922506867038535" lon="13.839250256095587"><ele>30.0</ele><time>2026-04-12T09:08:35.915Z</time></trkpt><trkpt lat="44.92262795382948" lon="13.839299498613029"><ele>30.0</ele><time>2026-04-12T09:08:36.915Z</time></trkpt><trkpt lat="44.9227564174387" lon="13.839342853172054"><ele>30.0</ele><time>2026-04-12T09:08:37.915Z</time></trkpt><trkpt lat="44.92286333261016" lon="13.839384584548153"><ele>30.2</ele><time>2026-04-12T09:08:38.914Z</time></trkpt><trkpt lat="44.92295940869356" lon="13.839427514232467"><ele>30.4</ele><time>2026-04-12T09:08:39.914Z</time></trkpt><trkpt lat="44.92305428855159" lon="13.839468401400632"><ele>30.6</ele><time>2026-04-12T09:08:40.914Z</time></trkpt><trkpt lat="44.923140147819424" lon="13.839531787458604"><ele>30.8</ele><time>2026-04-12T09:08:41.914Z</time></trkpt><trkpt lat="44.92322805202721" lon="13.839573980810638"><ele>31.0</ele><time>2026-04-12T09:08:42.914Z</time></trkpt><trkpt lat="44.92331876402338" lon="13.83962004520859"><ele>31.4</ele><time>2026-04-12T09:08:43.914Z</time></trkpt><trkpt lat="44.923413221130616" lon="13.839661029191339"><ele>31.8</ele><time>2026-04-12T09:08:44.914Z</time></trkpt><trkpt lat="44.92350954839589" lon="13.839694976200278"><ele>32.199999999999996</ele><time>2026-04-12T09:08:45.914Z</time></trkpt><trkpt lat="44.9236172487555" lon="13.839740742278448"><ele>32.6</ele><time>2026-04-12T09:08:46.914Z</time></trkpt><trkpt lat="44.923731677055585" lon="13.839786540190206"><ele>33.0</ele><time>2026-04-12T09:08:47.914Z</time></trkpt><trkpt lat="44.92382110341739" lon="13.839828631114573"><ele>33.0</ele><time>2026-04-12T09:08:48.914Z</time></trkpt><trkpt lat="44.9239051665212" lon="13.839865000757735"><ele>33.0</ele><time>2026-04-12T09:08:49.914Z</time></trkpt><trkpt lat="44.923977582422154" lon="13.839896755456138"><ele>33.0</ele><time>2026-04-12T09:08:50.914Z</time></trkpt><trkpt lat="44.92404615774445" lon="13.839917401995407"><ele>33.0</ele><time>2026-04-12T09:08:51.914Z</time></trkpt><trkpt lat="44.92411674212546" lon="13.839945222109673"><ele>33.0</ele><time>2026-04-12T09:08:52.914Z</time></trkpt><trkpt lat="44.92419052650487" lon="13.839976609245978"><ele>33.0</ele><time>2026-04-12T09:08:53.914Z</time></trkpt><trkpt lat="44.92426902445922" lon="13.8400140247894"><ele>33.5</ele><time>2026-04-12T09:08:54.914Z</time></trkpt><trkpt lat="44.92435330064325" lon="13.840052003520185"><ele>34.0</ele><time>2026-04-12T09:08:55.914Z</time></trkpt><trkpt lat="44.924438012919595" lon="13.840089431856157"><ele>34.5</ele><time>2026-04-12T09:08:56.914Z</time></trkpt><trkpt lat="44.92452076938371" lon="13.840123754834787"><ele>35.0</ele><time>2026-04-12T09:08:57.914Z</time></trkpt><trkpt lat="44.92460167824698" lon="13.840162494901218"><ele>35.5</ele><time>2026-04-12T09:08:58.914Z</time></trkpt><trkpt lat="44.92467865850283" lon="13.840194293786375"><ele>36.0</ele><time>2026-04-12T09:08:59.914Z</time></trkpt><trkpt lat="44.92475049143878" lon="13.840223603399997"><ele>36.0</ele><time>2026-04-12T09:09:00.914Z</time></trkpt><trkpt lat="44.92483043954105" lon="13.84025310506909"><ele>36.0</ele><time>2026-04-12T09:09:01.914Z</time></trkpt><trkpt lat="44.9249125705908" lon="13.8402880737975"><ele>36.0</ele><time>2026-04-12T09:09:02.914Z</time></trkpt><trkpt lat="44.924984750070635" lon="13.840320901524855"><ele>36.0</ele><time>2026-04-12T09:09:03.914Z</time></trkpt><trkpt lat="44.925052820239124" lon="13.840345742389287"><ele>36.0</ele><time>2026-04-12T09:09:04.914Z</time></trkpt><trkpt lat="44.92511665764979" lon="13.840369539539896"><ele>36.0</ele><time>2026-04-12T09:09:05.914Z</time></trkpt><trkpt lat="44.92520846909553" lon="13.840411384617923"><ele>36.0</ele><time>2026-04-12T09:09:07.914Z</time></trkpt><trkpt lat="44.9252830641854" lon="13.840352068588103"><ele>36.0</ele><time>2026-04-12T09:09:10.914Z</time></trkpt><trkpt lat="44.92530334033314" lon="13.840247921691509"><ele>36.0</ele><time>2026-04-12T09:09:12.914Z</time></trkpt><trkpt lat="44.92529213204596" lon="13.840086106732993"><ele>36.0</ele><time>2026-04-12T09:09:14.914Z</time></trkpt><trkpt lat="44.92528747214566" lon="13.839934997576453"><ele>36.0</ele><time>2026-04-12T09:09:15.914Z</time></trkpt><trkpt lat="44.925255166115726" lon="13.839758295446892"><ele>36.0</ele><time>2026-04-12T09:09:16.914Z</time></trkpt><trkpt lat="44.92522610643237" lon="13.83960704294003"><ele>36.0</ele><time>2026-04-12T09:09:17.914Z</time></trkpt><trkpt lat="44.925210176578425" lon="13.839465867090109"><ele>36.0</ele><time>2026-04-12T09:09:18.914Z</time></trkpt><trkpt lat="44.92520888677227" lon="13.839316886151206"><ele>36.0</ele><time>2026-04-12T09:09:19.914Z</time></trkpt><trkpt lat="44.92521398275626" lon="13.83917004307004"><ele>36.0</ele><time>2026-04-12T09:09:20.914Z</time></trkpt><trkpt lat="44.92524436208629" lon="13.839010607780828"><ele>35.25</ele><time>2026-04-12T09:09:21.914Z</time></trkpt><trkpt lat="44.92528815639046" lon="13.838832440561477"><ele>34.5</ele><time>2026-04-12T09:09:22.914Z</time></trkpt><trkpt lat="44.92533134504625" lon="13.838659994497714"><ele>33.75</ele><time>2026-04-12T09:09:23.914Z</time></trkpt><trkpt lat="44.92536656729504" lon="13.838495159318184"><ele>33.0</ele><time>2026-04-12T09:09:24.914Z</time></trkpt><trkpt lat="44.92540936133923" lon="13.838324505779834"><ele>32.75</ele><time>2026-04-12T09:09:25.914Z</time></trkpt><trkpt lat="44.92544969911122" lon="13.838157577369387"><ele>32.5</ele><time>2026-04-12T09:09:26.914Z</time></trkpt><trkpt lat="44.92547766147117" lon="13.837975521818423"><ele>32.25</ele><time>2026-04-12T09:09:27.914Z</time></trkpt><trkpt lat="44.925491573636826" lon="13.837801035545768"><ele>32.0</ele><time>2026-04-12T09:09:28.914Z</time></trkpt><trkpt lat="44.92548671892181" lon="13.837620563029876"><ele>31.75</ele><time>2026-04-12T09:09:29.914Z</time></trkpt><trkpt lat="44.925456055654266" lon="13.83744906662345"><ele>31.5</ele><time>2026-04-12T09:09:30.914Z</time></trkpt><trkpt lat="44.92541019505571" lon="13.837275662920884"><ele>31.25</ele><time>2026-04-12T09:09:31.914Z</time></trkpt><trkpt lat="44.925360782076815" lon="13.837095096607056"><ele>31.0</ele><time>2026-04-12T09:09:32.914Z</time></trkpt><trkpt lat="44.92530592119243" lon="13.83690978000625"><ele>31.25</ele><time>2026-04-12T09:09:33.914Z</time></trkpt><trkpt lat="44.925247846531235" lon="13.836707736781488"><ele>31.5</ele><time>2026-04-12T09:09:34.914Z</time></trkpt><trkpt lat="44.92519822134393" lon="13.836507833506966"><ele>31.75</ele><time>2026-04-12T09:09:35.914Z</time></trkpt><trkpt lat="44.92515087521066" lon="13.83632308439552"><ele>32.0</ele><time>2026-04-12T09:09:36.914Z</time></trkpt><trkpt lat="44.92511218522919" lon="13.836139962852497"><ele>32.0</ele><time>2026-04-12T09:09:37.914Z</time></trkpt><trkpt lat="44.92507525521978" lon="13.835966620255485"><ele>32.0</ele><time>2026-04-12T09:09:38.914Z</time></trkpt><trkpt lat="44.92503314599315" lon="13.835812047666739"><ele>32.0</ele><time>2026-04-12T09:09:39.914Z</time></trkpt><trkpt lat="44.92498973064845" lon="13.83566401596016"><ele>32.0</ele><time>2026-04-12T09:09:40.914Z</time></trkpt><trkpt lat="44.92495405602284" lon="13.835516743457696"><ele>31.0</ele><time>2026-04-12T09:09:41.914Z</time></trkpt><trkpt lat="44.9249148328759" lon="13.835372848923859"><ele>30.0</ele><time>2026-04-12T09:09:42.914Z</time></trkpt><trkpt lat="44.924874432797836" lon="13.835212096816955"><ele>29.0</ele><time>2026-04-12T09:09:43.914Z</time></trkpt><trkpt lat="44.92482910253277" lon="13.835043239040006"><ele>28.0</ele><time>2026-04-12T09:09:44.914Z</time></trkpt><trkpt lat="44.924785505678116" lon="13.834867353983428"><ele>28.0</ele><time>2026-04-12T09:09:45.914Z</time></trkpt><trkpt lat="44.924737867711805" lon="13.834694819956606"><ele>28.0</ele><time>2026-04-12T09:09:46.914Z</time></trkpt><trkpt lat="44.924699177043905" lon="13.834532418336615"><ele>28.0</ele><time>2026-04-12T09:09:47.914Z</time></trkpt><trkpt lat="44.9246632312052" lon="13.834385211952384"><ele>28.0</ele><time>2026-04-12T09:09:48.914Z</time></trkpt><trkpt lat="44.9246225203658" lon="13.834243410297606"><ele>27.799999999999997</ele><time>2026-04-12T09:09:49.914Z</time></trkpt><trkpt lat="44.924574983527094" lon="13.834110818120015"><ele>27.599999999999998</ele><time>2026-04-12T09:09:50.914Z</time></trkpt><trkpt lat="44.92453370824413" lon="13.833981892892385"><ele>27.400000000000002</ele><time>2026-04-12T09:09:51.914Z</time></trkpt><trkpt lat="44.924486679212926" lon="13.833843742169934"><ele>27.200000000000003</ele><time>2026-04-12T09:09:52.914Z</time></trkpt><trkpt lat="44.92443165816015" lon="13.833715477125642"><ele>27.0</ele><time>2026-04-12T09:09:53.914Z</time></trkpt><trkpt lat="44.92436950684819" lon="13.833565377728357"><ele>26.75</ele><time>2026-04-12T09:09:54.914Z</time></trkpt><trkpt lat="44.92430510580496" lon="13.833404348011205"><ele>26.5</ele><time>2026-04-12T09:09:55.914Z</time></trkpt><trkpt lat="44.92423424388204" lon="13.83322110747041"><ele>26.25</ele><time>2026-04-12T09:09:56.914Z</time></trkpt><trkpt lat="44.92415825780253" lon="13.833032370965222"><ele>26.0</ele><time>2026-04-12T09:09:57.914Z</time></trkpt><trkpt lat="44.924081296899075" lon="13.832847477792372"><ele>25.25</ele><time>2026-04-12T09:09:58.914Z</time></trkpt><trkpt lat="44.9240134295977" lon="13.832683091513731"><ele>24.5</ele><time>2026-04-12T09:09:59.914Z</time></trkpt><trkpt lat="44.92394186657927" lon="13.832522114010667"><ele>23.75</ele><time>2026-04-12T09:10:00.914Z</time></trkpt><trkpt lat="44.923879628892315" lon="13.832369443123111"><ele>23.0</ele><time>2026-04-12T09:10:01.914Z</time></trkpt><trkpt lat="44.92382069145336" lon="13.832219701405545"><ele>23.0</ele><time>2026-04-12T09:10:02.914Z</time></trkpt><trkpt lat="44.92375925083855" lon="13.832059359806445"><ele>23.0</ele><time>2026-04-12T09:10:03.914Z</time></trkpt><trkpt lat="44.923692385187465" lon="13.831903182074749"><ele>23.0</ele><time>2026-04-12T09:10:04.914Z</time></trkpt><trkpt lat="44.923626336834744" lon="13.8317500487277"><ele>23.0</ele><time>2026-04-12T09:10:05.914Z</time></trkpt><trkpt lat="44.9235560971295" lon="13.83158515922826"><ele>22.5</ele><time>2026-04-12T09:10:06.914Z</time></trkpt><trkpt lat="44.92348153856848" lon="13.831426736691117"><ele>22.0</ele><time>2026-04-12T09:10:07.914Z</time></trkpt><trkpt lat="44.92340789090517" lon="13.831261728216292"><ele>21.5</ele><time>2026-04-12T09:10:08.914Z</time></trkpt><trkpt lat="44.923326610103935" lon="13.831112270015382"><ele>21.0</ele><time>2026-04-12T09:10:09.914Z</time></trkpt><trkpt lat="44.923248976734264" lon="13.83096889091473"><ele>20.5</ele><time>2026-04-12T09:10:10.914Z</time></trkpt><trkpt lat="44.92316940176979" lon="13.83082504589996"><ele>20.0</ele><time>2026-04-12T09:10:11.914Z</time></trkpt><trkpt lat="44.923099024608824" lon="13.830681872360412"><ele>19.5</ele><time>2026-04-12T09:10:12.914Z</time></trkpt><trkpt lat="44.92303311914467" lon="13.830534451864134"><ele>19.0</ele><time>2026-04-12T09:10:13.914Z</time></trkpt><trkpt lat="44.92296548859095" lon="13.830397540431738"><ele>19.0</ele><time>2026-04-12T09:10:14.914Z</time></trkpt><trkpt lat="44.922895754773904" lon="13.830259935080191"><ele>19.0</ele><time>2026-04-12T09:10:15.912Z</time></trkpt><trkpt lat="44.92283133037827" lon="13.830125832250493"><ele>19.0</ele><time>2026-04-12T09:10:16.912Z</time></trkpt><trkpt lat="44.92277314013511" lon="13.829979045363302"><ele>19.0</ele><time>2026-04-12T09:10:17.912Z</time></trkpt><trkpt lat="44.922732711321274" lon="13.829826483201494"><ele>19.0</ele><time>2026-04-12T09:10:18.912Z</time></trkpt><trkpt lat="44.922723620935656" lon="13.829667590896738"><ele>19.0</ele><time>2026-04-12T09:10:19.912Z</time></trkpt><trkpt lat="44.922748331179854" lon="13.829506743162543"><ele>19.0</ele><time>2026-04-12T09:10:20.912Z</time></trkpt><trkpt lat="44.92278585983861" lon="13.82934317267899"><ele>19.0</ele><time>2026-04-12T09:10:21.913Z</time></trkpt><trkpt lat="44.92283128989001" lon="13.829170473252486"><ele>18.75</ele><time>2026-04-12T09:10:22.912Z</time></trkpt><trkpt lat="44.9228727025089" lon="13.828988951256784"><ele>18.5</ele><time>2026-04-12T09:10:23.912Z</time></trkpt><trkpt lat="44.922915811039026" lon="13.82878687471628"><ele>18.25</ele><time>2026-04-12T09:10:24.913Z</time></trkpt><trkpt lat="44.92295787594909" lon="13.82858401453386"><ele>18.0</ele><time>2026-04-12T09:10:25.912Z</time></trkpt><trkpt lat="44.923000714825925" lon="13.828389140092659"><ele>17.75</ele><time>2026-04-12T09:10:26.912Z</time></trkpt><trkpt lat="44.923042065068344" lon="13.828203888818242"><ele>17.5</ele><time>2026-04-12T09:10:27.912Z</time></trkpt><trkpt lat="44.92308827675416" lon="13.828022133189686"><ele>17.25</ele><time>2026-04-12T09:10:28.912Z</time></trkpt><trkpt lat="44.923136231092215" lon="13.827838150851663"><ele>17.0</ele><time>2026-04-12T09:10:29.912Z</time></trkpt><trkpt lat="44.92318358308971" lon="13.82765155578932"><ele>16.666666666666668</ele><time>2026-04-12T09:10:30.912Z</time></trkpt><trkpt lat="44.92322969714693" lon="13.827453552297888"><ele>16.333333333333332</ele><time>2026-04-12T09:10:31.912Z</time></trkpt><trkpt lat="44.9232708869286" lon="13.827241003637681"><ele>16.0</ele><time>2026-04-12T09:10:32.912Z</time></trkpt><trkpt lat="44.923307071672006" lon="13.827014713151367"><ele>15.666666666666666</ele><time>2026-04-12T09:10:33.912Z</time></trkpt><trkpt lat="44.92334218167227" lon="13.826779310318855"><ele>15.333333333333332</ele><time>2026-04-12T09:10:34.912Z</time></trkpt><trkpt lat="44.923382745483245" lon="13.826557125731767"><ele>15.0</ele><time>2026-04-12T09:10:35.912Z</time></trkpt><trkpt lat="44.92342747124547" lon="13.82633616837521"><ele>15.333333333333332</ele><time>2026-04-12T09:10:36.912Z</time></trkpt><trkpt lat="44.923496247537194" lon="13.826120368812168"><ele>15.666666666666666</ele><time>2026-04-12T09:10:37.912Z</time></trkpt><trkpt lat="44.92354504256957" lon="13.825916811121148"><ele>16.0</ele><time>2026-04-12T09:10:38.912Z</time></trkpt><trkpt lat="44.92361346042786" lon="13.825725779174626"><ele>16.0</ele><time>2026-04-12T09:10:39.912Z</time></trkpt><trkpt lat="44.923681363723105" lon="13.825529707111487"><ele>16.0</ele><time>2026-04-12T09:10:40.912Z</time></trkpt><trkpt lat="44.9237443910734" lon="13.825334707407862"><ele>16.0</ele><time>2026-04-12T09:10:41.912Z</time></trkpt><trkpt lat="44.923790903139874" lon="13.825136116915886"><ele>15.25</ele><time>2026-04-12T09:10:42.912Z</time></trkpt><trkpt lat="44.92382176004479" lon="13.824933933066346"><ele>14.5</ele><time>2026-04-12T09:10:43.912Z</time></trkpt><trkpt lat="44.923847140895084" lon="13.824723484111477"><ele>13.75</ele><time>2026-04-12T09:10:44.912Z</time></trkpt><trkpt lat="44.92387494558715" lon="13.824519558633913"><ele>13.0</ele><time>2026-04-12T09:10:45.912Z</time></trkpt><trkpt lat="44.92389818040625" lon="13.824317766285517"><ele>13.0</ele><time>2026-04-12T09:10:46.912Z</time></trkpt><trkpt lat="44.92392369893847" lon="13.824109824741688"><ele>13.0</ele><time>2026-04-12T09:10:47.912Z</time></trkpt><trkpt lat="44.923962398534144" lon="13.823909638936009"><ele>13.0</ele><time>2026-04-12T09:10:48.912Z</time></trkpt><trkpt lat="44.924001004857764" lon="13.823710777564067"><ele>13.0</ele><time>2026-04-12T09:10:49.912Z</time></trkpt><trkpt lat="44.92404242999596" lon="13.823515988710406"><ele>13.25</ele><time>2026-04-12T09:10:50.912Z</time></trkpt><trkpt lat="44.924078526586555" lon="13.8233250780377"><ele>13.5</ele><time>2026-04-12T09:10:51.912Z</time></trkpt><trkpt lat="44.924117214974416" lon="13.823126921115476"><ele>13.75</ele><time>2026-04-12T09:10:52.912Z</time></trkpt><trkpt lat="44.9241503757455" lon="13.822928816029153"><ele>14.0</ele><time>2026-04-12T09:10:53.912Z</time></trkpt><trkpt lat="44.924191104570056" lon="13.822722029571993"><ele>14.666666666666668</ele><time>2026-04-12T09:10:54.912Z</time></trkpt><trkpt lat="44.9242323082028" lon="13.822509095288671"><ele>15.333333333333332</ele><time>2026-04-12T09:10:55.912Z</time></trkpt><trkpt lat="44.92427465808189" lon="13.822300098995681"><ele>16.0</ele><time>2026-04-12T09:10:56.912Z</time></trkpt><trkpt lat="44.92431962697989" lon="13.82208671667602"><ele>16.0</ele><time>2026-04-12T09:10:57.912Z</time></trkpt><trkpt lat="44.924359339946065" lon="13.821871049120183"><ele>16.0</ele><time>2026-04-12T09:10:58.912Z</time></trkpt><trkpt lat="44.924397961025335" lon="13.82167850655398"><ele>16.0</ele><time>2026-04-12T09:10:59.912Z</time></trkpt><trkpt lat="44.924443647138915" lon="13.821475447605609"><ele>16.333333333333332</ele><time>2026-04-12T09:11:00.912Z</time></trkpt><trkpt lat="44.92451083957201" lon="13.821291014700103"><ele>16.666666666666668</ele><time>2026-04-12T09:11:01.912Z</time></trkpt><trkpt lat="44.92457703333336" lon="13.821093272032165"><ele>17.0</ele><time>2026-04-12T09:11:02.912Z</time></trkpt><trkpt lat="44.92463534734276" lon="13.820880286393148"><ele>16.0</ele><time>2026-04-12T09:11:03.912Z</time></trkpt><trkpt lat="44.92470261827749" lon="13.820674485753804"><ele>15.0</ele><time>2026-04-12T09:11:04.912Z</time></trkpt><trkpt lat="44.92475809734016" lon="13.820463277502892"><ele>14.0</ele><time>2026-04-12T09:11:05.912Z</time></trkpt><trkpt lat="44.92480022227979" lon="13.820247214925923"><ele>14.0</ele><time>2026-04-12T09:11:06.912Z</time></trkpt><trkpt lat="44.924838063056704" lon="13.82002452203996"><ele>14.0</ele><time>2026-04-12T09:11:07.912Z</time></trkpt><trkpt lat="44.92486853348682" lon="13.819817505888427"><ele>14.0</ele><time>2026-04-12T09:11:08.912Z</time></trkpt><trkpt lat="44.9249048864" lon="13.819614478974113"><ele>14.0</ele><time>2026-04-12T09:11:09.912Z</time></trkpt><trkpt lat="44.92495842049605" lon="13.819427040527536"><ele>14.0</ele><time>2026-04-12T09:11:10.912Z</time></trkpt><trkpt lat="44.92500623285396" lon="13.819241047689662"><ele>14.0</ele><time>2026-04-12T09:11:11.912Z</time></trkpt><trkpt lat="44.925058420251545" lon="13.819032357531508"><ele>14.0</ele><time>2026-04-12T09:11:12.912Z</time></trkpt><trkpt lat="44.92509167413922" lon="13.818829339449943"><ele>14.333333333333334</ele><time>2026-04-12T09:11:13.912Z</time></trkpt><trkpt lat="44.925138303894755" lon="13.818626594986188"><ele>14.666666666666668</ele><time>2026-04-12T09:11:14.912Z</time></trkpt><trkpt lat="44.925184257342956" lon="13.818424631190513"><ele>15.0</ele><time>2026-04-12T09:11:15.912Z</time></trkpt><trkpt lat="44.92524453077391" lon="13.81823092572246"><ele>15.0</ele><time>2026-04-12T09:11:16.912Z</time></trkpt><trkpt lat="44.925285088033824" lon="13.818027723924036"><ele>15.0</ele><time>2026-04-12T09:11:17.912Z</time></trkpt><trkpt lat="44.925328276636066" lon="13.81783071516165"><ele>15.0</ele><time>2026-04-12T09:11:18.912Z</time></trkpt><trkpt lat="44.92536838454745" lon="13.817635782608177"><ele>15.0</ele><time>2026-04-12T09:11:19.912Z</time></trkpt><trkpt lat="44.92540541706306" lon="13.817449519239112"><ele>15.0</ele><time>2026-04-12T09:11:20.912Z</time></trkpt><trkpt lat="44.925447075376894" lon="13.817273601205311"><ele>15.0</ele><time>2026-04-12T09:11:21.912Z</time></trkpt><trkpt lat="44.925480877132394" lon="13.817116181277756"><ele>15.0</ele><time>2026-04-12T09:11:22.912Z</time></trkpt><trkpt lat="44.925508371592464" lon="13.816964640531278"><ele>15.0</ele><time>2026-04-12T09:11:23.912Z</time></trkpt><trkpt lat="44.925531518691336" lon="13.8168478998575"><ele>15.0</ele><time>2026-04-12T09:11:24.912Z</time></trkpt><trkpt lat="44.925573780428465" lon="13.816732624158428"><ele>14.8</ele><time>2026-04-12T09:11:26.912Z</time></trkpt><trkpt lat="44.925694740384344" lon="13.81673364558471"><ele>14.6</ele><time>2026-04-12T09:11:28.912Z</time></trkpt><trkpt lat="44.92577065457438" lon="13.816748331312278"><ele>14.399999999999999</ele><time>2026-04-12T09:11:29.912Z</time></trkpt><trkpt lat="44.925867369622054" lon="13.816749405884728"><ele>14.2</ele><time>2026-04-12T09:11:30.912Z</time></trkpt><trkpt lat="44.925985363735336" lon="13.816733302103243"><ele>14.0</ele><time>2026-04-12T09:11:31.912Z</time></trkpt><trkpt lat="44.926118125454366" lon="13.81667075168293"><ele>14.5</ele><time>2026-04-12T09:11:32.912Z</time></trkpt><trkpt lat="44.92625131017569" lon="13.81665129906835"><ele>15.0</ele><time>2026-04-12T09:11:33.912Z</time></trkpt><trkpt lat="44.92637010452466" lon="13.816632581996542"><ele>15.5</ele><time>2026-04-12T09:11:34.912Z</time></trkpt><trkpt lat="44.92647927766429" lon="13.816645481998147"><ele>16.0</ele><time>2026-04-12T09:11:35.912Z</time></trkpt><trkpt lat="44.92658592512698" lon="13.816653820518514"><ele>16.0</ele><time>2026-04-12T09:11:36.912Z</time></trkpt><trkpt lat="44.9266931188635" lon="13.816659832694477"><ele>16.0</ele><time>2026-04-12T09:11:37.912Z</time></trkpt><trkpt lat="44.92679812759113" lon="13.816658031416322"><ele>16.0</ele><time>2026-04-12T09:11:38.912Z</time></trkpt><trkpt lat="44.92690236909302" lon="13.816673158172117"><ele>16.0</ele><time>2026-04-12T09:11:39.912Z</time></trkpt><trkpt lat="44.92702487351405" lon="13.81667015826633"><ele>16.0</ele><time>2026-04-12T09:11:40.912Z</time></trkpt><trkpt lat="44.927156847040784" lon="13.816643977715474"><ele>16.75</ele><time>2026-04-12T09:11:41.912Z</time></trkpt><trkpt lat="44.92729389503809" lon="13.816552420040583"><ele>17.5</ele><time>2026-04-12T09:11:42.912Z</time></trkpt><trkpt lat="44.927443526898784" lon="13.816513589358069"><ele>18.25</ele><time>2026-04-12T09:11:43.912Z</time></trkpt><trkpt lat="44.92757844590651" lon="13.81646111229926"><ele>19.0</ele><time>2026-04-12T09:11:44.912Z</time></trkpt><trkpt lat="44.92770184803006" lon="13.81640774380611"><ele>19.2</ele><time>2026-04-12T09:11:45.912Z</time></trkpt><trkpt lat="44.927804249516534" lon="13.816353490752839"><ele>19.4</ele><time>2026-04-12T09:11:46.912Z</time></trkpt><trkpt lat="44.92788973633669" lon="13.816286425258411"><ele>19.6</ele><time>2026-04-12T09:11:47.912Z</time></trkpt><trkpt lat="44.927962311276374" lon="13.816214497279514"><ele>19.8</ele><time>2026-04-12T09:11:48.912Z</time></trkpt><trkpt lat="44.92803776240041" lon="13.816132851371146"><ele>20.0</ele><time>2026-04-12T09:11:49.912Z</time></trkpt><trkpt lat="44.928108071510046" lon="13.816057514188625"><ele>20.0</ele><time>2026-04-12T09:11:50.912Z</time></trkpt><trkpt lat="44.928170655376185" lon="13.815987269293204"><ele>20.0</ele><time>2026-04-12T09:11:51.912Z</time></trkpt><trkpt lat="44.92822028933167" lon="13.815908264918797"><ele>20.0</ele><time>2026-04-12T09:11:52.912Z</time></trkpt><trkpt lat="44.92827706776525" lon="13.815860830489092"><ele>20.0</ele><time>2026-04-12T09:11:53.912Z</time></trkpt><trkpt lat="44.928333082979634" lon="13.815805867256199"><ele>20.0</ele><time>2026-04-12T09:11:54.912Z</time></trkpt><trkpt lat="44.928445290775954" lon="13.815718808423128"><ele>20.0</ele><time>2026-04-12T09:11:56.912Z</time></trkpt><trkpt lat="44.92851203769509" lon="13.815686299452073"><ele>20.0</ele><time>2026-04-12T09:11:57.912Z</time></trkpt><trkpt lat="44.92858016697381" lon="13.815667621805778"><ele>20.0</ele><time>2026-04-12T09:11:58.912Z</time></trkpt><trkpt lat="44.92866568875313" lon="13.815661748279064"><ele>20.0</ele><time>2026-04-12T09:11:59.912Z</time></trkpt><trkpt lat="44.92877659245136" lon="13.815615683287973"><ele>20.0</ele><time>2026-04-12T09:12:00.912Z</time></trkpt><trkpt lat="44.92888042665539" lon="13.815605074402539"><ele>20.0</ele><time>2026-04-12T09:12:01.912Z</time></trkpt><trkpt lat="44.928993326930865" lon="13.815591285707981"><ele>20.0</ele><time>2026-04-12T09:12:02.912Z</time></trkpt><trkpt lat="44.92910741604988" lon="13.815601920487778"><ele>20.0</ele><time>2026-04-12T09:12:03.912Z</time></trkpt><trkpt lat="44.92920803109241" lon="13.815594628016049"><ele>20.0</ele><time>2026-04-12T09:12:04.912Z</time></trkpt><trkpt lat="44.92930462070217" lon="13.81558778931562"><ele>20.0</ele><time>2026-04-12T09:12:05.912Z</time></trkpt><trkpt lat="44.9293936863268" lon="13.815558132753525"><ele>20.0</ele><time>2026-04-12T09:12:06.912Z</time></trkpt><trkpt lat="44.929466268960624" lon="13.815560228991272"><ele>20.666666666666668</ele><time>2026-04-12T09:12:07.912Z</time></trkpt><trkpt lat="44.929545096780906" lon="13.815549595620643"><ele>21.333333333333336</ele><time>2026-04-12T09:12:08.912Z</time></trkpt><trkpt lat="44.92961595682663" lon="13.815540355700234"><ele>22.0</ele><time>2026-04-12T09:12:09.912Z</time></trkpt><trkpt lat="44.92973277784915" lon="13.815518643506461"><ele>22.666666666666668</ele><time>2026-04-12T09:12:11.912Z</time></trkpt><trkpt lat="44.929802443731305" lon="13.815511341897029"><ele>23.333333333333332</ele><time>2026-04-12T09:12:12.912Z</time></trkpt><trkpt lat="44.92989041635453" lon="13.8155049373747"><ele>24.0</ele><time>2026-04-12T09:12:13.912Z</time></trkpt><trkpt lat="44.92998386602805" lon="13.815488337535703"><ele>24.333333333333332</ele><time>2026-04-12T09:12:14.912Z</time></trkpt><trkpt lat="44.93008248710937" lon="13.81547614032219"><ele>24.666666666666664</ele><time>2026-04-12T09:12:15.912Z</time></trkpt><trkpt lat="44.93017163607269" lon="13.81546377239319"><ele>25.0</ele><time>2026-04-12T09:12:16.911Z</time></trkpt><trkpt lat="44.9302513061094" lon="13.815454443888186"><ele>25.333333333333332</ele><time>2026-04-12T09:12:17.911Z</time></trkpt><trkpt lat="44.930336258731174" lon="13.815448180182427"><ele>25.666666666666664</ele><time>2026-04-12T09:12:18.911Z</time></trkpt><trkpt lat="44.9304042721036" lon="13.81543047103863"><ele>26.0</ele><time>2026-04-12T09:12:19.911Z</time></trkpt><trkpt lat="44.930479384424515" lon="13.815435218246009"><ele>25.999999999999996</ele><time>2026-04-12T09:12:20.911Z</time></trkpt><trkpt lat="44.930554556238306" lon="13.815430803957113"><ele>26.0</ele><time>2026-04-12T09:12:21.911Z</time></trkpt><trkpt lat="44.93063052264231" lon="13.815435514851561"><ele>26.0</ele><time>2026-04-12T09:12:22.91Z</time></trkpt><trkpt lat="44.93071113502395" lon="13.815455368692591"><ele>26.0</ele><time>2026-04-12T09:12:23.91Z</time></trkpt><trkpt lat="44.93079277015809" lon="13.815481022962105"><ele>25.999999999999996</ele><time>2026-04-12T09:12:24.91Z</time></trkpt><trkpt lat="44.93088975301208" lon="13.815497208122483"><ele>26.0</ele><time>2026-04-12T09:12:25.91Z</time></trkpt><trkpt lat="44.930989181849526" lon="13.81551928993313"><ele>26.499999999999996</ele><time>2026-04-12T09:12:26.91Z</time></trkpt><trkpt lat="44.931081360559034" lon="13.81554362733575"><ele>27.0</ele><time>2026-04-12T09:12:27.911Z</time></trkpt><trkpt lat="44.93117082569952" lon="13.815557399152345"><ele>27.5</ele><time>2026-04-12T09:12:28.91Z</time></trkpt><trkpt lat="44.93125429841165" lon="13.815571073590585"><ele>28.0</ele><time>2026-04-12T09:12:29.91Z</time></trkpt><trkpt lat="44.93132797929184" lon="13.815587026624874"><ele>28.499999999999996</ele><time>2026-04-12T09:12:30.91Z</time></trkpt><trkpt lat="44.93139990295921" lon="13.81559855281753"><ele>29.0</ele><time>2026-04-12T09:12:31.91Z</time></trkpt><trkpt lat="44.93146339317548" lon="13.815600745224167"><ele>29.000000000000004</ele><time>2026-04-12T09:12:32.91Z</time></trkpt><trkpt lat="44.93153206709288" lon="13.81560991762494"><ele>29.0</ele><time>2026-04-12T09:12:33.911Z</time></trkpt><trkpt lat="44.93159857676262" lon="13.815603281017058"><ele>29.000000000000004</ele><time>2026-04-12T09:12:34.91Z</time></trkpt><trkpt lat="44.931677817772446" lon="13.815585525919957"><ele>29.000000000000004</ele><time>2026-04-12T09:12:35.91Z</time></trkpt><trkpt lat="44.93175254063518" lon="13.815562192301305"><ele>29.0</ele><time>2026-04-12T09:12:36.91Z</time></trkpt><trkpt lat="44.93182681955013" lon="13.815540912198156"><ele>29.000000000000004</ele><time>2026-04-12T09:12:37.91Z</time></trkpt><trkpt lat="44.93190285699567" lon="13.815507615389786"><ele>29.000000000000004</ele><time>2026-04-12T09:12:38.91Z</time></trkpt><trkpt lat="44.93197381115604" lon="13.815477929012829"><ele>29.499999999999996</ele><time>2026-04-12T09:12:39.91Z</time></trkpt><trkpt lat="44.93203926837049" lon="13.815465190006272"><ele>30.0</ele><time>2026-04-12T09:12:40.91Z</time></trkpt><trkpt lat="44.932133810651884" lon="13.815459227518554"><ele>30.5</ele><time>2026-04-12T09:12:42.91Z</time></trkpt><trkpt lat="44.93220922898147" lon="13.815472334183616"><ele>31.0</ele><time>2026-04-12T09:12:44.91Z</time></trkpt><trkpt lat="44.93229644690168" lon="13.815486130503366"><ele>31.499999999999996</ele><time>2026-04-12T09:12:48.91Z</time></trkpt><trkpt lat="44.93236516424688" lon="13.815462416616553"><ele>32.0</ele><time>2026-04-12T09:12:51.91Z</time></trkpt><trkpt lat="44.932396897849884" lon="13.815377227756127"><ele>32.0</ele><time>2026-04-12T09:12:53.91Z</time></trkpt><trkpt lat="44.932435932582045" lon="13.815238606109146"><ele>32.0</ele><time>2026-04-12T09:12:55.91Z</time></trkpt><trkpt lat="44.93248004077166" lon="13.815119974144343"><ele>32.0</ele><time>2026-04-12T09:12:57.91Z</time></trkpt><trkpt lat="44.93248091495534" lon="13.814929083665717"><ele>32.0</ele><time>2026-04-12T09:12:59.91Z</time></trkpt><trkpt lat="44.932488158057296" lon="13.814810226311854"><ele>32.0</ele><time>2026-04-12T09:13:00.91Z</time></trkpt><trkpt lat="44.93248306667483" lon="13.814695683298364"><ele>31.833333333333332</ele><time>2026-04-12T09:13:01.91Z</time></trkpt><trkpt lat="44.932468433196284" lon="13.81458032238039"><ele>31.666666666666664</ele><time>2026-04-12T09:13:02.91Z</time></trkpt><trkpt lat="44.93246530813799" lon="13.81447450974201"><ele>31.5</ele><time>2026-04-12T09:13:03.91Z</time></trkpt><trkpt lat="44.932469749612366" lon="13.814356143597456"><ele>31.333333333333336</ele><time>2026-04-12T09:13:04.91Z</time></trkpt><trkpt lat="44.932464138326914" lon="13.814239253307745"><ele>31.166666666666668</ele><time>2026-04-12T09:13:05.91Z</time></trkpt><trkpt lat="44.93244856893744" lon="13.814101742746871"><ele>31.0</ele><time>2026-04-12T09:13:06.91Z</time></trkpt><trkpt lat="44.93242549848061" lon="13.813986386609272"><ele>30.857142857142858</ele><time>2026-04-12T09:13:07.91Z</time></trkpt><trkpt lat="44.93240781560219" lon="13.813878281447751"><ele>30.714285714285715</ele><time>2026-04-12T09:13:08.91Z</time></trkpt><trkpt lat="44.93240320533878" lon="13.813778296291824"><ele>30.571428571428573</ele><time>2026-04-12T09:13:09.91Z</time></trkpt><trkpt lat="44.93237031162246" lon="13.813699516664013"><ele>30.42857142857143</ele><time>2026-04-12T09:13:11.91Z</time></trkpt><trkpt lat="44.932296914154" lon="13.813688513823841"><ele>30.285714285714285</ele><time>2026-04-12T09:13:30.91Z</time></trkpt><trkpt lat="44.932231379846094" lon="13.813711794404213"><ele>30.142857142857146</ele><time>2026-04-12T09:13:32.91Z</time></trkpt><trkpt lat="44.932186647043274" lon="13.813641130837816"><ele>30.0</ele><time>2026-04-12T09:13:34.91Z</time></trkpt><trkpt lat="44.93214186304422" lon="13.81353603107667"><ele>29.666666666666668</ele><time>2026-04-12T09:13:37.91Z</time></trkpt><trkpt lat="44.9321027043094" lon="13.813435734840716"><ele>29.333333333333336</ele><time>2026-04-12T09:13:39.91Z</time></trkpt><trkpt lat="44.93204232940251" lon="13.813336777460853"><ele>29.0</ele><time>2026-04-12T09:13:41.91Z</time></trkpt><trkpt lat="44.93199747110143" lon="13.813228937105533"><ele>28.666666666666668</ele><time>2026-04-12T09:13:44.91Z</time></trkpt><trkpt lat="44.93196772454125" lon="13.813127952714435"><ele>28.333333333333336</ele><time>2026-04-12T09:13:47.909Z</time></trkpt><trkpt lat="44.931922575934394" lon="13.813023751304714"><ele>28.0</ele><time>2026-04-12T09:13:51.909Z</time></trkpt><trkpt lat="44.931950017529495" lon="13.813130338131616"><ele>28.000000000000004</ele><time>2026-04-12T09:14:04.909Z</time></trkpt><trkpt lat="44.93202688134766" lon="13.813286364648746"><ele>28.0</ele><time>2026-04-12T09:14:06.909Z</time></trkpt><trkpt lat="44.93206454702961" lon="13.813378062428445"><ele>28.0</ele><time>2026-04-12T09:14:07.909Z</time></trkpt><trkpt lat="44.932114488086086" lon="13.813453988986916"><ele>28.0</ele><time>2026-04-12T09:14:08.909Z</time></trkpt><trkpt lat="44.932162944370674" lon="13.81354851257145"><ele>28.000000000000004</ele><time>2026-04-12T09:14:09.909Z</time></trkpt><trkpt lat="44.932194401953524" lon="13.813636186162924"><ele>28.0</ele><time>2026-04-12T09:14:10.909Z</time></trkpt><trkpt lat="44.9322522510159" lon="13.81372896646984"><ele>28.000000000000004</ele><time>2026-04-12T09:14:12.909Z</time></trkpt><trkpt lat="44.93230954487235" lon="13.813674675834168"><ele>28.0</ele><time>2026-04-12T09:14:15.909Z</time></trkpt><trkpt lat="44.9322991114816" lon="13.813551594072115"><ele>28.0</ele><time>2026-04-12T09:14:17.909Z</time></trkpt><trkpt lat="44.93228260569712" lon="13.81346436877059"><ele>28.0</ele><time>2026-04-12T09:14:18.909Z</time></trkpt><trkpt lat="44.93227913385259" lon="13.81336108880841"><ele>28.000000000000004</ele><time>2026-04-12T09:14:19.909Z</time></trkpt><trkpt lat="44.93228516844176" lon="13.813248365178374"><ele>28.0</ele><time>2026-04-12T09:14:20.909Z</time></trkpt><trkpt lat="44.93225925258607" lon="13.81308400135327"><ele>28.000000000000004</ele><time>2026-04-12T09:14:22.909Z</time></trkpt><trkpt lat="44.93224290959222" lon="13.812994401950467"><ele>28.0</ele><time>2026-04-12T09:14:23.909Z</time></trkpt><trkpt lat="44.93221761328539" lon="13.812868523014302"><ele>28.0</ele><time>2026-04-12T09:14:24.909Z</time></trkpt><trkpt lat="44.93217186193023" lon="13.812747738843173"><ele>28.0</ele><time>2026-04-12T09:14:25.909Z</time></trkpt><trkpt lat="44.93212429389845" lon="13.812642329390213"><ele>28.000000000000004</ele><time>2026-04-12T09:14:26.909Z</time></trkpt><trkpt lat="44.932081047195375" lon="13.812529423541346"><ele>28.0</ele><time>2026-04-12T09:14:27.908Z</time></trkpt><trkpt lat="44.93203386641837" lon="13.812408966451715"><ele>28.000000000000004</ele><time>2026-04-12T09:14:28.908Z</time></trkpt><trkpt lat="44.93198949219754" lon="13.812296963739408"><ele>28.0</ele><time>2026-04-12T09:14:29.908Z</time></trkpt><trkpt lat="44.93194780393454" lon="13.812191502602573"><ele>28.0</ele><time>2026-04-12T09:14:30.908Z</time></trkpt><trkpt lat="44.93190841026281" lon="13.812093552172076"><ele>28.0</ele><time>2026-04-12T09:14:31.908Z</time></trkpt><trkpt lat="44.93188387721825" lon="13.812005377832397"><ele>28.000000000000004</ele><time>2026-04-12T09:14:32.908Z</time></trkpt><trkpt lat="44.93187527188594" lon="13.811910440342755"><ele>28.0</ele><time>2026-04-12T09:14:33.908Z</time></trkpt><trkpt lat="44.93185692537026" lon="13.811774487022324"><ele>27.833333333333336</ele><time>2026-04-12T09:14:35.908Z</time></trkpt><trkpt lat="44.93186799405464" lon="13.811682562616408"><ele>27.666666666666668</ele><time>2026-04-12T09:14:44.908Z</time></trkpt><trkpt lat="44.93196975036213" lon="13.811651489305204"><ele>27.5</ele><time>2026-04-12T09:14:47.908Z</time></trkpt><trkpt lat="44.9320346728425" lon="13.811662586988778"><ele>27.333333333333336</ele><time>2026-04-12T09:14:48.908Z</time></trkpt><trkpt lat="44.932116108659905" lon="13.811692546279144"><ele>27.166666666666668</ele><time>2026-04-12T09:14:49.908Z</time></trkpt><trkpt lat="44.93221683483524" lon="13.811736332527643"><ele>27.0</ele><time>2026-04-12T09:14:50.908Z</time></trkpt><trkpt lat="44.93232374590682" lon="13.811768852099654"><ele>27.0</ele><time>2026-04-12T09:14:51.908Z</time></trkpt><trkpt lat="44.93241484661246" lon="13.811783818828467"><ele>27.0</ele><time>2026-04-12T09:14:52.908Z</time></trkpt><trkpt lat="44.932497406367254" lon="13.811790995304174"><ele>27.0</ele><time>2026-04-12T09:14:53.908Z</time></trkpt><trkpt lat="44.93257554116749" lon="13.811783206114516"><ele>27.0</ele><time>2026-04-12T09:14:54.908Z</time></trkpt><trkpt lat="44.93265429212969" lon="13.811765241924558"><ele>27.0</ele><time>2026-04-12T09:14:55.908Z</time></trkpt><trkpt lat="44.93272543473794" lon="13.811724520899391"><ele>27.0</ele><time>2026-04-12T09:14:56.908Z</time></trkpt><trkpt lat="44.93280221266096" lon="13.811692600781276"><ele>27.333333333333332</ele><time>2026-04-12T09:14:57.908Z</time></trkpt><trkpt lat="44.93286612433498" lon="13.811699295208763"><ele>27.666666666666664</ele><time>2026-04-12T09:14:58.908Z</time></trkpt><trkpt lat="44.9329332806521" lon="13.811719059826096"><ele>28.0</ele><time>2026-04-12T09:14:59.908Z</time></trkpt><trkpt lat="44.93300404349966" lon="13.811727881395974"><ele>28.333333333333332</ele><time>2026-04-12T09:15:00.908Z</time></trkpt><trkpt lat="44.93306985131703" lon="13.811733253570221"><ele>28.666666666666664</ele><time>2026-04-12T09:15:01.908Z</time></trkpt><trkpt lat="44.93317843644458" lon="13.811737200755386"><ele>29.0</ele><time>2026-04-12T09:15:03.908Z</time></trkpt><trkpt lat="44.93325330600276" lon="13.811751547862576"><ele>28.999999999999996</ele><time>2026-04-12T09:15:05.908Z</time></trkpt><trkpt lat="44.93332048422233" lon="13.811771955846934"><ele>29.0</ele><time>2026-04-12T09:15:07.908Z</time></trkpt><trkpt lat="44.933430360551114" lon="13.811776631112297"><ele>29.0</ele><time>2026-04-12T09:15:09.908Z</time></trkpt><trkpt lat="44.93349506637937" lon="13.8117819623268"><ele>29.0</ele><time>2026-04-12T09:15:10.908Z</time></trkpt><trkpt lat="44.93356807567537" lon="13.811790522585163"><ele>28.999999999999996</ele><time>2026-04-12T09:15:11.908Z</time></trkpt><trkpt lat="44.933637168620024" lon="13.811809423085695"><ele>29.0</ele><time>2026-04-12T09:15:12.908Z</time></trkpt><trkpt lat="44.93370698864224" lon="13.811842785617195"><ele>29.499999999999996</ele><time>2026-04-12T09:15:13.908Z</time></trkpt><trkpt lat="44.9337801494848" lon="13.811875785737104"><ele>30.0</ele><time>2026-04-12T09:15:14.908Z</time></trkpt><trkpt lat="44.93385570558804" lon="13.81189624632186"><ele>30.5</ele><time>2026-04-12T09:15:15.908Z</time></trkpt><trkpt lat="44.933947593707884" lon="13.811910348575935"><ele>31.0</ele><time>2026-04-12T09:15:16.908Z</time></trkpt><trkpt lat="44.93404216846008" lon="13.811933945748619"><ele>31.499999999999996</ele><time>2026-04-12T09:15:17.908Z</time></trkpt><trkpt lat="44.934132955825405" lon="13.81195557579444"><ele>32.0</ele><time>2026-04-12T09:15:18.908Z</time></trkpt><trkpt lat="44.934210992856706" lon="13.811967260885305"><ele>32.666666666666664</ele><time>2026-04-12T09:15:19.908Z</time></trkpt><trkpt lat="44.934279820483525" lon="13.811986937370255"><ele>33.33333333333333</ele><time>2026-04-12T09:15:20.908Z</time></trkpt><trkpt lat="44.934348706952086" lon="13.81201493044424"><ele>34.0</ele><time>2026-04-12T09:15:21.908Z</time></trkpt><trkpt lat="44.93441793436152" lon="13.812050511723196"><ele>34.666666666666664</ele><time>2026-04-12T09:15:22.908Z</time></trkpt><trkpt lat="44.93449315177824" lon="13.812095422781969"><ele>35.333333333333336</ele><time>2026-04-12T09:15:23.908Z</time></trkpt><trkpt lat="44.93458333288731" lon="13.81214584052054"><ele>36.0</ele><time>2026-04-12T09:15:24.908Z</time></trkpt><trkpt lat="44.93466180263244" lon="13.812201907343145"><ele>36.0</ele><time>2026-04-12T09:15:25.908Z</time></trkpt><trkpt lat="44.93472557875488" lon="13.812242875317263"><ele>36.0</ele><time>2026-04-12T09:15:26.908Z</time></trkpt><trkpt lat="44.934783093790536" lon="13.812282495310747"><ele>36.0</ele><time>2026-04-12T09:15:27.908Z</time></trkpt><trkpt lat="44.93484448862174" lon="13.81231696383016"><ele>36.0</ele><time>2026-04-12T09:15:28.908Z</time></trkpt><trkpt lat="44.934921803488955" lon="13.81233550836315"><ele>36.0</ele><time>2026-04-12T09:15:29.908Z</time></trkpt><trkpt lat="44.935011024507865" lon="13.812348734998334"><ele>36.0</ele><time>2026-04-12T09:15:30.908Z</time></trkpt><trkpt lat="44.935106947483696" lon="13.81237233245524"><ele>36.666666666666664</ele><time>2026-04-12T09:15:31.908Z</time></trkpt><trkpt lat="44.93519836086237" lon="13.812400940657444"><ele>37.333333333333336</ele><time>2026-04-12T09:15:32.908Z</time></trkpt><trkpt lat="44.93528284034661" lon="13.812423508801544"><ele>38.0</ele><time>2026-04-12T09:15:33.908Z</time></trkpt><trkpt lat="44.93536488766452" lon="13.812450803390364"><ele>38.66666666666667</ele><time>2026-04-12T09:15:34.908Z</time></trkpt><trkpt lat="44.93543764635087" lon="13.812478485042643"><ele>39.333333333333336</ele><time>2026-04-12T09:15:35.908Z</time></trkpt><trkpt lat="44.93551381224621" lon="13.812501412940188"><ele>40.0</ele><time>2026-04-12T09:15:36.908Z</time></trkpt><trkpt lat="44.93558738922918" lon="13.812498380155445"><ele>40.0</ele><time>2026-04-12T09:15:37.908Z</time></trkpt><trkpt lat="44.935664867085634" lon="13.812470846699537"><ele>40.0</ele><time>2026-04-12T09:15:38.908Z</time></trkpt><trkpt lat="44.9357349384173" lon="13.812434752083874"><ele>40.0</ele><time>2026-04-12T09:15:39.908Z</time></trkpt><trkpt lat="44.93578811338753" lon="13.812384903367931"><ele>40.0</ele><time>2026-04-12T09:15:40.908Z</time></trkpt><trkpt lat="44.93585874776572" lon="13.812368721231552"><ele>40.0</ele><time>2026-04-12T09:15:43.908Z</time></trkpt><trkpt lat="44.93589995344535" lon="13.812496426186613"><ele>40.0</ele><time>2026-04-12T09:15:45.908Z</time></trkpt><trkpt lat="44.93592920131761" lon="13.812595450726725"><ele>40.75</ele><time>2026-04-12T09:15:46.908Z</time></trkpt><trkpt lat="44.93597991709923" lon="13.812731896824404"><ele>41.5</ele><time>2026-04-12T09:15:47.908Z</time></trkpt><trkpt lat="44.936053212904056" lon="13.812865332675544"><ele>42.25</ele><time>2026-04-12T09:15:48.908Z</time></trkpt><trkpt lat="44.93613522330485" lon="13.812976401300531"><ele>43.0</ele><time>2026-04-12T09:15:49.907Z</time></trkpt><trkpt lat="44.936242022389976" lon="13.813044006561466"><ele>43.0</ele><time>2026-04-12T09:15:50.907Z</time></trkpt><trkpt lat="44.93636934552126" lon="13.813115868759892"><ele>43.0</ele><time>2026-04-12T09:15:51.907Z</time></trkpt><trkpt lat="44.93650122525879" lon="13.813186436225152"><ele>43.0</ele><time>2026-04-12T09:15:52.907Z</time></trkpt><trkpt lat="44.936617671480946" lon="13.813242174857118"><ele>43.0</ele><time>2026-04-12T09:15:53.907Z</time></trkpt><trkpt lat="44.93673023276363" lon="13.81330123793112"><ele>43.75</ele><time>2026-04-12T09:15:54.907Z</time></trkpt><trkpt lat="44.93684794818365" lon="13.8133603514571"><ele>44.5</ele><time>2026-04-12T09:15:55.907Z</time></trkpt><trkpt lat="44.93696957056436" lon="13.81341880454305"><ele>45.25</ele><time>2026-04-12T09:15:56.907Z</time></trkpt><trkpt lat="44.937094779940054" lon="13.813471189730201"><ele>46.0</ele><time>2026-04-12T09:15:57.907Z</time></trkpt><trkpt lat="44.937226897863994" lon="13.813523909626573"><ele>46.66666666666667</ele><time>2026-04-12T09:15:58.907Z</time></trkpt><trkpt lat="44.93736773719332" lon="13.813573469967908"><ele>47.333333333333336</ele><time>2026-04-12T09:15:59.907Z</time></trkpt><trkpt lat="44.93751993580353" lon="13.813627101187947"><ele>48.0</ele><time>2026-04-12T09:16:00.907Z</time></trkpt><trkpt lat="44.937678968357915" lon="13.813688833658327"><ele>48.66666666666667</ele><time>2026-04-12T09:16:01.907Z</time></trkpt><trkpt lat="44.93784485103121" lon="13.813744543888394"><ele>49.333333333333336</ele><time>2026-04-12T09:16:02.907Z</time></trkpt><trkpt lat="44.937993663859906" lon="13.813801335587641"><ele>50.0</ele><time>2026-04-12T09:16:03.907Z</time></trkpt><trkpt lat="44.938127019458484" lon="13.813853997101388"><ele>50.0</ele><time>2026-04-12T09:16:04.907Z</time></trkpt><trkpt lat="44.93826426835981" lon="13.813895974002337"><ele>50.0</ele><time>2026-04-12T09:16:05.907Z</time></trkpt><trkpt lat="44.93840012621512" lon="13.813942247072347"><ele>50.0</ele><time>2026-04-12T09:16:06.907Z</time></trkpt><trkpt lat="44.93853855964314" lon="13.8139695564054"><ele>50.0</ele><time>2026-04-12T09:16:07.907Z</time></trkpt><trkpt lat="44.93869403274154" lon="13.813993405379616"><ele>50.333333333333336</ele><time>2026-04-12T09:16:08.907Z</time></trkpt><trkpt lat="44.938842656389916" lon="13.814004944857228"><ele>50.66666666666667</ele><time>2026-04-12T09:16:09.907Z</time></trkpt><trkpt lat="44.939002393005715" lon="13.814024766659118"><ele>51.0</ele><time>2026-04-12T09:16:10.907Z</time></trkpt><trkpt lat="44.93916138607636" lon="13.81405609566535"><ele>50.33333333333333</ele><time>2026-04-12T09:16:11.907Z</time></trkpt><trkpt lat="44.93931716238404" lon="13.814082988263138"><ele>49.666666666666664</ele><time>2026-04-12T09:16:12.907Z</time></trkpt><trkpt lat="44.93946535073911" lon="13.814127159411374"><ele>49.0</ele><time>2026-04-12T09:16:13.907Z</time></trkpt><trkpt lat="44.939605764022865" lon="13.81417792762112"><ele>49.0</ele><time>2026-04-12T09:16:14.907Z</time></trkpt><trkpt lat="44.93975354929806" lon="13.814246437896072"><ele>49.0</ele><time>2026-04-12T09:16:15.907Z</time></trkpt><trkpt lat="44.93989872952967" lon="13.814310302174073"><ele>49.0</ele><time>2026-04-12T09:16:16.907Z</time></trkpt><trkpt lat="44.9400496093626" lon="13.81438481697391"><ele>49.33333333333333</ele><time>2026-04-12T09:16:17.907Z</time></trkpt><trkpt lat="44.94021012923852" lon="13.814459735963"><ele>49.66666666666667</ele><time>2026-04-12T09:16:18.907Z</time></trkpt><trkpt lat="44.9403673644065" lon="13.814532689018828"><ele>50.0</ele><time>2026-04-12T09:16:19.907Z</time></trkpt><trkpt lat="44.94052466779665" lon="13.814604818155185"><ele>50.0</ele><time>2026-04-12T09:16:20.907Z</time></trkpt><trkpt lat="44.94067691644684" lon="13.81466773302674"><ele>50.0</ele><time>2026-04-12T09:16:21.907Z</time></trkpt><trkpt lat="44.94082160696339" lon="13.814731823424268"><ele>50.0</ele><time>2026-04-12T09:16:22.907Z</time></trkpt><trkpt lat="44.940959262119264" lon="13.814795613484783"><ele>49.75</ele><time>2026-04-12T09:16:23.907Z</time></trkpt><trkpt lat="44.94109275410809" lon="13.81485329001511"><ele>49.5</ele><time>2026-04-12T09:16:24.907Z</time></trkpt><trkpt lat="44.94122592075206" lon="13.81490246494793"><ele>49.25</ele><time>2026-04-12T09:16:25.907Z</time></trkpt><trkpt lat="44.94134977113873" lon="13.814948250507069"><ele>49.0</ele><time>2026-04-12T09:16:26.907Z</time></trkpt><trkpt lat="44.941479766326715" lon="13.814994485724341"><ele>49.0</ele><time>2026-04-12T09:16:27.907Z</time></trkpt><trkpt lat="44.941613123411315" lon="13.815054614586854"><ele>49.0</ele><time>2026-04-12T09:16:28.907Z</time></trkpt><trkpt lat="44.941742792622904" lon="13.81514860422198"><ele>49.0</ele><time>2026-04-12T09:16:29.907Z</time></trkpt><trkpt lat="44.94187715813544" lon="13.815253938847901"><ele>49.0</ele><time>2026-04-12T09:16:30.907Z</time></trkpt><trkpt lat="44.942006602704595" lon="13.815360779646944"><ele>49.25</ele><time>2026-04-12T09:16:31.907Z</time></trkpt><trkpt lat="44.9421389000861" lon="13.815468579566542"><ele>49.5</ele><time>2026-04-12T09:16:32.907Z</time></trkpt><trkpt lat="44.942272275495476" lon="13.815580024273922"><ele>49.75</ele><time>2026-04-12T09:16:33.905Z</time></trkpt><trkpt lat="44.94238656183126" lon="13.815696956894866"><ele>50.0</ele><time>2026-04-12T09:16:34.905Z</time></trkpt><trkpt lat="44.94251151391507" lon="13.815799170357543"><ele>50.25</ele><time>2026-04-12T09:16:35.905Z</time></trkpt><trkpt lat="44.9426204859998" lon="13.815899860945201"><ele>50.5</ele><time>2026-04-12T09:16:36.906Z</time></trkpt><trkpt lat="44.942720207886715" lon="13.815990471897484"><ele>50.75</ele><time>2026-04-12T09:16:37.906Z</time></trkpt><trkpt lat="44.94281506038641" lon="13.816085571825866"><ele>51.0</ele><time>2026-04-12T09:16:38.907Z</time></trkpt><trkpt lat="44.942900060983646" lon="13.816183309995907"><ele>50.599999999999994</ele><time>2026-04-12T09:16:39.908Z</time></trkpt><trkpt lat="44.94298572134204" lon="13.81628268123299"><ele>50.2</ele><time>2026-04-12T09:16:40.909Z</time></trkpt><trkpt lat="44.94306037816342" lon="13.81639433050211"><ele>49.8</ele><time>2026-04-12T09:16:41.909Z</time></trkpt><trkpt lat="44.94313442210537" lon="13.816518616114587"><ele>49.400000000000006</ele><time>2026-04-12T09:16:42.91Z</time></trkpt><trkpt lat="44.943201446846246" lon="13.816642566549627"><ele>49.0</ele><time>2026-04-12T09:16:43.91Z</time></trkpt><trkpt lat="44.94325844957266" lon="13.81676442139058"><ele>48.99999999999999</ele><time>2026-04-12T09:16:44.911Z</time></trkpt><trkpt lat="44.9432991531372" lon="13.816872863477412"><ele>49.0</ele><time>2026-04-12T09:16:45.911Z</time></trkpt><trkpt lat="44.943338449933044" lon="13.816998278521394"><ele>49.0</ele><time>2026-04-12T09:16:47.912Z</time></trkpt><trkpt lat="44.94337276300707" lon="13.817074836591047"><ele>49.0</ele><time>2026-04-12T09:16:51.914Z</time></trkpt><trkpt lat="44.94349767892513" lon="13.817009285088481"><ele>48.99999999999999</ele><time>2026-04-12T09:16:52.914Z</time></trkpt><trkpt lat="44.943557407235524" lon="13.816974454207639"><ele>49.0</ele><time>2026-04-12T09:16:53.914Z</time></trkpt><trkpt lat="44.9436314667754" lon="13.816926971036237"><ele>48.99999999999999</ele><time>2026-04-12T09:16:54.915Z</time></trkpt><trkpt lat="44.943708870827585" lon="13.81688791481674"><ele>49.0</ele><time>2026-04-12T09:16:55.915Z</time></trkpt><trkpt lat="44.943784370626034" lon="13.816866752383389"><ele>49.0</ele><time>2026-04-12T09:16:56.915Z</time></trkpt><trkpt lat="44.94385670612528" lon="13.816839264932018"><ele>49.0</ele><time>2026-04-12T09:16:57.915Z</time></trkpt><trkpt lat="44.94391908331393" lon="13.816822016001899"><ele>48.99999999999999</ele><time>2026-04-12T09:16:58.916Z</time></trkpt><trkpt lat="44.94398186902131" lon="13.816787571928442"><ele>49.0</ele><time>2026-04-12T09:17:01.916Z</time></trkpt><trkpt lat="44.94406518903448" lon="13.816757993866064"><ele>48.99999999999999</ele><time>2026-04-12T09:17:04.917Z</time></trkpt><trkpt lat="44.94413817681558" lon="13.816741044786292"><ele>49.0</ele><time>2026-04-12T09:17:06.917Z</time></trkpt><trkpt lat="44.944211067731075" lon="13.816734131877968"><ele>49.0</ele><time>2026-04-12T09:17:08.917Z</time></trkpt><trkpt lat="44.944312287713295" lon="13.816681358627045"><ele>49.0</ele><time>2026-04-12T09:17:10.917Z</time></trkpt><trkpt lat="44.94439412531626" lon="13.816645627452399"><ele>48.99999999999999</ele><time>2026-04-12T09:17:12.917Z</time></trkpt><trkpt lat="44.944485995386536" lon="13.816602380422369"><ele>49.0</ele><time>2026-04-12T09:17:14.917Z</time></trkpt><trkpt lat="44.94457323763909" lon="13.816565539240164"><ele>49.0</ele><time>2026-04-12T09:17:16.918Z</time></trkpt><trkpt lat="44.94467443947127" lon="13.816503788387536"><ele>49.0</ele><time>2026-04-12T09:17:18.918Z</time></trkpt><trkpt lat="44.944785593897315" lon="13.816442034057232"><ele>49.0</ele><time>2026-04-12T09:17:20.918Z</time></trkpt><trkpt lat="44.94489304780155" lon="13.816389224554756"><ele>49.0</ele><time>2026-04-12T09:17:22.918Z</time></trkpt><trkpt lat="44.94499461592591" lon="13.81633452745731"><ele>49.5</ele><time>2026-04-12T09:17:24.918Z</time></trkpt><trkpt lat="44.945097555520434" lon="13.81627340026875"><ele>50.0</ele><time>2026-04-12T09:17:26.918Z</time></trkpt><trkpt lat="44.94518752400855" lon="13.816261534365673"><ele>50.5</ele><time>2026-04-12T09:17:28.918Z</time></trkpt><trkpt lat="44.94532785204973" lon="13.816202353752237"><ele>51.0</ele><time>2026-04-12T09:17:31.918Z</time></trkpt><trkpt lat="44.94543178115534" lon="13.816147051454987"><ele>51.0</ele><time>2026-04-12T09:17:33.918Z</time></trkpt><trkpt lat="44.945540405163726" lon="13.816103314878793"><ele>51.0</ele><time>2026-04-12T09:17:35.918Z</time></trkpt><trkpt lat="44.945617033078285" lon="13.816065315381818"><ele>51.0</ele><time>2026-04-12T09:17:37.918Z</time></trkpt><trkpt lat="44.94570695705311" lon="13.816055327752174"><ele>51.0</ele><time>2026-04-12T09:17:40.918Z</time></trkpt><trkpt lat="44.94579693521919" lon="13.816057318143747"><ele>51.0</ele><time>2026-04-12T09:17:42.918Z</time></trkpt><trkpt lat="44.94586531604498" lon="13.816077820044649"><ele>51.0</ele><time>2026-04-12T09:17:44.918Z</time></trkpt><trkpt lat="44.94593256780873" lon="13.816100411650561"><ele>52.33333333333333</ele><time>2026-04-12T09:17:46.918Z</time></trkpt><trkpt lat="44.94601517368848" lon="13.816132083866426"><ele>53.666666666666664</ele><time>2026-04-12T09:17:48.918Z</time></trkpt><trkpt lat="44.94627850635129" lon="13.816190851916755"><ele>55.0</ele><time>2026-04-12T09:17:54.918Z</time></trkpt><trkpt lat="44.946401997622004" lon="13.816230923310211"><ele>54.99999999999999</ele><time>2026-04-12T09:17:56.918Z</time></trkpt><trkpt lat="44.94648847342545" lon="13.816269003869333"><ele>55.0</ele><time>2026-04-12T09:17:57.918Z</time></trkpt><trkpt lat="44.94658678069774" lon="13.816301602606968"><ele>55.0</ele><time>2026-04-12T09:17:58.918Z</time></trkpt><trkpt lat="44.94668396248035" lon="13.816329324741561"><ele>55.0</ele><time>2026-04-12T09:17:59.918Z</time></trkpt><trkpt lat="44.94675452792345" lon="13.816359897508454"><ele>54.99999999999999</ele><time>2026-04-12T09:18:00.918Z</time></trkpt><trkpt lat="44.94682828741436" lon="13.816389182001714"><ele>55.0</ele><time>2026-04-12T09:18:01.918Z</time></trkpt><trkpt lat="44.94694684855357" lon="13.816424665673564"><ele>55.0</ele><time>2026-04-12T09:18:03.918Z</time></trkpt><trkpt lat="44.9470506536255" lon="13.816460535583479"><ele>55.0</ele><time>2026-04-12T09:18:05.918Z</time></trkpt><trkpt lat="44.9472302580819" lon="13.816324491190452"><ele>55.0</ele><time>2026-04-12T09:18:12.918Z</time></trkpt><trkpt lat="44.94726456839134" lon="13.816224136323351"><ele>55.0</ele><time>2026-04-12T09:18:13.918Z</time></trkpt><trkpt lat="44.94729286098045" lon="13.816093502337246"><ele>54.75</ele><time>2026-04-12T09:18:14.918Z</time></trkpt><trkpt lat="44.94733364438499" lon="13.815907305267215"><ele>54.5</ele><time>2026-04-12T09:18:15.918Z</time></trkpt><trkpt lat="44.94738324369369" lon="13.81571567692131"><ele>54.25</ele><time>2026-04-12T09:18:16.918Z</time></trkpt><trkpt lat="44.94743912186287" lon="13.815521466120268"><ele>54.0</ele><time>2026-04-12T09:18:17.918Z</time></trkpt><trkpt lat="44.94749073173759" lon="13.815312084346084"><ele>53.33333333333333</ele><time>2026-04-12T09:18:18.918Z</time></trkpt><trkpt lat="44.947532133384506" lon="13.815105445609836"><ele>52.666666666666664</ele><time>2026-04-12T09:18:19.918Z</time></trkpt><trkpt lat="44.94756986237147" lon="13.814895881455227"><ele>52.0</ele><time>2026-04-12T09:18:20.918Z</time></trkpt><trkpt lat="44.947597804652936" lon="13.814683092337221"><ele>51.75</ele><time>2026-04-12T09:18:21.918Z</time></trkpt><trkpt lat="44.94761755099225" lon="13.814474099884848"><ele>51.5</ele><time>2026-04-12T09:18:22.918Z</time></trkpt><trkpt lat="44.94763363899089" lon="13.814269748511444"><ele>51.25</ele><time>2026-04-12T09:18:23.918Z</time></trkpt><trkpt lat="44.947655338128065" lon="13.814071167516701"><ele>51.0</ele><time>2026-04-12T09:18:24.918Z</time></trkpt><trkpt lat="44.94767850718113" lon="13.813878032802167"><ele>51.25</ele><time>2026-04-12T09:18:25.918Z</time></trkpt><trkpt lat="44.94771301571206" lon="13.81368418139878"><ele>51.5</ele><time>2026-04-12T09:18:26.918Z</time></trkpt><trkpt lat="44.947716655473826" lon="13.813478597719463"><ele>51.75</ele><time>2026-04-12T09:18:27.918Z</time></trkpt><trkpt lat="44.94769458334885" lon="13.813285363421905"><ele>52.0</ele><time>2026-04-12T09:18:28.918Z</time></trkpt><trkpt lat="44.94767713393113" lon="13.813099004319081"><ele>52.0</ele><time>2026-04-12T09:18:29.918Z</time></trkpt><trkpt lat="44.94765891468184" lon="13.812921682897363"><ele>52.0</ele><time>2026-04-12T09:18:30.918Z</time></trkpt><trkpt lat="44.947636880495644" lon="13.812761798339844"><ele>52.0</ele><time>2026-04-12T09:18:31.918Z</time></trkpt><trkpt lat="44.94761262592471" lon="13.81260831199572"><ele>52.0</ele><time>2026-04-12T09:18:32.918Z</time></trkpt><trkpt lat="44.947600754243275" lon="13.81245607273963"><ele>52.25</ele><time>2026-04-12T09:18:33.918Z</time></trkpt><trkpt lat="44.94759851547215" lon="13.812293034642504"><ele>52.5</ele><time>2026-04-12T09:18:34.918Z</time></trkpt><trkpt lat="44.94761132809631" lon="13.812119665013567"><ele>52.75</ele><time>2026-04-12T09:18:35.918Z</time></trkpt><trkpt lat="44.947631240835946" lon="13.811946763047521"><ele>53.0</ele><time>2026-04-12T09:18:36.918Z</time></trkpt><trkpt lat="44.94766267869985" lon="13.811770432016573"><ele>53.5</ele><time>2026-04-12T09:18:37.918Z</time></trkpt><trkpt lat="44.947721140586324" lon="13.811608698032932"><ele>54.0</ele><time>2026-04-12T09:18:38.918Z</time></trkpt><trkpt lat="44.9477731170063" lon="13.811441613124023"><ele>54.5</ele><time>2026-04-12T09:18:39.917Z</time></trkpt><trkpt lat="44.947819873372644" lon="13.811260959332767"><ele>55.0</ele><time>2026-04-12T09:18:40.917Z</time></trkpt><trkpt lat="44.94785615028565" lon="13.811070409491343"><ele>55.25</ele><time>2026-04-12T09:18:41.917Z</time></trkpt><trkpt lat="44.94789609834545" lon="13.810877538608269"><ele>55.5</ele><time>2026-04-12T09:18:42.917Z</time></trkpt><trkpt lat="44.9479319693354" lon="13.810686452751987"><ele>55.75</ele><time>2026-04-12T09:18:43.917Z</time></trkpt><trkpt lat="44.94796725208882" lon="13.810491388967096"><ele>56.0</ele><time>2026-04-12T09:18:44.917Z</time></trkpt><trkpt lat="44.94800108137485" lon="13.810286410723462"><ele>56.0</ele><time>2026-04-12T09:18:45.917Z</time></trkpt><trkpt lat="44.948039097921125" lon="13.810089621474507"><ele>56.0</ele><time>2026-04-12T09:18:46.917Z</time></trkpt><trkpt lat="44.948087081476686" lon="13.809885512338091"><ele>56.0</ele><time>2026-04-12T09:18:47.917Z</time></trkpt><trkpt lat="44.948131736830035" lon="13.809684248449983"><ele>56.0</ele><time>2026-04-12T09:18:48.916Z</time></trkpt><trkpt lat="44.948171641724656" lon="13.80948324092258"><ele>56.0</ele><time>2026-04-12T09:18:49.917Z</time></trkpt><trkpt lat="44.94821898144212" lon="13.809285237862916"><ele>56.0</ele><time>2026-04-12T09:18:50.916Z</time></trkpt><trkpt lat="44.9482759306617" lon="13.80908787851977"><ele>56.0</ele><time>2026-04-12T09:18:51.917Z</time></trkpt><trkpt lat="44.94834571250085" lon="13.80890312396805"><ele>56.0</ele><time>2026-04-12T09:18:52.917Z</time></trkpt><trkpt lat="44.94841882208179" lon="13.808725029533377"><ele>55.5</ele><time>2026-04-12T09:18:53.917Z</time></trkpt><trkpt lat="44.948495435646514" lon="13.808546694939023"><ele>55.0</ele><time>2026-04-12T09:18:54.917Z</time></trkpt><trkpt lat="44.94857225801801" lon="13.808377459594373"><ele>54.5</ele><time>2026-04-12T09:18:55.917Z</time></trkpt><trkpt lat="44.9486446281732" lon="13.8082021617898"><ele>54.0</ele><time>2026-04-12T09:18:56.917Z</time></trkpt><trkpt lat="44.948721198079205" lon="13.808044484987656"><ele>54.0</ele><time>2026-04-12T09:18:57.917Z</time></trkpt><trkpt lat="44.94880436106672" lon="13.807899540951288"><ele>54.0</ele><time>2026-04-12T09:18:58.917Z</time></trkpt><trkpt lat="44.94889155706356" lon="13.80776094488983"><ele>54.0</ele><time>2026-04-12T09:18:59.917Z</time></trkpt><trkpt lat="44.948978416594684" lon="13.807629098822686"><ele>54.0</ele><time>2026-04-12T09:19:00.917Z</time></trkpt><trkpt lat="44.94905848886536" lon="13.807506114455718"><ele>53.75</ele><time>2026-04-12T09:19:01.917Z</time></trkpt><trkpt lat="44.94912797350796" lon="13.807376491174612"><ele>53.5</ele><time>2026-04-12T09:19:02.917Z</time></trkpt><trkpt lat="44.94918507318031" lon="13.807230483583485"><ele>53.25</ele><time>2026-04-12T09:19:03.917Z</time></trkpt><trkpt lat="44.949219579698315" lon="13.807058451473198"><ele>53.0</ele><time>2026-04-12T09:19:04.917Z</time></trkpt><trkpt lat="44.94925290139365" lon="13.806881615324919"><ele>52.75</ele><time>2026-04-12T09:19:05.917Z</time></trkpt><trkpt lat="44.94929449273683" lon="13.806713765250233"><ele>52.5</ele><time>2026-04-12T09:19:06.917Z</time></trkpt><trkpt lat="44.9493713924939" lon="13.806574013874377"><ele>52.25</ele><time>2026-04-12T09:19:07.917Z</time></trkpt><trkpt lat="44.94945473035281" lon="13.806457946667292"><ele>52.0</ele><time>2026-04-12T09:19:08.917Z</time></trkpt><trkpt lat="44.949554832661185" lon="13.806363081713991"><ele>52.0</ele><time>2026-04-12T09:19:09.917Z</time></trkpt><trkpt lat="44.949669888732835" lon="13.806266080960771"><ele>52.0</ele><time>2026-04-12T09:19:10.917Z</time></trkpt><trkpt lat="44.94978773340944" lon="13.806151382531583"><ele>52.0</ele><time>2026-04-12T09:19:11.917Z</time></trkpt><trkpt lat="44.94991281948393" lon="13.806043919238315"><ele>52.0</ele><time>2026-04-12T09:19:12.917Z</time></trkpt><trkpt lat="44.95003718221934" lon="13.80591465351193"><ele>50.0</ele><time>2026-04-12T09:19:13.916Z</time></trkpt><trkpt lat="44.950154256332446" lon="13.805767779939615"><ele>48.0</ele><time>2026-04-12T09:19:14.916Z</time></trkpt><trkpt lat="44.95025980107652" lon="13.805596710085085"><ele>46.0</ele><time>2026-04-12T09:19:15.916Z</time></trkpt><trkpt lat="44.950351465579296" lon="13.805430821065054"><ele>46.0</ele><time>2026-04-12T09:19:16.916Z</time></trkpt><trkpt lat="44.9504425147694" lon="13.805268215368852"><ele>46.0</ele><time>2026-04-12T09:19:17.916Z</time></trkpt><trkpt lat="44.95053051494445" lon="13.80509887561651"><ele>46.0</ele><time>2026-04-12T09:19:18.916Z</time></trkpt><trkpt lat="44.95061457205421" lon="13.804928639389356"><ele>46.0</ele><time>2026-04-12T09:19:19.916Z</time></trkpt><trkpt lat="44.950685035589494" lon="13.804746971331094"><ele>46.0</ele><time>2026-04-12T09:19:20.916Z</time></trkpt><trkpt lat="44.95074250248958" lon="13.804559856315642"><ele>46.0</ele><time>2026-04-12T09:19:21.916Z</time></trkpt><trkpt lat="44.95078782968256" lon="13.804357333145258"><ele>46.0</ele><time>2026-04-12T09:19:22.916Z</time></trkpt><trkpt lat="44.95083868955609" lon="13.804158666673292"><ele>46.0</ele><time>2026-04-12T09:19:23.916Z</time></trkpt><trkpt lat="44.950885168926625" lon="13.803957659738154"><ele>45.0</ele><time>2026-04-12T09:19:24.916Z</time></trkpt><trkpt lat="44.95093078025" lon="13.803761646312322"><ele>44.0</ele><time>2026-04-12T09:19:25.916Z</time></trkpt><trkpt lat="44.95096210393274" lon="13.803558004336148"><ele>43.0</ele><time>2026-04-12T09:19:26.916Z</time></trkpt><trkpt lat="44.95100712743494" lon="13.803363647266615"><ele>42.0</ele><time>2026-04-12T09:19:27.916Z</time></trkpt><trkpt lat="44.95106852715174" lon="13.803176700724233"><ele>41.75</ele><time>2026-04-12T09:19:28.916Z</time></trkpt><trkpt lat="44.95110970587816" lon="13.803001729079151"><ele>41.5</ele><time>2026-04-12T09:19:29.916Z</time></trkpt><trkpt lat="44.9511340709109" lon="13.802827678232575"><ele>41.25</ele><time>2026-04-12T09:19:30.916Z</time></trkpt><trkpt lat="44.95119103878082" lon="13.802677963234071"><ele>41.0</ele><time>2026-04-12T09:19:31.916Z</time></trkpt><trkpt lat="44.95122870269573" lon="13.802516406237476"><ele>41.0</ele><time>2026-04-12T09:19:32.916Z</time></trkpt><trkpt lat="44.951265769761186" lon="13.802371207791083"><ele>41.0</ele><time>2026-04-12T09:19:33.916Z</time></trkpt><trkpt lat="44.951298998800894" lon="13.802224373770459"><ele>41.0</ele><time>2026-04-12T09:19:34.916Z</time></trkpt><trkpt lat="44.95133484011206" lon="13.802085985019588"><ele>41.0</ele><time>2026-04-12T09:19:35.916Z</time></trkpt><trkpt lat="44.95137851942122" lon="13.801936704966987"><ele>41.0</ele><time>2026-04-12T09:19:36.916Z</time></trkpt><trkpt lat="44.95142047838522" lon="13.801777144779383"><ele>40.5</ele><time>2026-04-12T09:19:37.916Z</time></trkpt><trkpt lat="44.95146431081707" lon="13.801619015074744"><ele>40.0</ele><time>2026-04-12T09:19:38.916Z</time></trkpt><trkpt lat="44.95150208121804" lon="13.801438490349831"><ele>39.5</ele><time>2026-04-12T09:19:39.916Z</time></trkpt><trkpt lat="44.95154166023302" lon="13.801266111839425"><ele>39.0</ele><time>2026-04-12T09:19:40.916Z</time></trkpt><trkpt lat="44.95158199203813" lon="13.801087513567586"><ele>38.75</ele><time>2026-04-12T09:19:41.916Z</time></trkpt><trkpt lat="44.95161363599759" lon="13.800907210828278"><ele>38.5</ele><time>2026-04-12T09:19:42.916Z</time></trkpt><trkpt lat="44.95166278057359" lon="13.800742564528413"><ele>38.25</ele><time>2026-04-12T09:19:43.916Z</time></trkpt><trkpt lat="44.95169200551462" lon="13.800564062648556"><ele>38.0</ele><time>2026-04-12T09:19:44.916Z</time></trkpt><trkpt lat="44.951710124847274" lon="13.800396114654852"><ele>37.4</ele><time>2026-04-12T09:19:45.916Z</time></trkpt><trkpt lat="44.95172801171825" lon="13.800237599706627"><ele>36.8</ele><time>2026-04-12T09:19:46.916Z</time></trkpt><trkpt lat="44.95174646383566" lon="13.800084090803615"><ele>36.2</ele><time>2026-04-12T09:19:47.916Z</time></trkpt><trkpt lat="44.95175725213469" lon="13.79994039425107"><ele>35.6</ele><time>2026-04-12T09:19:48.916Z</time></trkpt><trkpt lat="44.95176785847262" lon="13.799795685141833"><ele>35.0</ele><time>2026-04-12T09:19:49.916Z</time></trkpt><trkpt lat="44.951766804596545" lon="13.799665310200586"><ele>34.8</ele><time>2026-04-12T09:19:50.916Z</time></trkpt><trkpt lat="44.951770306837176" lon="13.799534114345159"><ele>34.6</ele><time>2026-04-12T09:19:51.916Z</time></trkpt><trkpt lat="44.95178250995777" lon="13.799406548372875"><ele>34.4</ele><time>2026-04-12T09:19:52.916Z</time></trkpt><trkpt lat="44.95180880708954" lon="13.799289561846743"><ele>34.2</ele><time>2026-04-12T09:19:54.916Z</time></trkpt><trkpt lat="44.951823504009816" lon="13.799187628105928"><ele>34.0</ele><time>2026-04-12T09:19:56.916Z</time></trkpt><trkpt lat="44.95192580900133" lon="13.799149798889205"><ele>33.8</ele><time>2026-04-12T09:19:59.916Z</time></trkpt><trkpt lat="44.95198879307469" lon="13.7991158937465"><ele>33.599999999999994</ele><time>2026-04-12T09:20:00.916Z</time></trkpt><trkpt lat="44.95206837045756" lon="13.7990901262643"><ele>33.4</ele><time>2026-04-12T09:20:01.916Z</time></trkpt><trkpt lat="44.95215504133814" lon="13.799076419589056"><ele>33.199999999999996</ele><time>2026-04-12T09:20:02.916Z</time></trkpt><trkpt lat="44.95226208632791" lon="13.799045959556194"><ele>33.0</ele><time>2026-04-12T09:20:03.916Z</time></trkpt><trkpt lat="44.95237004804486" lon="13.799008667690828"><ele>33.0</ele><time>2026-04-12T09:20:04.916Z</time></trkpt><trkpt lat="44.95248046580662" lon="13.798963958268375"><ele>33.0</ele><time>2026-04-12T09:20:05.916Z</time></trkpt><trkpt lat="44.95259286715622" lon="13.798933812237212"><ele>33.0</ele><time>2026-04-12T09:20:06.916Z</time></trkpt><trkpt lat="44.95269275468764" lon="13.798892340372358"><ele>33.0</ele><time>2026-04-12T09:20:07.916Z</time></trkpt><trkpt lat="44.952755323142014" lon="13.798798057737574"><ele>33.0</ele><time>2026-04-12T09:20:08.916Z</time></trkpt><trkpt lat="44.95279702624803" lon="13.798672568401079"><ele>31.75</ele><time>2026-04-12T09:20:09.916Z</time></trkpt><trkpt lat="44.95282426947472" lon="13.798528249308012"><ele>30.5</ele><time>2026-04-12T09:20:10.916Z</time></trkpt><trkpt lat="44.952858244076324" lon="13.798375359473164"><ele>29.25</ele><time>2026-04-12T09:20:11.916Z</time></trkpt><trkpt lat="44.95288974155379" lon="13.798213839231593"><ele>28.0</ele><time>2026-04-12T09:20:12.916Z</time></trkpt><trkpt lat="44.95293906687983" lon="13.798045743257536"><ele>28.0</ele><time>2026-04-12T09:20:13.916Z</time></trkpt><trkpt lat="44.95298958677323" lon="13.797898750467784"><ele>28.0</ele><time>2026-04-12T09:20:14.916Z</time></trkpt><trkpt lat="44.95302984242495" lon="13.797745895077849"><ele>28.0</ele><time>2026-04-12T09:20:15.916Z</time></trkpt><trkpt lat="44.953064420690716" lon="13.797600599528721"><ele>28.0</ele><time>2026-04-12T09:20:16.916Z</time></trkpt><trkpt lat="44.953102475277014" lon="13.797450070674419"><ele>27.799999999999997</ele><time>2026-04-12T09:20:17.916Z</time></trkpt><trkpt lat="44.9531317735859" lon="13.79730493257603"><ele>27.599999999999998</ele><time>2026-04-12T09:20:18.916Z</time></trkpt><trkpt lat="44.95314001479717" lon="13.797165314498072"><ele>27.400000000000002</ele><time>2026-04-12T09:20:19.916Z</time></trkpt><trkpt lat="44.95313281302762" lon="13.797036960987198"><ele>27.200000000000003</ele><time>2026-04-12T09:20:20.916Z</time></trkpt><trkpt lat="44.95309118170074" lon="13.796909037152545"><ele>27.0</ele><time>2026-04-12T09:20:21.916Z</time></trkpt><trkpt lat="44.95304872495473" lon="13.796800778043218"><ele>26.8</ele><time>2026-04-12T09:20:22.916Z</time></trkpt><trkpt lat="44.95298944307671" lon="13.796717867935667"><ele>26.6</ele><time>2026-04-12T09:20:23.916Z</time></trkpt><trkpt lat="44.95292719763115" lon="13.79665765695512"><ele>26.400000000000002</ele><time>2026-04-12T09:20:24.916Z</time></trkpt><trkpt lat="44.95287926002599" lon="13.796589815373524"><ele>26.200000000000003</ele><time>2026-04-12T09:20:26.916Z</time></trkpt><trkpt lat="44.95292245854559" lon="13.796461061288609"><ele>26.0</ele><time>2026-04-12T09:20:29.916Z</time></trkpt><trkpt lat="44.953020597753515" lon="13.796354956947816"><ele>25.999999999999996</ele><time>2026-04-12T09:20:31.916Z</time></trkpt><trkpt lat="44.95307340037429" lon="13.796271983452954"><ele>26.0</ele><time>2026-04-12T09:20:32.916Z</time></trkpt><trkpt lat="44.9531656726624" lon="13.796250977444021"><ele>26.0</ele><time>2026-04-12T09:20:33.916Z</time></trkpt><trkpt lat="44.95325482797796" lon="13.79625875472954"><ele>26.0</ele><time>2026-04-12T09:20:34.916Z</time></trkpt><trkpt lat="44.95332680298586" lon="13.796282219979421"><ele>25.999999999999996</ele><time>2026-04-12T09:20:35.916Z</time></trkpt><trkpt lat="44.953402109704975" lon="13.796296379262836"><ele>26.0</ele><time>2026-04-12T09:20:36.916Z</time></trkpt><trkpt lat="44.95347139059711" lon="13.796321020749795"><ele>25.499999999999996</ele><time>2026-04-12T09:20:37.916Z</time></trkpt><trkpt lat="44.95351999122385" lon="13.796388631181312"><ele>25.0</ele><time>2026-04-12T09:20:39.916Z</time></trkpt><trkpt lat="44.95361519454455" lon="13.796439513983492"><ele>24.5</ele><time>2026-04-12T09:20:42.916Z</time></trkpt><trkpt lat="44.95371391176692" lon="13.796503500732872"><ele>24.0</ele><time>2026-04-12T09:20:44.916Z</time></trkpt><trkpt lat="44.953778345813305" lon="13.796539147691544"><ele>23.5</ele><time>2026-04-12T09:20:45.915Z</time></trkpt><trkpt lat="44.9538589481443" lon="13.796585720460872"><ele>23.0</ele><time>2026-04-12T09:20:46.915Z</time></trkpt><trkpt lat="44.95395185126081" lon="13.796633689335401"><ele>23.0</ele><time>2026-04-12T09:20:47.915Z</time></trkpt><trkpt lat="44.9540471918655" lon="13.796678553236797"><ele>23.0</ele><time>2026-04-12T09:20:48.915Z</time></trkpt><trkpt lat="44.95413342750353" lon="13.796723434221612"><ele>23.0</ele><time>2026-04-12T09:20:49.915Z</time></trkpt><trkpt lat="44.95422479319682" lon="13.796766325994952"><ele>23.0</ele><time>2026-04-12T09:20:50.915Z</time></trkpt><trkpt lat="44.95431465501342" lon="13.796813460314986"><ele>23.0</ele><time>2026-04-12T09:20:51.914Z</time></trkpt><trkpt lat="44.95440626686985" lon="13.7968592712279"><ele>23.599999999999998</ele><time>2026-04-12T09:20:52.915Z</time></trkpt><trkpt lat="44.95450333926446" lon="13.796904111720721"><ele>24.2</ele><time>2026-04-12T09:20:53.915Z</time></trkpt><trkpt lat="44.954605001517564" lon="13.796951315525643"><ele>24.8</ele><time>2026-04-12T09:20:54.914Z</time></trkpt><trkpt lat="44.9547036419341" lon="13.796994816738547"><ele>25.4</ele><time>2026-04-12T09:20:55.915Z</time></trkpt><trkpt lat="44.95480174394243" lon="13.797025474493953"><ele>26.0</ele><time>2026-04-12T09:20:56.915Z</time></trkpt><trkpt lat="44.954902619911024" lon="13.797051657120008"><ele>26.0</ele><time>2026-04-12T09:20:57.914Z</time></trkpt><trkpt lat="44.95499776775878" lon="13.797085119265455"><ele>26.0</ele><time>2026-04-12T09:20:58.914Z</time></trkpt><trkpt lat="44.955092623560716" lon="13.797112613703309"><ele>26.0</ele><time>2026-04-12T09:20:59.914Z</time></trkpt><trkpt lat="44.95517623937119" lon="13.797141216400655"><ele>26.0</ele><time>2026-04-12T09:21:00.914Z</time></trkpt><trkpt lat="44.955259514561654" lon="13.797168129412825"><ele>26.0</ele><time>2026-04-12T09:21:01.914Z</time></trkpt><trkpt lat="44.95534251409833" lon="13.797207329440429"><ele>25.4</ele><time>2026-04-12T09:21:02.914Z</time></trkpt><trkpt lat="44.955432094210614" lon="13.797254190864686"><ele>24.8</ele><time>2026-04-12T09:21:03.914Z</time></trkpt><trkpt lat="44.95552564879961" lon="13.79728973130959"><ele>24.2</ele><time>2026-04-12T09:21:04.914Z</time></trkpt><trkpt lat="44.95562872060907" lon="13.79732475925429"><ele>23.599999999999998</ele><time>2026-04-12T09:21:05.914Z</time></trkpt><trkpt lat="44.955729444348314" lon="13.79734426386849"><ele>23.0</ele><time>2026-04-12T09:21:06.914Z</time></trkpt><trkpt lat="44.955841065093836" lon="13.797328076797488"><ele>22.799999999999997</ele><time>2026-04-12T09:21:07.914Z</time></trkpt><trkpt lat="44.95595453635889" lon="13.79728896224333"><ele>22.6</ele><time>2026-04-12T09:21:08.914Z</time></trkpt><trkpt lat="44.95606280092955" lon="13.797256194809975"><ele>22.4</ele><time>2026-04-12T09:21:09.914Z</time></trkpt><trkpt lat="44.95616146323782" lon="13.797234466759631"><ele>22.200000000000003</ele><time>2026-04-12T09:21:10.914Z</time></trkpt><trkpt lat="44.956255926782156" lon="13.797217319429885"><ele>22.0</ele><time>2026-04-12T09:21:11.914Z</time></trkpt><trkpt lat="44.95633468779325" lon="13.797200275567118"><ele>22.0</ele><time>2026-04-12T09:21:12.914Z</time></trkpt><trkpt lat="44.956400164024174" lon="13.79717996834066"><ele>22.0</ele><time>2026-04-12T09:21:13.914Z</time></trkpt><trkpt lat="44.95652566342607" lon="13.7971517706108"><ele>22.0</ele><time>2026-04-12T09:21:15.914Z</time></trkpt><trkpt lat="44.956585777410595" lon="13.797091878183087"><ele>22.0</ele><time>2026-04-12T09:21:16.914Z</time></trkpt><trkpt lat="44.95665624413284" lon="13.797014432048856"><ele>22.0</ele><time>2026-04-12T09:21:17.914Z</time></trkpt><trkpt lat="44.95672789777174" lon="13.796930999718327"><ele>21.6</ele><time>2026-04-12T09:21:18.914Z</time></trkpt><trkpt lat="44.95680359851395" lon="13.796841634358888"><ele>21.200000000000003</ele><time>2026-04-12T09:21:19.914Z</time></trkpt><trkpt lat="44.95687787605069" lon="13.796759308926207"><ele>20.8</ele><time>2026-04-12T09:21:20.914Z</time></trkpt><trkpt lat="44.956941937444476" lon="13.796666619353882"><ele>20.4</ele><time>2026-04-12T09:21:21.914Z</time></trkpt><trkpt lat="44.9570230332706" lon="13.796626761407797"><ele>20.0</ele><time>2026-04-12T09:21:22.914Z</time></trkpt><trkpt lat="44.9571078409006" lon="13.796610332314696"><ele>19.8</ele><time>2026-04-12T09:21:23.914Z</time></trkpt><trkpt lat="44.9571908453406" lon="13.796635009961838"><ele>19.6</ele><time>2026-04-12T09:21:24.914Z</time></trkpt><trkpt lat="44.95727706004669" lon="13.796656858006715"><ele>19.4</ele><time>2026-04-12T09:21:25.914Z</time></trkpt><trkpt lat="44.95737753908089" lon="13.796675517227923"><ele>19.2</ele><time>2026-04-12T09:21:27.914Z</time></trkpt><trkpt lat="44.95744903307952" lon="13.79664796483975"><ele>19.0</ele><time>2026-04-12T09:21:29.914Z</time></trkpt><trkpt lat="44.95756056178414" lon="13.796609372506328"><ele>19.6</ele><time>2026-04-12T09:21:31.914Z</time></trkpt><trkpt lat="44.95765701925051" lon="13.796558221049146"><ele>20.2</ele><time>2026-04-12T09:21:33.914Z</time></trkpt><trkpt lat="44.95773227309625" lon="13.796494895766813"><ele>20.8</ele><time>2026-04-12T09:21:35.914Z</time></trkpt><trkpt lat="44.95782125337169" lon="13.79637575520064"><ele>21.400000000000002</ele><time>2026-04-12T09:21:37.914Z</time></trkpt><trkpt lat="44.957867520348245" lon="13.796308791579365"><ele>22.0</ele><time>2026-04-12T09:21:38.914Z</time></trkpt><trkpt lat="44.957952937612994" lon="13.796190973860307"><ele>22.0</ele><time>2026-04-12T09:21:40.914Z</time></trkpt><trkpt lat="44.95800495691054" lon="13.796103703135268"><ele>22.0</ele><time>2026-04-12T09:21:42.914Z</time></trkpt><trkpt lat="44.95804738810036" lon="13.796019016125525"><ele>22.0</ele><time>2026-04-12T09:21:44.914Z</time></trkpt><trkpt lat="44.9580724679217" lon="13.795917464985063"><ele>22.0</ele><time>2026-04-12T09:21:46.914Z</time></trkpt><trkpt lat="44.9581038785426" lon="13.795792506524828"><ele>22.0</ele><time>2026-04-12T09:21:48.914Z</time></trkpt><trkpt lat="44.95813272972762" lon="13.795663455755891"><ele>22.0</ele><time>2026-04-12T09:21:50.914Z</time></trkpt><trkpt lat="44.958152121606155" lon="13.795574214895677"><ele>21.8</ele><time>2026-04-12T09:21:53.914Z</time></trkpt><trkpt lat="44.9581811633328" lon="13.795446429629157"><ele>21.6</ele><time>2026-04-12T09:21:56.914Z</time></trkpt><trkpt lat="44.95820563584177" lon="13.795304694957268"><ele>21.400000000000002</ele><time>2026-04-12T09:21:58.914Z</time></trkpt><trkpt lat="44.9582036080553" lon="13.79517044357982"><ele>21.200000000000003</ele><time>2026-04-12T09:22:00.914Z</time></trkpt><trkpt lat="44.958188164791395" lon="13.795066055622208"><ele>21.0</ele><time>2026-04-12T09:22:02.914Z</time></trkpt><trkpt lat="44.958186597853725" lon="13.794930526130262"><ele>21.0</ele><time>2026-04-12T09:22:04.914Z</time></trkpt><trkpt lat="44.95817061162871" lon="13.794758701996667"><ele>21.0</ele><time>2026-04-12T09:22:06.914Z</time></trkpt><trkpt lat="44.95816726440028" lon="13.794578123844756"><ele>21.0</ele><time>2026-04-12T09:22:08.913Z</time></trkpt><trkpt lat="44.958153931222405" lon="13.794417335285678"><ele>21.0</ele><time>2026-04-12T09:22:10.913Z</time></trkpt><trkpt lat="44.95815233968037" lon="13.794289416292724"><ele>20.6</ele><time>2026-04-12T09:22:12.913Z</time></trkpt><trkpt lat="44.95813605526655" lon="13.794137474214027"><ele>20.200000000000003</ele><time>2026-04-12T09:22:14.913Z</time></trkpt><trkpt lat="44.95810851518981" lon="13.793998824222294"><ele>19.799999999999997</ele><time>2026-04-12T09:22:16.913Z</time></trkpt><trkpt lat="44.95809173059241" lon="13.793852827315492"><ele>19.4</ele><time>2026-04-12T09:22:18.913Z</time></trkpt><trkpt lat="44.958036658363405" lon="13.79370306605504"><ele>19.0</ele><time>2026-04-12T09:22:20.913Z</time></trkpt><trkpt lat="44.957989293437706" lon="13.79363073876019"><ele>19.0</ele><time>2026-04-12T09:22:21.913Z</time></trkpt><trkpt lat="44.957932847279075" lon="13.793550749413512"><ele>19.0</ele><time>2026-04-12T09:22:22.913Z</time></trkpt><trkpt lat="44.95785053995283" lon="13.793457160098816"><ele>19.0</ele><time>2026-04-12T09:22:23.913Z</time></trkpt><trkpt lat="44.95777692308695" lon="13.793364474175018"><ele>19.0</ele><time>2026-04-12T09:22:24.913Z</time></trkpt><trkpt lat="44.957723607739986" lon="13.793286097748801"><ele>19.0</ele><time>2026-04-12T09:22:25.913Z</time></trkpt><trkpt lat="44.95767571956483" lon="13.793209766933456"><ele>19.0</ele><time>2026-04-12T09:22:26.913Z</time></trkpt><trkpt lat="44.95763320129356" lon="13.793129149708086"><ele>18.8</ele><time>2026-04-12T09:22:27.913Z</time></trkpt><trkpt lat="44.95757781836425" lon="13.79299690594369"><ele>18.599999999999998</ele><time>2026-04-12T09:22:29.913Z</time></trkpt><trkpt lat="44.957557817025915" lon="13.792895821701167"><ele>18.4</ele><time>2026-04-12T09:22:31.913Z</time></trkpt><trkpt lat="44.95756411840187" lon="13.79277352243562"><ele>18.2</ele><time>2026-04-12T09:22:33.913Z</time></trkpt><trkpt lat="44.95757975931949" lon="13.79257038299637"><ele>18.0</ele><time>2026-04-12T09:22:35.913Z</time></trkpt><trkpt lat="44.95758944580069" lon="13.792469326168444"><ele>17.8</ele><time>2026-04-12T09:22:36.913Z</time></trkpt><trkpt lat="44.95760638550404" lon="13.79231578493548"><ele>17.6</ele><time>2026-04-12T09:22:38.913Z</time></trkpt><trkpt lat="44.95765561783188" lon="13.792185313565426"><ele>17.4</ele><time>2026-04-12T09:22:40.913Z</time></trkpt><trkpt lat="44.957751472999384" lon="13.792064862148514"><ele>17.2</ele><time>2026-04-12T09:22:42.913Z</time></trkpt><trkpt lat="44.957822869569526" lon="13.791988925631752"><ele>17.0</ele><time>2026-04-12T09:22:43.913Z</time></trkpt><trkpt lat="44.95789069152934" lon="13.791897079939853"><ele>16.833333333333336</ele><time>2026-04-12T09:22:44.913Z</time></trkpt><trkpt lat="44.95794446477263" lon="13.791820441978675"><ele>16.666666666666668</ele><time>2026-04-12T09:22:45.913Z</time></trkpt><trkpt lat="44.95799098943281" lon="13.791736621597366"><ele>16.5</ele><time>2026-04-12T09:22:46.913Z</time></trkpt><trkpt lat="44.958034151295" lon="13.79166635063755"><ele>16.333333333333332</ele><time>2026-04-12T09:22:47.913Z</time></trkpt><trkpt lat="44.958129483368985" lon="13.791524308351121"><ele>16.166666666666664</ele><time>2026-04-12T09:22:49.913Z</time></trkpt><trkpt lat="44.95820081874987" lon="13.791446744502593"><ele>16.0</ele><time>2026-04-12T09:22:50.913Z</time></trkpt><trkpt lat="44.958275012705805" lon="13.79137524050712"><ele>16.0</ele><time>2026-04-12T09:22:51.912Z</time></trkpt><trkpt lat="44.958352058085964" lon="13.791312710409477"><ele>16.0</ele><time>2026-04-12T09:22:52.912Z</time></trkpt><trkpt lat="44.958438844759556" lon="13.791257391485289"><ele>16.0</ele><time>2026-04-12T09:22:53.912Z</time></trkpt><trkpt lat="44.958539273529695" lon="13.791204954305897"><ele>16.0</ele><time>2026-04-12T09:22:54.913Z</time></trkpt><trkpt lat="44.95865707085941" lon="13.791155332564326"><ele>16.0</ele><time>2026-04-12T09:22:55.912Z</time></trkpt><trkpt lat="44.95876283090671" lon="13.791092493487383"><ele>16.400000000000002</ele><time>2026-04-12T09:22:56.912Z</time></trkpt><trkpt lat="44.95885305844222" lon="13.791030387537136"><ele>16.8</ele><time>2026-04-12T09:22:57.912Z</time></trkpt><trkpt lat="44.95894147308772" lon="13.790945896214678"><ele>17.200000000000003</ele><time>2026-04-12T09:22:58.912Z</time></trkpt><trkpt lat="44.95903745087401" lon="13.790854081691991"><ele>17.6</ele><time>2026-04-12T09:22:59.912Z</time></trkpt><trkpt lat="44.95912644444491" lon="13.790743878158525"><ele>18.0</ele><time>2026-04-12T09:23:00.912Z</time></trkpt><trkpt lat="44.95921241596925" lon="13.790655086647439"><ele>18.333333333333332</ele><time>2026-04-12T09:23:01.912Z</time></trkpt><trkpt lat="44.9592843035814" lon="13.79058378736455"><ele>18.666666666666668</ele><time>2026-04-12T09:23:02.912Z</time></trkpt><trkpt lat="44.959384842545646" lon="13.790572058320668"><ele>19.0</ele><time>2026-04-12T09:23:03.912Z</time></trkpt><trkpt lat="44.95945233588218" lon="13.790500245947735"><ele>19.333333333333336</ele><time>2026-04-12T09:23:04.912Z</time></trkpt><trkpt lat="44.95951022760208" lon="13.790421070525968"><ele>19.666666666666668</ele><time>2026-04-12T09:23:05.912Z</time></trkpt><trkpt lat="44.959552127746925" lon="13.790342102389943"><ele>20.0</ele><time>2026-04-12T09:23:06.912Z</time></trkpt><trkpt lat="44.95958507806991" lon="13.790240793052451"><ele>19.6</ele><time>2026-04-12T09:23:07.912Z</time></trkpt><trkpt lat="44.95958764289033" lon="13.790097793961367"><ele>19.2</ele><time>2026-04-12T09:23:08.912Z</time></trkpt><trkpt lat="44.959633227195724" lon="13.789973935414267"><ele>18.8</ele><time>2026-04-12T09:23:09.912Z</time></trkpt><trkpt lat="44.959655955430875" lon="13.789843452511827"><ele>18.4</ele><time>2026-04-12T09:23:10.912Z</time></trkpt><trkpt lat="44.95968965785196" lon="13.789720849822812"><ele>18.0</ele><time>2026-04-12T09:23:11.912Z</time></trkpt><trkpt lat="44.95971702754519" lon="13.78959373457479"><ele>18.0</ele><time>2026-04-12T09:23:12.912Z</time></trkpt><trkpt lat="44.9597405405927" lon="13.789468791293828"><ele>18.0</ele><time>2026-04-12T09:23:13.912Z</time></trkpt><trkpt lat="44.95975291894389" lon="13.789337171853619"><ele>18.0</ele><time>2026-04-12T09:23:14.912Z</time></trkpt><trkpt lat="44.959748080726975" lon="13.78922096148995"><ele>18.0</ele><time>2026-04-12T09:23:15.912Z</time></trkpt><trkpt lat="44.95973973388237" lon="13.789092365551083"><ele>18.0</ele><time>2026-04-12T09:23:16.912Z</time></trkpt><trkpt lat="44.959726512341696" lon="13.788981505407575"><ele>18.0</ele><time>2026-04-12T09:23:17.912Z</time></trkpt><trkpt lat="44.959696486099766" lon="13.788880254087157"><ele>18.0</ele><time>2026-04-12T09:23:18.912Z</time></trkpt><trkpt lat="44.959680863655095" lon="13.788790351382575"><ele>18.0</ele><time>2026-04-12T09:23:19.912Z</time></trkpt><trkpt lat="44.95967366214864" lon="13.788689651946209"><ele>18.0</ele><time>2026-04-12T09:23:20.912Z</time></trkpt><trkpt lat="44.959692346243735" lon="13.788563449383833"><ele>18.0</ele><time>2026-04-12T09:23:21.912Z</time></trkpt><trkpt lat="44.959717726522" lon="13.788422193310447"><ele>18.0</ele><time>2026-04-12T09:23:22.912Z</time></trkpt><trkpt lat="44.95975380776828" lon="13.788273327593076"><ele>18.0</ele><time>2026-04-12T09:23:23.912Z</time></trkpt><trkpt lat="44.95979130929033" lon="13.78813498836294"><ele>17.8</ele><time>2026-04-12T09:23:24.912Z</time></trkpt><trkpt lat="44.95981009478752" lon="13.788005797541066"><ele>17.6</ele><time>2026-04-12T09:23:25.912Z</time></trkpt><trkpt lat="44.95981923368283" lon="13.787879088068093"><ele>17.4</ele><time>2026-04-12T09:23:26.912Z</time></trkpt><trkpt lat="44.959835935273965" lon="13.78775392731954"><ele>17.2</ele><time>2026-04-12T09:23:27.912Z</time></trkpt><trkpt lat="44.959861053105065" lon="13.787630158093135"><ele>17.0</ele><time>2026-04-12T09:23:28.912Z</time></trkpt><trkpt lat="44.95987913929661" lon="13.787491218913319"><ele>17.0</ele><time>2026-04-12T09:23:29.912Z</time></trkpt><trkpt lat="44.95989166465315" lon="13.787341689827736"><ele>17.0</ele><time>2026-04-12T09:23:30.912Z</time></trkpt><trkpt lat="44.95991967976849" lon="13.78718951469366"><ele>17.0</ele><time>2026-04-12T09:23:31.912Z</time></trkpt><trkpt lat="44.95994882527224" lon="13.787045834465976"><ele>17.0</ele><time>2026-04-12T09:23:32.912Z</time></trkpt><trkpt lat="44.959976919833174" lon="13.78690309539778"><ele>17.0</ele><time>2026-04-12T09:23:33.912Z</time></trkpt><trkpt lat="44.96000357026424" lon="13.786752055997097"><ele>17.0</ele><time>2026-04-12T09:23:34.912Z</time></trkpt><trkpt lat="44.96005089456661" lon="13.786624886385635"><ele>17.0</ele><time>2026-04-12T09:23:35.912Z</time></trkpt><trkpt lat="44.96007111211045" lon="13.786494624258067"><ele>17.0</ele><time>2026-04-12T09:23:36.912Z</time></trkpt><trkpt lat="44.96009270810284" lon="13.786370699995592"><ele>17.0</ele><time>2026-04-12T09:23:37.912Z</time></trkpt><trkpt lat="44.960110305122384" lon="13.786279808555493"><ele>17.0</ele><time>2026-04-12T09:23:38.912Z</time></trkpt><trkpt lat="44.960133199255466" lon="13.786167992743724"><ele>17.0</ele><time>2026-04-12T09:23:40.912Z</time></trkpt><trkpt lat="44.96015686259044" lon="13.786074075696014"><ele>17.0</ele><time>2026-04-12T09:23:42.912Z</time></trkpt><trkpt lat="44.96027094911903" lon="13.786078400383076"><ele>17.0</ele><time>2026-04-12T09:23:43.912Z</time></trkpt><trkpt lat="44.960338642101455" lon="13.786053906050496"><ele>17.0</ele><time>2026-04-12T09:23:44.912Z</time></trkpt><trkpt lat="44.96040593137126" lon="13.7860284845307"><ele>17.0</ele><time>2026-04-12T09:23:45.912Z</time></trkpt><trkpt lat="44.96047056013509" lon="13.786025376341241"><ele>17.0</ele><time>2026-04-12T09:23:46.912Z</time></trkpt><trkpt lat="44.96058782674136" lon="13.78607587667484"><ele>17.0</ele><time>2026-04-12T09:23:48.912Z</time></trkpt><trkpt lat="44.96064842587595" lon="13.786121509108876"><ele>17.0</ele><time>2026-04-12T09:23:49.912Z</time></trkpt><trkpt lat="44.960720911771645" lon="13.786176909704693"><ele>17.0</ele><time>2026-04-12T09:23:50.912Z</time></trkpt><trkpt lat="44.960794278290784" lon="13.786225338229357"><ele>17.0</ele><time>2026-04-12T09:23:51.912Z</time></trkpt><trkpt lat="44.9608549934084" lon="13.78627539097635"><ele>17.0</ele><time>2026-04-12T09:23:52.912Z</time></trkpt><trkpt lat="44.960909242608075" lon="13.786349012950177"><ele>17.0</ele><time>2026-04-12T09:23:53.912Z</time></trkpt><trkpt lat="44.96097102890258" lon="13.78642867385671"><ele>17.0</ele><time>2026-04-12T09:23:54.912Z</time></trkpt><trkpt lat="44.961016693769075" lon="13.78650433623983"><ele>17.166666666666668</ele><time>2026-04-12T09:23:55.912Z</time></trkpt><trkpt lat="44.96110119079338" lon="13.786634610914577"><ele>17.333333333333336</ele><time>2026-04-12T09:23:57.912Z</time></trkpt><trkpt lat="44.961145756205994" lon="13.786715263870947"><ele>17.5</ele><time>2026-04-12T09:23:58.912Z</time></trkpt><trkpt lat="44.96116455640491" lon="13.78680854050312"><ele>17.666666666666668</ele><time>2026-04-12T09:23:59.912Z</time></trkpt><trkpt lat="44.96117901168113" lon="13.786919485790055"><ele>17.833333333333332</ele><time>2026-04-12T09:24:00.912Z</time></trkpt><trkpt lat="44.961197018927514" lon="13.787062516845118"><ele>18.0</ele><time>2026-04-12T09:24:01.912Z</time></trkpt><trkpt lat="44.96121094594316" lon="13.787195585409812"><ele>18.333333333333332</ele><time>2026-04-12T09:24:02.912Z</time></trkpt><trkpt lat="44.961228115291355" lon="13.78733109843995"><ele>18.666666666666668</ele><time>2026-04-12T09:24:03.912Z</time></trkpt><trkpt lat="44.96125110802831" lon="13.787471552241199"><ele>19.0</ele><time>2026-04-12T09:24:04.912Z</time></trkpt><trkpt lat="44.961260078888856" lon="13.787599857218204"><ele>19.333333333333336</ele><time>2026-04-12T09:24:05.912Z</time></trkpt><trkpt lat="44.96126705140757" lon="13.787712632059185"><ele>19.666666666666668</ele><time>2026-04-12T09:24:06.912Z</time></trkpt><trkpt lat="44.96127744791753" lon="13.787818879324819"><ele>20.0</ele><time>2026-04-12T09:24:08.912Z</time></trkpt><trkpt lat="44.96136545447944" lon="13.78785291781524"><ele>20.0</ele><time>2026-04-12T09:24:10.912Z</time></trkpt><trkpt lat="44.961455342872405" lon="13.787755277555169"><ele>20.0</ele><time>2026-04-12T09:24:12.912Z</time></trkpt><trkpt lat="44.96152041544271" lon="13.78768760984484"><ele>20.0</ele><time>2026-04-12T09:24:13.912Z</time></trkpt><trkpt lat="44.96161183211241" lon="13.787616948524105"><ele>20.0</ele><time>2026-04-12T09:24:14.912Z</time></trkpt><trkpt lat="44.961693134016805" lon="13.787568861680862"><ele>20.0</ele><time>2026-04-12T09:24:15.912Z</time></trkpt><trkpt lat="44.961766230725665" lon="13.787535126262036"><ele>19.833333333333336</ele><time>2026-04-12T09:24:16.912Z</time></trkpt><trkpt lat="44.96185397717372" lon="13.787508779448448"><ele>19.666666666666668</ele><time>2026-04-12T09:24:17.912Z</time></trkpt><trkpt lat="44.96193621424585" lon="13.787488790110576"><ele>19.5</ele><time>2026-04-12T09:24:18.912Z</time></trkpt><trkpt lat="44.961999431369335" lon="13.787470895125358"><ele>19.333333333333332</ele><time>2026-04-12T09:24:19.912Z</time></trkpt><trkpt lat="44.962066835717785" lon="13.787429239519403"><ele>19.166666666666664</ele><time>2026-04-12T09:24:20.912Z</time></trkpt><trkpt lat="44.96213472447633" lon="13.787365440825047"><ele>19.0</ele><time>2026-04-12T09:24:21.912Z</time></trkpt><trkpt lat="44.962215194678556" lon="13.787286177543187"><ele>19.0</ele><time>2026-04-12T09:24:22.912Z</time></trkpt><trkpt lat="44.962301808368494" lon="13.787208642192011"><ele>19.0</ele><time>2026-04-12T09:24:23.912Z</time></trkpt><trkpt lat="44.96237554373776" lon="13.787154458901638"><ele>19.0</ele><time>2026-04-12T09:24:24.912Z</time></trkpt><trkpt lat="44.962444318726135" lon="13.787099615127113"><ele>19.0</ele><time>2026-04-12T09:24:25.912Z</time></trkpt><trkpt lat="44.96251093451193" lon="13.787055787943054"><ele>19.0</ele><time>2026-04-12T09:24:26.912Z</time></trkpt><trkpt lat="44.96257896523112" lon="13.787009815916884"><ele>19.0</ele><time>2026-04-12T09:24:27.912Z</time></trkpt><trkpt lat="44.96264639859459" lon="13.786952559920882"><ele>19.0</ele><time>2026-04-12T09:24:28.912Z</time></trkpt><trkpt lat="44.96272386835373" lon="13.786892966426427"><ele>19.0</ele><time>2026-04-12T09:24:29.912Z</time></trkpt><trkpt lat="44.9628029505572" lon="13.786828994999079"><ele>19.0</ele><time>2026-04-12T09:24:30.912Z</time></trkpt><trkpt lat="44.96287570344964" lon="13.786775040914472"><ele>19.0</ele><time>2026-04-12T09:24:31.912Z</time></trkpt><trkpt lat="44.96293802386611" lon="13.78672546739124"><ele>19.0</ele><time>2026-04-12T09:24:32.912Z</time></trkpt><trkpt lat="44.96294989526483" lon="13.786625077218545"><ele>19.0</ele><time>2026-04-12T09:24:35.912Z</time></trkpt><trkpt lat="44.962915559770394" lon="13.786503978205449"><ele>19.0</ele><time>2026-04-12T09:24:38.912Z</time></trkpt><trkpt lat="44.962873494981956" lon="13.786351175750204"><ele>19.0</ele><time>2026-04-12T09:24:40.912Z</time></trkpt><trkpt lat="44.96284084828418" lon="13.786251541992552"><ele>19.0</ele><time>2026-04-12T09:24:41.912Z</time></trkpt><trkpt lat="44.96280796543608" lon="13.786161038027444"><ele>19.0</ele><time>2026-04-12T09:24:42.912Z</time></trkpt><trkpt lat="44.96277669091228" lon="13.786075432950012"><ele>19.0</ele><time>2026-04-12T09:24:43.912Z</time></trkpt><trkpt lat="44.9627485955884" lon="13.785981965703305"><ele>19.0</ele><time>2026-04-12T09:24:44.912Z</time></trkpt><trkpt lat="44.96268369487602" lon="13.785818403952954"><ele>18.833333333333332</ele><time>2026-04-12T09:24:46.912Z</time></trkpt><trkpt lat="44.96265319719913" lon="13.78572571378772"><ele>18.666666666666664</ele><time>2026-04-12T09:24:47.912Z</time></trkpt><trkpt lat="44.96263245776587" lon="13.78562275006026"><ele>18.5</ele><time>2026-04-12T09:24:48.912Z</time></trkpt><trkpt lat="44.962608846380625" lon="13.785509342782433"><ele>18.333333333333332</ele><time>2026-04-12T09:24:49.911Z</time></trkpt><trkpt lat="44.962584052304784" lon="13.785397237230494"><ele>18.166666666666668</ele><time>2026-04-12T09:24:50.911Z</time></trkpt><trkpt lat="44.962562515207885" lon="13.78528311886109"><ele>18.0</ele><time>2026-04-12T09:24:51.911Z</time></trkpt><trkpt lat="44.962534919476745" lon="13.785168430538098"><ele>17.6</ele><time>2026-04-12T09:24:52.911Z</time></trkpt><trkpt lat="44.96250667365715" lon="13.785052703910118"><ele>17.200000000000003</ele><time>2026-04-12T09:24:53.911Z</time></trkpt><trkpt lat="44.96248464705191" lon="13.784939823680425"><ele>16.8</ele><time>2026-04-12T09:24:54.911Z</time></trkpt><trkpt lat="44.962467370588875" lon="13.784830927506563"><ele>16.400000000000002</ele><time>2026-04-12T09:24:55.911Z</time></trkpt><trkpt lat="44.9624666290711" lon="13.784674957169168"><ele>16.0</ele><time>2026-04-12T09:24:57.91Z</time></trkpt><trkpt lat="44.962534169259015" lon="13.784550073549504"><ele>16.0</ele><time>2026-04-12T09:24:59.91Z</time></trkpt><trkpt lat="44.96266307015715" lon="13.784478497822029"><ele>16.0</ele><time>2026-04-12T09:25:01.91Z</time></trkpt><trkpt lat="44.96275517955826" lon="13.784432032842878"><ele>16.0</ele><time>2026-04-12T09:25:02.91Z</time></trkpt><trkpt lat="44.96284855144473" lon="13.784381772896962"><ele>16.0</ele><time>2026-04-12T09:25:03.909Z</time></trkpt><trkpt lat="44.96294090179815" lon="13.784339410184565"><ele>16.0</ele><time>2026-04-12T09:25:04.91Z</time></trkpt><trkpt lat="44.96300023651624" lon="13.78430436116403"><ele>15.600000000000001</ele><time>2026-04-12T09:25:05.91Z</time></trkpt><trkpt lat="44.96306252324539" lon="13.7842139765635"><ele>15.200000000000001</ele><time>2026-04-12T09:25:07.91Z</time></trkpt><trkpt lat="44.96306521292331" lon="13.78408243205053"><ele>14.799999999999999</ele><time>2026-04-12T09:25:09.909Z</time></trkpt><trkpt lat="44.962982755865" lon="13.783941619631738"><ele>14.399999999999999</ele><time>2026-04-12T09:25:11.91Z</time></trkpt><trkpt lat="44.962919174411766" lon="13.78383621593659"><ele>14.0</ele><time>2026-04-12T09:25:12.91Z</time></trkpt><trkpt lat="44.962860015833385" lon="13.78371606395309"><ele>14.0</ele><time>2026-04-12T09:25:13.91Z</time></trkpt><trkpt lat="44.96279967186546" lon="13.783612657921502"><ele>13.999999999999998</ele><time>2026-04-12T09:25:14.91Z</time></trkpt><trkpt lat="44.96273634633762" lon="13.783505676852494"><ele>13.999999999999998</ele><time>2026-04-12T09:25:15.91Z</time></trkpt><trkpt lat="44.96267374154342" lon="13.783406029693536"><ele>14.0</ele><time>2026-04-12T09:25:16.91Z</time></trkpt><trkpt lat="44.962614318893294" lon="13.783304012172202"><ele>14.0</ele><time>2026-04-12T09:25:17.91Z</time></trkpt><trkpt lat="44.96256185815119" lon="13.783186214370874"><ele>13.399999999999999</ele><time>2026-04-12T09:25:18.91Z</time></trkpt><trkpt lat="44.96250144842354" lon="13.783071225055105"><ele>12.799999999999999</ele><time>2026-04-12T09:25:19.91Z</time></trkpt><trkpt lat="44.962433955323675" lon="13.782959442189483"><ele>12.2</ele><time>2026-04-12T09:25:20.91Z</time></trkpt><trkpt lat="44.96237297374754" lon="13.782855036871902"><ele>11.600000000000001</ele><time>2026-04-12T09:25:21.91Z</time></trkpt><trkpt lat="44.962317661477606" lon="13.782762785449837"><ele>11.0</ele><time>2026-04-12T09:25:22.91Z</time></trkpt><trkpt lat="44.96226235364158" lon="13.782663031978188"><ele>10.166666666666666</ele><time>2026-04-12T09:25:23.91Z</time></trkpt><trkpt lat="44.96220805734644" lon="13.782574912200703"><ele>9.333333333333332</ele><time>2026-04-12T09:25:24.91Z</time></trkpt><trkpt lat="44.96215171023895" lon="13.782498557606646"><ele>8.5</ele><time>2026-04-12T09:25:25.91Z</time></trkpt><trkpt lat="44.9621100104766" lon="13.782402212935093"><ele>7.666666666666666</ele><time>2026-04-12T09:25:26.91Z</time></trkpt><trkpt lat="44.9620224928524" lon="13.782359117098022"><ele>6.833333333333333</ele><time>2026-04-12T09:25:27.91Z</time></trkpt><trkpt lat="44.96193773343435" lon="13.782302639319752"><ele>6.0</ele><time>2026-04-12T09:25:28.91Z</time></trkpt><trkpt lat="44.96186137213275" lon="13.782256219784674"><ele>6.0</ele><time>2026-04-12T09:25:29.91Z</time></trkpt><trkpt lat="44.96179469809776" lon="13.782205398626688"><ele>6.0</ele><time>2026-04-12T09:25:30.91Z</time></trkpt><trkpt lat="44.96175166089567" lon="13.782126714782475"><ele>6.0</ele><time>2026-04-12T09:25:31.91Z</time></trkpt><trkpt lat="44.96170743898096" lon="13.78205911961137"><ele>6.0</ele><time>2026-04-12T09:25:32.91Z</time></trkpt><trkpt lat="44.96168529627751" lon="13.781878874237142"><ele>6.0</ele><time>2026-04-12T09:25:34.909Z</time></trkpt><trkpt lat="44.961650566017035" lon="13.781735382234782"><ele>6.0</ele><time>2026-04-12T09:25:36.909Z</time></trkpt><trkpt lat="44.96158918621132" lon="13.781657760319584"><ele>5.833333333333333</ele><time>2026-04-12T09:25:40.909Z</time></trkpt><trkpt lat="44.96151062724238" lon="13.781586964539178"><ele>5.666666666666667</ele><time>2026-04-12T09:25:43.909Z</time></trkpt><trkpt lat="44.96142133630534" lon="13.781598565126108"><ele>5.5</ele><time>2026-04-12T09:25:45.909Z</time></trkpt><trkpt lat="44.96132936166969" lon="13.781611717811487"><ele>5.333333333333334</ele><time>2026-04-12T09:25:47.909Z</time></trkpt><trkpt lat="44.96129472401123" lon="13.781532457934865"><ele>5.166666666666667</ele><time>2026-04-12T09:25:49.909Z</time></trkpt><trkpt lat="44.96133910394188" lon="13.781427730477366"><ele>5.0</ele><time>2026-04-12T09:25:51.909Z</time></trkpt><trkpt lat="44.96146729550694" lon="13.781373397907512"><ele>5.0</ele><time>2026-04-12T09:25:53.909Z</time></trkpt><trkpt lat="44.96158078490911" lon="13.781323953433603"><ele>5.0</ele><time>2026-04-12T09:25:54.909Z</time></trkpt><trkpt lat="44.9617155291901" lon="13.78125525832814"><ele>5.0</ele><time>2026-04-12T09:25:55.909Z</time></trkpt><trkpt lat="44.96184664537058" lon="13.781181449618384"><ele>5.0</ele><time>2026-04-12T09:25:56.909Z</time></trkpt><trkpt lat="44.96198913371233" lon="13.781111703711549"><ele>5.0</ele><time>2026-04-12T09:25:57.909Z</time></trkpt><trkpt lat="44.96216104216596" lon="13.781026799899216"><ele>5.0</ele><time>2026-04-12T09:25:58.909Z</time></trkpt><trkpt lat="44.96233155867219" lon="13.7809266069301"><ele>5.0</ele><time>2026-04-12T09:25:59.909Z</time></trkpt><trkpt lat="44.96248632041354" lon="13.780839905529056"><ele>6.0</ele><time>2026-04-12T09:26:00.909Z</time></trkpt><trkpt lat="44.96263477302704" lon="13.780740439839251"><ele>7.0</ele><time>2026-04-12T09:26:01.909Z</time></trkpt><trkpt lat="44.96277535837879" lon="13.780648789433418"><ele>8.0</ele><time>2026-04-12T09:26:02.909Z</time></trkpt><trkpt lat="44.96290849140344" lon="13.780554793783523"><ele>8.0</ele><time>2026-04-12T09:26:03.909Z</time></trkpt><trkpt lat="44.96304316806244" lon="13.780441245094881"><ele>8.0</ele><time>2026-04-12T09:26:04.909Z</time></trkpt><trkpt lat="44.96318195611054" lon="13.780304235939356"><ele>8.0</ele><time>2026-04-12T09:26:05.909Z</time></trkpt><trkpt lat="44.96332701151384" lon="13.780154588974925"><ele>9.0</ele><time>2026-04-12T09:26:06.909Z</time></trkpt><trkpt lat="44.96347406972325" lon="13.780005389268302"><ele>10.0</ele><time>2026-04-12T09:26:07.909Z</time></trkpt><trkpt lat="44.96361409457965" lon="13.779863438753207"><ele>11.0</ele><time>2026-04-12T09:26:08.909Z</time></trkpt><trkpt lat="44.963752029331125" lon="13.779717678003793"><ele>11.0</ele><time>2026-04-12T09:26:09.909Z</time></trkpt><trkpt lat="44.96389640130034" lon="13.779563490080104"><ele>11.0</ele><time>2026-04-12T09:26:10.909Z</time></trkpt><trkpt lat="44.96404074169008" lon="13.77940489141153"><ele>11.0</ele><time>2026-04-12T09:26:11.909Z</time></trkpt><trkpt lat="44.96418398465051" lon="13.779242159138304"><ele>11.333333333333332</ele><time>2026-04-12T09:26:12.909Z</time></trkpt><trkpt lat="44.964332502494265" lon="13.779078848875866"><ele>11.666666666666666</ele><time>2026-04-12T09:26:13.909Z</time></trkpt><trkpt lat="44.96447790558265" lon="13.778910450948496"><ele>12.0</ele><time>2026-04-12T09:26:14.909Z</time></trkpt><trkpt lat="44.96462221353805" lon="13.778732128571363"><ele>12.0</ele><time>2026-04-12T09:26:15.909Z</time></trkpt><trkpt lat="44.96475833556951" lon="13.778547767360916"><ele>12.0</ele><time>2026-04-12T09:26:16.909Z</time></trkpt><trkpt lat="44.964891218462846" lon="13.77836884746642"><ele>12.0</ele><time>2026-04-12T09:26:17.909Z</time></trkpt><trkpt lat="44.9650307568257" lon="13.778186264229292"><ele>12.333333333333332</ele><time>2026-04-12T09:26:18.909Z</time></trkpt><trkpt lat="44.96516530900512" lon="13.778004495979093"><ele>12.666666666666666</ele><time>2026-04-12T09:26:19.909Z</time></trkpt><trkpt lat="44.965297635043456" lon="13.777823290837864"><ele>13.0</ele><time>2026-04-12T09:26:20.909Z</time></trkpt><trkpt lat="44.96542938041241" lon="13.777646906560888"><ele>13.0</ele><time>2026-04-12T09:26:21.909Z</time></trkpt><trkpt lat="44.96555868182984" lon="13.777473890299698"><ele>13.0</ele><time>2026-04-12T09:26:22.909Z</time></trkpt><trkpt lat="44.965689964449965" lon="13.777306514948544"><ele>13.0</ele><time>2026-04-12T09:26:23.909Z</time></trkpt><trkpt lat="44.96581695754936" lon="13.777142230764925"><ele>13.333333333333332</ele><time>2026-04-12T09:26:24.909Z</time></trkpt><trkpt lat="44.965938397939254" lon="13.776985176771255"><ele>13.666666666666668</ele><time>2026-04-12T09:26:25.909Z</time></trkpt><trkpt lat="44.96605918575611" lon="13.776828795297659"><ele>14.0</ele><time>2026-04-12T09:26:26.909Z</time></trkpt><trkpt lat="44.96618415282476" lon="13.776668896726395"><ele>13.0</ele><time>2026-04-12T09:26:27.909Z</time></trkpt><trkpt lat="44.96631020710593" lon="13.776508699276926"><ele>12.0</ele><time>2026-04-12T09:26:28.909Z</time></trkpt><trkpt lat="44.966433799189794" lon="13.776348553254932"><ele>11.0</ele><time>2026-04-12T09:26:29.909Z</time></trkpt><trkpt lat="44.966557697192606" lon="13.776189531772669"><ele>11.0</ele><time>2026-04-12T09:26:30.909Z</time></trkpt><trkpt lat="44.96668300454597" lon="13.77602786244019"><ele>11.0</ele><time>2026-04-12T09:26:31.909Z</time></trkpt><trkpt lat="44.96680591108815" lon="13.775872424385534"><ele>11.0</ele><time>2026-04-12T09:26:32.909Z</time></trkpt><trkpt lat="44.96692809682265" lon="13.77572049880485"><ele>12.333333333333332</ele><time>2026-04-12T09:26:33.909Z</time></trkpt><trkpt lat="44.96705491938234" lon="13.775570482616965"><ele>13.666666666666666</ele><time>2026-04-12T09:26:34.909Z</time></trkpt><trkpt lat="44.9671680076144" lon="13.77542851179786"><ele>15.0</ele><time>2026-04-12T09:26:35.909Z</time></trkpt><trkpt lat="44.96728418776988" lon="13.775284304808944"><ele>15.0</ele><time>2026-04-12T09:26:36.909Z</time></trkpt><trkpt lat="44.96739945802405" lon="13.775139054963061"><ele>15.0</ele><time>2026-04-12T09:26:37.909Z</time></trkpt><trkpt lat="44.96751740754644" lon="13.774988390116793"><ele>15.0</ele><time>2026-04-12T09:26:38.909Z</time></trkpt><trkpt lat="44.9676356154672" lon="13.774821602193995"><ele>16.333333333333332</ele><time>2026-04-12T09:26:39.909Z</time></trkpt><trkpt lat="44.96776670613657" lon="13.77466933311613"><ele>17.666666666666664</ele><time>2026-04-12T09:26:40.909Z</time></trkpt><trkpt lat="44.96790144528118" lon="13.774514925928466"><ele>19.0</ele><time>2026-04-12T09:26:41.909Z</time></trkpt><trkpt lat="44.968045164779234" lon="13.774363894842555"><ele>18.0</ele><time>2026-04-12T09:26:42.909Z</time></trkpt><trkpt lat="44.96819265793863" lon="13.774216506119272"><ele>17.0</ele><time>2026-04-12T09:26:43.909Z</time></trkpt><trkpt lat="44.96834963190901" lon="13.774076076460718"><ele>16.0</ele><time>2026-04-12T09:26:44.909Z</time></trkpt><trkpt lat="44.96850576539167" lon="13.773935878363085"><ele>16.0</ele><time>2026-04-12T09:26:45.909Z</time></trkpt><trkpt lat="44.968667993178094" lon="13.773789706625982"><ele>16.0</ele><time>2026-04-12T09:26:46.909Z</time></trkpt><trkpt lat="44.96883004284762" lon="13.773638197195886"><ele>16.0</ele><time>2026-04-12T09:26:47.909Z</time></trkpt><trkpt lat="44.96900279892352" lon="13.773486704820018"><ele>15.666666666666666</ele><time>2026-04-12T09:26:48.909Z</time></trkpt><trkpt lat="44.96918081854641" lon="13.773326930961456"><ele>15.333333333333332</ele><time>2026-04-12T09:26:49.909Z</time></trkpt><trkpt lat="44.969356482897204" lon="13.773171685051288"><ele>15.0</ele><time>2026-04-12T09:26:50.909Z</time></trkpt><trkpt lat="44.969538896109455" lon="13.773009625966443"><ele>15.666666666666668</ele><time>2026-04-12T09:26:51.909Z</time></trkpt><trkpt lat="44.9697252535104" lon="13.772851047119019"><ele>16.333333333333336</ele><time>2026-04-12T09:26:52.909Z</time></trkpt><trkpt lat="44.96991442206998" lon="13.772690503229473"><ele>17.0</ele><time>2026-04-12T09:26:53.909Z</time></trkpt><trkpt lat="44.97009609558002" lon="13.772526809713732"><ele>17.0</ele><time>2026-04-12T09:26:54.909Z</time></trkpt><trkpt lat="44.97027944479452" lon="13.772362032562892"><ele>17.0</ele><time>2026-04-12T09:26:55.909Z</time></trkpt><trkpt lat="44.97046287532419" lon="13.77220296393158"><ele>17.0</ele><time>2026-04-12T09:26:56.909Z</time></trkpt><trkpt lat="44.97064438842367" lon="13.77204523916064"><ele>17.0</ele><time>2026-04-12T09:26:57.909Z</time></trkpt><trkpt lat="44.970829725936596" lon="13.77189341973014"><ele>17.0</ele><time>2026-04-12T09:26:58.909Z</time></trkpt><trkpt lat="44.97101352315615" lon="13.771734258416112"><ele>17.0</ele><time>2026-04-12T09:26:59.909Z</time></trkpt><trkpt lat="44.97119271864797" lon="13.77157130036851"><ele>16.333333333333336</ele><time>2026-04-12T09:27:00.909Z</time></trkpt><trkpt lat="44.97137642126172" lon="13.77141038873999"><ele>15.666666666666668</ele><time>2026-04-12T09:27:01.909Z</time></trkpt><trkpt lat="44.97155108224793" lon="13.771249087216011"><ele>15.0</ele><time>2026-04-12T09:27:02.909Z</time></trkpt><trkpt lat="44.9717293747172" lon="13.771095060651378"><ele>14.0</ele><time>2026-04-12T09:27:03.907Z</time></trkpt><trkpt lat="44.971909419099646" lon="13.770942186326067"><ele>13.0</ele><time>2026-04-12T09:27:04.908Z</time></trkpt><trkpt lat="44.97208565830701" lon="13.770791110366675"><ele>12.0</ele><time>2026-04-12T09:27:05.908Z</time></trkpt><trkpt lat="44.97226638339326" lon="13.770639955578762"><ele>12.0</ele><time>2026-04-12T09:27:06.907Z</time></trkpt><trkpt lat="44.97245122877627" lon="13.770496456595154"><ele>12.0</ele><time>2026-04-12T09:27:07.908Z</time></trkpt><trkpt lat="44.97263805679671" lon="13.770357786165698"><ele>12.0</ele><time>2026-04-12T09:27:08.908Z</time></trkpt><trkpt lat="44.97282735278506" lon="13.770224735365224"><ele>11.666666666666666</ele><time>2026-04-12T09:27:09.908Z</time></trkpt><trkpt lat="44.973011862968235" lon="13.770089840305424"><ele>11.333333333333332</ele><time>2026-04-12T09:27:10.908Z</time></trkpt><trkpt lat="44.97319560619149" lon="13.769956179267306"><ele>11.0</ele><time>2026-04-12T09:27:11.908Z</time></trkpt><trkpt lat="44.973379862122" lon="13.769828805452665"><ele>11.666666666666666</ele><time>2026-04-12T09:27:12.908Z</time></trkpt><trkpt lat="44.973562040392395" lon="13.76970472284774"><ele>12.333333333333332</ele><time>2026-04-12T09:27:13.907Z</time></trkpt><trkpt lat="44.97374460731998" lon="13.769578143697352"><ele>13.0</ele><time>2026-04-12T09:27:14.907Z</time></trkpt><trkpt lat="44.97392314837987" lon="13.769456935824435"><ele>12.666666666666666</ele><time>2026-04-12T09:27:15.908Z</time></trkpt><trkpt lat="44.97410657868392" lon="13.76934647730105"><ele>12.333333333333332</ele><time>2026-04-12T09:27:16.908Z</time></trkpt><trkpt lat="44.974288123954906" lon="13.76922138044937"><ele>12.0</ele><time>2026-04-12T09:27:17.908Z</time></trkpt><trkpt lat="44.97446653171989" lon="13.769102288452174"><ele>12.0</ele><time>2026-04-12T09:27:18.908Z</time></trkpt><trkpt lat="44.97464313359586" lon="13.768983938146297"><ele>12.0</ele><time>2026-04-12T09:27:19.908Z</time></trkpt><trkpt lat="44.974816516662415" lon="13.768868421842035"><ele>12.0</ele><time>2026-04-12T09:27:20.908Z</time></trkpt><trkpt lat="44.97499309963979" lon="13.768766921721014"><ele>12.666666666666668</ele><time>2026-04-12T09:27:21.908Z</time></trkpt><trkpt lat="44.97516354585521" lon="13.768672908847693"><ele>13.333333333333334</ele><time>2026-04-12T09:27:22.908Z</time></trkpt><trkpt lat="44.9753338319243" lon="13.76859487587821"><ele>14.0</ele><time>2026-04-12T09:27:23.908Z</time></trkpt><trkpt lat="44.9755044899509" lon="13.768527921407852"><ele>12.666666666666668</ele><time>2026-04-12T09:27:24.908Z</time></trkpt><trkpt lat="44.975675305532704" lon="13.76847662990869"><ele>11.333333333333334</ele><time>2026-04-12T09:27:25.908Z</time></trkpt><trkpt lat="44.97584295410671" lon="13.76844128757708"><ele>10.0</ele><time>2026-04-12T09:27:26.908Z</time></trkpt><trkpt lat="44.97600741357906" lon="13.768415372337326"><ele>10.0</ele><time>2026-04-12T09:27:27.908Z</time></trkpt><trkpt lat="44.9761609652493" lon="13.768407252673486"><ele>10.0</ele><time>2026-04-12T09:27:28.908Z</time></trkpt><trkpt lat="44.9762891347006" lon="13.768405030120462"><ele>10.0</ele><time>2026-04-12T09:27:29.908Z</time></trkpt><trkpt lat="44.976400224480706" lon="13.768404079147368"><ele>10.0</ele><time>2026-04-12T09:27:30.908Z</time></trkpt><trkpt lat="44.97648395373263" lon="13.768406993537758"><ele>10.0</ele><time>2026-04-12T09:27:31.908Z</time></trkpt><trkpt lat="44.976587686711675" lon="13.768438286617078"><ele>10.0</ele><time>2026-04-12T09:27:33.908Z</time></trkpt><trkpt lat="44.976656344416334" lon="13.768321774720722"><ele>10.0</ele><time>2026-04-12T09:27:34.908Z</time></trkpt><trkpt lat="44.97673276765516" lon="13.768269087206797"><ele>10.0</ele><time>2026-04-12T09:27:35.908Z</time></trkpt><trkpt lat="44.97681738118485" lon="13.768235150486788"><ele>10.0</ele><time>2026-04-12T09:27:36.908Z</time></trkpt><trkpt lat="44.97691323734636" lon="13.768185809796012"><ele>10.0</ele><time>2026-04-12T09:27:37.908Z</time></trkpt><trkpt lat="44.977014196235665" lon="13.768128060879938"><ele>10.0</ele><time>2026-04-12T09:27:38.908Z</time></trkpt><trkpt lat="44.97711117407869" lon="13.768047444551621"><ele>10.0</ele><time>2026-04-12T09:27:39.908Z</time></trkpt><trkpt lat="44.97723092690182" lon="13.768001853759918"><ele>10.0</ele><time>2026-04-12T09:27:40.908Z</time></trkpt><trkpt lat="44.97735220708693" lon="13.767928893159684"><ele>10.0</ele><time>2026-04-12T09:27:41.908Z</time></trkpt><trkpt lat="44.97745827525114" lon="13.767861682945982"><ele>10.0</ele><time>2026-04-12T09:27:42.908Z</time></trkpt><trkpt lat="44.977561029492925" lon="13.76779550590549"><ele>10.0</ele><time>2026-04-12T09:27:43.908Z</time></trkpt><trkpt lat="44.9776653196888" lon="13.76773726286758"><ele>10.0</ele><time>2026-04-12T09:27:44.908Z</time></trkpt><trkpt lat="44.9777641617969" lon="13.767672940221386"><ele>9.6</ele><time>2026-04-12T09:27:45.908Z</time></trkpt><trkpt lat="44.97786818773352" lon="13.767605652067829"><ele>9.2</ele><time>2026-04-12T09:27:46.908Z</time></trkpt><trkpt lat="44.977968311788494" lon="13.76754737706122"><ele>8.8</ele><time>2026-04-12T09:27:47.908Z</time></trkpt><trkpt lat="44.97805424239761" lon="13.767497590778763"><ele>8.4</ele><time>2026-04-12T09:27:48.908Z</time></trkpt><trkpt lat="44.97814087707261" lon="13.767452818477375"><ele>8.0</ele><time>2026-04-12T09:27:49.908Z</time></trkpt><trkpt lat="44.97822926396436" lon="13.767412799727314"><ele>7.999999999999999</ele><time>2026-04-12T09:27:50.908Z</time></trkpt><trkpt lat="44.97830569107477" lon="13.767374393319411"><ele>8.0</ele><time>2026-04-12T09:27:51.908Z</time></trkpt><trkpt lat="44.978378262994866" lon="13.76733392470852"><ele>8.0</ele><time>2026-04-12T09:27:52.908Z</time></trkpt><trkpt lat="44.97844545886655" lon="13.76727713720854"><ele>8.0</ele><time>2026-04-12T09:27:53.908Z</time></trkpt><trkpt lat="44.97851939906939" lon="13.767198564210263"><ele>7.999999999999999</ele><time>2026-04-12T09:27:54.908Z</time></trkpt><trkpt lat="44.9785967575516" lon="13.767106554460236"><ele>8.0</ele><time>2026-04-12T09:27:55.908Z</time></trkpt><trkpt lat="44.97868713575196" lon="13.767004209923686"><ele>8.0</ele><time>2026-04-12T09:27:56.908Z</time></trkpt><trkpt lat="44.97876086088561" lon="13.766908775603977"><ele>8.0</ele><time>2026-04-12T09:27:57.908Z</time></trkpt><trkpt lat="44.978838689758355" lon="13.766810639236958"><ele>8.0</ele><time>2026-04-12T09:27:58.908Z</time></trkpt><trkpt lat="44.978922380706415" lon="13.766744953667063"><ele>8.0</ele><time>2026-04-12T09:27:59.908Z</time></trkpt><trkpt lat="44.978989742728466" lon="13.766671669008327"><ele>8.0</ele><time>2026-04-12T09:28:00.908Z</time></trkpt><trkpt lat="44.979050039158615" lon="13.766584406970718"><ele>7.800000000000001</ele><time>2026-04-12T09:28:01.908Z</time></trkpt><trkpt lat="44.9791270466265" lon="13.766534833202297"><ele>7.6000000000000005</ele><time>2026-04-12T09:28:02.908Z</time></trkpt><trkpt lat="44.97921143082877" lon="13.766490807991612"><ele>7.3999999999999995</ele><time>2026-04-12T09:28:03.908Z</time></trkpt><trkpt lat="44.979299390371516" lon="13.766445485691408"><ele>7.199999999999999</ele><time>2026-04-12T09:28:04.908Z</time></trkpt><trkpt lat="44.97939386590023" lon="13.766407976617376"><ele>7.0</ele><time>2026-04-12T09:28:05.908Z</time></trkpt><trkpt lat="44.97948157628432" lon="13.766367882747318"><ele>7.0</ele><time>2026-04-12T09:28:06.908Z</time></trkpt><trkpt lat="44.979580150233645" lon="13.766322437808373"><ele>6.999999999999999</ele><time>2026-04-12T09:28:07.908Z</time></trkpt><trkpt lat="44.979664277309745" lon="13.766266288021004"><ele>6.999999999999999</ele><time>2026-04-12T09:28:08.908Z</time></trkpt><trkpt lat="44.979744358177506" lon="13.766224348690228"><ele>7.0</ele><time>2026-04-12T09:28:09.908Z</time></trkpt><trkpt lat="44.97982763702886" lon="13.76618180219942"><ele>7.0</ele><time>2026-04-12T09:28:10.908Z</time></trkpt><trkpt lat="44.979920364281035" lon="13.766135980836772"><ele>7.199999999999999</ele><time>2026-04-12T09:28:11.908Z</time></trkpt><trkpt lat="44.98001709741721" lon="13.766094674114"><ele>7.3999999999999995</ele><time>2026-04-12T09:28:12.908Z</time></trkpt><trkpt lat="44.980121142351955" lon="13.766064521120631"><ele>7.6000000000000005</ele><time>2026-04-12T09:28:13.908Z</time></trkpt><trkpt lat="44.98023247918566" lon="13.766039577004483"><ele>7.800000000000001</ele><time>2026-04-12T09:28:14.908Z</time></trkpt><trkpt lat="44.980341782759034" lon="13.76602158311835"><ele>8.0</ele><time>2026-04-12T09:28:15.908Z</time></trkpt><trkpt lat="44.98044948114602" lon="13.765990857807086"><ele>8.0</ele><time>2026-04-12T09:28:16.908Z</time></trkpt><trkpt lat="44.980554409026" lon="13.765968004705122"><ele>8.0</ele><time>2026-04-12T09:28:17.908Z</time></trkpt><trkpt lat="44.98066580109788" lon="13.765940676128146"><ele>8.0</ele><time>2026-04-12T09:28:18.907Z</time></trkpt><trkpt lat="44.98077636958794" lon="13.765894668036795"><ele>8.0</ele><time>2026-04-12T09:28:19.907Z</time></trkpt><trkpt lat="44.98089912899322" lon="13.765846253877362"><ele>8.8</ele><time>2026-04-12T09:28:20.907Z</time></trkpt><trkpt lat="44.98100185829406" lon="13.765794897059827"><ele>9.600000000000001</ele><time>2026-04-12T09:28:21.907Z</time></trkpt><trkpt lat="44.98110603996332" lon="13.765744298446043"><ele>10.399999999999999</ele><time>2026-04-12T09:28:22.907Z</time></trkpt><trkpt lat="44.981205325922616" lon="13.765693511032605"><ele>11.2</ele><time>2026-04-12T09:28:23.907Z</time></trkpt><trkpt lat="44.98131935856938" lon="13.765637154383825"><ele>12.0</ele><time>2026-04-12T09:28:24.907Z</time></trkpt><trkpt lat="44.981430178431516" lon="13.765581021334928"><ele>12.0</ele><time>2026-04-12T09:28:25.907Z</time></trkpt><trkpt lat="44.98154175483381" lon="13.76554830022771"><ele>12.0</ele><time>2026-04-12T09:28:26.907Z</time></trkpt><trkpt lat="44.98164711838208" lon="13.765500570967678"><ele>12.0</ele><time>2026-04-12T09:28:27.907Z</time></trkpt><trkpt lat="44.981748944325815" lon="13.76545460318619"><ele>12.0</ele><time>2026-04-12T09:28:28.907Z</time></trkpt><trkpt lat="44.98184408270853" lon="13.765414327932083"><ele>12.0</ele><time>2026-04-12T09:28:29.907Z</time></trkpt><trkpt lat="44.9819466187818" lon="13.765375065335641"><ele>13.0</ele><time>2026-04-12T09:28:30.907Z</time></trkpt><trkpt lat="44.98205097584017" lon="13.76533188709897"><ele>14.0</ele><time>2026-04-12T09:28:31.907Z</time></trkpt><trkpt lat="44.98216103511303" lon="13.765298033559775"><ele>15.0</ele><time>2026-04-12T09:28:32.907Z</time></trkpt><trkpt lat="44.982281949732716" lon="13.765270323477028"><ele>16.0</ele><time>2026-04-12T09:28:33.907Z</time></trkpt><trkpt lat="44.98238258290861" lon="13.765248643303407"><ele>17.0</ele><time>2026-04-12T09:28:34.907Z</time></trkpt><trkpt lat="44.98247853839242" lon="13.765207712651813"><ele>16.8</ele><time>2026-04-12T09:28:35.907Z</time></trkpt><trkpt lat="44.98258688422225" lon="13.76518845894559"><ele>16.6</ele><time>2026-04-12T09:28:36.907Z</time></trkpt><trkpt lat="44.982700272571215" lon="13.765161380628326"><ele>16.400000000000002</ele><time>2026-04-12T09:28:37.907Z</time></trkpt><trkpt lat="44.98280694961338" lon="13.765115239421446"><ele>16.2</ele><time>2026-04-12T09:28:38.907Z</time></trkpt><trkpt lat="44.98291374360292" lon="13.765065010290872"><ele>16.0</ele><time>2026-04-12T09:28:39.907Z</time></trkpt><trkpt lat="44.98301296534705" lon="13.765001000575111"><ele>16.0</ele><time>2026-04-12T09:28:40.907Z</time></trkpt><trkpt lat="44.983113903967535" lon="13.764946296282114"><ele>16.0</ele><time>2026-04-12T09:28:41.907Z</time></trkpt><trkpt lat="44.98321370395323" lon="13.764893441296703"><ele>16.0</ele><time>2026-04-12T09:28:42.907Z</time></trkpt><trkpt lat="44.98331494639303" lon="13.764832769532923"><ele>16.0</ele><time>2026-04-12T09:28:43.907Z</time></trkpt><trkpt lat="44.983415081905065" lon="13.764798137578369"><ele>16.0</ele><time>2026-04-12T09:28:44.907Z</time></trkpt><trkpt lat="44.983511321639135" lon="13.764754246295112"><ele>16.2</ele><time>2026-04-12T09:28:45.907Z</time></trkpt><trkpt lat="44.98360434033347" lon="13.764727310078891"><ele>16.400000000000002</ele><time>2026-04-12T09:28:46.907Z</time></trkpt><trkpt lat="44.983705050234306" lon="13.764720961670253"><ele>16.6</ele><time>2026-04-12T09:28:47.907Z</time></trkpt><trkpt lat="44.98380424881686" lon="13.764716970089518"><ele>16.8</ele><time>2026-04-12T09:28:48.907Z</time></trkpt><trkpt lat="44.98391234078295" lon="13.764702744520507"><ele>17.0</ele><time>2026-04-12T09:28:49.907Z</time></trkpt><trkpt lat="44.98402586003124" lon="13.764691092586059"><ele>17.0</ele><time>2026-04-12T09:28:50.907Z</time></trkpt><trkpt lat="44.98413774614727" lon="13.764671272821964"><ele>17.0</ele><time>2026-04-12T09:28:51.907Z</time></trkpt><trkpt lat="44.984249076665364" lon="13.76463716052433"><ele>17.0</ele><time>2026-04-12T09:28:52.907Z</time></trkpt><trkpt lat="44.984386736703854" lon="13.76461728456809"><ele>17.0</ele><time>2026-04-12T09:28:53.907Z</time></trkpt><trkpt lat="44.98452923124384" lon="13.764578295347386"><ele>16.25</ele><time>2026-04-12T09:28:54.907Z</time></trkpt><trkpt lat="44.984645267569064" lon="13.764560673405187"><ele>15.5</ele><time>2026-04-12T09:28:55.907Z</time></trkpt><trkpt lat="44.9847658157538" lon="13.764549596298915"><ele>14.75</ele><time>2026-04-12T09:28:56.907Z</time></trkpt><trkpt lat="44.98489966267735" lon="13.764527596030558"><ele>14.0</ele><time>2026-04-12T09:28:57.907Z</time></trkpt><trkpt lat="44.98502679233396" lon="13.764508287506708"><ele>12.75</ele><time>2026-04-12T09:28:58.907Z</time></trkpt><trkpt lat="44.98515562969823" lon="13.7644797941462"><ele>11.5</ele><time>2026-04-12T09:28:59.907Z</time></trkpt><trkpt lat="44.98527062146966" lon="13.764470901031421"><ele>10.25</ele><time>2026-04-12T09:29:00.907Z</time></trkpt><trkpt lat="44.98538175971285" lon="13.764432672345597"><ele>9.0</ele><time>2026-04-12T09:29:01.907Z</time></trkpt><trkpt lat="44.98548804304834" lon="13.764407769361418"><ele>9.0</ele><time>2026-04-12T09:29:02.907Z</time></trkpt><trkpt lat="44.985588462711625" lon="13.764382935477089"><ele>9.0</ele><time>2026-04-12T09:29:03.907Z</time></trkpt><trkpt lat="44.98568083318955" lon="13.764362380276797"><ele>9.0</ele><time>2026-04-12T09:29:04.907Z</time></trkpt><trkpt lat="44.98578534933157" lon="13.764346951215215"><ele>9.0</ele><time>2026-04-12T09:29:05.907Z</time></trkpt><trkpt lat="44.98588734084682" lon="13.76431545015571"><ele>9.0</ele><time>2026-04-12T09:29:06.907Z</time></trkpt><trkpt lat="44.98596968412885" lon="13.764256892951868"><ele>8.333333333333334</ele><time>2026-04-12T09:29:07.907Z</time></trkpt><trkpt lat="44.98605661611817" lon="13.76419192497389"><ele>7.666666666666667</ele><time>2026-04-12T09:29:08.907Z</time></trkpt><trkpt lat="44.98612244720947" lon="13.764100861745757"><ele>7.0</ele><time>2026-04-12T09:29:09.906Z</time></trkpt><trkpt lat="44.98615720115683" lon="13.763986716321234"><ele>6.333333333333334</ele><time>2026-04-12T09:29:10.906Z</time></trkpt><trkpt lat="44.98618057601991" lon="13.763875887474569"><ele>5.666666666666667</ele><time>2026-04-12T09:29:11.906Z</time></trkpt><trkpt lat="44.98619271194998" lon="13.76375732599697"><ele>5.0</ele><time>2026-04-12T09:29:12.906Z</time></trkpt><trkpt lat="44.98621610151889" lon="13.763626304903527"><ele>5.0</ele><time>2026-04-12T09:29:13.906Z</time></trkpt><trkpt lat="44.986219356238415" lon="13.763455789269392"><ele>5.0</ele><time>2026-04-12T09:29:14.906Z</time></trkpt><trkpt lat="44.986200882399736" lon="13.763286080932303"><ele>5.0</ele><time>2026-04-12T09:29:15.906Z</time></trkpt><trkpt lat="44.98619019242618" lon="13.763134545868219"><ele>5.0</ele><time>2026-04-12T09:29:16.906Z</time></trkpt><trkpt lat="44.986166058155106" lon="13.762961764411541"><ele>5.0</ele><time>2026-04-12T09:29:17.906Z</time></trkpt><trkpt lat="44.986156977683464" lon="13.762795551726736"><ele>5.0</ele><time>2026-04-12T09:29:18.906Z</time></trkpt><trkpt lat="44.986158902098566" lon="13.762640495229084"><ele>5.0</ele><time>2026-04-12T09:29:19.906Z</time></trkpt><trkpt lat="44.9861909960742" lon="13.762470061619462"><ele>5.0</ele><time>2026-04-12T09:29:20.906Z</time></trkpt><trkpt lat="44.98619843445736" lon="13.762262833446762"><ele>5.666666666666667</ele><time>2026-04-12T09:29:21.906Z</time></trkpt><trkpt lat="44.986230876891035" lon="13.7620421907819"><ele>6.333333333333334</ele><time>2026-04-12T09:29:22.906Z</time></trkpt><trkpt lat="44.986263617345855" lon="13.761809526949818"><ele>7.0</ele><time>2026-04-12T09:29:23.906Z</time></trkpt><trkpt lat="44.986298216300156" lon="13.761592719908242"><ele>7.0</ele><time>2026-04-12T09:29:24.906Z</time></trkpt><trkpt lat="44.98635640605841" lon="13.76143899057987"><ele>6.999999999999999</ele><time>2026-04-12T09:29:25.906Z</time></trkpt><trkpt lat="44.98638017929804" lon="13.761296502304816"><ele>6.999999999999999</ele><time>2026-04-12T09:29:26.906Z</time></trkpt><trkpt lat="44.986401782223034" lon="13.761168076067406"><ele>7.0</ele><time>2026-04-12T09:29:27.906Z</time></trkpt><trkpt lat="44.98642128466217" lon="13.76106592244426"><ele>7.0</ele><time>2026-04-12T09:29:28.906Z</time></trkpt><trkpt lat="44.98642882421632" lon="13.760971685778335"><ele>6.3999999999999995</ele><time>2026-04-12T09:29:29.906Z</time></trkpt><trkpt lat="44.98648295342901" lon="13.760835856548516"><ele>5.799999999999999</ele><time>2026-04-12T09:29:31.906Z</time></trkpt><trkpt lat="44.98652549040775" lon="13.760700924409099"><ele>5.2</ele><time>2026-04-12T09:29:33.906Z</time></trkpt><trkpt lat="44.986556485586995" lon="13.760574513078483"><ele>4.6</ele><time>2026-04-12T09:29:35.906Z</time></trkpt><trkpt lat="44.98660161243996" lon="13.760438079003743"><ele>4.0</ele><time>2026-04-12T09:29:37.906Z</time></trkpt><trkpt lat="44.98663961794441" lon="13.76029639394571"><ele>4.666666666666666</ele><time>2026-04-12T09:29:39.906Z</time></trkpt><trkpt lat="44.98669436498435" lon="13.760132378253338"><ele>5.333333333333333</ele><time>2026-04-12T09:29:41.906Z</time></trkpt><trkpt lat="44.986719913805885" lon="13.760037870032477"><ele>6.0</ele><time>2026-04-12T09:29:42.906Z</time></trkpt><trkpt lat="44.986750266870054" lon="13.759932322726671"><ele>6.666666666666666</ele><time>2026-04-12T09:29:43.906Z</time></trkpt><trkpt lat="44.9867770570023" lon="13.759835102859078"><ele>7.333333333333333</ele><time>2026-04-12T09:29:44.906Z</time></trkpt><trkpt lat="44.98680146040143" lon="13.75972444866608"><ele>8.0</ele><time>2026-04-12T09:29:45.906Z</time></trkpt><trkpt lat="44.986843657537335" lon="13.759618069377666"><ele>8.0</ele><time>2026-04-12T09:29:46.906Z</time></trkpt><trkpt lat="44.98687863735475" lon="13.759508386610344"><ele>8.0</ele><time>2026-04-12T09:29:47.906Z</time></trkpt><trkpt lat="44.98691640630186" lon="13.759386150700626"><ele>8.0</ele><time>2026-04-12T09:29:48.906Z</time></trkpt><trkpt lat="44.98696043628844" lon="13.759265130230151"><ele>8.0</ele><time>2026-04-12T09:29:49.906Z</time></trkpt><trkpt lat="44.9869903001177" lon="13.759129382503575"><ele>8.0</ele><time>2026-04-12T09:29:50.906Z</time></trkpt><trkpt lat="44.98702212439504" lon="13.759016223568114"><ele>7.666666666666666</ele><time>2026-04-12T09:29:51.906Z</time></trkpt><trkpt lat="44.987058223844" lon="13.758906590713945"><ele>7.333333333333333</ele><time>2026-04-12T09:29:52.906Z</time></trkpt><trkpt lat="44.98709830432552" lon="13.758769059380883"><ele>7.0</ele><time>2026-04-12T09:29:53.906Z</time></trkpt><trkpt lat="44.98712226290443" lon="13.7586503822384"><ele>6.666666666666666</ele><time>2026-04-12T09:29:54.906Z</time></trkpt><trkpt lat="44.98714261035208" lon="13.758558066802985"><ele>6.333333333333333</ele><time>2026-04-12T09:29:55.906Z</time></trkpt><trkpt lat="44.98718250025237" lon="13.758450885501011"><ele>6.0</ele><time>2026-04-12T09:29:56.906Z</time></trkpt><trkpt lat="44.987222690538346" lon="13.758311106153725"><ele>5.833333333333333</ele><time>2026-04-12T09:29:58.906Z</time></trkpt><trkpt lat="44.987243110597966" lon="13.75821993248205"><ele>5.666666666666667</ele><time>2026-04-12T09:30:01.906Z</time></trkpt><trkpt lat="44.987272799823955" lon="13.758133805643315"><ele>5.5</ele><time>2026-04-12T09:30:05.906Z</time></trkpt><trkpt lat="44.987320197230765" lon="13.758208793656078"><ele>5.333333333333334</ele><time>2026-04-12T09:30:09.906Z</time></trkpt><trkpt lat="44.98734618732858" lon="13.75829344407936"><ele>5.166666666666667</ele><time>2026-04-12T09:30:14.906Z</time></trkpt><trkpt lat="44.98740575519033" lon="13.758359944725859"><ele>5.0</ele><time>2026-04-12T09:30:16.906Z</time></trkpt><trkpt lat="44.987500118390194" lon="13.758460264006006"><ele>5.6</ele><time>2026-04-12T09:30:18.906Z</time></trkpt><trkpt lat="44.98758370269604" lon="13.758572965567696"><ele>6.2</ele><time>2026-04-12T09:30:20.906Z</time></trkpt><trkpt lat="44.98764777717205" lon="13.758642144264462"><ele>6.800000000000001</ele><time>2026-04-12T09:30:30.906Z</time></trkpt><trkpt lat="44.98771010435632" lon="13.75873822516053"><ele>7.4</ele><time>2026-04-12T09:30:32.906Z</time></trkpt><trkpt lat="44.987773980552035" lon="13.75882810424973"><ele>8.0</ele><time>2026-04-12T09:30:34.906Z</time></trkpt><trkpt lat="44.987852119322206" lon="13.758935327139083"><ele>8.0</ele><time>2026-04-12T09:30:36.906Z</time></trkpt><trkpt lat="44.987930119441394" lon="13.759014523007824"><ele>8.0</ele><time>2026-04-12T09:30:38.906Z</time></trkpt><trkpt lat="44.98797691047291" lon="13.75910497170394"><ele>8.0</ele><time>2026-04-12T09:30:40.906Z</time></trkpt><trkpt lat="44.98802544214425" lon="13.759229522997686"><ele>8.0</ele><time>2026-04-12T09:30:43.906Z</time></trkpt><trkpt lat="44.988042901714586" lon="13.7593153339662"><ele>8.0</ele><time>2026-04-12T09:30:44.906Z</time></trkpt><trkpt lat="44.98804679317482" lon="13.759486463872653"><ele>8.5</ele><time>2026-04-12T09:30:46.906Z</time></trkpt><trkpt lat="44.98803906269707" lon="13.759586338242247"><ele>9.0</ele><time>2026-04-12T09:30:47.906Z</time></trkpt><trkpt lat="44.98801393726901" lon="13.759684609514135"><ele>9.5</ele><time>2026-04-12T09:30:48.906Z</time></trkpt><trkpt lat="44.987994901130484" lon="13.759777033333288"><ele>10.0</ele><time>2026-04-12T09:30:49.906Z</time></trkpt><trkpt lat="44.98802003512721" lon="13.759928608757718"><ele>10.5</ele><time>2026-04-12T09:30:51.906Z</time></trkpt><trkpt lat="44.98805291995827" lon="13.760052870640083"><ele>11.0</ele><time>2026-04-12T09:30:53.906Z</time></trkpt><trkpt lat="44.988089061151136" lon="13.760148668196775"><ele>11.166666666666666</ele><time>2026-04-12T09:30:55.906Z</time></trkpt><trkpt lat="44.988119210657025" lon="13.760273488810983"><ele>11.333333333333332</ele><time>2026-04-12T09:30:57.906Z</time></trkpt><trkpt lat="44.9881470964829" lon="13.760356757726687"><ele>11.5</ele><time>2026-04-12T09:30:58.906Z</time></trkpt><trkpt lat="44.988168947521665" lon="13.760470147942113"><ele>11.666666666666666</ele><time>2026-04-12T09:31:00.906Z</time></trkpt><trkpt lat="44.98824648617286" lon="13.760570533903218"><ele>11.833333333333334</ele><time>2026-04-12T09:31:02.906Z</time></trkpt><trkpt lat="44.98830008902495" lon="13.760625192787467"><ele>12.0</ele><time>2026-04-12T09:31:03.906Z</time></trkpt><trkpt lat="44.988356898714876" lon="13.760677350850644"><ele>11.999999999999998</ele><time>2026-04-12T09:31:04.906Z</time></trkpt><trkpt lat="44.98841136700815" lon="13.760731415562557"><ele>12.0</ele><time>2026-04-12T09:31:05.906Z</time></trkpt><trkpt lat="44.988461305880655" lon="13.760789238812576"><ele>12.0</ele><time>2026-04-12T09:31:06.906Z</time></trkpt><trkpt lat="44.98850384375082" lon="13.760875551947937"><ele>12.0</ele><time>2026-04-12T09:31:07.906Z</time></trkpt><trkpt lat="44.98855220883678" lon="13.760948363453357"><ele>12.0</ele><time>2026-04-12T09:31:08.906Z</time></trkpt><trkpt lat="44.988602155652195" lon="13.761007136551157"><ele>11.999999999999998</ele><time>2026-04-12T09:31:09.906Z</time></trkpt><trkpt lat="44.98865497858131" lon="13.761063001023675"><ele>12.0</ele><time>2026-04-12T09:31:10.906Z</time></trkpt><trkpt lat="44.9887532755826" lon="13.761147212202264"><ele>12.166666666666666</ele><time>2026-04-12T09:31:12.906Z</time></trkpt><trkpt lat="44.98885320750753" lon="13.761242616003322"><ele>12.333333333333332</ele><time>2026-04-12T09:31:14.906Z</time></trkpt><trkpt lat="44.98889800235023" lon="13.761321572500734"><ele>12.5</ele><time>2026-04-12T09:31:15.904Z</time></trkpt><trkpt lat="44.988936939920826" lon="13.761412198958036"><ele>12.666666666666666</ele><time>2026-04-12T09:31:16.904Z</time></trkpt><trkpt lat="44.98898014182709" lon="13.761506632815548"><ele>12.833333333333332</ele><time>2026-04-12T09:31:17.904Z</time></trkpt><trkpt lat="44.989012901182015" lon="13.761586209799884"><ele>13.0</ele><time>2026-04-12T09:31:18.904Z</time></trkpt><trkpt lat="44.98904763181965" lon="13.76166156566433"><ele>13.0</ele><time>2026-04-12T09:31:19.904Z</time></trkpt><trkpt lat="44.98908743500926" lon="13.76175779040212"><ele>13.0</ele><time>2026-04-12T09:31:20.904Z</time></trkpt><trkpt lat="44.98911736778923" lon="13.761854464910039"><ele>13.0</ele><time>2026-04-12T09:31:21.905Z</time></trkpt><trkpt lat="44.98914343080303" lon="13.761937330547592"><ele>13.0</ele><time>2026-04-12T09:31:22.904Z</time></trkpt><trkpt lat="44.989176035878586" lon="13.762018998410568"><ele>13.0</ele><time>2026-04-12T09:31:23.904Z</time></trkpt><trkpt lat="44.989215578533916" lon="13.762117363136783"><ele>13.0</ele><time>2026-04-12T09:31:24.904Z</time></trkpt><trkpt lat="44.98925841736489" lon="13.762206016497698"><ele>13.0</ele><time>2026-04-12T09:31:25.904Z</time></trkpt><trkpt lat="44.989297005221445" lon="13.762299127758821"><ele>13.857142857142858</ele><time>2026-04-12T09:31:26.904Z</time></trkpt><trkpt lat="44.98932820591161" lon="13.762377495840045"><ele>14.714285714285715</ele><time>2026-04-12T09:31:27.904Z</time></trkpt><trkpt lat="44.98935613321211" lon="13.7624588856669"><ele>15.571428571428571</ele><time>2026-04-12T09:31:28.904Z</time></trkpt><trkpt lat="44.98940403835013" lon="13.762539041585029"><ele>16.42857142857143</ele><time>2026-04-12T09:31:30.904Z</time></trkpt><trkpt lat="44.98945352015302" lon="13.762601799502752"><ele>17.28571428571429</ele><time>2026-04-12T09:34:11.924Z</time></trkpt><trkpt lat="44.98947436472778" lon="13.762697458494438"><ele>18.142857142857142</ele><time>2026-04-12T09:34:14.924Z</time></trkpt><trkpt lat="44.98951014393619" lon="13.762785210850886"><ele>19.0</ele><time>2026-04-12T09:34:17.924Z</time></trkpt><trkpt lat="44.98957677241674" lon="13.762882357616474"><ele>19.0</ele><time>2026-04-12T09:34:19.924Z</time></trkpt><trkpt lat="44.98960967761685" lon="13.76296708089429"><ele>19.0</ele><time>2026-04-12T09:37:10.924Z</time></trkpt><trkpt lat="44.989667726169934" lon="13.763083581435104"><ele>19.0</ele><time>2026-04-12T09:37:13.924Z</time></trkpt><trkpt lat="44.98971794505116" lon="13.763154952759393"><ele>19.0</ele><time>2026-04-12T09:37:15.924Z</time></trkpt><trkpt lat="44.98975590610463" lon="13.763265248234442"><ele>19.0</ele><time>2026-04-12T09:37:18.924Z</time></trkpt><trkpt lat="44.989786406541384" lon="13.76334579566141"><ele>19.0</ele><time>2026-04-12T09:37:21.924Z</time></trkpt><trkpt lat="44.98983786006846" lon="13.763449945237081"><ele>18.833333333333332</ele><time>2026-04-12T09:37:25.924Z</time></trkpt><trkpt lat="44.989887937627714" lon="13.763565729758923"><ele>18.666666666666664</ele><time>2026-04-12T09:37:28.924Z</time></trkpt><trkpt lat="44.98993294732316" lon="13.763656485056565"><ele>18.5</ele><time>2026-04-12T09:38:51.923Z</time></trkpt><trkpt lat="44.98996389676975" lon="13.76374641501628"><ele>18.333333333333332</ele><time>2026-04-12T09:38:59.923Z</time></trkpt><trkpt lat="44.990002828648066" lon="13.76382771366633"><ele>18.166666666666668</ele><time>2026-04-12T09:39:02.923Z</time></trkpt><trkpt lat="44.990029200431714" lon="13.763921748607814"><ele>18.0</ele><time>2026-04-12T09:39:05.923Z</time></trkpt><trkpt lat="44.99011205544425" lon="13.763981082897601"><ele>18.333333333333332</ele><time>2026-04-12T09:39:08.923Z</time></trkpt><trkpt lat="44.990189662268875" lon="13.764036691355864"><ele>18.666666666666668</ele><time>2026-04-12T09:39:10.923Z</time></trkpt><trkpt lat="44.99025502922122" lon="13.764096402824016"><ele>19.0</ele><time>2026-04-12T09:39:13.923Z</time></trkpt><trkpt lat="44.990299522909424" lon="13.764194156358137"><ele>19.333333333333336</ele><time>2026-04-12T09:39:16.923Z</time></trkpt><trkpt lat="44.99036488060032" lon="13.764340940695856"><ele>19.666666666666668</ele><time>2026-04-12T09:39:18.923Z</time></trkpt><trkpt lat="44.99039529736752" lon="13.76443513453193"><ele>20.0</ele><time>2026-04-12T09:39:19.923Z</time></trkpt><trkpt lat="44.990425102706794" lon="13.764522938074117"><ele>20.0</ele><time>2026-04-12T09:39:20.923Z</time></trkpt><trkpt lat="44.99045980533128" lon="13.764607611584951"><ele>20.0</ele><time>2026-04-12T09:39:21.923Z</time></trkpt><trkpt lat="44.99049341747052" lon="13.76469714162432"><ele>20.0</ele><time>2026-04-12T09:39:22.923Z</time></trkpt><trkpt lat="44.99055609818689" lon="13.764937474548528"><ele>20.0</ele><time>2026-04-12T09:39:24.923Z</time></trkpt><trkpt lat="44.9905925416669" lon="13.765090353806237"><ele>20.0</ele><time>2026-04-12T09:39:25.923Z</time></trkpt><trkpt lat="44.99062975555457" lon="13.765248183838876"><ele>20.0</ele><time>2026-04-12T09:39:26.923Z</time></trkpt><trkpt lat="44.99066353540073" lon="13.765383933975272"><ele>20.0</ele><time>2026-04-12T09:39:27.923Z</time></trkpt><trkpt lat="44.99068966194958" lon="13.76551544207727"><ele>20.0</ele><time>2026-04-12T09:39:28.923Z</time></trkpt><trkpt lat="44.99071400893144" lon="13.765652569423272"><ele>20.0</ele><time>2026-04-12T09:39:29.923Z</time></trkpt><trkpt lat="44.99074631921838" lon="13.76579785131811"><ele>20.0</ele><time>2026-04-12T09:39:30.923Z</time></trkpt><trkpt lat="44.99077009989829" lon="13.765944053386649"><ele>19.8</ele><time>2026-04-12T09:39:31.923Z</time></trkpt><trkpt lat="44.99078934728652" lon="13.766090078621994"><ele>19.6</ele><time>2026-04-12T09:39:32.923Z</time></trkpt><trkpt lat="44.990806651696666" lon="13.766233571459377"><ele>19.4</ele><time>2026-04-12T09:39:33.923Z</time></trkpt><trkpt lat="44.990821471653895" lon="13.766374806323332"><ele>19.2</ele><time>2026-04-12T09:39:34.923Z</time></trkpt><trkpt lat="44.99083131434707" lon="13.766516585028796"><ele>19.0</ele><time>2026-04-12T09:39:35.923Z</time></trkpt><trkpt lat="44.99083907757752" lon="13.766663655350893"><ele>18.666666666666664</ele><time>2026-04-12T09:39:36.923Z</time></trkpt><trkpt lat="44.99084749368376" lon="13.766801987480303"><ele>18.333333333333332</ele><time>2026-04-12T09:39:37.923Z</time></trkpt><trkpt lat="44.99083807979047" lon="13.766939980971548"><ele>18.0</ele><time>2026-04-12T09:39:38.923Z</time></trkpt><trkpt lat="44.9908187670912" lon="13.76706076161413"><ele>17.666666666666668</ele><time>2026-04-12T09:39:39.923Z</time></trkpt><trkpt lat="44.99079517468202" lon="13.767178547100897"><ele>17.333333333333336</ele><time>2026-04-12T09:39:40.923Z</time></trkpt><trkpt lat="44.990753967293045" lon="13.76726663192286"><ele>17.0</ele><time>2026-04-12T09:39:41.923Z</time></trkpt><trkpt lat="44.99087462487662" lon="13.767517248092657"><ele>17.8</ele><time>2026-04-12T09:39:43.923Z</time></trkpt><trkpt lat="44.99093357692397" lon="13.767618872190626"><ele>18.6</ele><time>2026-04-12T09:39:44.923Z</time></trkpt><trkpt lat="44.991002554781176" lon="13.767735701285115"><ele>19.400000000000002</ele><time>2026-04-12T09:39:45.923Z</time></trkpt><trkpt lat="44.9910755755657" lon="13.767873209795649"><ele>20.2</ele><time>2026-04-12T09:39:46.923Z</time></trkpt><trkpt lat="44.991155487758945" lon="13.768012004629348"><ele>21.0</ele><time>2026-04-12T09:39:47.923Z</time></trkpt><trkpt lat="44.991249909453906" lon="13.768172060634699"><ele>21.0</ele><time>2026-04-12T09:39:48.923Z</time></trkpt><trkpt lat="44.99132229811495" lon="13.768363118965366"><ele>21.0</ele><time>2026-04-12T09:39:49.923Z</time></trkpt><trkpt lat="44.991361954007914" lon="13.76857723113944"><ele>21.0</ele><time>2026-04-12T09:39:50.923Z</time></trkpt><trkpt lat="44.991385292745534" lon="13.768765062854927"><ele>21.0</ele><time>2026-04-12T09:39:51.923Z</time></trkpt><trkpt lat="44.991409319140125" lon="13.768944871522503"><ele>20.25</ele><time>2026-04-12T09:39:52.923Z</time></trkpt><trkpt lat="44.99143603726387" lon="13.769108198463014"><ele>19.5</ele><time>2026-04-12T09:39:53.923Z</time></trkpt><trkpt lat="44.99149244212089" lon="13.769266473848596"><ele>18.75</ele><time>2026-04-12T09:39:54.923Z</time></trkpt><trkpt lat="44.99154059650667" lon="13.769422388237901"><ele>18.0</ele><time>2026-04-12T09:39:55.923Z</time></trkpt><trkpt lat="44.99161080521017" lon="13.769579637583359"><ele>19.666666666666668</ele><time>2026-04-12T09:39:56.923Z</time></trkpt><trkpt lat="44.99169341537121" lon="13.769760012614778"><ele>21.333333333333336</ele><time>2026-04-12T09:39:57.923Z</time></trkpt><trkpt lat="44.991786567272044" lon="13.769958726964964"><ele>23.0</ele><time>2026-04-12T09:39:58.923Z</time></trkpt><trkpt lat="44.99189793592722" lon="13.770154863028228"><ele>23.333333333333336</ele><time>2026-04-12T09:39:59.923Z</time></trkpt><trkpt lat="44.99201689684832" lon="13.770366807608752"><ele>23.666666666666668</ele><time>2026-04-12T09:40:00.923Z</time></trkpt><trkpt lat="44.992111734237966" lon="13.770553247100555"><ele>24.0</ele><time>2026-04-12T09:40:01.923Z</time></trkpt><trkpt lat="44.992202501323284" lon="13.77072341307459"><ele>24.0</ele><time>2026-04-12T09:40:02.923Z</time></trkpt><trkpt lat="44.99229035809329" lon="13.770882729347262"><ele>24.0</ele><time>2026-04-12T09:40:03.923Z</time></trkpt><trkpt lat="44.992378369188636" lon="13.77103257326545"><ele>24.0</ele><time>2026-04-12T09:40:04.923Z</time></trkpt><trkpt lat="44.99244026099659" lon="13.771175502088132"><ele>24.0</ele><time>2026-04-12T09:40:05.923Z</time></trkpt><trkpt lat="44.992512880158074" lon="13.771302602033943"><ele>24.75</ele><time>2026-04-12T09:40:06.923Z</time></trkpt><trkpt lat="44.992607635268094" lon="13.771405179976453"><ele>25.5</ele><time>2026-04-12T09:40:07.923Z</time></trkpt><trkpt lat="44.992718775646495" lon="13.771478766020387"><ele>26.25</ele><time>2026-04-12T09:40:08.923Z</time></trkpt><trkpt lat="44.992844305329974" lon="13.771542934635466"><ele>27.0</ele><time>2026-04-12T09:40:09.923Z</time></trkpt><trkpt lat="44.99297199442927" lon="13.771610470363443"><ele>27.0</ele><time>2026-04-12T09:40:10.923Z</time></trkpt><trkpt lat="44.99309480735478" lon="13.771680126920003"><ele>27.0</ele><time>2026-04-12T09:40:11.923Z</time></trkpt><trkpt lat="44.99322019773726" lon="13.771761144475557"><ele>27.0</ele><time>2026-04-12T09:40:12.923Z</time></trkpt><trkpt lat="44.99333836005357" lon="13.771855940978245"><ele>27.0</ele><time>2026-04-12T09:40:13.923Z</time></trkpt><trkpt lat="44.99346001919911" lon="13.771968043646135"><ele>28.0</ele><time>2026-04-12T09:40:14.923Z</time></trkpt><trkpt lat="44.99357952163497" lon="13.772090658022828"><ele>29.0</ele><time>2026-04-12T09:40:15.923Z</time></trkpt><trkpt lat="44.993702110927956" lon="13.772212645659787"><ele>30.0</ele><time>2026-04-12T09:40:16.923Z</time></trkpt><trkpt lat="44.99380708926785" lon="13.772336509609508"><ele>31.0</ele><time>2026-04-12T09:40:17.923Z</time></trkpt><trkpt lat="44.993956751066165" lon="13.772352106458841"><ele>31.0</ele><time>2026-04-12T09:40:18.923Z</time></trkpt><trkpt lat="44.994103139955655" lon="13.772351635755891"><ele>31.0</ele><time>2026-04-12T09:40:19.923Z</time></trkpt><trkpt lat="44.9942603672869" lon="13.772331453311635"><ele>31.0</ele><time>2026-04-12T09:40:20.923Z</time></trkpt><trkpt lat="44.994409694506345" lon="13.772290469731182"><ele>32.0</ele><time>2026-04-12T09:40:21.923Z</time></trkpt><trkpt lat="44.994556825377884" lon="13.772238491596646"><ele>33.0</ele><time>2026-04-12T09:40:22.923Z</time></trkpt><trkpt lat="44.99469723994561" lon="13.77219646157447"><ele>34.0</ele><time>2026-04-12T09:40:23.923Z</time></trkpt><trkpt lat="44.99482666503468" lon="13.772179338968066"><ele>35.0</ele><time>2026-04-12T09:40:24.923Z</time></trkpt><trkpt lat="44.99494678282861" lon="13.772188032593254"><ele>35.4</ele><time>2026-04-12T09:40:25.923Z</time></trkpt><trkpt lat="44.9950680156529" lon="13.772227261391523"><ele>35.8</ele><time>2026-04-12T09:40:26.923Z</time></trkpt><trkpt lat="44.99516055202507" lon="13.772331246139016"><ele>36.2</ele><time>2026-04-12T09:40:27.923Z</time></trkpt><trkpt lat="44.995248268963174" lon="13.772407250566562"><ele>36.6</ele><time>2026-04-12T09:40:28.923Z</time></trkpt><trkpt lat="44.99533305159099" lon="13.77245857543638"><ele>37.0</ele><time>2026-04-12T09:40:29.923Z</time></trkpt><trkpt lat="44.995382512788574" lon="13.772525392496712"><ele>37.0</ele><time>2026-04-12T09:40:30.923Z</time></trkpt><trkpt lat="44.9955126435896" lon="13.772413662925931"><ele>37.0</ele><time>2026-04-12T09:40:34.923Z</time></trkpt><trkpt lat="44.995639889346464" lon="13.772323493272419"><ele>37.0</ele><time>2026-04-12T09:40:36.923Z</time></trkpt><trkpt lat="44.99569563018891" lon="13.772225652963312"><ele>37.0</ele><time>2026-04-12T09:40:37.923Z</time></trkpt><trkpt lat="44.99578067810924" lon="13.772159520030428"><ele>37.6</ele><time>2026-04-12T09:40:38.923Z</time></trkpt><trkpt lat="44.995858740256665" lon="13.77206498557695"><ele>38.2</ele><time>2026-04-12T09:40:39.923Z</time></trkpt><trkpt lat="44.99593732660232" lon="13.77198392851391"><ele>38.8</ele><time>2026-04-12T09:40:40.923Z</time></trkpt><trkpt lat="44.99600801787688" lon="13.771905371995285"><ele>39.4</ele><time>2026-04-12T09:40:41.923Z</time></trkpt><trkpt lat="44.99607016596795" lon="13.771816547772803"><ele>40.0</ele><time>2026-04-12T09:40:42.923Z</time></trkpt><trkpt lat="44.99613239904322" lon="13.771719270216753"><ele>40.0</ele><time>2026-04-12T09:40:43.923Z</time></trkpt><trkpt lat="44.996197238498546" lon="13.771606262116634"><ele>40.0</ele><time>2026-04-12T09:40:44.923Z</time></trkpt><trkpt lat="44.99625257218515" lon="13.771499877498982"><ele>40.0</ele><time>2026-04-12T09:40:45.923Z</time></trkpt><trkpt lat="44.99630038489974" lon="13.771408392600165"><ele>40.0</ele><time>2026-04-12T09:40:46.923Z</time></trkpt><trkpt lat="44.99634268894928" lon="13.771315657182386"><ele>40.0</ele><time>2026-04-12T09:40:47.923Z</time></trkpt><trkpt lat="44.99638356421356" lon="13.771211116556467"><ele>40.0</ele><time>2026-04-12T09:40:48.923Z</time></trkpt><trkpt lat="44.996414251552146" lon="13.771098745079813"><ele>40.25</ele><time>2026-04-12T09:40:49.923Z</time></trkpt><trkpt lat="44.99646309159604" lon="13.770967528785832"><ele>40.5</ele><time>2026-04-12T09:40:50.923Z</time></trkpt><trkpt lat="44.996527443806414" lon="13.770827426785615"><ele>40.75</ele><time>2026-04-12T09:40:51.923Z</time></trkpt><trkpt lat="44.99659261175242" lon="13.770674035496844"><ele>41.0</ele><time>2026-04-12T09:40:52.923Z</time></trkpt><trkpt lat="44.99664610801183" lon="13.770533310911508"><ele>42.0</ele><time>2026-04-12T09:40:53.923Z</time></trkpt><trkpt lat="44.99669946224496" lon="13.770395920884507"><ele>43.0</ele><time>2026-04-12T09:40:54.923Z</time></trkpt><trkpt lat="44.996757236316064" lon="13.770256868507348"><ele>44.0</ele><time>2026-04-12T09:40:55.923Z</time></trkpt><trkpt lat="44.996802839421875" lon="13.770114814557903"><ele>45.0</ele><time>2026-04-12T09:40:56.923Z</time></trkpt><trkpt lat="44.9968536753218" lon="13.769974430098417"><ele>46.0</ele><time>2026-04-12T09:40:57.923Z</time></trkpt><trkpt lat="44.996907422379" lon="13.769820872489317"><ele>46.0</ele><time>2026-04-12T09:40:58.923Z</time></trkpt><trkpt lat="44.996954451746745" lon="13.769678493041662"><ele>46.0</ele><time>2026-04-12T09:40:59.923Z</time></trkpt><trkpt lat="44.99700319728443" lon="13.769538544930414"><ele>46.0</ele><time>2026-04-12T09:41:00.923Z</time></trkpt><trkpt lat="44.997065483720725" lon="13.769383876448359"><ele>46.0</ele><time>2026-04-12T09:41:01.923Z</time></trkpt><trkpt lat="44.99710801478961" lon="13.769237213972273"><ele>45.599999999999994</ele><time>2026-04-12T09:41:02.923Z</time></trkpt><trkpt lat="44.997150228035636" lon="13.769091815904238"><ele>45.2</ele><time>2026-04-12T09:41:03.923Z</time></trkpt><trkpt lat="44.99719301311581" lon="13.768944639784376"><ele>44.8</ele><time>2026-04-12T09:41:04.923Z</time></trkpt><trkpt lat="44.99723720806205" lon="13.76880424717289"><ele>44.400000000000006</ele><time>2026-04-12T09:41:05.923Z</time></trkpt><trkpt lat="44.99728403343684" lon="13.768657781008882"><ele>44.0</ele><time>2026-04-12T09:41:06.923Z</time></trkpt><trkpt lat="44.997333520961675" lon="13.768514915493062"><ele>43.75</ele><time>2026-04-12T09:41:07.923Z</time></trkpt><trkpt lat="44.99737720661915" lon="13.768373243760816"><ele>43.5</ele><time>2026-04-12T09:41:08.923Z</time></trkpt><trkpt lat="44.997428219788084" lon="13.76822366129807"><ele>43.25</ele><time>2026-04-12T09:41:09.923Z</time></trkpt><trkpt lat="44.997480027898256" lon="13.768079112930184"><ele>43.0</ele><time>2026-04-12T09:41:10.923Z</time></trkpt><trkpt lat="44.997534739045435" lon="13.767940832876356"><ele>45.0</ele><time>2026-04-12T09:41:11.923Z</time></trkpt><trkpt lat="44.99758599214584" lon="13.767811572882026"><ele>47.0</ele><time>2026-04-12T09:41:12.923Z</time></trkpt><trkpt lat="44.99763648868077" lon="13.767677564391699"><ele>49.0</ele><time>2026-04-12T09:41:13.923Z</time></trkpt><trkpt lat="44.997689393157124" lon="13.767550160231227"><ele>51.0</ele><time>2026-04-12T09:41:14.923Z</time></trkpt><trkpt lat="44.99775297957567" lon="13.767445144541394"><ele>53.0</ele><time>2026-04-12T09:41:15.923Z</time></trkpt><trkpt lat="44.99780682377727" lon="13.767342651173994"><ele>53.0</ele><time>2026-04-12T09:41:16.923Z</time></trkpt><trkpt lat="44.997867786238444" lon="13.767237022776172"><ele>53.0</ele><time>2026-04-12T09:41:17.923Z</time></trkpt><trkpt lat="44.99793592495857" lon="13.767124282352208"><ele>53.0</ele><time>2026-04-12T09:41:18.923Z</time></trkpt><trkpt lat="44.99800616700501" lon="13.767016637504716"><ele>53.0</ele><time>2026-04-12T09:41:19.923Z</time></trkpt><trkpt lat="44.99807693390105" lon="13.766919535059417"><ele>53.0</ele><time>2026-04-12T09:41:20.923Z</time></trkpt><trkpt lat="44.998155838345944" lon="13.766822821322549"><ele>53.75</ele><time>2026-04-12T09:41:21.923Z</time></trkpt><trkpt lat="44.99823939580468" lon="13.766718904110459"><ele>54.5</ele><time>2026-04-12T09:41:22.923Z</time></trkpt><trkpt lat="44.998316047244316" lon="13.7665926173256"><ele>55.25</ele><time>2026-04-12T09:41:23.923Z</time></trkpt><trkpt lat="44.9984110577557" lon="13.766497712493644"><ele>56.0</ele><time>2026-04-12T09:41:24.923Z</time></trkpt><trkpt lat="44.99848638619704" lon="13.766388199128585"><ele>56.00000000000001</ele><time>2026-04-12T09:41:25.923Z</time></trkpt><trkpt lat="44.99854977920353" lon="13.766304092627179"><ele>56.0</ele><time>2026-04-12T09:41:26.923Z</time></trkpt><trkpt lat="44.998608374057085" lon="13.766229941347069"><ele>56.0</ele><time>2026-04-12T09:41:27.923Z</time></trkpt><trkpt lat="44.99866322319958" lon="13.766160440520299"><ele>56.0</ele><time>2026-04-12T09:41:28.923Z</time></trkpt><trkpt lat="44.99871908546802" lon="13.766088374518676"><ele>56.00000000000001</ele><time>2026-04-12T09:41:29.923Z</time></trkpt><trkpt lat="44.998774501215166" lon="13.765998095400853"><ele>56.0</ele><time>2026-04-12T09:41:30.923Z</time></trkpt><trkpt lat="44.998837086070225" lon="13.765895262996047"><ele>55.599999999999994</ele><time>2026-04-12T09:41:31.923Z</time></trkpt><trkpt lat="44.998901960577044" lon="13.765802142693431"><ele>55.199999999999996</ele><time>2026-04-12T09:41:32.923Z</time></trkpt><trkpt lat="44.99898183165958" lon="13.765711735916673"><ele>54.800000000000004</ele><time>2026-04-12T09:41:33.923Z</time></trkpt><trkpt lat="44.999058987376536" lon="13.765618387626848"><ele>54.400000000000006</ele><time>2026-04-12T09:41:34.923Z</time></trkpt><trkpt lat="44.99912791720817" lon="13.765521861575207"><ele>54.0</ele><time>2026-04-12T09:41:35.923Z</time></trkpt><trkpt lat="44.999195306712245" lon="13.765448096926324"><ele>54.0</ele><time>2026-04-12T09:41:36.923Z</time></trkpt><trkpt lat="44.999267651686914" lon="13.765376911631439"><ele>54.00000000000001</ele><time>2026-04-12T09:41:37.922Z</time></trkpt><trkpt lat="44.99934380568832" lon="13.765301009792765"><ele>54.00000000000001</ele><time>2026-04-12T09:41:38.922Z</time></trkpt><trkpt lat="44.99942957372937" lon="13.765215277925776"><ele>54.0</ele><time>2026-04-12T09:41:39.922Z</time></trkpt><trkpt lat="44.99951812871487" lon="13.765147113359546"><ele>54.0</ele><time>2026-04-12T09:41:40.922Z</time></trkpt><trkpt lat="44.99960032811087" lon="13.765075027711971"><ele>53.800000000000004</ele><time>2026-04-12T09:41:41.922Z</time></trkpt><trkpt lat="44.99968972742936" lon="13.76499048973074"><ele>53.60000000000001</ele><time>2026-04-12T09:41:42.922Z</time></trkpt><trkpt lat="44.99977635897453" lon="13.764895141663736"><ele>53.4</ele><time>2026-04-12T09:41:43.922Z</time></trkpt><trkpt lat="44.999869950174435" lon="13.764810545460454"><ele>53.2</ele><time>2026-04-12T09:41:44.922Z</time></trkpt><trkpt lat="44.999975177049734" lon="13.7647617940006"><ele>53.0</ele><time>2026-04-12T09:41:45.921Z</time></trkpt><trkpt lat="45.00006008960157" lon="13.764688677760882"><ele>53.0</ele><time>2026-04-12T09:41:46.921Z</time></trkpt><trkpt lat="45.00015835761293" lon="13.76460488074217"><ele>53.0</ele><time>2026-04-12T09:41:47.921Z</time></trkpt><trkpt lat="45.00024029797642" lon="13.764534947079968"><ele>53.0</ele><time>2026-04-12T09:41:48.922Z</time></trkpt><trkpt lat="45.000319963392364" lon="13.76446613268723"><ele>53.0</ele><time>2026-04-12T09:41:49.921Z</time></trkpt><trkpt lat="45.000388541206306" lon="13.764381378709565"><ele>53.0</ele><time>2026-04-12T09:41:50.921Z</time></trkpt><trkpt lat="45.0004571009027" lon="13.764315422614956"><ele>52.50000000000001</ele><time>2026-04-12T09:41:51.921Z</time></trkpt><trkpt lat="45.00052991650865" lon="13.76426707974091"><ele>52.0</ele><time>2026-04-12T09:41:52.921Z</time></trkpt><trkpt lat="45.00058921551689" lon="13.764202907914134"><ele>51.5</ele><time>2026-04-12T09:41:53.921Z</time></trkpt><trkpt lat="45.00065068715696" lon="13.764133321867918"><ele>51.0</ele><time>2026-04-12T09:41:54.921Z</time></trkpt><trkpt lat="45.00071871325082" lon="13.764056628595416"><ele>50.50000000000001</ele><time>2026-04-12T09:41:55.921Z</time></trkpt><trkpt lat="45.000791076818956" lon="13.763973714009893"><ele>50.0</ele><time>2026-04-12T09:41:56.921Z</time></trkpt><trkpt lat="45.00086246774298" lon="13.763881649019893"><ele>50.0</ele><time>2026-04-12T09:41:57.921Z</time></trkpt><trkpt lat="45.00092232399311" lon="13.76376528120572"><ele>50.0</ele><time>2026-04-12T09:41:58.922Z</time></trkpt><trkpt lat="45.0009598978575" lon="13.763617882075462"><ele>50.0</ele><time>2026-04-12T09:41:59.922Z</time></trkpt><trkpt lat="45.001032690233714" lon="13.76347905283408"><ele>50.0</ele><time>2026-04-12T09:42:00.922Z</time></trkpt><trkpt lat="45.001103609571246" lon="13.763317398230914"><ele>49.75</ele><time>2026-04-12T09:42:01.922Z</time></trkpt><trkpt lat="45.001172284952375" lon="13.763154447411749"><ele>49.5</ele><time>2026-04-12T09:42:02.922Z</time></trkpt><trkpt lat="45.00122974660537" lon="13.763018656856177"><ele>49.25</ele><time>2026-04-12T09:42:03.922Z</time></trkpt><trkpt lat="45.00128851007858" lon="13.762878220734017"><ele>49.0</ele><time>2026-04-12T09:42:04.922Z</time></trkpt><trkpt lat="45.00134278583228" lon="13.762747949562868"><ele>48.800000000000004</ele><time>2026-04-12T09:42:05.922Z</time></trkpt><trkpt lat="45.00139976516566" lon="13.762616048371541"><ele>48.6</ele><time>2026-04-12T09:42:06.922Z</time></trkpt><trkpt lat="45.001455604889" lon="13.762495980563488"><ele>48.4</ele><time>2026-04-12T09:42:07.922Z</time></trkpt><trkpt lat="45.00151724899316" lon="13.762379133782913"><ele>48.2</ele><time>2026-04-12T09:42:08.922Z</time></trkpt><trkpt lat="45.00158782883931" lon="13.762237184669583"><ele>48.0</ele><time>2026-04-12T09:42:09.922Z</time></trkpt><trkpt lat="45.00167777863617" lon="13.762107573275953"><ele>48.2</ele><time>2026-04-12T09:42:10.922Z</time></trkpt><trkpt lat="45.00177806030638" lon="13.762004837212624"><ele>48.4</ele><time>2026-04-12T09:42:11.922Z</time></trkpt><trkpt lat="45.001858951931716" lon="13.761901070213579"><ele>48.6</ele><time>2026-04-12T09:42:12.922Z</time></trkpt><trkpt lat="45.00194200200314" lon="13.761812783480096"><ele>48.800000000000004</ele><time>2026-04-12T09:42:13.922Z</time></trkpt><trkpt lat="45.002029033627025" lon="13.761718270742481"><ele>49.0</ele><time>2026-04-12T09:42:14.922Z</time></trkpt><trkpt lat="45.00211586849265" lon="13.761626630443946"><ele>49.0</ele><time>2026-04-12T09:42:15.922Z</time></trkpt><trkpt lat="45.002204451949396" lon="13.761537523192485"><ele>49.0</ele><time>2026-04-12T09:42:16.922Z</time></trkpt><trkpt lat="45.00230640777426" lon="13.761448564667234"><ele>49.0</ele><time>2026-04-12T09:42:17.921Z</time></trkpt><trkpt lat="45.002410367896346" lon="13.761366933028494"><ele>49.0</ele><time>2026-04-12T09:42:18.921Z</time></trkpt><trkpt lat="45.00250909322067" lon="13.761297271045075"><ele>48.800000000000004</ele><time>2026-04-12T09:42:19.921Z</time></trkpt><trkpt lat="45.00260568169306" lon="13.761230374126143"><ele>48.6</ele><time>2026-04-12T09:42:20.921Z</time></trkpt><trkpt lat="45.002695789310096" lon="13.761172087033188"><ele>48.4</ele><time>2026-04-12T09:42:21.921Z</time></trkpt><trkpt lat="45.00278603572693" lon="13.761117455512503"><ele>48.2</ele><time>2026-04-12T09:42:22.921Z</time></trkpt><trkpt lat="45.00288488122501" lon="13.761064723487419"><ele>48.0</ele><time>2026-04-12T09:42:23.921Z</time></trkpt><trkpt lat="45.00300458876001" lon="13.76101250141412"><ele>48.0</ele><time>2026-04-12T09:42:24.921Z</time></trkpt><trkpt lat="45.00312948092989" lon="13.760959436011392"><ele>48.0</ele><time>2026-04-12T09:42:25.921Z</time></trkpt><trkpt lat="45.00324988041935" lon="13.760911638694841"><ele>48.0</ele><time>2026-04-12T09:42:26.921Z</time></trkpt><trkpt lat="45.00336252053068" lon="13.760867067909713"><ele>48.0</ele><time>2026-04-12T09:42:27.921Z</time></trkpt><trkpt lat="45.003474445033" lon="13.7608230051009"><ele>47.5</ele><time>2026-04-12T09:42:28.921Z</time></trkpt><trkpt lat="45.003586836196824" lon="13.760779433338318"><ele>47.0</ele><time>2026-04-12T09:42:29.921Z</time></trkpt><trkpt lat="45.00370167559208" lon="13.760735452267552"><ele>46.5</ele><time>2026-04-12T09:42:30.921Z</time></trkpt><trkpt lat="45.00381122482539" lon="13.760668173047979"><ele>46.0</ele><time>2026-04-12T09:42:31.921Z</time></trkpt><trkpt lat="45.003927660510875" lon="13.760620459994104"><ele>46.0</ele><time>2026-04-12T09:42:32.921Z</time></trkpt><trkpt lat="45.00404864145665" lon="13.760577276918834"><ele>46.0</ele><time>2026-04-12T09:42:33.921Z</time></trkpt><trkpt lat="45.00415107295165" lon="13.76050959305802"><ele>46.0</ele><time>2026-04-12T09:42:34.921Z</time></trkpt><trkpt lat="45.00423811522968" lon="13.760406621599147"><ele>46.0</ele><time>2026-04-12T09:42:35.921Z</time></trkpt><trkpt lat="45.00432323417415" lon="13.760301341778307"><ele>46.25</ele><time>2026-04-12T09:42:36.921Z</time></trkpt><trkpt lat="45.00440820468429" lon="13.760156131663356"><ele>46.5</ele><time>2026-04-12T09:42:37.921Z</time></trkpt><trkpt lat="45.00449530005239" lon="13.759993863691522"><ele>46.75</ele><time>2026-04-12T09:42:38.921Z</time></trkpt><trkpt lat="45.004592442971166" lon="13.7598471437717"><ele>47.0</ele><time>2026-04-12T09:42:39.921Z</time></trkpt><trkpt lat="45.004674946807626" lon="13.759695506215643"><ele>47.0</ele><time>2026-04-12T09:42:40.921Z</time></trkpt><trkpt lat="45.004752563202004" lon="13.759555619774767"><ele>47.0</ele><time>2026-04-12T09:42:41.921Z</time></trkpt><trkpt lat="45.00483382560556" lon="13.75940958135876"><ele>47.0</ele><time>2026-04-12T09:42:42.921Z</time></trkpt><trkpt lat="45.00491479605234" lon="13.759264067636753"><ele>47.0</ele><time>2026-04-12T09:42:43.921Z</time></trkpt><trkpt lat="45.004990139540524" lon="13.759128666168541"><ele>47.5</ele><time>2026-04-12T09:42:44.921Z</time></trkpt><trkpt lat="45.00506288419116" lon="13.758997935193742"><ele>48.0</ele><time>2026-04-12T09:42:45.921Z</time></trkpt><trkpt lat="45.0051365348395" lon="13.758863979427655"><ele>48.5</ele><time>2026-04-12T09:42:46.921Z</time></trkpt><trkpt lat="45.005212774594845" lon="13.758722579905678"><ele>49.0</ele><time>2026-04-12T09:42:47.921Z</time></trkpt><trkpt lat="45.00529240719574" lon="13.75857474956225"><ele>49.0</ele><time>2026-04-12T09:42:48.921Z</time></trkpt><trkpt lat="45.00536819783194" lon="13.75844090770949"><ele>49.0</ele><time>2026-04-12T09:42:49.921Z</time></trkpt><trkpt lat="45.00544359825801" lon="13.758316495510138"><ele>49.0</ele><time>2026-04-12T09:42:50.921Z</time></trkpt><trkpt lat="45.00551430177999" lon="13.758213137602192"><ele>49.0</ele><time>2026-04-12T09:42:51.921Z</time></trkpt><trkpt lat="45.005584009602806" lon="13.75812703404435"><ele>49.0</ele><time>2026-04-12T09:42:52.921Z</time></trkpt><trkpt lat="45.00566880766231" lon="13.758045041680225"><ele>49.0</ele><time>2026-04-12T09:42:53.921Z</time></trkpt><trkpt lat="45.00577630921386" lon="13.757954381012558"><ele>49.0</ele><time>2026-04-12T09:42:54.921Z</time></trkpt><trkpt lat="45.00588927542564" lon="13.7578624512107"><ele>49.0</ele><time>2026-04-12T09:42:55.921Z</time></trkpt><trkpt lat="45.00599903927381" lon="13.757777034539822"><ele>49.0</ele><time>2026-04-12T09:42:56.921Z</time></trkpt><trkpt lat="45.006095100569794" lon="13.757703871773701"><ele>49.0</ele><time>2026-04-12T09:42:57.921Z</time></trkpt><trkpt lat="45.00619291845067" lon="13.757627890974472"><ele>49.0</ele><time>2026-04-12T09:42:58.921Z</time></trkpt><trkpt lat="45.006294859153286" lon="13.757543224139832"><ele>49.0</ele><time>2026-04-12T09:42:59.921Z</time></trkpt><trkpt lat="45.006395553258194" lon="13.75745521108118"><ele>49.0</ele><time>2026-04-12T09:43:00.921Z</time></trkpt><trkpt lat="45.00649084474125" lon="13.757387687934079"><ele>49.0</ele><time>2026-04-12T09:43:01.921Z</time></trkpt><trkpt lat="45.006587437492705" lon="13.757312765028153"><ele>49.0</ele><time>2026-04-12T09:43:02.921Z</time></trkpt><trkpt lat="45.00668834393815" lon="13.757233215019903"><ele>49.0</ele><time>2026-04-12T09:43:03.921Z</time></trkpt><trkpt lat="45.006789178089875" lon="13.757160659164132"><ele>49.0</ele><time>2026-04-12T09:43:04.921Z</time></trkpt><trkpt lat="45.006891916285156" lon="13.75707986479551"><ele>48.6</ele><time>2026-04-12T09:43:05.921Z</time></trkpt><trkpt lat="45.00699509717257" lon="13.757001997396323"><ele>48.2</ele><time>2026-04-12T09:43:06.921Z</time></trkpt><trkpt lat="45.007089309233066" lon="13.756927770498795"><ele>47.800000000000004</ele><time>2026-04-12T09:43:07.921Z</time></trkpt><trkpt lat="45.00717584038712" lon="13.756854671461461"><ele>47.400000000000006</ele><time>2026-04-12T09:43:08.921Z</time></trkpt><trkpt lat="45.00725712059838" lon="13.75677543369241"><ele>47.0</ele><time>2026-04-12T09:43:09.921Z</time></trkpt><trkpt lat="45.00733562607044" lon="13.7566933756927"><ele>47.0</ele><time>2026-04-12T09:43:10.921Z</time></trkpt><trkpt lat="45.00740739825875" lon="13.756592934300281"><ele>47.0</ele><time>2026-04-12T09:43:11.921Z</time></trkpt><trkpt lat="45.007469673324785" lon="13.756462908725787"><ele>47.0</ele><time>2026-04-12T09:43:12.921Z</time></trkpt><trkpt lat="45.007519443430844" lon="13.75632070644846"><ele>47.0</ele><time>2026-04-12T09:43:13.921Z</time></trkpt><trkpt lat="45.007553099805165" lon="13.756144406825383"><ele>46.75</ele><time>2026-04-12T09:43:14.921Z</time></trkpt><trkpt lat="45.00756904650868" lon="13.755951483870179"><ele>46.5</ele><time>2026-04-12T09:43:15.921Z</time></trkpt><trkpt lat="45.007593589909106" lon="13.755767100729262"><ele>46.25</ele><time>2026-04-12T09:43:16.921Z</time></trkpt><trkpt lat="45.00763757483597" lon="13.755603682256757"><ele>46.0</ele><time>2026-04-12T09:43:17.921Z</time></trkpt><trkpt lat="45.00766327909481" lon="13.755439294610326"><ele>46.0</ele><time>2026-04-12T09:43:18.921Z</time></trkpt><trkpt lat="45.007691751548684" lon="13.755265267572042"><ele>46.0</ele><time>2026-04-12T09:43:19.921Z</time></trkpt><trkpt lat="45.007719066579114" lon="13.755096819380597"><ele>46.0</ele><time>2026-04-12T09:43:20.921Z</time></trkpt><trkpt lat="45.007749132792085" lon="13.754933031899158"><ele>46.0</ele><time>2026-04-12T09:43:21.921Z</time></trkpt><trkpt lat="45.00777399035306" lon="13.754779844567958"><ele>45.8</ele><time>2026-04-12T09:43:22.921Z</time></trkpt><trkpt lat="45.00779777886991" lon="13.754632624513667"><ele>45.599999999999994</ele><time>2026-04-12T09:43:23.921Z</time></trkpt><trkpt lat="45.00782365499015" lon="13.754485811520626"><ele>45.4</ele><time>2026-04-12T09:43:24.921Z</time></trkpt><trkpt lat="45.007857434897936" lon="13.7543440266524"><ele>45.2</ele><time>2026-04-12T09:43:25.921Z</time></trkpt><trkpt lat="45.00789430042439" lon="13.754194271438823"><ele>45.0</ele><time>2026-04-12T09:43:26.921Z</time></trkpt><trkpt lat="45.007937970969984" lon="13.754027887046073"><ele>44.25</ele><time>2026-04-12T09:43:27.921Z</time></trkpt><trkpt lat="45.00799635548564" lon="13.753864614322275"><ele>43.5</ele><time>2026-04-12T09:43:28.921Z</time></trkpt><trkpt lat="45.00804682702477" lon="13.753715839630098"><ele>42.75</ele><time>2026-04-12T09:43:29.921Z</time></trkpt><trkpt lat="45.008096010153245" lon="13.753567052233148"><ele>42.0</ele><time>2026-04-12T09:43:30.921Z</time></trkpt><trkpt lat="45.008162765787034" lon="13.753438251228955"><ele>42.0</ele><time>2026-04-12T09:43:31.921Z</time></trkpt><trkpt lat="45.0082139922353" lon="13.753311572326687"><ele>42.0</ele><time>2026-04-12T09:43:32.921Z</time></trkpt><trkpt lat="45.00826268089986" lon="13.75318311375685"><ele>42.0</ele><time>2026-04-12T09:43:33.921Z</time></trkpt><trkpt lat="45.008316478693956" lon="13.753040904295775"><ele>42.0</ele><time>2026-04-12T09:43:34.921Z</time></trkpt><trkpt lat="45.00837320178697" lon="13.752907150373373"><ele>42.0</ele><time>2026-04-12T09:43:35.921Z</time></trkpt><trkpt lat="45.0084507363166" lon="13.752698120352244"><ele>42.0</ele><time>2026-04-12T09:43:37.921Z</time></trkpt><trkpt lat="45.00850262496819" lon="13.752556488880268"><ele>42.0</ele><time>2026-04-12T09:43:39.921Z</time></trkpt><trkpt lat="45.008545245487355" lon="13.752435958577243"><ele>42.0</ele><time>2026-04-12T09:43:41.921Z</time></trkpt><trkpt lat="45.00858516794869" lon="13.752286312312732"><ele>42.0</ele><time>2026-04-12T09:43:43.921Z</time></trkpt><trkpt lat="45.00860978499265" lon="13.752174697605287"><ele>42.0</ele><time>2026-04-12T09:43:44.921Z</time></trkpt><trkpt lat="45.008632400337234" lon="13.752065782177322"><ele>42.0</ele><time>2026-04-12T09:43:45.921Z</time></trkpt><trkpt lat="45.008648425550454" lon="13.751977654034494"><ele>42.0</ele><time>2026-04-12T09:43:46.921Z</time></trkpt><trkpt lat="45.00867915972351" lon="13.751892271902369"><ele>42.0</ele><time>2026-04-12T09:43:47.921Z</time></trkpt><trkpt lat="45.0087132630506" lon="13.751797420235613"><ele>42.0</ele><time>2026-04-12T09:43:48.921Z</time></trkpt><trkpt lat="45.00874976003017" lon="13.75169836928628"><ele>42.0</ele><time>2026-04-12T09:43:49.921Z</time></trkpt><trkpt lat="45.0087875451057" lon="13.751604232189184"><ele>42.0</ele><time>2026-04-12T09:43:50.921Z</time></trkpt><trkpt lat="45.00882755351417" lon="13.75149981269735"><ele>42.0</ele><time>2026-04-12T09:43:51.92Z</time></trkpt><trkpt lat="45.008871029502814" lon="13.751393418264202"><ele>42.0</ele><time>2026-04-12T09:43:52.921Z</time></trkpt><trkpt lat="45.008917681653806" lon="13.751285888367114"><ele>42.0</ele><time>2026-04-12T09:43:53.921Z</time></trkpt><trkpt lat="45.008955515000835" lon="13.751205668893142"><ele>42.0</ele><time>2026-04-12T09:43:54.92Z</time></trkpt><trkpt lat="45.00899080667687" lon="13.751118231667148"><ele>42.0</ele><time>2026-04-12T09:43:55.92Z</time></trkpt><trkpt lat="45.00903429915226" lon="13.751039555592698"><ele>42.0</ele><time>2026-04-12T09:43:56.92Z</time></trkpt><trkpt lat="45.0090830830569" lon="13.75095191299077"><ele>42.0</ele><time>2026-04-12T09:43:57.921Z</time></trkpt><trkpt lat="45.00913218593064" lon="13.75086640638053"><ele>42.714285714285715</ele><time>2026-04-12T09:43:58.92Z</time></trkpt><trkpt lat="45.00917247464279" lon="13.750789461226251"><ele>43.42857142857143</ele><time>2026-04-12T09:43:59.92Z</time></trkpt><trkpt lat="45.00921373301927" lon="13.75071715490319"><ele>44.14285714285714</ele><time>2026-04-12T09:44:00.921Z</time></trkpt><trkpt lat="45.00925793167781" lon="13.750651425542095"><ele>44.85714285714286</ele><time>2026-04-12T09:44:01.921Z</time></trkpt><trkpt lat="45.009305890701185" lon="13.750582857249562"><ele>45.57142857142857</ele><time>2026-04-12T09:44:02.921Z</time></trkpt><trkpt lat="45.009354060561" lon="13.750511713502558"><ele>46.285714285714285</ele><time>2026-04-12T09:44:03.92Z</time></trkpt><trkpt lat="45.0093990610511" lon="13.750444258255618"><ele>47.0</ele><time>2026-04-12T09:44:04.92Z</time></trkpt><trkpt lat="45.00943643964258" lon="13.750372275703016"><ele>47.0</ele><time>2026-04-12T09:44:05.92Z</time></trkpt><trkpt lat="45.00947333831238" lon="13.750299516168376"><ele>47.0</ele><time>2026-04-12T09:44:06.92Z</time></trkpt><trkpt lat="45.00955189864848" lon="13.750165031060517"><ele>47.0</ele><time>2026-04-12T09:44:08.92Z</time></trkpt><trkpt lat="45.009633991487874" lon="13.750019854906727"><ele>47.0</ele><time>2026-04-12T09:44:10.92Z</time></trkpt><trkpt lat="45.00967591244999" lon="13.749936525444081"><ele>47.0</ele><time>2026-04-12T09:44:11.92Z</time></trkpt><trkpt lat="45.009716928415706" lon="13.749866953888876"><ele>46.83333333333333</ele><time>2026-04-12T09:44:12.92Z</time></trkpt><trkpt lat="45.00979061216359" lon="13.749729896044148"><ele>46.666666666666664</ele><time>2026-04-12T09:44:14.92Z</time></trkpt><trkpt lat="45.00982040648476" lon="13.749649550893157"><ele>46.5</ele><time>2026-04-12T09:44:15.92Z</time></trkpt><trkpt lat="45.009851720481834" lon="13.749567817941047"><ele>46.333333333333336</ele><time>2026-04-12T09:44:16.92Z</time></trkpt><trkpt lat="45.00988393172138" lon="13.749481873709463"><ele>46.16666666666667</ele><time>2026-04-12T09:44:17.92Z</time></trkpt><trkpt lat="45.00990832306708" lon="13.749394992274233"><ele>46.0</ele><time>2026-04-12T09:44:18.92Z</time></trkpt><trkpt lat="45.009929651460794" lon="13.749310830504292"><ele>45.8</ele><time>2026-04-12T09:44:19.92Z</time></trkpt><trkpt lat="45.00996684270954" lon="13.749180888766205"><ele>45.599999999999994</ele><time>2026-04-12T09:44:21.92Z</time></trkpt><trkpt lat="45.01006198531228" lon="13.749166475894317"><ele>45.4</ele><time>2026-04-12T09:44:24.92Z</time></trkpt><trkpt lat="45.01016766200574" lon="13.749221096047043"><ele>45.2</ele><time>2026-04-12T09:44:26.92Z</time></trkpt><trkpt lat="45.010286973761296" lon="13.749279670010706"><ele>45.0</ele><time>2026-04-12T09:44:28.92Z</time></trkpt><trkpt lat="45.010363052379326" lon="13.749357452190154"><ele>45.8</ele><time>2026-04-12T09:44:30.92Z</time></trkpt><trkpt lat="45.01042107486451" lon="13.749509690403732"><ele>46.6</ele><time>2026-04-12T09:44:32.92Z</time></trkpt><trkpt lat="45.01046469158444" lon="13.74961406063648"><ele>47.400000000000006</ele><time>2026-04-12T09:44:33.92Z</time></trkpt><trkpt lat="45.01050745635675" lon="13.749702730834533"><ele>48.2</ele><time>2026-04-12T09:44:34.92Z</time></trkpt><trkpt lat="45.01059186288615" lon="13.74979683766345"><ele>49.0</ele><time>2026-04-12T09:44:36.92Z</time></trkpt><trkpt lat="45.010689495716925" lon="13.749784863007566"><ele>49.0</ele><time>2026-04-12T09:44:38.92Z</time></trkpt><trkpt lat="45.01079145822913" lon="13.749672239795181"><ele>49.0</ele><time>2026-04-12T09:44:40.92Z</time></trkpt><trkpt lat="45.010858960663434" lon="13.749571553647002"><ele>49.0</ele><time>2026-04-12T09:44:41.92Z</time></trkpt><trkpt lat="45.01093682817673" lon="13.749442309707332"><ele>49.0</ele><time>2026-04-12T09:44:42.92Z</time></trkpt><trkpt lat="45.011017014791655" lon="13.74930983786925"><ele>49.25</ele><time>2026-04-12T09:44:43.92Z</time></trkpt><trkpt lat="45.0111069474183" lon="13.749181002785374"><ele>49.5</ele><time>2026-04-12T09:44:44.92Z</time></trkpt><trkpt lat="45.01120043752493" lon="13.749055407870717"><ele>49.75</ele><time>2026-04-12T09:44:45.92Z</time></trkpt><trkpt lat="45.011304438746215" lon="13.748912935487859"><ele>50.0</ele><time>2026-04-12T09:44:46.92Z</time></trkpt><trkpt lat="45.01140998644686" lon="13.748781003452773"><ele>50.0</ele><time>2026-04-12T09:44:47.92Z</time></trkpt><trkpt lat="45.01151612962653" lon="13.748652561567011"><ele>50.0</ele><time>2026-04-12T09:44:48.92Z</time></trkpt><trkpt lat="45.011623543635096" lon="13.748517240997817"><ele>50.0</ele><time>2026-04-12T09:44:49.92Z</time></trkpt><trkpt lat="45.01174522124771" lon="13.748366247868901"><ele>50.0</ele><time>2026-04-12T09:44:50.92Z</time></trkpt><trkpt lat="45.01187213159691" lon="13.748202209023791"><ele>49.0</ele><time>2026-04-12T09:44:51.92Z</time></trkpt><trkpt lat="45.01199265746283" lon="13.748041906795786"><ele>48.0</ele><time>2026-04-12T09:44:52.92Z</time></trkpt><trkpt lat="45.0121372314098" lon="13.747920685001741"><ele>47.0</ele><time>2026-04-12T09:44:53.92Z</time></trkpt><trkpt lat="45.01224632664991" lon="13.74777874229218"><ele>47.0</ele><time>2026-04-12T09:44:54.92Z</time></trkpt><trkpt lat="45.01235661630725" lon="13.74763446532791"><ele>47.0</ele><time>2026-04-12T09:44:55.92Z</time></trkpt><trkpt lat="45.01246254681797" lon="13.74749647268571"><ele>47.0</ele><time>2026-04-12T09:44:56.92Z</time></trkpt><trkpt lat="45.012568424619296" lon="13.74735824169502"><ele>47.0</ele><time>2026-04-12T09:44:57.92Z</time></trkpt><trkpt lat="45.01267064184559" lon="13.747224342275748"><ele>47.0</ele><time>2026-04-12T09:44:58.92Z</time></trkpt><trkpt lat="45.01277314204738" lon="13.74709116015603"><ele>47.0</ele><time>2026-04-12T09:44:59.92Z</time></trkpt><trkpt lat="45.01286544549467" lon="13.74697003938869"><ele>47.0</ele><time>2026-04-12T09:45:00.92Z</time></trkpt><trkpt lat="45.012945768969324" lon="13.746843131332128"><ele>47.0</ele><time>2026-04-12T09:45:01.92Z</time></trkpt><trkpt lat="45.01302928340761" lon="13.746726355723233"><ele>47.5</ele><time>2026-04-12T09:45:02.92Z</time></trkpt><trkpt lat="45.01312371488103" lon="13.74660304960723"><ele>48.0</ele><time>2026-04-12T09:45:03.92Z</time></trkpt><trkpt lat="45.01322019208702" lon="13.746478017948242"><ele>48.5</ele><time>2026-04-12T09:45:04.92Z</time></trkpt><trkpt lat="45.01331893297826" lon="13.746352537803666"><ele>49.0</ele><time>2026-04-12T09:45:05.92Z</time></trkpt><trkpt lat="45.013410813546734" lon="13.746229735174039"><ele>49.0</ele><time>2026-04-12T09:45:06.92Z</time></trkpt><trkpt lat="45.013509158039625" lon="13.746102897823413"><ele>49.0</ele><time>2026-04-12T09:45:07.92Z</time></trkpt><trkpt lat="45.01361410546189" lon="13.745971956393094"><ele>49.0</ele><time>2026-04-12T09:45:08.92Z</time></trkpt><trkpt lat="45.01371533964115" lon="13.745839955030037"><ele>49.0</ele><time>2026-04-12T09:45:09.92Z</time></trkpt><trkpt lat="45.013808085721664" lon="13.745716918171743"><ele>49.5</ele><time>2026-04-12T09:45:10.92Z</time></trkpt><trkpt lat="45.01389774814037" lon="13.745599535720674"><ele>50.0</ele><time>2026-04-12T09:45:11.92Z</time></trkpt><trkpt lat="45.01399262705719" lon="13.745477532865236"><ele>50.5</ele><time>2026-04-12T09:45:12.92Z</time></trkpt><trkpt lat="45.014091910623144" lon="13.745350362163956"><ele>51.0</ele><time>2026-04-12T09:45:13.92Z</time></trkpt><trkpt lat="45.014193474437455" lon="13.745213378722925"><ele>52.0</ele><time>2026-04-12T09:45:14.92Z</time></trkpt><trkpt lat="45.01429587688996" lon="13.745079493497528"><ele>53.0</ele><time>2026-04-12T09:45:15.92Z</time></trkpt><trkpt lat="45.014395381172015" lon="13.744944819326847"><ele>54.0</ele><time>2026-04-12T09:45:16.92Z</time></trkpt><trkpt lat="45.014489993505265" lon="13.744821527242042"><ele>55.0</ele><time>2026-04-12T09:45:17.92Z</time></trkpt><trkpt lat="45.01458526531344" lon="13.744726886734806"><ele>55.0</ele><time>2026-04-12T09:45:18.92Z</time></trkpt><trkpt lat="45.014668724281044" lon="13.744616827814902"><ele>55.0</ele><time>2026-04-12T09:45:19.92Z</time></trkpt><trkpt lat="45.01475116843424" lon="13.744510110665148"><ele>55.0</ele><time>2026-04-12T09:45:20.92Z</time></trkpt><trkpt lat="45.014822891596665" lon="13.744386655116491"><ele>55.0</ele><time>2026-04-12T09:45:21.92Z</time></trkpt><trkpt lat="45.014906247854626" lon="13.74428068564881"><ele>55.0</ele><time>2026-04-12T09:45:22.92Z</time></trkpt><trkpt lat="45.01500024039255" lon="13.744171095211653"><ele>55.0</ele><time>2026-04-12T09:45:23.92Z</time></trkpt><trkpt lat="45.015100597503015" lon="13.744030734449654"><ele>55.0</ele><time>2026-04-12T09:45:24.92Z</time></trkpt><trkpt lat="45.015204985302056" lon="13.74389618263673"><ele>55.0</ele><time>2026-04-12T09:45:25.92Z</time></trkpt><trkpt lat="45.015316025447376" lon="13.743754043278315"><ele>55.0</ele><time>2026-04-12T09:45:26.92Z</time></trkpt><trkpt lat="45.01542669892602" lon="13.743611139441406"><ele>55.0</ele><time>2026-04-12T09:45:27.92Z</time></trkpt><trkpt lat="45.01553364278953" lon="13.743473000965446"><ele>55.0</ele><time>2026-04-12T09:45:28.92Z</time></trkpt><trkpt lat="45.01564208639506" lon="13.743332982375028"><ele>55.0</ele><time>2026-04-12T09:45:29.92Z</time></trkpt><trkpt lat="45.01574947350193" lon="13.743194813507715"><ele>54.75</ele><time>2026-04-12T09:45:30.92Z</time></trkpt><trkpt lat="45.01585314661904" lon="13.743050086375906"><ele>54.5</ele><time>2026-04-12T09:45:31.92Z</time></trkpt><trkpt lat="45.01596954680379" lon="13.742926213408516"><ele>54.25</ele><time>2026-04-12T09:45:32.92Z</time></trkpt><trkpt lat="45.01606019076383" lon="13.742779002011211"><ele>54.0</ele><time>2026-04-12T09:45:33.92Z</time></trkpt><trkpt lat="45.01616386479214" lon="13.742647028814325"><ele>54.75</ele><time>2026-04-12T09:45:34.92Z</time></trkpt><trkpt lat="45.01626016418769" lon="13.742513325808384"><ele>55.5</ele><time>2026-04-12T09:45:35.92Z</time></trkpt><trkpt lat="45.01635595141389" lon="13.74238636565054"><ele>56.25</ele><time>2026-04-12T09:45:36.92Z</time></trkpt><trkpt lat="45.016449749629594" lon="13.742261959244804"><ele>57.0</ele><time>2026-04-12T09:45:37.92Z</time></trkpt><trkpt lat="45.01653418542427" lon="13.742144839221583"><ele>57.0</ele><time>2026-04-12T09:45:38.92Z</time></trkpt><trkpt lat="45.016611492058566" lon="13.742030855349551"><ele>57.0</ele><time>2026-04-12T09:45:39.92Z</time></trkpt><trkpt lat="45.0167032455572" lon="13.741947740818159"><ele>57.0</ele><time>2026-04-12T09:45:40.92Z</time></trkpt><trkpt lat="45.016789410299715" lon="13.741861236995975"><ele>57.0</ele><time>2026-04-12T09:45:41.92Z</time></trkpt><trkpt lat="45.01688015965104" lon="13.74177069224449"><ele>57.0</ele><time>2026-04-12T09:45:42.92Z</time></trkpt><trkpt lat="45.016962435939696" lon="13.741642553211605"><ele>57.0</ele><time>2026-04-12T09:45:43.92Z</time></trkpt><trkpt lat="45.0170651951049" lon="13.741489534401621"><ele>57.0</ele><time>2026-04-12T09:45:44.92Z</time></trkpt><trkpt lat="45.01715663959035" lon="13.741336825119264"><ele>57.0</ele><time>2026-04-12T09:45:45.92Z</time></trkpt><trkpt lat="45.01723603548768" lon="13.741205166057766"><ele>57.0</ele><time>2026-04-12T09:45:46.92Z</time></trkpt><trkpt lat="45.01733175637994" lon="13.7410812286869"><ele>56.75</ele><time>2026-04-12T09:45:47.92Z</time></trkpt><trkpt lat="45.01742939480821" lon="13.740946975577629"><ele>56.5</ele><time>2026-04-12T09:45:48.92Z</time></trkpt><trkpt lat="45.01753497919448" lon="13.74081073132285"><ele>56.25</ele><time>2026-04-12T09:45:49.92Z</time></trkpt><trkpt lat="45.01764074086848" lon="13.740675149393189"><ele>56.0</ele><time>2026-04-12T09:45:50.92Z</time></trkpt><trkpt lat="45.01775760837151" lon="13.740558033709453"><ele>55.5</ele><time>2026-04-12T09:45:51.92Z</time></trkpt><trkpt lat="45.01785507173074" lon="13.740405528796554"><ele>55.0</ele><time>2026-04-12T09:45:52.92Z</time></trkpt><trkpt lat="45.01796694316069" lon="13.740273656225739"><ele>54.5</ele><time>2026-04-12T09:45:53.92Z</time></trkpt><trkpt lat="45.01806506557373" lon="13.740138973908147"><ele>54.0</ele><time>2026-04-12T09:45:54.92Z</time></trkpt><trkpt lat="45.01816456687825" lon="13.740008069269363"><ele>53.75</ele><time>2026-04-12T09:45:55.92Z</time></trkpt><trkpt lat="45.01825820476904" lon="13.739881790634557"><ele>53.5</ele><time>2026-04-12T09:45:56.92Z</time></trkpt><trkpt lat="45.01835716628859" lon="13.739778047068034"><ele>53.25</ele><time>2026-04-12T09:45:57.919Z</time></trkpt><trkpt lat="45.01843446569696" lon="13.739650232258326"><ele>53.0</ele><time>2026-04-12T09:45:58.919Z</time></trkpt><trkpt lat="45.01852597823495" lon="13.739535815412331"><ele>52.75</ele><time>2026-04-12T09:45:59.919Z</time></trkpt><trkpt lat="45.01861665342566" lon="13.739409103261737"><ele>52.5</ele><time>2026-04-12T09:46:00.919Z</time></trkpt><trkpt lat="45.01871953676601" lon="13.739294026303071"><ele>52.25</ele><time>2026-04-12T09:46:01.919Z</time></trkpt><trkpt lat="45.01881786446789" lon="13.739161122416883"><ele>52.0</ele><time>2026-04-12T09:46:02.919Z</time></trkpt><trkpt lat="45.01890105817228" lon="13.739022769173927"><ele>52.0</ele><time>2026-04-12T09:46:03.919Z</time></trkpt><trkpt lat="45.01899222584248" lon="13.738910777892562"><ele>52.0</ele><time>2026-04-12T09:46:04.919Z</time></trkpt><trkpt lat="45.0190742995457" lon="13.738791131731192"><ele>52.0</ele><time>2026-04-12T09:46:05.919Z</time></trkpt><trkpt lat="45.01915215796589" lon="13.738686153268466"><ele>52.0</ele><time>2026-04-12T09:46:06.919Z</time></trkpt><trkpt lat="45.0192274783098" lon="13.738580116940817"><ele>51.166666666666664</ele><time>2026-04-12T09:46:07.919Z</time></trkpt><trkpt lat="45.01929431614956" lon="13.738479857428805"><ele>50.33333333333333</ele><time>2026-04-12T09:46:08.919Z</time></trkpt><trkpt lat="45.01935249498475" lon="13.738395510218474"><ele>49.5</ele><time>2026-04-12T09:46:09.919Z</time></trkpt><trkpt lat="45.01941173044607" lon="13.738334581585795"><ele>48.666666666666664</ele><time>2026-04-12T09:46:10.919Z</time></trkpt><trkpt lat="45.01945613485253" lon="13.738245185284761"><ele>47.83333333333333</ele><time>2026-04-12T09:46:11.919Z</time></trkpt><trkpt lat="45.019511868874616" lon="13.738179599058398"><ele>47.0</ele><time>2026-04-12T09:46:12.919Z</time></trkpt><trkpt lat="45.0195615051686" lon="13.738111926269829"><ele>47.0</ele><time>2026-04-12T09:46:13.919Z</time></trkpt><trkpt lat="45.01961599128795" lon="13.738049089943654"><ele>47.0</ele><time>2026-04-12T09:46:14.919Z</time></trkpt><trkpt lat="45.01968216229818" lon="13.738003771586639"><ele>47.0</ele><time>2026-04-12T09:46:15.919Z</time></trkpt><trkpt lat="45.01973580731532" lon="13.73794397119752"><ele>47.0</ele><time>2026-04-12T09:46:16.919Z</time></trkpt><trkpt lat="45.01981359187155" lon="13.737858478264231"><ele>47.0</ele><time>2026-04-12T09:46:18.919Z</time></trkpt><trkpt lat="45.01983432517229" lon="13.737702307068176"><ele>47.0</ele><time>2026-04-12T09:46:20.919Z</time></trkpt><trkpt lat="45.01986520466949" lon="13.737521105689039"><ele>46.25</ele><time>2026-04-12T09:46:22.919Z</time></trkpt><trkpt lat="45.019871221620996" lon="13.737370673048918"><ele>45.5</ele><time>2026-04-12T09:46:23.919Z</time></trkpt><trkpt lat="45.019871810265734" lon="13.737167988564156"><ele>44.75</ele><time>2026-04-12T09:46:24.919Z</time></trkpt><trkpt lat="45.01987337052562" lon="13.736959372731045"><ele>44.0</ele><time>2026-04-12T09:46:25.919Z</time></trkpt><trkpt lat="45.01988036461543" lon="13.736750073474115"><ele>43.666666666666664</ele><time>2026-04-12T09:46:26.919Z</time></trkpt><trkpt lat="45.01989194512683" lon="13.736514356783854"><ele>43.333333333333336</ele><time>2026-04-12T09:46:27.919Z</time></trkpt><trkpt lat="45.019917893161505" lon="13.736243758002802"><ele>43.0</ele><time>2026-04-12T09:46:28.919Z</time></trkpt><trkpt lat="45.01994999073247" lon="13.7359838467646"><ele>40.66666666666667</ele><time>2026-04-12T09:46:29.919Z</time></trkpt><trkpt lat="45.01998734973043" lon="13.735727819390219"><ele>38.333333333333336</ele><time>2026-04-12T09:46:30.919Z</time></trkpt><trkpt lat="45.02001942284899" lon="13.735472581699725"><ele>36.0</ele><time>2026-04-12T09:46:31.919Z</time></trkpt><trkpt lat="45.02004720084685" lon="13.735226609273123"><ele>35.666666666666664</ele><time>2026-04-12T09:46:32.919Z</time></trkpt><trkpt lat="45.020055037206276" lon="13.7350030624059"><ele>35.33333333333333</ele><time>2026-04-12T09:46:33.919Z</time></trkpt><trkpt lat="45.02006979904173" lon="13.734777318649707"><ele>35.0</ele><time>2026-04-12T09:46:34.919Z</time></trkpt><trkpt lat="45.02008882785766" lon="13.734564067067508"><ele>34.0</ele><time>2026-04-12T09:46:35.919Z</time></trkpt><trkpt lat="45.02010702626914" lon="13.734358864841987"><ele>33.0</ele><time>2026-04-12T09:46:36.919Z</time></trkpt><trkpt lat="45.020127817394396" lon="13.734167790053714"><ele>32.0</ele><time>2026-04-12T09:46:37.919Z</time></trkpt><trkpt lat="45.02014242043586" lon="13.733977208602587"><ele>31.0</ele><time>2026-04-12T09:46:38.919Z</time></trkpt><trkpt lat="45.020147030309055" lon="13.73379468780744"><ele>31.0</ele><time>2026-04-12T09:46:39.919Z</time></trkpt><trkpt lat="45.020139098030825" lon="13.733621986076246"><ele>31.0</ele><time>2026-04-12T09:46:40.919Z</time></trkpt><trkpt lat="45.020125940023604" lon="13.733455911578318"><ele>31.0</ele><time>2026-04-12T09:46:41.919Z</time></trkpt><trkpt lat="45.02011116829076" lon="13.733312371231323"><ele>31.0</ele><time>2026-04-12T09:46:42.919Z</time></trkpt><trkpt lat="45.020091366688916" lon="13.733221175488223"><ele>31.0</ele><time>2026-04-12T09:46:43.919Z</time></trkpt><trkpt lat="45.02007288171561" lon="13.733116572323782"><ele>31.000000000000004</ele><time>2026-04-12T09:46:47.919Z</time></trkpt><trkpt lat="45.02012786321683" lon="13.733066962596086"><ele>31.0</ele><time>2026-04-12T09:46:51.919Z</time></trkpt><trkpt lat="45.02021673959646" lon="13.733055606310183"><ele>31.0</ele><time>2026-04-12T09:46:53.919Z</time></trkpt><trkpt lat="45.02028541535285" lon="13.733077419676253"><ele>31.0</ele><time>2026-04-12T09:46:54.919Z</time></trkpt><trkpt lat="45.02037331122646" lon="13.73309101961926"><ele>31.000000000000004</ele><time>2026-04-12T09:46:55.919Z</time></trkpt><trkpt lat="45.02045410105581" lon="13.73312904884937"><ele>31.0</ele><time>2026-04-12T09:46:56.919Z</time></trkpt><trkpt lat="45.02054756298243" lon="13.733158897017823"><ele>31.0</ele><time>2026-04-12T09:46:57.919Z</time></trkpt><trkpt lat="45.02063901474913" lon="13.733157641655666"><ele>31.0</ele><time>2026-04-12T09:46:58.919Z</time></trkpt><trkpt lat="45.0207354890226" lon="13.733165652808971"><ele>31.0</ele><time>2026-04-12T09:46:59.919Z</time></trkpt><trkpt lat="45.0208373380532" lon="13.733159493253744"><ele>31.0</ele><time>2026-04-12T09:47:00.919Z</time></trkpt><trkpt lat="45.020939510693545" lon="13.733178702497078"><ele>31.0</ele><time>2026-04-12T09:47:01.919Z</time></trkpt><trkpt lat="45.02103965042255" lon="13.73318537519322"><ele>31.8</ele><time>2026-04-12T09:47:02.919Z</time></trkpt><trkpt lat="45.02111972829075" lon="13.733173133890475"><ele>32.6</ele><time>2026-04-12T09:47:03.919Z</time></trkpt><trkpt lat="45.0212014901863" lon="13.73312380270535"><ele>33.4</ele><time>2026-04-12T09:47:04.919Z</time></trkpt><trkpt lat="45.0212998425236" lon="13.733025834212809"><ele>34.2</ele><time>2026-04-12T09:47:05.919Z</time></trkpt><trkpt lat="45.021398073060396" lon="13.732925367326306"><ele>35.0</ele><time>2026-04-12T09:47:06.919Z</time></trkpt><trkpt lat="45.02149822845606" lon="13.732838199952525"><ele>35.0</ele><time>2026-04-12T09:47:07.919Z</time></trkpt><trkpt lat="45.02159015675579" lon="13.732749236658046"><ele>35.0</ele><time>2026-04-12T09:47:08.919Z</time></trkpt><trkpt lat="45.021668294333665" lon="13.73264490138867"><ele>35.0</ele><time>2026-04-12T09:47:09.919Z</time></trkpt><trkpt lat="45.021735812595786" lon="13.732562491112352"><ele>35.0</ele><time>2026-04-12T09:47:10.919Z</time></trkpt><trkpt lat="45.021804561331614" lon="13.732480548938215"><ele>35.0</ele><time>2026-04-12T09:47:11.919Z</time></trkpt><trkpt lat="45.02184977496519" lon="13.732381278607756"><ele>35.0</ele><time>2026-04-12T09:47:12.919Z</time></trkpt><trkpt lat="45.02185639664736" lon="13.732239718361917"><ele>35.0</ele><time>2026-04-12T09:47:13.919Z</time></trkpt><trkpt lat="45.021877871395674" lon="13.732066923291573"><ele>35.0</ele><time>2026-04-12T09:47:14.919Z</time></trkpt><trkpt lat="45.02188682881552" lon="13.731915423348502"><ele>35.0</ele><time>2026-04-12T09:47:15.919Z</time></trkpt><trkpt lat="45.02192011643835" lon="13.731806367928383"><ele>35.0</ele><time>2026-04-12T09:47:16.919Z</time></trkpt><trkpt lat="45.02195832149642" lon="13.731696093109385"><ele>35.4</ele><time>2026-04-12T09:47:17.919Z</time></trkpt><trkpt lat="45.022033018177964" lon="13.73160426422016"><ele>35.8</ele><time>2026-04-12T09:47:18.919Z</time></trkpt><trkpt lat="45.022080293286386" lon="13.731451996066006"><ele>36.2</ele><time>2026-04-12T09:47:19.919Z</time></trkpt><trkpt lat="45.02213376538353" lon="13.731322927811364"><ele>36.6</ele><time>2026-04-12T09:47:20.919Z</time></trkpt><trkpt lat="45.022141799400856" lon="13.731200619568794"><ele>37.0</ele><time>2026-04-12T09:47:21.919Z</time></trkpt><trkpt lat="45.022222411823186" lon="13.731103501993688"><ele>37.0</ele><time>2026-04-12T09:47:23.919Z</time></trkpt><trkpt lat="45.02229597322271" lon="13.731053717894211"><ele>37.0</ele><time>2026-04-12T09:47:24.919Z</time></trkpt><trkpt lat="45.02238712784873" lon="13.731065096891173"><ele>37.0</ele><time>2026-04-12T09:47:25.919Z</time></trkpt><trkpt lat="45.022495982254235" lon="13.731086290816508"><ele>37.0</ele><time>2026-04-12T09:47:26.919Z</time></trkpt><trkpt lat="45.02261045146179" lon="13.73104972657731"><ele>37.0</ele><time>2026-04-12T09:47:27.919Z</time></trkpt><trkpt lat="45.02274288539227" lon="13.730975140205304"><ele>36.75</ele><time>2026-04-12T09:47:28.919Z</time></trkpt><trkpt lat="45.02287373589546" lon="13.730928473259745"><ele>36.5</ele><time>2026-04-12T09:47:29.919Z</time></trkpt><trkpt lat="45.023005003791624" lon="13.730902061760537"><ele>36.25</ele><time>2026-04-12T09:47:30.919Z</time></trkpt><trkpt lat="45.02314888648398" lon="13.730864749918544"><ele>36.0</ele><time>2026-04-12T09:47:31.919Z</time></trkpt><trkpt lat="45.02329078303415" lon="13.73081610178004"><ele>35.4</ele><time>2026-04-12T09:47:32.919Z</time></trkpt><trkpt lat="45.02339760478371" lon="13.7307524903316"><ele>34.8</ele><time>2026-04-12T09:47:33.919Z</time></trkpt><trkpt lat="45.02346737194602" lon="13.730700252407184"><ele>34.199999999999996</ele><time>2026-04-12T09:47:34.919Z</time></trkpt><trkpt lat="45.02353510093859" lon="13.730616345175866"><ele>33.6</ele><time>2026-04-12T09:47:35.919Z</time></trkpt><trkpt lat="45.02360262976147" lon="13.730500155709347"><ele>33.0</ele><time>2026-04-12T09:47:36.919Z</time></trkpt><trkpt lat="45.0236618479656" lon="13.730390355512148"><ele>33.0</ele><time>2026-04-12T09:47:37.919Z</time></trkpt><trkpt lat="45.02374570932428" lon="13.730288637971398"><ele>33.0</ele><time>2026-04-12T09:47:38.919Z</time></trkpt><trkpt lat="45.02385303404195" lon="13.730177971591287"><ele>33.0</ele><time>2026-04-12T09:47:39.919Z</time></trkpt><trkpt lat="45.02394844473892" lon="13.730076010817534"><ele>33.0</ele><time>2026-04-12T09:47:40.919Z</time></trkpt><trkpt lat="45.024022377081494" lon="13.729954581790079"><ele>33.25</ele><time>2026-04-12T09:47:41.919Z</time></trkpt><trkpt lat="45.02408575822494" lon="13.72981280593481"><ele>33.5</ele><time>2026-04-12T09:47:42.919Z</time></trkpt><trkpt lat="45.02414431883024" lon="13.729617714376174"><ele>33.75</ele><time>2026-04-12T09:47:43.919Z</time></trkpt><trkpt lat="45.02419803009032" lon="13.729404689249627"><ele>34.0</ele><time>2026-04-12T09:47:44.919Z</time></trkpt><trkpt lat="45.02424160225118" lon="13.729206551199564"><ele>34.0</ele><time>2026-04-12T09:47:45.919Z</time></trkpt><trkpt lat="45.024268732509356" lon="13.72902519207641"><ele>34.0</ele><time>2026-04-12T09:47:46.919Z</time></trkpt><trkpt lat="45.024285019220066" lon="13.728850790795265"><ele>34.0</ele><time>2026-04-12T09:47:47.919Z</time></trkpt><trkpt lat="45.02429773407343" lon="13.728704920353595"><ele>34.0</ele><time>2026-04-12T09:47:48.919Z</time></trkpt><trkpt lat="45.024348808055855" lon="13.728577289013977"><ele>35.75</ele><time>2026-04-12T09:47:49.919Z</time></trkpt><trkpt lat="45.024397024984246" lon="13.72842368227957"><ele>37.5</ele><time>2026-04-12T09:47:50.919Z</time></trkpt><trkpt lat="45.024427117262704" lon="13.728240518515294"><ele>39.25</ele><time>2026-04-12T09:47:51.919Z</time></trkpt><trkpt lat="45.02445545342378" lon="13.728071958974454"><ele>41.0</ele><time>2026-04-12T09:47:52.919Z</time></trkpt><trkpt lat="45.02450000077678" lon="13.727913224698387"><ele>41.0</ele><time>2026-04-12T09:47:53.919Z</time></trkpt><trkpt lat="45.02454056932335" lon="13.727762276408436"><ele>41.0</ele><time>2026-04-12T09:47:54.919Z</time></trkpt><trkpt lat="45.02459180112746" lon="13.727612817299471"><ele>41.0</ele><time>2026-04-12T09:47:55.919Z</time></trkpt><trkpt lat="45.02462499664544" lon="13.727450522072198"><ele>41.0</ele><time>2026-04-12T09:47:56.919Z</time></trkpt><trkpt lat="45.02462768471602" lon="13.727276246680772"><ele>41.599999999999994</ele><time>2026-04-12T09:47:57.919Z</time></trkpt><trkpt lat="45.02461911568756" lon="13.727117056274292"><ele>42.2</ele><time>2026-04-12T09:47:58.919Z</time></trkpt><trkpt lat="45.024606915095205" lon="13.726968156650347"><ele>42.8</ele><time>2026-04-12T09:47:59.919Z</time></trkpt><trkpt lat="45.024599263263156" lon="13.726832931144855"><ele>43.400000000000006</ele><time>2026-04-12T09:48:00.919Z</time></trkpt><trkpt lat="45.02458895587284" lon="13.726712023962689"><ele>44.0</ele><time>2026-04-12T09:48:01.919Z</time></trkpt><trkpt lat="45.024622073250455" lon="13.726568352630595"><ele>44.0</ele><time>2026-04-12T09:48:02.919Z</time></trkpt><trkpt lat="45.024633551852105" lon="13.726408395117021"><ele>44.0</ele><time>2026-04-12T09:48:03.918Z</time></trkpt><trkpt lat="45.024653550131475" lon="13.726282622383216"><ele>44.0</ele><time>2026-04-12T09:48:04.918Z</time></trkpt><trkpt lat="45.024710751730595" lon="13.726182689791154"><ele>44.0</ele><time>2026-04-12T09:48:05.918Z</time></trkpt><trkpt lat="45.0247590766126" lon="13.726077250018356"><ele>44.0</ele><time>2026-04-12T09:48:06.918Z</time></trkpt><trkpt lat="45.02480602798227" lon="13.725932573331633"><ele>44.5</ele><time>2026-04-12T09:48:07.918Z</time></trkpt><trkpt lat="45.024868762676036" lon="13.725777860538825"><ele>45.0</ele><time>2026-04-12T09:48:08.918Z</time></trkpt><trkpt lat="45.024965048692756" lon="13.725628634634251"><ele>45.5</ele><time>2026-04-12T09:48:09.919Z</time></trkpt><trkpt lat="45.02503913375525" lon="13.72547515814773"><ele>46.0</ele><time>2026-04-12T09:48:10.918Z</time></trkpt><trkpt lat="45.02510563312721" lon="13.72528426399712"><ele>44.0</ele><time>2026-04-12T09:48:11.918Z</time></trkpt><trkpt lat="45.025178411499795" lon="13.725095751497635"><ele>42.0</ele><time>2026-04-12T09:48:12.918Z</time></trkpt><trkpt lat="45.02524664942744" lon="13.724919742547765"><ele>40.0</ele><time>2026-04-12T09:48:13.919Z</time></trkpt><trkpt lat="45.025301456908316" lon="13.72474584314414"><ele>38.0</ele><time>2026-04-12T09:48:14.919Z</time></trkpt><trkpt lat="45.025358052262234" lon="13.724571892248845"><ele>39.25</ele><time>2026-04-12T09:48:15.918Z</time></trkpt><trkpt lat="45.02540350097565" lon="13.724381961226932"><ele>40.5</ele><time>2026-04-12T09:48:16.919Z</time></trkpt><trkpt lat="45.02545493780776" lon="13.724194593499721"><ele>41.75</ele><time>2026-04-12T09:48:17.919Z</time></trkpt><trkpt lat="45.02550711911953" lon="13.724003578102925"><ele>43.0</ele><time>2026-04-12T09:48:18.919Z</time></trkpt><trkpt lat="45.025556602766336" lon="13.723829984044366"><ele>43.0</ele><time>2026-04-12T09:48:19.919Z</time></trkpt><trkpt lat="45.02560194452625" lon="13.723667312776147"><ele>43.0</ele><time>2026-04-12T09:48:20.919Z</time></trkpt><trkpt lat="45.02567149881321" lon="13.723529401569564"><ele>43.0</ele><time>2026-04-12T09:48:21.919Z</time></trkpt><trkpt lat="45.025738243344925" lon="13.723392464888827"><ele>43.0</ele><time>2026-04-12T09:48:22.919Z</time></trkpt><trkpt lat="45.025812195621825" lon="13.723256503548656"><ele>43.2</ele><time>2026-04-12T09:48:23.919Z</time></trkpt><trkpt lat="45.02584857032346" lon="13.723110094174675"><ele>43.4</ele><time>2026-04-12T09:48:24.919Z</time></trkpt><trkpt lat="45.025896668399966" lon="13.723009049058891"><ele>43.6</ele><time>2026-04-12T09:48:25.919Z</time></trkpt><trkpt lat="45.02591062752786" lon="13.722898012022267"><ele>43.800000000000004</ele><time>2026-04-12T09:48:26.919Z</time></trkpt><trkpt lat="45.02592957484065" lon="13.722775729947683"><ele>44.0</ele><time>2026-04-12T09:48:27.919Z</time></trkpt><trkpt lat="45.02599175294718" lon="13.72267340345702"><ele>44.0</ele><time>2026-04-12T09:48:28.919Z</time></trkpt><trkpt lat="45.02604916142887" lon="13.722560394529108"><ele>44.0</ele><time>2026-04-12T09:48:29.919Z</time></trkpt><trkpt lat="45.026129031030564" lon="13.722417201862157"><ele>44.0</ele><time>2026-04-12T09:48:30.919Z</time></trkpt><trkpt lat="45.02621438289202" lon="13.7222754690857"><ele>44.0</ele><time>2026-04-12T09:48:31.919Z</time></trkpt><trkpt lat="45.02630124421868" lon="13.722131229806891"><ele>44.0</ele><time>2026-04-12T09:48:32.919Z</time></trkpt><trkpt lat="45.02638022201716" lon="13.72195924549921"><ele>44.0</ele><time>2026-04-12T09:48:33.919Z</time></trkpt><trkpt lat="45.02646196911703" lon="13.721810961785259"><ele>44.0</ele><time>2026-04-12T09:48:34.919Z</time></trkpt><trkpt lat="45.0265287794251" lon="13.721664266473972"><ele>44.0</ele><time>2026-04-12T09:48:35.919Z</time></trkpt><trkpt lat="45.02658488213572" lon="13.721521427400907"><ele>43.75</ele><time>2026-04-12T09:48:36.919Z</time></trkpt><trkpt lat="45.02663262360211" lon="13.721368059329617"><ele>43.5</ele><time>2026-04-12T09:48:37.92Z</time></trkpt><trkpt lat="45.02667582800314" lon="13.721187301055592"><ele>43.25</ele><time>2026-04-12T09:48:38.92Z</time></trkpt><trkpt lat="45.026709126882935" lon="13.720984356273613"><ele>43.0</ele><time>2026-04-12T09:48:39.921Z</time></trkpt><trkpt lat="45.02672092332888" lon="13.720802433451496"><ele>43.0</ele><time>2026-04-12T09:48:40.922Z</time></trkpt><trkpt lat="45.02673589485979" lon="13.720641533546033"><ele>43.0</ele><time>2026-04-12T09:48:41.922Z</time></trkpt><trkpt lat="45.026744041655455" lon="13.720483264643038"><ele>43.0</ele><time>2026-04-12T09:48:42.923Z</time></trkpt><trkpt lat="45.02675328345191" lon="13.720341955757075"><ele>43.0</ele><time>2026-04-12T09:48:43.923Z</time></trkpt><trkpt lat="45.02676862596389" lon="13.720218721380833"><ele>43.0</ele><time>2026-04-12T09:48:44.924Z</time></trkpt><trkpt lat="45.02683833239664" lon="13.720127883580002"><ele>42.333333333333336</ele><time>2026-04-12T09:48:45.924Z</time></trkpt><trkpt lat="45.02687203078538" lon="13.720026789012358"><ele>41.66666666666667</ele><time>2026-04-12T09:48:46.925Z</time></trkpt><trkpt lat="45.02689972596701" lon="13.719915108033502"><ele>41.0</ele><time>2026-04-12T09:48:47.925Z</time></trkpt><trkpt lat="45.026891836518594" lon="13.719782789642702"><ele>40.333333333333336</ele><time>2026-04-12T09:48:48.926Z</time></trkpt><trkpt lat="45.02686902711242" lon="13.719665257597327"><ele>39.666666666666664</ele><time>2026-04-12T09:48:49.926Z</time></trkpt><trkpt lat="45.02689212740138" lon="13.719564366910847"><ele>39.0</ele><time>2026-04-12T09:48:50.926Z</time></trkpt><trkpt lat="45.02691541157303" lon="13.719466062027866"><ele>38.666666666666664</ele><time>2026-04-12T09:48:51.927Z</time></trkpt><trkpt lat="45.026961044600846" lon="13.719394964388831"><ele>38.333333333333336</ele><time>2026-04-12T09:48:52.927Z</time></trkpt><trkpt lat="45.02699947672536" lon="13.719299961185735"><ele>38.0</ele><time>2026-04-12T09:48:53.927Z</time></trkpt><trkpt lat="45.02706734733251" lon="13.719257474963335"><ele>37.66666666666667</ele><time>2026-04-12T09:48:54.927Z</time></trkpt><trkpt lat="45.027131482119685" lon="13.719212464227994"><ele>37.333333333333336</ele><time>2026-04-12T09:48:55.928Z</time></trkpt><trkpt lat="45.027214861224124" lon="13.719105224067103"><ele>37.0</ele><time>2026-04-12T09:48:56.928Z</time></trkpt><trkpt lat="45.02728478305381" lon="13.718968283877341"><ele>37.0</ele><time>2026-04-12T09:48:57.928Z</time></trkpt><trkpt lat="45.027352448006056" lon="13.718804586287117"><ele>37.0</ele><time>2026-04-12T09:48:58.928Z</time></trkpt><trkpt lat="45.02740782634954" lon="13.7186429188378"><ele>37.0</ele><time>2026-04-12T09:48:59.928Z</time></trkpt><trkpt lat="45.02747671417618" lon="13.718504822985917"><ele>37.0</ele><time>2026-04-12T09:49:00.929Z</time></trkpt><trkpt lat="45.0275563054751" lon="13.71837909589"><ele>36.0</ele><time>2026-04-12T09:49:01.929Z</time></trkpt><trkpt lat="45.02765868961713" lon="13.718241521615296"><ele>35.0</ele><time>2026-04-12T09:49:02.929Z</time></trkpt><trkpt lat="45.02777870319029" lon="13.718090384998009"><ele>34.0</ele><time>2026-04-12T09:49:03.929Z</time></trkpt><trkpt lat="45.027895405893425" lon="13.717940555542173"><ele>34.0</ele><time>2026-04-12T09:49:04.929Z</time></trkpt><trkpt lat="45.02801742248741" lon="13.717807594404292"><ele>34.0</ele><time>2026-04-12T09:49:05.929Z</time></trkpt><trkpt lat="45.02815026422848" lon="13.717703732860159"><ele>34.0</ele><time>2026-04-12T09:49:06.929Z</time></trkpt><trkpt lat="45.02825529945026" lon="13.71758314589533"><ele>34.0</ele><time>2026-04-12T09:49:07.93Z</time></trkpt><trkpt lat="45.02835034250246" lon="13.717476774050255"><ele>34.0</ele><time>2026-04-12T09:49:08.93Z</time></trkpt><trkpt lat="45.028446484379295" lon="13.717371693953467"><ele>34.0</ele><time>2026-04-12T09:49:09.93Z</time></trkpt><trkpt lat="45.02854515910927" lon="13.71728895596563"><ele>34.0</ele><time>2026-04-12T09:49:10.93Z</time></trkpt><trkpt lat="45.02865638142176" lon="13.717225144776158"><ele>34.0</ele><time>2026-04-12T09:49:11.93Z</time></trkpt><trkpt lat="45.028789586090994" lon="13.717160167142357"><ele>34.0</ele><time>2026-04-12T09:49:12.93Z</time></trkpt><trkpt lat="45.0289053561013" lon="13.71709924836879"><ele>34.0</ele><time>2026-04-12T09:49:13.93Z</time></trkpt><trkpt lat="45.02901509875838" lon="13.717013559352676"><ele>34.0</ele><time>2026-04-12T09:49:14.93Z</time></trkpt><trkpt lat="45.02912973759618" lon="13.716949844214597"><ele>34.0</ele><time>2026-04-12T09:49:15.93Z</time></trkpt><trkpt lat="45.02922639869119" lon="13.71689392052416"><ele>33.0</ele><time>2026-04-12T09:49:16.93Z</time></trkpt><trkpt lat="45.0292992571823" lon="13.716835622510601"><ele>32.0</ele><time>2026-04-12T09:49:17.93Z</time></trkpt><trkpt lat="45.02936922450758" lon="13.71675462923988"><ele>31.0</ele><time>2026-04-12T09:49:18.93Z</time></trkpt><trkpt lat="45.029441622565336" lon="13.716624320021921"><ele>30.0</ele><time>2026-04-12T09:49:19.93Z</time></trkpt><trkpt lat="45.029496961258154" lon="13.716451878378912"><ele>29.0</ele><time>2026-04-12T09:49:20.93Z</time></trkpt><trkpt lat="45.029545593113966" lon="13.716267871833159"><ele>28.0</ele><time>2026-04-12T09:49:21.931Z</time></trkpt><trkpt lat="45.02957892936019" lon="13.716064164823264"><ele>27.0</ele><time>2026-04-12T09:49:22.931Z</time></trkpt><trkpt lat="45.029591927084546" lon="13.71586258023417"><ele>26.0</ele><time>2026-04-12T09:49:23.931Z</time></trkpt><trkpt lat="45.02959855366134" lon="13.715676071732291"><ele>25.0</ele><time>2026-04-12T09:49:24.931Z</time></trkpt><trkpt lat="45.02961115890029" lon="13.715531418150283"><ele>25.0</ele><time>2026-04-12T09:49:25.931Z</time></trkpt><trkpt lat="45.0296764619576" lon="13.715402320747605"><ele>25.0</ele><time>2026-04-12T09:49:26.931Z</time></trkpt><trkpt lat="45.02972536225617" lon="13.715241212322246"><ele>25.0</ele><time>2026-04-12T09:49:27.931Z</time></trkpt><trkpt lat="45.029775471948" lon="13.715092108314822"><ele>25.0</ele><time>2026-04-12T09:49:28.931Z</time></trkpt><trkpt lat="45.02982630521241" lon="13.714985878232065"><ele>25.0</ele><time>2026-04-12T09:49:29.931Z</time></trkpt><trkpt lat="45.029893491512205" lon="13.71489830479074"><ele>24.6</ele><time>2026-04-12T09:49:31.931Z</time></trkpt><trkpt lat="45.02997040654977" lon="13.714924374321217"><ele>24.2</ele><time>2026-04-12T09:49:33.931Z</time></trkpt><trkpt lat="45.030084704174925" lon="13.714902761509677"><ele>23.799999999999997</ele><time>2026-04-12T09:49:35.931Z</time></trkpt><trkpt lat="45.03015452060075" lon="13.7148337385635"><ele>23.4</ele><time>2026-04-12T09:49:36.931Z</time></trkpt><trkpt lat="45.030231936268954" lon="13.714728189292318"><ele>23.0</ele><time>2026-04-12T09:49:37.931Z</time></trkpt><trkpt lat="45.030292884842574" lon="13.714589440819939"><ele>23.333333333333336</ele><time>2026-04-12T09:49:38.931Z</time></trkpt><trkpt lat="45.03036100985478" lon="13.71449601272867"><ele>23.666666666666668</ele><time>2026-04-12T09:49:39.931Z</time></trkpt><trkpt lat="45.03040256028529" lon="13.714410931639604"><ele>24.0</ele><time>2026-04-12T09:49:40.931Z</time></trkpt><trkpt lat="45.0304398450962" lon="13.714317179833815"><ele>24.333333333333336</ele><time>2026-04-12T09:49:41.931Z</time></trkpt><trkpt lat="45.030476726159996" lon="13.714224351140771"><ele>24.666666666666668</ele><time>2026-04-12T09:49:42.931Z</time></trkpt><trkpt lat="45.03052059380551" lon="13.714155985327437"><ele>25.0</ele><time>2026-04-12T09:49:43.931Z</time></trkpt><trkpt lat="45.03057596734505" lon="13.714076211588564"><ele>25.000000000000004</ele><time>2026-04-12T09:49:44.931Z</time></trkpt><trkpt lat="45.030620160109315" lon="13.7139926681573"><ele>25.0</ele><time>2026-04-12T09:49:45.931Z</time></trkpt><trkpt lat="45.03066697341221" lon="13.713886801412526"><ele>25.0</ele><time>2026-04-12T09:49:47.931Z</time></trkpt><trkpt lat="45.03076749915373" lon="13.713855595567011"><ele>25.0</ele><time>2026-04-12T09:49:49.931Z</time></trkpt><trkpt lat="45.030865781905575" lon="13.713814836994043"><ele>25.000000000000004</ele><time>2026-04-12T09:49:51.931Z</time></trkpt><trkpt lat="45.03093521797695" lon="13.71377036586635"><ele>25.0</ele><time>2026-04-12T09:49:52.931Z</time></trkpt><trkpt lat="45.03101131941264" lon="13.713744529269894"><ele>25.0</ele><time>2026-04-12T09:49:53.931Z</time></trkpt><trkpt lat="45.03106740522443" lon="13.713703513498427"><ele>25.0</ele><time>2026-04-12T09:49:54.931Z</time></trkpt><trkpt lat="45.031121681948164" lon="13.713552399442502"><ele>25.0</ele><time>2026-04-12T09:49:56.931Z</time></trkpt><trkpt lat="45.03116198613627" lon="13.7133700195496"><ele>25.0</ele><time>2026-04-12T09:49:58.931Z</time></trkpt><trkpt lat="45.03119648111642" lon="13.713237550052737"><ele>25.0</ele><time>2026-04-12T09:49:59.931Z</time></trkpt><trkpt lat="45.03123407352155" lon="13.713125712199698"><ele>25.000000000000004</ele><time>2026-04-12T09:50:00.931Z</time></trkpt><trkpt lat="45.03127455878809" lon="13.713006851424874"><ele>25.0</ele><time>2026-04-12T09:50:01.931Z</time></trkpt><trkpt lat="45.03130537038234" lon="13.712900422616867"><ele>25.0</ele><time>2026-04-12T09:50:02.931Z</time></trkpt><trkpt lat="45.03132746405046" lon="13.712783497020242"><ele>25.0</ele><time>2026-04-12T09:50:03.931Z</time></trkpt><trkpt lat="45.031365903270434" lon="13.712676782155317"><ele>25.000000000000004</ele><time>2026-04-12T09:50:04.931Z</time></trkpt><trkpt lat="45.03140676451856" lon="13.712572938001934"><ele>25.0</ele><time>2026-04-12T09:50:05.931Z</time></trkpt><trkpt lat="45.03145588505647" lon="13.712472870600687"><ele>24.500000000000004</ele><time>2026-04-12T09:50:06.931Z</time></trkpt><trkpt lat="45.031480904271724" lon="13.712373569316439"><ele>24.0</ele><time>2026-04-12T09:50:07.931Z</time></trkpt><trkpt lat="45.031510291824134" lon="13.712248246438103"><ele>23.5</ele><time>2026-04-12T09:50:08.931Z</time></trkpt><trkpt lat="45.031532152318384" lon="13.712141967348572"><ele>23.0</ele><time>2026-04-12T09:50:09.93Z</time></trkpt><trkpt lat="45.03154640165806" lon="13.712034769393684"><ele>22.5</ele><time>2026-04-12T09:50:10.931Z</time></trkpt><trkpt lat="45.031575671520905" lon="13.71193015929641"><ele>22.0</ele><time>2026-04-12T09:50:11.931Z</time></trkpt><trkpt lat="45.031612014770516" lon="13.711816931259033"><ele>22.0</ele><time>2026-04-12T09:50:12.931Z</time></trkpt><trkpt lat="45.03164506643426" lon="13.711715678546957"><ele>22.0</ele><time>2026-04-12T09:50:13.93Z</time></trkpt><trkpt lat="45.031677461607664" lon="13.711605673735685"><ele>22.0</ele><time>2026-04-12T09:50:14.93Z</time></trkpt><trkpt lat="45.03169787813273" lon="13.711500110178772"><ele>22.0</ele><time>2026-04-12T09:50:15.931Z</time></trkpt><trkpt lat="45.03173110963088" lon="13.711415056003675"><ele>22.0</ele><time>2026-04-12T09:50:16.93Z</time></trkpt><trkpt lat="45.03181585143271" lon="13.711347133444702"><ele>22.0</ele><time>2026-04-12T09:50:18.93Z</time></trkpt><trkpt lat="45.03195318117317" lon="13.71143983587921"><ele>22.0</ele><time>2026-04-12T09:50:21.931Z</time></trkpt><trkpt lat="45.03201261097854" lon="13.711498272343917"><ele>22.0</ele><time>2026-04-12T09:50:22.931Z</time></trkpt><trkpt lat="45.03207402216544" lon="13.711564561763174"><ele>22.0</ele><time>2026-04-12T09:50:23.931Z</time></trkpt><trkpt lat="45.03212993384933" lon="13.711627608845"><ele>22.0</ele><time>2026-04-12T09:50:24.931Z</time></trkpt><trkpt lat="45.03217879657059" lon="13.711689921760078"><ele>22.0</ele><time>2026-04-12T09:50:25.931Z</time></trkpt><trkpt lat="45.03224307341833" lon="13.711768040687383"><ele>22.0</ele><time>2026-04-12T09:50:26.931Z</time></trkpt><trkpt lat="45.03230793749351" lon="13.711827791285211"><ele>22.0</ele><time>2026-04-12T09:50:27.931Z</time></trkpt><trkpt lat="45.032372175049915" lon="13.71187221844082"><ele>22.0</ele><time>2026-04-12T09:50:28.931Z</time></trkpt><trkpt lat="45.03242880073016" lon="13.711937992928075"><ele>22.0</ele><time>2026-04-12T09:50:29.931Z</time></trkpt><trkpt lat="45.032476687304914" lon="13.712021722829792"><ele>22.0</ele><time>2026-04-12T09:50:30.931Z</time></trkpt><trkpt lat="45.03251744327476" lon="13.7120956754363"><ele>22.0</ele><time>2026-04-12T09:50:31.931Z</time></trkpt><trkpt lat="45.032554499355385" lon="13.712167755297928"><ele>22.0</ele><time>2026-04-12T09:50:32.931Z</time></trkpt><trkpt lat="45.03259389337404" lon="13.712241854522729"><ele>22.0</ele><time>2026-04-12T09:50:33.931Z</time></trkpt><trkpt lat="45.032624303426175" lon="13.712401292988346"><ele>22.200000000000003</ele><time>2026-04-12T09:50:35.931Z</time></trkpt><trkpt lat="45.03264416873018" lon="13.712485878347383"><ele>22.4</ele><time>2026-04-12T09:50:36.931Z</time></trkpt><trkpt lat="45.03265660009488" lon="13.712581869398228"><ele>22.6</ele><time>2026-04-12T09:50:37.931Z</time></trkpt><trkpt lat="45.03268820542832" lon="13.712760042149531"><ele>22.799999999999997</ele><time>2026-04-12T09:50:39.931Z</time></trkpt><trkpt lat="45.03275103781511" lon="13.712897920026592"><ele>23.0</ele><time>2026-04-12T09:50:41.931Z</time></trkpt><trkpt lat="45.03285914850666" lon="13.712969288878677"><ele>23.0</ele><time>2026-04-12T09:50:43.931Z</time></trkpt><trkpt lat="45.03298476684499" lon="13.71300250866896"><ele>23.0</ele><time>2026-04-12T09:50:45.931Z</time></trkpt><trkpt lat="45.03305182877753" lon="13.712987212212344"><ele>23.0</ele><time>2026-04-12T09:50:46.931Z</time></trkpt><trkpt lat="45.03317028454768" lon="13.71293665277053"><ele>23.0</ele><time>2026-04-12T09:50:48.931Z</time></trkpt><trkpt lat="45.03327591693448" lon="13.71289834414296"><ele>23.0</ele><time>2026-04-12T09:50:50.931Z</time></trkpt><trkpt lat="45.033352825566396" lon="13.712867772252912"><ele>23.4</ele><time>2026-04-12T09:50:51.931Z</time></trkpt><trkpt lat="45.03343560134432" lon="13.71282858344242"><ele>23.799999999999997</ele><time>2026-04-12T09:50:52.931Z</time></trkpt><trkpt lat="45.033524832418" lon="13.71278063351367"><ele>24.2</ele><time>2026-04-12T09:50:53.931Z</time></trkpt><trkpt lat="45.03360919924031" lon="13.712738782047921"><ele>24.6</ele><time>2026-04-12T09:50:54.931Z</time></trkpt><trkpt lat="45.03370438666819" lon="13.712724315125266"><ele>25.0</ele><time>2026-04-12T09:50:55.931Z</time></trkpt><trkpt lat="45.03380139096047" lon="13.712692400707846"><ele>25.2</ele><time>2026-04-12T09:50:56.931Z</time></trkpt><trkpt lat="45.03389791911206" lon="13.712675287206853"><ele>25.4</ele><time>2026-04-12T09:50:57.931Z</time></trkpt><trkpt lat="45.03400093642354" lon="13.71267686197503"><ele>25.6</ele><time>2026-04-12T09:50:58.931Z</time></trkpt><trkpt lat="45.03409455117075" lon="13.712688071144267"><ele>25.8</ele><time>2026-04-12T09:50:59.931Z</time></trkpt><trkpt lat="45.034199859484644" lon="13.712676608713414"><ele>26.0</ele><time>2026-04-12T09:51:00.931Z</time></trkpt><trkpt lat="45.034306084832764" lon="13.712672884199524"><ele>26.6</ele><time>2026-04-12T09:51:01.931Z</time></trkpt><trkpt lat="45.03441571711357" lon="13.71267195454315"><ele>27.200000000000003</ele><time>2026-04-12T09:51:02.931Z</time></trkpt><trkpt lat="45.03453619545898" lon="13.712679749889304"><ele>27.799999999999997</ele><time>2026-04-12T09:51:03.931Z</time></trkpt><trkpt lat="45.03464599890427" lon="13.712674457041967"><ele>28.4</ele><time>2026-04-12T09:51:04.931Z</time></trkpt><trkpt lat="45.03475323136755" lon="13.712677344681415"><ele>29.0</ele><time>2026-04-12T09:51:05.931Z</time></trkpt><trkpt lat="45.03486460346777" lon="13.712662471318076"><ele>29.0</ele><time>2026-04-12T09:51:06.931Z</time></trkpt><trkpt lat="45.03496809003027" lon="13.712627457179472"><ele>29.0</ele><time>2026-04-12T09:51:07.931Z</time></trkpt><trkpt lat="45.0350633557108" lon="13.712577822349479"><ele>29.0</ele><time>2026-04-12T09:51:08.931Z</time></trkpt><trkpt lat="45.03515271004157" lon="13.712507246874205"><ele>29.0</ele><time>2026-04-12T09:51:09.931Z</time></trkpt><trkpt lat="45.03524916533164" lon="13.712447842120504"><ele>29.0</ele><time>2026-04-12T09:51:10.931Z</time></trkpt><trkpt lat="45.03535248894267" lon="13.712391451444375"><ele>29.25</ele><time>2026-04-12T09:51:11.931Z</time></trkpt><trkpt lat="45.03546785362917" lon="13.712309325161835"><ele>29.5</ele><time>2026-04-12T09:51:12.931Z</time></trkpt><trkpt lat="45.03558828259028" lon="13.712244435162837"><ele>29.75</ele><time>2026-04-12T09:51:13.931Z</time></trkpt><trkpt lat="45.03571367793883" lon="13.712161415007708"><ele>30.0</ele><time>2026-04-12T09:51:14.931Z</time></trkpt><trkpt lat="45.035856610826045" lon="13.712105345028796"><ele>30.0</ele><time>2026-04-12T09:51:15.931Z</time></trkpt><trkpt lat="45.03598433979399" lon="13.712038186936383"><ele>30.0</ele><time>2026-04-12T09:51:16.931Z</time></trkpt><trkpt lat="45.03610498985592" lon="13.711986464946827"><ele>30.0</ele><time>2026-04-12T09:51:17.931Z</time></trkpt><trkpt lat="45.03621476752885" lon="13.711964007294345"><ele>30.0</ele><time>2026-04-12T09:51:18.931Z</time></trkpt><trkpt lat="45.036344848042724" lon="13.711957107108923"><ele>30.0</ele><time>2026-04-12T09:51:19.931Z</time></trkpt><trkpt lat="45.03649755606503" lon="13.71195735690241"><ele>30.0</ele><time>2026-04-12T09:51:20.931Z</time></trkpt><trkpt lat="45.03666117488721" lon="13.711936172021533"><ele>30.0</ele><time>2026-04-12T09:51:21.931Z</time></trkpt><trkpt lat="45.03681196265566" lon="13.711941363287654"><ele>30.0</ele><time>2026-04-12T09:51:22.931Z</time></trkpt><trkpt lat="45.03693369959711" lon="13.711940356359346"><ele>30.0</ele><time>2026-04-12T09:51:23.931Z</time></trkpt><trkpt lat="45.03703426221868" lon="13.711930728439732"><ele>30.0</ele><time>2026-04-12T09:51:24.931Z</time></trkpt><trkpt lat="45.03713678692893" lon="13.711895945208765"><ele>30.0</ele><time>2026-04-12T09:51:25.931Z</time></trkpt><trkpt lat="45.03724410310233" lon="13.71183120149968"><ele>30.0</ele><time>2026-04-12T09:51:26.931Z</time></trkpt><trkpt lat="45.03736315153926" lon="13.711768272809424"><ele>30.0</ele><time>2026-04-12T09:51:27.931Z</time></trkpt><trkpt lat="45.037466401696776" lon="13.711717448421417"><ele>30.0</ele><time>2026-04-12T09:51:28.931Z</time></trkpt><trkpt lat="45.037554919443224" lon="13.711699423301168"><ele>30.0</ele><time>2026-04-12T09:51:29.931Z</time></trkpt><trkpt lat="45.03764460899609" lon="13.71171471020032"><ele>30.0</ele><time>2026-04-12T09:51:30.931Z</time></trkpt><trkpt lat="45.03774013133516" lon="13.711790162800366"><ele>30.0</ele><time>2026-04-12T09:51:31.931Z</time></trkpt><trkpt lat="45.037859742328706" lon="13.71187471916974"><ele>29.75</ele><time>2026-04-12T09:51:32.931Z</time></trkpt><trkpt lat="45.03799191877632" lon="13.711917525196451"><ele>29.5</ele><time>2026-04-12T09:51:33.931Z</time></trkpt><trkpt lat="45.03810701451945" lon="13.711964609032147"><ele>29.25</ele><time>2026-04-12T09:51:34.931Z</time></trkpt><trkpt lat="45.038247122187634" lon="13.711998920001035"><ele>29.0</ele><time>2026-04-12T09:51:35.931Z</time></trkpt><trkpt lat="45.03838359293508" lon="13.712022373328246"><ele>29.0</ele><time>2026-04-12T09:51:36.931Z</time></trkpt><trkpt lat="45.03853524302048" lon="13.712071774169129"><ele>29.0</ele><time>2026-04-12T09:51:37.931Z</time></trkpt><trkpt lat="45.03869178763256" lon="13.71207449414302"><ele>29.0</ele><time>2026-04-12T09:51:38.931Z</time></trkpt><trkpt lat="45.038837316916435" lon="13.712106212388221"><ele>29.0</ele><time>2026-04-12T09:51:39.931Z</time></trkpt><trkpt lat="45.03896041182582" lon="13.712156203694594"><ele>29.0</ele><time>2026-04-12T09:51:40.931Z</time></trkpt><trkpt lat="45.03908708110845" lon="13.712202823634007"><ele>29.0</ele><time>2026-04-12T09:51:41.931Z</time></trkpt><trkpt lat="45.039220461753196" lon="13.712234388872327"><ele>29.0</ele><time>2026-04-12T09:51:42.931Z</time></trkpt><trkpt lat="45.03933968109064" lon="13.71228335722211"><ele>30.0</ele><time>2026-04-12T09:51:43.931Z</time></trkpt><trkpt lat="45.0394551950159" lon="13.712324047610341"><ele>31.0</ele><time>2026-04-12T09:51:44.931Z</time></trkpt><trkpt lat="45.03956787413171" lon="13.712352733520095"><ele>32.0</ele><time>2026-04-12T09:51:45.931Z</time></trkpt><trkpt lat="45.039692480471444" lon="13.712383989590853"><ele>33.0</ele><time>2026-04-12T09:51:46.931Z</time></trkpt><trkpt lat="45.03979982584271" lon="13.712444430177186"><ele>33.0</ele><time>2026-04-12T09:51:47.931Z</time></trkpt><trkpt lat="45.03989086963462" lon="13.712475736121391"><ele>33.0</ele><time>2026-04-12T09:51:48.931Z</time></trkpt><trkpt lat="45.03995589266462" lon="13.712538168240094"><ele>33.0</ele><time>2026-04-12T09:51:49.931Z</time></trkpt><trkpt lat="45.04000199945028" lon="13.712647440556287"><ele>33.0</ele><time>2026-04-12T09:51:50.931Z</time></trkpt><trkpt lat="45.040061162889394" lon="13.712711660146516"><ele>33.0</ele><time>2026-04-12T09:51:51.931Z</time></trkpt><trkpt lat="45.040135311296304" lon="13.71275862312028"><ele>33.0</ele><time>2026-04-12T09:51:52.931Z</time></trkpt><trkpt lat="45.040203965299824" lon="13.712782596566202"><ele>34.0</ele><time>2026-04-12T09:51:53.931Z</time></trkpt><trkpt lat="45.04027759268918" lon="13.712818366247557"><ele>35.0</ele><time>2026-04-12T09:51:54.931Z</time></trkpt><trkpt lat="45.04035193611472" lon="13.712829008520178"><ele>36.0</ele><time>2026-04-12T09:51:55.931Z</time></trkpt><trkpt lat="45.04045612921948" lon="13.712888147731523"><ele>37.0</ele><time>2026-04-12T09:51:56.931Z</time></trkpt><trkpt lat="45.04056992529272" lon="13.71292553876088"><ele>38.0</ele><time>2026-04-12T09:51:57.931Z</time></trkpt><trkpt lat="45.04068686165273" lon="13.712918044512497"><ele>38.8</ele><time>2026-04-12T09:51:58.931Z</time></trkpt><trkpt lat="45.0408065196387" lon="13.712952632160599"><ele>39.599999999999994</ele><time>2026-04-12T09:51:59.931Z</time></trkpt><trkpt lat="45.04090228122434" lon="13.712949224277647"><ele>40.400000000000006</ele><time>2026-04-12T09:52:00.931Z</time></trkpt><trkpt lat="45.04100556390579" lon="13.712945757954001"><ele>41.2</ele><time>2026-04-12T09:52:01.931Z</time></trkpt><trkpt lat="45.04112768503397" lon="13.712922600323607"><ele>42.0</ele><time>2026-04-12T09:52:02.931Z</time></trkpt><trkpt lat="45.04125369113104" lon="13.71289766688531"><ele>42.0</ele><time>2026-04-12T09:52:03.931Z</time></trkpt><trkpt lat="45.041397084575785" lon="13.71284164360235"><ele>42.0</ele><time>2026-04-12T09:52:04.931Z</time></trkpt><trkpt lat="45.04154342466524" lon="13.712801629526998"><ele>42.0</ele><time>2026-04-12T09:52:05.931Z</time></trkpt><trkpt lat="45.041709907881334" lon="13.712751784924265"><ele>43.0</ele><time>2026-04-12T09:52:06.931Z</time></trkpt><trkpt lat="45.04188126193717" lon="13.712696022983147"><ele>44.0</ele><time>2026-04-12T09:52:07.931Z</time></trkpt><trkpt lat="45.04204458350543" lon="13.71264609681722"><ele>45.0</ele><time>2026-04-12T09:52:08.931Z</time></trkpt><trkpt lat="45.042181864350894" lon="13.712599437271956"><ele>45.0</ele><time>2026-04-12T09:52:09.931Z</time></trkpt><trkpt lat="45.042308875816516" lon="13.712552676929539"><ele>45.0</ele><time>2026-04-12T09:52:10.931Z</time></trkpt><trkpt lat="45.042423579291615" lon="13.712514399178664"><ele>45.0</ele><time>2026-04-12T09:52:11.931Z</time></trkpt><trkpt lat="45.04253286469305" lon="13.712477433413696"><ele>45.0</ele><time>2026-04-12T09:52:12.931Z</time></trkpt><trkpt lat="45.042635446745" lon="13.712453789789423"><ele>46.0</ele><time>2026-04-12T09:52:13.931Z</time></trkpt><trkpt lat="45.04275492660594" lon="13.712430971717469"><ele>47.0</ele><time>2026-04-12T09:52:14.931Z</time></trkpt><trkpt lat="45.042873696655555" lon="13.71242163342"><ele>48.0</ele><time>2026-04-12T09:52:15.931Z</time></trkpt><trkpt lat="45.0429838636689" lon="13.712413282400483"><ele>49.0</ele><time>2026-04-12T09:52:16.931Z</time></trkpt><trkpt lat="45.043081391549116" lon="13.712409578317189"><ele>50.0</ele><time>2026-04-12T09:52:17.931Z</time></trkpt><trkpt lat="45.04325407756738" lon="13.712405672445472"><ele>50.2</ele><time>2026-04-12T09:52:19.93Z</time></trkpt><trkpt lat="45.043345170429404" lon="13.712407644989856"><ele>50.4</ele><time>2026-04-12T09:52:20.93Z</time></trkpt><trkpt lat="45.04343529743939" lon="13.712497856001699"><ele>50.599999999999994</ele><time>2026-04-12T09:52:21.93Z</time></trkpt><trkpt lat="45.04354688232591" lon="13.712563192899383"><ele>50.8</ele><time>2026-04-12T09:52:22.93Z</time></trkpt><trkpt lat="45.04366041012289" lon="13.712632139878933"><ele>51.0</ele><time>2026-04-12T09:52:23.93Z</time></trkpt><trkpt lat="45.0437679189434" lon="13.712697283410016"><ele>51.4</ele><time>2026-04-12T09:52:24.931Z</time></trkpt><trkpt lat="45.04385954763932" lon="13.712763073641794"><ele>51.8</ele><time>2026-04-12T09:52:25.931Z</time></trkpt><trkpt lat="45.043948249117456" lon="13.712823422519456"><ele>52.199999999999996</ele><time>2026-04-12T09:52:26.931Z</time></trkpt><trkpt lat="45.04404069800093" lon="13.712877257436975"><ele>52.599999999999994</ele><time>2026-04-12T09:52:27.931Z</time></trkpt><trkpt lat="45.044151985259646" lon="13.712903344489506"><ele>53.0</ele><time>2026-04-12T09:52:28.93Z</time></trkpt><trkpt lat="45.0442722397068" lon="13.71286947228932"><ele>51.66666666666667</ele><time>2026-04-12T09:52:29.93Z</time></trkpt><trkpt lat="45.0444132756418" lon="13.712826117681537"><ele>50.33333333333333</ele><time>2026-04-12T09:52:30.93Z</time></trkpt><trkpt lat="45.044565040513696" lon="13.712775344530348"><ele>49.0</ele><time>2026-04-12T09:52:31.93Z</time></trkpt><trkpt lat="45.0447374084377" lon="13.712755593116022"><ele>50.0</ele><time>2026-04-12T09:52:32.93Z</time></trkpt><trkpt lat="45.044900916213635" lon="13.71272803569588"><ele>51.0</ele><time>2026-04-12T09:52:33.93Z</time></trkpt><trkpt lat="45.04505831437229" lon="13.712699026414514"><ele>52.0</ele><time>2026-04-12T09:52:34.93Z</time></trkpt><trkpt lat="45.04520256278561" lon="13.712647297904578"><ele>52.33333333333333</ele><time>2026-04-12T09:52:35.93Z</time></trkpt><trkpt lat="45.04536075011191" lon="13.712582230220915"><ele>52.66666666666667</ele><time>2026-04-12T09:52:36.93Z</time></trkpt><trkpt lat="45.04553836707118" lon="13.712492054274929"><ele>53.0</ele><time>2026-04-12T09:52:37.93Z</time></trkpt><trkpt lat="45.04568716898289" lon="13.712399439748365"><ele>52.75</ele><time>2026-04-12T09:52:38.93Z</time></trkpt><trkpt lat="45.045830489972126" lon="13.712352867824706"><ele>52.5</ele><time>2026-04-12T09:52:39.93Z</time></trkpt><trkpt lat="45.045970595960206" lon="13.712282969596394"><ele>52.25</ele><time>2026-04-12T09:52:40.93Z</time></trkpt><trkpt lat="45.04610658453112" lon="13.712203580806161"><ele>52.0</ele><time>2026-04-12T09:52:41.93Z</time></trkpt><trkpt lat="45.046231418503766" lon="13.712106625191097"><ele>52.0</ele><time>2026-04-12T09:52:42.93Z</time></trkpt><trkpt lat="45.04633351053495" lon="13.712055417737119"><ele>52.0</ele><time>2026-04-12T09:52:43.93Z</time></trkpt><trkpt lat="45.046423800948894" lon="13.712019660259832"><ele>52.0</ele><time>2026-04-12T09:52:44.93Z</time></trkpt><trkpt lat="45.04651266270608" lon="13.712005620866762"><ele>52.0</ele><time>2026-04-12T09:52:45.93Z</time></trkpt><trkpt lat="45.04660086617561" lon="13.712015143199608"><ele>52.0</ele><time>2026-04-12T09:52:46.93Z</time></trkpt><trkpt lat="45.04668481874219" lon="13.712032984079938"><ele>50.75</ele><time>2026-04-12T09:52:47.93Z</time></trkpt><trkpt lat="45.046792846182846" lon="13.712089300400246"><ele>49.5</ele><time>2026-04-12T09:52:48.93Z</time></trkpt><trkpt lat="45.04692295882511" lon="13.712124162200752"><ele>48.25</ele><time>2026-04-12T09:52:49.93Z</time></trkpt><trkpt lat="45.04703793524171" lon="13.712178046090902"><ele>47.0</ele><time>2026-04-12T09:52:50.93Z</time></trkpt><trkpt lat="45.047137742306084" lon="13.712218994729039"><ele>47.0</ele><time>2026-04-12T09:52:51.93Z</time></trkpt><trkpt lat="45.04724118754056" lon="13.71224219511395"><ele>47.0</ele><time>2026-04-12T09:52:52.93Z</time></trkpt><trkpt lat="45.047328116684405" lon="13.71223571920541"><ele>47.0</ele><time>2026-04-12T09:52:53.93Z</time></trkpt><trkpt lat="45.04750224860268" lon="13.712126619925298"><ele>47.0</ele><time>2026-04-12T09:52:55.93Z</time></trkpt><trkpt lat="45.04758707896747" lon="13.712058033226235"><ele>46.75</ele><time>2026-04-12T09:52:56.93Z</time></trkpt><trkpt lat="45.04764709598424" lon="13.71192305541144"><ele>46.5</ele><time>2026-04-12T09:52:57.93Z</time></trkpt><trkpt lat="45.04765682059514" lon="13.711759656063522"><ele>46.25</ele><time>2026-04-12T09:52:58.93Z</time></trkpt><trkpt lat="45.04767503841492" lon="13.71160273341139"><ele>46.0</ele><time>2026-04-12T09:52:59.93Z</time></trkpt><trkpt lat="45.04769622377977" lon="13.711433236966068"><ele>46.333333333333336</ele><time>2026-04-12T09:53:00.93Z</time></trkpt><trkpt lat="45.04771041706914" lon="13.711291332676378"><ele>46.66666666666667</ele><time>2026-04-12T09:53:01.93Z</time></trkpt><trkpt lat="45.04773140247304" lon="13.711187224868855"><ele>47.0</ele><time>2026-04-12T09:53:02.93Z</time></trkpt><trkpt lat="45.047770172356344" lon="13.711091850458104"><ele>47.333333333333336</ele><time>2026-04-12T09:53:03.93Z</time></trkpt><trkpt lat="45.04783215981433" lon="13.710997527526393"><ele>47.666666666666664</ele><time>2026-04-12T09:53:04.93Z</time></trkpt><trkpt lat="45.04791969112815" lon="13.710921547389475"><ele>48.0</ele><time>2026-04-12T09:53:05.93Z</time></trkpt><trkpt lat="45.04801409903831" lon="13.710854227801452"><ele>47.8</ele><time>2026-04-12T09:53:06.93Z</time></trkpt><trkpt lat="45.04811675119765" lon="13.710848434161782"><ele>47.599999999999994</ele><time>2026-04-12T09:53:07.93Z</time></trkpt><trkpt lat="45.048215508160915" lon="13.710868180575764"><ele>47.400000000000006</ele><time>2026-04-12T09:53:08.93Z</time></trkpt><trkpt lat="45.04828831357985" lon="13.710962259749019"><ele>47.2</ele><time>2026-04-12T09:53:09.93Z</time></trkpt><trkpt lat="45.04837788386393" lon="13.711046213520314"><ele>47.0</ele><time>2026-04-12T09:53:10.93Z</time></trkpt><trkpt lat="45.048489757333954" lon="13.711134213303463"><ele>47.0</ele><time>2026-04-12T09:53:11.93Z</time></trkpt><trkpt lat="45.04863521021268" lon="13.711213520772832"><ele>47.0</ele><time>2026-04-12T09:53:12.93Z</time></trkpt><trkpt lat="45.04876362044459" lon="13.71129806222948"><ele>47.0</ele><time>2026-04-12T09:53:13.93Z</time></trkpt><trkpt lat="45.04889928251333" lon="13.711352581979106"><ele>47.0</ele><time>2026-04-12T09:53:14.93Z</time></trkpt><trkpt lat="45.049020896729466" lon="13.711411587307907"><ele>48.0</ele><time>2026-04-12T09:53:15.93Z</time></trkpt><trkpt lat="45.049136209160686" lon="13.711478274960005"><ele>49.0</ele><time>2026-04-12T09:53:16.93Z</time></trkpt><trkpt lat="45.04924218816105" lon="13.711557275688998"><ele>50.0</ele><time>2026-04-12T09:53:17.93Z</time></trkpt><trkpt lat="45.04934495373625" lon="13.711645535700434"><ele>51.0</ele><time>2026-04-12T09:53:18.93Z</time></trkpt><trkpt lat="45.049424814328226" lon="13.711729043505784"><ele>51.0</ele><time>2026-04-12T09:53:19.93Z</time></trkpt><trkpt lat="45.04946409805915" lon="13.711819265799122"><ele>51.0</ele><time>2026-04-12T09:53:20.93Z</time></trkpt><trkpt lat="45.049545330459196" lon="13.711986011053142"><ele>51.0</ele><time>2026-04-12T09:53:22.93Z</time></trkpt><trkpt lat="45.04969076187043" lon="13.711841761728449"><ele>51.0</ele><time>2026-04-12T09:53:23.93Z</time></trkpt><trkpt lat="45.049784373038705" lon="13.711826750550419"><ele>51.0</ele><time>2026-04-12T09:53:24.93Z</time></trkpt><trkpt lat="45.049884821267106" lon="13.711803866446655"><ele>51.0</ele><time>2026-04-12T09:53:25.93Z</time></trkpt><trkpt lat="45.049989528107936" lon="13.71178575100913"><ele>51.0</ele><time>2026-04-12T09:53:26.93Z</time></trkpt><trkpt lat="45.05010528367205" lon="13.711759882571865"><ele>51.0</ele><time>2026-04-12T09:53:27.93Z</time></trkpt><trkpt lat="45.05021978626517" lon="13.71176218139355"><ele>51.0</ele><time>2026-04-12T09:53:28.93Z</time></trkpt><trkpt lat="45.05033499981347" lon="13.711770299410851"><ele>52.5</ele><time>2026-04-12T09:53:29.93Z</time></trkpt><trkpt lat="45.05048215469469" lon="13.711747078797046"><ele>54.0</ele><time>2026-04-12T09:53:30.93Z</time></trkpt><trkpt lat="45.05059323002885" lon="13.711703615587536"><ele>55.5</ele><time>2026-04-12T09:53:31.93Z</time></trkpt><trkpt lat="45.05069604700847" lon="13.711650118068825"><ele>57.0</ele><time>2026-04-12T09:53:32.93Z</time></trkpt><trkpt lat="45.050794513271825" lon="13.711578219036198"><ele>57.75</ele><time>2026-04-12T09:53:33.93Z</time></trkpt><trkpt lat="45.05088291361954" lon="13.71148959090904"><ele>58.5</ele><time>2026-04-12T09:53:34.93Z</time></trkpt><trkpt lat="45.05097117586864" lon="13.711370681881853"><ele>59.25</ele><time>2026-04-12T09:53:35.93Z</time></trkpt><trkpt lat="45.05107515887462" lon="13.71123703893059"><ele>60.0</ele><time>2026-04-12T09:53:36.93Z</time></trkpt><trkpt lat="45.051174633835075" lon="13.711125513123845"><ele>59.8</ele><time>2026-04-12T09:53:37.93Z</time></trkpt><trkpt lat="45.05126867835613" lon="13.71102391603278"><ele>59.6</ele><time>2026-04-12T09:53:38.93Z</time></trkpt><trkpt lat="45.051360869893806" lon="13.710971605878846"><ele>59.400000000000006</ele><time>2026-04-12T09:53:39.93Z</time></trkpt><trkpt lat="45.05144789326397" lon="13.710927074195613"><ele>59.2</ele><time>2026-04-12T09:53:40.93Z</time></trkpt><trkpt lat="45.05154860775998" lon="13.710904180661174"><ele>59.0</ele><time>2026-04-12T09:53:41.93Z</time></trkpt><trkpt lat="45.05166989927813" lon="13.71089319503985"><ele>59.0</ele><time>2026-04-12T09:53:42.93Z</time></trkpt><trkpt lat="45.05178948186025" lon="13.71085426343849"><ele>59.0</ele><time>2026-04-12T09:53:43.93Z</time></trkpt><trkpt lat="45.05191144631286" lon="13.710844079831435"><ele>59.0</ele><time>2026-04-12T09:53:44.93Z</time></trkpt><trkpt lat="45.0520283689061" lon="13.710809753806943"><ele>59.0</ele><time>2026-04-12T09:53:45.93Z</time></trkpt><trkpt lat="45.05212827608538" lon="13.710748695278104"><ele>59.0</ele><time>2026-04-12T09:53:46.93Z</time></trkpt><trkpt lat="45.052248197886165" lon="13.710644444709345"><ele>59.0</ele><time>2026-04-12T09:53:47.93Z</time></trkpt><trkpt lat="45.05237057691002" lon="13.71051806141663"><ele>59.0</ele><time>2026-04-12T09:53:48.93Z</time></trkpt><trkpt lat="45.05248946202376" lon="13.710408919792588"><ele>59.0</ele><time>2026-04-12T09:53:49.93Z</time></trkpt><trkpt lat="45.052597206951575" lon="13.71032575053919"><ele>59.25</ele><time>2026-04-12T09:53:50.93Z</time></trkpt><trkpt lat="45.05270310235194" lon="13.710236276081098"><ele>59.5</ele><time>2026-04-12T09:53:51.93Z</time></trkpt><trkpt lat="45.052814766571906" lon="13.710137174382243"><ele>59.75</ele><time>2026-04-12T09:53:52.93Z</time></trkpt><trkpt lat="45.05292541107301" lon="13.710027850390661"><ele>60.0</ele><time>2026-04-12T09:53:53.93Z</time></trkpt><trkpt lat="45.05302893364698" lon="13.709928115884141"><ele>60.0</ele><time>2026-04-12T09:53:54.93Z</time></trkpt><trkpt lat="45.05313289255623" lon="13.709831804822167"><ele>60.0</ele><time>2026-04-12T09:53:55.93Z</time></trkpt><trkpt lat="45.053243599749315" lon="13.709741610006395"><ele>60.0</ele><time>2026-04-12T09:53:56.93Z</time></trkpt><trkpt lat="45.053362991524985" lon="13.709652793976048"><ele>60.0</ele><time>2026-04-12T09:53:57.93Z</time></trkpt><trkpt lat="45.053477128974144" lon="13.709576680229139"><ele>59.75</ele><time>2026-04-12T09:53:58.93Z</time></trkpt><trkpt lat="45.05358780202418" lon="13.709518383178946"><ele>59.5</ele><time>2026-04-12T09:53:59.93Z</time></trkpt><trkpt lat="45.05369140166589" lon="13.709466899965296"><ele>59.25</ele><time>2026-04-12T09:54:00.93Z</time></trkpt><trkpt lat="45.05380990878199" lon="13.70939963653222"><ele>59.0</ele><time>2026-04-12T09:54:01.93Z</time></trkpt><trkpt lat="45.05394237490696" lon="13.709285467514404"><ele>59.0</ele><time>2026-04-12T09:54:02.93Z</time></trkpt><trkpt lat="45.05407880598207" lon="13.709149152319135"><ele>59.0</ele><time>2026-04-12T09:54:03.93Z</time></trkpt><trkpt lat="45.05423251564502" lon="13.708996277320018"><ele>59.0</ele><time>2026-04-12T09:54:04.93Z</time></trkpt><trkpt lat="45.05437754617763" lon="13.708863398053667"><ele>59.0</ele><time>2026-04-12T09:54:05.93Z</time></trkpt><trkpt lat="45.05450595623538" lon="13.708739451469896"><ele>59.0</ele><time>2026-04-12T09:54:06.93Z</time></trkpt><trkpt lat="45.05463622097503" lon="13.708603909898278"><ele>59.0</ele><time>2026-04-12T09:54:07.93Z</time></trkpt><trkpt lat="45.054761293792254" lon="13.708466752536886"><ele>58.75</ele><time>2026-04-12T09:54:08.93Z</time></trkpt><trkpt lat="45.0548776645783" lon="13.708347174787287"><ele>58.5</ele><time>2026-04-12T09:54:09.93Z</time></trkpt><trkpt lat="45.05498167748493" lon="13.708239163345198"><ele>58.25</ele><time>2026-04-12T09:54:10.93Z</time></trkpt><trkpt lat="45.0550638013321" lon="13.70814341958985"><ele>58.0</ele><time>2026-04-12T09:54:11.93Z</time></trkpt><trkpt lat="45.0551478039329" lon="13.708052226104806"><ele>58.5</ele><time>2026-04-12T09:54:12.93Z</time></trkpt><trkpt lat="45.05523854307029" lon="13.707944790458587"><ele>59.0</ele><time>2026-04-12T09:54:13.93Z</time></trkpt><trkpt lat="45.055309484499794" lon="13.707852761146553"><ele>59.5</ele><time>2026-04-12T09:54:14.93Z</time></trkpt><trkpt lat="45.05541032774361" lon="13.70774263283942"><ele>60.0</ele><time>2026-04-12T09:54:15.93Z</time></trkpt><trkpt lat="45.0555026270655" lon="13.707635665355532"><ele>59.6</ele><time>2026-04-12T09:54:16.93Z</time></trkpt><trkpt lat="45.0555864029447" lon="13.707531166262084"><ele>59.2</ele><time>2026-04-12T09:54:17.93Z</time></trkpt><trkpt lat="45.055671903770936" lon="13.707437363510463"><ele>58.8</ele><time>2026-04-12T09:54:18.93Z</time></trkpt><trkpt lat="45.055736331020185" lon="13.707343530342303"><ele>58.4</ele><time>2026-04-12T09:54:19.93Z</time></trkpt><trkpt lat="45.05579463401478" lon="13.707265806073773"><ele>58.0</ele><time>2026-04-12T09:54:20.93Z</time></trkpt><trkpt lat="45.055839014077314" lon="13.707184056308622"><ele>58.0</ele><time>2026-04-12T09:54:21.93Z</time></trkpt><trkpt lat="45.05591944365723" lon="13.707075128676289"><ele>58.0</ele><time>2026-04-12T09:54:23.93Z</time></trkpt><trkpt lat="45.05598345973746" lon="13.70699109505588"><ele>58.0</ele><time>2026-04-12T09:54:26.93Z</time></trkpt><trkpt lat="45.056003855637506" lon="13.70680598313933"><ele>58.0</ele><time>2026-04-12T09:54:28.93Z</time></trkpt><trkpt lat="45.056026267575376" lon="13.70665274884262"><ele>58.0</ele><time>2026-04-12T09:54:29.93Z</time></trkpt><trkpt lat="45.05605968636518" lon="13.70645523386748"><ele>59.0</ele><time>2026-04-12T09:54:30.93Z</time></trkpt><trkpt lat="45.0561148101359" lon="13.706216834069293"><ele>60.0</ele><time>2026-04-12T09:54:31.93Z</time></trkpt><trkpt lat="45.05615835093926" lon="13.706062181629587"><ele>61.0</ele><time>2026-04-12T09:54:32.93Z</time></trkpt><trkpt lat="45.056192798297495" lon="13.705919650580743"><ele>62.0</ele><time>2026-04-12T09:54:33.93Z</time></trkpt><trkpt lat="45.05623339377674" lon="13.705789456923187"><ele>62.2</ele><time>2026-04-12T09:54:34.93Z</time></trkpt><trkpt lat="45.05627722467196" lon="13.705665403318227"><ele>62.400000000000006</ele><time>2026-04-12T09:54:35.93Z</time></trkpt><trkpt lat="45.05632473968913" lon="13.705555138961396"><ele>62.599999999999994</ele><time>2026-04-12T09:54:36.93Z</time></trkpt><trkpt lat="45.056384038357564" lon="13.70544266208056"><ele>62.8</ele><time>2026-04-12T09:54:37.93Z</time></trkpt><trkpt lat="45.05644626428938" lon="13.70531866077656"><ele>63.0</ele><time>2026-04-12T09:54:38.93Z</time></trkpt><trkpt lat="45.05651882825606" lon="13.705236976495407"><ele>62.0</ele><time>2026-04-12T09:54:39.93Z</time></trkpt><trkpt lat="45.056572294653016" lon="13.705125959891859"><ele>61.0</ele><time>2026-04-12T09:54:40.93Z</time></trkpt><trkpt lat="45.05662876287357" lon="13.705006584130782"><ele>60.0</ele><time>2026-04-12T09:54:41.93Z</time></trkpt><trkpt lat="45.056690301047695" lon="13.704874766442883"><ele>59.0</ele><time>2026-04-12T09:54:42.93Z</time></trkpt><trkpt lat="45.05674894845616" lon="13.704746971185056"><ele>58.0</ele><time>2026-04-12T09:54:43.93Z</time></trkpt><trkpt lat="45.05679918920324" lon="13.704629960950442"><ele>56.33333333333333</ele><time>2026-04-12T09:54:44.93Z</time></trkpt><trkpt lat="45.05684342934133" lon="13.704516513443469"><ele>54.666666666666664</ele><time>2026-04-12T09:54:45.93Z</time></trkpt><trkpt lat="45.056874222081476" lon="13.704379506674917"><ele>53.0</ele><time>2026-04-12T09:54:46.93Z</time></trkpt><trkpt lat="45.05691824111891" lon="13.704279277352764"><ele>51.33333333333333</ele><time>2026-04-12T09:54:47.93Z</time></trkpt><trkpt lat="45.05694597819542" lon="13.704182320522467"><ele>49.666666666666664</ele><time>2026-04-12T09:54:48.93Z</time></trkpt><trkpt lat="45.05699265108712" lon="13.704099488019212"><ele>48.0</ele><time>2026-04-12T09:54:49.93Z</time></trkpt><trkpt lat="45.057042435759605" lon="13.704005929491283"><ele>47.4</ele><time>2026-04-12T09:54:50.93Z</time></trkpt><trkpt lat="45.05712235181989" lon="13.703858881306115"><ele>46.8</ele><time>2026-04-12T09:54:52.93Z</time></trkpt><trkpt lat="45.057168570578455" lon="13.703791698227622"><ele>46.2</ele><time>2026-04-12T09:54:53.93Z</time></trkpt><trkpt lat="45.057258799261874" lon="13.70369418949079"><ele>45.6</ele><time>2026-04-12T09:54:55.93Z</time></trkpt><trkpt lat="45.05735003085094" lon="13.703654508517797"><ele>45.0</ele><time>2026-04-12T09:54:57.93Z</time></trkpt><trkpt lat="45.0574352040894" lon="13.703685149371559"><ele>44.4</ele><time>2026-04-12T09:54:59.93Z</time></trkpt><trkpt lat="45.057590577203364" lon="13.70372877872694"><ele>43.8</ele><time>2026-04-12T09:55:45.93Z</time></trkpt><trkpt lat="45.057662964906214" lon="13.703748232712528"><ele>43.2</ele><time>2026-04-12T09:55:46.93Z</time></trkpt><trkpt lat="45.05774617298585" lon="13.703778561431417"><ele>42.6</ele><time>2026-04-12T09:55:47.93Z</time></trkpt><trkpt lat="45.05784995134112" lon="13.703818229401348"><ele>42.0</ele><time>2026-04-12T09:55:48.93Z</time></trkpt><trkpt lat="45.05794052798642" lon="13.703840751558534"><ele>42.0</ele><time>2026-04-12T09:55:49.93Z</time></trkpt><trkpt lat="45.05802324262645" lon="13.70386415433827"><ele>42.0</ele><time>2026-04-12T09:55:50.93Z</time></trkpt><trkpt lat="45.0580822254753" lon="13.70392108492685"><ele>42.0</ele><time>2026-04-12T09:55:51.93Z</time></trkpt><trkpt lat="45.05813749558902" lon="13.703978557421454"><ele>42.0</ele><time>2026-04-12T09:55:52.93Z</time></trkpt><trkpt lat="45.05820009931759" lon="13.704056020482751"><ele>42.0</ele><time>2026-04-12T09:55:53.93Z</time></trkpt><trkpt lat="45.05827554533081" lon="13.70413740260637"><ele>42.0</ele><time>2026-04-12T09:55:54.93Z</time></trkpt><trkpt lat="45.05837210933106" lon="13.704209031589949"><ele>42.400000000000006</ele><time>2026-04-12T09:55:55.93Z</time></trkpt><trkpt lat="45.058467386774765" lon="13.704262907060683"><ele>42.800000000000004</ele><time>2026-04-12T09:55:56.93Z</time></trkpt><trkpt lat="45.05855966511188" lon="13.704333613448666"><ele>43.2</ele><time>2026-04-12T09:55:57.93Z</time></trkpt><trkpt lat="45.05865247476311" lon="13.704399534311227"><ele>43.6</ele><time>2026-04-12T09:55:58.93Z</time></trkpt><trkpt lat="45.058739878124236" lon="13.70446185595457"><ele>44.0</ele><time>2026-04-12T09:55:59.93Z</time></trkpt><trkpt lat="45.05883018074313" lon="13.704524599816448"><ele>45.0</ele><time>2026-04-12T09:56:00.93Z</time></trkpt><trkpt lat="45.05891616354671" lon="13.704603290824334"><ele>46.0</ele><time>2026-04-12T09:56:01.93Z</time></trkpt><trkpt lat="45.058981996460695" lon="13.704702634771854"><ele>47.0</ele><time>2026-04-12T09:56:02.93Z</time></trkpt><trkpt lat="45.059040567702155" lon="13.704793745896668"><ele>48.0</ele><time>2026-04-12T09:56:03.93Z</time></trkpt><trkpt lat="45.05909009940507" lon="13.704882118697407"><ele>49.0</ele><time>2026-04-12T09:56:04.93Z</time></trkpt><trkpt lat="45.059131720037186" lon="13.705004943365717"><ele>49.2</ele><time>2026-04-12T09:56:05.93Z</time></trkpt><trkpt lat="45.059172783769334" lon="13.705120098051262"><ele>49.400000000000006</ele><time>2026-04-12T09:56:06.93Z</time></trkpt><trkpt lat="45.059215681627116" lon="13.70525989083659"><ele>49.6</ele><time>2026-04-12T09:56:07.93Z</time></trkpt><trkpt lat="45.059263049466594" lon="13.705399284271035"><ele>49.8</ele><time>2026-04-12T09:56:08.93Z</time></trkpt><trkpt lat="45.05931850673204" lon="13.705522406251472"><ele>50.0</ele><time>2026-04-12T09:56:09.93Z</time></trkpt><trkpt lat="45.05936315278597" lon="13.705598814627182"><ele>50.8</ele><time>2026-04-12T09:56:10.93Z</time></trkpt><trkpt lat="45.059415811262674" lon="13.705653386518305"><ele>51.6</ele><time>2026-04-12T09:56:11.93Z</time></trkpt><trkpt lat="45.05951250934643" lon="13.705688954582337"><ele>52.400000000000006</ele><time>2026-04-12T09:56:12.93Z</time></trkpt><trkpt lat="45.059627705604775" lon="13.705727240962743"><ele>53.2</ele><time>2026-04-12T09:56:13.93Z</time></trkpt><trkpt lat="45.059729084663275" lon="13.70578846968284"><ele>54.0</ele><time>2026-04-12T09:56:14.93Z</time></trkpt><trkpt lat="45.05983246960909" lon="13.705890134160429"><ele>54.0</ele><time>2026-04-12T09:56:15.93Z</time></trkpt><trkpt lat="45.05994802300768" lon="13.705991460964986"><ele>54.0</ele><time>2026-04-12T09:56:16.93Z</time></trkpt><trkpt lat="45.060055464820984" lon="13.706092350389014"><ele>54.0</ele><time>2026-04-12T09:56:17.93Z</time></trkpt><trkpt lat="45.06015639362377" lon="13.706198877507793"><ele>54.0</ele><time>2026-04-12T09:56:18.93Z</time></trkpt><trkpt lat="45.06024702684661" lon="13.706324819679336"><ele>55.25</ele><time>2026-04-12T09:56:19.93Z</time></trkpt><trkpt lat="45.06032721141157" lon="13.706469813708678"><ele>56.5</ele><time>2026-04-12T09:56:20.93Z</time></trkpt><trkpt lat="45.06041611362538" lon="13.706630770824258"><ele>57.75</ele><time>2026-04-12T09:56:21.93Z</time></trkpt><trkpt lat="45.06051732752135" lon="13.706806743904846"><ele>59.0</ele><time>2026-04-12T09:56:22.93Z</time></trkpt><trkpt lat="45.060625963747235" lon="13.706962115979183"><ele>59.25</ele><time>2026-04-12T09:56:23.93Z</time></trkpt><trkpt lat="45.060727201071046" lon="13.707111223862478"><ele>59.5</ele><time>2026-04-12T09:56:24.93Z</time></trkpt><trkpt lat="45.06083408910703" lon="13.707251343786952"><ele>59.75</ele><time>2026-04-12T09:56:25.93Z</time></trkpt><trkpt lat="45.060937637984416" lon="13.707374226730641"><ele>60.0</ele><time>2026-04-12T09:56:26.93Z</time></trkpt><trkpt lat="45.06103819702769" lon="13.707485239663244"><ele>60.0</ele><time>2026-04-12T09:56:27.93Z</time></trkpt><trkpt lat="45.06114885255182" lon="13.707574189808977"><ele>60.0</ele><time>2026-04-12T09:56:28.93Z</time></trkpt><trkpt lat="45.06126793434404" lon="13.707638082460214"><ele>60.0</ele><time>2026-04-12T09:56:29.93Z</time></trkpt><trkpt lat="45.061379025640214" lon="13.707685499615799"><ele>60.0</ele><time>2026-04-12T09:56:30.93Z</time></trkpt><trkpt lat="45.061490228188404" lon="13.707741814601308"><ele>59.5</ele><time>2026-04-12T09:56:31.93Z</time></trkpt><trkpt lat="45.061601982743554" lon="13.707836285918235"><ele>59.0</ele><time>2026-04-12T09:56:32.93Z</time></trkpt><trkpt lat="45.061683862501916" lon="13.707972405467965"><ele>58.5</ele><time>2026-04-12T09:56:33.93Z</time></trkpt><trkpt lat="45.06177304605416" lon="13.708126258035565"><ele>58.0</ele><time>2026-04-12T09:56:34.93Z</time></trkpt><trkpt lat="45.06188359160239" lon="13.708284944023122"><ele>58.0</ele><time>2026-04-12T09:56:35.93Z</time></trkpt><trkpt lat="45.06200490450194" lon="13.708453689809568"><ele>58.0</ele><time>2026-04-12T09:56:36.931Z</time></trkpt><trkpt lat="45.06212496122565" lon="13.708588353954811"><ele>58.0</ele><time>2026-04-12T09:56:37.93Z</time></trkpt><trkpt lat="45.06222698749604" lon="13.708696235786734"><ele>57.5</ele><time>2026-04-12T09:56:38.93Z</time></trkpt><trkpt lat="45.0623329483479" lon="13.7087981047321"><ele>57.0</ele><time>2026-04-12T09:56:39.93Z</time></trkpt><trkpt lat="45.062436110522334" lon="13.708891472434336"><ele>56.5</ele><time>2026-04-12T09:56:40.93Z</time></trkpt><trkpt lat="45.062524999959095" lon="13.708978160308659"><ele>56.0</ele><time>2026-04-12T09:56:41.93Z</time></trkpt><trkpt lat="45.06260035242126" lon="13.709069526717164"><ele>56.00000000000001</ele><time>2026-04-12T09:56:42.93Z</time></trkpt><trkpt lat="45.06265653666388" lon="13.70917270902028"><ele>56.0</ele><time>2026-04-12T09:56:43.93Z</time></trkpt><trkpt lat="45.06268572955577" lon="13.709271488220413"><ele>56.0</ele><time>2026-04-12T09:56:44.93Z</time></trkpt><trkpt lat="45.062659263736485" lon="13.70938119066695"><ele>56.0</ele><time>2026-04-12T09:56:45.93Z</time></trkpt><trkpt lat="45.06266411491673" lon="13.709500485392642"><ele>56.00000000000001</ele><time>2026-04-12T09:56:46.93Z</time></trkpt><trkpt lat="45.06267838732442" lon="13.709652311779578"><ele>56.0</ele><time>2026-04-12T09:56:47.93Z</time></trkpt><trkpt lat="45.06268623836047" lon="13.70981790362492"><ele>56.25</ele><time>2026-04-12T09:56:48.93Z</time></trkpt><trkpt lat="45.06270921302489" lon="13.70999312176992"><ele>56.5</ele><time>2026-04-12T09:56:49.93Z</time></trkpt><trkpt lat="45.06275789041775" lon="13.710174264984964"><ele>56.75</ele><time>2026-04-12T09:56:50.93Z</time></trkpt><trkpt lat="45.06281198895476" lon="13.71035990870799"><ele>57.0</ele><time>2026-04-12T09:56:51.93Z</time></trkpt><trkpt lat="45.06284949490098" lon="13.710556841883891"><ele>57.25</ele><time>2026-04-12T09:56:52.93Z</time></trkpt><trkpt lat="45.06290448524819" lon="13.71071650791858"><ele>57.5</ele><time>2026-04-12T09:56:53.93Z</time></trkpt><trkpt lat="45.06295918985223" lon="13.710858835267516"><ele>57.75</ele><time>2026-04-12T09:56:54.93Z</time></trkpt><trkpt lat="45.06302425597196" lon="13.710985355948681"><ele>58.0</ele><time>2026-04-12T09:56:55.93Z</time></trkpt><trkpt lat="45.06310083750908" lon="13.711086139769291"><ele>58.4</ele><time>2026-04-12T09:56:56.93Z</time></trkpt><trkpt lat="45.06319044154508" lon="13.711157803047897"><ele>58.8</ele><time>2026-04-12T09:56:57.93Z</time></trkpt><trkpt lat="45.063286158779604" lon="13.711220146577244"><ele>59.2</ele><time>2026-04-12T09:56:58.93Z</time></trkpt><trkpt lat="45.06337340818787" lon="13.711282398323403"><ele>59.6</ele><time>2026-04-12T09:56:59.93Z</time></trkpt><trkpt lat="45.063442831487706" lon="13.711368114178226"><ele>60.0</ele><time>2026-04-12T09:57:00.93Z</time></trkpt><trkpt lat="45.063492522571785" lon="13.711479621607667"><ele>60.5</ele><time>2026-04-12T09:57:01.93Z</time></trkpt><trkpt lat="45.063531643442204" lon="13.711607728300494"><ele>61.0</ele><time>2026-04-12T09:57:02.93Z</time></trkpt><trkpt lat="45.06357085346565" lon="13.711737656299398"><ele>61.5</ele><time>2026-04-12T09:57:03.93Z</time></trkpt><trkpt lat="45.06362599091583" lon="13.711878338788143"><ele>62.0</ele><time>2026-04-12T09:57:04.93Z</time></trkpt><trkpt lat="45.063641251819234" lon="13.71207667830159"><ele>62.0</ele><time>2026-04-12T09:57:05.93Z</time></trkpt><trkpt lat="45.06367703736747" lon="13.712256791215955"><ele>62.0</ele><time>2026-04-12T09:57:06.93Z</time></trkpt><trkpt lat="45.06369725439322" lon="13.712436139887869"><ele>62.0</ele><time>2026-04-12T09:57:07.93Z</time></trkpt><trkpt lat="45.063719397003624" lon="13.712611065914704"><ele>62.0</ele><time>2026-04-12T09:57:08.93Z</time></trkpt><trkpt lat="45.06372451456783" lon="13.712776325519544"><ele>62.25</ele><time>2026-04-12T09:57:09.93Z</time></trkpt><trkpt lat="45.06369217966361" lon="13.71293289719588"><ele>62.5</ele><time>2026-04-12T09:57:10.93Z</time></trkpt><trkpt lat="45.06366875817538" lon="13.713095444040052"><ele>62.75</ele><time>2026-04-12T09:57:11.93Z</time></trkpt><trkpt lat="45.06364458825678" lon="13.713274344950053"><ele>63.0</ele><time>2026-04-12T09:57:12.93Z</time></trkpt><trkpt lat="45.06362328600337" lon="13.713443746071015"><ele>63.8</ele><time>2026-04-12T09:57:13.93Z</time></trkpt><trkpt lat="45.06360651245269" lon="13.7135940169862"><ele>64.6</ele><time>2026-04-12T09:57:14.93Z</time></trkpt><trkpt lat="45.0636038534455" lon="13.713752094403532"><ele>65.4</ele><time>2026-04-12T09:57:15.93Z</time></trkpt><trkpt lat="45.06363124548163" lon="13.713912005855786"><ele>66.2</ele><time>2026-04-12T09:57:16.93Z</time></trkpt><trkpt lat="45.06365902093061" lon="13.714058467686735"><ele>67.0</ele><time>2026-04-12T09:57:17.93Z</time></trkpt><trkpt lat="45.06369036415527" lon="13.714231536610114"><ele>69.0</ele><time>2026-04-12T09:57:18.93Z</time></trkpt><trkpt lat="45.06375823940845" lon="13.714405904154775"><ele>71.0</ele><time>2026-04-12T09:57:19.93Z</time></trkpt><trkpt lat="45.063797001772265" lon="13.714585093660336"><ele>73.0</ele><time>2026-04-12T09:57:20.93Z</time></trkpt><trkpt lat="45.063842577892736" lon="13.714760547361982"><ele>75.0</ele><time>2026-04-12T09:57:21.93Z</time></trkpt><trkpt lat="45.06387436233929" lon="13.714937988552625"><ele>75.0</ele><time>2026-04-12T09:57:22.93Z</time></trkpt><trkpt lat="45.063898214153966" lon="13.715115206833742"><ele>75.0</ele><time>2026-04-12T09:57:23.93Z</time></trkpt><trkpt lat="45.06392705708057" lon="13.715300902728089"><ele>75.0</ele><time>2026-04-12T09:57:24.93Z</time></trkpt><trkpt lat="45.0639640585304" lon="13.715478138379266"><ele>75.0</ele><time>2026-04-12T09:57:25.93Z</time></trkpt><trkpt lat="45.06400625844338" lon="13.715651283103334"><ele>75.25</ele><time>2026-04-12T09:57:26.93Z</time></trkpt><trkpt lat="45.064015044571796" lon="13.71583562047348"><ele>75.5</ele><time>2026-04-12T09:57:27.93Z</time></trkpt><trkpt lat="45.06401695345022" lon="13.715983561393163"><ele>75.75</ele><time>2026-04-12T09:57:28.93Z</time></trkpt><trkpt lat="45.064012055104314" lon="13.71614425786461"><ele>76.0</ele><time>2026-04-12T09:57:29.93Z</time></trkpt><trkpt lat="45.0640019286206" lon="13.716318215482135"><ele>74.5</ele><time>2026-04-12T09:57:30.93Z</time></trkpt><trkpt lat="45.06398410761272" lon="13.716516501470851"><ele>73.0</ele><time>2026-04-12T09:57:31.93Z</time></trkpt><trkpt lat="45.06395597000607" lon="13.716715360192225"><ele>71.5</ele><time>2026-04-12T09:57:32.93Z</time></trkpt><trkpt lat="45.06393060505049" lon="13.716877708562393"><ele>70.0</ele><time>2026-04-12T09:57:33.93Z</time></trkpt><trkpt lat="45.06390943436682" lon="13.717030138527825"><ele>69.2</ele><time>2026-04-12T09:57:34.93Z</time></trkpt><trkpt lat="45.06391092686657" lon="13.71716126984743"><ele>68.4</ele><time>2026-04-12T09:57:35.93Z</time></trkpt><trkpt lat="45.06391646417353" lon="13.717260616817923"><ele>67.6</ele><time>2026-04-12T09:57:36.93Z</time></trkpt><trkpt lat="45.06393564036538" lon="13.717389883389927"><ele>66.8</ele><time>2026-04-12T09:57:37.93Z</time></trkpt><trkpt lat="45.063985110513194" lon="13.717520706945239"><ele>66.0</ele><time>2026-04-12T09:57:38.93Z</time></trkpt><trkpt lat="45.06402401211617" lon="13.717686699964297"><ele>65.8</ele><time>2026-04-12T09:57:39.93Z</time></trkpt><trkpt lat="45.06408786187276" lon="13.7178166136708"><ele>65.6</ele><time>2026-04-12T09:57:40.93Z</time></trkpt><trkpt lat="45.0641434847145" lon="13.717934009600336"><ele>65.4</ele><time>2026-04-12T09:57:41.93Z</time></trkpt><trkpt lat="45.064217782535074" lon="13.718053804785876"><ele>65.2</ele><time>2026-04-12T09:57:42.93Z</time></trkpt><trkpt lat="45.0643045840399" lon="13.718165489369735"><ele>65.0</ele><time>2026-04-12T09:57:43.93Z</time></trkpt><trkpt lat="45.064394135521965" lon="13.718260284231736"><ele>65.0</ele><time>2026-04-12T09:57:44.93Z</time></trkpt><trkpt lat="45.06448032290905" lon="13.71832845868688"><ele>65.0</ele><time>2026-04-12T09:57:45.93Z</time></trkpt><trkpt lat="45.06457951228829" lon="13.718391757351602"><ele>65.0</ele><time>2026-04-12T09:57:46.93Z</time></trkpt><trkpt lat="45.06467942959047" lon="13.718461377448417"><ele>65.0</ele><time>2026-04-12T09:57:47.93Z</time></trkpt><trkpt lat="45.06476313539514" lon="13.718533521810775"><ele>65.0</ele><time>2026-04-12T09:57:48.93Z</time></trkpt><trkpt lat="45.06483082913958" lon="13.718621954575516"><ele>65.4</ele><time>2026-04-12T09:57:49.93Z</time></trkpt><trkpt lat="45.0648758378632" lon="13.718756092494711"><ele>65.8</ele><time>2026-04-12T09:57:50.93Z</time></trkpt><trkpt lat="45.064929530222145" lon="13.718875738803867"><ele>66.2</ele><time>2026-04-12T09:57:51.93Z</time></trkpt><trkpt lat="45.06496785922131" lon="13.718982843573784"><ele>66.6</ele><time>2026-04-12T09:57:52.93Z</time></trkpt><trkpt lat="45.06505788103271" lon="13.719069194824222"><ele>67.0</ele><time>2026-04-12T09:57:54.93Z</time></trkpt><trkpt lat="45.06513613214136" lon="13.719140640644785"><ele>67.5</ele><time>2026-04-12T09:57:56.93Z</time></trkpt><trkpt lat="45.06528160851106" lon="13.71898115910509"><ele>68.0</ele><time>2026-04-12T09:57:57.93Z</time></trkpt><trkpt lat="45.065368185611646" lon="13.7189502580699"><ele>68.5</ele><time>2026-04-12T09:57:58.93Z</time></trkpt><trkpt lat="45.065450827029856" lon="13.718937784748721"><ele>69.0</ele><time>2026-04-12T09:57:59.93Z</time></trkpt><trkpt lat="45.06556070111976" lon="13.718947102059671"><ele>69.0</ele><time>2026-04-12T09:58:01.93Z</time></trkpt><trkpt lat="45.06565562850596" lon="13.719029999444755"><ele>69.0</ele><time>2026-04-12T09:58:03.93Z</time></trkpt><trkpt lat="45.06570735788002" lon="13.719110638294936"><ele>69.0</ele><time>2026-04-12T09:58:04.93Z</time></trkpt><trkpt lat="45.065764033484534" lon="13.719204816414512"><ele>69.0</ele><time>2026-04-12T09:58:05.93Z</time></trkpt><trkpt lat="45.0658072015665" lon="13.719304466834991"><ele>69.0</ele><time>2026-04-12T09:58:06.93Z</time></trkpt><trkpt lat="45.06584394457627" lon="13.719426831370624"><ele>69.0</ele><time>2026-04-12T09:58:07.93Z</time></trkpt><trkpt lat="45.06588776237248" lon="13.719558422284663"><ele>69.0</ele><time>2026-04-12T09:58:08.93Z</time></trkpt><trkpt lat="45.06594961181173" lon="13.71968714381185"><ele>69.0</ele><time>2026-04-12T09:58:09.93Z</time></trkpt><trkpt lat="45.066004040046096" lon="13.719798210423125"><ele>69.0</ele><time>2026-04-12T09:58:10.93Z</time></trkpt><trkpt lat="45.06606330324293" lon="13.719890871956714"><ele>69.0</ele><time>2026-04-12T09:58:11.93Z</time></trkpt><trkpt lat="45.066131941511664" lon="13.719965158715977"><ele>69.0</ele><time>2026-04-12T09:58:12.93Z</time></trkpt><trkpt lat="45.06619152049326" lon="13.72003428414212"><ele>69.0</ele><time>2026-04-12T09:58:13.93Z</time></trkpt><trkpt lat="45.06623599861514" lon="13.720104994255975"><ele>69.0</ele><time>2026-04-12T09:58:14.93Z</time></trkpt><trkpt lat="45.06628029464334" lon="13.720179311563099"><ele>69.0</ele><time>2026-04-12T09:58:15.93Z</time></trkpt><trkpt lat="45.06631788662939" lon="13.720258594800864"><ele>69.0</ele><time>2026-04-12T09:58:16.93Z</time></trkpt><trkpt lat="45.06634407170993" lon="13.720449275504063"><ele>69.0</ele><time>2026-04-12T09:58:18.93Z</time></trkpt><trkpt lat="45.066356833797336" lon="13.720558508829498"><ele>68.66666666666667</ele><time>2026-04-12T09:58:19.93Z</time></trkpt><trkpt lat="45.06638921087414" lon="13.720650196509629"><ele>68.33333333333333</ele><time>2026-04-12T09:58:20.93Z</time></trkpt><trkpt lat="45.06643952263212" lon="13.720707026273724"><ele>68.0</ele><time>2026-04-12T09:58:21.93Z</time></trkpt><trkpt lat="45.06655945113562" lon="13.720725175976145"><ele>67.66666666666666</ele><time>2026-04-12T09:58:23.93Z</time></trkpt><trkpt lat="45.06661895670598" lon="13.720677297496826"><ele>67.33333333333333</ele><time>2026-04-12T09:58:24.93Z</time></trkpt><trkpt lat="45.066675629711426" lon="13.720621458709761"><ele>67.0</ele><time>2026-04-12T09:58:25.93Z</time></trkpt><trkpt lat="45.066742378342795" lon="13.720547029725035"><ele>67.8</ele><time>2026-04-12T09:58:26.93Z</time></trkpt><trkpt lat="45.0668153440247" lon="13.720469889683681"><ele>68.6</ele><time>2026-04-12T09:58:27.93Z</time></trkpt><trkpt lat="45.066888374625584" lon="13.720400009156508"><ele>69.39999999999999</ele><time>2026-04-12T09:58:28.93Z</time></trkpt><trkpt lat="45.06695697384374" lon="13.720327897001537"><ele>70.2</ele><time>2026-04-12T09:58:29.93Z</time></trkpt><trkpt lat="45.06703557227088" lon="13.720251890838776"><ele>71.0</ele><time>2026-04-12T09:58:30.93Z</time></trkpt><trkpt lat="45.06712984620004" lon="13.720162507171963"><ele>71.0</ele><time>2026-04-12T09:58:31.93Z</time></trkpt><trkpt lat="45.067214771738726" lon="13.720076651823414"><ele>71.0</ele><time>2026-04-12T09:58:32.93Z</time></trkpt><trkpt lat="45.06728496397858" lon="13.720001275862277"><ele>71.0</ele><time>2026-04-12T09:58:33.928Z</time></trkpt><trkpt lat="45.06738166898636" lon="13.71990532289118"><ele>71.0</ele><time>2026-04-12T09:58:35.928Z</time></trkpt><trkpt lat="45.06747987716996" lon="13.719892000617678"><ele>71.0</ele><time>2026-04-12T09:58:37.929Z</time></trkpt><trkpt lat="45.06759394668407" lon="13.719963105042558"><ele>71.0</ele><time>2026-04-12T09:58:39.929Z</time></trkpt><trkpt lat="45.0676700996762" lon="13.72000873353309"><ele>71.0</ele><time>2026-04-12T09:58:40.928Z</time></trkpt><trkpt lat="45.06777001838586" lon="13.720080115755534"><ele>71.0</ele><time>2026-04-12T09:58:41.928Z</time></trkpt><trkpt lat="45.06787525236181" lon="13.720163909835586"><ele>71.0</ele><time>2026-04-12T09:58:42.928Z</time></trkpt><trkpt lat="45.067977741082395" lon="13.720260541592118"><ele>71.0</ele><time>2026-04-12T09:58:43.928Z</time></trkpt><trkpt lat="45.068060972374134" lon="13.720372296077583"><ele>70.5</ele><time>2026-04-12T09:58:44.928Z</time></trkpt><trkpt lat="45.068134445484084" lon="13.720490353505305"><ele>70.0</ele><time>2026-04-12T09:58:45.928Z</time></trkpt><trkpt lat="45.06820060679298" lon="13.720624659791675"><ele>69.5</ele><time>2026-04-12T09:58:46.928Z</time></trkpt><trkpt lat="45.06825612316939" lon="13.720786781043062"><ele>69.0</ele><time>2026-04-12T09:58:47.928Z</time></trkpt><trkpt lat="45.0683235040733" lon="13.720960992906507"><ele>69.75</ele><time>2026-04-12T09:58:48.928Z</time></trkpt><trkpt lat="45.06839392983344" lon="13.7211600939914"><ele>70.5</ele><time>2026-04-12T09:58:49.928Z</time></trkpt><trkpt lat="45.068472488753414" lon="13.721334761142511"><ele>71.25</ele><time>2026-04-12T09:58:50.928Z</time></trkpt><trkpt lat="45.068544090097454" lon="13.7214893419716"><ele>72.0</ele><time>2026-04-12T09:58:51.928Z</time></trkpt><trkpt lat="45.06861080050381" lon="13.721628822393862"><ele>72.0</ele><time>2026-04-12T09:58:52.928Z</time></trkpt><trkpt lat="45.06867372033052" lon="13.72173062427649"><ele>72.0</ele><time>2026-04-12T09:58:53.928Z</time></trkpt><trkpt lat="45.068723778529545" lon="13.721808218937957"><ele>72.0</ele><time>2026-04-12T09:58:54.928Z</time></trkpt><trkpt lat="45.06878336226257" lon="13.721863879496016"><ele>72.0</ele><time>2026-04-12T09:58:55.928Z</time></trkpt><trkpt lat="45.06884750442992" lon="13.721902862826699"><ele>72.0</ele><time>2026-04-12T09:58:56.928Z</time></trkpt><trkpt lat="45.068931393347626" lon="13.721923914024218"><ele>72.0</ele><time>2026-04-12T09:58:57.928Z</time></trkpt><trkpt lat="45.06902357475535" lon="13.721954931711927"><ele>73.0</ele><time>2026-04-12T09:58:58.928Z</time></trkpt><trkpt lat="45.06912480358722" lon="13.722018653289961"><ele>74.0</ele><time>2026-04-12T09:58:59.928Z</time></trkpt><trkpt lat="45.06923719309162" lon="13.7221068308967"><ele>75.0</ele><time>2026-04-12T09:59:00.928Z</time></trkpt><trkpt lat="45.06936117534965" lon="13.722176521107986"><ele>76.0</ele><time>2026-04-12T09:59:01.928Z</time></trkpt><trkpt lat="45.06948814249111" lon="13.72222995533266"><ele>76.0</ele><time>2026-04-12T09:59:02.928Z</time></trkpt><trkpt lat="45.0696051741729" lon="13.722273591680102"><ele>76.0</ele><time>2026-04-12T09:59:03.928Z</time></trkpt><trkpt lat="45.06971920298729" lon="13.72232407959118"><ele>76.0</ele><time>2026-04-12T09:59:04.928Z</time></trkpt><trkpt lat="45.06983445421405" lon="13.722394813863335"><ele>76.0</ele><time>2026-04-12T09:59:05.928Z</time></trkpt><trkpt lat="45.0699328097564" lon="13.722463437375593"><ele>76.6</ele><time>2026-04-12T09:59:06.928Z</time></trkpt><trkpt lat="45.070023760236715" lon="13.722529682749595"><ele>77.19999999999999</ele><time>2026-04-12T09:59:07.928Z</time></trkpt><trkpt lat="45.07007829038193" lon="13.722640549131668"><ele>77.80000000000001</ele><time>2026-04-12T09:59:08.928Z</time></trkpt><trkpt lat="45.070138016907805" lon="13.72267933227416"><ele>78.4</ele><time>2026-04-12T09:59:09.928Z</time></trkpt><trkpt lat="45.070221658018056" lon="13.722699762196466"><ele>79.0</ele><time>2026-04-12T09:59:11.928Z</time></trkpt><trkpt lat="45.07032989370028" lon="13.72264116140344"><ele>79.0</ele><time>2026-04-12T09:59:13.928Z</time></trkpt><trkpt lat="45.07041266030596" lon="13.72262605526656"><ele>79.0</ele><time>2026-04-12T09:59:14.928Z</time></trkpt><trkpt lat="45.07049160201134" lon="13.722628261591368"><ele>79.0</ele><time>2026-04-12T09:59:15.928Z</time></trkpt><trkpt lat="45.07058074110543" lon="13.72263017722741"><ele>79.0</ele><time>2026-04-12T09:59:16.928Z</time></trkpt><trkpt lat="45.070671188385425" lon="13.722642158152272"><ele>79.0</ele><time>2026-04-12T09:59:17.928Z</time></trkpt><trkpt lat="45.07077757795903" lon="13.722667686865352"><ele>79.80000000000001</ele><time>2026-04-12T09:59:18.928Z</time></trkpt><trkpt lat="45.07087593260241" lon="13.722698816768817"><ele>80.60000000000001</ele><time>2026-04-12T09:59:19.928Z</time></trkpt><trkpt lat="45.07096638049399" lon="13.722716272318921"><ele>81.4</ele><time>2026-04-12T09:59:20.928Z</time></trkpt><trkpt lat="45.07107970482235" lon="13.722716568719948"><ele>82.2</ele><time>2026-04-12T09:59:21.928Z</time></trkpt><trkpt lat="45.0711880745817" lon="13.722710259552294"><ele>83.0</ele><time>2026-04-12T09:59:22.928Z</time></trkpt><trkpt lat="45.071298371227826" lon="13.722712706752073"><ele>83.0</ele><time>2026-04-12T09:59:23.928Z</time></trkpt><trkpt lat="45.071404670365965" lon="13.722720309700234"><ele>83.0</ele><time>2026-04-12T09:59:24.928Z</time></trkpt><trkpt lat="45.071509660947875" lon="13.722744932626597"><ele>83.0</ele><time>2026-04-12T09:59:25.928Z</time></trkpt><trkpt lat="45.07160493952504" lon="13.722796359800283"><ele>83.0</ele><time>2026-04-12T09:59:26.928Z</time></trkpt><trkpt lat="45.071693472095035" lon="13.722901025576332"><ele>83.0</ele><time>2026-04-12T09:59:27.928Z</time></trkpt><trkpt lat="45.071801219621996" lon="13.72296100820457"><ele>84.0</ele><time>2026-04-12T09:59:28.928Z</time></trkpt><trkpt lat="45.07192324265707" lon="13.722998114414608"><ele>85.0</ele><time>2026-04-12T09:59:29.928Z</time></trkpt><trkpt lat="45.07204711959816" lon="13.723052329211678"><ele>86.0</ele><time>2026-04-12T09:59:30.928Z</time></trkpt><trkpt lat="45.072177020875785" lon="13.723089227128753"><ele>87.0</ele><time>2026-04-12T09:59:31.928Z</time></trkpt><trkpt lat="45.07230143839129" lon="13.723147129579315"><ele>87.0</ele><time>2026-04-12T09:59:32.928Z</time></trkpt><trkpt lat="45.07243569097442" lon="13.723200410770467"><ele>87.0</ele><time>2026-04-12T09:59:33.928Z</time></trkpt><trkpt lat="45.07256422444008" lon="13.723268015253957"><ele>87.0</ele><time>2026-04-12T09:59:34.928Z</time></trkpt><trkpt lat="45.072686886564725" lon="13.723311380364976"><ele>87.0</ele><time>2026-04-12T09:59:35.928Z</time></trkpt><trkpt lat="45.07280077184815" lon="13.72330322370456"><ele>87.6</ele><time>2026-04-12T09:59:36.928Z</time></trkpt><trkpt lat="45.07290032764433" lon="13.723312636701323"><ele>88.19999999999999</ele><time>2026-04-12T09:59:37.928Z</time></trkpt><trkpt lat="45.072991474018814" lon="13.723280039261278"><ele>88.8</ele><time>2026-04-12T09:59:38.928Z</time></trkpt><trkpt lat="45.07309123134651" lon="13.723206495702224"><ele>89.4</ele><time>2026-04-12T09:59:39.928Z</time></trkpt><trkpt lat="45.07318793376378" lon="13.723120650830403"><ele>90.0</ele><time>2026-04-12T09:59:40.928Z</time></trkpt><trkpt lat="45.073256605741584" lon="13.723032813796271"><ele>91.2</ele><time>2026-04-12T09:59:41.928Z</time></trkpt><trkpt lat="45.07332416815108" lon="13.722964260886688"><ele>92.4</ele><time>2026-04-12T09:59:42.928Z</time></trkpt><trkpt lat="45.07339498877666" lon="13.722917212437414"><ele>93.6</ele><time>2026-04-12T09:59:43.928Z</time></trkpt><trkpt lat="45.07349306160619" lon="13.722896148116021"><ele>94.8</ele><time>2026-04-12T09:59:44.928Z</time></trkpt><trkpt lat="45.073579734155366" lon="13.722917454113455"><ele>96.0</ele><time>2026-04-12T09:59:45.928Z</time></trkpt><trkpt lat="45.0736818142486" lon="13.722933601603383"><ele>96.0</ele><time>2026-04-12T09:59:46.928Z</time></trkpt><trkpt lat="45.07381438236891" lon="13.722955986741123"><ele>96.0</ele><time>2026-04-12T09:59:47.928Z</time></trkpt><trkpt lat="45.07392697552914" lon="13.722953355306394"><ele>96.0</ele><time>2026-04-12T09:59:48.928Z</time></trkpt><trkpt lat="45.074022531462845" lon="13.722995575240219"><ele>96.0</ele><time>2026-04-12T09:59:49.928Z</time></trkpt><trkpt lat="45.07412477330731" lon="13.723001365123624"><ele>96.0</ele><time>2026-04-12T09:59:50.928Z</time></trkpt><trkpt lat="45.07422824880234" lon="13.723048947564868"><ele>96.8</ele><time>2026-04-12T09:59:51.928Z</time></trkpt><trkpt lat="45.0743055232479" lon="13.72313102140392"><ele>97.6</ele><time>2026-04-12T09:59:52.928Z</time></trkpt><trkpt lat="45.07436756424083" lon="13.723230777305222"><ele>98.4</ele><time>2026-04-12T09:59:53.928Z</time></trkpt><trkpt lat="45.07443696650552" lon="13.723337329526078"><ele>99.2</ele><time>2026-04-12T09:59:54.928Z</time></trkpt><trkpt lat="45.074499671180874" lon="13.723440144888578"><ele>100.0</ele><time>2026-04-12T09:59:55.928Z</time></trkpt><trkpt lat="45.074562454308044" lon="13.723532765382794"><ele>100.2</ele><time>2026-04-12T09:59:56.928Z</time></trkpt><trkpt lat="45.07465667956326" lon="13.72360096550541"><ele>100.4</ele><time>2026-04-12T09:59:57.928Z</time></trkpt><trkpt lat="45.074757161350476" lon="13.723601254618242"><ele>100.6</ele><time>2026-04-12T09:59:58.928Z</time></trkpt><trkpt lat="45.074847844013675" lon="13.723598921984046"><ele>100.8</ele><time>2026-04-12T09:59:59.928Z</time></trkpt><trkpt lat="45.074953235315746" lon="13.723574117271111"><ele>101.0</ele><time>2026-04-12T10:00:00.928Z</time></trkpt><trkpt lat="45.075064784250785" lon="13.723504138457823"><ele>100.5</ele><time>2026-04-12T10:00:01.928Z</time></trkpt><trkpt lat="45.07517737024138" lon="13.723450585877492"><ele>100.0</ele><time>2026-04-12T10:00:02.928Z</time></trkpt><trkpt lat="45.07528804216014" lon="13.723406993883398"><ele>99.5</ele><time>2026-04-12T10:00:03.928Z</time></trkpt><trkpt lat="45.075398451898224" lon="13.7233418566012"><ele>99.0</ele><time>2026-04-12T10:00:04.928Z</time></trkpt><trkpt lat="45.075535245057104" lon="13.723321184706796"><ele>99.0</ele><time>2026-04-12T10:00:05.928Z</time></trkpt><trkpt lat="45.07567339525669" lon="13.723282978505853"><ele>99.0</ele><time>2026-04-12T10:00:06.928Z</time></trkpt><trkpt lat="45.07578726042131" lon="13.72323590300665"><ele>99.0</ele><time>2026-04-12T10:00:07.928Z</time></trkpt><trkpt lat="45.07589550717647" lon="13.723213082614565"><ele>99.0</ele><time>2026-04-12T10:00:08.928Z</time></trkpt><trkpt lat="45.075997265373026" lon="13.723190256731247"><ele>99.4</ele><time>2026-04-12T10:00:09.928Z</time></trkpt><trkpt lat="45.07609051405245" lon="13.723147733611501"><ele>99.80000000000001</ele><time>2026-04-12T10:00:10.928Z</time></trkpt><trkpt lat="45.076181520356265" lon="13.723064429927222"><ele>100.19999999999999</ele><time>2026-04-12T10:00:11.928Z</time></trkpt><trkpt lat="45.07627056748468" lon="13.722957909212852"><ele>100.6</ele><time>2026-04-12T10:00:12.928Z</time></trkpt><trkpt lat="45.07637579572668" lon="13.722875916277843"><ele>101.0</ele><time>2026-04-12T10:00:13.928Z</time></trkpt><trkpt lat="45.07648126571415" lon="13.722803199947851"><ele>100.4</ele><time>2026-04-12T10:00:14.928Z</time></trkpt><trkpt lat="45.076592055803886" lon="13.722729177597717"><ele>99.8</ele><time>2026-04-12T10:00:15.928Z</time></trkpt><trkpt lat="45.076691854711584" lon="13.722663307235877"><ele>99.2</ele><time>2026-04-12T10:00:16.928Z</time></trkpt><trkpt lat="45.07677838262907" lon="13.722612030766351"><ele>98.60000000000001</ele><time>2026-04-12T10:00:17.928Z</time></trkpt><trkpt lat="45.07687247991334" lon="13.722574962653523"><ele>98.0</ele><time>2026-04-12T10:00:18.928Z</time></trkpt><trkpt lat="45.07698132225482" lon="13.722575083275075"><ele>98.0</ele><time>2026-04-12T10:00:19.928Z</time></trkpt><trkpt lat="45.07710241804453" lon="13.72255709613157"><ele>98.0</ele><time>2026-04-12T10:00:20.928Z</time></trkpt><trkpt lat="45.07720686274359" lon="13.722557316956516"><ele>98.0</ele><time>2026-04-12T10:00:21.928Z</time></trkpt><trkpt lat="45.07732134806527" lon="13.722538697045254"><ele>98.0</ele><time>2026-04-12T10:00:22.928Z</time></trkpt><trkpt lat="45.07744336813799" lon="13.722484061042262"><ele>98.75</ele><time>2026-04-12T10:00:23.928Z</time></trkpt><trkpt lat="45.077579104058245" lon="13.722462110103072"><ele>99.5</ele><time>2026-04-12T10:00:24.928Z</time></trkpt><trkpt lat="45.07770195864819" lon="13.722402215013556"><ele>100.25</ele><time>2026-04-12T10:00:25.928Z</time></trkpt><trkpt lat="45.077834295216576" lon="13.722387389709201"><ele>101.0</ele><time>2026-04-12T10:00:26.928Z</time></trkpt><trkpt lat="45.0779660432315" lon="13.722353184750334"><ele>101.0</ele><time>2026-04-12T10:00:27.928Z</time></trkpt><trkpt lat="45.078111014052666" lon="13.722320058501532"><ele>101.0</ele><time>2026-04-12T10:00:28.928Z</time></trkpt><trkpt lat="45.07824468704673" lon="13.722294297368794"><ele>101.0</ele><time>2026-04-12T10:00:29.928Z</time></trkpt><trkpt lat="45.07836842620904" lon="13.72227611273121"><ele>101.0</ele><time>2026-04-12T10:00:30.928Z</time></trkpt><trkpt lat="45.07848622877133" lon="13.722269193404449"><ele>102.0</ele><time>2026-04-12T10:00:31.928Z</time></trkpt><trkpt lat="45.07860840573871" lon="13.722279990950991"><ele>103.0</ele><time>2026-04-12T10:00:32.928Z</time></trkpt><trkpt lat="45.07872114708723" lon="13.72230058894802"><ele>104.0</ele><time>2026-04-12T10:00:33.928Z</time></trkpt><trkpt lat="45.07882866060193" lon="13.722323244605176"><ele>105.0</ele><time>2026-04-12T10:00:34.928Z</time></trkpt><trkpt lat="45.07894779480611" lon="13.722351211410716"><ele>105.0</ele><time>2026-04-12T10:00:35.928Z</time></trkpt><trkpt lat="45.07905508894473" lon="13.722381067739411"><ele>105.0</ele><time>2026-04-12T10:00:36.928Z</time></trkpt><trkpt lat="45.07914876680193" lon="13.72241560513359"><ele>105.0</ele><time>2026-04-12T10:00:37.928Z</time></trkpt><trkpt lat="45.079236670081144" lon="13.722438073529563"><ele>105.0</ele><time>2026-04-12T10:00:38.928Z</time></trkpt><trkpt lat="45.07932978365349" lon="13.72245282194192"><ele>105.0</ele><time>2026-04-12T10:00:39.927Z</time></trkpt><trkpt lat="45.079414987238486" lon="13.722416826098126"><ele>104.75</ele><time>2026-04-12T10:00:40.928Z</time></trkpt><trkpt lat="45.079513490636245" lon="13.722377355086149"><ele>104.5</ele><time>2026-04-12T10:00:41.928Z</time></trkpt><trkpt lat="45.07963464814004" lon="13.722356506996908"><ele>104.25</ele><time>2026-04-12T10:00:42.928Z</time></trkpt><trkpt lat="45.079767928462275" lon="13.722321161070564"><ele>104.0</ele><time>2026-04-12T10:00:43.928Z</time></trkpt><trkpt lat="45.07987788072605" lon="13.722291931124243"><ele>104.25</ele><time>2026-04-12T10:00:44.928Z</time></trkpt><trkpt lat="45.07998232395618" lon="13.722239440075725"><ele>104.5</ele><time>2026-04-12T10:00:45.928Z</time></trkpt><trkpt lat="45.08008141642068" lon="13.72214827172036"><ele>104.75</ele><time>2026-04-12T10:00:46.927Z</time></trkpt><trkpt lat="45.080216880133584" lon="13.722051213585983"><ele>105.0</ele><time>2026-04-12T10:00:47.927Z</time></trkpt><trkpt lat="45.08034763406108" lon="13.721962308490706"><ele>105.25</ele><time>2026-04-12T10:00:48.927Z</time></trkpt><trkpt lat="45.08047271757327" lon="13.72187382844944"><ele>105.5</ele><time>2026-04-12T10:00:49.927Z</time></trkpt><trkpt lat="45.08059474185291" lon="13.72178783698758"><ele>105.75</ele><time>2026-04-12T10:00:50.927Z</time></trkpt><trkpt lat="45.08071810302917" lon="13.721692193354777"><ele>106.0</ele><time>2026-04-12T10:00:51.928Z</time></trkpt><trkpt lat="45.080832583014946" lon="13.721612972644206"><ele>106.0</ele><time>2026-04-12T10:00:52.928Z</time></trkpt><trkpt lat="45.08093389515052" lon="13.72154809564427"><ele>106.0</ele><time>2026-04-12T10:00:53.928Z</time></trkpt><trkpt lat="45.08103922206401" lon="13.721485624806947"><ele>106.0</ele><time>2026-04-12T10:00:54.928Z</time></trkpt><trkpt lat="45.08115147181385" lon="13.721469431806831"><ele>106.0</ele><time>2026-04-12T10:00:55.928Z</time></trkpt><trkpt lat="45.08126532466598" lon="13.721421044269345"><ele>106.0</ele><time>2026-04-12T10:00:56.928Z</time></trkpt><trkpt lat="45.08136729976788" lon="13.721331348813285"><ele>106.0</ele><time>2026-04-12T10:00:57.928Z</time></trkpt><trkpt lat="45.08145502846663" lon="13.721255663352421"><ele>106.0</ele><time>2026-04-12T10:00:58.928Z</time></trkpt><trkpt lat="45.08154239699089" lon="13.721182962907054"><ele>106.0</ele><time>2026-04-12T10:00:59.928Z</time></trkpt><trkpt lat="45.08160144582072" lon="13.721099936960778"><ele>106.0</ele><time>2026-04-12T10:01:00.928Z</time></trkpt><trkpt lat="45.08165397596167" lon="13.721009666841558"><ele>106.4</ele><time>2026-04-12T10:01:01.928Z</time></trkpt><trkpt lat="45.0817030508796" lon="13.72090828548024"><ele>106.8</ele><time>2026-04-12T10:01:02.928Z</time></trkpt><trkpt lat="45.081781406397674" lon="13.720833355048454"><ele>107.20000000000002</ele><time>2026-04-12T10:01:04.928Z</time></trkpt><trkpt lat="45.08184242250144" lon="13.720904387876065"><ele>107.60000000000001</ele><time>2026-04-12T10:01:06.928Z</time></trkpt><trkpt lat="45.081981230879144" lon="13.720938999163073"><ele>108.0</ele><time>2026-04-12T10:01:08.928Z</time></trkpt><trkpt lat="45.0820725306248" lon="13.721001731284364"><ele>108.0</ele><time>2026-04-12T10:01:09.928Z</time></trkpt><trkpt lat="45.08218015261708" lon="13.721028630227279"><ele>108.0</ele><time>2026-04-12T10:01:10.928Z</time></trkpt><trkpt lat="45.08228753723085" lon="13.721096505029498"><ele>108.0</ele><time>2026-04-12T10:01:11.928Z</time></trkpt><trkpt lat="45.08240909344292" lon="13.721130864905943"><ele>108.0</ele><time>2026-04-12T10:01:12.928Z</time></trkpt><trkpt lat="45.08253465912308" lon="13.72118721601707"><ele>109.0</ele><time>2026-04-12T10:01:13.928Z</time></trkpt><trkpt lat="45.08265047984794" lon="13.721242134411906"><ele>110.00000000000001</ele><time>2026-04-12T10:01:14.928Z</time></trkpt><trkpt lat="45.08275055561636" lon="13.721278216479016"><ele>111.00000000000001</ele><time>2026-04-12T10:01:15.928Z</time></trkpt><trkpt lat="45.08283336951617" lon="13.721327476144955"><ele>112.0</ele><time>2026-04-12T10:01:16.928Z</time></trkpt><trkpt lat="45.08291738158342" lon="13.721393362134412"><ele>113.0</ele><time>2026-04-12T10:01:17.928Z</time></trkpt><trkpt lat="45.08298813791998" lon="13.721473463744289"><ele>113.0</ele><time>2026-04-12T10:01:18.928Z</time></trkpt><trkpt lat="45.08304498382014" lon="13.72155201103448"><ele>113.00000000000001</ele><time>2026-04-12T10:01:19.928Z</time></trkpt><trkpt lat="45.08309855202219" lon="13.721648354174704"><ele>113.00000000000001</ele><time>2026-04-12T10:01:20.928Z</time></trkpt><trkpt lat="45.08314033880791" lon="13.721768669720928"><ele>113.0</ele><time>2026-04-12T10:01:21.928Z</time></trkpt><trkpt lat="45.08318933030607" lon="13.721889335503374"><ele>113.0</ele><time>2026-04-12T10:01:22.928Z</time></trkpt><trkpt lat="45.08325198918766" lon="13.721985084004055"><ele>114.66666666666666</ele><time>2026-04-12T10:01:23.928Z</time></trkpt><trkpt lat="45.083317058310634" lon="13.722050930692612"><ele>116.33333333333333</ele><time>2026-04-12T10:01:24.928Z</time></trkpt><trkpt lat="45.08337929126232" lon="13.722115657835895"><ele>118.0</ele><time>2026-04-12T10:01:25.928Z</time></trkpt><trkpt lat="45.083448975416545" lon="13.722163604191177"><ele>119.66666666666666</ele><time>2026-04-12T10:01:26.928Z</time></trkpt><trkpt lat="45.08353883930447" lon="13.722154628727903"><ele>121.33333333333333</ele><time>2026-04-12T10:01:27.928Z</time></trkpt><trkpt lat="45.08362914918258" lon="13.722169049190468"><ele>123.0</ele><time>2026-04-12T10:01:28.928Z</time></trkpt><trkpt lat="45.083745973992166" lon="13.722168402303266"><ele>123.0</ele><time>2026-04-12T10:01:29.928Z</time></trkpt><trkpt lat="45.08384919382395" lon="13.722184094062621"><ele>123.0</ele><time>2026-04-12T10:01:30.928Z</time></trkpt><trkpt lat="45.08395016491455" lon="13.722192633842045"><ele>123.0</ele><time>2026-04-12T10:01:31.928Z</time></trkpt><trkpt lat="45.08402887583614" lon="13.722203734240681"><ele>123.0</ele><time>2026-04-12T10:01:32.928Z</time></trkpt><trkpt lat="45.08409573133252" lon="13.722253483782028"><ele>123.0</ele><time>2026-04-12T10:01:33.928Z</time></trkpt><trkpt lat="45.084157812866884" lon="13.722317028393853"><ele>123.0</ele><time>2026-04-12T10:01:34.928Z</time></trkpt><trkpt lat="45.08422810604887" lon="13.72245754894933"><ele>124.0</ele><time>2026-04-12T10:01:36.928Z</time></trkpt><trkpt lat="45.084256997864834" lon="13.72259580273569"><ele>125.00000000000001</ele><time>2026-04-12T10:01:38.928Z</time></trkpt><trkpt lat="45.084310644704345" lon="13.722650950181928"><ele>126.00000000000001</ele><time>2026-04-12T10:01:39.928Z</time></trkpt><trkpt lat="45.08444141986036" lon="13.722678734022248"><ele>127.0</ele><time>2026-04-12T10:01:41.928Z</time></trkpt><trkpt lat="45.08451679134452" lon="13.72265745931033"><ele>128.0</ele><time>2026-04-12T10:01:42.928Z</time></trkpt><trkpt lat="45.08460893467486" lon="13.722629519323075"><ele>128.0</ele><time>2026-04-12T10:01:43.928Z</time></trkpt><trkpt lat="45.08470272120632" lon="13.722612101578237"><ele>128.0</ele><time>2026-04-12T10:01:44.928Z</time></trkpt><trkpt lat="45.084804614102495" lon="13.722605710237486"><ele>128.0</ele><time>2026-04-12T10:01:45.928Z</time></trkpt><trkpt lat="45.08489632973946" lon="13.722615965513578"><ele>128.0</ele><time>2026-04-12T10:01:46.928Z</time></trkpt><trkpt lat="45.08497782629482" lon="13.72263004282168"><ele>128.0</ele><time>2026-04-12T10:01:47.928Z</time></trkpt><trkpt lat="45.08506068160152" lon="13.722644848619689"><ele>128.6</ele><time>2026-04-12T10:01:48.928Z</time></trkpt><trkpt lat="45.085133822892246" lon="13.722661341973183"><ele>129.20000000000002</ele><time>2026-04-12T10:01:49.928Z</time></trkpt><trkpt lat="45.08525000368503" lon="13.722682970561182"><ele>129.8</ele><time>2026-04-12T10:01:51.928Z</time></trkpt><trkpt lat="45.0853702214831" lon="13.722735342786192"><ele>130.4</ele><time>2026-04-12T10:01:53.928Z</time></trkpt><trkpt lat="45.085451513146275" lon="13.722739422977027"><ele>131.0</ele><time>2026-04-12T10:01:54.928Z</time></trkpt><trkpt lat="45.085528597650324" lon="13.72271439221902"><ele>131.2</ele><time>2026-04-12T10:01:55.928Z</time></trkpt><trkpt lat="45.08561062954944" lon="13.722647067997848"><ele>131.39999999999998</ele><time>2026-04-12T10:01:56.928Z</time></trkpt><trkpt lat="45.08569197023607" lon="13.722566627446287"><ele>131.6</ele><time>2026-04-12T10:01:57.928Z</time></trkpt><trkpt lat="45.08579536424042" lon="13.722514818754563"><ele>131.79999999999998</ele><time>2026-04-12T10:01:58.928Z</time></trkpt><trkpt lat="45.08591600011589" lon="13.72246160736828"><ele>132.0</ele><time>2026-04-12T10:01:59.928Z</time></trkpt><trkpt lat="45.086029362937005" lon="13.722406171510185"><ele>132.25</ele><time>2026-04-12T10:02:00.928Z</time></trkpt><trkpt lat="45.08616443126023" lon="13.722318297738093"><ele>132.5</ele><time>2026-04-12T10:02:01.928Z</time></trkpt><trkpt lat="45.086270032281035" lon="13.722198852763674"><ele>132.75</ele><time>2026-04-12T10:02:02.928Z</time></trkpt><trkpt lat="45.086387147074326" lon="13.722074920733695"><ele>133.0</ele><time>2026-04-12T10:02:03.928Z</time></trkpt><trkpt lat="45.08648920475291" lon="13.721949020813364"><ele>133.0</ele><time>2026-04-12T10:02:04.928Z</time></trkpt><trkpt lat="45.0865803902217" lon="13.721828800594679"><ele>133.0</ele><time>2026-04-12T10:02:05.928Z</time></trkpt><trkpt lat="45.08666588891333" lon="13.721702123144652"><ele>133.0</ele><time>2026-04-12T10:02:06.928Z</time></trkpt><trkpt lat="45.0867678843926" lon="13.721577953066493"><ele>133.0</ele><time>2026-04-12T10:02:07.928Z</time></trkpt><trkpt lat="45.08685061535934" lon="13.72142238878159"><ele>133.0</ele><time>2026-04-12T10:02:08.928Z</time></trkpt><trkpt lat="45.086932360995355" lon="13.721303804641096"><ele>133.0</ele><time>2026-04-12T10:02:09.928Z</time></trkpt><trkpt lat="45.086984573522486" lon="13.721169958571211"><ele>133.0</ele><time>2026-04-12T10:02:10.928Z</time></trkpt><trkpt lat="45.08697092082859" lon="13.72102668816518"><ele>133.0</ele><time>2026-04-12T10:02:11.928Z</time></trkpt><trkpt lat="45.08698640035475" lon="13.72090261481882"><ele>133.0</ele><time>2026-04-12T10:02:12.928Z</time></trkpt><trkpt lat="45.08701419851844" lon="13.720768970045663"><ele>133.20000000000002</ele><time>2026-04-12T10:02:13.928Z</time></trkpt><trkpt lat="45.08708057892444" lon="13.720660895219796"><ele>133.4</ele><time>2026-04-12T10:02:14.928Z</time></trkpt><trkpt lat="45.087144120046574" lon="13.720575471738085"><ele>133.60000000000002</ele><time>2026-04-12T10:02:15.928Z</time></trkpt><trkpt lat="45.087208477382994" lon="13.7204795167063"><ele>133.8</ele><time>2026-04-12T10:02:16.928Z</time></trkpt><trkpt lat="45.08731362953086" lon="13.720436132225462"><ele>134.0</ele><time>2026-04-12T10:02:17.928Z</time></trkpt><trkpt lat="45.08742331120277" lon="13.720388132393282"><ele>133.5</ele><time>2026-04-12T10:02:18.928Z</time></trkpt><trkpt lat="45.08752367633214" lon="13.720355832621957"><ele>133.0</ele><time>2026-04-12T10:02:19.928Z</time></trkpt><trkpt lat="45.08763667166185" lon="13.720393456625715"><ele>132.5</ele><time>2026-04-12T10:02:20.928Z</time></trkpt><trkpt lat="45.08777353902933" lon="13.720389955197213"><ele>132.0</ele><time>2026-04-12T10:02:21.928Z</time></trkpt><trkpt lat="45.08791895382439" lon="13.72040741701257"><ele>132.0</ele><time>2026-04-12T10:02:22.928Z</time></trkpt><trkpt lat="45.08806212939368" lon="13.72042328018056"><ele>132.0</ele><time>2026-04-12T10:02:23.928Z</time></trkpt><trkpt lat="45.08819028302045" lon="13.720425071669252"><ele>132.0</ele><time>2026-04-12T10:02:24.928Z</time></trkpt><trkpt lat="45.088317755954904" lon="13.720425318558416"><ele>132.0</ele><time>2026-04-12T10:02:25.928Z</time></trkpt><trkpt lat="45.08844805610484" lon="13.720403655781418"><ele>132.75</ele><time>2026-04-12T10:02:26.928Z</time></trkpt><trkpt lat="45.088570217623825" lon="13.720368014466949"><ele>133.5</ele><time>2026-04-12T10:02:27.928Z</time></trkpt><trkpt lat="45.0886937826683" lon="13.7203177760526"><ele>134.25</ele><time>2026-04-12T10:02:28.928Z</time></trkpt><trkpt lat="45.088814406700315" lon="13.720262437321365"><ele>135.0</ele><time>2026-04-12T10:02:29.928Z</time></trkpt><trkpt lat="45.08893074860638" lon="13.72021871000942"><ele>135.25</ele><time>2026-04-12T10:02:30.928Z</time></trkpt><trkpt lat="45.089035382200294" lon="13.720180434378621"><ele>135.5</ele><time>2026-04-12T10:02:31.928Z</time></trkpt><trkpt lat="45.08913240610274" lon="13.720138144426702"><ele>135.75</ele><time>2026-04-12T10:02:32.928Z</time></trkpt><trkpt lat="45.08923725501851" lon="13.720063442469916"><ele>136.0</ele><time>2026-04-12T10:02:33.928Z</time></trkpt><trkpt lat="45.08933705871613" lon="13.719957315902363"><ele>136.75</ele><time>2026-04-12T10:02:34.928Z</time></trkpt><trkpt lat="45.08945612231591" lon="13.7198425932075"><ele>137.5</ele><time>2026-04-12T10:02:35.928Z</time></trkpt><trkpt lat="45.08955752334692" lon="13.719747397622298"><ele>138.25</ele><time>2026-04-12T10:02:36.928Z</time></trkpt><trkpt lat="45.08965008429193" lon="13.719648412784316"><ele>139.0</ele><time>2026-04-12T10:02:37.928Z</time></trkpt><trkpt lat="45.089735499219984" lon="13.719538131384608"><ele>139.0</ele><time>2026-04-12T10:02:38.928Z</time></trkpt><trkpt lat="45.08982830433814" lon="13.719475163541606"><ele>139.0</ele><time>2026-04-12T10:02:39.928Z</time></trkpt><trkpt lat="45.08993156204601" lon="13.719413400963854"><ele>139.0</ele><time>2026-04-12T10:02:40.928Z</time></trkpt><trkpt lat="45.090046103185315" lon="13.719365094254274"><ele>139.0</ele><time>2026-04-12T10:02:41.928Z</time></trkpt><trkpt lat="45.090163909845735" lon="13.719325022382426"><ele>139.4</ele><time>2026-04-12T10:02:42.928Z</time></trkpt><trkpt lat="45.09028510001485" lon="13.71930237600081"><ele>139.8</ele><time>2026-04-12T10:02:43.928Z</time></trkpt><trkpt lat="45.09038728430707" lon="13.719298423660637"><ele>140.2</ele><time>2026-04-12T10:02:44.928Z</time></trkpt><trkpt lat="45.09048760185015" lon="13.719290945589261"><ele>140.6</ele><time>2026-04-12T10:02:45.928Z</time></trkpt><trkpt lat="45.09057567220839" lon="13.719261206738187"><ele>141.0</ele><time>2026-04-12T10:02:46.927Z</time></trkpt><trkpt lat="45.09064869029803" lon="13.719223284865986"><ele>141.0</ele><time>2026-04-12T10:02:47.927Z</time></trkpt><trkpt lat="45.090725754150014" lon="13.719152593613652"><ele>141.0</ele><time>2026-04-12T10:02:48.927Z</time></trkpt><trkpt lat="45.090806106996936" lon="13.719086092067931"><ele>141.0</ele><time>2026-04-12T10:02:49.928Z</time></trkpt><trkpt lat="45.09088568616952" lon="13.719084935590093"><ele>141.0</ele><time>2026-04-12T10:02:50.928Z</time></trkpt><trkpt lat="45.09097019906284" lon="13.719078633360013"><ele>141.0</ele><time>2026-04-12T10:02:51.927Z</time></trkpt><trkpt lat="45.09106442088415" lon="13.719041369786318"><ele>141.0</ele><time>2026-04-12T10:02:52.928Z</time></trkpt><trkpt lat="45.09118119325021" lon="13.719041313342057"><ele>142.25</ele><time>2026-04-12T10:02:53.928Z</time></trkpt><trkpt lat="45.091303526507716" lon="13.719001005245667"><ele>143.5</ele><time>2026-04-12T10:02:54.927Z</time></trkpt><trkpt lat="45.09144520832115" lon="13.718999182419742"><ele>144.75</ele><time>2026-04-12T10:02:55.927Z</time></trkpt><trkpt lat="45.09158189047891" lon="13.718997581506759"><ele>146.0</ele><time>2026-04-12T10:02:56.927Z</time></trkpt><trkpt lat="45.09169777158072" lon="13.718973496219926"><ele>147.0</ele><time>2026-04-12T10:02:57.928Z</time></trkpt><trkpt lat="45.091792533376044" lon="13.71895992782308"><ele>148.0</ele><time>2026-04-12T10:02:58.928Z</time></trkpt><trkpt lat="45.09187504502147" lon="13.718923392239649"><ele>149.0</ele><time>2026-04-12T10:02:59.928Z</time></trkpt><trkpt lat="45.091966077139894" lon="13.718990979668309"><ele>150.0</ele><time>2026-04-12T10:03:00.928Z</time></trkpt><trkpt lat="45.092057234805075" lon="13.718978140954153"><ele>151.0</ele><time>2026-04-12T10:03:01.928Z</time></trkpt><trkpt lat="45.09214368772259" lon="13.718926146673878"><ele>151.0</ele><time>2026-04-12T10:03:02.928Z</time></trkpt><trkpt lat="45.09223797462398" lon="13.71888967041381"><ele>151.0</ele><time>2026-04-12T10:03:03.928Z</time></trkpt><trkpt lat="45.092324615872684" lon="13.718864603042762"><ele>151.0</ele><time>2026-04-12T10:03:04.928Z</time></trkpt><trkpt lat="45.09243005669988" lon="13.718826644585793"><ele>151.0</ele><time>2026-04-12T10:03:05.928Z</time></trkpt><trkpt lat="45.092544442440776" lon="13.718788481723548"><ele>151.0</ele><time>2026-04-12T10:03:06.928Z</time></trkpt><trkpt lat="45.09265981694883" lon="13.718731665507129"><ele>151.8</ele><time>2026-04-12T10:03:07.928Z</time></trkpt><trkpt lat="45.092761435154586" lon="13.7186797945914"><ele>152.6</ele><time>2026-04-12T10:03:08.928Z</time></trkpt><trkpt lat="45.09285911146215" lon="13.718633495758596"><ele>153.4</ele><time>2026-04-12T10:03:09.928Z</time></trkpt><trkpt lat="45.09295797175961" lon="13.71860204902917"><ele>154.2</ele><time>2026-04-12T10:03:10.928Z</time></trkpt><trkpt lat="45.09305893191594" lon="13.71858497665498"><ele>155.0</ele><time>2026-04-12T10:03:11.928Z</time></trkpt><trkpt lat="45.09315488777379" lon="13.718599184579395"><ele>155.0</ele><time>2026-04-12T10:03:12.928Z</time></trkpt><trkpt lat="45.093249574695925" lon="13.718602935737847"><ele>155.0</ele><time>2026-04-12T10:03:13.928Z</time></trkpt><trkpt lat="45.09334621244482" lon="13.718626610238829"><ele>155.0</ele><time>2026-04-12T10:03:14.928Z</time></trkpt><trkpt lat="45.09344797126642" lon="13.71863169934882"><ele>155.0</ele><time>2026-04-12T10:03:15.928Z</time></trkpt><trkpt lat="45.09354895499409" lon="13.718571163267848"><ele>155.0</ele><time>2026-04-12T10:03:16.928Z</time></trkpt><trkpt lat="45.093651960251435" lon="13.718516045633962"><ele>156.75</ele><time>2026-04-12T10:03:17.928Z</time></trkpt><trkpt lat="45.09375419183562" lon="13.718460453516403"><ele>158.5</ele><time>2026-04-12T10:03:18.928Z</time></trkpt><trkpt lat="45.0938699001058" lon="13.718394409582464"><ele>160.25</ele><time>2026-04-12T10:03:19.928Z</time></trkpt><trkpt lat="45.09398257614518" lon="13.718314769446915"><ele>162.0</ele><time>2026-04-12T10:03:20.928Z</time></trkpt><trkpt lat="45.09408413313093" lon="13.718243817840559"><ele>163.0</ele><time>2026-04-12T10:03:21.928Z</time></trkpt><trkpt lat="45.094172858563866" lon="13.718166220187776"><ele>164.0</ele><time>2026-04-12T10:03:22.928Z</time></trkpt><trkpt lat="45.09425271560345" lon="13.71806734635019"><ele>165.0</ele><time>2026-04-12T10:03:23.928Z</time></trkpt><trkpt lat="45.094323009948205" lon="13.717953878210523"><ele>166.0</ele><time>2026-04-12T10:03:24.928Z</time></trkpt><trkpt lat="45.09440172794974" lon="13.717848746005089"><ele>167.0</ele><time>2026-04-12T10:03:25.928Z</time></trkpt><trkpt lat="45.09448495991555" lon="13.717765446518696"><ele>167.39999999999998</ele><time>2026-04-12T10:03:26.928Z</time></trkpt><trkpt lat="45.09459028213821" lon="13.717704772034317"><ele>167.79999999999998</ele><time>2026-04-12T10:03:27.928Z</time></trkpt><trkpt lat="45.09468907767286" lon="13.717622099151212"><ele>168.2</ele><time>2026-04-12T10:03:28.928Z</time></trkpt><trkpt lat="45.0947838670142" lon="13.717544755835524"><ele>168.6</ele><time>2026-04-12T10:03:29.928Z</time></trkpt><trkpt lat="45.09487641446751" lon="13.717504729525412"><ele>169.0</ele><time>2026-04-12T10:03:30.928Z</time></trkpt><trkpt lat="45.09498092109188" lon="13.717471605213825"><ele>169.75</ele><time>2026-04-12T10:03:31.928Z</time></trkpt><trkpt lat="45.095100197919635" lon="13.717417196806931"><ele>170.5</ele><time>2026-04-12T10:03:32.928Z</time></trkpt><trkpt lat="45.095216170218336" lon="13.717347203246797"><ele>171.25</ele><time>2026-04-12T10:03:33.928Z</time></trkpt><trkpt lat="45.09532920148667" lon="13.717322052243906"><ele>172.0</ele><time>2026-04-12T10:03:34.928Z</time></trkpt><trkpt lat="45.095439164692145" lon="13.717302523822815"><ele>172.0</ele><time>2026-04-12T10:03:35.928Z</time></trkpt><trkpt lat="45.09554094005077" lon="13.717306948406502"><ele>172.0</ele><time>2026-04-12T10:03:36.928Z</time></trkpt><trkpt lat="45.09564223771483" lon="13.717328596078195"><ele>172.0</ele><time>2026-04-12T10:03:37.928Z</time></trkpt><trkpt lat="45.095751598618925" lon="13.717362488544728"><ele>172.0</ele><time>2026-04-12T10:03:38.928Z</time></trkpt><trkpt lat="45.095877557045405" lon="13.717438704692155"><ele>172.75</ele><time>2026-04-12T10:03:39.928Z</time></trkpt><trkpt lat="45.09601512194908" lon="13.717516886973828"><ele>173.5</ele><time>2026-04-12T10:03:40.928Z</time></trkpt><trkpt lat="45.0961523090429" lon="13.71760077753221"><ele>174.25</ele><time>2026-04-12T10:03:41.928Z</time></trkpt><trkpt lat="45.096276036872815" lon="13.717659303577522"><ele>175.0</ele><time>2026-04-12T10:03:42.928Z</time></trkpt><trkpt lat="45.09639001369814" lon="13.71768898646105"><ele>175.0</ele><time>2026-04-12T10:03:43.928Z</time></trkpt><trkpt lat="45.0964999430732" lon="13.71771994331991"><ele>175.0</ele><time>2026-04-12T10:03:44.928Z</time></trkpt><trkpt lat="45.09661133955076" lon="13.717756292582335"><ele>175.0</ele><time>2026-04-12T10:03:45.928Z</time></trkpt><trkpt lat="45.096712432067406" lon="13.717776158643419"><ele>175.0</ele><time>2026-04-12T10:03:46.928Z</time></trkpt><trkpt lat="45.09680925772656" lon="13.717789224259427"><ele>175.0</ele><time>2026-04-12T10:03:47.928Z</time></trkpt><trkpt lat="45.09691444407329" lon="13.717786504639761"><ele>175.0</ele><time>2026-04-12T10:03:48.928Z</time></trkpt><trkpt lat="45.09703116961509" lon="13.71776559512589"><ele>175.0</ele><time>2026-04-12T10:03:49.928Z</time></trkpt><trkpt lat="45.097163358183934" lon="13.71771675957344"><ele>175.0</ele><time>2026-04-12T10:03:50.928Z</time></trkpt><trkpt lat="45.09733169800132" lon="13.717654702595867"><ele>175.0</ele><time>2026-04-12T10:03:51.928Z</time></trkpt><trkpt lat="45.09747788762613" lon="13.717599627583011"><ele>175.5</ele><time>2026-04-12T10:03:52.928Z</time></trkpt><trkpt lat="45.09761197741012" lon="13.717541767656888"><ele>176.0</ele><time>2026-04-12T10:03:53.928Z</time></trkpt><trkpt lat="45.09773581238579" lon="13.717487613393297"><ele>176.5</ele><time>2026-04-12T10:03:54.928Z</time></trkpt><trkpt lat="45.09784352950693" lon="13.717457603727423"><ele>177.0</ele><time>2026-04-12T10:03:55.928Z</time></trkpt><trkpt lat="45.09794112257904" lon="13.71746086775017"><ele>177.0</ele><time>2026-04-12T10:03:56.928Z</time></trkpt><trkpt lat="45.09802442748934" lon="13.717491477867933"><ele>177.0</ele><time>2026-04-12T10:03:57.928Z</time></trkpt><trkpt lat="45.09811655447225" lon="13.717547496408823"><ele>177.0</ele><time>2026-04-12T10:03:58.928Z</time></trkpt><trkpt lat="45.098217312762095" lon="13.717685031854979"><ele>177.0</ele><time>2026-04-12T10:03:59.928Z</time></trkpt><trkpt lat="45.098352846391265" lon="13.717782009958254"><ele>179.0</ele><time>2026-04-12T10:04:00.928Z</time></trkpt><trkpt lat="45.098506502903014" lon="13.717889447182142"><ele>181.0</ele><time>2026-04-12T10:04:01.928Z</time></trkpt><trkpt lat="45.09863560877512" lon="13.71801097795424"><ele>183.0</ele><time>2026-04-12T10:04:02.928Z</time></trkpt><trkpt lat="45.09877134333839" lon="13.718080430374467"><ele>183.0</ele><time>2026-04-12T10:04:03.928Z</time></trkpt><trkpt lat="45.098891823599494" lon="13.718159795622105"><ele>183.0</ele><time>2026-04-12T10:04:04.928Z</time></trkpt><trkpt lat="45.09902620390108" lon="13.718195931904567"><ele>183.0</ele><time>2026-04-12T10:04:05.928Z</time></trkpt><trkpt lat="45.099179715513" lon="13.718250421371009"><ele>183.0</ele><time>2026-04-12T10:04:06.928Z</time></trkpt><trkpt lat="45.09933754281345" lon="13.718272966164092"><ele>183.0</ele><time>2026-04-12T10:04:07.928Z</time></trkpt><trkpt lat="45.09949434096005" lon="13.718274350270146"><ele>183.0</ele><time>2026-04-12T10:04:08.928Z</time></trkpt><trkpt lat="45.09965672614585" lon="13.718261179093027"><ele>183.0</ele><time>2026-04-12T10:04:09.928Z</time></trkpt><trkpt lat="45.09981847970019" lon="13.718225310818474"><ele>182.5</ele><time>2026-04-12T10:04:10.928Z</time></trkpt><trkpt lat="45.09996191985823" lon="13.718202273186478"><ele>182.0</ele><time>2026-04-12T10:04:11.928Z</time></trkpt><trkpt lat="45.10011007471317" lon="13.718190599056234"><ele>181.5</ele><time>2026-04-12T10:04:12.928Z</time></trkpt><trkpt lat="45.10024753413722" lon="13.718180023214433"><ele>181.0</ele><time>2026-04-12T10:04:13.928Z</time></trkpt><trkpt lat="45.10037994595971" lon="13.718159431494826"><ele>181.0</ele><time>2026-04-12T10:04:14.928Z</time></trkpt><trkpt lat="45.100498391804656" lon="13.718143638031137"><ele>181.0</ele><time>2026-04-12T10:04:15.928Z</time></trkpt><trkpt lat="45.100621888921935" lon="13.718164880208654"><ele>181.0</ele><time>2026-04-12T10:04:16.928Z</time></trkpt><trkpt lat="45.10073763096827" lon="13.718174206990252"><ele>181.0</ele><time>2026-04-12T10:04:17.928Z</time></trkpt><trkpt lat="45.100860180190224" lon="13.718189558068065"><ele>181.0</ele><time>2026-04-12T10:04:18.928Z</time></trkpt><trkpt lat="45.100994072865774" lon="13.718191773397567"><ele>181.0</ele><time>2026-04-12T10:04:19.928Z</time></trkpt><trkpt lat="45.10110052370718" lon="13.718213114975054"><ele>181.0</ele><time>2026-04-12T10:04:20.928Z</time></trkpt><trkpt lat="45.1011838856543" lon="13.718219163310174"><ele>181.0</ele><time>2026-04-12T10:04:21.928Z</time></trkpt><trkpt lat="45.10124425677151" lon="13.718179531527774"><ele>181.0</ele><time>2026-04-12T10:04:22.928Z</time></trkpt><trkpt lat="45.101302076701124" lon="13.71808405956683"><ele>181.0</ele><time>2026-04-12T10:04:23.928Z</time></trkpt><trkpt lat="45.10138407143899" lon="13.717961767743315"><ele>181.0</ele><time>2026-04-12T10:04:24.928Z</time></trkpt><trkpt lat="45.10148760606669" lon="13.717870417020364"><ele>181.0</ele><time>2026-04-12T10:04:25.928Z</time></trkpt><trkpt lat="45.10160159773844" lon="13.717744487402056"><ele>181.0</ele><time>2026-04-12T10:04:26.928Z</time></trkpt><trkpt lat="45.10171702411332" lon="13.717646089214208"><ele>180.4</ele><time>2026-04-12T10:04:27.928Z</time></trkpt><trkpt lat="45.101827801426" lon="13.717555423470822"><ele>179.8</ele><time>2026-04-12T10:04:28.928Z</time></trkpt><trkpt lat="45.10192104742227" lon="13.717500326399467"><ele>179.20000000000002</ele><time>2026-04-12T10:04:29.928Z</time></trkpt><trkpt lat="45.10200657050436" lon="13.717521335605815"><ele>178.60000000000002</ele><time>2026-04-12T10:04:30.928Z</time></trkpt><trkpt lat="45.10208548624845" lon="13.717529203147516"><ele>178.0</ele><time>2026-04-12T10:04:31.928Z</time></trkpt><trkpt lat="45.10216862407407" lon="13.71754245656984"><ele>178.0</ele><time>2026-04-12T10:04:32.928Z</time></trkpt><trkpt lat="45.10224585452269" lon="13.717627510613761"><ele>178.0</ele><time>2026-04-12T10:04:33.928Z</time></trkpt><trkpt lat="45.1023364334775" lon="13.717723200261707"><ele>178.0</ele><time>2026-04-12T10:04:34.928Z</time></trkpt><trkpt lat="45.10242525973128" lon="13.717815813770683"><ele>178.0</ele><time>2026-04-12T10:04:35.928Z</time></trkpt><trkpt lat="45.10249532012288" lon="13.717892640661384"><ele>178.0</ele><time>2026-04-12T10:04:36.928Z</time></trkpt><trkpt lat="45.10254589903715" lon="13.717949482520273"><ele>177.75</ele><time>2026-04-12T10:04:37.928Z</time></trkpt><trkpt lat="45.10260031004829" lon="13.718010511503245"><ele>177.5</ele><time>2026-04-12T10:04:39.928Z</time></trkpt><trkpt lat="45.10276950624738" lon="13.717908595847687"><ele>177.25</ele><time>2026-04-12T10:05:01.932Z</time></trkpt><trkpt lat="45.102888340605006" lon="13.717836213813408"><ele>177.0</ele><time>2026-04-12T10:05:03.932Z</time></trkpt><trkpt lat="45.1029747958787" lon="13.717833974511818"><ele>177.0</ele><time>2026-04-12T10:05:04.932Z</time></trkpt><trkpt lat="45.10307691059073" lon="13.717867450523823"><ele>177.0</ele><time>2026-04-12T10:05:05.932Z</time></trkpt><trkpt lat="45.10318478935817" lon="13.717908858302751"><ele>177.0</ele><time>2026-04-12T10:05:06.932Z</time></trkpt><trkpt lat="45.103290378177384" lon="13.717929444518127"><ele>177.0</ele><time>2026-04-12T10:05:07.932Z</time></trkpt><trkpt lat="45.1033814599832" lon="13.717914204516342"><ele>177.0</ele><time>2026-04-12T10:05:08.932Z</time></trkpt><trkpt lat="45.10347385531491" lon="13.717888497212932"><ele>175.33333333333334</ele><time>2026-04-12T10:05:09.932Z</time></trkpt><trkpt lat="45.10356389561146" lon="13.717872229567837"><ele>173.66666666666666</ele><time>2026-04-12T10:05:10.932Z</time></trkpt><trkpt lat="45.10365249572563" lon="13.717866045105941"><ele>172.0</ele><time>2026-04-12T10:05:11.932Z</time></trkpt><trkpt lat="45.10373818607087" lon="13.717871783676163"><ele>170.33333333333331</ele><time>2026-04-12T10:05:12.932Z</time></trkpt><trkpt lat="45.10381745813116" lon="13.71787866825252"><ele>168.66666666666666</ele><time>2026-04-12T10:05:13.933Z</time></trkpt><trkpt lat="45.10389671421412" lon="13.717882185312279"><ele>167.0</ele><time>2026-04-12T10:05:14.933Z</time></trkpt><trkpt lat="45.10397133704929" lon="13.717894746119196"><ele>167.0</ele><time>2026-04-12T10:05:15.933Z</time></trkpt><trkpt lat="45.10404394520268" lon="13.717908320670698"><ele>167.0</ele><time>2026-04-12T10:05:16.933Z</time></trkpt><trkpt lat="45.104119925949725" lon="13.717925043912382"><ele>167.0</ele><time>2026-04-12T10:05:17.933Z</time></trkpt><trkpt lat="45.10420931221859" lon="13.717942936951575"><ele>167.0</ele><time>2026-04-12T10:05:18.933Z</time></trkpt><trkpt lat="45.10430923528166" lon="13.717973333061016"><ele>167.0</ele><time>2026-04-12T10:05:19.933Z</time></trkpt><trkpt lat="45.104409018209694" lon="13.717998874523989"><ele>167.0</ele><time>2026-04-12T10:05:20.933Z</time></trkpt><trkpt lat="45.104505528582685" lon="13.718001604328427"><ele>166.2</ele><time>2026-04-12T10:05:21.933Z</time></trkpt><trkpt lat="45.104593257472665" lon="13.71796617556485"><ele>165.39999999999998</ele><time>2026-04-12T10:05:22.933Z</time></trkpt><trkpt lat="45.1046796304004" lon="13.717891810342564"><ele>164.60000000000002</ele><time>2026-04-12T10:05:23.933Z</time></trkpt><trkpt lat="45.10475458103011" lon="13.717805724826658"><ele>163.8</ele><time>2026-04-12T10:05:24.933Z</time></trkpt><trkpt lat="45.1048302587821" lon="13.717713477117071"><ele>163.0</ele><time>2026-04-12T10:05:25.933Z</time></trkpt><trkpt lat="45.10490173449275" lon="13.717609628449587"><ele>162.0</ele><time>2026-04-12T10:05:26.933Z</time></trkpt><trkpt lat="45.10496322315583" lon="13.717506187079245"><ele>161.0</ele><time>2026-04-12T10:05:27.933Z</time></trkpt><trkpt lat="45.10502915888398" lon="13.717410244103446"><ele>160.0</ele><time>2026-04-12T10:05:28.933Z</time></trkpt><trkpt lat="45.10509903574398" lon="13.717327087563367"><ele>159.0</ele><time>2026-04-12T10:05:29.933Z</time></trkpt><trkpt lat="45.105160578495166" lon="13.717238400589375"><ele>158.0</ele><time>2026-04-12T10:05:30.933Z</time></trkpt><trkpt lat="45.10522415826512" lon="13.717165398069271"><ele>158.0</ele><time>2026-04-12T10:05:31.933Z</time></trkpt><trkpt lat="45.10528927878997" lon="13.71710049683416"><ele>158.0</ele><time>2026-04-12T10:05:32.933Z</time></trkpt><trkpt lat="45.10535021367968" lon="13.717033187171573"><ele>158.0</ele><time>2026-04-12T10:05:33.933Z</time></trkpt><trkpt lat="45.105415613945794" lon="13.717017633081369"><ele>158.0</ele><time>2026-04-12T10:05:34.933Z</time></trkpt><trkpt lat="45.10550589651725" lon="13.717015705220925"><ele>158.0</ele><time>2026-04-12T10:05:36.933Z</time></trkpt><trkpt lat="45.10562986413672" lon="13.717030220291877"><ele>158.0</ele><time>2026-04-12T10:05:38.933Z</time></trkpt><trkpt lat="45.105713125188664" lon="13.71708755184783"><ele>157.0</ele><time>2026-04-12T10:05:39.933Z</time></trkpt><trkpt lat="45.10579535054167" lon="13.717152748725958"><ele>156.0</ele><time>2026-04-12T10:05:40.933Z</time></trkpt><trkpt lat="45.105872687556854" lon="13.71723454774559"><ele>155.0</ele><time>2026-04-12T10:05:41.933Z</time></trkpt><trkpt lat="45.10593189018264" lon="13.71728219334192"><ele>154.0</ele><time>2026-04-12T10:05:42.933Z</time></trkpt><trkpt lat="45.106135742580754" lon="13.7173901032822"><ele>154.0</ele><time>2026-04-12T10:05:54.933Z</time></trkpt><trkpt lat="45.106205799207" lon="13.717324195916234"><ele>154.0</ele><time>2026-04-12T10:05:55.933Z</time></trkpt><trkpt lat="45.106286741747766" lon="13.717256845169565"><ele>154.0</ele><time>2026-04-12T10:05:56.933Z</time></trkpt><trkpt lat="45.10637099267997" lon="13.717204577474691"><ele>154.0</ele><time>2026-04-12T10:05:57.933Z</time></trkpt><trkpt lat="45.10646600806707" lon="13.71716371694608"><ele>154.0</ele><time>2026-04-12T10:05:58.933Z</time></trkpt><trkpt lat="45.10654461342854" lon="13.717114509483265"><ele>152.8</ele><time>2026-04-12T10:05:59.933Z</time></trkpt><trkpt lat="45.10661962672639" lon="13.717054392808933"><ele>151.60000000000002</ele><time>2026-04-12T10:06:00.933Z</time></trkpt><trkpt lat="45.10668102036364" lon="13.716974934227494"><ele>150.4</ele><time>2026-04-12T10:06:01.933Z</time></trkpt><trkpt lat="45.1067412533812" lon="13.716870969277013"><ele>149.20000000000002</ele><time>2026-04-12T10:06:02.933Z</time></trkpt><trkpt lat="45.106799807761504" lon="13.716746607903527"><ele>148.0</ele><time>2026-04-12T10:06:03.933Z</time></trkpt><trkpt lat="45.10686051948696" lon="13.716617434946945"><ele>148.0</ele><time>2026-04-12T10:06:04.933Z</time></trkpt><trkpt lat="45.10692192765896" lon="13.716496386904426"><ele>148.0</ele><time>2026-04-12T10:06:05.933Z</time></trkpt><trkpt lat="45.10698306811634" lon="13.716366374753754"><ele>148.0</ele><time>2026-04-12T10:06:06.933Z</time></trkpt><trkpt lat="45.10704022356145" lon="13.716224720813965"><ele>148.0</ele><time>2026-04-12T10:06:07.933Z</time></trkpt><trkpt lat="45.10709044341844" lon="13.7160866187624"><ele>148.0</ele><time>2026-04-12T10:06:08.933Z</time></trkpt><trkpt lat="45.10714414501616" lon="13.715953415728432"><ele>148.4</ele><time>2026-04-12T10:06:09.933Z</time></trkpt><trkpt lat="45.10719960273616" lon="13.715840156871892"><ele>148.8</ele><time>2026-04-12T10:06:10.933Z</time></trkpt><trkpt lat="45.10726905891806" lon="13.715756305098495"><ele>149.2</ele><time>2026-04-12T10:06:11.933Z</time></trkpt><trkpt lat="45.107352314267395" lon="13.715686298354806"><ele>149.6</ele><time>2026-04-12T10:06:12.933Z</time></trkpt><trkpt lat="45.107444394718144" lon="13.715641201416075"><ele>150.0</ele><time>2026-04-12T10:06:13.933Z</time></trkpt><trkpt lat="45.10751891736204" lon="13.71558256066012"><ele>148.66666666666666</ele><time>2026-04-12T10:06:14.933Z</time></trkpt><trkpt lat="45.107585534127786" lon="13.715530140865665"><ele>147.33333333333334</ele><time>2026-04-12T10:06:15.933Z</time></trkpt><trkpt lat="45.10765739511699" lon="13.715500505135912"><ele>146.0</ele><time>2026-04-12T10:06:17.933Z</time></trkpt><trkpt lat="45.10772560596957" lon="13.715627210569899"><ele>144.66666666666669</ele><time>2026-04-12T10:06:18.933Z</time></trkpt><trkpt lat="45.10778065638425" lon="13.715681421451496"><ele>143.33333333333334</ele><time>2026-04-12T10:06:25.933Z</time></trkpt><trkpt lat="45.107870189498186" lon="13.71561177486046"><ele>142.0</ele><time>2026-04-12T10:06:28.933Z</time></trkpt><trkpt lat="45.10790822743972" lon="13.715528428529764"><ele>142.0</ele><time>2026-04-12T10:06:29.933Z</time></trkpt><trkpt lat="45.10794885057598" lon="13.715427053405817"><ele>142.0</ele><time>2026-04-12T10:06:30.933Z</time></trkpt><trkpt lat="45.10799981225823" lon="13.715308170734067"><ele>142.0</ele><time>2026-04-12T10:06:31.933Z</time></trkpt><trkpt lat="45.10804443255109" lon="13.715191802029892"><ele>142.0</ele><time>2026-04-12T10:06:32.933Z</time></trkpt><trkpt lat="45.108079950009625" lon="13.715106387247587"><ele>142.0</ele><time>2026-04-12T10:06:33.933Z</time></trkpt><trkpt lat="45.108127605222805" lon="13.715006482511237"><ele>142.0</ele><time>2026-04-12T10:06:36.933Z</time></trkpt><trkpt lat="45.10814896303018" lon="13.714897128307772"><ele>142.6</ele><time>2026-04-12T10:06:39.933Z</time></trkpt><trkpt lat="45.10819924660475" lon="13.714757329071878"><ele>143.2</ele><time>2026-04-12T10:06:41.933Z</time></trkpt><trkpt lat="45.108233417116274" lon="13.714628235298674"><ele>143.8</ele><time>2026-04-12T10:06:43.933Z</time></trkpt><trkpt lat="45.108238948419775" lon="13.714536754365174"><ele>144.4</ele><time>2026-04-12T10:06:46.933Z</time></trkpt><trkpt lat="45.1081762405157" lon="13.714553705937874"><ele>145.0</ele><time>2026-04-12T10:06:50.933Z</time></trkpt><trkpt lat="45.10815351917914" lon="13.714717964780485"><ele>145.0</ele><time>2026-04-12T10:06:52.933Z</time></trkpt><trkpt lat="45.10813950964565" lon="13.714851045540263"><ele>145.0</ele><time>2026-04-12T10:06:53.933Z</time></trkpt><trkpt lat="45.1080301859185" lon="13.715153360558608"><ele>145.0</ele><time>2026-04-12T10:06:55.933Z</time></trkpt><trkpt lat="45.10796580168144" lon="13.715345216582465"><ele>144.25</ele><time>2026-04-12T10:06:56.933Z</time></trkpt><trkpt lat="45.10788993575346" lon="13.715509173090775"><ele>143.5</ele><time>2026-04-12T10:06:57.933Z</time></trkpt><trkpt lat="45.10781517649205" lon="13.71568519238261"><ele>142.75</ele><time>2026-04-12T10:06:58.933Z</time></trkpt><trkpt lat="45.10775917333896" lon="13.715861495723116"><ele>142.0</ele><time>2026-04-12T10:06:59.933Z</time></trkpt><trkpt lat="45.10773886934497" lon="13.715984695136935"><ele>141.79999999999998</ele><time>2026-04-12T10:07:00.933Z</time></trkpt><trkpt lat="45.10779604173347" lon="13.716082040263274"><ele>141.6</ele><time>2026-04-12T10:07:08.933Z</time></trkpt><trkpt lat="45.10787948566754" lon="13.716097797076577"><ele>141.39999999999998</ele><time>2026-04-12T10:07:09.933Z</time></trkpt><trkpt lat="45.107966570870964" lon="13.716123040248206"><ele>141.2</ele><time>2026-04-12T10:07:10.933Z</time></trkpt><trkpt lat="45.10806975694531" lon="13.71616080216829"><ele>141.0</ele><time>2026-04-12T10:07:11.933Z</time></trkpt><trkpt lat="45.10819035721608" lon="13.716202722753836"><ele>140.0</ele><time>2026-04-12T10:07:12.933Z</time></trkpt><trkpt lat="45.10830545067641" lon="13.716203922780508"><ele>139.0</ele><time>2026-04-12T10:07:13.933Z</time></trkpt><trkpt lat="45.10843243718604" lon="13.716192540869448"><ele>138.0</ele><time>2026-04-12T10:07:14.933Z</time></trkpt><trkpt lat="45.10856668893015" lon="13.71622447798874"><ele>137.0</ele><time>2026-04-12T10:07:15.933Z</time></trkpt><trkpt lat="45.10868112533305" lon="13.716260584860759"><ele>137.0</ele><time>2026-04-12T10:07:16.933Z</time></trkpt><trkpt lat="45.10879464872948" lon="13.716271814693554"><ele>137.0</ele><time>2026-04-12T10:07:17.933Z</time></trkpt><trkpt lat="45.10890860741889" lon="13.716270148483263"><ele>137.0</ele><time>2026-04-12T10:07:18.933Z</time></trkpt><trkpt lat="45.109026450474246" lon="13.716240313289052"><ele>137.0</ele><time>2026-04-12T10:07:19.933Z</time></trkpt><trkpt lat="45.10914009012587" lon="13.716185278294345"><ele>137.0</ele><time>2026-04-12T10:07:20.933Z</time></trkpt><trkpt lat="45.10925540766405" lon="13.716090203081055"><ele>137.0</ele><time>2026-04-12T10:07:21.933Z</time></trkpt><trkpt lat="45.10936829229928" lon="13.715966227469552"><ele>137.0</ele><time>2026-04-12T10:07:22.933Z</time></trkpt><trkpt lat="45.109477572450125" lon="13.715841935764331"><ele>137.0</ele><time>2026-04-12T10:07:23.933Z</time></trkpt><trkpt lat="45.109586669584026" lon="13.715726613730055"><ele>137.0</ele><time>2026-04-12T10:07:24.933Z</time></trkpt><trkpt lat="45.10970453663466" lon="13.715646921046552"><ele>137.0</ele><time>2026-04-12T10:07:25.933Z</time></trkpt><trkpt lat="45.109814349507594" lon="13.715582800855492"><ele>137.0</ele><time>2026-04-12T10:07:26.933Z</time></trkpt><trkpt lat="45.10992437157225" lon="13.71553032778397"><ele>137.0</ele><time>2026-04-12T10:07:27.933Z</time></trkpt><trkpt lat="45.1100366112042" lon="13.715479961373775"><ele>136.0</ele><time>2026-04-12T10:07:28.933Z</time></trkpt><trkpt lat="45.11012421925827" lon="13.715441060318764"><ele>135.0</ele><time>2026-04-12T10:07:29.933Z</time></trkpt><trkpt lat="45.11019658928567" lon="13.715406821489632"><ele>134.0</ele><time>2026-04-12T10:07:31.933Z</time></trkpt><trkpt lat="45.11017161670683" lon="13.715587478273358"><ele>133.0</ele><time>2026-04-12T10:07:34.933Z</time></trkpt><trkpt lat="45.11011128300723" lon="13.715758360298626"><ele>132.0</ele><time>2026-04-12T10:07:36.933Z</time></trkpt><trkpt lat="45.11005389367121" lon="13.715879504926727"><ele>132.0</ele><time>2026-04-12T10:07:37.933Z</time></trkpt><trkpt lat="45.1100171613673" lon="13.716024958457991"><ele>132.0</ele><time>2026-04-12T10:07:38.933Z</time></trkpt><trkpt lat="45.11001525879971" lon="13.716171011754353"><ele>132.0</ele><time>2026-04-12T10:07:39.933Z</time></trkpt><trkpt lat="45.110046854800615" lon="13.716360816651125"><ele>132.0</ele><time>2026-04-12T10:07:40.933Z</time></trkpt><trkpt lat="45.1100634809502" lon="13.716574053484948"><ele>131.75</ele><time>2026-04-12T10:07:41.933Z</time></trkpt><trkpt lat="45.11007976695082" lon="13.716769570088706"><ele>131.5</ele><time>2026-04-12T10:07:42.933Z</time></trkpt><trkpt lat="45.11009007614342" lon="13.716964904469316"><ele>131.25</ele><time>2026-04-12T10:07:43.933Z</time></trkpt><trkpt lat="45.11009254488592" lon="13.717158773288785"><ele>131.0</ele><time>2026-04-12T10:07:44.933Z</time></trkpt><trkpt lat="45.11009121758987" lon="13.717345029111597"><ele>130.5</ele><time>2026-04-12T10:07:45.933Z</time></trkpt><trkpt lat="45.11009214000857" lon="13.71753339941395"><ele>130.0</ele><time>2026-04-12T10:07:46.933Z</time></trkpt><trkpt lat="45.11009491512483" lon="13.717725156523908"><ele>129.5</ele><time>2026-04-12T10:07:47.933Z</time></trkpt><trkpt lat="45.11009799525804" lon="13.717905615773397"><ele>129.0</ele><time>2026-04-12T10:07:48.933Z</time></trkpt><trkpt lat="45.11011291700785" lon="13.718067655856666"><ele>129.0</ele><time>2026-04-12T10:07:49.933Z</time></trkpt><trkpt lat="45.11014804904031" lon="13.718196034635143"><ele>129.0</ele><time>2026-04-12T10:07:50.933Z</time></trkpt><trkpt lat="45.11019670266043" lon="13.718305153945533"><ele>129.0</ele><time>2026-04-12T10:07:51.933Z</time></trkpt><trkpt lat="45.11027286603519" lon="13.718387234799845"><ele>129.0</ele><time>2026-04-12T10:07:52.933Z</time></trkpt><trkpt lat="45.110348952223994" lon="13.718486498779699"><ele>129.0</ele><time>2026-04-12T10:07:53.933Z</time></trkpt><trkpt lat="45.11041201611189" lon="13.718592901846604"><ele>129.0</ele><time>2026-04-12T10:07:54.933Z</time></trkpt><trkpt lat="45.11047702276464" lon="13.718701887293308"><ele>129.0</ele><time>2026-04-12T10:07:55.933Z</time></trkpt><trkpt lat="45.11053350633474" lon="13.718823246848533"><ele>129.0</ele><time>2026-04-12T10:07:56.933Z</time></trkpt><trkpt lat="45.11057995686715" lon="13.718927148182456"><ele>129.0</ele><time>2026-04-12T10:07:57.933Z</time></trkpt><trkpt lat="45.110604306142136" lon="13.719081088048151"><ele>129.0</ele><time>2026-04-12T10:07:59.933Z</time></trkpt><trkpt lat="45.11060966323806" lon="13.719234297021588"><ele>129.0</ele><time>2026-04-12T10:08:01.933Z</time></trkpt><trkpt lat="45.110626815140705" lon="13.719326275979586"><ele>129.0</ele><time>2026-04-12T10:08:02.933Z</time></trkpt><trkpt lat="45.1106561115571" lon="13.71942301107806"><ele>129.0</ele><time>2026-04-12T10:08:03.933Z</time></trkpt><trkpt lat="45.11069463420969" lon="13.719543007200535"><ele>129.0</ele><time>2026-04-12T10:08:04.933Z</time></trkpt><trkpt lat="45.11073103230635" lon="13.71965535841697"><ele>129.0</ele><time>2026-04-12T10:08:05.933Z</time></trkpt><trkpt lat="45.110755632651816" lon="13.719774040940836"><ele>129.0</ele><time>2026-04-12T10:08:06.933Z</time></trkpt><trkpt lat="45.11077846195473" lon="13.71989952834734"><ele>128.8</ele><time>2026-04-12T10:08:07.933Z</time></trkpt><trkpt lat="45.11079300753686" lon="13.720015636412876"><ele>128.60000000000002</ele><time>2026-04-12T10:08:08.933Z</time></trkpt><trkpt lat="45.1108199269902" lon="13.720146936085188"><ele>128.4</ele><time>2026-04-12T10:08:09.933Z</time></trkpt><trkpt lat="45.11085484884411" lon="13.72027660316233"><ele>128.20000000000002</ele><time>2026-04-12T10:08:10.933Z</time></trkpt><trkpt lat="45.110893250120306" lon="13.720421131321448"><ele>128.0</ele><time>2026-04-12T10:08:11.933Z</time></trkpt><trkpt lat="45.11093788083082" lon="13.720567210671838"><ele>128.0</ele><time>2026-04-12T10:08:12.933Z</time></trkpt><trkpt lat="45.11097628039199" lon="13.72071501338152"><ele>128.0</ele><time>2026-04-12T10:08:13.933Z</time></trkpt><trkpt lat="45.11101215806551" lon="13.720850880638757"><ele>128.0</ele><time>2026-04-12T10:08:14.933Z</time></trkpt><trkpt lat="45.111034299325" lon="13.72099069368601"><ele>128.0</ele><time>2026-04-12T10:08:15.933Z</time></trkpt><trkpt lat="45.11105714582856" lon="13.72114324932895"><ele>128.0</ele><time>2026-04-12T10:08:16.933Z</time></trkpt><trkpt lat="45.11107288584208" lon="13.721295485152153"><ele>128.0</ele><time>2026-04-12T10:08:17.933Z</time></trkpt><trkpt lat="45.11109593067537" lon="13.721439899815165"><ele>128.0</ele><time>2026-04-12T10:08:18.933Z</time></trkpt><trkpt lat="45.11112276878231" lon="13.721580515336042"><ele>128.0</ele><time>2026-04-12T10:08:19.933Z</time></trkpt><trkpt lat="45.111146829641186" lon="13.721720547683223"><ele>128.0</ele><time>2026-04-12T10:08:20.933Z</time></trkpt><trkpt lat="45.11118507982205" lon="13.72185926992941"><ele>128.0</ele><time>2026-04-12T10:08:21.933Z</time></trkpt><trkpt lat="45.1112345622219" lon="13.721990148695774"><ele>128.0</ele><time>2026-04-12T10:08:22.933Z</time></trkpt><trkpt lat="45.11129023998167" lon="13.722121855111627"><ele>128.0</ele><time>2026-04-12T10:08:23.933Z</time></trkpt><trkpt lat="45.11133638840778" lon="13.722269015733172"><ele>128.0</ele><time>2026-04-12T10:08:24.933Z</time></trkpt><trkpt lat="45.111393712858586" lon="13.722398439369869"><ele>128.0</ele><time>2026-04-12T10:08:25.933Z</time></trkpt><trkpt lat="45.11145321854507" lon="13.722534868500253"><ele>128.0</ele><time>2026-04-12T10:08:26.933Z</time></trkpt><trkpt lat="45.111514148099765" lon="13.722676010279871"><ele>128.0</ele><time>2026-04-12T10:08:27.933Z</time></trkpt><trkpt lat="45.11157022068488" lon="13.722823691197027"><ele>128.0</ele><time>2026-04-12T10:08:28.933Z</time></trkpt><trkpt lat="45.11163896701246" lon="13.722988810095048"><ele>128.0</ele><time>2026-04-12T10:08:29.933Z</time></trkpt><trkpt lat="45.11172008947171" lon="13.723168409609029"><ele>128.0</ele><time>2026-04-12T10:08:30.933Z</time></trkpt><trkpt lat="45.111794415369964" lon="13.723366668883914"><ele>129.0</ele><time>2026-04-12T10:08:31.933Z</time></trkpt><trkpt lat="45.11185590786501" lon="13.723574215369185"><ele>130.0</ele><time>2026-04-12T10:08:32.933Z</time></trkpt><trkpt lat="45.1119209440639" lon="13.72377825951716"><ele>131.0</ele><time>2026-04-12T10:08:33.933Z</time></trkpt><trkpt lat="45.111982563550384" lon="13.723969389761617"><ele>131.0</ele><time>2026-04-12T10:08:34.933Z</time></trkpt><trkpt lat="45.11205548381936" lon="13.724125161596984"><ele>131.0</ele><time>2026-04-12T10:08:35.933Z</time></trkpt><trkpt lat="45.11210568640243" lon="13.724288830066602"><ele>131.0</ele><time>2026-04-12T10:08:36.933Z</time></trkpt><trkpt lat="45.112188497230775" lon="13.724464181275989"><ele>131.0</ele><time>2026-04-12T10:08:37.933Z</time></trkpt><trkpt lat="45.11228196946762" lon="13.724624097997896"><ele>131.0</ele><time>2026-04-12T10:08:38.933Z</time></trkpt><trkpt lat="45.112369158832514" lon="13.724783470010573"><ele>131.0</ele><time>2026-04-12T10:08:39.933Z</time></trkpt><trkpt lat="45.11243364964781" lon="13.724931640120952"><ele>131.0</ele><time>2026-04-12T10:08:40.933Z</time></trkpt><trkpt lat="45.112505482797005" lon="13.725065059722874"><ele>131.0</ele><time>2026-04-12T10:08:41.933Z</time></trkpt><trkpt lat="45.112587459089305" lon="13.72518378273906"><ele>132.0</ele><time>2026-04-12T10:08:42.933Z</time></trkpt><trkpt lat="45.1127037900662" lon="13.725265853291102"><ele>133.0</ele><time>2026-04-12T10:08:43.933Z</time></trkpt><trkpt lat="45.11282388502369" lon="13.725364321399676"><ele>134.0</ele><time>2026-04-12T10:08:44.933Z</time></trkpt><trkpt lat="45.11293449328218" lon="13.725437714210026"><ele>135.0</ele><time>2026-04-12T10:08:45.933Z</time></trkpt><trkpt lat="45.113029021780186" lon="13.725516472698896"><ele>135.0</ele><time>2026-04-12T10:08:46.933Z</time></trkpt><trkpt lat="45.11309459799671" lon="13.725647951371073"><ele>135.0</ele><time>2026-04-12T10:08:47.933Z</time></trkpt><trkpt lat="45.11316234791988" lon="13.725807123366826"><ele>135.0</ele><time>2026-04-12T10:08:48.933Z</time></trkpt><trkpt lat="45.113241149745406" lon="13.725983254609378"><ele>135.0</ele><time>2026-04-12T10:08:49.933Z</time></trkpt><trkpt lat="45.11330826606307" lon="13.726153212884643"><ele>134.5</ele><time>2026-04-12T10:08:50.933Z</time></trkpt><trkpt lat="45.11337757410413" lon="13.726329698017546"><ele>134.0</ele><time>2026-04-12T10:08:51.933Z</time></trkpt><trkpt lat="45.113455000416316" lon="13.726487549778613"><ele>133.5</ele><time>2026-04-12T10:08:52.933Z</time></trkpt><trkpt lat="45.11355726112245" lon="13.72663517752245"><ele>133.0</ele><time>2026-04-12T10:08:53.933Z</time></trkpt><trkpt lat="45.113634283418776" lon="13.726775911844953"><ele>134.0</ele><time>2026-04-12T10:08:54.933Z</time></trkpt><trkpt lat="45.1136951718056" lon="13.726920897839445"><ele>135.0</ele><time>2026-04-12T10:08:55.933Z</time></trkpt><trkpt lat="45.11374804940236" lon="13.727091271121967"><ele>136.0</ele><time>2026-04-12T10:08:56.933Z</time></trkpt><trkpt lat="45.1137918862617" lon="13.727269646133035"><ele>137.0</ele><time>2026-04-12T10:08:57.933Z</time></trkpt><trkpt lat="45.113830175945914" lon="13.7274473805966"><ele>137.0</ele><time>2026-04-12T10:08:58.933Z</time></trkpt><trkpt lat="45.11385072743132" lon="13.727607220421113"><ele>137.0</ele><time>2026-04-12T10:08:59.933Z</time></trkpt><trkpt lat="45.11385225738732" lon="13.727770367049276"><ele>137.0</ele><time>2026-04-12T10:09:00.933Z</time></trkpt><trkpt lat="45.113835545917105" lon="13.727933182080013"><ele>137.0</ele><time>2026-04-12T10:09:01.933Z</time></trkpt><trkpt lat="45.1137952125934" lon="13.728325769980968"><ele>136.66666666666666</ele><time>2026-04-12T10:09:03.932Z</time></trkpt><trkpt lat="45.11378317833435" lon="13.728525279227762"><ele>136.33333333333334</ele><time>2026-04-12T10:09:04.932Z</time></trkpt><trkpt lat="45.11380593694727" lon="13.72875047366228"><ele>136.0</ele><time>2026-04-12T10:09:05.932Z</time></trkpt><trkpt lat="45.11383265943386" lon="13.728980034514494"><ele>135.0</ele><time>2026-04-12T10:09:06.932Z</time></trkpt><trkpt lat="45.113860523401556" lon="13.729216880773754"><ele>134.0</ele><time>2026-04-12T10:09:07.932Z</time></trkpt><trkpt lat="45.11389499872998" lon="13.729451110840959"><ele>133.0</ele><time>2026-04-12T10:09:08.932Z</time></trkpt><trkpt lat="45.11392604600962" lon="13.729686410554123"><ele>132.66666666666669</ele><time>2026-04-12T10:09:09.932Z</time></trkpt><trkpt lat="45.11396051921605" lon="13.729915157655098"><ele>132.33333333333334</ele><time>2026-04-12T10:09:10.932Z</time></trkpt><trkpt lat="45.113992465402724" lon="13.730142344305259"><ele>132.0</ele><time>2026-04-12T10:09:11.932Z</time></trkpt><trkpt lat="45.114027649929476" lon="13.730372874557554"><ele>132.0</ele><time>2026-04-12T10:09:12.932Z</time></trkpt><trkpt lat="45.11406323534996" lon="13.730614528473671"><ele>132.0</ele><time>2026-04-12T10:09:13.932Z</time></trkpt><trkpt lat="45.114095810109724" lon="13.730848864632"><ele>132.0</ele><time>2026-04-12T10:09:14.932Z</time></trkpt><trkpt lat="45.114123501743876" lon="13.731082110080088"><ele>133.0</ele><time>2026-04-12T10:09:15.932Z</time></trkpt><trkpt lat="45.114151030625465" lon="13.731323686416442"><ele>134.0</ele><time>2026-04-12T10:09:16.932Z</time></trkpt><trkpt lat="45.1141785971081" lon="13.731557382855167"><ele>135.0</ele><time>2026-04-12T10:09:17.932Z</time></trkpt><trkpt lat="45.11420334727026" lon="13.731777165855478"><ele>135.25</ele><time>2026-04-12T10:09:18.932Z</time></trkpt><trkpt lat="45.11422785875197" lon="13.731995730180616"><ele>135.5</ele><time>2026-04-12T10:09:19.932Z</time></trkpt><trkpt lat="45.11424971636758" lon="13.732202064148465"><ele>135.75</ele><time>2026-04-12T10:09:20.932Z</time></trkpt><trkpt lat="45.11426755933999" lon="13.732403331264527"><ele>136.0</ele><time>2026-04-12T10:09:21.932Z</time></trkpt><trkpt lat="45.114279324731946" lon="13.732601979208605"><ele>136.33333333333334</ele><time>2026-04-12T10:09:22.932Z</time></trkpt><trkpt lat="45.114299175712354" lon="13.73280252754965"><ele>136.66666666666666</ele><time>2026-04-12T10:09:23.932Z</time></trkpt><trkpt lat="45.11432301594133" lon="13.733033048706412"><ele>137.0</ele><time>2026-04-12T10:09:24.932Z</time></trkpt><trkpt lat="45.11434852393937" lon="13.73323875961476"><ele>137.0</ele><time>2026-04-12T10:09:25.932Z</time></trkpt><trkpt lat="45.1143443451521" lon="13.733446455511224"><ele>137.0</ele><time>2026-04-12T10:09:26.932Z</time></trkpt><trkpt lat="45.11436684376526" lon="13.733656163900111"><ele>137.0</ele><time>2026-04-12T10:09:27.932Z</time></trkpt><trkpt lat="45.11436662301848" lon="13.733863932910685"><ele>137.0</ele><time>2026-04-12T10:09:28.932Z</time></trkpt><trkpt lat="45.11436091490801" lon="13.734064879135907"><ele>137.25</ele><time>2026-04-12T10:09:29.932Z</time></trkpt><trkpt lat="45.11436965489848" lon="13.73424875612615"><ele>137.5</ele><time>2026-04-12T10:09:30.932Z</time></trkpt><trkpt lat="45.11438440325125" lon="13.734429599674161"><ele>137.75</ele><time>2026-04-12T10:09:31.932Z</time></trkpt><trkpt lat="45.11441794728665" lon="13.734608220751166"><ele>138.0</ele><time>2026-04-12T10:09:32.932Z</time></trkpt><trkpt lat="45.1144665728144" lon="13.734763933424826"><ele>138.0</ele><time>2026-04-12T10:09:33.932Z</time></trkpt><trkpt lat="45.11452584314118" lon="13.734890030576489"><ele>138.0</ele><time>2026-04-12T10:09:34.932Z</time></trkpt><trkpt lat="45.11460292377551" lon="13.734975603972435"><ele>138.0</ele><time>2026-04-12T10:09:35.932Z</time></trkpt><trkpt lat="45.11469966041779" lon="13.735032296932143"><ele>138.0</ele><time>2026-04-12T10:09:36.932Z</time></trkpt><trkpt lat="45.11480751255959" lon="13.735079698173923"><ele>138.0</ele><time>2026-04-12T10:09:37.932Z</time></trkpt><trkpt lat="45.11491087243533" lon="13.735114313486731"><ele>138.0</ele><time>2026-04-12T10:09:38.932Z</time></trkpt><trkpt lat="45.11501364496652" lon="13.735167288768881"><ele>138.0</ele><time>2026-04-12T10:09:39.932Z</time></trkpt><trkpt lat="45.1150936708592" lon="13.73524383142164"><ele>138.0</ele><time>2026-04-12T10:09:40.932Z</time></trkpt><trkpt lat="45.11516392495306" lon="13.735329827754331"><ele>138.0</ele><time>2026-04-12T10:09:41.932Z</time></trkpt><trkpt lat="45.11521820045981" lon="13.735437145568177"><ele>138.0</ele><time>2026-04-12T10:09:42.932Z</time></trkpt><trkpt lat="45.115254057196104" lon="13.73556255626301"><ele>138.75</ele><time>2026-04-12T10:09:43.932Z</time></trkpt><trkpt lat="45.11527766304607" lon="13.735716756499029"><ele>139.5</ele><time>2026-04-12T10:09:44.932Z</time></trkpt><trkpt lat="45.115302966610116" lon="13.735890745780672"><ele>140.25</ele><time>2026-04-12T10:09:45.932Z</time></trkpt><trkpt lat="45.115332051286785" lon="13.736067504872352"><ele>141.0</ele><time>2026-04-12T10:09:46.932Z</time></trkpt><trkpt lat="45.11535722622718" lon="13.736263926506663"><ele>142.0</ele><time>2026-04-12T10:09:47.932Z</time></trkpt><trkpt lat="45.115355748027845" lon="13.736452669918066"><ele>143.0</ele><time>2026-04-12T10:09:48.932Z</time></trkpt><trkpt lat="45.1153568538137" lon="13.736620352303413"><ele>144.0</ele><time>2026-04-12T10:09:49.932Z</time></trkpt><trkpt lat="45.11535702737129" lon="13.736803123983277"><ele>145.0</ele><time>2026-04-12T10:09:50.932Z</time></trkpt><trkpt lat="45.11534807873306" lon="13.736982402956464"><ele>145.4</ele><time>2026-04-12T10:09:51.932Z</time></trkpt><trkpt lat="45.11533484852973" lon="13.737146964917914"><ele>145.8</ele><time>2026-04-12T10:09:52.932Z</time></trkpt><trkpt lat="45.1153270536351" lon="13.737305434823407"><ele>146.2</ele><time>2026-04-12T10:09:53.932Z</time></trkpt><trkpt lat="45.115291031077" lon="13.737436165615197"><ele>146.6</ele><time>2026-04-12T10:09:54.932Z</time></trkpt><trkpt lat="45.11526721828776" lon="13.7375582659112"><ele>147.0</ele><time>2026-04-12T10:09:55.932Z</time></trkpt><trkpt lat="45.115218323639326" lon="13.737665839799742"><ele>147.0</ele><time>2026-04-12T10:09:56.932Z</time></trkpt><trkpt lat="45.115152419634256" lon="13.737797024694833"><ele>147.0</ele><time>2026-04-12T10:09:57.932Z</time></trkpt><trkpt lat="45.11506713148476" lon="13.737932258375196"><ele>147.0</ele><time>2026-04-12T10:09:58.932Z</time></trkpt><trkpt lat="45.11497680624872" lon="13.738049792947553"><ele>147.0</ele><time>2026-04-12T10:09:59.933Z</time></trkpt><trkpt lat="45.114897002555296" lon="13.738195715843975"><ele>147.0</ele><time>2026-04-12T10:10:00.933Z</time></trkpt><trkpt lat="45.11483027972994" lon="13.738360245279077"><ele>147.0</ele><time>2026-04-12T10:10:01.933Z</time></trkpt><trkpt lat="45.11472994946359" lon="13.73868930703015"><ele>147.0</ele><time>2026-04-12T10:10:03.933Z</time></trkpt><trkpt lat="45.1146857939018" lon="13.738851233680137"><ele>147.6</ele><time>2026-04-12T10:10:04.933Z</time></trkpt><trkpt lat="45.11464196175237" lon="13.738995587812322"><ele>148.2</ele><time>2026-04-12T10:10:05.933Z</time></trkpt><trkpt lat="45.11460831063714" lon="13.739137257064764"><ele>148.8</ele><time>2026-04-12T10:10:06.933Z</time></trkpt><trkpt lat="45.11458142295305" lon="13.739276406910468"><ele>149.4</ele><time>2026-04-12T10:10:07.933Z</time></trkpt><trkpt lat="45.11455437168022" lon="13.739452392648353"><ele>150.0</ele><time>2026-04-12T10:10:08.933Z</time></trkpt><trkpt lat="45.11452765536911" lon="13.739623020038211"><ele>151.25</ele><time>2026-04-12T10:10:09.933Z</time></trkpt><trkpt lat="45.11451020463497" lon="13.739799822576934"><ele>152.5</ele><time>2026-04-12T10:10:10.933Z</time></trkpt><trkpt lat="45.11449529458508" lon="13.739962858879815"><ele>153.75</ele><time>2026-04-12T10:10:11.933Z</time></trkpt><trkpt lat="45.11448618158836" lon="13.740120230182974"><ele>155.0</ele><time>2026-04-12T10:10:12.933Z</time></trkpt><trkpt lat="45.11447231225894" lon="13.7402687822565"><ele>155.83333333333331</ele><time>2026-04-12T10:10:13.933Z</time></trkpt><trkpt lat="45.11446696492089" lon="13.740383209980386"><ele>156.66666666666666</ele><time>2026-04-12T10:10:14.933Z</time></trkpt><trkpt lat="45.114450137567125" lon="13.740509739262267"><ele>157.5</ele><time>2026-04-12T10:10:16.933Z</time></trkpt><trkpt lat="45.11444180398561" lon="13.740633296892595"><ele>158.33333333333334</ele><time>2026-04-12T10:10:18.933Z</time></trkpt><trkpt lat="45.11442745601817" lon="13.740775998144453"><ele>159.16666666666669</ele><time>2026-04-12T10:10:20.933Z</time></trkpt><trkpt lat="45.11441643597516" lon="13.740869911693347"><ele>160.0</ele><time>2026-04-12T10:10:21.933Z</time></trkpt><trkpt lat="45.114403418226246" lon="13.740991359227753"><ele>160.8</ele><time>2026-04-12T10:10:22.933Z</time></trkpt><trkpt lat="45.11439446400258" lon="13.741121833414285"><ele>161.6</ele><time>2026-04-12T10:10:23.933Z</time></trkpt><trkpt lat="45.11437843919395" lon="13.741265688537903"><ele>162.39999999999998</ele><time>2026-04-12T10:10:24.933Z</time></trkpt><trkpt lat="45.114353830606284" lon="13.741418512986932"><ele>163.2</ele><time>2026-04-12T10:10:25.933Z</time></trkpt><trkpt lat="45.11433276495895" lon="13.74156546327234"><ele>164.0</ele><time>2026-04-12T10:10:26.933Z</time></trkpt><trkpt lat="45.11430185164405" lon="13.741733778858977"><ele>164.2</ele><time>2026-04-12T10:10:27.933Z</time></trkpt><trkpt lat="45.114258797490166" lon="13.741893634744349"><ele>164.39999999999998</ele><time>2026-04-12T10:10:28.933Z</time></trkpt><trkpt lat="45.11422123840271" lon="13.742045141756085"><ele>164.6</ele><time>2026-04-12T10:10:29.933Z</time></trkpt><trkpt lat="45.11419328944257" lon="13.742192222863597"><ele>164.8</ele><time>2026-04-12T10:10:30.933Z</time></trkpt><trkpt lat="45.11416253965304" lon="13.742320797870784"><ele>165.0</ele><time>2026-04-12T10:10:31.933Z</time></trkpt><trkpt lat="45.11413515902082" lon="13.742434119240269"><ele>165.0</ele><time>2026-04-12T10:10:32.933Z</time></trkpt><trkpt lat="45.11412649561876" lon="13.742548569915314"><ele>165.0</ele><time>2026-04-12T10:10:33.933Z</time></trkpt><trkpt lat="45.11408958810125" lon="13.742661929237073"><ele>165.0</ele><time>2026-04-12T10:10:34.933Z</time></trkpt><trkpt lat="45.11406685366288" lon="13.742784630377505"><ele>165.0</ele><time>2026-04-12T10:10:35.933Z</time></trkpt><trkpt lat="45.11404091926873" lon="13.742923228222878"><ele>165.0</ele><time>2026-04-12T10:10:36.933Z</time></trkpt><trkpt lat="45.11403122342352" lon="13.743076330484861"><ele>165.6</ele><time>2026-04-12T10:10:37.933Z</time></trkpt><trkpt lat="45.114015271989665" lon="13.743237473511648"><ele>166.2</ele><time>2026-04-12T10:10:38.933Z</time></trkpt><trkpt lat="45.11400334261244" lon="13.743389054655953"><ele>166.8</ele><time>2026-04-12T10:10:39.933Z</time></trkpt><trkpt lat="45.11405343353952" lon="13.743536554481379"><ele>167.4</ele><time>2026-04-12T10:10:40.933Z</time></trkpt><trkpt lat="45.11408500848651" lon="13.743656830911165"><ele>168.0</ele><time>2026-04-12T10:10:41.933Z</time></trkpt><trkpt lat="45.11411738309457" lon="13.743782040308181"><ele>168.2</ele><time>2026-04-12T10:10:42.933Z</time></trkpt><trkpt lat="45.11416440997618" lon="13.74389077104109"><ele>168.4</ele><time>2026-04-12T10:10:43.933Z</time></trkpt><trkpt lat="45.1142105679208" lon="13.744015598190776"><ele>168.6</ele><time>2026-04-12T10:10:44.933Z</time></trkpt><trkpt lat="45.11426456578801" lon="13.74415056813927"><ele>168.79999999999998</ele><time>2026-04-12T10:10:45.933Z</time></trkpt><trkpt lat="45.114329871173624" lon="13.744298734439218"><ele>169.0</ele><time>2026-04-12T10:10:46.933Z</time></trkpt><trkpt lat="45.114389510790446" lon="13.74443215267196"><ele>169.0</ele><time>2026-04-12T10:10:47.933Z</time></trkpt><trkpt lat="45.114464291054745" lon="13.744568808918052"><ele>169.0</ele><time>2026-04-12T10:10:48.933Z</time></trkpt><trkpt lat="45.11455393664946" lon="13.744684498946286"><ele>169.0</ele><time>2026-04-12T10:10:49.933Z</time></trkpt><trkpt lat="45.11466192706217" lon="13.744790746415461"><ele>169.0</ele><time>2026-04-12T10:10:50.933Z</time></trkpt><trkpt lat="45.114777610633205" lon="13.744902742148644"><ele>169.0</ele><time>2026-04-12T10:10:51.933Z</time></trkpt><trkpt lat="45.11488569450924" lon="13.745013458264792"><ele>169.0</ele><time>2026-04-12T10:10:52.933Z</time></trkpt><trkpt lat="45.114980981046095" lon="13.745110404076238"><ele>169.0</ele><time>2026-04-12T10:10:53.933Z</time></trkpt><trkpt lat="45.115062143223525" lon="13.745183648453304"><ele>169.0</ele><time>2026-04-12T10:10:54.933Z</time></trkpt><trkpt lat="45.11514112646033" lon="13.745222605867875"><ele>169.0</ele><time>2026-04-12T10:10:56.933Z</time></trkpt><trkpt lat="45.11504783162873" lon="13.745509712434243"><ele>168.6</ele><time>2026-04-12T10:11:25.931Z</time></trkpt><trkpt lat="45.115019691686925" lon="13.745619229794325"><ele>168.2</ele><time>2026-04-12T10:11:26.931Z</time></trkpt><trkpt lat="45.11498941260263" lon="13.745745964722351"><ele>167.79999999999998</ele><time>2026-04-12T10:11:27.931Z</time></trkpt><trkpt lat="45.11495910557941" lon="13.745856078900301"><ele>167.39999999999998</ele><time>2026-04-12T10:11:28.931Z</time></trkpt><trkpt lat="45.11492095085092" lon="13.746004685633059"><ele>167.0</ele><time>2026-04-12T10:11:29.931Z</time></trkpt><trkpt lat="45.11491844450441" lon="13.746144209654881"><ele>167.2</ele><time>2026-04-12T10:11:30.931Z</time></trkpt><trkpt lat="45.114903961934345" lon="13.746275845345627"><ele>167.39999999999998</ele><time>2026-04-12T10:11:31.931Z</time></trkpt><trkpt lat="45.114896705252065" lon="13.74641077361782"><ele>167.60000000000002</ele><time>2026-04-12T10:11:32.931Z</time></trkpt><trkpt lat="45.11489688033689" lon="13.746536712984572"><ele>167.8</ele><time>2026-04-12T10:11:33.931Z</time></trkpt><trkpt lat="45.11489393275282" lon="13.74662902814015"><ele>168.0</ele><time>2026-04-12T10:11:34.931Z</time></trkpt><trkpt lat="45.114918882893015" lon="13.746781515245415"><ele>167.5</ele><time>2026-04-12T10:11:36.931Z</time></trkpt><trkpt lat="45.114953402363824" lon="13.746872899207695"><ele>167.0</ele><time>2026-04-12T10:11:37.931Z</time></trkpt><trkpt lat="45.11499044010747" lon="13.746960069329356"><ele>166.5</ele><time>2026-04-12T10:11:38.931Z</time></trkpt><trkpt lat="45.11502009225374" lon="13.747076991632595"><ele>166.0</ele><time>2026-04-12T10:11:39.931Z</time></trkpt><trkpt lat="45.11503465187967" lon="13.747214331172765"><ele>165.5</ele><time>2026-04-12T10:11:40.931Z</time></trkpt><trkpt lat="45.11502166694092" lon="13.747348978583291"><ele>165.0</ele><time>2026-04-12T10:11:41.931Z</time></trkpt><trkpt lat="45.114996407694214" lon="13.747480697588585"><ele>164.8</ele><time>2026-04-12T10:11:42.931Z</time></trkpt><trkpt lat="45.11498412243493" lon="13.747605079831535"><ele>164.6</ele><time>2026-04-12T10:11:43.931Z</time></trkpt><trkpt lat="45.11498371499401" lon="13.747747255747456"><ele>164.39999999999998</ele><time>2026-04-12T10:11:44.931Z</time></trkpt><trkpt lat="45.11499018508684" lon="13.747920773913284"><ele>164.2</ele><time>2026-04-12T10:11:45.931Z</time></trkpt><trkpt lat="45.114977704055136" lon="13.748072845558275"><ele>164.0</ele><time>2026-04-12T10:11:46.931Z</time></trkpt><trkpt lat="45.114948472841924" lon="13.748208763711952"><ele>164.0</ele><time>2026-04-12T10:11:47.931Z</time></trkpt><trkpt lat="45.114913337084204" lon="13.748322149751386"><ele>164.0</ele><time>2026-04-12T10:11:48.931Z</time></trkpt><trkpt lat="45.11485781553171" lon="13.748473838633295"><ele>164.0</ele><time>2026-04-12T10:11:49.931Z</time></trkpt><trkpt lat="45.114804171385266" lon="13.748633118284548"><ele>164.0</ele><time>2026-04-12T10:11:50.931Z</time></trkpt><trkpt lat="45.11475262256563" lon="13.748769423272504"><ele>164.0</ele><time>2026-04-12T10:11:51.931Z</time></trkpt><trkpt lat="45.11470653504928" lon="13.748883170872451"><ele>164.0</ele><time>2026-04-12T10:11:52.931Z</time></trkpt><trkpt lat="45.11468322914957" lon="13.749007157496527"><ele>164.0</ele><time>2026-04-12T10:11:53.931Z</time></trkpt><trkpt lat="45.114682491624215" lon="13.749135953623929"><ele>164.0</ele><time>2026-04-12T10:11:54.931Z</time></trkpt><trkpt lat="45.114690052600345" lon="13.749252108532811"><ele>164.0</ele><time>2026-04-12T10:11:55.931Z</time></trkpt><trkpt lat="45.11471983192156" lon="13.749345568078688"><ele>164.0</ele><time>2026-04-12T10:11:56.931Z</time></trkpt><trkpt lat="45.114768998116105" lon="13.749446499973475"><ele>164.0</ele><time>2026-04-12T10:11:57.931Z</time></trkpt><trkpt lat="45.11484494001132" lon="13.749565098897328"><ele>163.79999999999998</ele><time>2026-04-12T10:11:58.932Z</time></trkpt><trkpt lat="45.11492334023434" lon="13.749695473907705"><ele>163.6</ele><time>2026-04-12T10:11:59.932Z</time></trkpt><trkpt lat="45.11497642083234" lon="13.749803435595291"><ele>163.4</ele><time>2026-04-12T10:12:00.932Z</time></trkpt><trkpt lat="45.114984094663946" lon="13.749915399851263"><ele>163.2</ele><time>2026-04-12T10:12:01.932Z</time></trkpt><trkpt lat="45.11498607295382" lon="13.7500212908175"><ele>163.0</ele><time>2026-04-12T10:12:02.932Z</time></trkpt><trkpt lat="45.114989146964945" lon="13.750147000687905"><ele>163.2</ele><time>2026-04-12T10:12:03.932Z</time></trkpt><trkpt lat="45.115124075085205" lon="13.750278172698229"><ele>163.4</ele><time>2026-04-12T10:12:05.932Z</time></trkpt><trkpt lat="45.11520786963903" lon="13.750293076374549"><ele>163.6</ele><time>2026-04-12T10:12:06.932Z</time></trkpt><trkpt lat="45.11527413319083" lon="13.750327503052738"><ele>163.79999999999998</ele><time>2026-04-12T10:12:07.932Z</time></trkpt><trkpt lat="45.11533247702845" lon="13.75043479568699"><ele>164.0</ele><time>2026-04-12T10:12:08.932Z</time></trkpt><trkpt lat="45.11537537100415" lon="13.750592912449644"><ele>164.0</ele><time>2026-04-12T10:12:09.932Z</time></trkpt><trkpt lat="45.1154104377497" lon="13.750746873140542"><ele>164.0</ele><time>2026-04-12T10:12:10.932Z</time></trkpt><trkpt lat="45.115430879445114" lon="13.750887964060638"><ele>164.0</ele><time>2026-04-12T10:12:11.932Z</time></trkpt><trkpt lat="45.115446464162666" lon="13.751005524383665"><ele>164.0</ele><time>2026-04-12T10:12:12.932Z</time></trkpt><trkpt lat="45.11544850515157" lon="13.751104988480115"><ele>164.0</ele><time>2026-04-12T10:12:13.932Z</time></trkpt><trkpt lat="45.11542891094893" lon="13.751200867288016"><ele>164.0</ele><time>2026-04-12T10:12:14.932Z</time></trkpt><trkpt lat="45.115386330059" lon="13.751292410352272"><ele>163.83333333333331</ele><time>2026-04-12T10:12:15.932Z</time></trkpt><trkpt lat="45.11534117425116" lon="13.751394678350163"><ele>163.66666666666666</ele><time>2026-04-12T10:12:16.932Z</time></trkpt><trkpt lat="45.11531533438612" lon="13.751484806412593"><ele>163.5</ele><time>2026-04-12T10:12:17.932Z</time></trkpt><trkpt lat="45.115289285335614" lon="13.751591700261864"><ele>163.33333333333334</ele><time>2026-04-12T10:12:19.932Z</time></trkpt><trkpt lat="45.115335865212" lon="13.751675462435307"><ele>163.16666666666669</ele><time>2026-04-12T10:12:22.932Z</time></trkpt><trkpt lat="45.11539560661492" lon="13.751733800911826"><ele>163.0</ele><time>2026-04-12T10:12:24.932Z</time></trkpt><trkpt lat="45.11547790655654" lon="13.751791849711976"><ele>163.0</ele><time>2026-04-12T10:12:26.932Z</time></trkpt><trkpt lat="45.11555318799012" lon="13.751839318132319"><ele>163.0</ele><time>2026-04-12T10:12:28.932Z</time></trkpt><trkpt lat="45.115638530178835" lon="13.751877498517935"><ele>163.0</ele><time>2026-04-12T10:12:30.932Z</time></trkpt><trkpt lat="45.11571743615143" lon="13.751963557720318"><ele>163.0</ele><time>2026-04-12T10:12:32.932Z</time></trkpt><trkpt lat="45.11578228879296" lon="13.752092167421642"><ele>163.0</ele><time>2026-04-12T10:12:34.932Z</time></trkpt><trkpt lat="45.11581222967133" lon="13.752173045763492"><ele>163.0</ele><time>2026-04-12T10:12:35.932Z</time></trkpt><trkpt lat="45.11590696128244" lon="13.752288978335228"><ele>161.57142857142858</ele><time>2026-04-12T10:12:37.932Z</time></trkpt><trkpt lat="45.1159770668802" lon="13.75228603989556"><ele>160.14285714285714</ele><time>2026-04-12T10:12:38.932Z</time></trkpt><trkpt lat="45.11604060906169" lon="13.75231306064844"><ele>158.71428571428572</ele><time>2026-04-12T10:12:39.932Z</time></trkpt><trkpt lat="45.116114499946896" lon="13.752322975890715"><ele>157.28571428571428</ele><time>2026-04-12T10:12:40.932Z</time></trkpt><trkpt lat="45.11617459751262" lon="13.752351908803009"><ele>155.85714285714286</ele><time>2026-04-12T10:12:41.932Z</time></trkpt><trkpt lat="45.11625008282011" lon="13.752377520568334"><ele>154.42857142857142</ele><time>2026-04-12T10:12:42.932Z</time></trkpt><trkpt lat="45.116332373774746" lon="13.752391508542658"><ele>153.0</ele><time>2026-04-12T10:12:43.932Z</time></trkpt><trkpt lat="45.1164251063546" lon="13.752389698900112"><ele>153.0</ele><time>2026-04-12T10:12:44.932Z</time></trkpt><trkpt lat="45.11652181848426" lon="13.752370869183636"><ele>153.0</ele><time>2026-04-12T10:12:45.932Z</time></trkpt><trkpt lat="45.11660250042707" lon="13.752393252376333"><ele>153.0</ele><time>2026-04-12T10:12:46.932Z</time></trkpt><trkpt lat="45.11668505221562" lon="13.75244114680488"><ele>153.0</ele><time>2026-04-12T10:12:47.932Z</time></trkpt><trkpt lat="45.1167675319095" lon="13.752485061399002"><ele>153.0</ele><time>2026-04-12T10:12:48.932Z</time></trkpt><trkpt lat="45.116843296154656" lon="13.752531538975708"><ele>153.0</ele><time>2026-04-12T10:12:49.932Z</time></trkpt><trkpt lat="45.11689663676433" lon="13.752599127400236"><ele>152.20000000000002</ele><time>2026-04-12T10:12:50.932Z</time></trkpt><trkpt lat="45.11692601166704" lon="13.752678123799251"><ele>151.4</ele><time>2026-04-12T10:12:51.932Z</time></trkpt><trkpt lat="45.11696372423094" lon="13.75279598734674"><ele>150.60000000000002</ele><time>2026-04-12T10:12:52.932Z</time></trkpt><trkpt lat="45.11701824190413" lon="13.752941568314789"><ele>149.8</ele><time>2026-04-12T10:12:53.932Z</time></trkpt><trkpt lat="45.117074864803726" lon="13.75306400029946"><ele>149.0</ele><time>2026-04-12T10:12:54.932Z</time></trkpt><trkpt lat="45.11714387639369" lon="13.75317591810448"><ele>148.6</ele><time>2026-04-12T10:12:55.932Z</time></trkpt><trkpt lat="45.11721577099971" lon="13.753239156211025"><ele>148.2</ele><time>2026-04-12T10:12:56.932Z</time></trkpt><trkpt lat="45.117289293691165" lon="13.753300680038443"><ele>147.79999999999998</ele><time>2026-04-12T10:12:57.932Z</time></trkpt><trkpt lat="45.1173792679238" lon="13.753343276155558"><ele>147.4</ele><time>2026-04-12T10:12:58.932Z</time></trkpt><trkpt lat="45.117478645798464" lon="13.753380146042844"><ele>147.0</ele><time>2026-04-12T10:12:59.932Z</time></trkpt><trkpt lat="45.11756764179302" lon="13.753437053694261"><ele>147.6</ele><time>2026-04-12T10:13:00.932Z</time></trkpt><trkpt lat="45.11764759086532" lon="13.753484033370306"><ele>148.2</ele><time>2026-04-12T10:13:01.932Z</time></trkpt><trkpt lat="45.117761415441294" lon="13.753498531561567"><ele>148.8</ele><time>2026-04-12T10:13:02.932Z</time></trkpt><trkpt lat="45.11788396781719" lon="13.75349411520736"><ele>149.4</ele><time>2026-04-12T10:13:03.932Z</time></trkpt><trkpt lat="45.117993216558354" lon="13.753519652418186"><ele>150.0</ele><time>2026-04-12T10:13:04.932Z</time></trkpt><trkpt lat="45.118084605455856" lon="13.753553230612395"><ele>150.0</ele><time>2026-04-12T10:13:05.932Z</time></trkpt><trkpt lat="45.118171008422266" lon="13.75358745316136"><ele>150.0</ele><time>2026-04-12T10:13:06.932Z</time></trkpt><trkpt lat="45.118246153178625" lon="13.753636580862757"><ele>150.0</ele><time>2026-04-12T10:13:07.932Z</time></trkpt><trkpt lat="45.118329136596365" lon="13.75372288862751"><ele>150.0</ele><time>2026-04-12T10:13:08.932Z</time></trkpt><trkpt lat="45.11842204181224" lon="13.753830609102849"><ele>150.0</ele><time>2026-04-12T10:13:09.932Z</time></trkpt><trkpt lat="45.11849714794531" lon="13.753923876803348"><ele>150.5</ele><time>2026-04-12T10:13:10.932Z</time></trkpt><trkpt lat="45.118569637474984" lon="13.753985325989257"><ele>151.0</ele><time>2026-04-12T10:13:11.932Z</time></trkpt><trkpt lat="45.11865514000639" lon="13.754021135486209"><ele>151.5</ele><time>2026-04-12T10:13:12.932Z</time></trkpt><trkpt lat="45.11873715756319" lon="13.75403511928381"><ele>152.0</ele><time>2026-04-12T10:13:13.932Z</time></trkpt><trkpt lat="45.1188226447854" lon="13.754010758984114"><ele>152.5</ele><time>2026-04-12T10:13:14.932Z</time></trkpt><trkpt lat="45.11891489326422" lon="13.753946151711377"><ele>153.0</ele><time>2026-04-12T10:13:15.932Z</time></trkpt><trkpt lat="45.11901216927244" lon="13.7538507837394"><ele>153.20000000000002</ele><time>2026-04-12T10:13:16.931Z</time></trkpt><trkpt lat="45.1190950638733" lon="13.753768096095005"><ele>153.4</ele><time>2026-04-12T10:13:17.931Z</time></trkpt><trkpt lat="45.11916460517572" lon="13.753716900738375"><ele>153.60000000000002</ele><time>2026-04-12T10:13:18.931Z</time></trkpt><trkpt lat="45.119246419263476" lon="13.75372837661982"><ele>153.8</ele><time>2026-04-12T10:13:20.932Z</time></trkpt><trkpt lat="45.11933992811238" lon="13.75388926391815"><ele>154.0</ele><time>2026-04-12T10:13:22.932Z</time></trkpt><trkpt lat="45.11940172612506" lon="13.753973573966299"><ele>154.0</ele><time>2026-04-12T10:13:23.932Z</time></trkpt><trkpt lat="45.11946781676858" lon="13.75403422742208"><ele>154.0</ele><time>2026-04-12T10:13:24.932Z</time></trkpt><trkpt lat="45.11951325612743" lon="13.754104039925666"><ele>154.0</ele><time>2026-04-12T10:13:25.931Z</time></trkpt><trkpt lat="45.11954438934915" lon="13.754206008812753"><ele>154.0</ele><time>2026-04-12T10:13:26.931Z</time></trkpt><trkpt lat="45.11957508777565" lon="13.754324906266099"><ele>154.0</ele><time>2026-04-12T10:13:27.932Z</time></trkpt><trkpt lat="45.11959480158785" lon="13.754413548428477"><ele>154.0</ele><time>2026-04-12T10:13:28.931Z</time></trkpt><trkpt lat="45.11960347621784" lon="13.754502658592605"><ele>154.0</ele><time>2026-04-12T10:13:29.931Z</time></trkpt><trkpt lat="45.11958482926014" lon="13.754690102826743"><ele>154.0</ele><time>2026-04-12T10:13:31.931Z</time></trkpt><trkpt lat="45.119562531616324" lon="13.754798244407477"><ele>154.0</ele><time>2026-04-12T10:13:32.931Z</time></trkpt><trkpt lat="45.11954421009134" lon="13.754909950402677"><ele>154.0</ele><time>2026-04-12T10:13:33.931Z</time></trkpt><trkpt lat="45.119519238535766" lon="13.754995817043346"><ele>154.0</ele><time>2026-04-12T10:13:34.931Z</time></trkpt><trkpt lat="45.119472418035315" lon="13.755126003258127"><ele>154.0</ele><time>2026-04-12T10:13:36.931Z</time></trkpt><trkpt lat="45.1194467799636" lon="13.75520856820522"><ele>154.0</ele><time>2026-04-12T10:13:38.931Z</time></trkpt><trkpt lat="45.11942165702913" lon="13.755303697584033"><ele>154.0</ele><time>2026-04-12T10:13:42.931Z</time></trkpt><trkpt lat="45.119477562780105" lon="13.755361481995292"><ele>154.0</ele><time>2026-04-12T10:13:46.931Z</time></trkpt><trkpt lat="45.11958779740235" lon="13.755159920715816"><ele>154.0</ele><time>2026-04-12T10:13:51.931Z</time></trkpt><trkpt lat="45.11963297893104" lon="13.755054217485679"><ele>154.0</ele><time>2026-04-12T10:13:52.931Z</time></trkpt><trkpt lat="45.11969398866246" lon="13.754924584310986"><ele>154.0</ele><time>2026-04-12T10:13:53.931Z</time></trkpt><trkpt lat="45.11974956293559" lon="13.754806193261865"><ele>154.0</ele><time>2026-04-12T10:13:54.931Z</time></trkpt><trkpt lat="45.11979294514067" lon="13.754693404227035"><ele>154.0</ele><time>2026-04-12T10:13:55.931Z</time></trkpt><trkpt lat="45.119836594031526" lon="13.754590348165824"><ele>154.0</ele><time>2026-04-12T10:13:56.931Z</time></trkpt><trkpt lat="45.119923533873795" lon="13.754460170571077"><ele>154.0</ele><time>2026-04-12T10:13:58.931Z</time></trkpt><trkpt lat="45.12001498040676" lon="13.754376110428009"><ele>154.0</ele><time>2026-04-12T10:13:59.931Z</time></trkpt><trkpt lat="45.120117902114046" lon="13.75428455465954"><ele>151.75</ele><time>2026-04-12T10:14:00.931Z</time></trkpt><trkpt lat="45.12021462276789" lon="13.754166127449926"><ele>149.5</ele><time>2026-04-12T10:14:01.931Z</time></trkpt><trkpt lat="45.12031424474026" lon="13.75406919978137"><ele>147.25</ele><time>2026-04-12T10:14:02.931Z</time></trkpt><trkpt lat="45.12041920726285" lon="13.753975983270664"><ele>145.0</ele><time>2026-04-12T10:14:03.931Z</time></trkpt><trkpt lat="45.120511201616004" lon="13.753911928306788"><ele>145.0</ele><time>2026-04-12T10:14:04.931Z</time></trkpt><trkpt lat="45.12060572183809" lon="13.753863036168239"><ele>145.0</ele><time>2026-04-12T10:14:05.931Z</time></trkpt><trkpt lat="45.12070322260948" lon="13.753831983487572"><ele>145.0</ele><time>2026-04-12T10:14:06.931Z</time></trkpt><trkpt lat="45.12080889558622" lon="13.753807915883351"><ele>145.0</ele><time>2026-04-12T10:14:07.931Z</time></trkpt><trkpt lat="45.120878305853495" lon="13.753778003969645"><ele>145.0</ele><time>2026-04-12T10:14:08.931Z</time></trkpt><trkpt lat="45.12096785786295" lon="13.7537653857259"><ele>141.0</ele><time>2026-04-12T10:14:09.931Z</time></trkpt><trkpt lat="45.12104249643402" lon="13.753733088650808"><ele>137.0</ele><time>2026-04-12T10:14:10.931Z</time></trkpt><trkpt lat="45.1211187257321" lon="13.753690948449528"><ele>133.0</ele><time>2026-04-12T10:14:11.931Z</time></trkpt><trkpt lat="45.121212191055015" lon="13.753665209182502"><ele>129.0</ele><time>2026-04-12T10:14:12.931Z</time></trkpt><trkpt lat="45.121292432390774" lon="13.753628693075845"><ele>125.00000000000001</ele><time>2026-04-12T10:14:13.931Z</time></trkpt><trkpt lat="45.12137707310066" lon="13.753594843304233"><ele>121.0</ele><time>2026-04-12T10:14:14.931Z</time></trkpt><trkpt lat="45.12145798058831" lon="13.753555861667147"><ele>120.50000000000001</ele><time>2026-04-12T10:14:15.931Z</time></trkpt><trkpt lat="45.12153015145288" lon="13.753513846192222"><ele>120.0</ele><time>2026-04-12T10:14:16.931Z</time></trkpt><trkpt lat="45.12161350657836" lon="13.753466451304359"><ele>119.5</ele><time>2026-04-12T10:14:17.931Z</time></trkpt><trkpt lat="45.121690210136336" lon="13.753398798823032"><ele>119.0</ele><time>2026-04-12T10:14:18.931Z</time></trkpt><trkpt lat="45.12175846682711" lon="13.753360088406387"><ele>118.50000000000001</ele><time>2026-04-12T10:14:19.931Z</time></trkpt><trkpt lat="45.12183571989683" lon="13.753332641326303"><ele>118.0</ele><time>2026-04-12T10:14:20.931Z</time></trkpt><trkpt lat="45.121942715794596" lon="13.753317791573163"><ele>118.00000000000001</ele><time>2026-04-12T10:14:22.931Z</time></trkpt><trkpt lat="45.122071682591454" lon="13.753350316028522"><ele>118.0</ele><time>2026-04-12T10:14:24.931Z</time></trkpt><trkpt lat="45.12213652666823" lon="13.753338237126172"><ele>118.0</ele><time>2026-04-12T10:14:25.931Z</time></trkpt><trkpt lat="45.1222060325415" lon="13.753340604239035"><ele>118.0</ele><time>2026-04-12T10:14:26.931Z</time></trkpt><trkpt lat="45.12227520916931" lon="13.753333729719696"><ele>118.00000000000001</ele><time>2026-04-12T10:14:27.931Z</time></trkpt><trkpt lat="45.122347530268286" lon="13.75332958324302"><ele>118.0</ele><time>2026-04-12T10:14:28.931Z</time></trkpt><trkpt lat="45.12242054109942" lon="13.753310740850011"><ele>115.42857142857143</ele><time>2026-04-12T10:14:29.931Z</time></trkpt><trkpt lat="45.122486650816484" lon="13.753297345075088"><ele>112.85714285714286</ele><time>2026-04-12T10:14:30.931Z</time></trkpt><trkpt lat="45.12256063847003" lon="13.753293027735973"><ele>110.28571428571429</ele><time>2026-04-12T10:14:31.931Z</time></trkpt><trkpt lat="45.12264458827154" lon="13.753272097249921"><ele>107.71428571428572</ele><time>2026-04-12T10:14:32.931Z</time></trkpt><trkpt lat="45.122720497613415" lon="13.753255019470192"><ele>105.14285714285714</ele><time>2026-04-12T10:14:33.931Z</time></trkpt><trkpt lat="45.12278308673122" lon="13.753240767523986"><ele>102.57142857142858</ele><time>2026-04-12T10:14:34.931Z</time></trkpt><trkpt lat="45.12284612165902" lon="13.753232894285869"><ele>100.0</ele><time>2026-04-12T10:14:35.931Z</time></trkpt><trkpt lat="45.12296163715973" lon="13.753217013860441"><ele>100.0</ele><time>2026-04-12T10:14:37.931Z</time></trkpt><trkpt lat="45.12313408181191" lon="13.753493590701334"><ele>100.0</ele><time>2026-04-12T10:14:39.931Z</time></trkpt><trkpt lat="45.123136134233214" lon="13.753211393351652"><ele>100.0</ele><time>2026-04-12T10:14:40.931Z</time></trkpt><trkpt lat="45.12321920259235" lon="13.753207578418403"><ele>100.0</ele><time>2026-04-12T10:14:42.931Z</time></trkpt><trkpt lat="45.12339920314523" lon="13.753206452726193"><ele>100.0</ele><time>2026-04-12T10:15:01.931Z</time></trkpt><trkpt lat="45.12335723508957" lon="13.75327342725528"><ele>100.0</ele><time>2026-04-12T10:15:25.931Z</time></trkpt><trkpt lat="45.12329030494066" lon="13.7533215741254"><ele>100.0</ele><time>2026-04-12T10:15:30.932Z</time></trkpt><trkpt lat="45.123250467188385" lon="13.75340312827779"><ele>95.25</ele><time>2026-04-12T10:15:40.932Z</time></trkpt><trkpt lat="45.12336942682079" lon="13.753421644418191"><ele>90.5</ele><time>2026-04-12T10:15:47.932Z</time></trkpt><trkpt lat="45.1234740393767" lon="13.753353111880802"><ele>85.75</ele><time>2026-04-12T10:15:48.932Z</time></trkpt><trkpt lat="45.12359410199287" lon="13.75327546829378"><ele>81.0</ele><time>2026-04-12T10:15:49.932Z</time></trkpt><trkpt lat="45.123728265404665" lon="13.753161404086995"><ele>81.0</ele><time>2026-04-12T10:15:50.932Z</time></trkpt><trkpt lat="45.123882051592005" lon="13.7530311416206"><ele>81.0</ele><time>2026-04-12T10:15:51.932Z</time></trkpt><trkpt lat="45.12402078706189" lon="13.752880862311322"><ele>81.0</ele><time>2026-04-12T10:15:52.932Z</time></trkpt><trkpt lat="45.12416452279509" lon="13.752685219525455"><ele>80.33333333333333</ele><time>2026-04-12T10:15:53.932Z</time></trkpt><trkpt lat="45.12429210878911" lon="13.752495843279137"><ele>79.66666666666666</ele><time>2026-04-12T10:15:54.932Z</time></trkpt><trkpt lat="45.124396464272486" lon="13.752300734571964"><ele>79.0</ele><time>2026-04-12T10:15:55.932Z</time></trkpt><trkpt lat="45.12449796246292" lon="13.75209563415889"><ele>79.0</ele><time>2026-04-12T10:15:56.932Z</time></trkpt><trkpt lat="45.124581274835336" lon="13.75187982114245"><ele>79.0</ele><time>2026-04-12T10:15:57.932Z</time></trkpt><trkpt lat="45.12464789309846" lon="13.751667063444946"><ele>79.0</ele><time>2026-04-12T10:15:58.932Z</time></trkpt><trkpt lat="45.12472097229531" lon="13.75145456176016"><ele>75.25</ele><time>2026-04-12T10:15:59.932Z</time></trkpt><trkpt lat="45.124787637087245" lon="13.751258565781201"><ele>71.5</ele><time>2026-04-12T10:16:00.932Z</time></trkpt><trkpt lat="45.12486145116113" lon="13.751072135020596"><ele>67.75</ele><time>2026-04-12T10:16:01.932Z</time></trkpt><trkpt lat="45.124937117335485" lon="13.750904549675624"><ele>64.0</ele><time>2026-04-12T10:16:02.932Z</time></trkpt><trkpt lat="45.12503137597096" lon="13.750749988866207"><ele>64.0</ele><time>2026-04-12T10:16:03.932Z</time></trkpt><trkpt lat="45.125136901692045" lon="13.750609570823759"><ele>64.0</ele><time>2026-04-12T10:16:04.932Z</time></trkpt><trkpt lat="45.12525237490473" lon="13.750474481411116"><ele>64.0</ele><time>2026-04-12T10:16:05.932Z</time></trkpt><trkpt lat="45.12536868260631" lon="13.750341127877798"><ele>64.0</ele><time>2026-04-12T10:16:06.932Z</time></trkpt><trkpt lat="45.125497195196516" lon="13.750219100040296"><ele>62.0</ele><time>2026-04-12T10:16:07.932Z</time></trkpt><trkpt lat="45.12564591596099" lon="13.750114402650436"><ele>60.0</ele><time>2026-04-12T10:16:08.932Z</time></trkpt><trkpt lat="45.12579549554144" lon="13.75001095720059"><ele>58.0</ele><time>2026-04-12T10:16:09.932Z</time></trkpt><trkpt lat="45.125946872425544" lon="13.749910381882557"><ele>58.0</ele><time>2026-04-12T10:16:10.932Z</time></trkpt><trkpt lat="45.12608985527785" lon="13.749803407967352"><ele>58.0</ele><time>2026-04-12T10:16:11.932Z</time></trkpt><trkpt lat="45.12622651395094" lon="13.74969137159505"><ele>58.0</ele><time>2026-04-12T10:16:12.932Z</time></trkpt><trkpt lat="45.12636890026246" lon="13.749583384431237"><ele>58.0</ele><time>2026-04-12T10:16:13.932Z</time></trkpt><trkpt lat="45.126512191643954" lon="13.749476334670076"><ele>58.0</ele><time>2026-04-12T10:16:14.932Z</time></trkpt><trkpt lat="45.126650516683995" lon="13.749376868855943"><ele>58.0</ele><time>2026-04-12T10:16:15.932Z</time></trkpt><trkpt lat="45.126782450293206" lon="13.74927661129624"><ele>56.75</ele><time>2026-04-12T10:16:16.932Z</time></trkpt><trkpt lat="45.12690411891483" lon="13.749170185212598"><ele>55.5</ele><time>2026-04-12T10:16:17.932Z</time></trkpt><trkpt lat="45.12701008681174" lon="13.749037355492137"><ele>54.25</ele><time>2026-04-12T10:16:18.932Z</time></trkpt><trkpt lat="45.1270939838088" lon="13.748893652851882"><ele>53.0</ele><time>2026-04-12T10:16:19.932Z</time></trkpt><trkpt lat="45.12714770756494" lon="13.74872051504016"><ele>53.0</ele><time>2026-04-12T10:16:20.932Z</time></trkpt><trkpt lat="45.127197991348055" lon="13.748547904998617"><ele>53.0</ele><time>2026-04-12T10:16:21.932Z</time></trkpt><trkpt lat="45.12721315524288" lon="13.748354517960125"><ele>53.0</ele><time>2026-04-12T10:16:22.932Z</time></trkpt><trkpt lat="45.1272133664208" lon="13.74816010113357"><ele>53.0</ele><time>2026-04-12T10:16:23.932Z</time></trkpt><trkpt lat="45.12717777928927" lon="13.747945447733157"><ele>57.333333333333336</ele><time>2026-04-12T10:16:24.932Z</time></trkpt><trkpt lat="45.127134288519926" lon="13.747727202207736"><ele>61.66666666666667</ele><time>2026-04-12T10:16:25.932Z</time></trkpt><trkpt lat="45.12708694326381" lon="13.747506798568036"><ele>66.0</ele><time>2026-04-12T10:16:26.932Z</time></trkpt><trkpt lat="45.127054662540054" lon="13.747286160478303"><ele>66.0</ele><time>2026-04-12T10:16:27.932Z</time></trkpt><trkpt lat="45.12703240334298" lon="13.747068702273992"><ele>66.0</ele><time>2026-04-12T10:16:28.932Z</time></trkpt><trkpt lat="45.12702284390117" lon="13.74684152963588"><ele>66.0</ele><time>2026-04-12T10:16:29.932Z</time></trkpt><trkpt lat="45.127036833927264" lon="13.746602509723456"><ele>64.66666666666667</ele><time>2026-04-12T10:16:30.932Z</time></trkpt><trkpt lat="45.127071016160684" lon="13.746362726342934"><ele>63.333333333333336</ele><time>2026-04-12T10:16:31.932Z</time></trkpt><trkpt lat="45.12712077385104" lon="13.746121188253586"><ele>62.0</ele><time>2026-04-12T10:16:32.932Z</time></trkpt><trkpt lat="45.12714406847849" lon="13.745886536211207"><ele>61.75</ele><time>2026-04-12T10:16:33.932Z</time></trkpt><trkpt lat="45.127164518014126" lon="13.745673527144952"><ele>61.5</ele><time>2026-04-12T10:16:34.932Z</time></trkpt><trkpt lat="45.12720052816339" lon="13.745476694317084"><ele>61.25</ele><time>2026-04-12T10:16:35.932Z</time></trkpt><trkpt lat="45.12726831318676" lon="13.745304277030034"><ele>61.0</ele><time>2026-04-12T10:16:36.932Z</time></trkpt><trkpt lat="45.12736654365653" lon="13.745145072306038"><ele>49.33333333333333</ele><time>2026-04-12T10:16:37.932Z</time></trkpt><trkpt lat="45.12747802159378" lon="13.744980276741707"><ele>37.666666666666664</ele><time>2026-04-12T10:16:38.932Z</time></trkpt><trkpt lat="45.127613696850545" lon="13.744813132908751"><ele>26.0</ele><time>2026-04-12T10:16:39.932Z</time></trkpt><trkpt lat="45.12778279014035" lon="13.744647744387054"><ele>26.0</ele><time>2026-04-12T10:16:40.932Z</time></trkpt><trkpt lat="45.12794844686736" lon="13.744501659897551"><ele>26.0</ele><time>2026-04-12T10:16:41.932Z</time></trkpt><trkpt lat="45.12811244976659" lon="13.744359459994257"><ele>26.0</ele><time>2026-04-12T10:16:42.932Z</time></trkpt><trkpt lat="45.12826945237154" lon="13.744206348389456"><ele>25.333333333333332</ele><time>2026-04-12T10:16:43.932Z</time></trkpt><trkpt lat="45.12842682527534" lon="13.744040626741416"><ele>24.666666666666664</ele><time>2026-04-12T10:16:44.932Z</time></trkpt><trkpt lat="45.12858872121607" lon="13.743887636333119"><ele>24.0</ele><time>2026-04-12T10:16:45.932Z</time></trkpt><trkpt lat="45.12874339593996" lon="13.743739153273106"><ele>24.0</ele><time>2026-04-12T10:16:46.932Z</time></trkpt><trkpt lat="45.12887741448212" lon="13.743586371619559"><ele>24.0</ele><time>2026-04-12T10:16:47.932Z</time></trkpt><trkpt lat="45.12899852021171" lon="13.743411945117993"><ele>24.0</ele><time>2026-04-12T10:16:48.932Z</time></trkpt><trkpt lat="45.129090704851095" lon="13.743216007427835"><ele>24.333333333333336</ele><time>2026-04-12T10:16:49.932Z</time></trkpt><trkpt lat="45.129145468063804" lon="13.74298042660433"><ele>24.666666666666668</ele><time>2026-04-12T10:16:50.932Z</time></trkpt><trkpt lat="45.129188062368414" lon="13.742713583201713"><ele>25.0</ele><time>2026-04-12T10:16:51.932Z</time></trkpt><trkpt lat="45.129231498184176" lon="13.742444959094207"><ele>22.666666666666668</ele><time>2026-04-12T10:16:52.932Z</time></trkpt><trkpt lat="45.129277630323955" lon="13.74218726884408"><ele>20.333333333333336</ele><time>2026-04-12T10:16:53.932Z</time></trkpt><trkpt lat="45.12933636358737" lon="13.741919817818173"><ele>18.0</ele><time>2026-04-12T10:16:54.932Z</time></trkpt><trkpt lat="45.129392449864035" lon="13.74165912319349"><ele>17.333333333333332</ele><time>2026-04-12T10:16:55.932Z</time></trkpt><trkpt lat="45.129447815818" lon="13.741409151038399"><ele>16.666666666666664</ele><time>2026-04-12T10:16:56.932Z</time></trkpt><trkpt lat="45.12948846425156" lon="13.741173359997129"><ele>16.0</ele><time>2026-04-12T10:16:57.932Z</time></trkpt><trkpt lat="45.1294971034097" lon="13.740943816105084"><ele>15.25</ele><time>2026-04-12T10:16:58.932Z</time></trkpt><trkpt lat="45.12947754350997" lon="13.740737213108654"><ele>14.5</ele><time>2026-04-12T10:16:59.932Z</time></trkpt><trkpt lat="45.12945951365473" lon="13.740521651502428"><ele>13.75</ele><time>2026-04-12T10:17:00.932Z</time></trkpt><trkpt lat="45.12945404757702" lon="13.74031177483818"><ele>13.0</ele><time>2026-04-12T10:17:01.932Z</time></trkpt><trkpt lat="45.12949213263263" lon="13.740116107283207"><ele>12.0</ele><time>2026-04-12T10:17:02.932Z</time></trkpt><trkpt lat="45.129556376894485" lon="13.739940970110942"><ele>11.0</ele><time>2026-04-12T10:17:03.932Z</time></trkpt><trkpt lat="45.129677303462984" lon="13.73980933139209"><ele>10.0</ele><time>2026-04-12T10:17:04.932Z</time></trkpt><trkpt lat="45.12980320953816" lon="13.739660056700613"><ele>13.666666666666668</ele><time>2026-04-12T10:17:05.932Z</time></trkpt><trkpt lat="45.129936038942226" lon="13.739496094827311"><ele>17.333333333333332</ele><time>2026-04-12T10:17:06.932Z</time></trkpt><trkpt lat="45.13008668851856" lon="13.739308873488541"><ele>21.0</ele><time>2026-04-12T10:17:07.932Z</time></trkpt><trkpt lat="45.13023757538142" lon="13.739127862590676"><ele>21.0</ele><time>2026-04-12T10:17:08.932Z</time></trkpt><trkpt lat="45.130368313677074" lon="13.738945255871904"><ele>21.0</ele><time>2026-04-12T10:17:09.932Z</time></trkpt><trkpt lat="45.13049689455865" lon="13.738794391235011"><ele>21.0</ele><time>2026-04-12T10:17:10.932Z</time></trkpt><trkpt lat="45.1306234480512" lon="13.73863961562827"><ele>25.333333333333336</ele><time>2026-04-12T10:17:11.932Z</time></trkpt><trkpt lat="45.13074867046238" lon="13.738491262035385"><ele>29.666666666666668</ele><time>2026-04-12T10:17:12.932Z</time></trkpt><trkpt lat="45.13087033484027" lon="13.738343415296749"><ele>34.0</ele><time>2026-04-12T10:17:13.932Z</time></trkpt><trkpt lat="45.13098705610466" lon="13.73819526356082"><ele>34.0</ele><time>2026-04-12T10:17:14.932Z</time></trkpt><trkpt lat="45.13109787065472" lon="13.738033787527952"><ele>34.0</ele><time>2026-04-12T10:17:15.932Z</time></trkpt><trkpt lat="45.131205573243946" lon="13.737867461212703"><ele>34.0</ele><time>2026-04-12T10:17:16.932Z</time></trkpt><trkpt lat="45.13131117566304" lon="13.737703668531521"><ele>29.0</ele><time>2026-04-12T10:17:17.932Z</time></trkpt><trkpt lat="45.13142002872111" lon="13.737543388232389"><ele>24.0</ele><time>2026-04-12T10:17:18.932Z</time></trkpt><trkpt lat="45.13152903192137" lon="13.737384822367279"><ele>19.0</ele><time>2026-04-12T10:17:19.932Z</time></trkpt><trkpt lat="45.131652051416324" lon="13.737240853847293"><ele>23.0</ele><time>2026-04-12T10:17:20.932Z</time></trkpt><trkpt lat="45.13174991772058" lon="13.73707069281872"><ele>27.0</ele><time>2026-04-12T10:17:21.932Z</time></trkpt><trkpt lat="45.13187471461755" lon="13.736946039222778"><ele>31.0</ele><time>2026-04-12T10:17:22.932Z</time></trkpt><trkpt lat="45.13200002891523" lon="13.73683158974912"><ele>31.0</ele><time>2026-04-12T10:17:23.932Z</time></trkpt><trkpt lat="45.13213062458127" lon="13.736750210850573"><ele>31.0</ele><time>2026-04-12T10:17:24.932Z</time></trkpt><trkpt lat="45.13226597453602" lon="13.73667766679617"><ele>31.0</ele><time>2026-04-12T10:17:25.932Z</time></trkpt><trkpt lat="45.13239764674283" lon="13.736592052963394"><ele>31.0</ele><time>2026-04-12T10:17:26.932Z</time></trkpt><trkpt lat="45.132540027296244" lon="13.736544904846065"><ele>36.25</ele><time>2026-04-12T10:17:27.931Z</time></trkpt><trkpt lat="45.132686370342746" lon="13.73653346325804"><ele>41.5</ele><time>2026-04-12T10:17:28.932Z</time></trkpt><trkpt lat="45.13282782002372" lon="13.736529243812585"><ele>46.75</ele><time>2026-04-12T10:17:29.932Z</time></trkpt><trkpt lat="45.132962338826154" lon="13.736548278915981"><ele>52.0</ele><time>2026-04-12T10:17:30.932Z</time></trkpt><trkpt lat="45.13309053386822" lon="13.73658994555848"><ele>53.75</ele><time>2026-04-12T10:17:31.931Z</time></trkpt><trkpt lat="45.13324469576477" lon="13.736600846012719"><ele>55.5</ele><time>2026-04-12T10:17:32.931Z</time></trkpt><trkpt lat="45.13336952731941" lon="13.736597388313506"><ele>57.25</ele><time>2026-04-12T10:17:33.932Z</time></trkpt><trkpt lat="45.13347098937882" lon="13.736538522337659"><ele>59.0</ele><time>2026-04-12T10:17:34.932Z</time></trkpt><trkpt lat="45.13356490566762" lon="13.736438248907211"><ele>59.0</ele><time>2026-04-12T10:17:35.932Z</time></trkpt><trkpt lat="45.13364901330354" lon="13.736308477396765"><ele>59.0</ele><time>2026-04-12T10:17:36.932Z</time></trkpt><trkpt lat="45.13369582067957" lon="13.736167155998034"><ele>59.0</ele><time>2026-04-12T10:17:37.932Z</time></trkpt><trkpt lat="45.13370835816582" lon="13.735984730313131"><ele>59.0</ele><time>2026-04-12T10:17:38.932Z</time></trkpt><trkpt lat="45.133706307299164" lon="13.735776610869152"><ele>54.66666666666667</ele><time>2026-04-12T10:17:39.932Z</time></trkpt><trkpt lat="45.13370121362613" lon="13.735557025055318"><ele>50.333333333333336</ele><time>2026-04-12T10:17:40.931Z</time></trkpt><trkpt lat="45.13369400423588" lon="13.73532566815821"><ele>46.0</ele><time>2026-04-12T10:17:41.931Z</time></trkpt><trkpt lat="45.133701718609615" lon="13.73508710898626"><ele>46.0</ele><time>2026-04-12T10:17:42.931Z</time></trkpt><trkpt lat="45.13371218427669" lon="13.734833452768225"><ele>46.0</ele><time>2026-04-12T10:17:43.931Z</time></trkpt><trkpt lat="45.133737606579864" lon="13.73455861921785"><ele>46.0</ele><time>2026-04-12T10:17:44.931Z</time></trkpt><trkpt lat="45.13374636433874" lon="13.734297951271806"><ele>46.25</ele><time>2026-04-12T10:17:45.931Z</time></trkpt><trkpt lat="45.133760267444124" lon="13.734074636363324"><ele>46.5</ele><time>2026-04-12T10:17:46.931Z</time></trkpt><trkpt lat="45.13377929092188" lon="13.733880618351701"><ele>46.75</ele><time>2026-04-12T10:17:47.931Z</time></trkpt><trkpt lat="45.133822350475555" lon="13.7337083755468"><ele>47.0</ele><time>2026-04-12T10:17:48.931Z</time></trkpt><trkpt lat="45.13387987583796" lon="13.73355349624788"><ele>45.5</ele><time>2026-04-12T10:17:49.931Z</time></trkpt><trkpt lat="45.13395127462481" lon="13.733407052459157"><ele>44.0</ele><time>2026-04-12T10:17:50.931Z</time></trkpt><trkpt lat="45.13403770782432" lon="13.733270233802704"><ele>42.5</ele><time>2026-04-12T10:17:51.931Z</time></trkpt><trkpt lat="45.13412708225017" lon="13.733161198366526"><ele>41.0</ele><time>2026-04-12T10:17:52.931Z</time></trkpt><trkpt lat="45.134227385480486" lon="13.73307000332796"><ele>45.0</ele><time>2026-04-12T10:17:53.931Z</time></trkpt><trkpt lat="45.134336811061885" lon="13.7329737533911"><ele>49.0</ele><time>2026-04-12T10:17:54.931Z</time></trkpt><trkpt lat="45.13445716880678" lon="13.732866825204075"><ele>53.0</ele><time>2026-04-12T10:17:55.931Z</time></trkpt><trkpt lat="45.13456887706222" lon="13.732729944819319"><ele>57.0</ele><time>2026-04-12T10:17:56.931Z</time></trkpt><trkpt lat="45.13468604353305" lon="13.732597561615213"><ele>57.0</ele><time>2026-04-12T10:17:57.931Z</time></trkpt><trkpt lat="45.13478953408756" lon="13.732437930476696"><ele>57.0</ele><time>2026-04-12T10:17:58.931Z</time></trkpt><trkpt lat="45.13489735306256" lon="13.732273520667029"><ele>57.0</ele><time>2026-04-12T10:17:59.931Z</time></trkpt><trkpt lat="45.13502244185613" lon="13.732129963263116"><ele>62.0</ele><time>2026-04-12T10:18:00.931Z</time></trkpt><trkpt lat="45.13513107136445" lon="13.731953437505242"><ele>67.0</ele><time>2026-04-12T10:18:01.931Z</time></trkpt><trkpt lat="45.135248603227815" lon="13.731793688666365"><ele>72.0</ele><time>2026-04-12T10:18:02.931Z</time></trkpt><trkpt lat="45.135358504931446" lon="13.731633120832013"><ele>72.0</ele><time>2026-04-12T10:18:03.931Z</time></trkpt><trkpt lat="45.13546057295832" lon="13.731460857348694"><ele>72.0</ele><time>2026-04-12T10:18:04.931Z</time></trkpt><trkpt lat="45.135550917047624" lon="13.731279216055299"><ele>72.0</ele><time>2026-04-12T10:18:05.931Z</time></trkpt><trkpt lat="45.13564399734289" lon="13.731095269102207"><ele>79.0</ele><time>2026-04-12T10:18:06.931Z</time></trkpt><trkpt lat="45.135721021231724" lon="13.730885887299353"><ele>86.0</ele><time>2026-04-12T10:18:07.931Z</time></trkpt><trkpt lat="45.135787851243066" lon="13.730690060375572"><ele>93.0</ele><time>2026-04-12T10:18:08.931Z</time></trkpt><trkpt lat="45.13585218414913" lon="13.730479605695486"><ele>93.0</ele><time>2026-04-12T10:18:09.931Z</time></trkpt><trkpt lat="45.13590714174514" lon="13.730261677796184"><ele>93.0</ele><time>2026-04-12T10:18:10.931Z</time></trkpt><trkpt lat="45.13595980530188" lon="13.730046252168261"><ele>93.0</ele><time>2026-04-12T10:18:11.931Z</time></trkpt><trkpt lat="45.136005748907436" lon="13.72983293141073"><ele>90.33333333333333</ele><time>2026-04-12T10:18:12.931Z</time></trkpt><trkpt lat="45.13605743110394" lon="13.729623366429172"><ele>87.66666666666666</ele><time>2026-04-12T10:18:13.931Z</time></trkpt><trkpt lat="45.13610094226753" lon="13.729420107397967"><ele>85.0</ele><time>2026-04-12T10:18:14.931Z</time></trkpt><trkpt lat="45.13615420606291" lon="13.729223257765437"><ele>83.0</ele><time>2026-04-12T10:18:15.931Z</time></trkpt><trkpt lat="45.136208755334856" lon="13.729030095999457"><ele>81.0</ele><time>2026-04-12T10:18:16.931Z</time></trkpt><trkpt lat="45.13626565406964" lon="13.728840056490329"><ele>79.0</ele><time>2026-04-12T10:18:17.931Z</time></trkpt><trkpt lat="45.13634747322223" lon="13.72867134579702"><ele>77.0</ele><time>2026-04-12T10:18:18.931Z</time></trkpt><trkpt lat="45.13642537347297" lon="13.728500337100886"><ele>74.75</ele><time>2026-04-12T10:18:19.931Z</time></trkpt><trkpt lat="45.13650611846092" lon="13.728326685487502"><ele>72.5</ele><time>2026-04-12T10:18:20.931Z</time></trkpt><trkpt lat="45.13659146432949" lon="13.728151056619977"><ele>70.25</ele><time>2026-04-12T10:18:21.931Z</time></trkpt><trkpt lat="45.13667803613064" lon="13.727973657511594"><ele>68.0</ele><time>2026-04-12T10:18:22.931Z</time></trkpt><trkpt lat="45.13676588042268" lon="13.727798705891468"><ele>76.0</ele><time>2026-04-12T10:18:23.931Z</time></trkpt><trkpt lat="45.13687303273781" lon="13.727643952183062"><ele>84.0</ele><time>2026-04-12T10:18:24.931Z</time></trkpt><trkpt lat="45.13698943349515" lon="13.727517260274366"><ele>92.0</ele><time>2026-04-12T10:18:25.931Z</time></trkpt><trkpt lat="45.13711070403554" lon="13.727365278923758"><ele>92.0</ele><time>2026-04-12T10:18:26.931Z</time></trkpt><trkpt lat="45.13719329105977" lon="13.72718521925976"><ele>92.0</ele><time>2026-04-12T10:18:27.931Z</time></trkpt><trkpt lat="45.13727436238667" lon="13.72701300375252"><ele>92.0</ele><time>2026-04-12T10:18:28.931Z</time></trkpt><trkpt lat="45.13732482955612" lon="13.726809776299888"><ele>87.66666666666667</ele><time>2026-04-12T10:18:29.931Z</time></trkpt><trkpt lat="45.1373655451025" lon="13.72658395791747"><ele>83.33333333333333</ele><time>2026-04-12T10:18:30.931Z</time></trkpt><trkpt lat="45.13743063777654" lon="13.726375234148632"><ele>79.0</ele><time>2026-04-12T10:18:31.931Z</time></trkpt><trkpt lat="45.13748316606013" lon="13.72616751228887"><ele>89.0</ele><time>2026-04-12T10:18:32.931Z</time></trkpt><trkpt lat="45.137534716894535" lon="13.725962921793792"><ele>99.0</ele><time>2026-04-12T10:18:33.931Z</time></trkpt><trkpt lat="45.13757268196831" lon="13.725751862824223"><ele>109.0</ele><time>2026-04-12T10:18:34.931Z</time></trkpt><trkpt lat="45.13763475253113" lon="13.725565136470667"><ele>109.0</ele><time>2026-04-12T10:18:35.931Z</time></trkpt><trkpt lat="45.13767874678368" lon="13.725395555372113"><ele>109.0</ele><time>2026-04-12T10:18:36.931Z</time></trkpt><trkpt lat="45.137722779266724" lon="13.725239474276645"><ele>109.0</ele><time>2026-04-12T10:18:37.931Z</time></trkpt><trkpt lat="45.1377710110947" lon="13.725111838764525"><ele>109.0</ele><time>2026-04-12T10:18:38.931Z</time></trkpt><trkpt lat="45.13783069992813" lon="13.724999324081299"><ele>109.0</ele><time>2026-04-12T10:18:39.931Z</time></trkpt><trkpt lat="45.1378912574987" lon="13.724901409959633"><ele>108.2</ele><time>2026-04-12T10:18:40.931Z</time></trkpt><trkpt lat="45.13796347064739" lon="13.724820436744114"><ele>107.4</ele><time>2026-04-12T10:18:41.931Z</time></trkpt><trkpt lat="45.13804431370282" lon="13.72474343421356"><ele>106.6</ele><time>2026-04-12T10:18:42.931Z</time></trkpt><trkpt lat="45.13813448467857" lon="13.724680042619836"><ele>105.8</ele><time>2026-04-12T10:18:43.931Z</time></trkpt><trkpt lat="45.13821974067252" lon="13.72463055165181"><ele>105.0</ele><time>2026-04-12T10:18:44.931Z</time></trkpt><trkpt lat="45.13831013241048" lon="13.724576598072607"><ele>107.8</ele><time>2026-04-12T10:18:45.931Z</time></trkpt><trkpt lat="45.13841648520362" lon="13.72452192873176"><ele>110.6</ele><time>2026-04-12T10:18:46.931Z</time></trkpt><trkpt lat="45.13851435026198" lon="13.72446398000479"><ele>113.4</ele><time>2026-04-12T10:18:47.931Z</time></trkpt><trkpt lat="45.13860127982164" lon="13.724401221606781"><ele>116.2</ele><time>2026-04-12T10:18:48.931Z</time></trkpt><trkpt lat="45.138690494412685" lon="13.724345196723084"><ele>119.0</ele><time>2026-04-12T10:18:49.931Z</time></trkpt><trkpt lat="45.13878399405654" lon="13.72428361541098"><ele>118.99999999999999</ele><time>2026-04-12T10:18:50.931Z</time></trkpt><trkpt lat="45.13887200663543" lon="13.72422515225486"><ele>119.0</ele><time>2026-04-12T10:18:51.931Z</time></trkpt><trkpt lat="45.13896021078043" lon="13.724176774984075"><ele>119.0</ele><time>2026-04-12T10:18:52.931Z</time></trkpt><trkpt lat="45.1390357420353" lon="13.724133100777166"><ele>119.0</ele><time>2026-04-12T10:18:53.931Z</time></trkpt><trkpt lat="45.13911400225637" lon="13.724078631021563"><ele>118.99999999999999</ele><time>2026-04-12T10:18:55.931Z</time></trkpt><trkpt lat="45.13910582618301" lon="13.723973918566877"><ele>119.0</ele><time>2026-04-12T10:18:58.931Z</time></trkpt><trkpt lat="45.138997043772754" lon="13.72404097819395"><ele>119.0</ele><time>2026-04-12T10:19:00.931Z</time></trkpt><trkpt lat="45.13895437676513" lon="13.724124004956565"><ele>119.0</ele><time>2026-04-12T10:19:01.931Z</time></trkpt><trkpt lat="45.13888228885351" lon="13.72420127384423"><ele>119.0</ele><time>2026-04-12T10:19:02.931Z</time></trkpt><trkpt lat="45.13879077810737" lon="13.724268924166406"><ele>119.0</ele><time>2026-04-12T10:19:03.931Z</time></trkpt><trkpt lat="45.13868929826511" lon="13.724325728379133"><ele>119.0</ele><time>2026-04-12T10:19:04.931Z</time></trkpt><trkpt lat="45.138592614476146" lon="13.72436828546101"><ele>119.6</ele><time>2026-04-12T10:19:05.931Z</time></trkpt><trkpt lat="45.13845934371578" lon="13.724454118153526"><ele>120.2</ele><time>2026-04-12T10:19:07.931Z</time></trkpt><trkpt lat="45.138453890757795" lon="13.724576200752626"><ele>120.79999999999998</ele><time>2026-04-12T10:19:10.931Z</time></trkpt><trkpt lat="45.1385022111078" lon="13.72469015713976"><ele>121.39999999999999</ele><time>2026-04-12T10:19:12.931Z</time></trkpt><trkpt lat="45.13856641156469" lon="13.72482420703549"><ele>122.0</ele><time>2026-04-12T10:19:14.931Z</time></trkpt><trkpt lat="45.138604493591295" lon="13.724900825956727"><ele>122.0</ele><time>2026-04-12T10:19:15.931Z</time></trkpt><trkpt lat="45.1386464412598" lon="13.725011585422498"><ele>121.99999999999999</ele><time>2026-04-12T10:19:16.931Z</time></trkpt><trkpt lat="45.1387284248135" lon="13.725089772586132"><ele>121.99999999999999</ele><time>2026-04-12T10:19:17.931Z</time></trkpt><trkpt lat="45.138803141214574" lon="13.72519209171309"><ele>122.0</ele><time>2026-04-12T10:19:18.931Z</time></trkpt><trkpt lat="45.13887996035786" lon="13.725296886707046"><ele>122.0</ele><time>2026-04-12T10:19:19.931Z</time></trkpt><trkpt lat="45.13895130751411" lon="13.725389964000591"><ele>122.6</ele><time>2026-04-12T10:19:20.931Z</time></trkpt><trkpt lat="45.139020156039784" lon="13.725477456862036"><ele>123.19999999999999</ele><time>2026-04-12T10:19:21.931Z</time></trkpt><trkpt lat="45.13910621510231" lon="13.725553273748758"><ele>123.8</ele><time>2026-04-12T10:19:22.931Z</time></trkpt><trkpt lat="45.13920037681285" lon="13.725639066640037"><ele>124.4</ele><time>2026-04-12T10:19:23.931Z</time></trkpt><trkpt lat="45.13929590890172" lon="13.725736073006313"><ele>125.0</ele><time>2026-04-12T10:19:24.931Z</time></trkpt><trkpt lat="45.13938949708383" lon="13.725843747612721"><ele>125.5</ele><time>2026-04-12T10:19:25.931Z</time></trkpt><trkpt lat="45.139487415149276" lon="13.72595723951697"><ele>126.0</ele><time>2026-04-12T10:19:26.931Z</time></trkpt><trkpt lat="45.139580967187506" lon="13.726079546762108"><ele>126.5</ele><time>2026-04-12T10:19:27.931Z</time></trkpt><trkpt lat="45.13968059237364" lon="13.726170289200846"><ele>127.0</ele><time>2026-04-12T10:19:28.931Z</time></trkpt><trkpt lat="45.13977372430569" lon="13.72628429153574"><ele>127.0</ele><time>2026-04-12T10:19:29.931Z</time></trkpt><trkpt lat="45.13986995784671" lon="13.726346491230784"><ele>126.99999999999999</ele><time>2026-04-12T10:19:30.931Z</time></trkpt><trkpt lat="45.139974155710135" lon="13.726370723854727"><ele>126.99999999999999</ele><time>2026-04-12T10:19:31.931Z</time></trkpt><trkpt lat="45.14007136093392" lon="13.72639083092119"><ele>127.0</ele><time>2026-04-12T10:19:32.931Z</time></trkpt><trkpt lat="45.14016829520591" lon="13.726384154103457"><ele>127.0</ele><time>2026-04-12T10:19:33.931Z</time></trkpt><trkpt lat="45.14025739696142" lon="13.726378164082835"><ele>127.16666666666667</ele><time>2026-04-12T10:19:34.931Z</time></trkpt><trkpt lat="45.14033198393287" lon="13.726373770043645"><ele>127.33333333333334</ele><time>2026-04-12T10:19:35.931Z</time></trkpt><trkpt lat="45.14038213060403" lon="13.726435816379638"><ele>127.5</ele><time>2026-04-12T10:19:36.931Z</time></trkpt><trkpt lat="45.140507531697835" lon="13.726512419416583"><ele>127.66666666666666</ele><time>2026-04-12T10:19:38.931Z</time></trkpt><trkpt lat="45.14057905704565" lon="13.726569395403036"><ele>127.83333333333333</ele><time>2026-04-12T10:19:39.932Z</time></trkpt><trkpt lat="45.14064604483129" lon="13.726634828883006"><ele>128.0</ele><time>2026-04-12T10:19:40.931Z</time></trkpt><trkpt lat="45.140723284459504" lon="13.726728117497188"><ele>128.75</ele><time>2026-04-12T10:19:41.931Z</time></trkpt><trkpt lat="45.14079393313612" lon="13.726839445413589"><ele>129.5</ele><time>2026-04-12T10:19:42.931Z</time></trkpt><trkpt lat="45.14085478635984" lon="13.726961996584853"><ele>130.25</ele><time>2026-04-12T10:19:43.932Z</time></trkpt><trkpt lat="45.14091521364496" lon="13.727099515831798"><ele>131.0</ele><time>2026-04-12T10:19:44.932Z</time></trkpt><trkpt lat="45.14098107412703" lon="13.72725210555804"><ele>131.5</ele><time>2026-04-12T10:19:45.931Z</time></trkpt><trkpt lat="45.1410628562697" lon="13.727406435744594"><ele>132.0</ele><time>2026-04-12T10:19:46.931Z</time></trkpt><trkpt lat="45.14112299997598" lon="13.727562021657134"><ele>132.5</ele><time>2026-04-12T10:19:47.931Z</time></trkpt><trkpt lat="45.14118782767765" lon="13.727692765994291"><ele>133.0</ele><time>2026-04-12T10:19:48.931Z</time></trkpt><trkpt lat="45.14125054908703" lon="13.727809764215339"><ele>133.4</ele><time>2026-04-12T10:19:49.931Z</time></trkpt><trkpt lat="45.14131034657209" lon="13.727905258509145"><ele>133.8</ele><time>2026-04-12T10:19:50.931Z</time></trkpt><trkpt lat="45.14138322600586" lon="13.727977956073891"><ele>134.2</ele><time>2026-04-12T10:19:51.931Z</time></trkpt><trkpt lat="45.141475962606044" lon="13.72804708755268"><ele>134.6</ele><time>2026-04-12T10:19:52.931Z</time></trkpt><trkpt lat="45.141584844185715" lon="13.72808503626603"><ele>135.0</ele><time>2026-04-12T10:19:53.931Z</time></trkpt><trkpt lat="45.141689617692414" lon="13.728116629860951"><ele>135.6</ele><time>2026-04-12T10:19:54.931Z</time></trkpt><trkpt lat="45.141773143872896" lon="13.728191994768315"><ele>136.2</ele><time>2026-04-12T10:19:55.931Z</time></trkpt><trkpt lat="45.14183799385388" lon="13.728289278734616"><ele>136.8</ele><time>2026-04-12T10:19:56.931Z</time></trkpt><trkpt lat="45.14189858955047" lon="13.728409353789997"><ele>137.4</ele><time>2026-04-12T10:19:57.931Z</time></trkpt><trkpt lat="45.14196868255823" lon="13.728546167024435"><ele>138.0</ele><time>2026-04-12T10:19:58.931Z</time></trkpt><trkpt lat="45.142063102725174" lon="13.728700586322649"><ele>138.0</ele><time>2026-04-12T10:19:59.931Z</time></trkpt><trkpt lat="45.14213506902202" lon="13.72886401417722"><ele>138.0</ele><time>2026-04-12T10:20:00.931Z</time></trkpt><trkpt lat="45.14221256961508" lon="13.729018858642243"><ele>138.0</ele><time>2026-04-12T10:20:01.931Z</time></trkpt><trkpt lat="45.142283181916305" lon="13.729165860864091"><ele>138.0</ele><time>2026-04-12T10:20:02.931Z</time></trkpt><trkpt lat="45.14235941745528" lon="13.729323021748034"><ele>138.25</ele><time>2026-04-12T10:20:03.931Z</time></trkpt><trkpt lat="45.14243296251844" lon="13.729497607033105"><ele>138.5</ele><time>2026-04-12T10:20:04.931Z</time></trkpt><trkpt lat="45.14249812870211" lon="13.729677212059704"><ele>138.75</ele><time>2026-04-12T10:20:05.931Z</time></trkpt><trkpt lat="45.14256605231212" lon="13.72984382114722"><ele>139.0</ele><time>2026-04-12T10:20:06.931Z</time></trkpt><trkpt lat="45.142640229195386" lon="13.730027341550661"><ele>139.0</ele><time>2026-04-12T10:20:07.931Z</time></trkpt><trkpt lat="45.14268879221923" lon="13.730201429975072"><ele>139.0</ele><time>2026-04-12T10:20:08.931Z</time></trkpt><trkpt lat="45.14275790385459" lon="13.730376978977926"><ele>139.0</ele><time>2026-04-12T10:20:09.931Z</time></trkpt><trkpt lat="45.14282825902242" lon="13.730536637235419"><ele>139.0</ele><time>2026-04-12T10:20:10.931Z</time></trkpt><trkpt lat="45.142905636344445" lon="13.730699083510043"><ele>139.25</ele><time>2026-04-12T10:20:11.931Z</time></trkpt><trkpt lat="45.14298497572173" lon="13.73085425846245"><ele>139.5</ele><time>2026-04-12T10:20:12.931Z</time></trkpt><trkpt lat="45.14306654882805" lon="13.731000071488939"><ele>139.75</ele><time>2026-04-12T10:20:13.931Z</time></trkpt><trkpt lat="45.14315715060515" lon="13.731144986921995"><ele>140.0</ele><time>2026-04-12T10:20:14.931Z</time></trkpt><trkpt lat="45.143249625107046" lon="13.731266073696299"><ele>140.5</ele><time>2026-04-12T10:20:15.931Z</time></trkpt><trkpt lat="45.143347748816375" lon="13.731374940871312"><ele>141.0</ele><time>2026-04-12T10:20:16.931Z</time></trkpt><trkpt lat="45.1434554247028" lon="13.731457322901798"><ele>141.5</ele><time>2026-04-12T10:20:17.931Z</time></trkpt><trkpt lat="45.14355633328121" lon="13.731509011314849"><ele>142.0</ele><time>2026-04-12T10:20:18.931Z</time></trkpt><trkpt lat="45.143663015737474" lon="13.731553188536095"><ele>142.0</ele><time>2026-04-12T10:20:19.931Z</time></trkpt><trkpt lat="45.14378001173748" lon="13.731604577741786"><ele>142.0</ele><time>2026-04-12T10:20:20.931Z</time></trkpt><trkpt lat="45.143890557182" lon="13.731666573070711"><ele>142.0</ele><time>2026-04-12T10:20:21.931Z</time></trkpt><trkpt lat="45.14399906624512" lon="13.731740171418032"><ele>142.0</ele><time>2026-04-12T10:20:22.931Z</time></trkpt><trkpt lat="45.14411849566538" lon="13.731827738013155"><ele>144.5</ele><time>2026-04-12T10:20:23.931Z</time></trkpt><trkpt lat="45.14424946579672" lon="13.731926327210209"><ele>147.0</ele><time>2026-04-12T10:20:24.931Z</time></trkpt><trkpt lat="45.1443750363642" lon="13.732024129479354"><ele>149.5</ele><time>2026-04-12T10:20:25.931Z</time></trkpt><trkpt lat="45.14450353234315" lon="13.732083998290795"><ele>152.0</ele><time>2026-04-12T10:20:26.931Z</time></trkpt><trkpt lat="45.14462662310278" lon="13.732173135336057"><ele>152.0</ele><time>2026-04-12T10:20:27.931Z</time></trkpt><trkpt lat="45.14473557382576" lon="13.732261424893172"><ele>152.0</ele><time>2026-04-12T10:20:28.931Z</time></trkpt><trkpt lat="45.14484800548207" lon="13.732342894039608"><ele>152.0</ele><time>2026-04-12T10:20:29.931Z</time></trkpt><trkpt lat="45.14496000763403" lon="13.732431266736203"><ele>152.0</ele><time>2026-04-12T10:20:30.931Z</time></trkpt><trkpt lat="45.145068625213256" lon="13.73252740651476"><ele>151.5</ele><time>2026-04-12T10:20:31.931Z</time></trkpt><trkpt lat="45.14516060827172" lon="13.732635975050128"><ele>151.0</ele><time>2026-04-12T10:20:32.931Z</time></trkpt><trkpt lat="45.14522451078723" lon="13.732811358436638"><ele>150.5</ele><time>2026-04-12T10:20:33.931Z</time></trkpt><trkpt lat="45.14532340623948" lon="13.73295104230635"><ele>150.0</ele><time>2026-04-12T10:20:34.931Z</time></trkpt><trkpt lat="45.14543902655339" lon="13.733079168684549"><ele>150.0</ele><time>2026-04-12T10:20:35.931Z</time></trkpt><trkpt lat="45.14554776800431" lon="13.733226121770072"><ele>150.0</ele><time>2026-04-12T10:20:36.931Z</time></trkpt><trkpt lat="45.14564823543505" lon="13.733356142177366"><ele>150.0</ele><time>2026-04-12T10:20:37.931Z</time></trkpt><trkpt lat="45.14572849362468" lon="13.733498346613947"><ele>150.0</ele><time>2026-04-12T10:20:38.931Z</time></trkpt><trkpt lat="45.145819124165264" lon="13.733626432690173"><ele>150.0</ele><time>2026-04-12T10:20:39.932Z</time></trkpt><trkpt lat="45.145920191620284" lon="13.733747336840034"><ele>150.0</ele><time>2026-04-12T10:20:40.932Z</time></trkpt><trkpt lat="45.14599535089313" lon="13.733896790156145"><ele>150.0</ele><time>2026-04-12T10:20:41.933Z</time></trkpt><trkpt lat="45.14607151074942" lon="13.734023257576117"><ele>150.0</ele><time>2026-04-12T10:20:42.933Z</time></trkpt><trkpt lat="45.14613360411012" lon="13.73413975058979"><ele>150.0</ele><time>2026-04-12T10:20:43.934Z</time></trkpt><trkpt lat="45.14618564254153" lon="13.734250936352577"><ele>150.0</ele><time>2026-04-12T10:20:44.934Z</time></trkpt><trkpt lat="45.146226061020876" lon="13.734368525956203"><ele>150.0</ele><time>2026-04-12T10:20:45.934Z</time></trkpt><trkpt lat="45.146259265409576" lon="13.734466089977401"><ele>150.0</ele><time>2026-04-12T10:20:46.935Z</time></trkpt><trkpt lat="45.14632992595906" lon="13.734637900614741"><ele>150.0</ele><time>2026-04-12T10:20:47.935Z</time></trkpt><trkpt lat="45.14638211830967" lon="13.734830829452505"><ele>149.75</ele><time>2026-04-12T10:20:48.935Z</time></trkpt><trkpt lat="45.14643744772862" lon="13.735021191531327"><ele>149.5</ele><time>2026-04-12T10:20:49.936Z</time></trkpt><trkpt lat="45.14648795064932" lon="13.735188899923807"><ele>149.25</ele><time>2026-04-12T10:20:50.936Z</time></trkpt><trkpt lat="45.146533664942346" lon="13.7353423112261"><ele>149.0</ele><time>2026-04-12T10:20:51.936Z</time></trkpt><trkpt lat="45.14657866616133" lon="13.735476151136346"><ele>148.0</ele><time>2026-04-12T10:20:52.936Z</time></trkpt><trkpt lat="45.146595800840245" lon="13.73557354347904"><ele>147.0</ele><time>2026-04-12T10:20:53.937Z</time></trkpt><trkpt lat="45.14663682752716" lon="13.735677996910997"><ele>146.0</ele><time>2026-04-12T10:20:55.937Z</time></trkpt><trkpt lat="45.14672131579565" lon="13.735695282197412"><ele>145.0</ele><time>2026-04-12T10:20:56.937Z</time></trkpt><trkpt lat="45.14678790013007" lon="13.735702241937602"><ele>144.0</ele><time>2026-04-12T10:20:57.937Z</time></trkpt><trkpt lat="45.146865801942845" lon="13.735711017442531"><ele>143.0</ele><time>2026-04-12T10:20:58.937Z</time></trkpt><trkpt lat="45.146951492033615" lon="13.735720660511646"><ele>143.0</ele><time>2026-04-12T10:20:59.938Z</time></trkpt><trkpt lat="45.147026889244465" lon="13.735730406171923"><ele>143.0</ele><time>2026-04-12T10:21:00.938Z</time></trkpt><trkpt lat="45.14712242997366" lon="13.73572184692937"><ele>143.0</ele><time>2026-04-12T10:21:01.938Z</time></trkpt><trkpt lat="45.14722829054341" lon="13.735747151915778"><ele>143.0</ele><time>2026-04-12T10:21:02.938Z</time></trkpt><trkpt lat="45.14732365664314" lon="13.735770753783472"><ele>143.0</ele><time>2026-04-12T10:21:03.938Z</time></trkpt><trkpt lat="45.14742625560748" lon="13.735797588802104"><ele>142.5</ele><time>2026-04-12T10:21:04.938Z</time></trkpt><trkpt lat="45.14752428360891" lon="13.735821351988589"><ele>142.0</ele><time>2026-04-12T10:21:05.938Z</time></trkpt><trkpt lat="45.14761772643586" lon="13.735828402177724"><ele>141.5</ele><time>2026-04-12T10:21:06.938Z</time></trkpt><trkpt lat="45.14770162036921" lon="13.735805532873012"><ele>141.0</ele><time>2026-04-12T10:21:07.938Z</time></trkpt><trkpt lat="45.147777585466535" lon="13.735765203288222"><ele>140.5</ele><time>2026-04-12T10:21:08.939Z</time></trkpt><trkpt lat="45.147839385781474" lon="13.73574475956253"><ele>140.0</ele><time>2026-04-12T10:21:09.939Z</time></trkpt><trkpt lat="45.14792022493688" lon="13.735872373841504"><ele>140.0</ele><time>2026-04-12T10:21:11.939Z</time></trkpt><trkpt lat="45.14796192159848" lon="13.735960826166252"><ele>140.0</ele><time>2026-04-12T10:21:12.939Z</time></trkpt><trkpt lat="45.14803807968603" lon="13.736088493681274"><ele>140.0</ele><time>2026-04-12T10:21:13.939Z</time></trkpt><trkpt lat="45.14812549892789" lon="13.73620982458382"><ele>140.0</ele><time>2026-04-12T10:21:14.939Z</time></trkpt><trkpt lat="45.1482030088937" lon="13.736334180126406"><ele>140.0</ele><time>2026-04-12T10:21:15.939Z</time></trkpt><trkpt lat="45.14828884837559" lon="13.736494836362201"><ele>139.5</ele><time>2026-04-12T10:21:16.939Z</time></trkpt><trkpt lat="45.1483750062867" lon="13.73666674308169"><ele>139.0</ele><time>2026-04-12T10:21:17.939Z</time></trkpt><trkpt lat="45.14846537612741" lon="13.736830845380073"><ele>138.5</ele><time>2026-04-12T10:21:18.939Z</time></trkpt><trkpt lat="45.14855353235491" lon="13.736981580807944"><ele>138.0</ele><time>2026-04-12T10:21:19.939Z</time></trkpt><trkpt lat="45.148630632083226" lon="13.737105749890937"><ele>139.0</ele><time>2026-04-12T10:21:20.939Z</time></trkpt><trkpt lat="45.14868810129555" lon="13.737204667365956"><ele>140.0</ele><time>2026-04-12T10:21:21.939Z</time></trkpt><trkpt lat="45.148770414532294" lon="13.73723359170254"><ele>141.0</ele><time>2026-04-12T10:21:23.939Z</time></trkpt><trkpt lat="45.14889240673147" lon="13.737131036427133"><ele>142.0</ele><time>2026-04-12T10:21:25.939Z</time></trkpt><trkpt lat="45.148962325788396" lon="13.737059916873473"><ele>143.0</ele><time>2026-04-12T10:21:26.939Z</time></trkpt><trkpt lat="45.14905796260583" lon="13.73696550633524"><ele>142.25</ele><time>2026-04-12T10:21:27.939Z</time></trkpt><trkpt lat="45.149148226604844" lon="13.736856496576793"><ele>141.5</ele><time>2026-04-12T10:21:28.939Z</time></trkpt><trkpt lat="45.14923527604451" lon="13.736764042501193"><ele>140.75</ele><time>2026-04-12T10:21:29.939Z</time></trkpt><trkpt lat="45.14934042093264" lon="13.73669323694269"><ele>140.0</ele><time>2026-04-12T10:21:30.94Z</time></trkpt><trkpt lat="45.14945493972612" lon="13.736632946969184"><ele>140.0</ele><time>2026-04-12T10:21:31.94Z</time></trkpt><trkpt lat="45.149577135897246" lon="13.736568667349168"><ele>140.0</ele><time>2026-04-12T10:21:32.94Z</time></trkpt><trkpt lat="45.149668988381904" lon="13.736487898192111"><ele>140.0</ele><time>2026-04-12T10:21:33.94Z</time></trkpt><trkpt lat="45.14973680459087" lon="13.736380172404687"><ele>140.0</ele><time>2026-04-12T10:21:34.94Z</time></trkpt><trkpt lat="45.149794964510825" lon="13.736241690233667"><ele>140.0</ele><time>2026-04-12T10:21:35.94Z</time></trkpt><trkpt lat="45.14983463432864" lon="13.736074660259334"><ele>140.0</ele><time>2026-04-12T10:21:36.94Z</time></trkpt><trkpt lat="45.14986359659811" lon="13.735892468312922"><ele>140.0</ele><time>2026-04-12T10:21:37.94Z</time></trkpt><trkpt lat="45.149926701701574" lon="13.735748640820614"><ele>140.0</ele><time>2026-04-12T10:21:38.94Z</time></trkpt><trkpt lat="45.149979501896155" lon="13.735613746730932"><ele>140.0</ele><time>2026-04-12T10:21:39.939Z</time></trkpt><trkpt lat="45.15004294587092" lon="13.735514279259458"><ele>140.0</ele><time>2026-04-12T10:21:40.939Z</time></trkpt><trkpt lat="45.15008515349999" lon="13.735392462016458"><ele>140.0</ele><time>2026-04-12T10:21:41.939Z</time></trkpt><trkpt lat="45.150111565492026" lon="13.735275517261382"><ele>140.0</ele><time>2026-04-12T10:21:42.939Z</time></trkpt><trkpt lat="45.15010312069617" lon="13.73515707004209"><ele>140.0</ele><time>2026-04-12T10:21:43.939Z</time></trkpt><trkpt lat="45.15010556934391" lon="13.735036910238478"><ele>140.0</ele><time>2026-04-12T10:21:44.939Z</time></trkpt><trkpt lat="45.15013844903035" lon="13.734946431678626"><ele>140.2</ele><time>2026-04-12T10:21:45.939Z</time></trkpt><trkpt lat="45.15018880571465" lon="13.73486730982098"><ele>140.4</ele><time>2026-04-12T10:21:46.939Z</time></trkpt><trkpt lat="45.15024778489563" lon="13.734800248313743"><ele>140.6</ele><time>2026-04-12T10:21:47.939Z</time></trkpt><trkpt lat="45.15020756056243" lon="13.734598226670588"><ele>140.8</ele><time>2026-04-12T10:21:49.94Z</time></trkpt><trkpt lat="45.15017768760889" lon="13.734485431850334"><ele>141.0</ele><time>2026-04-12T10:21:50.94Z</time></trkpt><trkpt lat="45.15015466907779" lon="13.734359210127629"><ele>141.0</ele><time>2026-04-12T10:21:51.939Z</time></trkpt><trkpt lat="45.15016779587409" lon="13.734222942083756"><ele>141.0</ele><time>2026-04-12T10:21:52.939Z</time></trkpt><trkpt lat="45.1502245077155" lon="13.734091811907764"><ele>141.0</ele><time>2026-04-12T10:21:53.939Z</time></trkpt><trkpt lat="45.15027970242025" lon="13.73390675775222"><ele>141.0</ele><time>2026-04-12T10:21:54.939Z</time></trkpt><trkpt lat="45.150319340076486" lon="13.733716008151903"><ele>140.8</ele><time>2026-04-12T10:21:55.939Z</time></trkpt><trkpt lat="45.150343871903324" lon="13.733539800406865"><ele>140.6</ele><time>2026-04-12T10:21:56.939Z</time></trkpt><trkpt lat="45.15036713461714" lon="13.733386753886943"><ele>140.4</ele><time>2026-04-12T10:21:57.939Z</time></trkpt><trkpt lat="45.150376231659905" lon="13.733235397460563"><ele>140.2</ele><time>2026-04-12T10:21:58.939Z</time></trkpt><trkpt lat="45.150385862740194" lon="13.733093769324794"><ele>140.0</ele><time>2026-04-12T10:21:59.939Z</time></trkpt><trkpt lat="45.15039314953309" lon="13.732937093893463"><ele>140.0</ele><time>2026-04-12T10:22:00.939Z</time></trkpt><trkpt lat="45.15043442179633" lon="13.732790226053318"><ele>140.0</ele><time>2026-04-12T10:22:01.939Z</time></trkpt><trkpt lat="45.15045988086445" lon="13.732640314489766"><ele>140.0</ele><time>2026-04-12T10:22:02.939Z</time></trkpt><trkpt lat="45.15047866535179" lon="13.732496195138026"><ele>140.0</ele><time>2026-04-12T10:22:03.939Z</time></trkpt><trkpt lat="45.150474629118115" lon="13.732343692230442"><ele>140.0</ele><time>2026-04-12T10:22:04.939Z</time></trkpt><trkpt lat="45.15047566849424" lon="13.73218313307668"><ele>139.5</ele><time>2026-04-12T10:22:05.939Z</time></trkpt><trkpt lat="45.15049557869912" lon="13.732002094648943"><ele>139.0</ele><time>2026-04-12T10:22:06.939Z</time></trkpt><trkpt lat="45.15048859926695" lon="13.731814773853838"><ele>138.5</ele><time>2026-04-12T10:22:07.939Z</time></trkpt><trkpt lat="45.15050118354943" lon="13.731638704462743"><ele>138.0</ele><time>2026-04-12T10:22:08.939Z</time></trkpt><trkpt lat="45.15051569218325" lon="13.731466703728328"><ele>138.0</ele><time>2026-04-12T10:22:09.939Z</time></trkpt><trkpt lat="45.15056011119453" lon="13.73128514321821"><ele>138.0</ele><time>2026-04-12T10:22:10.939Z</time></trkpt><trkpt lat="45.150584158193254" lon="13.731114798102299"><ele>138.0</ele><time>2026-04-12T10:22:11.939Z</time></trkpt><trkpt lat="45.150599149687885" lon="13.730957654918635"><ele>138.0</ele><time>2026-04-12T10:22:12.939Z</time></trkpt><trkpt lat="45.150612857814785" lon="13.730766526093992"><ele>138.0</ele><time>2026-04-12T10:22:13.939Z</time></trkpt><trkpt lat="45.15064428430192" lon="13.73059435830129"><ele>138.0</ele><time>2026-04-12T10:22:14.939Z</time></trkpt><trkpt lat="45.15066944693874" lon="13.73042104561506"><ele>138.0</ele><time>2026-04-12T10:22:15.939Z</time></trkpt><trkpt lat="45.15071485615581" lon="13.7302509825953"><ele>138.0</ele><time>2026-04-12T10:22:16.939Z</time></trkpt><trkpt lat="45.15074505346321" lon="13.730074062039565"><ele>138.25</ele><time>2026-04-12T10:22:17.939Z</time></trkpt><trkpt lat="45.150761403688726" lon="13.729872375338834"><ele>138.5</ele><time>2026-04-12T10:22:18.939Z</time></trkpt><trkpt lat="45.15080632686382" lon="13.72969498383626"><ele>138.75</ele><time>2026-04-12T10:22:19.939Z</time></trkpt><trkpt lat="45.15082040990868" lon="13.729526617412121"><ele>139.0</ele><time>2026-04-12T10:22:20.939Z</time></trkpt><trkpt lat="45.15084911834983" lon="13.729369685373928"><ele>138.6</ele><time>2026-04-12T10:22:21.939Z</time></trkpt><trkpt lat="45.15087752237036" lon="13.729248758983305"><ele>138.2</ele><time>2026-04-12T10:22:22.939Z</time></trkpt><trkpt lat="45.150943631571614" lon="13.72910310550533"><ele>137.79999999999998</ele><time>2026-04-12T10:22:24.939Z</time></trkpt><trkpt lat="45.15105131364262" lon="13.728998909268965"><ele>137.4</ele><time>2026-04-12T10:22:26.939Z</time></trkpt><trkpt lat="45.15110986247134" lon="13.728915965504166"><ele>137.0</ele><time>2026-04-12T10:22:27.939Z</time></trkpt><trkpt lat="45.15120084001506" lon="13.728851527699513"><ele>137.0</ele><time>2026-04-12T10:22:28.939Z</time></trkpt><trkpt lat="45.1512868664107" lon="13.728820706530847"><ele>137.0</ele><time>2026-04-12T10:22:29.939Z</time></trkpt><trkpt lat="45.15136340838035" lon="13.728769807812153"><ele>137.0</ele><time>2026-04-12T10:22:30.939Z</time></trkpt><trkpt lat="45.15146233315033" lon="13.728797318281362"><ele>137.0</ele><time>2026-04-12T10:22:32.939Z</time></trkpt><trkpt lat="45.151545809562684" lon="13.72871740754564"><ele>137.0</ele><time>2026-04-12T10:22:34.939Z</time></trkpt><trkpt lat="45.1516067117881" lon="13.728639428123088"><ele>136.75</ele><time>2026-04-12T10:22:35.939Z</time></trkpt><trkpt lat="45.15165581392222" lon="13.728486571064941"><ele>136.5</ele><time>2026-04-12T10:22:36.939Z</time></trkpt><trkpt lat="45.1516839607561" lon="13.728294876777772"><ele>136.25</ele><time>2026-04-12T10:22:37.94Z</time></trkpt><trkpt lat="45.15170890252131" lon="13.728091047779005"><ele>136.0</ele><time>2026-04-12T10:22:38.94Z</time></trkpt><trkpt lat="45.151747304063115" lon="13.72792115696547"><ele>136.0</ele><time>2026-04-12T10:22:39.94Z</time></trkpt><trkpt lat="45.15178644550079" lon="13.727750736018935"><ele>136.0</ele><time>2026-04-12T10:22:40.94Z</time></trkpt><trkpt lat="45.15182710001024" lon="13.727601925970012"><ele>136.0</ele><time>2026-04-12T10:22:41.94Z</time></trkpt><trkpt lat="45.1518728001848" lon="13.7274516978385"><ele>136.0</ele><time>2026-04-12T10:22:42.94Z</time></trkpt><trkpt lat="45.15192627217591" lon="13.727302133947333"><ele>135.75</ele><time>2026-04-12T10:22:43.94Z</time></trkpt><trkpt lat="45.15196700646152" lon="13.727168954211411"><ele>135.5</ele><time>2026-04-12T10:22:44.94Z</time></trkpt><trkpt lat="45.15200055373083" lon="13.727025754370654"><ele>135.25</ele><time>2026-04-12T10:22:45.94Z</time></trkpt><trkpt lat="45.15202233182301" lon="13.72685269402008"><ele>135.0</ele><time>2026-04-12T10:22:46.94Z</time></trkpt><trkpt lat="45.152057370756204" lon="13.726663515080757"><ele>133.75</ele><time>2026-04-12T10:22:47.94Z</time></trkpt><trkpt lat="45.1520438119123" lon="13.726451153319514"><ele>132.5</ele><time>2026-04-12T10:22:48.94Z</time></trkpt><trkpt lat="45.152064643914706" lon="13.726243225476896"><ele>131.25</ele><time>2026-04-12T10:22:49.94Z</time></trkpt><trkpt lat="45.152054027828704" lon="13.72603993789912"><ele>130.0</ele><time>2026-04-12T10:22:50.94Z</time></trkpt><trkpt lat="45.15206459198986" lon="13.725846289320321"><ele>129.66666666666669</ele><time>2026-04-12T10:22:51.94Z</time></trkpt><trkpt lat="45.15208034779912" lon="13.725626827204733"><ele>129.33333333333334</ele><time>2026-04-12T10:22:52.94Z</time></trkpt><trkpt lat="45.15209054710138" lon="13.725412000512959"><ele>129.0</ele><time>2026-04-12T10:22:53.94Z</time></trkpt><trkpt lat="45.15210710206522" lon="13.725200848309589"><ele>129.0</ele><time>2026-04-12T10:22:54.94Z</time></trkpt><trkpt lat="45.152122283322164" lon="13.725004361452426"><ele>129.0</ele><time>2026-04-12T10:22:55.94Z</time></trkpt><trkpt lat="45.15213194861426" lon="13.724832372968866"><ele>129.0</ele><time>2026-04-12T10:22:56.94Z</time></trkpt><trkpt lat="45.15213157875284" lon="13.724667191157486"><ele>129.0</ele><time>2026-04-12T10:22:57.94Z</time></trkpt><trkpt lat="45.15211899007053" lon="13.724490425422573"><ele>129.25</ele><time>2026-04-12T10:22:58.94Z</time></trkpt><trkpt lat="45.15208362620572" lon="13.724290133148823"><ele>129.5</ele><time>2026-04-12T10:22:59.94Z</time></trkpt><trkpt lat="45.15209362110418" lon="13.724098901453036"><ele>129.75</ele><time>2026-04-12T10:23:00.94Z</time></trkpt><trkpt lat="45.1520954237767" lon="13.72393766947468"><ele>130.0</ele><time>2026-04-12T10:23:01.94Z</time></trkpt><trkpt lat="45.15210763566928" lon="13.72379370138583"><ele>130.0</ele><time>2026-04-12T10:23:02.94Z</time></trkpt><trkpt lat="45.152139526656384" lon="13.72364587155703"><ele>130.0</ele><time>2026-04-12T10:23:03.94Z</time></trkpt><trkpt lat="45.152195981253286" lon="13.723467539857042"><ele>130.0</ele><time>2026-04-12T10:23:04.94Z</time></trkpt><trkpt lat="45.15226612357114" lon="13.723280485705573"><ele>130.0</ele><time>2026-04-12T10:23:05.94Z</time></trkpt><trkpt lat="45.15233626899676" lon="13.723107266892928"><ele>130.0</ele><time>2026-04-12T10:23:06.94Z</time></trkpt><trkpt lat="45.1523977855996" lon="13.722958861769124"><ele>130.0</ele><time>2026-04-12T10:23:07.94Z</time></trkpt><trkpt lat="45.15245134845256" lon="13.722824510555252"><ele>130.0</ele><time>2026-04-12T10:23:08.94Z</time></trkpt><trkpt lat="45.15249062847297" lon="13.722727941781327"><ele>130.0</ele><time>2026-04-12T10:23:09.94Z</time></trkpt><trkpt lat="45.15252741911558" lon="13.722646509861923"><ele>130.0</ele><time>2026-04-12T10:23:10.94Z</time></trkpt><trkpt lat="45.1525764056427" lon="13.722569789234322"><ele>130.6</ele><time>2026-04-12T10:23:11.94Z</time></trkpt><trkpt lat="45.15262979704266" lon="13.72251357344539"><ele>131.2</ele><time>2026-04-12T10:23:12.94Z</time></trkpt><trkpt lat="45.15269326871351" lon="13.722491999673892"><ele>131.8</ele><time>2026-04-12T10:23:13.94Z</time></trkpt><trkpt lat="45.15284086262662" lon="13.722478413576052"><ele>132.4</ele><time>2026-04-12T10:23:15.94Z</time></trkpt><trkpt lat="45.152937507108916" lon="13.722523445066958"><ele>133.0</ele><time>2026-04-12T10:23:16.94Z</time></trkpt><trkpt lat="45.153036569612496" lon="13.722553691671243"><ele>133.0</ele><time>2026-04-12T10:23:17.94Z</time></trkpt><trkpt lat="45.15314588608423" lon="13.72253959653427"><ele>133.0</ele><time>2026-04-12T10:23:18.94Z</time></trkpt><trkpt lat="45.153255353006685" lon="13.722595882135478"><ele>133.0</ele><time>2026-04-12T10:23:19.94Z</time></trkpt><trkpt lat="45.15333898866702" lon="13.722635190592758"><ele>133.0</ele><time>2026-04-12T10:23:20.94Z</time></trkpt><trkpt lat="45.15342035626675" lon="13.722690340394964"><ele>133.0</ele><time>2026-04-12T10:23:21.94Z</time></trkpt><trkpt lat="45.153497151433854" lon="13.72272280193026"><ele>132.8</ele><time>2026-04-12T10:23:22.94Z</time></trkpt><trkpt lat="45.15358179165578" lon="13.722708881568163"><ele>132.60000000000002</ele><time>2026-04-12T10:23:23.94Z</time></trkpt><trkpt lat="45.15367169582765" lon="13.722676003649068"><ele>132.39999999999998</ele><time>2026-04-12T10:23:24.94Z</time></trkpt><trkpt lat="45.15376648679672" lon="13.722645088292161"><ele>132.2</ele><time>2026-04-12T10:23:25.94Z</time></trkpt><trkpt lat="45.15386874673496" lon="13.722619203399175"><ele>132.0</ele><time>2026-04-12T10:23:26.94Z</time></trkpt><trkpt lat="45.15396211762957" lon="13.72261206378036"><ele>132.4</ele><time>2026-04-12T10:23:27.94Z</time></trkpt><trkpt lat="45.154065585962044" lon="13.722623337674584"><ele>132.79999999999998</ele><time>2026-04-12T10:23:28.94Z</time></trkpt><trkpt lat="45.154189429029294" lon="13.722658893381803"><ele>133.2</ele><time>2026-04-12T10:23:29.94Z</time></trkpt><trkpt lat="45.154310438112205" lon="13.72267155097078"><ele>133.6</ele><time>2026-04-12T10:23:30.94Z</time></trkpt><trkpt lat="45.15440574700343" lon="13.722674208962479"><ele>134.0</ele><time>2026-04-12T10:23:31.94Z</time></trkpt><trkpt lat="45.15449639662387" lon="13.722673505227137"><ele>134.0</ele><time>2026-04-12T10:23:32.94Z</time></trkpt><trkpt lat="45.15458859110125" lon="13.722679139992252"><ele>134.0</ele><time>2026-04-12T10:23:33.94Z</time></trkpt><trkpt lat="45.15469711514806" lon="13.722662376650195"><ele>134.0</ele><time>2026-04-12T10:23:34.94Z</time></trkpt><trkpt lat="45.15480491340263" lon="13.722618161233871"><ele>134.0</ele><time>2026-04-12T10:23:35.94Z</time></trkpt><trkpt lat="45.15489751301485" lon="13.722575396198717"><ele>134.0</ele><time>2026-04-12T10:23:36.94Z</time></trkpt><trkpt lat="45.15499274048186" lon="13.72255756745996"><ele>133.25</ele><time>2026-04-12T10:23:37.94Z</time></trkpt><trkpt lat="45.155101010537436" lon="13.722553251910167"><ele>132.5</ele><time>2026-04-12T10:23:38.94Z</time></trkpt><trkpt lat="45.15521965377129" lon="13.722579823430822"><ele>131.75</ele><time>2026-04-12T10:23:39.94Z</time></trkpt><trkpt lat="45.15534056275371" lon="13.722606700753655"><ele>131.0</ele><time>2026-04-12T10:23:40.94Z</time></trkpt><trkpt lat="45.15545489471813" lon="13.722626330504776"><ele>131.0</ele><time>2026-04-12T10:23:41.94Z</time></trkpt><trkpt lat="45.15551561272743" lon="13.722650796958389"><ele>131.0</ele><time>2026-04-12T10:23:42.94Z</time></trkpt><trkpt lat="45.15562583384362" lon="13.722610858203488"><ele>131.0</ele><time>2026-04-12T10:23:44.94Z</time></trkpt><trkpt lat="45.15568343675654" lon="13.722489829322397"><ele>131.0</ele><time>2026-04-12T10:23:45.939Z</time></trkpt><trkpt lat="45.15576819895156" lon="13.722413157268573"><ele>131.0</ele><time>2026-04-12T10:23:46.939Z</time></trkpt><trkpt lat="45.15583154832067" lon="13.722311096972932"><ele>131.33333333333331</ele><time>2026-04-12T10:23:47.939Z</time></trkpt><trkpt lat="45.15589019380472" lon="13.722266541907164"><ele>131.66666666666666</ele><time>2026-04-12T10:23:48.939Z</time></trkpt><trkpt lat="45.156003780069064" lon="13.722300095302673"><ele>132.0</ele><time>2026-04-12T10:23:50.939Z</time></trkpt><trkpt lat="45.15606506850348" lon="13.722338469041414"><ele>132.33333333333334</ele><time>2026-04-12T10:23:51.939Z</time></trkpt><trkpt lat="45.156130590151164" lon="13.722380539418447"><ele>132.66666666666669</ele><time>2026-04-12T10:23:52.939Z</time></trkpt><trkpt lat="45.15620033232367" lon="13.722406133721881"><ele>133.0</ele><time>2026-04-12T10:23:53.939Z</time></trkpt><trkpt lat="45.156321341352694" lon="13.722341542328541"><ele>133.0</ele><time>2026-04-12T10:23:55.939Z</time></trkpt><trkpt lat="45.156391529113776" lon="13.72224182988148"><ele>133.0</ele><time>2026-04-12T10:23:56.939Z</time></trkpt><trkpt lat="45.15645296779522" lon="13.722148583324994"><ele>133.0</ele><time>2026-04-12T10:23:57.939Z</time></trkpt><trkpt lat="45.15652426880993" lon="13.722070320010507"><ele>133.0</ele><time>2026-04-12T10:23:58.939Z</time></trkpt><trkpt lat="45.15659426322829" lon="13.722050824041373"><ele>133.0</ele><time>2026-04-12T10:23:59.939Z</time></trkpt><trkpt lat="45.15667869881408" lon="13.72205750219606"><ele>133.0</ele><time>2026-04-12T10:24:00.939Z</time></trkpt><trkpt lat="45.15677402654269" lon="13.722066718023093"><ele>133.8</ele><time>2026-04-12T10:24:01.939Z</time></trkpt><trkpt lat="45.15687924277669" lon="13.722074104690572"><ele>134.60000000000002</ele><time>2026-04-12T10:24:02.939Z</time></trkpt><trkpt lat="45.15698718405893" lon="13.72208928402"><ele>135.39999999999998</ele><time>2026-04-12T10:24:03.939Z</time></trkpt><trkpt lat="45.15709638411479" lon="13.722096823147847"><ele>136.2</ele><time>2026-04-12T10:24:04.939Z</time></trkpt><trkpt lat="45.15718586678914" lon="13.722093832565864"><ele>137.0</ele><time>2026-04-12T10:24:05.939Z</time></trkpt><trkpt lat="45.1572680883504" lon="13.722092848239262"><ele>137.0</ele><time>2026-04-12T10:24:06.939Z</time></trkpt><trkpt lat="45.157335214085194" lon="13.722093576229064"><ele>137.0</ele><time>2026-04-12T10:24:07.939Z</time></trkpt><trkpt lat="45.157448834728044" lon="13.722212909843693"><ele>137.0</ele><time>2026-04-12T10:24:09.939Z</time></trkpt><trkpt lat="45.15752695238364" lon="13.722330652506777"><ele>137.0</ele><time>2026-04-12T10:24:10.939Z</time></trkpt><trkpt lat="45.15760907339468" lon="13.722446873695151"><ele>137.0</ele><time>2026-04-12T10:24:11.939Z</time></trkpt><trkpt lat="45.1576672480343" lon="13.722492850751037"><ele>137.0</ele><time>2026-04-12T10:24:12.939Z</time></trkpt><trkpt lat="45.15776646075886" lon="13.722424993461035"><ele>137.0</ele><time>2026-04-12T10:24:15.939Z</time></trkpt><trkpt lat="45.157826003600775" lon="13.72237050708127"><ele>137.0</ele><time>2026-04-12T10:24:16.939Z</time></trkpt><trkpt lat="45.15790601137332" lon="13.722302553850264"><ele>137.0</ele><time>2026-04-12T10:24:17.939Z</time></trkpt><trkpt lat="45.15798367591161" lon="13.722258101510507"><ele>137.0</ele><time>2026-04-12T10:24:18.939Z</time></trkpt><trkpt lat="45.158077161103776" lon="13.722221280449462"><ele>137.0</ele><time>2026-04-12T10:24:19.939Z</time></trkpt><trkpt lat="45.158162519272565" lon="13.72222080802528"><ele>137.0</ele><time>2026-04-12T10:24:20.939Z</time></trkpt><trkpt lat="45.15823906387823" lon="13.722218894601319"><ele>137.0</ele><time>2026-04-12T10:24:21.939Z</time></trkpt><trkpt lat="45.158321415191296" lon="13.722208269262302"><ele>137.0</ele><time>2026-04-12T10:24:22.939Z</time></trkpt><trkpt lat="45.15840660905659" lon="13.722193493405339"><ele>137.0</ele><time>2026-04-12T10:24:23.939Z</time></trkpt><trkpt lat="45.158485407042285" lon="13.722194549650519"><ele>137.0</ele><time>2026-04-12T10:24:24.939Z</time></trkpt><trkpt lat="45.1585651207777" lon="13.722186094676056"><ele>138.0</ele><time>2026-04-12T10:24:25.939Z</time></trkpt><trkpt lat="45.15864582870964" lon="13.722207066433345"><ele>139.0</ele><time>2026-04-12T10:24:27.939Z</time></trkpt><trkpt lat="45.15878292721507" lon="13.722287892891558"><ele>140.0</ele><time>2026-04-12T10:29:37.942Z</time></trkpt><trkpt lat="45.15887602766556" lon="13.722457016895786"><ele>141.0</ele><time>2026-04-12T10:40:20.953Z</time></trkpt><trkpt lat="45.158906260515494" lon="13.722546997200624"><ele>141.0</ele><time>2026-04-12T10:40:21.953Z</time></trkpt><trkpt lat="45.15892479272322" lon="13.722662902508727"><ele>141.0</ele><time>2026-04-12T10:40:22.953Z</time></trkpt><trkpt lat="45.15893942415452" lon="13.72280867383678"><ele>141.0</ele><time>2026-04-12T10:40:23.953Z</time></trkpt><trkpt lat="45.158985287238906" lon="13.722947388536111"><ele>141.0</ele><time>2026-04-12T10:40:24.953Z</time></trkpt><trkpt lat="45.15903863484838" lon="13.723103437567238"><ele>141.0</ele><time>2026-04-12T10:40:25.953Z</time></trkpt><trkpt lat="45.15912387162921" lon="13.723259122136804"><ele>142.25</ele><time>2026-04-12T10:40:26.953Z</time></trkpt><trkpt lat="45.159186361163286" lon="13.723421366292465"><ele>143.5</ele><time>2026-04-12T10:40:27.953Z</time></trkpt><trkpt lat="45.15924887325114" lon="13.723594334392937"><ele>144.75</ele><time>2026-04-12T10:40:28.953Z</time></trkpt><trkpt lat="45.159320619161655" lon="13.723780394087914"><ele>146.0</ele><time>2026-04-12T10:40:29.953Z</time></trkpt><trkpt lat="45.15939077318247" lon="13.723970714823567"><ele>146.0</ele><time>2026-04-12T10:40:30.953Z</time></trkpt><trkpt lat="45.15944703768168" lon="13.724177674085803"><ele>146.0</ele><time>2026-04-12T10:40:31.954Z</time></trkpt><trkpt lat="45.15950165356122" lon="13.724353277712158"><ele>146.0</ele><time>2026-04-12T10:40:32.954Z</time></trkpt><trkpt lat="45.15952288675373" lon="13.724528388275942"><ele>146.0</ele><time>2026-04-12T10:40:33.954Z</time></trkpt><trkpt lat="45.15952605863581" lon="13.72468661586729"><ele>146.25</ele><time>2026-04-12T10:40:34.955Z</time></trkpt><trkpt lat="45.15950670729323" lon="13.724857398363762"><ele>146.5</ele><time>2026-04-12T10:40:35.954Z</time></trkpt><trkpt lat="45.15947858788714" lon="13.725041174195882"><ele>146.75</ele><time>2026-04-12T10:40:36.954Z</time></trkpt><trkpt lat="45.15945188449026" lon="13.725250703139649"><ele>147.0</ele><time>2026-04-12T10:40:37.954Z</time></trkpt><trkpt lat="45.159430379643155" lon="13.725471726919839"><ele>147.33333333333334</ele><time>2026-04-12T10:40:38.954Z</time></trkpt><trkpt lat="45.15941401304839" lon="13.725689854885568"><ele>147.66666666666669</ele><time>2026-04-12T10:40:39.954Z</time></trkpt><trkpt lat="45.159389760603005" lon="13.725894220853487"><ele>148.0</ele><time>2026-04-12T10:40:40.954Z</time></trkpt><trkpt lat="45.15936618728786" lon="13.726102850153893"><ele>146.66666666666669</ele><time>2026-04-12T10:40:41.954Z</time></trkpt><trkpt lat="45.15934240138705" lon="13.726324147900351"><ele>145.33333333333334</ele><time>2026-04-12T10:40:42.954Z</time></trkpt><trkpt lat="45.15931038978239" lon="13.726546450465618"><ele>144.0</ele><time>2026-04-12T10:40:43.954Z</time></trkpt><trkpt lat="45.15927684794317" lon="13.726767125641826"><ele>142.66666666666666</ele><time>2026-04-12T10:40:44.954Z</time></trkpt><trkpt lat="45.15923395961614" lon="13.72699026425457"><ele>141.33333333333331</ele><time>2026-04-12T10:40:45.954Z</time></trkpt><trkpt lat="45.159196873718074" lon="13.727208132549471"><ele>140.0</ele><time>2026-04-12T10:40:46.954Z</time></trkpt><trkpt lat="45.15916081901305" lon="13.727430798527637"><ele>140.0</ele><time>2026-04-12T10:40:47.954Z</time></trkpt><trkpt lat="45.15910023449435" lon="13.7276398496076"><ele>140.0</ele><time>2026-04-12T10:40:48.954Z</time></trkpt><trkpt lat="45.15905170645955" lon="13.727847410553391"><ele>140.0</ele><time>2026-04-12T10:40:49.954Z</time></trkpt><trkpt lat="45.15899512501372" lon="13.728047274197943"><ele>140.25</ele><time>2026-04-12T10:40:50.954Z</time></trkpt><trkpt lat="45.15893932717588" lon="13.728230807058624"><ele>140.5</ele><time>2026-04-12T10:40:51.954Z</time></trkpt><trkpt lat="45.158901013701254" lon="13.728421815370304"><ele>140.75</ele><time>2026-04-12T10:40:52.954Z</time></trkpt><trkpt lat="45.15884604897705" lon="13.72860957474756"><ele>141.0</ele><time>2026-04-12T10:40:53.954Z</time></trkpt><trkpt lat="45.15879838422788" lon="13.728804150189514"><ele>140.0</ele><time>2026-04-12T10:40:54.954Z</time></trkpt><trkpt lat="45.158761347368944" lon="13.728995273351131"><ele>139.0</ele><time>2026-04-12T10:40:55.954Z</time></trkpt><trkpt lat="45.15874910143916" lon="13.729182049582997"><ele>138.0</ele><time>2026-04-12T10:40:56.954Z</time></trkpt><trkpt lat="45.15876865857437" lon="13.729352120785588"><ele>137.0</ele><time>2026-04-12T10:40:57.954Z</time></trkpt><trkpt lat="45.15880570868418" lon="13.729532340639013"><ele>136.75</ele><time>2026-04-12T10:40:58.954Z</time></trkpt><trkpt lat="45.15883709716124" lon="13.729706512270175"><ele>136.5</ele><time>2026-04-12T10:40:59.954Z</time></trkpt><trkpt lat="45.158872975993525" lon="13.729891654681564"><ele>136.25</ele><time>2026-04-12T10:41:00.954Z</time></trkpt><trkpt lat="45.158903603206774" lon="13.730071867435479"><ele>136.0</ele><time>2026-04-12T10:41:01.954Z</time></trkpt><trkpt lat="45.15892185569999" lon="13.730258372984311"><ele>135.8</ele><time>2026-04-12T10:41:02.954Z</time></trkpt><trkpt lat="45.15896493054627" lon="13.730424761812992"><ele>135.6</ele><time>2026-04-12T10:41:03.954Z</time></trkpt><trkpt lat="45.158988425204434" lon="13.73058586745079"><ele>135.4</ele><time>2026-04-12T10:41:04.954Z</time></trkpt><trkpt lat="45.159013435800766" lon="13.730702868209182"><ele>135.2</ele><time>2026-04-12T10:41:05.954Z</time></trkpt><trkpt lat="45.15901695758901" lon="13.730798864378151"><ele>135.0</ele><time>2026-04-12T10:41:07.954Z</time></trkpt><trkpt lat="45.15915836968884" lon="13.730806711738417"><ele>135.33333333333334</ele><time>2026-04-12T10:41:09.954Z</time></trkpt><trkpt lat="45.15922260029575" lon="13.730810738311735"><ele>135.66666666666666</ele><time>2026-04-12T10:41:10.954Z</time></trkpt><trkpt lat="45.15929858846219" lon="13.730835540430308"><ele>136.0</ele><time>2026-04-12T10:41:11.954Z</time></trkpt><trkpt lat="45.159377948977834" lon="13.73081177437186"><ele>136.33333333333331</ele><time>2026-04-12T10:41:12.954Z</time></trkpt><trkpt lat="45.15945093521956" lon="13.730817248393544"><ele>136.66666666666666</ele><time>2026-04-12T10:41:13.954Z</time></trkpt><trkpt lat="45.15955949402294" lon="13.730752049868185"><ele>137.0</ele><time>2026-04-12T10:41:15.954Z</time></trkpt><trkpt lat="45.159683674701114" lon="13.73070748332717"><ele>137.0</ele><time>2026-04-12T10:41:17.954Z</time></trkpt><trkpt lat="45.15975233137344" lon="13.730676566189702"><ele>137.0</ele><time>2026-04-12T10:41:18.954Z</time></trkpt><trkpt lat="45.15982070356751" lon="13.730625351325301"><ele>137.0</ele><time>2026-04-12T10:41:19.954Z</time></trkpt><trkpt lat="45.159890295192" lon="13.730572453182468"><ele>137.0</ele><time>2026-04-12T10:41:20.954Z</time></trkpt><trkpt lat="45.15995794297883" lon="13.730520572391413"><ele>137.0</ele><time>2026-04-12T10:41:21.954Z</time></trkpt><trkpt lat="45.160031207492906" lon="13.730467009782343"><ele>137.0</ele><time>2026-04-12T10:41:22.954Z</time></trkpt><trkpt lat="45.16009930504321" lon="13.730399177563122"><ele>136.66666666666666</ele><time>2026-04-12T10:41:23.954Z</time></trkpt><trkpt lat="45.16016888802872" lon="13.730336306338708"><ele>136.33333333333331</ele><time>2026-04-12T10:41:24.954Z</time></trkpt><trkpt lat="45.16024305591347" lon="13.730272283729839"><ele>136.0</ele><time>2026-04-12T10:41:25.954Z</time></trkpt><trkpt lat="45.16032084616745" lon="13.730203567728404"><ele>135.66666666666666</ele><time>2026-04-12T10:41:26.954Z</time></trkpt><trkpt lat="45.160402515065286" lon="13.730146013206124"><ele>135.33333333333334</ele><time>2026-04-12T10:41:27.954Z</time></trkpt><trkpt lat="45.16048956972628" lon="13.730085356619362"><ele>135.0</ele><time>2026-04-12T10:41:28.955Z</time></trkpt><trkpt lat="45.160579719361884" lon="13.730021162620458"><ele>135.0</ele><time>2026-04-12T10:41:29.955Z</time></trkpt><trkpt lat="45.16067020382043" lon="13.729952991974708"><ele>135.0</ele><time>2026-04-12T10:41:30.955Z</time></trkpt><trkpt lat="45.16075921022947" lon="13.729893089812599"><ele>135.0</ele><time>2026-04-12T10:41:31.955Z</time></trkpt><trkpt lat="45.16085338883985" lon="13.729830790161335"><ele>135.0</ele><time>2026-04-12T10:41:32.955Z</time></trkpt><trkpt lat="45.160932704236785" lon="13.729764757155845"><ele>135.0</ele><time>2026-04-12T10:41:33.955Z</time></trkpt><trkpt lat="45.16100060186501" lon="13.729703605537823"><ele>135.0</ele><time>2026-04-12T10:41:34.955Z</time></trkpt><trkpt lat="45.16107189173873" lon="13.729662748404023"><ele>135.0</ele><time>2026-04-12T10:41:35.955Z</time></trkpt><trkpt lat="45.16113697068977" lon="13.729642915224161"><ele>135.0</ele><time>2026-04-12T10:41:36.955Z</time></trkpt><trkpt lat="45.16121476057338" lon="13.729599425906423"><ele>135.0</ele><time>2026-04-12T10:41:41.955Z</time></trkpt><trkpt lat="45.161292398003575" lon="13.729507301155664"><ele>135.0</ele><time>2026-04-12T10:41:43.955Z</time></trkpt><trkpt lat="45.16133975067772" lon="13.729399605601127"><ele>135.0</ele><time>2026-04-12T10:41:45.955Z</time></trkpt><trkpt lat="45.1614301432755" lon="13.729380601169211"><ele>135.16666666666666</ele><time>2026-04-12T10:41:47.955Z</time></trkpt><trkpt lat="45.161501726806556" lon="13.729382233573286"><ele>135.33333333333334</ele><time>2026-04-12T10:41:48.955Z</time></trkpt><trkpt lat="45.16157395152185" lon="13.729392156986968"><ele>135.5</ele><time>2026-04-12T10:41:49.955Z</time></trkpt><trkpt lat="45.16165279875497" lon="13.729407257490653"><ele>135.66666666666669</ele><time>2026-04-12T10:41:50.955Z</time></trkpt><trkpt lat="45.161748295924625" lon="13.729406937662532"><ele>135.83333333333334</ele><time>2026-04-12T10:41:51.955Z</time></trkpt><trkpt lat="45.16184497975885" lon="13.72941088442899"><ele>136.0</ele><time>2026-04-12T10:41:52.955Z</time></trkpt><trkpt lat="45.1619520370017" lon="13.729421639117316"><ele>134.6</ele><time>2026-04-12T10:41:53.955Z</time></trkpt><trkpt lat="45.16205608149002" lon="13.729425677974369"><ele>133.2</ele><time>2026-04-12T10:41:54.955Z</time></trkpt><trkpt lat="45.162165796736076" lon="13.729440408981098"><ele>131.8</ele><time>2026-04-12T10:41:55.955Z</time></trkpt><trkpt lat="45.16226555234505" lon="13.729452571845629"><ele>130.4</ele><time>2026-04-12T10:41:56.955Z</time></trkpt><trkpt lat="45.16236500095961" lon="13.72946110486378"><ele>129.0</ele><time>2026-04-12T10:41:57.955Z</time></trkpt><trkpt lat="45.162458294664134" lon="13.729463140425755"><ele>129.0</ele><time>2026-04-12T10:41:58.955Z</time></trkpt><trkpt lat="45.162557329335044" lon="13.729464978307327"><ele>129.0</ele><time>2026-04-12T10:41:59.955Z</time></trkpt><trkpt lat="45.162650273121464" lon="13.729466848102636"><ele>129.0</ele><time>2026-04-12T10:42:00.955Z</time></trkpt><trkpt lat="45.16274549382047" lon="13.729467880974017"><ele>129.0</ele><time>2026-04-12T10:42:01.955Z</time></trkpt><trkpt lat="45.162838996441764" lon="13.729476686244636"><ele>129.0</ele><time>2026-04-12T10:42:02.955Z</time></trkpt><trkpt lat="45.1629375648009" lon="13.729485495360226"><ele>129.0</ele><time>2026-04-12T10:42:03.955Z</time></trkpt><trkpt lat="45.16304529323809" lon="13.729350132973325"><ele>129.0</ele><time>2026-04-12T10:42:04.955Z</time></trkpt><trkpt lat="45.16315249692387" lon="13.7293690996995"><ele>129.0</ele><time>2026-04-12T10:42:05.955Z</time></trkpt><trkpt lat="45.16326530665854" lon="13.72939062874927"><ele>129.0</ele><time>2026-04-12T10:42:06.955Z</time></trkpt><trkpt lat="45.16336477839076" lon="13.729411464693685"><ele>130.0</ele><time>2026-04-12T10:42:07.955Z</time></trkpt><trkpt lat="45.16347467841786" lon="13.729435861766186"><ele>131.0</ele><time>2026-04-12T10:42:08.955Z</time></trkpt><trkpt lat="45.16358135034038" lon="13.72946180454419"><ele>132.0</ele><time>2026-04-12T10:42:09.955Z</time></trkpt><trkpt lat="45.163676383147326" lon="13.729485667417356"><ele>133.0</ele><time>2026-04-12T10:42:10.955Z</time></trkpt><trkpt lat="45.16378771401522" lon="13.729515130031015"><ele>134.0</ele><time>2026-04-12T10:42:11.955Z</time></trkpt><trkpt lat="45.1638868250235" lon="13.729543179000272"><ele>134.0</ele><time>2026-04-12T10:42:12.955Z</time></trkpt><trkpt lat="45.16399060738166" lon="13.729575197307314"><ele>134.0</ele><time>2026-04-12T10:42:13.955Z</time></trkpt><trkpt lat="45.16409372985678" lon="13.729608470416974"><ele>134.0</ele><time>2026-04-12T10:42:14.955Z</time></trkpt><trkpt lat="45.16419155489318" lon="13.729640720518681"><ele>134.0</ele><time>2026-04-12T10:42:15.955Z</time></trkpt><trkpt lat="45.16428160629376" lon="13.729672891368368"><ele>134.0</ele><time>2026-04-12T10:42:16.955Z</time></trkpt><trkpt lat="45.16437289185747" lon="13.72970617933991"><ele>134.8</ele><time>2026-04-12T10:42:17.955Z</time></trkpt><trkpt lat="45.16446611016101" lon="13.72974092223712"><ele>135.60000000000002</ele><time>2026-04-12T10:42:18.955Z</time></trkpt><trkpt lat="45.16456464301373" lon="13.729778288545932"><ele>136.4</ele><time>2026-04-12T10:42:19.955Z</time></trkpt><trkpt lat="45.16465889744801" lon="13.729815219838741"><ele>137.20000000000002</ele><time>2026-04-12T10:42:20.955Z</time></trkpt><trkpt lat="45.164751538252204" lon="13.72985229246686"><ele>138.0</ele><time>2026-04-12T10:42:21.955Z</time></trkpt><trkpt lat="45.16484689880041" lon="13.729890305988521"><ele>138.66666666666666</ele><time>2026-04-12T10:42:22.955Z</time></trkpt><trkpt lat="45.16494147741081" lon="13.729929164336548"><ele>139.33333333333334</ele><time>2026-04-12T10:42:23.955Z</time></trkpt><trkpt lat="45.165028545310456" lon="13.729965061932338"><ele>140.0</ele><time>2026-04-12T10:42:24.955Z</time></trkpt><trkpt lat="45.16509910149915" lon="13.72999531135655"><ele>140.66666666666669</ele><time>2026-04-12T10:42:25.955Z</time></trkpt><trkpt lat="45.165155668984106" lon="13.730044082469075"><ele>141.33333333333334</ele><time>2026-04-12T10:42:26.955Z</time></trkpt><trkpt lat="45.165240854585605" lon="13.73005843303741"><ele>142.0</ele><time>2026-04-12T10:42:27.955Z</time></trkpt><trkpt lat="45.16533261342896" lon="13.73009929288423"><ele>142.0</ele><time>2026-04-12T10:42:28.955Z</time></trkpt><trkpt lat="45.16542522796795" lon="13.730140569628302"><ele>142.0</ele><time>2026-04-12T10:42:29.955Z</time></trkpt><trkpt lat="45.165517719397926" lon="13.730181793630138"><ele>142.0</ele><time>2026-04-12T10:42:30.955Z</time></trkpt><trkpt lat="45.16560541945931" lon="13.730220687808814"><ele>142.0</ele><time>2026-04-12T10:42:31.955Z</time></trkpt><trkpt lat="45.165701177541834" lon="13.730262444828744"><ele>142.0</ele><time>2026-04-12T10:42:32.955Z</time></trkpt><trkpt lat="45.16580222577765" lon="13.730326410573818"><ele>142.25</ele><time>2026-04-12T10:42:33.955Z</time></trkpt><trkpt lat="45.16590678085342" lon="13.730373788012423"><ele>142.5</ele><time>2026-04-12T10:42:34.955Z</time></trkpt><trkpt lat="45.16602383107837" lon="13.730404501428424"><ele>142.75</ele><time>2026-04-12T10:42:35.955Z</time></trkpt><trkpt lat="45.16613110893996" lon="13.730452229809016"><ele>143.0</ele><time>2026-04-12T10:42:36.955Z</time></trkpt><trkpt lat="45.166237496074615" lon="13.730499808752738"><ele>143.0</ele><time>2026-04-12T10:42:37.954Z</time></trkpt><trkpt lat="45.16634686978176" lon="13.730548197884415"><ele>143.0</ele><time>2026-04-12T10:42:38.954Z</time></trkpt><trkpt lat="45.166469065957536" lon="13.730603503610022"><ele>143.0</ele><time>2026-04-12T10:42:39.954Z</time></trkpt><trkpt lat="45.16658605560535" lon="13.73065588363925"><ele>143.0</ele><time>2026-04-12T10:42:40.954Z</time></trkpt><trkpt lat="45.16670272733981" lon="13.73070754636508"><ele>143.6</ele><time>2026-04-12T10:42:41.954Z</time></trkpt><trkpt lat="45.16681405789835" lon="13.730757109336484"><ele>144.20000000000002</ele><time>2026-04-12T10:42:42.954Z</time></trkpt><trkpt lat="45.16692081544216" lon="13.73080463646663"><ele>144.8</ele><time>2026-04-12T10:42:43.954Z</time></trkpt><trkpt lat="45.16702509571293" lon="13.730851060791998"><ele>145.4</ele><time>2026-04-12T10:42:44.953Z</time></trkpt><trkpt lat="45.167127910201046" lon="13.730896631216343"><ele>146.0</ele><time>2026-04-12T10:42:45.953Z</time></trkpt><trkpt lat="45.16723702802974" lon="13.730944828723608"><ele>146.0</ele><time>2026-04-12T10:42:46.954Z</time></trkpt><trkpt lat="45.16733543004773" lon="13.730988211861257"><ele>146.0</ele><time>2026-04-12T10:42:47.954Z</time></trkpt><trkpt lat="45.16742581684908" lon="13.731028061303716"><ele>146.0</ele><time>2026-04-12T10:42:48.954Z</time></trkpt><trkpt lat="45.16751116033374" lon="13.73106568725294"><ele>146.0</ele><time>2026-04-12T10:42:49.953Z</time></trkpt><trkpt lat="45.16759604283577" lon="13.731102999980768"><ele>146.0</ele><time>2026-04-12T10:42:50.953Z</time></trkpt><trkpt lat="45.167682114448404" lon="13.731140152583846"><ele>145.75</ele><time>2026-04-12T10:42:51.953Z</time></trkpt><trkpt lat="45.16778987713696" lon="13.731186989573928"><ele>145.5</ele><time>2026-04-12T10:42:52.953Z</time></trkpt><trkpt lat="45.167905052443366" lon="13.731237134432824"><ele>145.25</ele><time>2026-04-12T10:42:53.953Z</time></trkpt><trkpt lat="45.16802552042133" lon="13.731289784281062"><ele>145.0</ele><time>2026-04-12T10:42:54.953Z</time></trkpt><trkpt lat="45.16814887523608" lon="13.731343695770914"><ele>145.0</ele><time>2026-04-12T10:42:55.953Z</time></trkpt><trkpt lat="45.16827973742777" lon="13.73140088516834"><ele>145.0</ele><time>2026-04-12T10:42:56.953Z</time></trkpt><trkpt lat="45.168400886383296" lon="13.731454245426738"><ele>145.0</ele><time>2026-04-12T10:42:57.953Z</time></trkpt><trkpt lat="45.16852331358144" lon="13.731507687318567"><ele>145.0</ele><time>2026-04-12T10:42:58.953Z</time></trkpt><trkpt lat="45.168645878830894" lon="13.731561253130181"><ele>145.0</ele><time>2026-04-12T10:42:59.953Z</time></trkpt><trkpt lat="45.168760935030285" lon="13.731611725484226"><ele>145.0</ele><time>2026-04-12T10:43:00.953Z</time></trkpt><trkpt lat="45.16886553102182" lon="13.731657922199513"><ele>145.0</ele><time>2026-04-12T10:43:01.953Z</time></trkpt><trkpt lat="45.16896525162835" lon="13.731701707095525"><ele>145.0</ele><time>2026-04-12T10:43:02.953Z</time></trkpt><trkpt lat="45.16905347280404" lon="13.731740400653587"><ele>145.0</ele><time>2026-04-12T10:43:03.953Z</time></trkpt><trkpt lat="45.16914585439827" lon="13.731781602842835"><ele>145.0</ele><time>2026-04-12T10:43:04.953Z</time></trkpt><trkpt lat="45.16923316266486" lon="13.731820489684493"><ele>145.0</ele><time>2026-04-12T10:43:05.953Z</time></trkpt><trkpt lat="45.169323887806236" lon="13.731860243630408"><ele>145.0</ele><time>2026-04-12T10:43:06.953Z</time></trkpt><trkpt lat="45.16941705459494" lon="13.731901067467318"><ele>145.0</ele><time>2026-04-12T10:43:07.953Z</time></trkpt><trkpt lat="45.16952695949322" lon="13.731949278600636"><ele>145.0</ele><time>2026-04-12T10:43:08.953Z</time></trkpt><trkpt lat="45.16963208073526" lon="13.731995421109396"><ele>145.0</ele><time>2026-04-12T10:43:09.953Z</time></trkpt><trkpt lat="45.16973551233338" lon="13.732040742810202"><ele>145.0</ele><time>2026-04-12T10:43:10.953Z</time></trkpt><trkpt lat="45.1698356760121" lon="13.732074182488361"><ele>145.0</ele><time>2026-04-12T10:43:11.954Z</time></trkpt><trkpt lat="45.16994200052041" lon="13.732117625803708"><ele>145.0</ele><time>2026-04-12T10:43:12.954Z</time></trkpt><trkpt lat="45.17005067390268" lon="13.732160314750196"><ele>145.0</ele><time>2026-04-12T10:43:13.954Z</time></trkpt><trkpt lat="45.17015253611013" lon="13.732205508366466"><ele>145.6</ele><time>2026-04-12T10:43:14.954Z</time></trkpt><trkpt lat="45.170257852168056" lon="13.732247940366635"><ele>146.2</ele><time>2026-04-12T10:43:15.954Z</time></trkpt><trkpt lat="45.170358571817815" lon="13.73229445593345"><ele>146.8</ele><time>2026-04-12T10:43:16.954Z</time></trkpt><trkpt lat="45.17046350826361" lon="13.732343793570367"><ele>147.4</ele><time>2026-04-12T10:43:17.954Z</time></trkpt><trkpt lat="45.17057348067425" lon="13.732399196340808"><ele>148.0</ele><time>2026-04-12T10:43:18.954Z</time></trkpt><trkpt lat="45.17069179933786" lon="13.73246022409254"><ele>148.4</ele><time>2026-04-12T10:43:19.954Z</time></trkpt><trkpt lat="45.17080508179067" lon="13.732512564802047"><ele>148.8</ele><time>2026-04-12T10:43:20.954Z</time></trkpt><trkpt lat="45.170913750282715" lon="13.732563015384006"><ele>149.2</ele><time>2026-04-12T10:43:21.954Z</time></trkpt><trkpt lat="45.17101391308604" lon="13.732608292196856"><ele>149.6</ele><time>2026-04-12T10:43:22.954Z</time></trkpt><trkpt lat="45.17110575395678" lon="13.732657518294323"><ele>150.0</ele><time>2026-04-12T10:43:23.954Z</time></trkpt><trkpt lat="45.17119611978881" lon="13.732685552725615"><ele>150.0</ele><time>2026-04-12T10:43:24.954Z</time></trkpt><trkpt lat="45.17127348979895" lon="13.732719314994025"><ele>150.0</ele><time>2026-04-12T10:43:25.954Z</time></trkpt><trkpt lat="45.171339871672785" lon="13.73274815769973"><ele>150.0</ele><time>2026-04-12T10:43:26.954Z</time></trkpt><trkpt lat="45.171405094925866" lon="13.732777625631295"><ele>150.0</ele><time>2026-04-12T10:43:27.954Z</time></trkpt><trkpt lat="45.1714744175314" lon="13.732808720281676"><ele>150.0</ele><time>2026-04-12T10:43:28.954Z</time></trkpt><trkpt lat="45.1715867008694" lon="13.732883553401823"><ele>150.0</ele><time>2026-04-12T10:43:30.954Z</time></trkpt><trkpt lat="45.171570967734205" lon="13.733503808258083"><ele>149.4</ele><time>2026-04-12T10:43:32.954Z</time></trkpt><trkpt lat="45.171597460728684" lon="13.733644859529768"><ele>148.8</ele><time>2026-04-12T10:43:34.954Z</time></trkpt><trkpt lat="45.171532074065006" lon="13.733726160785888"><ele>148.2</ele><time>2026-04-12T10:43:36.954Z</time></trkpt><trkpt lat="45.17142632177128" lon="13.733819191485779"><ele>147.6</ele><time>2026-04-12T10:43:38.954Z</time></trkpt><trkpt lat="45.17138347897323" lon="13.733887198787379"><ele>147.0</ele><time>2026-04-12T10:43:39.954Z</time></trkpt><trkpt lat="45.17137736536572" lon="13.73401749636094"><ele>146.83333333333334</ele><time>2026-04-12T10:43:41.954Z</time></trkpt><trkpt lat="45.171409300162324" lon="13.734106467971351"><ele>146.66666666666666</ele><time>2026-04-12T10:43:42.954Z</time></trkpt><trkpt lat="45.17145163377661" lon="13.734195440651987"><ele>146.5</ele><time>2026-04-12T10:43:43.954Z</time></trkpt><trkpt lat="45.17148407616539" lon="13.734288510987152"><ele>146.33333333333331</ele><time>2026-04-12T10:43:44.954Z</time></trkpt><trkpt lat="45.17150028549972" lon="13.734405636491124"><ele>146.16666666666666</ele><time>2026-04-12T10:43:45.954Z</time></trkpt><trkpt lat="45.171501311195705" lon="13.73454399681716"><ele>146.0</ele><time>2026-04-12T10:43:46.954Z</time></trkpt><trkpt lat="45.171510175914165" lon="13.734699912142815"><ele>146.0</ele><time>2026-04-12T10:43:47.954Z</time></trkpt><trkpt lat="45.1715271315942" lon="13.734893104461811"><ele>146.0</ele><time>2026-04-12T10:43:48.954Z</time></trkpt><trkpt lat="45.17152770816135" lon="13.735073283520524"><ele>146.0</ele><time>2026-04-12T10:43:49.954Z</time></trkpt><trkpt lat="45.171526612491846" lon="13.735238701065846"><ele>146.0</ele><time>2026-04-12T10:43:50.954Z</time></trkpt><trkpt lat="45.17153927271128" lon="13.735379230181676"><ele>146.33333333333331</ele><time>2026-04-12T10:43:51.954Z</time></trkpt><trkpt lat="45.17156619552346" lon="13.735502229492061"><ele>146.66666666666666</ele><time>2026-04-12T10:43:52.954Z</time></trkpt><trkpt lat="45.17159984179009" lon="13.735599340210275"><ele>147.0</ele><time>2026-04-12T10:43:53.954Z</time></trkpt><trkpt lat="45.17165459778742" lon="13.735678730022844"><ele>147.33333333333334</ele><time>2026-04-12T10:43:54.954Z</time></trkpt><trkpt lat="45.17172014101613" lon="13.735749964239142"><ele>147.66666666666669</ele><time>2026-04-12T10:43:55.954Z</time></trkpt><trkpt lat="45.17179196169259" lon="13.7358398245912"><ele>148.0</ele><time>2026-04-12T10:43:56.954Z</time></trkpt><trkpt lat="45.17186672975635" lon="13.73590980958257"><ele>148.0</ele><time>2026-04-12T10:43:57.954Z</time></trkpt><trkpt lat="45.17194177215194" lon="13.73597135124104"><ele>148.0</ele><time>2026-04-12T10:43:58.954Z</time></trkpt><trkpt lat="45.17202148485709" lon="13.735998519529218"><ele>148.0</ele><time>2026-04-12T10:43:59.954Z</time></trkpt><trkpt lat="45.17210925648309" lon="13.736018213815779"><ele>148.0</ele><time>2026-04-12T10:44:00.954Z</time></trkpt><trkpt lat="45.172179135080725" lon="13.736052467666063"><ele>148.0</ele><time>2026-04-12T10:44:01.954Z</time></trkpt><trkpt lat="45.17223838507494" lon="13.736138094838317"><ele>148.0</ele><time>2026-04-12T10:44:02.954Z</time></trkpt><trkpt lat="45.17229354139655" lon="13.736251646301268"><ele>148.25</ele><time>2026-04-12T10:44:03.954Z</time></trkpt><trkpt lat="45.172356056189" lon="13.736385324026639"><ele>148.5</ele><time>2026-04-12T10:44:04.954Z</time></trkpt><trkpt lat="45.17242910555292" lon="13.73653638205887"><ele>148.75</ele><time>2026-04-12T10:44:05.954Z</time></trkpt><trkpt lat="45.17251219625295" lon="13.736702316657922"><ele>149.0</ele><time>2026-04-12T10:44:06.954Z</time></trkpt><trkpt lat="45.17259458385502" lon="13.736848405447056"><ele>149.6</ele><time>2026-04-12T10:44:07.954Z</time></trkpt><trkpt lat="45.17267729170827" lon="13.736954655837765"><ele>150.2</ele><time>2026-04-12T10:44:08.954Z</time></trkpt><trkpt lat="45.17275539906301" lon="13.737053723331828"><ele>150.79999999999998</ele><time>2026-04-12T10:44:09.954Z</time></trkpt><trkpt lat="45.17283988608163" lon="13.737130818720145"><ele>151.4</ele><time>2026-04-12T10:44:10.954Z</time></trkpt><trkpt lat="45.17288882546683" lon="13.737232165513202"><ele>152.0</ele><time>2026-04-12T10:44:11.954Z</time></trkpt><trkpt lat="45.17295246521284" lon="13.737318313442744"><ele>152.0</ele><time>2026-04-12T10:44:12.954Z</time></trkpt><trkpt lat="45.173006532811414" lon="13.73740873198373"><ele>152.0</ele><time>2026-04-12T10:44:13.954Z</time></trkpt><trkpt lat="45.173036506052476" lon="13.737506322895666"><ele>152.0</ele><time>2026-04-12T10:44:14.954Z</time></trkpt><trkpt lat="45.173074482107765" lon="13.737620433347969"><ele>152.0</ele><time>2026-04-12T10:44:15.954Z</time></trkpt><trkpt lat="45.173125391656335" lon="13.737723116302668"><ele>152.0</ele><time>2026-04-12T10:44:16.954Z</time></trkpt><trkpt lat="45.17317816207722" lon="13.737853495931047"><ele>152.0</ele><time>2026-04-12T10:44:17.954Z</time></trkpt><trkpt lat="45.173237465494125" lon="13.737989785590248"><ele>153.0</ele><time>2026-04-12T10:44:18.954Z</time></trkpt><trkpt lat="45.173285848228005" lon="13.738133656198173"><ele>154.0</ele><time>2026-04-12T10:44:19.954Z</time></trkpt><trkpt lat="45.173300681693" lon="13.738287720437226"><ele>155.0</ele><time>2026-04-12T10:44:20.954Z</time></trkpt><trkpt lat="45.17332777613793" lon="13.738462567940534"><ele>156.0</ele><time>2026-04-12T10:44:21.954Z</time></trkpt><trkpt lat="45.17335806578055" lon="13.738637089678097"><ele>156.8</ele><time>2026-04-12T10:44:22.954Z</time></trkpt><trkpt lat="45.173395923930315" lon="13.738798415426137"><ele>157.6</ele><time>2026-04-12T10:44:23.954Z</time></trkpt><trkpt lat="45.17341543032087" lon="13.738941651683819"><ele>158.4</ele><time>2026-04-12T10:44:24.954Z</time></trkpt><trkpt lat="45.17342611578086" lon="13.73906857272835"><ele>159.2</ele><time>2026-04-12T10:44:25.954Z</time></trkpt><trkpt lat="45.173415530029494" lon="13.739197611481204"><ele>160.0</ele><time>2026-04-12T10:44:26.954Z</time></trkpt><trkpt lat="45.173415657665686" lon="13.739318614761766"><ele>160.33333333333334</ele><time>2026-04-12T10:44:27.954Z</time></trkpt><trkpt lat="45.17341934417123" lon="13.739439673732333"><ele>160.66666666666669</ele><time>2026-04-12T10:44:28.954Z</time></trkpt><trkpt lat="45.173409580441984" lon="13.739554191519378"><ele>161.0</ele><time>2026-04-12T10:44:29.954Z</time></trkpt><trkpt lat="45.1734263501396" lon="13.739662960575725"><ele>161.33333333333334</ele><time>2026-04-12T10:44:30.954Z</time></trkpt><trkpt lat="45.17348419995347" lon="13.739752205465736"><ele>161.66666666666666</ele><time>2026-04-12T10:44:31.954Z</time></trkpt><trkpt lat="45.17354148645134" lon="13.739849747744492"><ele>162.0</ele><time>2026-04-12T10:44:32.954Z</time></trkpt><trkpt lat="45.173610639734356" lon="13.73997702493394"><ele>162.0</ele><time>2026-04-12T10:44:33.954Z</time></trkpt><trkpt lat="45.17371904686005" lon="13.74008996679823"><ele>162.0</ele><time>2026-04-12T10:44:34.954Z</time></trkpt><trkpt lat="45.17381269487626" lon="13.74021550526306"><ele>162.0</ele><time>2026-04-12T10:44:35.954Z</time></trkpt><trkpt lat="45.17388675790012" lon="13.74035189419982"><ele>162.0</ele><time>2026-04-12T10:44:36.954Z</time></trkpt><trkpt lat="45.17396595239195" lon="13.740448736143325"><ele>163.8</ele><time>2026-04-12T10:44:37.954Z</time></trkpt><trkpt lat="45.17402443955734" lon="13.74054711968418"><ele>165.6</ele><time>2026-04-12T10:44:38.954Z</time></trkpt><trkpt lat="45.17408800639734" lon="13.740635494840962"><ele>167.4</ele><time>2026-04-12T10:44:39.954Z</time></trkpt><trkpt lat="45.174160071097965" lon="13.740708402557813"><ele>169.20000000000002</ele><time>2026-04-12T10:44:40.954Z</time></trkpt><trkpt lat="45.17421433664321" lon="13.740794390897351"><ele>171.0</ele><time>2026-04-12T10:44:41.954Z</time></trkpt><trkpt lat="45.17426356557615" lon="13.740932326492286"><ele>171.0</ele><time>2026-04-12T10:44:43.953Z</time></trkpt><trkpt lat="45.17425613375549" lon="13.741028513648217"><ele>171.0</ele><time>2026-04-12T10:44:44.953Z</time></trkpt><trkpt lat="45.174262355001844" lon="13.741142942543638"><ele>171.0</ele><time>2026-04-12T10:44:45.953Z</time></trkpt><trkpt lat="45.1742696428518" lon="13.741262496208595"><ele>171.0</ele><time>2026-04-12T10:44:46.953Z</time></trkpt><trkpt lat="45.174301008556405" lon="13.741382017183824"><ele>171.0</ele><time>2026-04-12T10:44:47.953Z</time></trkpt><trkpt lat="45.17431771204809" lon="13.741481587499193"><ele>171.0</ele><time>2026-04-12T10:44:48.953Z</time></trkpt><trkpt lat="45.17435380049533" lon="13.741599774509075"><ele>171.66666666666666</ele><time>2026-04-12T10:44:50.953Z</time></trkpt><trkpt lat="45.174363327900046" lon="13.74172280063459"><ele>172.33333333333334</ele><time>2026-04-12T10:44:53.953Z</time></trkpt><trkpt lat="45.174376350302346" lon="13.74181161493231"><ele>173.0</ele><time>2026-04-12T10:44:54.953Z</time></trkpt><trkpt lat="45.17438211703325" lon="13.741937331918587"><ele>173.66666666666669</ele><time>2026-04-12T10:44:55.953Z</time></trkpt><trkpt lat="45.17442627621504" lon="13.742031892726752"><ele>174.33333333333334</ele><time>2026-04-12T10:44:56.953Z</time></trkpt><trkpt lat="45.17443193696594" lon="13.74215228208086"><ele>175.0</ele><time>2026-04-12T10:44:57.953Z</time></trkpt><trkpt lat="45.174411028898405" lon="13.742286616507908"><ele>175.83333333333334</ele><time>2026-04-12T10:44:58.953Z</time></trkpt><trkpt lat="45.174421213571975" lon="13.742387799253843"><ele>176.66666666666669</ele><time>2026-04-12T10:44:59.953Z</time></trkpt><trkpt lat="45.17446826446671" lon="13.7424799380703"><ele>177.5</ele><time>2026-04-12T10:45:00.953Z</time></trkpt><trkpt lat="45.174546655825175" lon="13.742550521254383"><ele>178.33333333333334</ele><time>2026-04-12T10:45:01.953Z</time></trkpt><trkpt lat="45.1746233658752" lon="13.742621040620843"><ele>179.16666666666666</ele><time>2026-04-12T10:45:02.953Z</time></trkpt><trkpt lat="45.17466566741683" lon="13.742688205782065"><ele>180.0</ele><time>2026-04-12T10:45:03.953Z</time></trkpt><trkpt lat="45.174782185937175" lon="13.742852155040394"><ele>180.7142857142857</ele><time>2026-04-12T10:45:13.953Z</time></trkpt><trkpt lat="45.17484250482365" lon="13.742925224842102"><ele>181.42857142857144</ele><time>2026-04-12T10:45:14.953Z</time></trkpt><trkpt lat="45.1749018886827" lon="13.743000460138266"><ele>182.14285714285714</ele><time>2026-04-12T10:45:15.953Z</time></trkpt><trkpt lat="45.17496388202916" lon="13.743073172579809"><ele>182.85714285714283</ele><time>2026-04-12T10:45:16.953Z</time></trkpt><trkpt lat="45.1750150513837" lon="13.743128483785636"><ele>183.57142857142856</ele><time>2026-04-12T10:45:17.953Z</time></trkpt><trkpt lat="45.17507556324541" lon="13.743172783888037"><ele>184.28571428571428</ele><time>2026-04-12T10:45:19.953Z</time></trkpt><trkpt lat="45.17504676686654" lon="13.743271597938122"><ele>185.0</ele><time>2026-04-12T10:45:21.953Z</time></trkpt><trkpt lat="45.175010656438985" lon="13.743349325420642"><ele>186.5</ele><time>2026-04-12T10:45:22.953Z</time></trkpt><trkpt lat="45.17497170433896" lon="13.743449384232802"><ele>188.0</ele><time>2026-04-12T10:45:23.953Z</time></trkpt><trkpt lat="45.17494537171435" lon="13.743578685770219"><ele>189.5</ele><time>2026-04-12T10:45:24.953Z</time></trkpt><trkpt lat="45.17494550741063" lon="13.743694571264026"><ele>191.0</ele><time>2026-04-12T10:45:25.953Z</time></trkpt><trkpt lat="45.17496718842513" lon="13.743808553337482"><ele>192.50000000000003</ele><time>2026-04-12T10:45:26.953Z</time></trkpt><trkpt lat="45.17499966994093" lon="13.743921013415047"><ele>194.0</ele><time>2026-04-12T10:45:27.953Z</time></trkpt><trkpt lat="45.17502824673244" lon="13.744025604134738"><ele>194.42857142857142</ele><time>2026-04-12T10:45:28.953Z</time></trkpt><trkpt lat="45.175062238698544" lon="13.744110956536053"><ele>194.85714285714286</ele><time>2026-04-12T10:45:29.953Z</time></trkpt><trkpt lat="45.17508907945763" lon="13.744196246878955"><ele>195.28571428571428</ele><time>2026-04-12T10:45:31.953Z</time></trkpt><trkpt lat="45.175078721203725" lon="13.744303478593153"><ele>195.71428571428572</ele><time>2026-04-12T10:45:37.953Z</time></trkpt><trkpt lat="45.175039218566155" lon="13.744390057417776"><ele>196.14285714285717</ele><time>2026-04-12T10:45:40.953Z</time></trkpt><trkpt lat="45.17501432595867" lon="13.74447535137998"><ele>196.57142857142858</ele><time>2026-04-12T10:45:50.953Z</time></trkpt><trkpt lat="45.17506344923836" lon="13.744385467934219"><ele>197.0</ele><time>2026-04-12T10:45:55.953Z</time></trkpt><trkpt lat="45.175116516286586" lon="13.744300792633803"><ele>197.00000000000003</ele><time>2026-04-12T10:45:58.953Z</time></trkpt><trkpt lat="45.17517767793897" lon="13.744273790450867"><ele>197.0</ele><time>2026-04-12T10:46:03.953Z</time></trkpt><trkpt lat="45.17524697142725" lon="13.744341124195778"><ele>197.0</ele><time>2026-04-12T10:46:05.954Z</time></trkpt><trkpt lat="45.17532443034066" lon="13.744375018188745"><ele>197.0</ele><time>2026-04-12T10:46:07.954Z</time></trkpt><trkpt lat="45.175410996775575" lon="13.744442855427177"><ele>197.00000000000003</ele><time>2026-04-12T10:46:10.954Z</time></trkpt><trkpt lat="45.17548262547776" lon="13.744469317147875"><ele>197.0</ele><time>2026-04-12T10:46:13.954Z</time></trkpt><trkpt lat="45.17554564950921" lon="13.744435959955634"><ele>197.0</ele><time>2026-04-12T10:46:16.954Z</time></trkpt><trkpt lat="45.17557219513752" lon="13.74434605234138"><ele>197.0</ele><time>2026-04-12T10:46:18.954Z</time></trkpt><trkpt lat="45.1756269200592" lon="13.744290166694858"><ele>197.0</ele><time>2026-04-12T10:46:21.954Z</time></trkpt><trkpt lat="45.175709599737026" lon="13.744290056606406"><ele>197.0</ele><time>2026-04-12T10:46:24.954Z</time></trkpt><trkpt lat="45.17564824711743" lon="13.744333963697175"><ele>197.0</ele><time>2026-04-12T10:46:42.954Z</time></trkpt><trkpt lat="45.17560627580721" lon="13.74441276360191"><ele>197.0</ele><time>2026-04-12T10:46:46.954Z</time></trkpt><trkpt lat="45.17554398686819" lon="13.744431756195542"><ele>197.0</ele><time>2026-04-12T10:46:49.952Z</time></trkpt><trkpt lat="45.17547911184202" lon="13.744410291721694"><ele>197.00000000000003</ele><time>2026-04-12T10:46:52.952Z</time></trkpt><trkpt lat="45.175416850425385" lon="13.744350208818187"><ele>197.0</ele><time>2026-04-12T10:46:56.953Z</time></trkpt><trkpt lat="45.17532800436999" lon="13.744297120523179"><ele>197.0</ele><time>2026-04-12T10:46:58.952Z</time></trkpt><trkpt lat="45.17524287174369" lon="13.74427184683178"><ele>197.0</ele><time>2026-04-12T10:47:00.952Z</time></trkpt><trkpt lat="45.17515999030444" lon="13.744251372508204"><ele>197.00000000000003</ele><time>2026-04-12T10:47:02.952Z</time></trkpt><trkpt lat="45.175101023791065" lon="13.74430853261382"><ele>197.0</ele><time>2026-04-12T10:47:09.952Z</time></trkpt><trkpt lat="45.175039407347526" lon="13.744402434861396"><ele>197.0</ele><time>2026-04-12T10:47:11.952Z</time></trkpt><trkpt lat="45.17497497588091" lon="13.744516254931536"><ele>197.0</ele><time>2026-04-12T10:47:13.952Z</time></trkpt><trkpt lat="45.17494579559876" lon="13.744638726958653"><ele>197.0</ele><time>2026-04-12T10:47:15.952Z</time></trkpt><trkpt lat="45.17492642175791" lon="13.74472948304652"><ele>197.0</ele><time>2026-04-12T10:47:20.952Z</time></trkpt><trkpt lat="45.17491201504028" lon="13.744916777641818"><ele>197.0</ele><time>2026-04-12T10:48:17.952Z</time></trkpt><trkpt lat="45.17486271056608" lon="13.744995897889767"><ele>195.66666666666669</ele><time>2026-04-12T10:48:18.952Z</time></trkpt><trkpt lat="45.174814590354764" lon="13.745084522424207"><ele>194.33333333333334</ele><time>2026-04-12T10:48:19.952Z</time></trkpt><trkpt lat="45.17472254509113" lon="13.745133887881714"><ele>193.0</ele><time>2026-04-12T10:48:20.952Z</time></trkpt><trkpt lat="45.174685128217135" lon="13.745223249488317"><ele>191.66666666666669</ele><time>2026-04-12T10:48:21.952Z</time></trkpt><trkpt lat="45.1746466643217" lon="13.745317564316208"><ele>190.33333333333334</ele><time>2026-04-12T10:48:22.952Z</time></trkpt><trkpt lat="45.17463007840455" lon="13.745437278488856"><ele>189.0</ele><time>2026-04-12T10:48:23.952Z</time></trkpt><trkpt lat="45.17459257241641" lon="13.745534897893"><ele>189.0</ele><time>2026-04-12T10:48:24.952Z</time></trkpt><trkpt lat="45.17455668556369" lon="13.745626711460611"><ele>189.0</ele><time>2026-04-12T10:48:25.952Z</time></trkpt><trkpt lat="45.17451596125175" lon="13.745713408458926"><ele>189.0</ele><time>2026-04-12T10:48:26.952Z</time></trkpt><trkpt lat="45.1744856989874" lon="13.745798957296715"><ele>189.0</ele><time>2026-04-12T10:48:27.952Z</time></trkpt><trkpt lat="45.174451699949216" lon="13.745893765557222"><ele>189.0</ele><time>2026-04-12T10:48:28.952Z</time></trkpt><trkpt lat="45.17441580795494" lon="13.745969951162325"><ele>189.0</ele><time>2026-04-12T10:48:29.952Z</time></trkpt><trkpt lat="45.174377829401315" lon="13.74605738838767"><ele>189.0</ele><time>2026-04-12T10:48:30.952Z</time></trkpt><trkpt lat="45.17432961390056" lon="13.74616632388107"><ele>189.0</ele><time>2026-04-12T10:48:32.952Z</time></trkpt><trkpt lat="45.174332714212426" lon="13.746261384161677"><ele>189.0</ele><time>2026-04-12T10:48:34.952Z</time></trkpt><trkpt lat="45.17440550553374" lon="13.746390780290783"><ele>189.0</ele><time>2026-04-12T10:48:36.952Z</time></trkpt><trkpt lat="45.174458194368086" lon="13.746470929876336"><ele>189.0</ele><time>2026-04-12T10:48:37.952Z</time></trkpt><trkpt lat="45.174503305392896" lon="13.746552724844326"><ele>189.0</ele><time>2026-04-12T10:48:38.952Z</time></trkpt><trkpt lat="45.17454639436936" lon="13.74665037072398"><ele>189.0</ele><time>2026-04-12T10:48:39.952Z</time></trkpt><trkpt lat="45.174578309406165" lon="13.74677353077083"><ele>189.6</ele><time>2026-04-12T10:48:40.952Z</time></trkpt><trkpt lat="45.174611845992516" lon="13.746885461141737"><ele>190.2</ele><time>2026-04-12T10:48:41.952Z</time></trkpt><trkpt lat="45.17464222739832" lon="13.746984904433818"><ele>190.79999999999998</ele><time>2026-04-12T10:48:42.952Z</time></trkpt><trkpt lat="45.17471331318235" lon="13.747138039354171"><ele>191.39999999999998</ele><time>2026-04-12T10:48:44.952Z</time></trkpt><trkpt lat="45.174780373673165" lon="13.74725612166107"><ele>192.0</ele><time>2026-04-12T10:48:46.952Z</time></trkpt><trkpt lat="45.17476689583459" lon="13.747391277377666"><ele>192.0</ele><time>2026-04-12T10:48:49.952Z</time></trkpt><trkpt lat="45.17470636664631" lon="13.747537108761312"><ele>192.0</ele><time>2026-04-12T10:48:51.952Z</time></trkpt><trkpt lat="45.174664999655484" lon="13.747628260103696"><ele>192.0</ele><time>2026-04-12T10:48:52.952Z</time></trkpt><trkpt lat="45.17463473267615" lon="13.747717550243802"><ele>192.0</ele><time>2026-04-12T10:48:53.952Z</time></trkpt><trkpt lat="45.17460568530612" lon="13.747809087612907"><ele>192.0</ele><time>2026-04-12T10:48:54.952Z</time></trkpt><trkpt lat="45.17458771306029" lon="13.747908821934685"><ele>192.0</ele><time>2026-04-12T10:48:55.953Z</time></trkpt><trkpt lat="45.1745648557714" lon="13.748031874099846"><ele>192.8</ele><time>2026-04-12T10:48:56.953Z</time></trkpt><trkpt lat="45.17453442317869" lon="13.748166012110008"><ele>193.6</ele><time>2026-04-12T10:48:57.953Z</time></trkpt><trkpt lat="45.17450653771006" lon="13.748292675145175"><ele>194.4</ele><time>2026-04-12T10:48:58.952Z</time></trkpt><trkpt lat="45.17448107162177" lon="13.748414592315116"><ele>195.20000000000002</ele><time>2026-04-12T10:48:59.952Z</time></trkpt><trkpt lat="45.174457482437795" lon="13.748539066470459"><ele>196.0</ele><time>2026-04-12T10:49:00.952Z</time></trkpt><trkpt lat="45.174429254656445" lon="13.748676335785955"><ele>196.4</ele><time>2026-04-12T10:49:01.952Z</time></trkpt><trkpt lat="45.17439546834312" lon="13.748820830807942"><ele>196.8</ele><time>2026-04-12T10:49:02.952Z</time></trkpt><trkpt lat="45.174351182314986" lon="13.748965887869392"><ele>197.20000000000002</ele><time>2026-04-12T10:49:03.952Z</time></trkpt><trkpt lat="45.17430674361608" lon="13.74911113320054"><ele>197.60000000000002</ele><time>2026-04-12T10:49:04.952Z</time></trkpt><trkpt lat="45.17426773410894" lon="13.749258947625002"><ele>198.0</ele><time>2026-04-12T10:49:05.953Z</time></trkpt><trkpt lat="45.174236809156454" lon="13.749400732026107"><ele>198.0</ele><time>2026-04-12T10:49:06.953Z</time></trkpt><trkpt lat="45.1742098407891" lon="13.749546221176661"><ele>198.0</ele><time>2026-04-12T10:49:07.952Z</time></trkpt><trkpt lat="45.17419347486236" lon="13.749671136029939"><ele>198.0</ele><time>2026-04-12T10:49:08.953Z</time></trkpt><trkpt lat="45.17417919844913" lon="13.749806080612274"><ele>198.0</ele><time>2026-04-12T10:49:09.953Z</time></trkpt><trkpt lat="45.17416796886896" lon="13.749946045478845"><ele>198.0</ele><time>2026-04-12T10:49:10.953Z</time></trkpt><trkpt lat="45.17415630655912" lon="13.75008777624685"><ele>197.4</ele><time>2026-04-12T10:49:11.953Z</time></trkpt><trkpt lat="45.17414612299765" lon="13.750224257569942"><ele>196.8</ele><time>2026-04-12T10:49:12.953Z</time></trkpt><trkpt lat="45.17414125978919" lon="13.750354320716763"><ele>196.2</ele><time>2026-04-12T10:49:13.953Z</time></trkpt><trkpt lat="45.1741295747398" lon="13.750474131939582"><ele>195.6</ele><time>2026-04-12T10:49:14.953Z</time></trkpt><trkpt lat="45.174111232555646" lon="13.750583689804856"><ele>195.0</ele><time>2026-04-12T10:49:15.953Z</time></trkpt><trkpt lat="45.174086821343984" lon="13.750737077999174"><ele>195.0</ele><time>2026-04-12T10:49:17.953Z</time></trkpt><trkpt lat="45.174085231175056" lon="13.750872993121911"><ele>195.0</ele><time>2026-04-12T10:49:19.953Z</time></trkpt><trkpt lat="45.17410575576562" lon="13.75096817020437"><ele>195.0</ele><time>2026-04-12T10:49:20.953Z</time></trkpt><trkpt lat="45.1741428271457" lon="13.751113968335488"><ele>195.0</ele><time>2026-04-12T10:49:21.953Z</time></trkpt><trkpt lat="45.17418906704145" lon="13.75128122479304"><ele>195.0</ele><time>2026-04-12T10:49:22.953Z</time></trkpt><trkpt lat="45.174231762730244" lon="13.751442797930931"><ele>194.75</ele><time>2026-04-12T10:49:23.953Z</time></trkpt><trkpt lat="45.174277643922956" lon="13.751627154748737"><ele>194.5</ele><time>2026-04-12T10:49:24.953Z</time></trkpt><trkpt lat="45.17433084949707" lon="13.751836560748387"><ele>194.25</ele><time>2026-04-12T10:49:25.953Z</time></trkpt><trkpt lat="45.174375087337594" lon="13.752022875526826"><ele>194.0</ele><time>2026-04-12T10:49:26.953Z</time></trkpt><trkpt lat="45.17440788923424" lon="13.752183647740566"><ele>194.0</ele><time>2026-04-12T10:49:27.953Z</time></trkpt><trkpt lat="45.17444803755969" lon="13.752322423856258"><ele>194.0</ele><time>2026-04-12T10:49:28.953Z</time></trkpt><trkpt lat="45.17447898169528" lon="13.75240068296929"><ele>194.0</ele><time>2026-04-12T10:49:29.953Z</time></trkpt><trkpt lat="45.17456651978569" lon="13.752474500938046"><ele>194.0</ele><time>2026-04-12T10:49:31.953Z</time></trkpt><trkpt lat="45.17466328322426" lon="13.752501058290585"><ele>194.0</ele><time>2026-04-12T10:49:33.953Z</time></trkpt><trkpt lat="45.17479377312508" lon="13.752472757059785"><ele>194.0</ele><time>2026-04-12T10:49:35.953Z</time></trkpt><trkpt lat="45.17489087108329" lon="13.752434400706596"><ele>194.0</ele><time>2026-04-12T10:49:36.953Z</time></trkpt><trkpt lat="45.17501419340806" lon="13.752424959284626"><ele>194.0</ele><time>2026-04-12T10:49:37.953Z</time></trkpt><trkpt lat="45.17512969963614" lon="13.752400033826031"><ele>194.0</ele><time>2026-04-12T10:49:38.953Z</time></trkpt><trkpt lat="45.1752475409392" lon="13.752379961809673"><ele>194.0</ele><time>2026-04-12T10:49:39.953Z</time></trkpt><trkpt lat="45.17536087637442" lon="13.752372836684069"><ele>194.0</ele><time>2026-04-12T10:49:40.953Z</time></trkpt><trkpt lat="45.17547458231992" lon="13.752382957126605"><ele>194.0</ele><time>2026-04-12T10:49:41.953Z</time></trkpt><trkpt lat="45.175596444462656" lon="13.752408800765007"><ele>194.0</ele><time>2026-04-12T10:49:42.953Z</time></trkpt><trkpt lat="45.17571888863269" lon="13.75244228316099"><ele>194.75</ele><time>2026-04-12T10:49:43.953Z</time></trkpt><trkpt lat="45.17583811392259" lon="13.752477842652935"><ele>195.5</ele><time>2026-04-12T10:49:44.953Z</time></trkpt><trkpt lat="45.17594899135787" lon="13.75251661587982"><ele>196.25</ele><time>2026-04-12T10:49:45.953Z</time></trkpt><trkpt lat="45.17605406291764" lon="13.752573874813981"><ele>197.0</ele><time>2026-04-12T10:49:46.953Z</time></trkpt><trkpt lat="45.17615625083764" lon="13.75268308073735"><ele>196.5</ele><time>2026-04-12T10:49:47.953Z</time></trkpt><trkpt lat="45.17628083604316" lon="13.75278051707913"><ele>196.0</ele><time>2026-04-12T10:49:48.953Z</time></trkpt><trkpt lat="45.176406791726215" lon="13.75288413086299"><ele>195.5</ele><time>2026-04-12T10:49:49.953Z</time></trkpt><trkpt lat="45.17652587125394" lon="13.752957176663665"><ele>195.0</ele><time>2026-04-12T10:49:50.953Z</time></trkpt><trkpt lat="45.1766238730318" lon="13.753041000718294"><ele>196.25</ele><time>2026-04-12T10:49:51.953Z</time></trkpt><trkpt lat="45.17671856262678" lon="13.753121383394562"><ele>197.5</ele><time>2026-04-12T10:49:52.953Z</time></trkpt><trkpt lat="45.17681833841924" lon="13.753182929826517"><ele>198.75</ele><time>2026-04-12T10:49:53.953Z</time></trkpt><trkpt lat="45.17693297396559" lon="13.753217236208076"><ele>200.0</ele><time>2026-04-12T10:49:54.953Z</time></trkpt><trkpt lat="45.17704772389626" lon="13.753241097565205"><ele>200.0</ele><time>2026-04-12T10:49:55.953Z</time></trkpt><trkpt lat="45.177152120995196" lon="13.753264623778309"><ele>200.0</ele><time>2026-04-12T10:49:56.953Z</time></trkpt><trkpt lat="45.177257098839796" lon="13.753272033041538"><ele>200.0</ele><time>2026-04-12T10:49:57.953Z</time></trkpt><trkpt lat="45.17735758531197" lon="13.753251330161486"><ele>200.0</ele><time>2026-04-12T10:49:58.953Z</time></trkpt><trkpt lat="45.177466036061126" lon="13.753206743427894"><ele>200.0</ele><time>2026-04-12T10:49:59.953Z</time></trkpt><trkpt lat="45.17758667037788" lon="13.753157862457972"><ele>200.5</ele><time>2026-04-12T10:50:00.953Z</time></trkpt><trkpt lat="45.177682234679" lon="13.753143282589146"><ele>201.0</ele><time>2026-04-12T10:50:01.953Z</time></trkpt><trkpt lat="45.177781412793934" lon="13.753189644223704"><ele>201.5</ele><time>2026-04-12T10:50:02.953Z</time></trkpt><trkpt lat="45.17790739166336" lon="13.75321268611733"><ele>202.0</ele><time>2026-04-12T10:50:03.953Z</time></trkpt><trkpt lat="45.17804894120507" lon="13.753266222645573"><ele>202.0</ele><time>2026-04-12T10:50:04.953Z</time></trkpt><trkpt lat="45.178177724870714" lon="13.753309704672706"><ele>202.0</ele><time>2026-04-12T10:50:05.953Z</time></trkpt><trkpt lat="45.178289759295396" lon="13.753345174956404"><ele>202.0</ele><time>2026-04-12T10:50:06.953Z</time></trkpt><trkpt lat="45.17839200467804" lon="13.753387307483962"><ele>202.0</ele><time>2026-04-12T10:50:07.953Z</time></trkpt><trkpt lat="45.17849328172961" lon="13.753447174105004"><ele>201.25</ele><time>2026-04-12T10:50:08.953Z</time></trkpt><trkpt lat="45.178574721587964" lon="13.753576180574525"><ele>200.5</ele><time>2026-04-12T10:50:09.953Z</time></trkpt><trkpt lat="45.17868668700621" lon="13.753658821491657"><ele>199.75</ele><time>2026-04-12T10:50:10.953Z</time></trkpt><trkpt lat="45.178807771423244" lon="13.753732162872778"><ele>199.0</ele><time>2026-04-12T10:50:11.953Z</time></trkpt><trkpt lat="45.178913260186775" lon="13.753880836004205"><ele>199.0</ele><time>2026-04-12T10:50:12.953Z</time></trkpt><trkpt lat="45.17901254976528" lon="13.75402817418174"><ele>199.0</ele><time>2026-04-12T10:50:13.953Z</time></trkpt><trkpt lat="45.17910480895051" lon="13.754176441652751"><ele>199.0</ele><time>2026-04-12T10:50:14.953Z</time></trkpt><trkpt lat="45.17917253147498" lon="13.754335833516954"><ele>199.0</ele><time>2026-04-12T10:50:15.953Z</time></trkpt><trkpt lat="45.17923479893742" lon="13.754514502471926"><ele>200.0</ele><time>2026-04-12T10:50:16.953Z</time></trkpt><trkpt lat="45.179271202235434" lon="13.754718541623738"><ele>201.0</ele><time>2026-04-12T10:50:17.953Z</time></trkpt><trkpt lat="45.179313819018084" lon="13.754949144037214"><ele>202.0</ele><time>2026-04-12T10:50:18.953Z</time></trkpt><trkpt lat="45.17936859893129" lon="13.755203004283517"><ele>203.0</ele><time>2026-04-12T10:50:19.953Z</time></trkpt><trkpt lat="45.17940283302577" lon="13.755436020653493"><ele>204.0</ele><time>2026-04-12T10:50:20.953Z</time></trkpt><trkpt lat="45.1794525133286" lon="13.755649305709008"><ele>205.0</ele><time>2026-04-12T10:50:21.953Z</time></trkpt><trkpt lat="45.17952101568104" lon="13.75587639274115"><ele>205.33333333333331</ele><time>2026-04-12T10:50:22.953Z</time></trkpt><trkpt lat="45.17961082525362" lon="13.756120403970586"><ele>205.66666666666669</ele><time>2026-04-12T10:50:23.953Z</time></trkpt><trkpt lat="45.179700641178414" lon="13.756377768448775"><ele>206.0</ele><time>2026-04-12T10:50:24.953Z</time></trkpt><trkpt lat="45.17977183585222" lon="13.756601548675011"><ele>206.0</ele><time>2026-04-12T10:50:25.953Z</time></trkpt><trkpt lat="45.1798333122887" lon="13.756772882284507"><ele>206.0</ele><time>2026-04-12T10:50:26.953Z</time></trkpt><trkpt lat="45.179897782383684" lon="13.7569085656677"><ele>206.0</ele><time>2026-04-12T10:50:27.953Z</time></trkpt><trkpt lat="45.17997734124449" lon="13.757036217590528"><ele>206.0</ele><time>2026-04-12T10:50:28.953Z</time></trkpt><trkpt lat="45.180069922782444" lon="13.757160049829043"><ele>206.75</ele><time>2026-04-12T10:50:29.953Z</time></trkpt><trkpt lat="45.18014372880168" lon="13.7572918212828"><ele>207.5</ele><time>2026-04-12T10:50:30.953Z</time></trkpt><trkpt lat="45.18015919920628" lon="13.757461623364744"><ele>208.25</ele><time>2026-04-12T10:50:31.953Z</time></trkpt><trkpt lat="45.18019388569436" lon="13.75763750375215"><ele>209.0</ele><time>2026-04-12T10:50:32.953Z</time></trkpt><trkpt lat="45.18024911976449" lon="13.757823408808935"><ele>210.0</ele><time>2026-04-12T10:50:33.953Z</time></trkpt><trkpt lat="45.18029757563419" lon="13.758010713002518"><ele>211.0</ele><time>2026-04-12T10:50:34.953Z</time></trkpt><trkpt lat="45.1803596674729" lon="13.758195205203535"><ele>212.0</ele><time>2026-04-12T10:50:35.953Z</time></trkpt><trkpt lat="45.18044223564509" lon="13.758378032518696"><ele>213.0</ele><time>2026-04-12T10:50:36.953Z</time></trkpt><trkpt lat="45.18053628951398" lon="13.758572410051762"><ele>214.33333333333331</ele><time>2026-04-12T10:50:37.953Z</time></trkpt><trkpt lat="45.180653591744175" lon="13.758763994422312"><ele>215.66666666666666</ele><time>2026-04-12T10:50:38.953Z</time></trkpt><trkpt lat="45.18077960919053" lon="13.7589477475074"><ele>217.0</ele><time>2026-04-12T10:50:39.953Z</time></trkpt><trkpt lat="45.18088798002105" lon="13.759113647706085"><ele>217.5</ele><time>2026-04-12T10:50:40.953Z</time></trkpt><trkpt lat="45.1809763282967" lon="13.759268258450373"><ele>218.0</ele><time>2026-04-12T10:50:41.953Z</time></trkpt><trkpt lat="45.181039806989105" lon="13.759453291999748"><ele>218.5</ele><time>2026-04-12T10:50:42.953Z</time></trkpt><trkpt lat="45.18110385568544" lon="13.75964897530398"><ele>219.0</ele><time>2026-04-12T10:50:43.953Z</time></trkpt><trkpt lat="45.181169463587075" lon="13.75985626965944"><ele>219.66666666666669</ele><time>2026-04-12T10:50:44.953Z</time></trkpt><trkpt lat="45.181247028882055" lon="13.760060666635516"><ele>220.33333333333334</ele><time>2026-04-12T10:50:45.953Z</time></trkpt><trkpt lat="45.181312845344976" lon="13.76025404982277"><ele>221.0</ele><time>2026-04-12T10:50:46.953Z</time></trkpt><trkpt lat="45.18137934306769" lon="13.76042438497671"><ele>221.5</ele><time>2026-04-12T10:50:47.953Z</time></trkpt><trkpt lat="45.18145179904409" lon="13.76056513893584"><ele>222.0</ele><time>2026-04-12T10:50:48.953Z</time></trkpt><trkpt lat="45.181525074617475" lon="13.76069735873434"><ele>222.5</ele><time>2026-04-12T10:50:49.953Z</time></trkpt><trkpt lat="45.18156594933042" lon="13.760845972108589"><ele>223.0</ele><time>2026-04-12T10:50:50.953Z</time></trkpt><trkpt lat="45.18158361061765" lon="13.760991336397533"><ele>223.25</ele><time>2026-04-12T10:50:51.953Z</time></trkpt><trkpt lat="45.18160366118277" lon="13.761182707201794"><ele>223.5</ele><time>2026-04-12T10:50:52.953Z</time></trkpt><trkpt lat="45.181611810828606" lon="13.761388468632619"><ele>223.75</ele><time>2026-04-12T10:50:53.953Z</time></trkpt><trkpt lat="45.18161010310246" lon="13.761591171685168"><ele>224.0</ele><time>2026-04-12T10:50:54.953Z</time></trkpt><trkpt lat="45.18161327101519" lon="13.761779312690148"><ele>224.5</ele><time>2026-04-12T10:50:55.953Z</time></trkpt><trkpt lat="45.18163315822981" lon="13.761951526500127"><ele>225.0</ele><time>2026-04-12T10:50:56.953Z</time></trkpt><trkpt lat="45.18166208464268" lon="13.762121957646402"><ele>225.5</ele><time>2026-04-12T10:50:57.953Z</time></trkpt><trkpt lat="45.18170813945716" lon="13.762284201261398"><ele>226.0</ele><time>2026-04-12T10:50:58.953Z</time></trkpt><trkpt lat="45.18177650428614" lon="13.762461432877602"><ele>226.0</ele><time>2026-04-12T10:50:59.953Z</time></trkpt><trkpt lat="45.18186888043925" lon="13.762656647355987"><ele>226.0</ele><time>2026-04-12T10:51:00.953Z</time></trkpt><trkpt lat="45.181975358332785" lon="13.762846886798481"><ele>226.0</ele><time>2026-04-12T10:51:01.952Z</time></trkpt><trkpt lat="45.18209387525679" lon="13.763053461046667"><ele>226.66666666666666</ele><time>2026-04-12T10:51:02.952Z</time></trkpt><trkpt lat="45.18221049060484" lon="13.763264104854217"><ele>227.33333333333331</ele><time>2026-04-12T10:51:03.952Z</time></trkpt><trkpt lat="45.182298597497464" lon="13.763520889844543"><ele>228.0</ele><time>2026-04-12T10:51:04.952Z</time></trkpt><trkpt lat="45.18239349120279" lon="13.763790138012254"><ele>228.66666666666669</ele><time>2026-04-12T10:51:05.952Z</time></trkpt><trkpt lat="45.18248280046565" lon="13.764021544044072"><ele>229.33333333333334</ele><time>2026-04-12T10:51:06.952Z</time></trkpt><trkpt lat="45.18257158253749" lon="13.764225908671348"><ele>230.0</ele><time>2026-04-12T10:51:07.951Z</time></trkpt><trkpt lat="45.18266960162475" lon="13.764428209582004"><ele>231.0</ele><time>2026-04-12T10:51:08.952Z</time></trkpt><trkpt lat="45.18277514006376" lon="13.764639805053328"><ele>232.0</ele><time>2026-04-12T10:51:09.952Z</time></trkpt><trkpt lat="45.18289695618972" lon="13.764823351411495"><ele>233.0</ele><time>2026-04-12T10:51:10.951Z</time></trkpt><trkpt lat="45.183008532517896" lon="13.764999472458861"><ele>233.0</ele><time>2026-04-12T10:51:11.951Z</time></trkpt><trkpt lat="45.18310469804056" lon="13.765171891028132"><ele>233.0</ele><time>2026-04-12T10:51:12.951Z</time></trkpt><trkpt lat="45.18318935532294" lon="13.765336359298944"><ele>233.0</ele><time>2026-04-12T10:51:13.952Z</time></trkpt><trkpt lat="45.183263980963304" lon="13.765495876202094"><ele>233.0</ele><time>2026-04-12T10:51:14.952Z</time></trkpt><trkpt lat="45.18332417652244" lon="13.76563763576804"><ele>233.5</ele><time>2026-04-12T10:51:15.952Z</time></trkpt><trkpt lat="45.18336045086169" lon="13.765799246962846"><ele>234.0</ele><time>2026-04-12T10:51:16.952Z</time></trkpt><trkpt lat="45.18344108403556" lon="13.76595430419777"><ele>234.5</ele><time>2026-04-12T10:51:17.952Z</time></trkpt><trkpt lat="45.1835087860194" lon="13.76613422376902"><ele>235.0</ele><time>2026-04-12T10:51:18.952Z</time></trkpt><trkpt lat="45.183580237063076" lon="13.766322058325082"><ele>235.5</ele><time>2026-04-12T10:51:19.952Z</time></trkpt><trkpt lat="45.18363666474774" lon="13.76651199171255"><ele>236.0</ele><time>2026-04-12T10:51:20.952Z</time></trkpt><trkpt lat="45.18367232592681" lon="13.766696006506319"><ele>236.5</ele><time>2026-04-12T10:51:21.952Z</time></trkpt><trkpt lat="45.183699999873134" lon="13.766907081785686"><ele>237.0</ele><time>2026-04-12T10:51:22.952Z</time></trkpt><trkpt lat="45.18370356731877" lon="13.767161766203435"><ele>237.0</ele><time>2026-04-12T10:51:23.952Z</time></trkpt><trkpt lat="45.18373858034463" lon="13.767433555979235"><ele>237.0</ele><time>2026-04-12T10:51:24.952Z</time></trkpt><trkpt lat="45.18377360360083" lon="13.767705062140358"><ele>237.0</ele><time>2026-04-12T10:51:25.952Z</time></trkpt><trkpt lat="45.18381194630318" lon="13.767929389297835"><ele>236.75</ele><time>2026-04-12T10:51:26.952Z</time></trkpt><trkpt lat="45.18384262794443" lon="13.768107119422872"><ele>236.5</ele><time>2026-04-12T10:51:27.952Z</time></trkpt><trkpt lat="45.183863517535514" lon="13.768287419961235"><ele>236.25</ele><time>2026-04-12T10:51:28.952Z</time></trkpt><trkpt lat="45.18385768369629" lon="13.768451654447713"><ele>236.0</ele><time>2026-04-12T10:51:29.952Z</time></trkpt><trkpt lat="45.18383078539386" lon="13.7686431666322"><ele>236.0</ele><time>2026-04-12T10:51:30.952Z</time></trkpt><trkpt lat="45.183808925851274" lon="13.768879876986144"><ele>236.0</ele><time>2026-04-12T10:51:31.952Z</time></trkpt><trkpt lat="45.18378283142053" lon="13.769064575510454"><ele>236.0</ele><time>2026-04-12T10:51:32.952Z</time></trkpt><trkpt lat="45.18377778909237" lon="13.76922028660455"><ele>236.0</ele><time>2026-04-12T10:51:33.952Z</time></trkpt><trkpt lat="45.183803217145424" lon="13.769363710390794"><ele>236.0</ele><time>2026-04-12T10:51:34.952Z</time></trkpt><trkpt lat="45.18385924292247" lon="13.769499041891354"><ele>236.0</ele><time>2026-04-12T10:51:35.952Z</time></trkpt><trkpt lat="45.18392568151711" lon="13.769601349342741"><ele>236.0</ele><time>2026-04-12T10:51:36.952Z</time></trkpt><trkpt lat="45.18401816639992" lon="13.769701754464874"><ele>236.0</ele><time>2026-04-12T10:51:37.952Z</time></trkpt><trkpt lat="45.184124715862986" lon="13.76981884338738"><ele>239.0</ele><time>2026-04-12T10:51:38.952Z</time></trkpt><trkpt lat="45.18426171576816" lon="13.76998331267089"><ele>242.0</ele><time>2026-04-12T10:51:39.952Z</time></trkpt><trkpt lat="45.18440219185102" lon="13.770155741591662"><ele>245.0</ele><time>2026-04-12T10:51:40.952Z</time></trkpt><trkpt lat="45.18452995309388" lon="13.770307240164477"><ele>245.0</ele><time>2026-04-12T10:51:41.952Z</time></trkpt><trkpt lat="45.18466580612728" lon="13.770451328338412"><ele>245.0</ele><time>2026-04-12T10:51:42.952Z</time></trkpt><trkpt lat="45.18481459497423" lon="13.770595659444808"><ele>245.0</ele><time>2026-04-12T10:51:43.952Z</time></trkpt><trkpt lat="45.18494749108902" lon="13.770725619302587"><ele>246.25</ele><time>2026-04-12T10:51:44.952Z</time></trkpt><trkpt lat="45.185059850862174" lon="13.77085341261287"><ele>247.5</ele><time>2026-04-12T10:51:45.952Z</time></trkpt><trkpt lat="45.185156233778045" lon="13.770979886305229"><ele>248.75</ele><time>2026-04-12T10:51:46.952Z</time></trkpt><trkpt lat="45.18525243362681" lon="13.771091869061209"><ele>250.0</ele><time>2026-04-12T10:51:47.952Z</time></trkpt><trkpt lat="45.18535066868397" lon="13.771183770644807"><ele>250.0</ele><time>2026-04-12T10:51:48.952Z</time></trkpt><trkpt lat="45.185468991519855" lon="13.77125630432079"><ele>250.0</ele><time>2026-04-12T10:51:49.952Z</time></trkpt><trkpt lat="45.18559525050559" lon="13.771324334125152"><ele>250.0</ele><time>2026-04-12T10:51:50.952Z</time></trkpt><trkpt lat="45.18571728699692" lon="13.771396856056944"><ele>250.0</ele><time>2026-04-12T10:51:51.952Z</time></trkpt><trkpt lat="45.185834547496235" lon="13.77148496341866"><ele>252.0</ele><time>2026-04-12T10:51:52.952Z</time></trkpt><trkpt lat="45.18595960011813" lon="13.7715755630447"><ele>254.0</ele><time>2026-04-12T10:51:53.952Z</time></trkpt><trkpt lat="45.18607039693543" lon="13.771661241030232"><ele>256.0</ele><time>2026-04-12T10:51:54.952Z</time></trkpt><trkpt lat="45.186176469640785" lon="13.771752336153956"><ele>258.0</ele><time>2026-04-12T10:51:55.952Z</time></trkpt><trkpt lat="45.186271093769555" lon="13.771852466930206"><ele>257.75</ele><time>2026-04-12T10:51:56.952Z</time></trkpt><trkpt lat="45.18635765382208" lon="13.771988789357037"><ele>257.5</ele><time>2026-04-12T10:51:57.952Z</time></trkpt><trkpt lat="45.18644768244138" lon="13.772149269681279"><ele>257.25</ele><time>2026-04-12T10:51:58.952Z</time></trkpt><trkpt lat="45.186541403294804" lon="13.772291780955758"><ele>257.0</ele><time>2026-04-12T10:51:59.952Z</time></trkpt><trkpt lat="45.18664248488766" lon="13.772398454931697"><ele>258.75</ele><time>2026-04-12T10:52:00.952Z</time></trkpt><trkpt lat="45.186760585053456" lon="13.772486637763535"><ele>260.5</ele><time>2026-04-12T10:52:01.952Z</time></trkpt><trkpt lat="45.186885039061494" lon="13.772567871751622"><ele>262.25</ele><time>2026-04-12T10:52:02.952Z</time></trkpt><trkpt lat="45.18702696605194" lon="13.7726317281023"><ele>264.0</ele><time>2026-04-12T10:52:03.952Z</time></trkpt><trkpt lat="45.187155825850105" lon="13.772725164221761"><ele>264.0</ele><time>2026-04-12T10:52:04.952Z</time></trkpt><trkpt lat="45.187265680331514" lon="13.772828131899363"><ele>264.0</ele><time>2026-04-12T10:52:05.952Z</time></trkpt><trkpt lat="45.187342624421134" lon="13.772970859727627"><ele>264.0</ele><time>2026-04-12T10:52:06.952Z</time></trkpt><trkpt lat="45.187422879116276" lon="13.77313632351188"><ele>264.0</ele><time>2026-04-12T10:52:07.952Z</time></trkpt><trkpt lat="45.18751939157504" lon="13.77330242179833"><ele>265.25</ele><time>2026-04-12T10:52:08.952Z</time></trkpt><trkpt lat="45.18761631842673" lon="13.773489976894929"><ele>266.5</ele><time>2026-04-12T10:52:09.952Z</time></trkpt><trkpt lat="45.18770747991917" lon="13.77365339901613"><ele>267.75</ele><time>2026-04-12T10:52:10.952Z</time></trkpt><trkpt lat="45.187806108615064" lon="13.77378671916408"><ele>269.0</ele><time>2026-04-12T10:52:11.952Z</time></trkpt><trkpt lat="45.18790194970499" lon="13.773911402099769"><ele>269.0</ele><time>2026-04-12T10:52:12.952Z</time></trkpt><trkpt lat="45.187994882049786" lon="13.7740552079257"><ele>269.0</ele><time>2026-04-12T10:52:13.952Z</time></trkpt><trkpt lat="45.188079770510356" lon="13.774206207107278"><ele>269.0</ele><time>2026-04-12T10:52:14.952Z</time></trkpt><trkpt lat="45.18816412080006" lon="13.774360027092824"><ele>269.0</ele><time>2026-04-12T10:52:15.952Z</time></trkpt><trkpt lat="45.18826175526056" lon="13.774501854281247"><ele>270.75</ele><time>2026-04-12T10:52:16.952Z</time></trkpt><trkpt lat="45.188369348891655" lon="13.77463988342497"><ele>272.5</ele><time>2026-04-12T10:52:17.952Z</time></trkpt><trkpt lat="45.188474562549146" lon="13.77477546159933"><ele>274.25</ele><time>2026-04-12T10:52:18.952Z</time></trkpt><trkpt lat="45.18855786198873" lon="13.774891693399306"><ele>276.0</ele><time>2026-04-12T10:52:19.952Z</time></trkpt><trkpt lat="45.188620353912555" lon="13.774980944582806"><ele>276.0</ele><time>2026-04-12T10:52:20.952Z</time></trkpt><trkpt lat="45.18867325143101" lon="13.775050315884465"><ele>276.0</ele><time>2026-04-12T10:52:21.952Z</time></trkpt><trkpt lat="45.188733108832054" lon="13.77511108844681"><ele>276.0</ele><time>2026-04-12T10:52:22.952Z</time></trkpt><trkpt lat="45.18880398063132" lon="13.775151381468733"><ele>276.0</ele><time>2026-04-12T10:52:23.952Z</time></trkpt><trkpt lat="45.1888927423751" lon="13.775195648683866"><ele>276.0</ele><time>2026-04-12T10:52:24.952Z</time></trkpt><trkpt lat="45.188972915294464" lon="13.775242159290537"><ele>276.0</ele><time>2026-04-12T10:52:25.952Z</time></trkpt><trkpt lat="45.18904216149262" lon="13.775291970249144"><ele>276.1666666666667</ele><time>2026-04-12T10:52:26.952Z</time></trkpt><trkpt lat="45.189111155431334" lon="13.775327795123506"><ele>276.3333333333333</ele><time>2026-04-12T10:52:27.952Z</time></trkpt><trkpt lat="45.189179926553" lon="13.775344822085769"><ele>276.5</ele><time>2026-04-12T10:52:28.952Z</time></trkpt><trkpt lat="45.189246081104436" lon="13.775342388066006"><ele>276.66666666666663</ele><time>2026-04-12T10:52:29.952Z</time></trkpt><trkpt lat="45.18931121787659" lon="13.775354475797773"><ele>276.8333333333333</ele><time>2026-04-12T10:52:30.952Z</time></trkpt><trkpt lat="45.18940739219452" lon="13.775482926357778"><ele>277.0</ele><time>2026-04-12T10:52:32.952Z</time></trkpt><trkpt lat="45.18945181325338" lon="13.775585349896774"><ele>277.0</ele><time>2026-04-12T10:52:33.952Z</time></trkpt><trkpt lat="45.18949489270777" lon="13.775724083516705"><ele>277.0</ele><time>2026-04-12T10:52:34.952Z</time></trkpt><trkpt lat="45.18953212957534" lon="13.775875477219232"><ele>277.0</ele><time>2026-04-12T10:52:35.952Z</time></trkpt><trkpt lat="45.189568093596435" lon="13.775999553283835"><ele>277.0</ele><time>2026-04-12T10:52:36.952Z</time></trkpt><trkpt lat="45.18961219678823" lon="13.77609949004771"><ele>277.0</ele><time>2026-04-12T10:52:37.953Z</time></trkpt><trkpt lat="45.18966253550731" lon="13.776174222193594"><ele>276.8</ele><time>2026-04-12T10:52:38.953Z</time></trkpt><trkpt lat="45.189736904924345" lon="13.776241033202911"><ele>276.6</ele><time>2026-04-12T10:52:39.953Z</time></trkpt><trkpt lat="45.18982452816477" lon="13.776292163788721"><ele>276.40000000000003</ele><time>2026-04-12T10:52:40.953Z</time></trkpt><trkpt lat="45.189918698167695" lon="13.776333508113698"><ele>276.2</ele><time>2026-04-12T10:52:41.953Z</time></trkpt><trkpt lat="45.190031303328" lon="13.776379874854335"><ele>276.0</ele><time>2026-04-12T10:52:42.953Z</time></trkpt><trkpt lat="45.190154510078685" lon="13.776439911929586"><ele>276.75</ele><time>2026-04-12T10:52:43.953Z</time></trkpt><trkpt lat="45.190289304941054" lon="13.776504460667478"><ele>277.5</ele><time>2026-04-12T10:52:44.953Z</time></trkpt><trkpt lat="45.190409110409696" lon="13.776576056732674"><ele>278.25</ele><time>2026-04-12T10:52:45.953Z</time></trkpt><trkpt lat="45.19051474054372" lon="13.776650497874778"><ele>279.0</ele><time>2026-04-12T10:52:46.953Z</time></trkpt><trkpt lat="45.19061630689699" lon="13.776709832987926"><ele>279.0</ele><time>2026-04-12T10:52:47.953Z</time></trkpt><trkpt lat="45.19072448047681" lon="13.776753461650632"><ele>279.0</ele><time>2026-04-12T10:52:48.953Z</time></trkpt><trkpt lat="45.19083911344127" lon="13.776763921374156"><ele>279.0</ele><time>2026-04-12T10:52:49.953Z</time></trkpt><trkpt lat="45.190959725945284" lon="13.776742016773797"><ele>279.0</ele><time>2026-04-12T10:52:50.953Z</time></trkpt><trkpt lat="45.1910807040864" lon="13.776728478054215"><ele>279.0</ele><time>2026-04-12T10:52:51.953Z</time></trkpt><trkpt lat="45.191193355543035" lon="13.776745790423766"><ele>279.0</ele><time>2026-04-12T10:52:52.953Z</time></trkpt><trkpt lat="45.19129604835084" lon="13.776776702378223"><ele>279.0</ele><time>2026-04-12T10:52:53.954Z</time></trkpt><trkpt lat="45.19139456828006" lon="13.776777990020188"><ele>279.0</ele><time>2026-04-12T10:52:54.954Z</time></trkpt><trkpt lat="45.191499222643245" lon="13.776739877017254"><ele>279.0</ele><time>2026-04-12T10:52:55.954Z</time></trkpt><trkpt lat="45.19160580431402" lon="13.776685544126481"><ele>279.59999999999997</ele><time>2026-04-12T10:52:56.954Z</time></trkpt><trkpt lat="45.19170724718164" lon="13.776634056511453"><ele>280.2</ele><time>2026-04-12T10:52:57.954Z</time></trkpt><trkpt lat="45.191796689958245" lon="13.776586434375615"><ele>280.79999999999995</ele><time>2026-04-12T10:52:58.954Z</time></trkpt><trkpt lat="45.19187785462956" lon="13.776541922461222"><ele>281.4</ele><time>2026-04-12T10:52:59.954Z</time></trkpt><trkpt lat="45.19196813631014" lon="13.776506233122529"><ele>282.0</ele><time>2026-04-12T10:53:00.954Z</time></trkpt><trkpt lat="45.19206398324862" lon="13.776471787110562"><ele>282.0</ele><time>2026-04-12T10:53:01.954Z</time></trkpt><trkpt lat="45.192167120312476" lon="13.77648780415512"><ele>282.0</ele><time>2026-04-12T10:53:02.954Z</time></trkpt><trkpt lat="45.19226673285366" lon="13.77650843189895"><ele>282.0</ele><time>2026-04-12T10:53:03.954Z</time></trkpt><trkpt lat="45.19238060447338" lon="13.776515880522098"><ele>282.0</ele><time>2026-04-12T10:53:04.954Z</time></trkpt><trkpt lat="45.192503644845516" lon="13.776541738432334"><ele>282.0</ele><time>2026-04-12T10:53:05.954Z</time></trkpt><trkpt lat="45.19265129436354" lon="13.776544796930592"><ele>282.25</ele><time>2026-04-12T10:53:06.954Z</time></trkpt><trkpt lat="45.192785927301635" lon="13.776534592738274"><ele>282.5</ele><time>2026-04-12T10:53:07.953Z</time></trkpt><trkpt lat="45.192902022138234" lon="13.776516249644148"><ele>282.75</ele><time>2026-04-12T10:53:08.953Z</time></trkpt><trkpt lat="45.19301477847734" lon="13.776495240988583"><ele>283.0</ele><time>2026-04-12T10:53:09.953Z</time></trkpt><trkpt lat="45.1931307350877" lon="13.776447196312166"><ele>283.2</ele><time>2026-04-12T10:53:10.953Z</time></trkpt><trkpt lat="45.19325050224871" lon="13.776389047707283"><ele>283.4</ele><time>2026-04-12T10:53:11.953Z</time></trkpt><trkpt lat="45.19334892353262" lon="13.776341408926676"><ele>283.59999999999997</ele><time>2026-04-12T10:53:12.953Z</time></trkpt><trkpt lat="45.19342602734957" lon="13.776330898391683"><ele>283.8</ele><time>2026-04-12T10:53:13.953Z</time></trkpt><trkpt lat="45.19351548268695" lon="13.776307419903208"><ele>284.0</ele><time>2026-04-12T10:53:15.953Z</time></trkpt><trkpt lat="45.19359296713465" lon="13.776455932771604"><ele>284.0</ele><time>2026-04-12T10:53:17.953Z</time></trkpt><trkpt lat="45.193591377370446" lon="13.776563244532868"><ele>284.0</ele><time>2026-04-12T10:53:18.953Z</time></trkpt><trkpt lat="45.19357127424466" lon="13.77668166065289"><ele>284.0</ele><time>2026-04-12T10:53:19.953Z</time></trkpt><trkpt lat="45.193624355472274" lon="13.776815793821138"><ele>284.0</ele><time>2026-04-12T10:53:21.953Z</time></trkpt><trkpt lat="45.19368573189962" lon="13.776840174712973"><ele>284.0</ele><time>2026-04-12T10:53:22.953Z</time></trkpt><trkpt lat="45.19377088764351" lon="13.77682373350141"><ele>284.0</ele><time>2026-04-12T10:53:23.953Z</time></trkpt><trkpt lat="45.19388768633232" lon="13.776834963013995"><ele>283.0</ele><time>2026-04-12T10:53:24.953Z</time></trkpt><trkpt lat="45.194013262425315" lon="13.77682308302542"><ele>282.0</ele><time>2026-04-12T10:53:25.953Z</time></trkpt><trkpt lat="45.19413359065105" lon="13.776812537214214"><ele>281.0</ele><time>2026-04-12T10:53:26.953Z</time></trkpt><trkpt lat="45.19425292336954" lon="13.77679991194535"><ele>280.0</ele><time>2026-04-12T10:53:27.953Z</time></trkpt><trkpt lat="45.19438051044618" lon="13.776782336623583"><ele>280.0</ele><time>2026-04-12T10:53:28.953Z</time></trkpt><trkpt lat="45.19450948499221" lon="13.776766957168451"><ele>280.0</ele><time>2026-04-12T10:53:29.953Z</time></trkpt><trkpt lat="45.19463698498372" lon="13.776748498501592"><ele>280.0</ele><time>2026-04-12T10:53:30.953Z</time></trkpt><trkpt lat="45.19475836344158" lon="13.776740111979162"><ele>280.0</ele><time>2026-04-12T10:53:31.953Z</time></trkpt><trkpt lat="45.19487340016393" lon="13.776737636018611"><ele>279.6</ele><time>2026-04-12T10:53:32.953Z</time></trkpt><trkpt lat="45.194981740944876" lon="13.776731143722499"><ele>279.2</ele><time>2026-04-12T10:53:33.953Z</time></trkpt><trkpt lat="45.19507973327784" lon="13.776740767809352"><ele>278.8</ele><time>2026-04-12T10:53:34.953Z</time></trkpt><trkpt lat="45.195167342989755" lon="13.776708660801075"><ele>278.4</ele><time>2026-04-12T10:53:35.953Z</time></trkpt><trkpt lat="45.19523557534625" lon="13.776587231999885"><ele>278.0</ele><time>2026-04-12T10:53:36.953Z</time></trkpt><trkpt lat="45.1953114971913" lon="13.776492845589942"><ele>278.0</ele><time>2026-04-12T10:53:37.953Z</time></trkpt><trkpt lat="45.19539668724013" lon="13.776431544052802"><ele>278.0</ele><time>2026-04-12T10:53:38.953Z</time></trkpt><trkpt lat="45.195460119648224" lon="13.77638193809769"><ele>278.0</ele><time>2026-04-12T10:53:39.953Z</time></trkpt><trkpt lat="45.19553280653858" lon="13.77635109311323"><ele>278.0</ele><time>2026-04-12T10:53:40.953Z</time></trkpt><trkpt lat="45.19563682903639" lon="13.77630435731274"><ele>278.0</ele><time>2026-04-12T10:53:41.953Z</time></trkpt><trkpt lat="45.195744505171575" lon="13.776266115223377"><ele>278.0</ele><time>2026-04-12T10:53:42.953Z</time></trkpt><trkpt lat="45.19585943586386" lon="13.77621156650106"><ele>278.0</ele><time>2026-04-12T10:53:43.953Z</time></trkpt><trkpt lat="45.19598514518274" lon="13.776153927032336"><ele>278.0</ele><time>2026-04-12T10:53:44.953Z</time></trkpt><trkpt lat="45.19612188791503" lon="13.776083679561951"><ele>278.0</ele><time>2026-04-12T10:53:45.953Z</time></trkpt><trkpt lat="45.1962699641725" lon="13.776016427981013"><ele>278.0</ele><time>2026-04-12T10:53:46.953Z</time></trkpt><trkpt lat="45.196408696581024" lon="13.775946955895238"><ele>278.0</ele><time>2026-04-12T10:53:47.953Z</time></trkpt><trkpt lat="45.1965448053263" lon="13.775881492054044"><ele>278.0</ele><time>2026-04-12T10:53:48.953Z</time></trkpt><trkpt lat="45.19668093941342" lon="13.7758234607292"><ele>278.0</ele><time>2026-04-12T10:53:49.953Z</time></trkpt><trkpt lat="45.19681087003476" lon="13.775773349682945"><ele>277.4</ele><time>2026-04-12T10:53:50.953Z</time></trkpt><trkpt lat="45.19693444717772" lon="13.775745715354795"><ele>276.8</ele><time>2026-04-12T10:53:51.953Z</time></trkpt><trkpt lat="45.19705341707185" lon="13.775732088486393"><ele>276.2</ele><time>2026-04-12T10:53:52.953Z</time></trkpt><trkpt lat="45.19715693462561" lon="13.77574755984751"><ele>275.6</ele><time>2026-04-12T10:53:53.953Z</time></trkpt><trkpt lat="45.19724875095096" lon="13.77578429692483"><ele>275.0</ele><time>2026-04-12T10:53:54.953Z</time></trkpt><trkpt lat="45.19736248839517" lon="13.775816716841222"><ele>276.0</ele><time>2026-04-12T10:53:55.953Z</time></trkpt><trkpt lat="45.1974682942828" lon="13.77583546207995"><ele>277.0</ele><time>2026-04-12T10:53:56.953Z</time></trkpt><trkpt lat="45.197569125522264" lon="13.77583554220475"><ele>278.0</ele><time>2026-04-12T10:53:57.953Z</time></trkpt><trkpt lat="45.19763844932712" lon="13.775809360388125"><ele>279.0</ele><time>2026-04-12T10:53:58.953Z</time></trkpt><trkpt lat="45.19770770273646" lon="13.775773533104221"><ele>280.0</ele><time>2026-04-12T10:53:59.953Z</time></trkpt><trkpt lat="45.19778606681181" lon="13.775713712904485"><ele>281.0</ele><time>2026-04-12T10:54:00.953Z</time></trkpt><trkpt lat="45.197876161302645" lon="13.775636806859854"><ele>281.0</ele><time>2026-04-12T10:54:01.953Z</time></trkpt><trkpt lat="45.19797728250529" lon="13.775573335757489"><ele>281.0</ele><time>2026-04-12T10:54:02.953Z</time></trkpt><trkpt lat="45.19809773766009" lon="13.775524100321825"><ele>281.0</ele><time>2026-04-12T10:54:03.953Z</time></trkpt><trkpt lat="45.19821312428323" lon="13.775481060272957"><ele>281.0</ele><time>2026-04-12T10:54:04.953Z</time></trkpt><trkpt lat="45.198314794805604" lon="13.77541609857604"><ele>283.25</ele><time>2026-04-12T10:54:05.953Z</time></trkpt><trkpt lat="45.19841442959353" lon="13.775334253604575"><ele>285.5</ele><time>2026-04-12T10:54:06.953Z</time></trkpt><trkpt lat="45.198517825938815" lon="13.775246723049683"><ele>287.75</ele><time>2026-04-12T10:54:07.953Z</time></trkpt><trkpt lat="45.19862156314473" lon="13.775150668131458"><ele>290.0</ele><time>2026-04-12T10:54:08.953Z</time></trkpt><trkpt lat="45.19871558731806" lon="13.775056812299146"><ele>290.0</ele><time>2026-04-12T10:54:09.953Z</time></trkpt><trkpt lat="45.19879679781447" lon="13.774960841921066"><ele>290.0</ele><time>2026-04-12T10:54:10.953Z</time></trkpt><trkpt lat="45.19887600537685" lon="13.774850744298517"><ele>290.0</ele><time>2026-04-12T10:54:11.953Z</time></trkpt><trkpt lat="45.198959776012856" lon="13.774773515865387"><ele>290.0</ele><time>2026-04-12T10:54:12.953Z</time></trkpt><trkpt lat="45.19905898768008" lon="13.77471248010036"><ele>290.0</ele><time>2026-04-12T10:54:13.953Z</time></trkpt><trkpt lat="45.19914895272413" lon="13.77470078816825"><ele>290.6</ele><time>2026-04-12T10:54:14.953Z</time></trkpt><trkpt lat="45.19926343176496" lon="13.77468820666814"><ele>291.2</ele><time>2026-04-12T10:54:16.953Z</time></trkpt><trkpt lat="45.19930059984199" lon="13.77482224355441"><ele>291.8</ele><time>2026-04-12T10:54:22.953Z</time></trkpt><trkpt lat="45.19929830257148" lon="13.774940448500335"><ele>292.4</ele><time>2026-04-12T10:54:25.953Z</time></trkpt><trkpt lat="45.199361274400026" lon="13.775027921706547"><ele>293.0</ele><time>2026-04-12T10:54:28.953Z</time></trkpt><trkpt lat="45.199411636766854" lon="13.775106800288732"><ele>293.0</ele><time>2026-04-12T10:54:31.953Z</time></trkpt><trkpt lat="45.19935002833102" lon="13.775156867416236"><ele>293.0</ele><time>2026-04-12T10:54:36.953Z</time></trkpt><trkpt lat="45.19930865770552" lon="13.77508036756929"><ele>293.0</ele><time>2026-04-12T10:54:39.953Z</time></trkpt><trkpt lat="45.19928863235636" lon="13.774969987442265"><ele>293.0</ele><time>2026-04-12T10:54:42.953Z</time></trkpt><trkpt lat="45.199290345044616" lon="13.774826349237943"><ele>293.0</ele><time>2026-04-12T10:54:44.954Z</time></trkpt><trkpt lat="45.199328192415216" lon="13.774708453784621"><ele>293.0</ele><time>2026-04-12T10:54:46.954Z</time></trkpt><trkpt lat="45.199378797145606" lon="13.774592093812979"><ele>293.0</ele><time>2026-04-12T10:54:48.954Z</time></trkpt><trkpt lat="45.19940223375367" lon="13.774489214417162"><ele>293.0</ele><time>2026-04-12T10:54:50.954Z</time></trkpt><trkpt lat="45.19940500591761" lon="13.774362494089743"><ele>293.0</ele><time>2026-04-12T10:54:52.954Z</time></trkpt><trkpt lat="45.19937094417483" lon="13.774224524274622"><ele>293.0</ele><time>2026-04-12T10:54:54.954Z</time></trkpt><trkpt lat="45.19931632053483" lon="13.774151879228627"><ele>293.0</ele><time>2026-04-12T10:54:56.954Z</time></trkpt><trkpt lat="45.19925431459682" lon="13.774072986371333"><ele>293.0</ele><time>2026-04-12T10:54:59.954Z</time></trkpt><trkpt lat="45.19924314375187" lon="13.774167933504403"><ele>293.0</ele><time>2026-04-12T10:55:04.954Z</time></trkpt><trkpt lat="45.19933135900402" lon="13.774218074375765"><ele>293.0</ele><time>2026-04-12T10:55:06.954Z</time></trkpt><trkpt lat="45.19938526867537" lon="13.774310516224483"><ele>293.0</ele><time>2026-04-12T10:55:08.954Z</time></trkpt><trkpt lat="45.19938894146449" lon="13.774437622798215"><ele>293.0</ele><time>2026-04-12T10:55:10.954Z</time></trkpt><trkpt lat="45.19945122984276" lon="13.774490284255329"><ele>293.0</ele><time>2026-04-12T10:55:13.953Z</time></trkpt><trkpt lat="45.19954912288632" lon="13.774448187969478"><ele>293.0</ele><time>2026-04-12T10:55:16.954Z</time></trkpt><trkpt lat="45.19966509212232" lon="13.774417084481549"><ele>293.0</ele><time>2026-04-12T10:55:18.953Z</time></trkpt><trkpt lat="45.19974475938225" lon="13.774419853151613"><ele>293.0</ele><time>2026-04-12T10:55:20.953Z</time></trkpt><trkpt lat="45.199810599846636" lon="13.774431622114067"><ele>293.0</ele><time>2026-04-12T10:55:23.953Z</time></trkpt><trkpt lat="45.19988047647981" lon="13.774415836704808"><ele>293.0</ele><time>2026-04-12T10:55:25.954Z</time></trkpt><trkpt lat="45.199964231136924" lon="13.774359913681577"><ele>293.0</ele><time>2026-04-12T10:55:28.953Z</time></trkpt><trkpt lat="45.200045588294266" lon="13.774355554811502"><ele>293.0</ele><time>2026-04-12T10:55:31.953Z</time></trkpt><trkpt lat="45.20004523068803" lon="13.774470285943778"><ele>293.0</ele><time>2026-04-12T10:55:35.953Z</time></trkpt><trkpt lat="45.1999647813833" lon="13.774437533408912"><ele>293.0</ele><time>2026-04-12T10:55:38.953Z</time></trkpt><trkpt lat="45.199903479639445" lon="13.774407235101917"><ele>293.0</ele><time>2026-04-12T10:55:40.953Z</time></trkpt><trkpt lat="45.199828460319935" lon="13.774424609577087"><ele>293.0</ele><time>2026-04-12T10:55:42.953Z</time></trkpt><trkpt lat="45.199739087455775" lon="13.77445443787388"><ele>293.0</ele><time>2026-04-12T10:55:44.953Z</time></trkpt><trkpt lat="45.199620403923554" lon="13.774456478811965"><ele>293.0</ele><time>2026-04-12T10:55:46.953Z</time></trkpt><trkpt lat="45.19947621158979" lon="13.774537762752788"><ele>293.0</ele><time>2026-04-12T10:55:49.953Z</time></trkpt><trkpt lat="45.19941956712312" lon="13.774590058041547"><ele>293.0</ele><time>2026-04-12T10:55:51.953Z</time></trkpt><trkpt lat="45.19936388106141" lon="13.774694852801314"><ele>293.0</ele><time>2026-04-12T10:55:53.953Z</time></trkpt><trkpt lat="45.1993133383221" lon="13.7748114985571"><ele>293.0</ele><time>2026-04-12T10:55:55.953Z</time></trkpt><trkpt lat="45.19931041542808" lon="13.774917781474475"><ele>293.0</ele><time>2026-04-12T10:55:57.953Z</time></trkpt><trkpt lat="45.199356379909716" lon="13.77500475120117"><ele>293.0</ele><time>2026-04-12T10:55:59.953Z</time></trkpt><trkpt lat="45.19944811432415" lon="13.775090006501905"><ele>293.0</ele><time>2026-04-12T10:56:01.953Z</time></trkpt><trkpt lat="45.19954035054414" lon="13.775166869832532"><ele>293.0</ele><time>2026-04-12T10:56:03.953Z</time></trkpt><trkpt lat="45.19961045983089" lon="13.775261830291837"><ele>293.0</ele><time>2026-04-12T10:56:05.953Z</time></trkpt><trkpt lat="45.199664874713925" lon="13.775349354059623"><ele>293.0</ele><time>2026-04-12T10:56:07.953Z</time></trkpt><trkpt lat="45.19975873158829" lon="13.775435821784399"><ele>293.0</ele><time>2026-04-12T10:56:09.953Z</time></trkpt><trkpt lat="45.19985614007522" lon="13.775507198266526"><ele>292.4</ele><time>2026-04-12T10:56:11.953Z</time></trkpt><trkpt lat="45.199953617486635" lon="13.775571038719058"><ele>291.8</ele><time>2026-04-12T10:56:13.953Z</time></trkpt><trkpt lat="45.20003403698497" lon="13.77569393804408"><ele>291.2</ele><time>2026-04-12T10:56:15.953Z</time></trkpt><trkpt lat="45.20006843466438" lon="13.775788395675558"><ele>290.6</ele><time>2026-04-12T10:56:16.953Z</time></trkpt><trkpt lat="45.200155089489954" lon="13.775881199632844"><ele>290.0</ele><time>2026-04-12T10:56:18.953Z</time></trkpt><trkpt lat="45.200257878566354" lon="13.775915298830718"><ele>289.6666666666667</ele><time>2026-04-12T10:56:20.953Z</time></trkpt><trkpt lat="45.20031336477149" lon="13.776027958100183"><ele>289.33333333333337</ele><time>2026-04-12T10:56:22.953Z</time></trkpt><trkpt lat="45.20031405344275" lon="13.776117667153528"><ele>289.0</ele><time>2026-04-12T10:56:23.953Z</time></trkpt><trkpt lat="45.200293423819744" lon="13.776214280480275"><ele>288.6666666666667</ele><time>2026-04-12T10:56:24.953Z</time></trkpt><trkpt lat="45.20026636376175" lon="13.776343649337866"><ele>288.3333333333333</ele><time>2026-04-12T10:56:25.953Z</time></trkpt><trkpt lat="45.20022458257384" lon="13.776488435715732"><ele>288.0</ele><time>2026-04-12T10:56:26.953Z</time></trkpt><trkpt lat="45.20019975983426" lon="13.776628607698449"><ele>288.0</ele><time>2026-04-12T10:56:27.953Z</time></trkpt><trkpt lat="45.20018292235423" lon="13.77674681354309"><ele>288.0</ele><time>2026-04-12T10:56:28.953Z</time></trkpt><trkpt lat="45.20016955024031" lon="13.77685426624647"><ele>288.0</ele><time>2026-04-12T10:56:29.953Z</time></trkpt><trkpt lat="45.20017996970693" lon="13.776977228589315"><ele>288.0</ele><time>2026-04-12T10:56:31.953Z</time></trkpt><trkpt lat="45.20022138809636" lon="13.777066765762914"><ele>288.0</ele><time>2026-04-12T10:56:33.953Z</time></trkpt><trkpt lat="45.20030744513141" lon="13.777131954730892"><ele>288.0</ele><time>2026-04-12T10:56:35.953Z</time></trkpt><trkpt lat="45.20037122651548" lon="13.777185787119464"><ele>287.4</ele><time>2026-04-12T10:56:36.953Z</time></trkpt><trkpt lat="45.20044716505565" lon="13.777250613963954"><ele>286.8</ele><time>2026-04-12T10:56:37.953Z</time></trkpt><trkpt lat="45.20051585499744" lon="13.777302539770169"><ele>286.2</ele><time>2026-04-12T10:56:38.953Z</time></trkpt><trkpt lat="45.2005737368325" lon="13.777344092576381"><ele>285.6</ele><time>2026-04-12T10:56:39.953Z</time></trkpt><trkpt lat="45.20066672166341" lon="13.777420720910914"><ele>285.0</ele><time>2026-04-12T10:56:41.953Z</time></trkpt><trkpt lat="45.20078362600632" lon="13.777402696901676"><ele>284.6666666666667</ele><time>2026-04-12T10:56:43.953Z</time></trkpt><trkpt lat="45.20085854118886" lon="13.777386740488927"><ele>284.3333333333333</ele><time>2026-04-12T10:56:44.953Z</time></trkpt><trkpt lat="45.20093855206268" lon="13.777376728619702"><ele>284.0</ele><time>2026-04-12T10:56:45.953Z</time></trkpt><trkpt lat="45.201022824106154" lon="13.777380277638079"><ele>283.66666666666663</ele><time>2026-04-12T10:56:46.953Z</time></trkpt><trkpt lat="45.20109886538784" lon="13.77738201366379"><ele>283.3333333333333</ele><time>2026-04-12T10:56:47.953Z</time></trkpt><trkpt lat="45.20116466808615" lon="13.777383754948728"><ele>283.0</ele><time>2026-04-12T10:56:48.953Z</time></trkpt><trkpt lat="45.201248814038955" lon="13.777428735214494"><ele>283.0</ele><time>2026-04-12T10:56:50.953Z</time></trkpt><trkpt lat="45.20129780368257" lon="13.777553735105071"><ele>283.0</ele><time>2026-04-12T10:56:52.953Z</time></trkpt><trkpt lat="45.20133467253299" lon="13.777669759394549"><ele>283.0</ele><time>2026-04-12T10:56:53.953Z</time></trkpt><trkpt lat="45.201388323755346" lon="13.777785375191694"><ele>283.0</ele><time>2026-04-12T10:56:54.953Z</time></trkpt><trkpt lat="45.2014286331233" lon="13.777881935637188"><ele>283.0</ele><time>2026-04-12T10:56:55.953Z</time></trkpt><trkpt lat="45.20150231639346" lon="13.777999490277372"><ele>282.0</ele><time>2026-04-12T10:56:57.953Z</time></trkpt><trkpt lat="45.201538301084504" lon="13.778107783757784"><ele>281.0</ele><time>2026-04-12T10:56:59.953Z</time></trkpt><trkpt lat="45.201527359882625" lon="13.778293731574765"><ele>280.0</ele><time>2026-04-12T10:57:01.953Z</time></trkpt><trkpt lat="45.201521090360224" lon="13.778444575749559"><ele>279.0</ele><time>2026-04-12T10:57:02.953Z</time></trkpt><trkpt lat="45.201515262983186" lon="13.7785928363594"><ele>278.0</ele><time>2026-04-12T10:57:03.953Z</time></trkpt><trkpt lat="45.20152051137158" lon="13.77873875759474"><ele>278.0</ele><time>2026-04-12T10:57:04.953Z</time></trkpt><trkpt lat="45.20151988374281" lon="13.778866474209758"><ele>278.0</ele><time>2026-04-12T10:57:05.953Z</time></trkpt><trkpt lat="45.20152653272491" lon="13.778993021616278"><ele>278.0</ele><time>2026-04-12T10:57:06.953Z</time></trkpt><trkpt lat="45.201539358437664" lon="13.77912952228163"><ele>278.0</ele><time>2026-04-12T10:57:07.953Z</time></trkpt><trkpt lat="45.20155625679904" lon="13.779267319641221"><ele>278.0</ele><time>2026-04-12T10:57:08.953Z</time></trkpt><trkpt lat="45.2015529854053" lon="13.779418036044834"><ele>278.0</ele><time>2026-04-12T10:57:09.953Z</time></trkpt><trkpt lat="45.20153063107971" lon="13.779566466547617"><ele>278.0</ele><time>2026-04-12T10:57:10.953Z</time></trkpt><trkpt lat="45.201492798727855" lon="13.779740603076647"><ele>278.0</ele><time>2026-04-12T10:57:11.953Z</time></trkpt><trkpt lat="45.20146125739798" lon="13.77990911519445"><ele>278.0</ele><time>2026-04-12T10:57:12.953Z</time></trkpt><trkpt lat="45.20143041428152" lon="13.780077001869909"><ele>276.0</ele><time>2026-04-12T10:57:13.953Z</time></trkpt><trkpt lat="45.20141280625162" lon="13.78025718898279"><ele>274.0</ele><time>2026-04-12T10:57:14.953Z</time></trkpt><trkpt lat="45.20140049481397" lon="13.780434555323604"><ele>272.0</ele><time>2026-04-12T10:57:15.953Z</time></trkpt><trkpt lat="45.2013822074617" lon="13.780593135112774"><ele>270.0</ele><time>2026-04-12T10:57:16.953Z</time></trkpt><trkpt lat="45.201364661700346" lon="13.78075412846168"><ele>270.0</ele><time>2026-04-12T10:57:17.953Z</time></trkpt><trkpt lat="45.2013472677595" lon="13.780906761638866"><ele>270.0</ele><time>2026-04-12T10:57:18.953Z</time></trkpt><trkpt lat="45.20132870266477" lon="13.781051097362068"><ele>270.0</ele><time>2026-04-12T10:57:19.954Z</time></trkpt><trkpt lat="45.201308600101285" lon="13.781195842742"><ele>270.0</ele><time>2026-04-12T10:57:20.953Z</time></trkpt><trkpt lat="45.20129638370241" lon="13.781341224805184"><ele>270.0</ele><time>2026-04-12T10:57:21.953Z</time></trkpt><trkpt lat="45.201284120900795" lon="13.781477202789597"><ele>271.0</ele><time>2026-04-12T10:57:22.953Z</time></trkpt><trkpt lat="45.201277153070556" lon="13.78161798065341"><ele>272.0</ele><time>2026-04-12T10:57:23.954Z</time></trkpt><trkpt lat="45.201266521308696" lon="13.781755945149555"><ele>273.0</ele><time>2026-04-12T10:57:24.954Z</time></trkpt><trkpt lat="45.20125683767413" lon="13.78187779364355"><ele>274.0</ele><time>2026-04-12T10:57:25.954Z</time></trkpt><trkpt lat="45.20124910745596" lon="13.78197420790444"><ele>275.0</ele><time>2026-04-12T10:57:26.954Z</time></trkpt><trkpt lat="45.20124204866005" lon="13.782096096617542"><ele>276.0</ele><time>2026-04-12T10:57:28.954Z</time></trkpt><trkpt lat="45.20130705367812" lon="13.78216110938447"><ele>276.2</ele><time>2026-04-12T10:57:31.954Z</time></trkpt><trkpt lat="45.201407850813375" lon="13.782130037246935"><ele>276.40000000000003</ele><time>2026-04-12T10:57:33.954Z</time></trkpt><trkpt lat="45.20147547489347" lon="13.782096911015685"><ele>276.6</ele><time>2026-04-12T10:57:34.954Z</time></trkpt><trkpt lat="45.20157829137944" lon="13.78205636478888"><ele>276.8</ele><time>2026-04-12T10:57:35.954Z</time></trkpt><trkpt lat="45.20170210337153" lon="13.782024200408175"><ele>277.0</ele><time>2026-04-12T10:57:36.954Z</time></trkpt><trkpt lat="45.20182831957668" lon="13.782015301499372"><ele>277.0</ele><time>2026-04-12T10:57:37.954Z</time></trkpt><trkpt lat="45.201930739139215" lon="13.781999428911039"><ele>277.0</ele><time>2026-04-12T10:57:38.954Z</time></trkpt><trkpt lat="45.202043121421724" lon="13.781971576763368"><ele>277.0</ele><time>2026-04-12T10:57:39.954Z</time></trkpt><trkpt lat="45.20216017701181" lon="13.781933524484927"><ele>277.0</ele><time>2026-04-12T10:57:40.954Z</time></trkpt><trkpt lat="45.20227285619173" lon="13.781904972387245"><ele>276.5</ele><time>2026-04-12T10:57:41.954Z</time></trkpt><trkpt lat="45.202391532034184" lon="13.781885249478576"><ele>276.0</ele><time>2026-04-12T10:57:42.954Z</time></trkpt><trkpt lat="45.20250918679253" lon="13.781852938124828"><ele>275.5</ele><time>2026-04-12T10:57:43.954Z</time></trkpt><trkpt lat="45.20262637136201" lon="13.781811602558971"><ele>275.0</ele><time>2026-04-12T10:57:44.954Z</time></trkpt><trkpt lat="45.20274101122455" lon="13.781776718736648"><ele>275.0</ele><time>2026-04-12T10:57:45.954Z</time></trkpt><trkpt lat="45.20286035958542" lon="13.781761354239437"><ele>275.0</ele><time>2026-04-12T10:57:46.954Z</time></trkpt><trkpt lat="45.20298101443524" lon="13.781754738047495"><ele>275.0</ele><time>2026-04-12T10:57:47.954Z</time></trkpt><trkpt lat="45.203105169141004" lon="13.781756202427498"><ele>275.0</ele><time>2026-04-12T10:57:48.954Z</time></trkpt><trkpt lat="45.20324258220681" lon="13.781746688719773"><ele>274.0</ele><time>2026-04-12T10:57:49.954Z</time></trkpt><trkpt lat="45.20338638058327" lon="13.781730451397868"><ele>273.0</ele><time>2026-04-12T10:57:50.954Z</time></trkpt><trkpt lat="45.20351992722744" lon="13.781709861853358"><ele>272.0</ele><time>2026-04-12T10:57:51.954Z</time></trkpt><trkpt lat="45.203642832088406" lon="13.781688797586863"><ele>271.0</ele><time>2026-04-12T10:57:52.954Z</time></trkpt><trkpt lat="45.20376435419835" lon="13.78167055221379"><ele>271.0</ele><time>2026-04-12T10:57:53.954Z</time></trkpt><trkpt lat="45.203880037770446" lon="13.78167494220502"><ele>271.0</ele><time>2026-04-12T10:57:54.954Z</time></trkpt><trkpt lat="45.20399939831107" lon="13.781702929184762"><ele>271.0</ele><time>2026-04-12T10:57:55.954Z</time></trkpt><trkpt lat="45.20412339472321" lon="13.78176340978929"><ele>271.0</ele><time>2026-04-12T10:57:56.954Z</time></trkpt><trkpt lat="45.204272593503745" lon="13.781822411918379"><ele>270.75</ele><time>2026-04-12T10:57:57.954Z</time></trkpt><trkpt lat="45.204422490048366" lon="13.781928054229171"><ele>270.5</ele><time>2026-04-12T10:57:58.954Z</time></trkpt><trkpt lat="45.204553783369846" lon="13.782008646220337"><ele>270.25</ele><time>2026-04-12T10:57:59.954Z</time></trkpt><trkpt lat="45.2046716500836" lon="13.782087775952304"><ele>270.0</ele><time>2026-04-12T10:58:00.954Z</time></trkpt><trkpt lat="45.20477107220698" lon="13.782155752557202"><ele>270.2</ele><time>2026-04-12T10:58:01.954Z</time></trkpt><trkpt lat="45.20485047226865" lon="13.782210769932231"><ele>270.4</ele><time>2026-04-12T10:58:02.954Z</time></trkpt><trkpt lat="45.20492505893635" lon="13.782241421701185"><ele>270.6</ele><time>2026-04-12T10:58:03.954Z</time></trkpt><trkpt lat="45.20502803962155" lon="13.782334344094803"><ele>270.8</ele><time>2026-04-12T10:58:05.954Z</time></trkpt><trkpt lat="45.20512025902375" lon="13.782414339915865"><ele>271.0</ele><time>2026-04-12T10:58:07.954Z</time></trkpt><trkpt lat="45.20520922870484" lon="13.782460421784846"><ele>271.0</ele><time>2026-04-12T10:58:09.954Z</time></trkpt><trkpt lat="45.20530300363868" lon="13.782484713813885"><ele>271.0</ele><time>2026-04-12T10:58:11.954Z</time></trkpt><trkpt lat="45.20543215937929" lon="13.782521826614323"><ele>271.0</ele><time>2026-04-12T10:58:13.954Z</time></trkpt><trkpt lat="45.20549765646968" lon="13.78254487963557"><ele>271.0</ele><time>2026-04-12T10:58:14.954Z</time></trkpt><trkpt lat="45.205613664462746" lon="13.782595282134212"><ele>271.0</ele><time>2026-04-12T10:58:16.954Z</time></trkpt><trkpt lat="45.205691352942594" lon="13.782650524226135"><ele>270.66666666666663</ele><time>2026-04-12T10:58:18.954Z</time></trkpt><trkpt lat="45.20577476418274" lon="13.782673270778112"><ele>270.3333333333333</ele><time>2026-04-12T10:58:21.954Z</time></trkpt><trkpt lat="45.20584931389619" lon="13.782675132733514"><ele>270.0</ele><time>2026-04-12T10:58:24.954Z</time></trkpt><trkpt lat="45.205913943678794" lon="13.78271882181177"><ele>269.6666666666667</ele><time>2026-04-12T10:58:27.954Z</time></trkpt><trkpt lat="45.20599281403938" lon="13.782778560087621"><ele>269.33333333333337</ele><time>2026-04-12T10:59:44.955Z</time></trkpt><trkpt lat="45.20606136095129" lon="13.782866289859285"><ele>269.0</ele><time>2026-04-12T10:59:46.955Z</time></trkpt><trkpt lat="45.20611681060811" lon="13.782913266388974"><ele>269.0</ele><time>2026-04-12T10:59:47.955Z</time></trkpt><trkpt lat="45.20618348377712" lon="13.782967087446625"><ele>269.0</ele><time>2026-04-12T10:59:48.955Z</time></trkpt><trkpt lat="45.20625119121401" lon="13.782999065262285"><ele>269.0</ele><time>2026-04-12T10:59:49.955Z</time></trkpt><trkpt lat="45.20632259002633" lon="13.783044260864354"><ele>269.0</ele><time>2026-04-12T10:59:50.955Z</time></trkpt><trkpt lat="45.20639291093528" lon="13.783099314587076"><ele>269.0</ele><time>2026-04-12T10:59:51.955Z</time></trkpt><trkpt lat="45.20646781387612" lon="13.783153925865046"><ele>269.0</ele><time>2026-04-12T10:59:52.955Z</time></trkpt><trkpt lat="45.20654156909224" lon="13.78319038681477"><ele>268.33333333333337</ele><time>2026-04-12T10:59:53.955Z</time></trkpt><trkpt lat="45.20662450655101" lon="13.783240672339705"><ele>267.6666666666667</ele><time>2026-04-12T10:59:54.955Z</time></trkpt><trkpt lat="45.20671523971691" lon="13.783291789762933"><ele>267.0</ele><time>2026-04-12T10:59:55.955Z</time></trkpt><trkpt lat="45.20680114795912" lon="13.783341241370682"><ele>266.3333333333333</ele><time>2026-04-12T10:59:56.955Z</time></trkpt><trkpt lat="45.20688748647582" lon="13.783388765935952"><ele>265.66666666666663</ele><time>2026-04-12T10:59:57.955Z</time></trkpt><trkpt lat="45.2069600681626" lon="13.783416133175633"><ele>265.0</ele><time>2026-04-12T10:59:58.955Z</time></trkpt><trkpt lat="45.20704354812072" lon="13.783456546344688"><ele>265.0</ele><time>2026-04-12T10:59:59.955Z</time></trkpt><trkpt lat="45.2071313111499" lon="13.783488365245992"><ele>265.0</ele><time>2026-04-12T11:00:00.955Z</time></trkpt><trkpt lat="45.20721640185856" lon="13.783524961624861"><ele>265.0</ele><time>2026-04-12T11:00:01.955Z</time></trkpt><trkpt lat="45.20730220352385" lon="13.783563799753754"><ele>265.0</ele><time>2026-04-12T11:00:02.955Z</time></trkpt><trkpt lat="45.2073854504547" lon="13.783612509844621"><ele>265.0</ele><time>2026-04-12T11:00:03.955Z</time></trkpt><trkpt lat="45.20747300523389" lon="13.783664379189066"><ele>265.6</ele><time>2026-04-12T11:00:04.955Z</time></trkpt><trkpt lat="45.20755357129995" lon="13.78370581366137"><ele>266.2</ele><time>2026-04-12T11:00:05.955Z</time></trkpt><trkpt lat="45.207625371677544" lon="13.78374793243252"><ele>266.8</ele><time>2026-04-12T11:00:06.955Z</time></trkpt><trkpt lat="45.2076982013194" lon="13.783778766374152"><ele>267.4</ele><time>2026-04-12T11:00:07.955Z</time></trkpt><trkpt lat="45.20783916266132" lon="13.78385713137045"><ele>268.0</ele><time>2026-04-12T11:00:09.955Z</time></trkpt><trkpt lat="45.20791731252875" lon="13.783904401323653"><ele>268.0</ele><time>2026-04-12T11:00:10.955Z</time></trkpt><trkpt lat="45.2079933411982" lon="13.783960754890158"><ele>268.0</ele><time>2026-04-12T11:00:11.955Z</time></trkpt><trkpt lat="45.20806834613358" lon="13.784011995772204"><ele>268.0</ele><time>2026-04-12T11:00:12.955Z</time></trkpt><trkpt lat="45.208128932823854" lon="13.784076589852473"><ele>268.0</ele><time>2026-04-12T11:00:13.955Z</time></trkpt><trkpt lat="45.208166927459786" lon="13.78415694929743"><ele>268.0</ele><time>2026-04-12T11:00:14.955Z</time></trkpt><trkpt lat="45.20820376233935" lon="13.784249248437714"><ele>268.0</ele><time>2026-04-12T11:00:15.955Z</time></trkpt><trkpt lat="45.20823434309326" lon="13.784348960545024"><ele>268.0</ele><time>2026-04-12T11:00:16.955Z</time></trkpt><trkpt lat="45.2082817967665" lon="13.784459354711458"><ele>268.0</ele><time>2026-04-12T11:00:17.955Z</time></trkpt><trkpt lat="45.2083304471103" lon="13.784588644789533"><ele>268.0</ele><time>2026-04-12T11:00:18.955Z</time></trkpt><trkpt lat="45.20838147700673" lon="13.784726558199317"><ele>268.0</ele><time>2026-04-12T11:00:19.955Z</time></trkpt><trkpt lat="45.20844237170606" lon="13.784865306224113"><ele>268.0</ele><time>2026-04-12T11:00:20.955Z</time></trkpt><trkpt lat="45.20849991783932" lon="13.784997671080118"><ele>268.0</ele><time>2026-04-12T11:00:21.955Z</time></trkpt><trkpt lat="45.20856074201972" lon="13.785130744641233"><ele>268.0</ele><time>2026-04-12T11:00:22.955Z</time></trkpt><trkpt lat="45.208626205234175" lon="13.785268044174057"><ele>268.0</ele><time>2026-04-12T11:00:23.955Z</time></trkpt><trkpt lat="45.208692610450825" lon="13.785403022911051"><ele>268.0</ele><time>2026-04-12T11:00:24.955Z</time></trkpt><trkpt lat="45.208760075291394" lon="13.785533239423193"><ele>267.75</ele><time>2026-04-12T11:00:25.955Z</time></trkpt><trkpt lat="45.208831648586305" lon="13.785665308109898"><ele>267.5</ele><time>2026-04-12T11:00:26.955Z</time></trkpt><trkpt lat="45.20891112300351" lon="13.78579870840914"><ele>267.25</ele><time>2026-04-12T11:00:27.955Z</time></trkpt><trkpt lat="45.209019828691005" lon="13.785919777652147"><ele>267.0</ele><time>2026-04-12T11:00:28.955Z</time></trkpt><trkpt lat="45.20909588474711" lon="13.78608101133273"><ele>266.0</ele><time>2026-04-12T11:00:29.955Z</time></trkpt><trkpt lat="45.209193702611614" lon="13.786220131932625"><ele>265.0</ele><time>2026-04-12T11:00:30.955Z</time></trkpt><trkpt lat="45.209263605561105" lon="13.786382869616087"><ele>264.0</ele><time>2026-04-12T11:00:31.955Z</time></trkpt><trkpt lat="45.20934160141992" lon="13.786524572365995"><ele>263.0</ele><time>2026-04-12T11:00:32.955Z</time></trkpt><trkpt lat="45.20942173127699" lon="13.786670000037008"><ele>263.0</ele><time>2026-04-12T11:00:33.955Z</time></trkpt><trkpt lat="45.20950406289453" lon="13.786817736412129"><ele>263.0</ele><time>2026-04-12T11:00:34.955Z</time></trkpt><trkpt lat="45.2095858703933" lon="13.786961414091415"><ele>263.0</ele><time>2026-04-12T11:00:35.955Z</time></trkpt><trkpt lat="45.2096779308916" lon="13.787087061433265"><ele>263.0</ele><time>2026-04-12T11:00:36.955Z</time></trkpt><trkpt lat="45.20975346317753" lon="13.787231991582349"><ele>262.5</ele><time>2026-04-12T11:00:37.955Z</time></trkpt><trkpt lat="45.209843029056906" lon="13.787364100731876"><ele>262.0</ele><time>2026-04-12T11:00:38.955Z</time></trkpt><trkpt lat="45.20992443120288" lon="13.78752176551033"><ele>261.5</ele><time>2026-04-12T11:00:39.955Z</time></trkpt><trkpt lat="45.21001767870051" lon="13.787671165626884"><ele>261.0</ele><time>2026-04-12T11:00:40.955Z</time></trkpt><trkpt lat="45.21011192153711" lon="13.787820902717767"><ele>262.0</ele><time>2026-04-12T11:00:41.955Z</time></trkpt><trkpt lat="45.21020701701668" lon="13.787966304842088"><ele>263.0</ele><time>2026-04-12T11:00:42.955Z</time></trkpt><trkpt lat="45.210311507099924" lon="13.788098971927962"><ele>264.0</ele><time>2026-04-12T11:00:43.955Z</time></trkpt><trkpt lat="45.210391478831795" lon="13.788236352829315"><ele>265.0</ele><time>2026-04-12T11:00:44.955Z</time></trkpt><trkpt lat="45.210481906536195" lon="13.788379826251937"><ele>265.0</ele><time>2026-04-12T11:00:45.955Z</time></trkpt><trkpt lat="45.21058175946496" lon="13.788511439458093"><ele>265.0</ele><time>2026-04-12T11:00:46.955Z</time></trkpt><trkpt lat="45.21067907307378" lon="13.788638950187785"><ele>265.0</ele><time>2026-04-12T11:00:47.955Z</time></trkpt><trkpt lat="45.210760890167386" lon="13.788783569283545"><ele>265.0</ele><time>2026-04-12T11:00:48.955Z</time></trkpt><trkpt lat="45.21086563639719" lon="13.788902306959619"><ele>265.0</ele><time>2026-04-12T11:00:49.955Z</time></trkpt><trkpt lat="45.210963318375846" lon="13.789042021423391"><ele>265.0</ele><time>2026-04-12T11:00:50.955Z</time></trkpt><trkpt lat="45.21106520888756" lon="13.789179782444055"><ele>265.0</ele><time>2026-04-12T11:00:51.955Z</time></trkpt><trkpt lat="45.21115709544531" lon="13.789315752062622"><ele>265.0</ele><time>2026-04-12T11:00:52.955Z</time></trkpt><trkpt lat="45.21119953694351" lon="13.78946859357067"><ele>265.0</ele><time>2026-04-12T11:00:53.955Z</time></trkpt><trkpt lat="45.21126678984411" lon="13.789596178237508"><ele>265.0</ele><time>2026-04-12T11:00:54.955Z</time></trkpt><trkpt lat="45.21133865089397" lon="13.789686281810578"><ele>265.0</ele><time>2026-04-12T11:00:55.955Z</time></trkpt><trkpt lat="45.21141408990399" lon="13.789747359709853"><ele>265.0</ele><time>2026-04-12T11:00:56.955Z</time></trkpt><trkpt lat="45.211490985821015" lon="13.789745850668647"><ele>265.0</ele><time>2026-04-12T11:00:57.955Z</time></trkpt><trkpt lat="45.21157164452919" lon="13.789756083574149"><ele>265.4</ele><time>2026-04-12T11:00:58.955Z</time></trkpt><trkpt lat="45.21166900517284" lon="13.789749733775537"><ele>265.8</ele><time>2026-04-12T11:00:59.955Z</time></trkpt><trkpt lat="45.21177713692564" lon="13.789729867836124"><ele>266.2</ele><time>2026-04-12T11:01:00.955Z</time></trkpt><trkpt lat="45.21186432684779" lon="13.78972065547292"><ele>266.6</ele><time>2026-04-12T11:01:01.955Z</time></trkpt><trkpt lat="45.211946381728175" lon="13.789741971520023"><ele>267.0</ele><time>2026-04-12T11:01:05.955Z</time></trkpt><trkpt lat="45.21207062947355" lon="13.78985827712363"><ele>267.0</ele><time>2026-04-12T11:01:07.955Z</time></trkpt><trkpt lat="45.21215237182401" lon="13.789945189372105"><ele>267.0</ele><time>2026-04-12T11:01:08.955Z</time></trkpt><trkpt lat="45.212255862714784" lon="13.79003886159906"><ele>267.0</ele><time>2026-04-12T11:01:09.955Z</time></trkpt><trkpt lat="45.21237422705518" lon="13.790131597814284"><ele>267.0</ele><time>2026-04-12T11:01:10.955Z</time></trkpt><trkpt lat="45.2125031919959" lon="13.790220328493772"><ele>269.3333333333333</ele><time>2026-04-12T11:01:11.955Z</time></trkpt><trkpt lat="45.212645514077686" lon="13.790325948827826"><ele>271.66666666666663</ele><time>2026-04-12T11:01:12.955Z</time></trkpt><trkpt lat="45.212816170913555" lon="13.790449748781834"><ele>274.0</ele><time>2026-04-12T11:01:13.955Z</time></trkpt><trkpt lat="45.212974866451844" lon="13.790567476181998"><ele>274.0</ele><time>2026-04-12T11:01:14.955Z</time></trkpt><trkpt lat="45.213131023312094" lon="13.790679159602984"><ele>274.0</ele><time>2026-04-12T11:01:15.955Z</time></trkpt><trkpt lat="45.21331424412828" lon="13.790785560270692"><ele>274.0</ele><time>2026-04-12T11:01:16.955Z</time></trkpt><trkpt lat="45.2135362387115" lon="13.790871825742524"><ele>274.5</ele><time>2026-04-12T11:01:17.955Z</time></trkpt><trkpt lat="45.21377276012045" lon="13.79091789013785"><ele>275.0</ele><time>2026-04-12T11:01:18.955Z</time></trkpt><trkpt lat="45.21399419057044" lon="13.790944410795488"><ele>277.0</ele><time>2026-04-12T11:01:19.955Z</time></trkpt><trkpt lat="45.21422873967108" lon="13.790946729614094"><ele>279.0</ele><time>2026-04-12T11:01:20.955Z</time></trkpt><trkpt lat="45.214486035296055" lon="13.790933453214327"><ele>279.0</ele><time>2026-04-12T11:01:21.955Z</time></trkpt><trkpt lat="45.21472844821348" lon="13.790954123551517"><ele>279.0</ele><time>2026-04-12T11:01:22.955Z</time></trkpt><trkpt lat="45.21494755591602" lon="13.790995911860797"><ele>281.6666666666667</ele><time>2026-04-12T11:01:23.955Z</time></trkpt><trkpt lat="45.215150446219106" lon="13.791041649171516"><ele>284.33333333333337</ele><time>2026-04-12T11:01:24.955Z</time></trkpt><trkpt lat="45.21534163912542" lon="13.791079714525942"><ele>287.0</ele><time>2026-04-12T11:01:25.955Z</time></trkpt><trkpt lat="45.21551357900365" lon="13.791109971886193"><ele>288.0</ele><time>2026-04-12T11:01:26.955Z</time></trkpt><trkpt lat="45.21566762660874" lon="13.791166484410617"><ele>289.0</ele><time>2026-04-12T11:01:27.955Z</time></trkpt><trkpt lat="45.21580196458229" lon="13.791200948003302"><ele>290.0</ele><time>2026-04-12T11:01:28.955Z</time></trkpt><trkpt lat="45.2159035713773" lon="13.791248922519998"><ele>291.0</ele><time>2026-04-12T11:01:29.955Z</time></trkpt><trkpt lat="45.21599612710345" lon="13.791313698939055"><ele>291.0</ele><time>2026-04-12T11:01:30.955Z</time></trkpt><trkpt lat="45.216043549905976" lon="13.791459471287533"><ele>291.0</ele><time>2026-04-12T11:01:31.955Z</time></trkpt><trkpt lat="45.216108253847224" lon="13.791597483162812"><ele>291.0</ele><time>2026-04-12T11:01:32.954Z</time></trkpt><trkpt lat="45.2161644748537" lon="13.791776353685414"><ele>291.0</ele><time>2026-04-12T11:01:33.954Z</time></trkpt><trkpt lat="45.21623444221217" lon="13.791970683958562"><ele>292.0</ele><time>2026-04-12T11:01:34.955Z</time></trkpt><trkpt lat="45.21632744841425" lon="13.792173793009738"><ele>293.0</ele><time>2026-04-12T11:01:35.955Z</time></trkpt><trkpt lat="45.216447673039305" lon="13.792413927067605"><ele>294.0</ele><time>2026-04-12T11:01:36.955Z</time></trkpt><trkpt lat="45.216576473641965" lon="13.79264726576097"><ele>295.6666666666667</ele><time>2026-04-12T11:01:37.955Z</time></trkpt><trkpt lat="45.21669035910197" lon="13.792857052975622"><ele>297.33333333333337</ele><time>2026-04-12T11:01:38.955Z</time></trkpt><trkpt lat="45.216787522909186" lon="13.793055372818111"><ele>299.0</ele><time>2026-04-12T11:01:39.955Z</time></trkpt><trkpt lat="45.21684753280862" lon="13.793265135980809"><ele>299.0</ele><time>2026-04-12T11:01:40.954Z</time></trkpt><trkpt lat="45.21693431879176" lon="13.793477451092034"><ele>299.0</ele><time>2026-04-12T11:01:41.955Z</time></trkpt><trkpt lat="45.217002263361415" lon="13.793723370893403"><ele>299.0</ele><time>2026-04-12T11:01:42.955Z</time></trkpt><trkpt lat="45.217052323315784" lon="13.793996818478037"><ele>299.33333333333337</ele><time>2026-04-12T11:01:43.954Z</time></trkpt><trkpt lat="45.21713946606503" lon="13.79426940199355"><ele>299.6666666666667</ele><time>2026-04-12T11:01:44.955Z</time></trkpt><trkpt lat="45.21721100460853" lon="13.794546820354707"><ele>300.0</ele><time>2026-04-12T11:01:45.955Z</time></trkpt><trkpt lat="45.21728955594073" lon="13.79481183376182"><ele>299.0</ele><time>2026-04-12T11:01:46.955Z</time></trkpt><trkpt lat="45.21736893186068" lon="13.795052792774808"><ele>298.0</ele><time>2026-04-12T11:01:47.955Z</time></trkpt><trkpt lat="45.217442907711785" lon="13.795275009866884"><ele>297.0</ele><time>2026-04-12T11:01:48.955Z</time></trkpt><trkpt lat="45.21750584096339" lon="13.79547105012597"><ele>297.0</ele><time>2026-04-12T11:01:49.955Z</time></trkpt><trkpt lat="45.217570291343776" lon="13.795631329450913"><ele>297.0</ele><time>2026-04-12T11:01:50.955Z</time></trkpt><trkpt lat="45.21764760767987" lon="13.79575830592608"><ele>297.0</ele><time>2026-04-12T11:01:51.955Z</time></trkpt><trkpt lat="45.21775693413821" lon="13.795836060694594"><ele>297.0</ele><time>2026-04-12T11:01:52.955Z</time></trkpt><trkpt lat="45.21788315232544" lon="13.795890728153893"><ele>297.0</ele><time>2026-04-12T11:01:53.955Z</time></trkpt><trkpt lat="45.21804036795171" lon="13.795936796483149"><ele>297.0</ele><time>2026-04-12T11:01:54.955Z</time></trkpt><trkpt lat="45.21820974524433" lon="13.795910097631236"><ele>297.0</ele><time>2026-04-12T11:01:55.955Z</time></trkpt><trkpt lat="45.21839164606828" lon="13.795864707852393"><ele>297.0</ele><time>2026-04-12T11:01:56.955Z</time></trkpt><trkpt lat="45.218599196379024" lon="13.795803644945678"><ele>297.0</ele><time>2026-04-12T11:01:57.955Z</time></trkpt><trkpt lat="45.21878037679383" lon="13.795757949229177"><ele>297.0</ele><time>2026-04-12T11:01:58.955Z</time></trkpt><trkpt lat="45.21894891589145" lon="13.795749073000449"><ele>297.6666666666667</ele><time>2026-04-12T11:01:59.955Z</time></trkpt><trkpt lat="45.21910726743459" lon="13.795784796298374"><ele>298.33333333333337</ele><time>2026-04-12T11:02:00.955Z</time></trkpt><trkpt lat="45.21926771851625" lon="13.795845269852446"><ele>299.0</ele><time>2026-04-12T11:02:01.955Z</time></trkpt><trkpt lat="45.21960879596462" lon="13.796005341079251"><ele>297.33333333333337</ele><time>2026-04-12T11:02:03.955Z</time></trkpt><trkpt lat="45.219785869946" lon="13.79606638495197"><ele>295.6666666666667</ele><time>2026-04-12T11:02:04.955Z</time></trkpt><trkpt lat="45.219966025136365" lon="13.796128312767465"><ele>294.0</ele><time>2026-04-12T11:02:05.955Z</time></trkpt><trkpt lat="45.22014797136727" lon="13.7962044259471"><ele>294.0</ele><time>2026-04-12T11:02:06.955Z</time></trkpt><trkpt lat="45.22033011819088" lon="13.796307596757048"><ele>294.0</ele><time>2026-04-12T11:02:07.955Z</time></trkpt><trkpt lat="45.22050830162035" lon="13.796424655999033"><ele>294.0</ele><time>2026-04-12T11:02:08.955Z</time></trkpt><trkpt lat="45.220683529443725" lon="13.796561744290408"><ele>294.6666666666667</ele><time>2026-04-12T11:02:09.955Z</time></trkpt><trkpt lat="45.220857686862125" lon="13.796695554841717"><ele>295.33333333333337</ele><time>2026-04-12T11:02:10.955Z</time></trkpt><trkpt lat="45.221011742053214" lon="13.796837859887665"><ele>296.0</ele><time>2026-04-12T11:02:11.955Z</time></trkpt><trkpt lat="45.22113809547778" lon="13.7970103828127"><ele>296.0</ele><time>2026-04-12T11:02:12.955Z</time></trkpt><trkpt lat="45.22125857420518" lon="13.797182361622143"><ele>296.0</ele><time>2026-04-12T11:02:13.955Z</time></trkpt><trkpt lat="45.221354500505555" lon="13.797335894675053"><ele>296.0</ele><time>2026-04-12T11:02:14.955Z</time></trkpt><trkpt lat="45.221434792150724" lon="13.797446239436496"><ele>296.0</ele><time>2026-04-12T11:02:15.955Z</time></trkpt><trkpt lat="45.22149707126443" lon="13.797550555111277"><ele>297.1666666666667</ele><time>2026-04-12T11:02:16.955Z</time></trkpt><trkpt lat="45.22155575505818" lon="13.797648502306478"><ele>298.33333333333337</ele><time>2026-04-12T11:02:17.955Z</time></trkpt><trkpt lat="45.22161070945439" lon="13.797744820272474"><ele>299.5</ele><time>2026-04-12T11:02:18.955Z</time></trkpt><trkpt lat="45.22165949891429" lon="13.79784129218271"><ele>300.6666666666667</ele><time>2026-04-12T11:02:19.955Z</time></trkpt><trkpt lat="45.221704454533175" lon="13.797947328036134"><ele>301.8333333333333</ele><time>2026-04-12T11:02:20.955Z</time></trkpt><trkpt lat="45.22174175571375" lon="13.798052636161492"><ele>303.0</ele><time>2026-04-12T11:02:21.955Z</time></trkpt><trkpt lat="45.22176367626399" lon="13.798165667565552"><ele>303.0</ele><time>2026-04-12T11:02:22.955Z</time></trkpt><trkpt lat="45.22179150719741" lon="13.79826746382287"><ele>303.0</ele><time>2026-04-12T11:02:23.955Z</time></trkpt><trkpt lat="45.221825205867816" lon="13.798372368978537"><ele>303.0</ele><time>2026-04-12T11:02:24.955Z</time></trkpt><trkpt lat="45.221858152028645" lon="13.798476973540929"><ele>303.0</ele><time>2026-04-12T11:02:25.955Z</time></trkpt><trkpt lat="45.22186924967642" lon="13.798585513439585"><ele>303.0</ele><time>2026-04-12T11:02:26.955Z</time></trkpt><trkpt lat="45.221867959951915" lon="13.798688370827522"><ele>303.0</ele><time>2026-04-12T11:02:27.955Z</time></trkpt><trkpt lat="45.22186160091307" lon="13.798797455595905"><ele>303.1666666666667</ele><time>2026-04-12T11:02:28.955Z</time></trkpt><trkpt lat="45.221854329543" lon="13.798916668153847"><ele>303.3333333333333</ele><time>2026-04-12T11:02:29.955Z</time></trkpt><trkpt lat="45.22184580122216" lon="13.799038814325923"><ele>303.5</ele><time>2026-04-12T11:02:30.955Z</time></trkpt><trkpt lat="45.221840742615186" lon="13.799162652755067"><ele>303.66666666666663</ele><time>2026-04-12T11:02:31.955Z</time></trkpt><trkpt lat="45.22183931973045" lon="13.799282345879206"><ele>303.8333333333333</ele><time>2026-04-12T11:02:32.955Z</time></trkpt><trkpt lat="45.22183178823775" lon="13.799387244690756"><ele>304.0</ele><time>2026-04-12T11:02:33.955Z</time></trkpt><trkpt lat="45.22183429816779" lon="13.799485078247333"><ele>304.5</ele><time>2026-04-12T11:02:34.955Z</time></trkpt><trkpt lat="45.22186092109826" lon="13.799629301668158"><ele>305.0</ele><time>2026-04-12T11:02:36.955Z</time></trkpt><trkpt lat="45.22190110992957" lon="13.799705109112255"><ele>305.5</ele><time>2026-04-12T11:02:37.955Z</time></trkpt><trkpt lat="45.221957398651725" lon="13.799769863497126"><ele>306.0</ele><time>2026-04-12T11:02:38.955Z</time></trkpt><trkpt lat="45.22202507596353" lon="13.799826789990707"><ele>306.5</ele><time>2026-04-12T11:02:39.955Z</time></trkpt><trkpt lat="45.2220978020874" lon="13.79989492136519"><ele>307.0</ele><time>2026-04-12T11:02:40.955Z</time></trkpt><trkpt lat="45.22217288901557" lon="13.799973759049054"><ele>307.0</ele><time>2026-04-12T11:02:41.955Z</time></trkpt><trkpt lat="45.222250741801034" lon="13.800073436341846"><ele>307.0</ele><time>2026-04-12T11:02:42.955Z</time></trkpt><trkpt lat="45.22234954734517" lon="13.800191704233844"><ele>307.0</ele><time>2026-04-12T11:02:43.955Z</time></trkpt><trkpt lat="45.222443272865995" lon="13.800325954904627"><ele>307.0</ele><time>2026-04-12T11:02:44.955Z</time></trkpt><trkpt lat="45.222525757338644" lon="13.800483126503606"><ele>308.0</ele><time>2026-04-12T11:02:45.955Z</time></trkpt><trkpt lat="45.22260888707111" lon="13.800626670853468"><ele>309.0</ele><time>2026-04-12T11:02:46.955Z</time></trkpt><trkpt lat="45.22269572711839" lon="13.800761430301181"><ele>310.0</ele><time>2026-04-12T11:02:47.955Z</time></trkpt><trkpt lat="45.22277784634733" lon="13.800885297946124"><ele>311.0</ele><time>2026-04-12T11:02:48.955Z</time></trkpt><trkpt lat="45.22286454730596" lon="13.80100020555465"><ele>311.0</ele><time>2026-04-12T11:02:49.955Z</time></trkpt><trkpt lat="45.22295031312239" lon="13.801110690306649"><ele>311.0</ele><time>2026-04-12T11:02:50.955Z</time></trkpt><trkpt lat="45.22303640337675" lon="13.801220608048643"><ele>311.0</ele><time>2026-04-12T11:02:51.955Z</time></trkpt><trkpt lat="45.22313024636746" lon="13.801337228086785"><ele>311.0</ele><time>2026-04-12T11:02:52.955Z</time></trkpt><trkpt lat="45.22323003237223" lon="13.801466264691118"><ele>312.0</ele><time>2026-04-12T11:02:53.955Z</time></trkpt><trkpt lat="45.22332133521461" lon="13.801591741277708"><ele>313.0</ele><time>2026-04-12T11:02:54.955Z</time></trkpt><trkpt lat="45.22339709867029" lon="13.801725728278345"><ele>314.0</ele><time>2026-04-12T11:02:55.955Z</time></trkpt><trkpt lat="45.22345406998872" lon="13.801876880091871"><ele>315.0</ele><time>2026-04-12T11:02:56.955Z</time></trkpt><trkpt lat="45.22350802825459" lon="13.801995189898836"><ele>315.4</ele><time>2026-04-12T11:02:57.955Z</time></trkpt><trkpt lat="45.22356558260855" lon="13.802104486221296"><ele>315.8</ele><time>2026-04-12T11:02:58.955Z</time></trkpt><trkpt lat="45.223624856594796" lon="13.802200497193818"><ele>316.2</ele><time>2026-04-12T11:02:59.955Z</time></trkpt><trkpt lat="45.2236875711802" lon="13.802302583778513"><ele>316.6</ele><time>2026-04-12T11:03:00.955Z</time></trkpt><trkpt lat="45.22374298572041" lon="13.802411128253269"><ele>317.0</ele><time>2026-04-12T11:03:01.955Z</time></trkpt><trkpt lat="45.22379526878664" lon="13.802508917343653"><ele>317.0</ele><time>2026-04-12T11:03:02.955Z</time></trkpt><trkpt lat="45.22383889435365" lon="13.802585972674649"><ele>317.0</ele><time>2026-04-12T11:03:03.955Z</time></trkpt><trkpt lat="45.22388161375588" lon="13.802679690063432"><ele>317.0</ele><time>2026-04-12T11:03:05.955Z</time></trkpt><trkpt lat="45.22395569740789" lon="13.802787167079709"><ele>317.0</ele><time>2026-04-12T11:03:08.955Z</time></trkpt><trkpt lat="45.22404786792702" lon="13.802890087348711"><ele>317.0</ele><time>2026-04-12T11:03:10.955Z</time></trkpt><trkpt lat="45.224106293248646" lon="13.802954259988697"><ele>317.0</ele><time>2026-04-12T11:03:11.955Z</time></trkpt><trkpt lat="45.22416057439102" lon="13.803027474604512"><ele>317.4</ele><time>2026-04-12T11:03:12.955Z</time></trkpt><trkpt lat="45.22422858622843" lon="13.803113200347186"><ele>317.79999999999995</ele><time>2026-04-12T11:03:13.955Z</time></trkpt><trkpt lat="45.224300610808385" lon="13.803220685873203"><ele>318.2</ele><time>2026-04-12T11:03:14.955Z</time></trkpt><trkpt lat="45.22438158452865" lon="13.803317043666288"><ele>318.59999999999997</ele><time>2026-04-12T11:03:15.955Z</time></trkpt><trkpt lat="45.22445263361341" lon="13.803417724928364"><ele>319.0</ele><time>2026-04-12T11:03:16.955Z</time></trkpt><trkpt lat="45.22453613611343" lon="13.80352294075523"><ele>319.0</ele><time>2026-04-12T11:03:17.955Z</time></trkpt><trkpt lat="45.22462445179545" lon="13.803618294069047"><ele>319.0</ele><time>2026-04-12T11:03:18.955Z</time></trkpt><trkpt lat="45.22471561291506" lon="13.803712634841647"><ele>319.0</ele><time>2026-04-12T11:03:19.955Z</time></trkpt><trkpt lat="45.22480572684402" lon="13.803818551297985"><ele>319.0</ele><time>2026-04-12T11:03:20.955Z</time></trkpt><trkpt lat="45.22489741967756" lon="13.80393794011118"><ele>320.66666666666663</ele><time>2026-04-12T11:03:21.955Z</time></trkpt><trkpt lat="45.22507392298471" lon="13.804226147405679"><ele>322.3333333333333</ele><time>2026-04-12T11:03:23.955Z</time></trkpt><trkpt lat="45.225189636966974" lon="13.804361496801056"><ele>324.0</ele><time>2026-04-12T11:03:24.955Z</time></trkpt><trkpt lat="45.225306766994656" lon="13.804481702591248"><ele>324.0</ele><time>2026-04-12T11:03:25.955Z</time></trkpt><trkpt lat="45.225423874367934" lon="13.804594524615185"><ele>324.0</ele><time>2026-04-12T11:03:26.955Z</time></trkpt><trkpt lat="45.225558741260414" lon="13.804702198747242"><ele>324.0</ele><time>2026-04-12T11:03:27.955Z</time></trkpt><trkpt lat="45.22569341423315" lon="13.804813231792044"><ele>323.6666666666667</ele><time>2026-04-12T11:03:28.955Z</time></trkpt><trkpt lat="45.225830829840596" lon="13.804918298067893"><ele>323.33333333333337</ele><time>2026-04-12T11:03:29.955Z</time></trkpt><trkpt lat="45.22597642406358" lon="13.805030559247657"><ele>323.0</ele><time>2026-04-12T11:03:30.955Z</time></trkpt><trkpt lat="45.22610197592504" lon="13.805159324673081"><ele>322.0</ele><time>2026-04-12T11:03:31.955Z</time></trkpt><trkpt lat="45.22620485140223" lon="13.805318896335448"><ele>321.0</ele><time>2026-04-12T11:03:32.955Z</time></trkpt><trkpt lat="45.226292385362584" lon="13.805496987929486"><ele>320.0</ele><time>2026-04-12T11:03:33.955Z</time></trkpt><trkpt lat="45.226369526371926" lon="13.805673060680398"><ele>320.0</ele><time>2026-04-12T11:03:34.955Z</time></trkpt><trkpt lat="45.22647009508618" lon="13.80584762781244"><ele>320.0</ele><time>2026-04-12T11:03:35.955Z</time></trkpt><trkpt lat="45.226567051653355" lon="13.80604140502412"><ele>320.0</ele><time>2026-04-12T11:03:36.955Z</time></trkpt><trkpt lat="45.22666110981306" lon="13.806211590303038"><ele>320.25</ele><time>2026-04-12T11:03:37.954Z</time></trkpt><trkpt lat="45.2267365388285" lon="13.806384171292546"><ele>320.5</ele><time>2026-04-12T11:03:38.954Z</time></trkpt><trkpt lat="45.22681788823266" lon="13.806560515075976"><ele>320.75</ele><time>2026-04-12T11:03:39.954Z</time></trkpt><trkpt lat="45.226887366233846" lon="13.806737187515504"><ele>321.0</ele><time>2026-04-12T11:03:40.954Z</time></trkpt><trkpt lat="45.22694483179768" lon="13.806921598894801"><ele>321.8</ele><time>2026-04-12T11:03:41.954Z</time></trkpt><trkpt lat="45.22700900648486" lon="13.807077847929614"><ele>322.6</ele><time>2026-04-12T11:03:42.954Z</time></trkpt><trkpt lat="45.22708253475314" lon="13.807197838702734"><ele>323.4</ele><time>2026-04-12T11:03:43.954Z</time></trkpt><trkpt lat="45.22716395443318" lon="13.80727308710501"><ele>324.2</ele><time>2026-04-12T11:03:44.954Z</time></trkpt><trkpt lat="45.22722555972786" lon="13.807309059952386"><ele>325.0</ele><time>2026-04-12T11:03:45.954Z</time></trkpt><trkpt lat="45.227292981021186" lon="13.80736932346419"><ele>325.6</ele><time>2026-04-12T11:03:47.954Z</time></trkpt><trkpt lat="45.22736201830343" lon="13.807401197766088"><ele>326.2</ele><time>2026-04-12T11:03:50.954Z</time></trkpt><trkpt lat="45.22749165718388" lon="13.807455191308202"><ele>326.79999999999995</ele><time>2026-04-12T11:03:52.954Z</time></trkpt><trkpt lat="45.22757124377047" lon="13.807533332407933"><ele>327.4</ele><time>2026-04-12T11:03:53.954Z</time></trkpt><trkpt lat="45.227651285567944" lon="13.807620317177676"><ele>328.0</ele><time>2026-04-12T11:03:54.954Z</time></trkpt><trkpt lat="45.22774032224007" lon="13.807716217278086"><ele>328.4</ele><time>2026-04-12T11:03:55.954Z</time></trkpt><trkpt lat="45.22781177001509" lon="13.807800939338886"><ele>328.79999999999995</ele><time>2026-04-12T11:03:56.954Z</time></trkpt><trkpt lat="45.2278665575408" lon="13.80786400134067"><ele>329.2</ele><time>2026-04-12T11:03:57.954Z</time></trkpt><trkpt lat="45.22792109732912" lon="13.807925499622101"><ele>329.6</ele><time>2026-04-12T11:04:00.954Z</time></trkpt><trkpt lat="45.22800157082518" lon="13.80797901758017"><ele>330.0</ele><time>2026-04-12T11:04:05.954Z</time></trkpt><trkpt lat="45.228114682433535" lon="13.808075100371935"><ele>330.2</ele><time>2026-04-12T11:04:07.954Z</time></trkpt><trkpt lat="45.22818860215463" lon="13.808141001516"><ele>330.4</ele><time>2026-04-12T11:04:08.954Z</time></trkpt><trkpt lat="45.22826603773392" lon="13.808244916192434"><ele>330.6</ele><time>2026-04-12T11:04:09.954Z</time></trkpt><trkpt lat="45.22836155654419" lon="13.80833801168866"><ele>330.8</ele><time>2026-04-12T11:04:10.954Z</time></trkpt><trkpt lat="45.228449483744136" lon="13.808436146107274"><ele>331.0</ele><time>2026-04-12T11:04:11.954Z</time></trkpt><trkpt lat="45.22853433400209" lon="13.808514281880598"><ele>330.66666666666663</ele><time>2026-04-12T11:04:12.954Z</time></trkpt><trkpt lat="45.228620379036464" lon="13.80857792262981"><ele>330.3333333333333</ele><time>2026-04-12T11:04:13.954Z</time></trkpt><trkpt lat="45.22870083629509" lon="13.808619984707846"><ele>330.0</ele><time>2026-04-12T11:04:14.954Z</time></trkpt><trkpt lat="45.228767506159535" lon="13.808637514983213"><ele>329.6666666666667</ele><time>2026-04-12T11:04:15.954Z</time></trkpt><trkpt lat="45.2288504447088" lon="13.808624873518786"><ele>329.33333333333337</ele><time>2026-04-12T11:04:16.954Z</time></trkpt><trkpt lat="45.22894081953104" lon="13.808599215851658"><ele>329.0</ele><time>2026-04-12T11:04:17.954Z</time></trkpt><trkpt lat="45.229045445507474" lon="13.808549282285743"><ele>328.83333333333337</ele><time>2026-04-12T11:04:18.954Z</time></trkpt><trkpt lat="45.229148133480734" lon="13.808510672991838"><ele>328.6666666666667</ele><time>2026-04-12T11:04:19.954Z</time></trkpt><trkpt lat="45.22923717314402" lon="13.808456443698688"><ele>328.5</ele><time>2026-04-12T11:04:20.954Z</time></trkpt><trkpt lat="45.22931785117363" lon="13.80841662301218"><ele>328.3333333333333</ele><time>2026-04-12T11:04:21.954Z</time></trkpt><trkpt lat="45.229389804762555" lon="13.80843755579101"><ele>328.16666666666663</ele><time>2026-04-12T11:04:22.954Z</time></trkpt><trkpt lat="45.22946820374342" lon="13.808391814296836"><ele>328.0</ele><time>2026-04-12T11:04:24.954Z</time></trkpt><trkpt lat="45.22952439584557" lon="13.808333499630852"><ele>328.16666666666663</ele><time>2026-04-12T11:04:27.954Z</time></trkpt><trkpt lat="45.229578959054436" lon="13.808221259026766"><ele>328.3333333333333</ele><time>2026-04-12T11:04:29.954Z</time></trkpt><trkpt lat="45.22959670534274" lon="13.80813359131139"><ele>328.5</ele><time>2026-04-12T11:04:30.954Z</time></trkpt><trkpt lat="45.2295953338578" lon="13.80802084372317"><ele>328.6666666666667</ele><time>2026-04-12T11:04:31.954Z</time></trkpt><trkpt lat="45.22958995393489" lon="13.807885895543606"><ele>328.83333333333337</ele><time>2026-04-12T11:04:32.954Z</time></trkpt><trkpt lat="45.229587294992506" lon="13.807741798306834"><ele>329.0</ele><time>2026-04-12T11:04:33.954Z</time></trkpt><trkpt lat="45.22957561145074" lon="13.807542240657416"><ele>329.0</ele><time>2026-04-12T11:04:34.954Z</time></trkpt><trkpt lat="45.22956053465585" lon="13.807337439523863"><ele>329.0</ele><time>2026-04-12T11:04:35.954Z</time></trkpt><trkpt lat="45.2295481989129" lon="13.807123043961433"><ele>329.0</ele><time>2026-04-12T11:04:36.954Z</time></trkpt><trkpt lat="45.22954831210137" lon="13.806908099386991"><ele>329.0</ele><time>2026-04-12T11:04:37.954Z</time></trkpt><trkpt lat="45.229562539185004" lon="13.806685512027718"><ele>329.6666666666667</ele><time>2026-04-12T11:04:38.954Z</time></trkpt><trkpt lat="45.22958460284869" lon="13.806464513651855"><ele>330.3333333333333</ele><time>2026-04-12T11:04:39.954Z</time></trkpt><trkpt lat="45.229598496873706" lon="13.806236823101758"><ele>331.0</ele><time>2026-04-12T11:04:40.954Z</time></trkpt><trkpt lat="45.229622971288734" lon="13.806022237238178"><ele>331.0</ele><time>2026-04-12T11:04:41.954Z</time></trkpt><trkpt lat="45.22969672463678" lon="13.80581525712198"><ele>331.0</ele><time>2026-04-12T11:04:42.954Z</time></trkpt><trkpt lat="45.22972624867075" lon="13.805604905463273"><ele>331.0</ele><time>2026-04-12T11:04:43.954Z</time></trkpt><trkpt lat="45.22975848580484" lon="13.805399020606432"><ele>331.0</ele><time>2026-04-12T11:04:44.954Z</time></trkpt><trkpt lat="45.22978951934365" lon="13.80519073702414"><ele>331.0</ele><time>2026-04-12T11:04:45.954Z</time></trkpt><trkpt lat="45.22981262837155" lon="13.804997279992236"><ele>331.0</ele><time>2026-04-12T11:04:46.954Z</time></trkpt><trkpt lat="45.229826622858546" lon="13.804818223963284"><ele>331.0</ele><time>2026-04-12T11:04:47.954Z</time></trkpt><trkpt lat="45.229821807620496" lon="13.804657359427285"><ele>331.20000000000005</ele><time>2026-04-12T11:04:48.954Z</time></trkpt><trkpt lat="45.22983134468214" lon="13.80451011433118"><ele>331.40000000000003</ele><time>2026-04-12T11:04:49.954Z</time></trkpt><trkpt lat="45.229853119298184" lon="13.80437058745748"><ele>331.6</ele><time>2026-04-12T11:04:50.954Z</time></trkpt><trkpt lat="45.22986347814117" lon="13.804224752984226"><ele>331.8</ele><time>2026-04-12T11:04:51.954Z</time></trkpt><trkpt lat="45.22987948469983" lon="13.80407183309423"><ele>332.0</ele><time>2026-04-12T11:04:52.954Z</time></trkpt><trkpt lat="45.229890063017535" lon="13.803926959079316"><ele>332.0</ele><time>2026-04-12T11:04:53.954Z</time></trkpt><trkpt lat="45.22990437516652" lon="13.803782168615312"><ele>332.0</ele><time>2026-04-12T11:04:54.954Z</time></trkpt><trkpt lat="45.229926368652265" lon="13.803646974427181"><ele>332.0</ele><time>2026-04-12T11:04:55.954Z</time></trkpt><trkpt lat="45.22995458917531" lon="13.80351297544976"><ele>332.0</ele><time>2026-04-12T11:04:56.954Z</time></trkpt><trkpt lat="45.22998036907371" lon="13.803381820987074"><ele>332.0</ele><time>2026-04-12T11:04:57.954Z</time></trkpt><trkpt lat="45.23001131531905" lon="13.803257473479139"><ele>331.1666666666667</ele><time>2026-04-12T11:04:58.954Z</time></trkpt><trkpt lat="45.23004040274262" lon="13.803139819707182"><ele>330.33333333333337</ele><time>2026-04-12T11:04:59.954Z</time></trkpt><trkpt lat="45.230073306745886" lon="13.803030806397206"><ele>329.5</ele><time>2026-04-12T11:05:00.954Z</time></trkpt><trkpt lat="45.23010403863053" lon="13.802924695281439"><ele>328.6666666666667</ele><time>2026-04-12T11:05:01.954Z</time></trkpt><trkpt lat="45.23013470317273" lon="13.802831555285895"><ele>327.8333333333333</ele><time>2026-04-12T11:05:02.954Z</time></trkpt><trkpt lat="45.230177336080445" lon="13.802710772979536"><ele>327.0</ele><time>2026-04-12T11:05:04.954Z</time></trkpt><trkpt lat="45.23022375157576" lon="13.802635765642064"><ele>327.0</ele><time>2026-04-12T11:05:07.954Z</time></trkpt><trkpt lat="45.23016940124286" lon="13.80273643687415"><ele>327.0</ele><time>2026-04-12T11:05:21.954Z</time></trkpt><trkpt lat="45.23011551391418" lon="13.802832904954279"><ele>327.0</ele><time>2026-04-12T11:05:22.954Z</time></trkpt><trkpt lat="45.230084241335" lon="13.802952156016588"><ele>327.0</ele><time>2026-04-12T11:05:23.954Z</time></trkpt><trkpt lat="45.23004820093215" lon="13.803077956246073"><ele>327.0</ele><time>2026-04-12T11:05:24.954Z</time></trkpt><trkpt lat="45.22999483870083" lon="13.803192800699827"><ele>327.0</ele><time>2026-04-12T11:05:25.954Z</time></trkpt><trkpt lat="45.229959077327095" lon="13.80332989847589"><ele>327.0</ele><time>2026-04-12T11:05:26.954Z</time></trkpt><trkpt lat="45.22994277869014" lon="13.80349906496513"><ele>327.0</ele><time>2026-04-12T11:05:27.954Z</time></trkpt><trkpt lat="45.22991380619787" lon="13.803681348350324"><ele>327.0</ele><time>2026-04-12T11:05:28.954Z</time></trkpt><trkpt lat="45.22988973253886" lon="13.803850875174874"><ele>328.25</ele><time>2026-04-12T11:05:29.954Z</time></trkpt><trkpt lat="45.22987442361261" lon="13.804023823403293"><ele>329.5</ele><time>2026-04-12T11:05:30.954Z</time></trkpt><trkpt lat="45.22985231545057" lon="13.804200689015097"><ele>330.75</ele><time>2026-04-12T11:05:31.954Z</time></trkpt><trkpt lat="45.22983424667252" lon="13.804373052150297"><ele>332.0</ele><time>2026-04-12T11:05:32.954Z</time></trkpt><trkpt lat="45.22981562099229" lon="13.804536922029294"><ele>331.75</ele><time>2026-04-12T11:05:33.954Z</time></trkpt><trkpt lat="45.22980142960822" lon="13.804704223637707"><ele>331.5</ele><time>2026-04-12T11:05:34.954Z</time></trkpt><trkpt lat="45.229793329525634" lon="13.80488018710632"><ele>331.25</ele><time>2026-04-12T11:05:35.954Z</time></trkpt><trkpt lat="45.22977585221695" lon="13.805067230573556"><ele>331.0</ele><time>2026-04-12T11:05:36.954Z</time></trkpt><trkpt lat="45.22975798438236" lon="13.805253762235983"><ele>331.0</ele><time>2026-04-12T11:05:37.954Z</time></trkpt><trkpt lat="45.22973446094781" lon="13.805439878228128"><ele>331.0</ele><time>2026-04-12T11:05:38.954Z</time></trkpt><trkpt lat="45.229685085086196" lon="13.805614054938792"><ele>331.0</ele><time>2026-04-12T11:05:39.954Z</time></trkpt><trkpt lat="45.229656671454364" lon="13.80580482874455"><ele>331.0</ele><time>2026-04-12T11:05:40.954Z</time></trkpt><trkpt lat="45.229630211765276" lon="13.805997998009909"><ele>331.0</ele><time>2026-04-12T11:05:41.954Z</time></trkpt><trkpt lat="45.229606077146194" lon="13.806171468292964"><ele>331.0</ele><time>2026-04-12T11:05:42.954Z</time></trkpt><trkpt lat="45.22959192409991" lon="13.806347933141458"><ele>331.0</ele><time>2026-04-12T11:05:43.954Z</time></trkpt><trkpt lat="45.22957684186167" lon="13.806526883157687"><ele>331.0</ele><time>2026-04-12T11:05:44.954Z</time></trkpt><trkpt lat="45.229559616848746" lon="13.806702083958863"><ele>330.5</ele><time>2026-04-12T11:05:45.954Z</time></trkpt><trkpt lat="45.22954724205591" lon="13.806866640284579"><ele>330.0</ele><time>2026-04-12T11:05:46.954Z</time></trkpt><trkpt lat="45.229537288425966" lon="13.80704613862632"><ele>329.5</ele><time>2026-04-12T11:05:47.954Z</time></trkpt><trkpt lat="45.22953564532693" lon="13.807217813545199"><ele>329.0</ele><time>2026-04-12T11:05:48.954Z</time></trkpt><trkpt lat="45.22954532316997" lon="13.807390378365078"><ele>329.0</ele><time>2026-04-12T11:05:49.954Z</time></trkpt><trkpt lat="45.22955160274882" lon="13.807565935412828"><ele>329.0</ele><time>2026-04-12T11:05:50.954Z</time></trkpt><trkpt lat="45.22956043810294" lon="13.807738641369719"><ele>329.0</ele><time>2026-04-12T11:05:51.954Z</time></trkpt><trkpt lat="45.22956751890633" lon="13.807898567865042"><ele>329.0</ele><time>2026-04-12T11:05:52.954Z</time></trkpt><trkpt lat="45.22956975847327" lon="13.808029762012891"><ele>329.1666666666667</ele><time>2026-04-12T11:05:53.954Z</time></trkpt><trkpt lat="45.22956013803462" lon="13.808151724453817"><ele>329.33333333333337</ele><time>2026-04-12T11:05:54.954Z</time></trkpt><trkpt lat="45.229538789874844" lon="13.808247230620946"><ele>329.5</ele><time>2026-04-12T11:05:55.954Z</time></trkpt><trkpt lat="45.229468655878584" lon="13.80834318605404"><ele>329.6666666666667</ele><time>2026-04-12T11:05:57.954Z</time></trkpt><trkpt lat="45.22938338273656" lon="13.80840258942529"><ele>329.8333333333333</ele><time>2026-04-12T11:05:59.954Z</time></trkpt><trkpt lat="45.229296676922104" lon="13.80843677825183"><ele>330.0</ele><time>2026-04-12T11:06:01.954Z</time></trkpt><trkpt lat="45.22917722153031" lon="13.808503850845943"><ele>329.8333333333333</ele><time>2026-04-12T11:06:03.954Z</time></trkpt><trkpt lat="45.22909915457468" lon="13.808543495707852"><ele>329.6666666666667</ele><time>2026-04-12T11:06:04.954Z</time></trkpt><trkpt lat="45.2290151281297" lon="13.808577841299911"><ele>329.5</ele><time>2026-04-12T11:06:05.954Z</time></trkpt><trkpt lat="45.22893459684871" lon="13.808612451324793"><ele>329.33333333333337</ele><time>2026-04-12T11:06:06.954Z</time></trkpt><trkpt lat="45.22886011490537" lon="13.80863107501102"><ele>329.1666666666667</ele><time>2026-04-12T11:06:07.954Z</time></trkpt><trkpt lat="45.2287892860732" lon="13.808635223205668"><ele>329.0</ele><time>2026-04-12T11:06:08.954Z</time></trkpt><trkpt lat="45.22867076479661" lon="13.80859979445767"><ele>329.0</ele><time>2026-04-12T11:06:10.954Z</time></trkpt><trkpt lat="45.22856464090767" lon="13.808530904191507"><ele>329.0</ele><time>2026-04-12T11:06:12.954Z</time></trkpt><trkpt lat="45.22850089894466" lon="13.80847510617848"><ele>329.0</ele><time>2026-04-12T11:06:13.954Z</time></trkpt><trkpt lat="45.22844347744875" lon="13.808416115892342"><ele>329.0</ele><time>2026-04-12T11:06:14.954Z</time></trkpt><trkpt lat="45.228343601204266" lon="13.808313026082557"><ele>329.0</ele><time>2026-04-12T11:06:16.954Z</time></trkpt><trkpt lat="45.228290421625076" lon="13.80825813706298"><ele>329.2</ele><time>2026-04-12T11:06:17.954Z</time></trkpt><trkpt lat="45.22819586285243" lon="13.808155286627755"><ele>329.4</ele><time>2026-04-12T11:06:19.954Z</time></trkpt><trkpt lat="45.228148156627306" lon="13.808082360746274"><ele>329.6</ele><time>2026-04-12T11:06:20.954Z</time></trkpt><trkpt lat="45.228040644163336" lon="13.807999407097308"><ele>329.8</ele><time>2026-04-12T11:06:22.954Z</time></trkpt><trkpt lat="45.22795624856853" lon="13.807882979473753"><ele>330.0</ele><time>2026-04-12T11:06:24.954Z</time></trkpt><trkpt lat="45.22790466105928" lon="13.807828775869062"><ele>330.0</ele><time>2026-04-12T11:06:25.954Z</time></trkpt><trkpt lat="45.227848875750034" lon="13.807770385956005"><ele>330.0</ele><time>2026-04-12T11:06:26.954Z</time></trkpt><trkpt lat="45.22778643852769" lon="13.807705160921453"><ele>330.0</ele><time>2026-04-12T11:06:27.954Z</time></trkpt><trkpt lat="45.2277345910056" lon="13.807648431442978"><ele>330.0</ele><time>2026-04-12T11:06:28.954Z</time></trkpt><trkpt lat="45.227643328207684" lon="13.80754956522199"><ele>330.0</ele><time>2026-04-12T11:06:30.954Z</time></trkpt><trkpt lat="45.227585108760444" lon="13.807493921548136"><ele>330.0</ele><time>2026-04-12T11:06:32.954Z</time></trkpt><trkpt lat="45.22752081872709" lon="13.80744181414707"><ele>329.6666666666667</ele><time>2026-04-12T11:06:34.954Z</time></trkpt><trkpt lat="45.22744774764163" lon="13.807394149699054"><ele>329.3333333333333</ele><time>2026-04-12T11:06:36.954Z</time></trkpt><trkpt lat="45.227374952828846" lon="13.807357624267215"><ele>329.0</ele><time>2026-04-12T11:06:38.954Z</time></trkpt><trkpt lat="45.227311526316704" lon="13.80732813920834"><ele>328.66666666666663</ele><time>2026-04-12T11:06:40.954Z</time></trkpt><trkpt lat="45.227270925197026" lon="13.807451571738602"><ele>328.3333333333333</ele><time>2026-04-12T11:06:43.954Z</time></trkpt><trkpt lat="45.22726299457304" lon="13.80756484621733"><ele>328.0</ele><time>2026-04-12T11:07:52.953Z</time></trkpt><trkpt lat="45.227260962931595" lon="13.807673990431924"><ele>328.5</ele><time>2026-04-12T11:07:53.954Z</time></trkpt><trkpt lat="45.22728472547796" lon="13.807813195814553"><ele>329.0</ele><time>2026-04-12T11:07:54.954Z</time></trkpt><trkpt lat="45.2273104315484" lon="13.807956015321206"><ele>329.5</ele><time>2026-04-12T11:07:55.954Z</time></trkpt><trkpt lat="45.22733603461138" lon="13.808131266169283"><ele>330.0</ele><time>2026-04-12T11:07:56.954Z</time></trkpt><trkpt lat="45.22736286031176" lon="13.808305733791794"><ele>330.0</ele><time>2026-04-12T11:07:57.954Z</time></trkpt><trkpt lat="45.22739104351688" lon="13.808469400572449"><ele>330.0</ele><time>2026-04-12T11:07:58.953Z</time></trkpt><trkpt lat="45.22741720549527" lon="13.80863071725666"><ele>330.0</ele><time>2026-04-12T11:07:59.954Z</time></trkpt><trkpt lat="45.2274430081812" lon="13.808809676111924"><ele>330.0</ele><time>2026-04-12T11:08:00.954Z</time></trkpt><trkpt lat="45.22746398953746" lon="13.808990676573563"><ele>330.0</ele><time>2026-04-12T11:08:01.953Z</time></trkpt><trkpt lat="45.22747355560449" lon="13.809177963617882"><ele>330.0</ele><time>2026-04-12T11:08:02.954Z</time></trkpt><trkpt lat="45.227484037241524" lon="13.809356356459762"><ele>330.0</ele><time>2026-04-12T11:08:03.954Z</time></trkpt><trkpt lat="45.22748526136342" lon="13.809523903145731"><ele>330.0</ele><time>2026-04-12T11:08:04.954Z</time></trkpt><trkpt lat="45.22747336106479" lon="13.809690212924561"><ele>330.0</ele><time>2026-04-12T11:08:05.954Z</time></trkpt><trkpt lat="45.22744008029672" lon="13.809839275092898"><ele>330.0</ele><time>2026-04-12T11:08:06.954Z</time></trkpt><trkpt lat="45.227423743152926" lon="13.809973615310902"><ele>330.0</ele><time>2026-04-12T11:08:07.954Z</time></trkpt><trkpt lat="45.227412572210795" lon="13.810095219171071"><ele>330.0</ele><time>2026-04-12T11:08:08.954Z</time></trkpt><trkpt lat="45.22741875137414" lon="13.810209130917299"><ele>330.0</ele><time>2026-04-12T11:08:09.954Z</time></trkpt><trkpt lat="45.227411746108345" lon="13.810339894266802"><ele>330.1666666666667</ele><time>2026-04-12T11:08:11.954Z</time></trkpt><trkpt lat="45.227396333417225" lon="13.810498419185647"><ele>330.3333333333333</ele><time>2026-04-12T11:08:40.954Z</time></trkpt><trkpt lat="45.227391982899746" lon="13.810605901406905"><ele>330.5</ele><time>2026-04-12T11:08:41.954Z</time></trkpt><trkpt lat="45.22734866711416" lon="13.810695755984659"><ele>330.66666666666663</ele><time>2026-04-12T11:08:42.954Z</time></trkpt><trkpt lat="45.22731425972113" lon="13.810779597692058"><ele>330.8333333333333</ele><time>2026-04-12T11:08:43.954Z</time></trkpt><trkpt lat="45.22726864850764" lon="13.810863182679743"><ele>331.0</ele><time>2026-04-12T11:08:44.955Z</time></trkpt><trkpt lat="45.22722392732133" lon="13.81093543916924"><ele>331.3333333333333</ele><time>2026-04-12T11:08:45.955Z</time></trkpt><trkpt lat="45.22717562461297" lon="13.81101736873463"><ele>331.66666666666663</ele><time>2026-04-12T11:08:46.955Z</time></trkpt><trkpt lat="45.22713993985365" lon="13.811114649494634"><ele>332.0</ele><time>2026-04-12T11:08:47.955Z</time></trkpt><trkpt lat="45.22710161881294" lon="13.811201752636117"><ele>332.3333333333333</ele><time>2026-04-12T11:08:48.955Z</time></trkpt><trkpt lat="45.22705950682017" lon="13.81135078235301"><ele>332.6666666666667</ele><time>2026-04-12T11:08:50.955Z</time></trkpt><trkpt lat="45.2270679453875" lon="13.811443464144181"><ele>333.0</ele><time>2026-04-12T11:08:52.955Z</time></trkpt><trkpt lat="45.22705946928081" lon="13.811594061735596"><ele>333.0</ele><time>2026-04-12T11:08:55.955Z</time></trkpt><trkpt lat="45.22700069742501" lon="13.811742557189334"><ele>333.0</ele><time>2026-04-12T11:08:57.955Z</time></trkpt><trkpt lat="45.226926288975775" lon="13.811889355024908"><ele>333.0</ele><time>2026-04-12T11:08:59.955Z</time></trkpt><trkpt lat="45.22687734156135" lon="13.811969911053277"><ele>333.0</ele><time>2026-04-12T11:09:00.955Z</time></trkpt><trkpt lat="45.226842666210715" lon="13.812044980891969"><ele>333.0</ele><time>2026-04-12T11:09:01.955Z</time></trkpt><trkpt lat="45.226834040529575" lon="13.812181116079156"><ele>333.59999999999997</ele><time>2026-04-12T11:09:03.955Z</time></trkpt><trkpt lat="45.22683461154098" lon="13.812294544307285"><ele>334.2</ele><time>2026-04-12T11:09:05.955Z</time></trkpt><trkpt lat="45.22684615603354" lon="13.812427482370545"><ele>334.8</ele><time>2026-04-12T11:09:07.955Z</time></trkpt><trkpt lat="45.226890442859236" lon="13.812565248428694"><ele>335.4</ele><time>2026-04-12T11:09:09.955Z</time></trkpt><trkpt lat="45.2269263307304" lon="13.812726011989652"><ele>336.0</ele><time>2026-04-12T11:09:11.955Z</time></trkpt><trkpt lat="45.22695959479347" lon="13.812872618719839"><ele>336.1666666666667</ele><time>2026-04-12T11:09:13.955Z</time></trkpt><trkpt lat="45.22698569827854" lon="13.812998574756888"><ele>336.3333333333333</ele><time>2026-04-12T11:09:15.955Z</time></trkpt><trkpt lat="45.227028737421996" lon="13.813087009085992"><ele>336.5</ele><time>2026-04-12T11:09:17.955Z</time></trkpt><trkpt lat="45.227094300954725" lon="13.813160253663966"><ele>336.66666666666663</ele><time>2026-04-12T11:09:19.955Z</time></trkpt><trkpt lat="45.227138744220305" lon="13.813225281725634"><ele>336.8333333333333</ele><time>2026-04-12T11:09:20.955Z</time></trkpt><trkpt lat="45.2272344417752" lon="13.813313671103995"><ele>337.0</ele><time>2026-04-12T11:09:22.955Z</time></trkpt><trkpt lat="45.22730168543284" lon="13.813348081518638"><ele>337.16666666666663</ele><time>2026-04-12T11:09:23.955Z</time></trkpt><trkpt lat="45.22737699172817" lon="13.81339369575635"><ele>337.3333333333333</ele><time>2026-04-12T11:09:24.955Z</time></trkpt><trkpt lat="45.22745556453989" lon="13.813431560474335"><ele>337.5</ele><time>2026-04-12T11:09:25.955Z</time></trkpt><trkpt lat="45.227535199691985" lon="13.813482081857101"><ele>337.6666666666667</ele><time>2026-04-12T11:09:26.955Z</time></trkpt><trkpt lat="45.22760968892763" lon="13.813538141702749"><ele>337.83333333333337</ele><time>2026-04-12T11:09:27.955Z</time></trkpt><trkpt lat="45.22768073332341" lon="13.813593919903525"><ele>338.0</ele><time>2026-04-12T11:09:28.955Z</time></trkpt><trkpt lat="45.227739703234384" lon="13.813630202083711"><ele>338.0</ele><time>2026-04-12T11:09:29.955Z</time></trkpt><trkpt lat="45.22781466965109" lon="13.813671704069652"><ele>338.0</ele><time>2026-04-12T11:09:31.955Z</time></trkpt><trkpt lat="45.227888657039074" lon="13.813724628211961"><ele>338.0</ele><time>2026-04-12T11:09:33.955Z</time></trkpt><trkpt lat="45.22796697865151" lon="13.813765898775365"><ele>338.0</ele><time>2026-04-12T11:09:35.955Z</time></trkpt><trkpt lat="45.228061742055544" lon="13.813820402604213"><ele>338.0</ele><time>2026-04-12T11:09:40.955Z</time></trkpt><trkpt lat="45.22815525909216" lon="13.813882606095397"><ele>337.59999999999997</ele><time>2026-04-12T11:09:42.955Z</time></trkpt><trkpt lat="45.22822857211652" lon="13.81390274422548"><ele>337.2</ele><time>2026-04-12T11:09:43.955Z</time></trkpt><trkpt lat="45.22831473943997" lon="13.813930136053136"><ele>336.8</ele><time>2026-04-12T11:09:44.955Z</time></trkpt><trkpt lat="45.22838563068316" lon="13.813962348589515"><ele>336.4</ele><time>2026-04-12T11:09:45.955Z</time></trkpt><trkpt lat="45.22852000209259" lon="13.813994770543932"><ele>336.0</ele><time>2026-04-12T11:09:47.955Z</time></trkpt><trkpt lat="45.228599077461084" lon="13.814038889528389"><ele>336.0</ele><time>2026-04-12T11:09:48.955Z</time></trkpt><trkpt lat="45.228679684784844" lon="13.81409115827944"><ele>336.0</ele><time>2026-04-12T11:09:49.955Z</time></trkpt><trkpt lat="45.2287569854159" lon="13.814148542437943"><ele>336.0</ele><time>2026-04-12T11:09:50.955Z</time></trkpt><trkpt lat="45.228824527571845" lon="13.814215339657462"><ele>336.0</ele><time>2026-04-12T11:09:51.955Z</time></trkpt><trkpt lat="45.22888114667639" lon="13.814269826076469"><ele>336.0</ele><time>2026-04-12T11:09:52.955Z</time></trkpt><trkpt lat="45.228948769202134" lon="13.814329409362934"><ele>336.0</ele><time>2026-04-12T11:09:54.955Z</time></trkpt><trkpt lat="45.22901959919463" lon="13.814386109324884"><ele>335.7142857142857</ele><time>2026-04-12T11:09:57.955Z</time></trkpt><trkpt lat="45.2290750123181" lon="13.814433239139873"><ele>335.42857142857144</ele><time>2026-04-12T11:10:00.955Z</time></trkpt><trkpt lat="45.2291402710766" lon="13.814490219751741"><ele>335.1428571428571</ele><time>2026-04-12T11:10:03.954Z</time></trkpt><trkpt lat="45.22918471417558" lon="13.8145618963969"><ele>334.8571428571429</ele><time>2026-04-12T11:10:05.955Z</time></trkpt><trkpt lat="45.22925183365255" lon="13.814638182402286"><ele>334.57142857142856</ele><time>2026-04-12T11:10:07.955Z</time></trkpt><trkpt lat="45.22930538686031" lon="13.814686199730081"><ele>334.2857142857143</ele><time>2026-04-12T11:10:08.955Z</time></trkpt><trkpt lat="45.22935957183929" lon="13.814742869368157"><ele>334.0</ele><time>2026-04-12T11:10:09.955Z</time></trkpt><trkpt lat="45.22941488788371" lon="13.814789153968219"><ele>334.0</ele><time>2026-04-12T11:10:10.955Z</time></trkpt><trkpt lat="45.22948035222358" lon="13.814859376397138"><ele>334.0</ele><time>2026-04-12T11:10:11.955Z</time></trkpt><trkpt lat="45.22954318776" lon="13.814933163335223"><ele>334.0</ele><time>2026-04-12T11:10:12.955Z</time></trkpt><trkpt lat="45.22961955810359" lon="13.815018037521627"><ele>334.0</ele><time>2026-04-12T11:10:13.955Z</time></trkpt><trkpt lat="45.22969895323482" lon="13.815118227610524"><ele>334.0</ele><time>2026-04-12T11:10:14.955Z</time></trkpt><trkpt lat="45.229769956705915" lon="13.815227546415382"><ele>334.2</ele><time>2026-04-12T11:10:15.955Z</time></trkpt><trkpt lat="45.22984912441232" lon="13.815342285554316"><ele>334.4</ele><time>2026-04-12T11:10:16.955Z</time></trkpt><trkpt lat="45.22992046759266" lon="13.815430417177966"><ele>334.6</ele><time>2026-04-12T11:10:17.955Z</time></trkpt><trkpt lat="45.22998288729585" lon="13.815527848049097"><ele>334.8</ele><time>2026-04-12T11:10:18.955Z</time></trkpt><trkpt lat="45.23002838697697" lon="13.815609550344645"><ele>335.0</ele><time>2026-04-12T11:10:19.955Z</time></trkpt><trkpt lat="45.23008895276816" lon="13.815675817729955"><ele>335.0</ele><time>2026-04-12T11:10:20.955Z</time></trkpt><trkpt lat="45.23014908728889" lon="13.815728470606448"><ele>335.0</ele><time>2026-04-12T11:10:21.955Z</time></trkpt><trkpt lat="45.230212418216" lon="13.815770094858621"><ele>335.0</ele><time>2026-04-12T11:10:22.955Z</time></trkpt><trkpt lat="45.23027414996889" lon="13.815801439895507"><ele>335.0</ele><time>2026-04-12T11:10:23.955Z</time></trkpt><trkpt lat="45.23036543707597" lon="13.815898653723751"><ele>335.0</ele><time>2026-04-12T11:10:25.955Z</time></trkpt><trkpt lat="45.23042164287216" lon="13.81607525266167"><ele>334.8</ele><time>2026-04-12T11:10:27.955Z</time></trkpt><trkpt lat="45.230452532947055" lon="13.816212386130738"><ele>334.6</ele><time>2026-04-12T11:10:28.955Z</time></trkpt><trkpt lat="45.23050628688003" lon="13.81635398546597"><ele>334.4</ele><time>2026-04-12T11:10:29.955Z</time></trkpt><trkpt lat="45.230557635340254" lon="13.816496583387455"><ele>334.2</ele><time>2026-04-12T11:10:30.955Z</time></trkpt><trkpt lat="45.23062634465994" lon="13.816635240611845"><ele>334.0</ele><time>2026-04-12T11:10:31.955Z</time></trkpt><trkpt lat="45.230696460173" lon="13.816770633535972"><ele>333.75</ele><time>2026-04-12T11:10:32.955Z</time></trkpt><trkpt lat="45.23078657041957" lon="13.816922219272598"><ele>333.5</ele><time>2026-04-12T11:10:33.955Z</time></trkpt><trkpt lat="45.230876047740594" lon="13.817055202061356"><ele>333.25</ele><time>2026-04-12T11:10:34.955Z</time></trkpt><trkpt lat="45.23095467432966" lon="13.817186746386758"><ele>333.0</ele><time>2026-04-12T11:10:35.955Z</time></trkpt><trkpt lat="45.23104490815714" lon="13.817320811380402"><ele>333.0</ele><time>2026-04-12T11:10:36.955Z</time></trkpt><trkpt lat="45.23112700794031" lon="13.81745511786695"><ele>333.0</ele><time>2026-04-12T11:10:37.955Z</time></trkpt><trkpt lat="45.23119978538857" lon="13.817578548073806"><ele>333.0</ele><time>2026-04-12T11:10:38.955Z</time></trkpt><trkpt lat="45.23127585915492" lon="13.81770631537197"><ele>333.0</ele><time>2026-04-12T11:10:39.955Z</time></trkpt><trkpt lat="45.23133839734719" lon="13.817823010698826"><ele>333.0</ele><time>2026-04-12T11:10:40.955Z</time></trkpt><trkpt lat="45.23140358634909" lon="13.817941839113363"><ele>333.0</ele><time>2026-04-12T11:10:41.955Z</time></trkpt><trkpt lat="45.23145995217187" lon="13.81806336566466"><ele>333.0</ele><time>2026-04-12T11:10:42.955Z</time></trkpt><trkpt lat="45.231502069962815" lon="13.818196828771931"><ele>333.0</ele><time>2026-04-12T11:10:43.955Z</time></trkpt><trkpt lat="45.23154587624082" lon="13.818333280026103"><ele>333.0</ele><time>2026-04-12T11:10:44.955Z</time></trkpt><trkpt lat="45.23161221026171" lon="13.818451150073251"><ele>332.25</ele><time>2026-04-12T11:10:45.955Z</time></trkpt><trkpt lat="45.23167912484955" lon="13.81858126879312"><ele>331.5</ele><time>2026-04-12T11:10:46.955Z</time></trkpt><trkpt lat="45.23173578351482" lon="13.81872954497144"><ele>330.75</ele><time>2026-04-12T11:10:47.955Z</time></trkpt><trkpt lat="45.231802828703394" lon="13.818872557026166"><ele>330.0</ele><time>2026-04-12T11:10:48.955Z</time></trkpt><trkpt lat="45.23187899026638" lon="13.819014378501048"><ele>330.0</ele><time>2026-04-12T11:10:49.955Z</time></trkpt><trkpt lat="45.23195091257773" lon="13.819154049872525"><ele>330.0</ele><time>2026-04-12T11:10:50.955Z</time></trkpt><trkpt lat="45.23201798221468" lon="13.81928835146437"><ele>330.0</ele><time>2026-04-12T11:10:51.955Z</time></trkpt><trkpt lat="45.232094087873406" lon="13.819399449110302"><ele>330.0</ele><time>2026-04-12T11:10:52.955Z</time></trkpt><trkpt lat="45.23216506144576" lon="13.819512509994537"><ele>330.25</ele><time>2026-04-12T11:10:53.955Z</time></trkpt><trkpt lat="45.23222057361089" lon="13.81964618131784"><ele>330.5</ele><time>2026-04-12T11:10:54.955Z</time></trkpt><trkpt lat="45.23227518257693" lon="13.819793734437607"><ele>330.75</ele><time>2026-04-12T11:10:55.955Z</time></trkpt><trkpt lat="45.23234542961126" lon="13.819955900394735"><ele>331.0</ele><time>2026-04-12T11:10:56.955Z</time></trkpt><trkpt lat="45.232414901039924" lon="13.820119538890973"><ele>330.0</ele><time>2026-04-12T11:10:57.955Z</time></trkpt><trkpt lat="45.232476515065294" lon="13.820281012879134"><ele>329.0</ele><time>2026-04-12T11:10:58.955Z</time></trkpt><trkpt lat="45.232534542491884" lon="13.820427341552195"><ele>328.0</ele><time>2026-04-12T11:10:59.955Z</time></trkpt><trkpt lat="45.23259056250342" lon="13.82057103271101"><ele>327.0</ele><time>2026-04-12T11:11:00.955Z</time></trkpt><trkpt lat="45.23265727489083" lon="13.820723865665537"><ele>327.0</ele><time>2026-04-12T11:11:01.955Z</time></trkpt><trkpt lat="45.23272203584408" lon="13.820883934806469"><ele>327.0</ele><time>2026-04-12T11:11:02.955Z</time></trkpt><trkpt lat="45.2327940645687" lon="13.82104139846361"><ele>327.0</ele><time>2026-04-12T11:11:03.955Z</time></trkpt><trkpt lat="45.23287063681252" lon="13.821186848533964"><ele>327.0</ele><time>2026-04-12T11:11:04.955Z</time></trkpt><trkpt lat="45.232954288388186" lon="13.821319904157589"><ele>327.0</ele><time>2026-04-12T11:11:05.955Z</time></trkpt><trkpt lat="45.23303843071322" lon="13.821455408560213"><ele>327.0</ele><time>2026-04-12T11:11:06.955Z</time></trkpt><trkpt lat="45.233111910116186" lon="13.821593876638456"><ele>327.0</ele><time>2026-04-12T11:11:07.955Z</time></trkpt><trkpt lat="45.23317449226271" lon="13.821722011392403"><ele>327.0</ele><time>2026-04-12T11:11:08.955Z</time></trkpt><trkpt lat="45.23323565511996" lon="13.821860596346424"><ele>328.0</ele><time>2026-04-12T11:11:09.955Z</time></trkpt><trkpt lat="45.23329052374284" lon="13.821988725774752"><ele>329.0</ele><time>2026-04-12T11:11:10.955Z</time></trkpt><trkpt lat="45.233362770508116" lon="13.822121445595174"><ele>330.0</ele><time>2026-04-12T11:11:11.955Z</time></trkpt><trkpt lat="45.23342688975249" lon="13.822259970938411"><ele>331.0</ele><time>2026-04-12T11:11:12.955Z</time></trkpt><trkpt lat="45.23347835312079" lon="13.822396563001881"><ele>331.0</ele><time>2026-04-12T11:11:13.955Z</time></trkpt><trkpt lat="45.2335176316975" lon="13.822536391544654"><ele>331.0</ele><time>2026-04-12T11:11:14.955Z</time></trkpt><trkpt lat="45.2335561397014" lon="13.822704467531084"><ele>331.0</ele><time>2026-04-12T11:11:15.955Z</time></trkpt><trkpt lat="45.23360678328974" lon="13.822853820939981"><ele>331.0</ele><time>2026-04-12T11:11:16.955Z</time></trkpt><trkpt lat="45.23365687990896" lon="13.822967193957938"><ele>331.0</ele><time>2026-04-12T11:11:17.955Z</time></trkpt><trkpt lat="45.23370512430225" lon="13.823073226787058"><ele>330.8333333333333</ele><time>2026-04-12T11:11:18.955Z</time></trkpt><trkpt lat="45.23374217586917" lon="13.823148667947212"><ele>330.66666666666663</ele><time>2026-04-12T11:11:19.955Z</time></trkpt><trkpt lat="45.23381235234277" lon="13.823280405720404"><ele>330.5</ele><time>2026-04-12T11:11:21.955Z</time></trkpt><trkpt lat="45.23386477642785" lon="13.823363614939435"><ele>330.3333333333333</ele><time>2026-04-12T11:11:23.955Z</time></trkpt><trkpt lat="45.23395602936738" lon="13.823382712948314"><ele>330.1666666666667</ele><time>2026-04-12T11:11:26.955Z</time></trkpt><trkpt lat="45.234036589047946" lon="13.823350428418316"><ele>330.0</ele><time>2026-04-12T11:11:27.955Z</time></trkpt><trkpt lat="45.23411579112365" lon="13.823300307620514"><ele>330.0</ele><time>2026-04-12T11:11:28.955Z</time></trkpt><trkpt lat="45.23420042153614" lon="13.823257845522837"><ele>330.0</ele><time>2026-04-12T11:11:29.955Z</time></trkpt><trkpt lat="45.23430609923927" lon="13.823218642513465"><ele>330.0</ele><time>2026-04-12T11:11:30.955Z</time></trkpt><trkpt lat="45.23442163768" lon="13.823172187649122"><ele>330.0</ele><time>2026-04-12T11:11:31.955Z</time></trkpt><trkpt lat="45.23453354627212" lon="13.82312890731419"><ele>330.0</ele><time>2026-04-12T11:11:32.955Z</time></trkpt><trkpt lat="45.23465964466924" lon="13.823067269500566"><ele>330.0</ele><time>2026-04-12T11:11:33.955Z</time></trkpt><trkpt lat="45.2348003068685" lon="13.823002804120854"><ele>330.0</ele><time>2026-04-12T11:11:34.955Z</time></trkpt><trkpt lat="45.23493043027187" lon="13.822949632571587"><ele>330.0</ele><time>2026-04-12T11:11:35.955Z</time></trkpt><trkpt lat="45.235065425906484" lon="13.822893796299915"><ele>330.0</ele><time>2026-04-12T11:11:36.955Z</time></trkpt><trkpt lat="45.235197993798195" lon="13.822835842863972"><ele>331.3333333333333</ele><time>2026-04-12T11:11:37.955Z</time></trkpt><trkpt lat="45.235355557959444" lon="13.822755833846317"><ele>332.66666666666663</ele><time>2026-04-12T11:11:38.955Z</time></trkpt><trkpt lat="45.235495728815344" lon="13.822662623872729"><ele>334.0</ele><time>2026-04-12T11:11:39.955Z</time></trkpt><trkpt lat="45.235630063222" lon="13.822553736287759"><ele>333.75</ele><time>2026-04-12T11:11:40.955Z</time></trkpt><trkpt lat="45.235745830604124" lon="13.8224443757323"><ele>333.5</ele><time>2026-04-12T11:11:41.955Z</time></trkpt><trkpt lat="45.235866287785434" lon="13.822342988459296"><ele>333.25</ele><time>2026-04-12T11:11:42.955Z</time></trkpt><trkpt lat="45.235996040077126" lon="13.822234883202752"><ele>333.0</ele><time>2026-04-12T11:11:43.955Z</time></trkpt><trkpt lat="45.23612196202047" lon="13.822102413477438"><ele>333.0</ele><time>2026-04-12T11:11:44.955Z</time></trkpt><trkpt lat="45.23624471352434" lon="13.821926311459329"><ele>333.0</ele><time>2026-04-12T11:11:45.955Z</time></trkpt><trkpt lat="45.23633981230591" lon="13.821720958570682"><ele>333.0</ele><time>2026-04-12T11:11:46.955Z</time></trkpt><trkpt lat="45.23641344768854" lon="13.821510287162532"><ele>334.3333333333333</ele><time>2026-04-12T11:11:47.955Z</time></trkpt><trkpt lat="45.23647354857635" lon="13.82129462051009"><ele>335.66666666666663</ele><time>2026-04-12T11:11:48.955Z</time></trkpt><trkpt lat="45.23652695349636" lon="13.821086861756491"><ele>337.0</ele><time>2026-04-12T11:11:49.955Z</time></trkpt><trkpt lat="45.23658173314261" lon="13.820898191105378"><ele>337.6</ele><time>2026-04-12T11:11:50.955Z</time></trkpt><trkpt lat="45.236639058791326" lon="13.820729689789593"><ele>338.20000000000005</ele><time>2026-04-12T11:11:51.955Z</time></trkpt><trkpt lat="45.23668286569356" lon="13.820575832018621"><ele>338.8</ele><time>2026-04-12T11:11:52.955Z</time></trkpt><trkpt lat="45.236703375921365" lon="13.820456305078329"><ele>339.4</ele><time>2026-04-12T11:11:53.955Z</time></trkpt><trkpt lat="45.236727515000254" lon="13.820323480099155"><ele>340.0</ele><time>2026-04-12T11:11:55.955Z</time></trkpt><trkpt lat="45.236895675095184" lon="13.820318487394822"><ele>340.0</ele><time>2026-04-12T11:11:59.956Z</time></trkpt><trkpt lat="45.23700979923775" lon="13.820415095699873"><ele>340.0</ele><time>2026-04-12T11:12:01.954Z</time></trkpt><trkpt lat="45.23709327916444" lon="13.820483451118562"><ele>340.0</ele><time>2026-04-12T11:12:02.955Z</time></trkpt><trkpt lat="45.23718357040693" lon="13.820578437668825"><ele>340.0</ele><time>2026-04-12T11:12:03.955Z</time></trkpt><trkpt lat="45.237263757328705" lon="13.8206739888284"><ele>340.0</ele><time>2026-04-12T11:12:04.954Z</time></trkpt><trkpt lat="45.237356134150836" lon="13.820777423635024"><ele>340.0</ele><time>2026-04-12T11:12:05.954Z</time></trkpt><trkpt lat="45.23744324771897" lon="13.820866137958184"><ele>340.0</ele><time>2026-04-12T11:12:06.954Z</time></trkpt><trkpt lat="45.23751849977243" lon="13.820942138943108"><ele>340.0</ele><time>2026-04-12T11:12:07.954Z</time></trkpt><trkpt lat="45.23758927287117" lon="13.821034027701362"><ele>340.0</ele><time>2026-04-12T11:12:08.955Z</time></trkpt><trkpt lat="45.23764262958139" lon="13.821117902258703"><ele>340.0</ele><time>2026-04-12T11:12:09.955Z</time></trkpt><trkpt lat="45.23767836409789" lon="13.821215343524418"><ele>339.8</ele><time>2026-04-12T11:12:10.954Z</time></trkpt><trkpt lat="45.23770485347223" lon="13.821326499571484"><ele>339.6</ele><time>2026-04-12T11:12:11.954Z</time></trkpt><trkpt lat="45.23772504911965" lon="13.821464630900643"><ele>339.4</ele><time>2026-04-12T11:12:12.954Z</time></trkpt><trkpt lat="45.237756209624976" lon="13.82161532590367"><ele>339.2</ele><time>2026-04-12T11:12:13.955Z</time></trkpt><trkpt lat="45.23778554936365" lon="13.821788224036315"><ele>339.0</ele><time>2026-04-12T11:12:14.955Z</time></trkpt><trkpt lat="45.237835414666385" lon="13.821938222114833"><ele>339.0</ele><time>2026-04-12T11:12:15.955Z</time></trkpt><trkpt lat="45.2378860523814" lon="13.8220859332688"><ele>339.0</ele><time>2026-04-12T11:12:16.955Z</time></trkpt><trkpt lat="45.237930252024036" lon="13.822218732494127"><ele>339.0</ele><time>2026-04-12T11:12:17.955Z</time></trkpt><trkpt lat="45.23797196487603" lon="13.822353830108028"><ele>339.0</ele><time>2026-04-12T11:12:18.955Z</time></trkpt><trkpt lat="45.238013493241354" lon="13.82249736770594"><ele>339.0</ele><time>2026-04-12T11:12:19.955Z</time></trkpt><trkpt lat="45.238055712234065" lon="13.8226490653035"><ele>339.0</ele><time>2026-04-12T11:12:20.955Z</time></trkpt><trkpt lat="45.2380979741717" lon="13.82280235581328"><ele>339.0</ele><time>2026-04-12T11:12:21.955Z</time></trkpt><trkpt lat="45.23815840919312" lon="13.822966894011007"><ele>339.0</ele><time>2026-04-12T11:12:22.955Z</time></trkpt><trkpt lat="45.23820267100124" lon="13.82313518047529"><ele>339.0</ele><time>2026-04-12T11:12:23.955Z</time></trkpt><trkpt lat="45.23825505793792" lon="13.823304221743498"><ele>341.25</ele><time>2026-04-12T11:12:24.955Z</time></trkpt><trkpt lat="45.2383136402781" lon="13.823460885719005"><ele>343.5</ele><time>2026-04-12T11:12:25.955Z</time></trkpt><trkpt lat="45.238356423759704" lon="13.823631738771972"><ele>345.75</ele><time>2026-04-12T11:12:26.955Z</time></trkpt><trkpt lat="45.238401947760025" lon="13.823785909544828"><ele>348.0</ele><time>2026-04-12T11:12:27.955Z</time></trkpt><trkpt lat="45.238439393570715" lon="13.823949616879842"><ele>348.0</ele><time>2026-04-12T11:12:28.955Z</time></trkpt><trkpt lat="45.23846710366598" lon="13.824123655621351"><ele>348.0</ele><time>2026-04-12T11:12:29.955Z</time></trkpt><trkpt lat="45.238513598777054" lon="13.82431065169466"><ele>348.0</ele><time>2026-04-12T11:12:30.955Z</time></trkpt><trkpt lat="45.238542013848075" lon="13.824488906101612"><ele>348.0</ele><time>2026-04-12T11:12:31.955Z</time></trkpt><trkpt lat="45.238615793545414" lon="13.824688820219977"><ele>347.75</ele><time>2026-04-12T11:12:32.955Z</time></trkpt><trkpt lat="45.23866894004685" lon="13.824868294317898"><ele>347.5</ele><time>2026-04-12T11:12:33.955Z</time></trkpt><trkpt lat="45.23868995573061" lon="13.825043525019042"><ele>347.25</ele><time>2026-04-12T11:12:34.955Z</time></trkpt><trkpt lat="45.238719269452695" lon="13.825214215818267"><ele>347.0</ele><time>2026-04-12T11:12:35.955Z</time></trkpt><trkpt lat="45.238763295536955" lon="13.825392076476696"><ele>346.75</ele><time>2026-04-12T11:12:36.955Z</time></trkpt><trkpt lat="45.23880346879132" lon="13.825586716465475"><ele>346.5</ele><time>2026-04-12T11:12:37.955Z</time></trkpt><trkpt lat="45.23885018258571" lon="13.825777142607533"><ele>346.25</ele><time>2026-04-12T11:12:38.955Z</time></trkpt><trkpt lat="45.23889043153937" lon="13.825943983334028"><ele>346.0</ele><time>2026-04-12T11:12:39.955Z</time></trkpt><trkpt lat="45.238929678725285" lon="13.826079750463016"><ele>347.0</ele><time>2026-04-12T11:12:40.955Z</time></trkpt><trkpt lat="45.238987700281086" lon="13.826216083056792"><ele>348.0</ele><time>2026-04-12T11:12:41.955Z</time></trkpt><trkpt lat="45.23903698801181" lon="13.826356662996897"><ele>349.0</ele><time>2026-04-12T11:12:42.955Z</time></trkpt><trkpt lat="45.239084028187264" lon="13.826498570907939"><ele>350.0</ele><time>2026-04-12T11:12:43.955Z</time></trkpt><trkpt lat="45.239139303830214" lon="13.826639272699824"><ele>351.0</ele><time>2026-04-12T11:12:44.955Z</time></trkpt><trkpt lat="45.23919757813433" lon="13.826771896410946"><ele>350.5</ele><time>2026-04-12T11:12:45.955Z</time></trkpt><trkpt lat="45.23924363647847" lon="13.826921768327384"><ele>350.0</ele><time>2026-04-12T11:12:46.955Z</time></trkpt><trkpt lat="45.23928988581972" lon="13.827063569616028"><ele>349.5</ele><time>2026-04-12T11:12:47.955Z</time></trkpt><trkpt lat="45.239338952151044" lon="13.827227884800585"><ele>349.0</ele><time>2026-04-12T11:12:48.955Z</time></trkpt><trkpt lat="45.23940484791601" lon="13.827399832349016"><ele>349.0</ele><time>2026-04-12T11:12:49.955Z</time></trkpt><trkpt lat="45.239453985554945" lon="13.827573658503207"><ele>349.0</ele><time>2026-04-12T11:12:50.955Z</time></trkpt><trkpt lat="45.239510594769634" lon="13.827721220610863"><ele>349.0</ele><time>2026-04-12T11:12:51.955Z</time></trkpt><trkpt lat="45.239564111914554" lon="13.827856313018797"><ele>349.0</ele><time>2026-04-12T11:12:52.955Z</time></trkpt><trkpt lat="45.239617585276214" lon="13.827980666697485"><ele>348.79999999999995</ele><time>2026-04-12T11:12:53.955Z</time></trkpt><trkpt lat="45.2396782642466" lon="13.828076279666474"><ele>348.59999999999997</ele><time>2026-04-12T11:12:54.955Z</time></trkpt><trkpt lat="45.23975902634358" lon="13.828146819214814"><ele>348.4</ele><time>2026-04-12T11:12:55.955Z</time></trkpt><trkpt lat="45.239853396312554" lon="13.828215176087877"><ele>348.2</ele><time>2026-04-12T11:12:56.955Z</time></trkpt><trkpt lat="45.23996765929405" lon="13.828266449583255"><ele>348.0</ele><time>2026-04-12T11:12:57.955Z</time></trkpt><trkpt lat="45.240089034539565" lon="13.828330683994459"><ele>348.4</ele><time>2026-04-12T11:12:58.955Z</time></trkpt><trkpt lat="45.24019732657434" lon="13.828398593381898"><ele>348.79999999999995</ele><time>2026-04-12T11:12:59.955Z</time></trkpt><trkpt lat="45.240278533014724" lon="13.828476673615912"><ele>349.2</ele><time>2026-04-12T11:13:00.954Z</time></trkpt><trkpt lat="45.24036226753575" lon="13.828531847485102"><ele>349.6</ele><time>2026-04-12T11:13:01.954Z</time></trkpt><trkpt lat="45.24044283979686" lon="13.828568052620312"><ele>350.0</ele><time>2026-04-12T11:13:02.954Z</time></trkpt><trkpt lat="45.240507545996074" lon="13.82861724152519"><ele>350.0</ele><time>2026-04-12T11:13:03.954Z</time></trkpt><trkpt lat="45.24057410468304" lon="13.82863661312485"><ele>350.0</ele><time>2026-04-12T11:13:04.954Z</time></trkpt><trkpt lat="45.240645701201345" lon="13.828614950533948"><ele>350.0</ele><time>2026-04-12T11:13:05.954Z</time></trkpt><trkpt lat="45.24073291438947" lon="13.828548904327517"><ele>350.0</ele><time>2026-04-12T11:13:06.954Z</time></trkpt><trkpt lat="45.240845259251856" lon="13.828486526473366"><ele>350.0</ele><time>2026-04-12T11:13:07.954Z</time></trkpt><trkpt lat="45.240962608778645" lon="13.828431678536404"><ele>351.4</ele><time>2026-04-12T11:13:08.954Z</time></trkpt><trkpt lat="45.241064883221185" lon="13.828391237355898"><ele>352.8</ele><time>2026-04-12T11:13:09.954Z</time></trkpt><trkpt lat="45.24116017994712" lon="13.828359320893115"><ele>354.20000000000005</ele><time>2026-04-12T11:13:10.954Z</time></trkpt><trkpt lat="45.24124204652352" lon="13.828311394011118"><ele>355.6</ele><time>2026-04-12T11:13:11.954Z</time></trkpt><trkpt lat="45.24131679272186" lon="13.82825498353721"><ele>357.0</ele><time>2026-04-12T11:13:12.954Z</time></trkpt><trkpt lat="45.24138504937089" lon="13.828209924433168"><ele>357.0</ele><time>2026-04-12T11:13:13.954Z</time></trkpt><trkpt lat="45.24145238355635" lon="13.828193803574592"><ele>357.0</ele><time>2026-04-12T11:13:14.954Z</time></trkpt><trkpt lat="45.24152612071638" lon="13.828183860214612"><ele>357.0</ele><time>2026-04-12T11:13:15.954Z</time></trkpt><trkpt lat="45.241598612953055" lon="13.828157262415607"><ele>357.0</ele><time>2026-04-12T11:13:16.954Z</time></trkpt><trkpt lat="45.241646085571716" lon="13.828070747435904"><ele>357.0</ele><time>2026-04-12T11:13:17.954Z</time></trkpt><trkpt lat="45.24173213373192" lon="13.828014313392758"><ele>357.0</ele><time>2026-04-12T11:13:18.954Z</time></trkpt><trkpt lat="45.24180572418521" lon="13.827963345239839"><ele>358.0</ele><time>2026-04-12T11:13:19.954Z</time></trkpt><trkpt lat="45.24188558538513" lon="13.827916609441026"><ele>359.0</ele><time>2026-04-12T11:13:20.954Z</time></trkpt><trkpt lat="45.24197874978531" lon="13.82787458128971"><ele>360.0</ele><time>2026-04-12T11:13:21.954Z</time></trkpt><trkpt lat="45.242075198843935" lon="13.82783866591925"><ele>361.0</ele><time>2026-04-12T11:13:22.954Z</time></trkpt><trkpt lat="45.24215077746035" lon="13.827800494191912"><ele>362.0</ele><time>2026-04-12T11:13:23.954Z</time></trkpt><trkpt lat="45.24222374158529" lon="13.82773078549804"><ele>361.8</ele><time>2026-04-12T11:13:24.954Z</time></trkpt><trkpt lat="45.24230231567234" lon="13.827659004155574"><ele>361.6</ele><time>2026-04-12T11:13:25.954Z</time></trkpt><trkpt lat="45.24237973930993" lon="13.82754748305086"><ele>361.40000000000003</ele><time>2026-04-12T11:13:26.954Z</time></trkpt><trkpt lat="45.24245195822078" lon="13.82746471438254"><ele>361.20000000000005</ele><time>2026-04-12T11:13:27.954Z</time></trkpt><trkpt lat="45.24252401739221" lon="13.827406881665581"><ele>361.0</ele><time>2026-04-12T11:13:28.954Z</time></trkpt><trkpt lat="45.24261272148351" lon="13.827380672611788"><ele>361.0</ele><time>2026-04-12T11:13:29.954Z</time></trkpt><trkpt lat="45.24272123738651" lon="13.827372426121965"><ele>361.0</ele><time>2026-04-12T11:13:30.954Z</time></trkpt><trkpt lat="45.242842573520775" lon="13.827336769600869"><ele>361.0</ele><time>2026-04-12T11:13:31.954Z</time></trkpt><trkpt lat="45.24296098375995" lon="13.827300261065002"><ele>361.0</ele><time>2026-04-12T11:13:32.954Z</time></trkpt><trkpt lat="45.24308476593496" lon="13.827278602673127"><ele>360.25</ele><time>2026-04-12T11:13:33.954Z</time></trkpt><trkpt lat="45.243205895001765" lon="13.82723140126615"><ele>359.5</ele><time>2026-04-12T11:13:34.954Z</time></trkpt><trkpt lat="45.2433245192945" lon="13.827190953809612"><ele>358.75</ele><time>2026-04-12T11:13:35.954Z</time></trkpt><trkpt lat="45.243429997355655" lon="13.82715647875294"><ele>358.0</ele><time>2026-04-12T11:13:36.954Z</time></trkpt><trkpt lat="45.24353035352673" lon="13.827143375616249"><ele>358.0</ele><time>2026-04-12T11:13:37.954Z</time></trkpt><trkpt lat="45.243652332435396" lon="13.827131516014008"><ele>358.0</ele><time>2026-04-12T11:13:38.954Z</time></trkpt><trkpt lat="45.24377287116682" lon="13.827113758483947"><ele>358.0</ele><time>2026-04-12T11:13:39.954Z</time></trkpt><trkpt lat="45.24388296156777" lon="13.827074047456547"><ele>358.0</ele><time>2026-04-12T11:13:40.954Z</time></trkpt><trkpt lat="45.243983094635034" lon="13.827032176827784"><ele>358.79999999999995</ele><time>2026-04-12T11:13:41.954Z</time></trkpt><trkpt lat="45.244088302263165" lon="13.827012512009782"><ele>359.6</ele><time>2026-04-12T11:13:42.954Z</time></trkpt><trkpt lat="45.244194905874124" lon="13.827016757076306"><ele>360.4</ele><time>2026-04-12T11:13:43.954Z</time></trkpt><trkpt lat="45.244301975474954" lon="13.827042383338037"><ele>361.20000000000005</ele><time>2026-04-12T11:13:44.954Z</time></trkpt><trkpt lat="45.24440303946265" lon="13.827071228555099"><ele>362.0</ele><time>2026-04-12T11:13:45.954Z</time></trkpt><trkpt lat="45.24448719799752" lon="13.827104533079703"><ele>362.0</ele><time>2026-04-12T11:13:46.954Z</time></trkpt><trkpt lat="45.24456833503998" lon="13.827159235092923"><ele>362.0</ele><time>2026-04-12T11:13:47.954Z</time></trkpt><trkpt lat="45.24466031639977" lon="13.82723990272861"><ele>362.0</ele><time>2026-04-12T11:13:48.954Z</time></trkpt><trkpt lat="45.24473351437521" lon="13.827320993050662"><ele>362.0</ele><time>2026-04-12T11:13:49.954Z</time></trkpt><trkpt lat="45.24481100247707" lon="13.827355737053574"><ele>362.0</ele><time>2026-04-12T11:13:50.954Z</time></trkpt><trkpt lat="45.24490230624111" lon="13.827363986306938"><ele>362.8</ele><time>2026-04-12T11:13:51.954Z</time></trkpt><trkpt lat="45.244985703187986" lon="13.827350134001614"><ele>363.6</ele><time>2026-04-12T11:13:52.954Z</time></trkpt><trkpt lat="45.245075043376865" lon="13.827313451141356"><ele>364.40000000000003</ele><time>2026-04-12T11:13:53.954Z</time></trkpt><trkpt lat="45.24516930473671" lon="13.827245185374228"><ele>365.20000000000005</ele><time>2026-04-12T11:13:54.954Z</time></trkpt><trkpt lat="45.24525685848593" lon="13.82715594458046"><ele>366.0</ele><time>2026-04-12T11:13:55.954Z</time></trkpt><trkpt lat="45.24533303850229" lon="13.827060498156209"><ele>366.0</ele><time>2026-04-12T11:13:56.954Z</time></trkpt><trkpt lat="45.24539907203342" lon="13.82696009730768"><ele>366.0</ele><time>2026-04-12T11:13:57.954Z</time></trkpt><trkpt lat="45.245467813916115" lon="13.826867947320627"><ele>366.0</ele><time>2026-04-12T11:13:58.954Z</time></trkpt><trkpt lat="45.2455426137143" lon="13.826817936914496"><ele>366.0</ele><time>2026-04-12T11:13:59.954Z</time></trkpt><trkpt lat="45.245651807759835" lon="13.826790357354161"><ele>366.0</ele><time>2026-04-12T11:14:00.954Z</time></trkpt><trkpt lat="45.24577887736583" lon="13.826803386281599"><ele>366.20000000000005</ele><time>2026-04-12T11:14:01.954Z</time></trkpt><trkpt lat="45.245897868593644" lon="13.826810182152123"><ele>366.40000000000003</ele><time>2026-04-12T11:14:02.954Z</time></trkpt><trkpt lat="45.246003407102236" lon="13.826813513620722"><ele>366.6</ele><time>2026-04-12T11:14:03.954Z</time></trkpt><trkpt lat="45.24610295591985" lon="13.826838293636571"><ele>366.8</ele><time>2026-04-12T11:14:04.954Z</time></trkpt><trkpt lat="45.246205471904325" lon="13.8268765022362"><ele>367.0</ele><time>2026-04-12T11:14:05.954Z</time></trkpt><trkpt lat="45.24630638890462" lon="13.826928920321151"><ele>367.5</ele><time>2026-04-12T11:14:06.954Z</time></trkpt><trkpt lat="45.24642873928737" lon="13.826960706069062"><ele>368.0</ele><time>2026-04-12T11:14:07.953Z</time></trkpt><trkpt lat="45.24655184352252" lon="13.826973213739889"><ele>368.5</ele><time>2026-04-12T11:14:08.953Z</time></trkpt><trkpt lat="45.24666578143236" lon="13.826981827563399"><ele>369.0</ele><time>2026-04-12T11:14:09.953Z</time></trkpt><trkpt lat="45.246777297356296" lon="13.826977939351815"><ele>369.4</ele><time>2026-04-12T11:14:10.953Z</time></trkpt><trkpt lat="45.246877721195716" lon="13.826976581211579"><ele>369.79999999999995</ele><time>2026-04-12T11:14:11.953Z</time></trkpt><trkpt lat="45.24696379282696" lon="13.826994450982127"><ele>370.20000000000005</ele><time>2026-04-12T11:14:12.953Z</time></trkpt><trkpt lat="45.24705444454653" lon="13.827034890461578"><ele>370.6</ele><time>2026-04-12T11:14:13.953Z</time></trkpt><trkpt lat="45.24715118205636" lon="13.827112208441372"><ele>371.0</ele><time>2026-04-12T11:14:14.953Z</time></trkpt><trkpt lat="45.24725309762776" lon="13.827189640064812"><ele>370.20000000000005</ele><time>2026-04-12T11:14:15.953Z</time></trkpt><trkpt lat="45.247348775999065" lon="13.827248878568202"><ele>369.40000000000003</ele><time>2026-04-12T11:14:16.954Z</time></trkpt><trkpt lat="45.24742881008334" lon="13.827265988790606"><ele>368.6</ele><time>2026-04-12T11:14:17.954Z</time></trkpt><trkpt lat="45.24751311224931" lon="13.827246926949861"><ele>367.8</ele><time>2026-04-12T11:14:18.954Z</time></trkpt><trkpt lat="45.24760261974462" lon="13.82719593893801"><ele>367.0</ele><time>2026-04-12T11:14:19.953Z</time></trkpt><trkpt lat="45.24772515590602" lon="13.827120085520392"><ele>367.0</ele><time>2026-04-12T11:14:20.953Z</time></trkpt><trkpt lat="45.24783658735204" lon="13.827085707415556"><ele>367.0</ele><time>2026-04-12T11:14:21.953Z</time></trkpt><trkpt lat="45.247947234964094" lon="13.827028846537067"><ele>367.0</ele><time>2026-04-12T11:14:22.953Z</time></trkpt><trkpt lat="45.24806027649953" lon="13.82693821618964"><ele>367.0</ele><time>2026-04-12T11:14:23.953Z</time></trkpt><trkpt lat="45.24818136324901" lon="13.826841624010356"><ele>366.5</ele><time>2026-04-12T11:14:24.953Z</time></trkpt><trkpt lat="45.2483027829934" lon="13.826750835137261"><ele>366.0</ele><time>2026-04-12T11:14:25.953Z</time></trkpt><trkpt lat="45.24842273406175" lon="13.826658337665734"><ele>365.5</ele><time>2026-04-12T11:14:26.953Z</time></trkpt><trkpt lat="45.248526202606904" lon="13.826576589502796"><ele>365.0</ele><time>2026-04-12T11:14:27.953Z</time></trkpt><trkpt lat="45.24862394146264" lon="13.82651465167187"><ele>365.0</ele><time>2026-04-12T11:14:28.953Z</time></trkpt><trkpt lat="45.24869299217638" lon="13.826470138085845"><ele>365.0</ele><time>2026-04-12T11:14:29.953Z</time></trkpt><trkpt lat="45.248748951306425" lon="13.826429022229306"><ele>365.0</ele><time>2026-04-12T11:14:30.953Z</time></trkpt><trkpt lat="45.24881286640121" lon="13.826283308545591"><ele>365.0</ele><time>2026-04-12T11:14:32.953Z</time></trkpt><trkpt lat="45.24884069272292" lon="13.82616988683691"><ele>365.0</ele><time>2026-04-12T11:14:33.953Z</time></trkpt><trkpt lat="45.24885060720701" lon="13.826009019554544"><ele>365.25</ele><time>2026-04-12T11:14:34.953Z</time></trkpt><trkpt lat="45.24886592722719" lon="13.825823403931448"><ele>365.5</ele><time>2026-04-12T11:14:35.953Z</time></trkpt><trkpt lat="45.24886899820991" lon="13.825620282495565"><ele>365.75</ele><time>2026-04-12T11:14:36.953Z</time></trkpt><trkpt lat="45.248864351840325" lon="13.825429797502775"><ele>366.0</ele><time>2026-04-12T11:14:37.953Z</time></trkpt><trkpt lat="45.24882801448226" lon="13.825218311778178"><ele>366.5</ele><time>2026-04-12T11:14:38.953Z</time></trkpt><trkpt lat="45.24880786936261" lon="13.825028471422147"><ele>367.0</ele><time>2026-04-12T11:14:39.953Z</time></trkpt><trkpt lat="45.24879094988265" lon="13.824865077666251"><ele>367.5</ele><time>2026-04-12T11:14:40.953Z</time></trkpt><trkpt lat="45.24879053400987" lon="13.82472793183745"><ele>368.0</ele><time>2026-04-12T11:14:41.953Z</time></trkpt><trkpt lat="45.248774018295755" lon="13.824582738325502"><ele>368.0</ele><time>2026-04-12T11:14:42.953Z</time></trkpt><trkpt lat="45.24874933596168" lon="13.824438839391604"><ele>368.0</ele><time>2026-04-12T11:14:43.953Z</time></trkpt><trkpt lat="45.248710354777316" lon="13.824294686451172"><ele>368.0</ele><time>2026-04-12T11:14:44.953Z</time></trkpt><trkpt lat="45.24867751396994" lon="13.82415693413496"><ele>368.0</ele><time>2026-04-12T11:14:45.953Z</time></trkpt><trkpt lat="45.24865649448921" lon="13.824027796336377"><ele>368.0</ele><time>2026-04-12T11:14:46.953Z</time></trkpt><trkpt lat="45.2486634263159" lon="13.823906956651713"><ele>368.0</ele><time>2026-04-12T11:14:47.953Z</time></trkpt><trkpt lat="45.248682913905924" lon="13.823799569295142"><ele>368.0</ele><time>2026-04-12T11:14:48.953Z</time></trkpt><trkpt lat="45.2486864429676" lon="13.823685967763796"><ele>368.0</ele><time>2026-04-12T11:14:49.953Z</time></trkpt><trkpt lat="45.24869686937669" lon="13.823570992558643"><ele>368.0</ele><time>2026-04-12T11:14:50.953Z</time></trkpt><trkpt lat="45.24871647495849" lon="13.82343730659857"><ele>368.0</ele><time>2026-04-12T11:14:51.953Z</time></trkpt><trkpt lat="45.24875611407972" lon="13.823315224314122"><ele>368.0</ele><time>2026-04-12T11:14:52.953Z</time></trkpt><trkpt lat="45.24880419680184" lon="13.823196467701468"><ele>368.0</ele><time>2026-04-12T11:14:53.953Z</time></trkpt><trkpt lat="45.248884268378966" lon="13.823083096341636"><ele>368.0</ele><time>2026-04-12T11:14:54.953Z</time></trkpt><trkpt lat="45.24896891265488" lon="13.822983411957704"><ele>368.0</ele><time>2026-04-12T11:14:55.953Z</time></trkpt><trkpt lat="45.24904782214819" lon="13.822900297060173"><ele>368.0</ele><time>2026-04-12T11:14:56.953Z</time></trkpt><trkpt lat="45.249146482491696" lon="13.822816664370775"><ele>368.0</ele><time>2026-04-12T11:14:57.953Z</time></trkpt><trkpt lat="45.2492649085342" lon="13.822725593362911"><ele>367.59999999999997</ele><time>2026-04-12T11:14:58.953Z</time></trkpt><trkpt lat="45.249384735534186" lon="13.822649776469616"><ele>367.2</ele><time>2026-04-12T11:14:59.953Z</time></trkpt><trkpt lat="45.249479920475395" lon="13.82257556576348"><ele>366.8</ele><time>2026-04-12T11:15:00.954Z</time></trkpt><trkpt lat="45.24956414032569" lon="13.822509283302619"><ele>366.4</ele><time>2026-04-12T11:15:01.954Z</time></trkpt><trkpt lat="45.24964269244609" lon="13.822448539246027"><ele>366.0</ele><time>2026-04-12T11:15:02.954Z</time></trkpt><trkpt lat="45.249727605887195" lon="13.822398752550756"><ele>366.5</ele><time>2026-04-12T11:15:03.954Z</time></trkpt><trkpt lat="45.24983148739345" lon="13.822347739353594"><ele>367.0</ele><time>2026-04-12T11:15:04.954Z</time></trkpt><trkpt lat="45.249946773112484" lon="13.822286023937062"><ele>367.5</ele><time>2026-04-12T11:15:05.954Z</time></trkpt><trkpt lat="45.25005886072499" lon="13.82221217091559"><ele>368.0</ele><time>2026-04-12T11:15:06.954Z</time></trkpt><trkpt lat="45.250146268632555" lon="13.82213613850043"><ele>368.0</ele><time>2026-04-12T11:15:07.954Z</time></trkpt><trkpt lat="45.250221746847814" lon="13.8220555568039"><ele>368.0</ele><time>2026-04-12T11:15:08.954Z</time></trkpt><trkpt lat="45.25030080251136" lon="13.82195462998743"><ele>368.0</ele><time>2026-04-12T11:15:09.954Z</time></trkpt><trkpt lat="45.25039957830228" lon="13.82182738790192"><ele>368.0</ele><time>2026-04-12T11:15:10.954Z</time></trkpt><trkpt lat="45.25052057398047" lon="13.821757377204023"><ele>367.6666666666667</ele><time>2026-04-12T11:15:11.954Z</time></trkpt><trkpt lat="45.250662059258325" lon="13.821670627334296"><ele>367.3333333333333</ele><time>2026-04-12T11:15:12.954Z</time></trkpt><trkpt lat="45.25080025174371" lon="13.821577009041041"><ele>367.0</ele><time>2026-04-12T11:15:13.954Z</time></trkpt><trkpt lat="45.25091499970178" lon="13.821451534218216"><ele>367.0</ele><time>2026-04-12T11:15:14.954Z</time></trkpt><trkpt lat="45.251022588572575" lon="13.82135162219102"><ele>367.0</ele><time>2026-04-12T11:15:15.954Z</time></trkpt><trkpt lat="45.25113230002698" lon="13.821250579455159"><ele>367.0</ele><time>2026-04-12T11:15:16.954Z</time></trkpt><trkpt lat="45.25124106442228" lon="13.82119791290824"><ele>367.0</ele><time>2026-04-12T11:15:17.954Z</time></trkpt><trkpt lat="45.25134175988262" lon="13.821166530264952"><ele>367.0</ele><time>2026-04-12T11:15:18.954Z</time></trkpt><trkpt lat="45.25140751329679" lon="13.821136197346148"><ele>367.0</ele><time>2026-04-12T11:15:19.954Z</time></trkpt><trkpt lat="45.251470896769916" lon="13.821106729561626"><ele>367.0</ele><time>2026-04-12T11:15:22.954Z</time></trkpt><trkpt lat="45.25159263624543" lon="13.821147247032322"><ele>367.0</ele><time>2026-04-12T11:15:33.954Z</time></trkpt><trkpt lat="45.251668967870046" lon="13.821201162883696"><ele>367.0</ele><time>2026-04-12T11:15:34.954Z</time></trkpt><trkpt lat="45.25174747317164" lon="13.821269959943404"><ele>367.0</ele><time>2026-04-12T11:15:35.954Z</time></trkpt><trkpt lat="45.251851764802836" lon="13.82130150257431"><ele>367.0</ele><time>2026-04-12T11:15:36.954Z</time></trkpt><trkpt lat="45.2519381186517" lon="13.821372984229498"><ele>367.0</ele><time>2026-04-12T11:15:37.954Z</time></trkpt><trkpt lat="45.25202270126664" lon="13.821420970146324"><ele>367.0</ele><time>2026-04-12T11:15:38.954Z</time></trkpt><trkpt lat="45.252124778728415" lon="13.821461146124841"><ele>367.0</ele><time>2026-04-12T11:15:39.954Z</time></trkpt><trkpt lat="45.252223620687175" lon="13.821528703715458"><ele>367.0</ele><time>2026-04-12T11:15:40.954Z</time></trkpt><trkpt lat="45.25232010740118" lon="13.821589869066216"><ele>367.0</ele><time>2026-04-12T11:15:41.954Z</time></trkpt><trkpt lat="45.25241424915974" lon="13.821648945410347"><ele>367.0</ele><time>2026-04-12T11:15:42.954Z</time></trkpt><trkpt lat="45.25250270743018" lon="13.821712990806317"><ele>367.0</ele><time>2026-04-12T11:15:43.954Z</time></trkpt><trkpt lat="45.25256887337267" lon="13.821764050233135"><ele>367.0</ele><time>2026-04-12T11:15:44.954Z</time></trkpt><trkpt lat="45.25265749470555" lon="13.821833621559705"><ele>367.0</ele><time>2026-04-12T11:15:46.954Z</time></trkpt><trkpt lat="45.25272863016893" lon="13.821838056268382"><ele>366.66666666666663</ele><time>2026-04-12T11:15:48.954Z</time></trkpt><trkpt lat="45.25278979493221" lon="13.821802855611539"><ele>366.3333333333333</ele><time>2026-04-12T11:15:49.954Z</time></trkpt><trkpt lat="45.25286919270941" lon="13.821748675071321"><ele>366.0</ele><time>2026-04-12T11:15:50.954Z</time></trkpt><trkpt lat="45.252938122936925" lon="13.821691047388786"><ele>365.6666666666667</ele><time>2026-04-12T11:15:51.954Z</time></trkpt><trkpt lat="45.25302676230596" lon="13.8216231449101"><ele>365.33333333333337</ele><time>2026-04-12T11:15:52.954Z</time></trkpt><trkpt lat="45.2531117401218" lon="13.821536679674471"><ele>365.0</ele><time>2026-04-12T11:15:53.954Z</time></trkpt><trkpt lat="45.253210052980194" lon="13.821463158778126"><ele>365.0</ele><time>2026-04-12T11:15:54.954Z</time></trkpt><trkpt lat="45.25329254243417" lon="13.821394821346786"><ele>365.0</ele><time>2026-04-12T11:15:55.954Z</time></trkpt><trkpt lat="45.25338310170413" lon="13.821327140989563"><ele>365.0</ele><time>2026-04-12T11:15:56.954Z</time></trkpt><trkpt lat="45.25347111261434" lon="13.82124663954978"><ele>365.0</ele><time>2026-04-12T11:15:57.954Z</time></trkpt><trkpt lat="45.25356474848788" lon="13.821155129576267"><ele>365.0</ele><time>2026-04-12T11:15:58.954Z</time></trkpt><trkpt lat="45.25364877947551" lon="13.821083920623549"><ele>365.0</ele><time>2026-04-12T11:15:59.954Z</time></trkpt><trkpt lat="45.25372925227826" lon="13.821017604612182"><ele>365.0</ele><time>2026-04-12T11:16:00.954Z</time></trkpt><trkpt lat="45.25379656332426" lon="13.820974134789827"><ele>365.0</ele><time>2026-04-12T11:16:01.954Z</time></trkpt><trkpt lat="45.25386554801874" lon="13.820957828269217"><ele>365.0</ele><time>2026-04-12T11:16:02.954Z</time></trkpt><trkpt lat="45.25395977014922" lon="13.820960993936911"><ele>365.0</ele><time>2026-04-12T11:16:03.954Z</time></trkpt><trkpt lat="45.25407176679577" lon="13.820999619770408"><ele>365.0</ele><time>2026-04-12T11:16:04.954Z</time></trkpt><trkpt lat="45.254194309693794" lon="13.821026546606433"><ele>363.25</ele><time>2026-04-12T11:16:05.954Z</time></trkpt><trkpt lat="45.254313193166105" lon="13.8210509955718"><ele>361.5</ele><time>2026-04-12T11:16:06.954Z</time></trkpt><trkpt lat="45.254439302910136" lon="13.821071315435885"><ele>359.75</ele><time>2026-04-12T11:16:07.954Z</time></trkpt><trkpt lat="45.25456357646912" lon="13.821082119487109"><ele>358.0</ele><time>2026-04-12T11:16:08.954Z</time></trkpt><trkpt lat="45.25466629021675" lon="13.821094458113103"><ele>358.0</ele><time>2026-04-12T11:16:09.954Z</time></trkpt><trkpt lat="45.254764080623595" lon="13.821119782205209"><ele>358.0</ele><time>2026-04-12T11:16:10.954Z</time></trkpt><trkpt lat="45.25485065335819" lon="13.82116045428798"><ele>358.0</ele><time>2026-04-12T11:16:11.954Z</time></trkpt><trkpt lat="45.25494276561871" lon="13.821185986002577"><ele>358.0</ele><time>2026-04-12T11:16:12.954Z</time></trkpt><trkpt lat="45.25503480235917" lon="13.821224062836803"><ele>358.0</ele><time>2026-04-12T11:16:13.953Z</time></trkpt><trkpt lat="45.25513721720292" lon="13.821233553106934"><ele>357.2</ele><time>2026-04-12T11:16:14.953Z</time></trkpt><trkpt lat="45.2552353142773" lon="13.821204350549655"><ele>356.4</ele><time>2026-04-12T11:16:15.953Z</time></trkpt><trkpt lat="45.25533443137573" lon="13.82117697617301"><ele>355.59999999999997</ele><time>2026-04-12T11:16:16.953Z</time></trkpt><trkpt lat="45.25542530627922" lon="13.821128731539138"><ele>354.79999999999995</ele><time>2026-04-12T11:16:17.953Z</time></trkpt><trkpt lat="45.25552829852172" lon="13.821083533150755"><ele>354.0</ele><time>2026-04-12T11:16:18.953Z</time></trkpt><trkpt lat="45.255628325555406" lon="13.820991230569616"><ele>353.0</ele><time>2026-04-12T11:16:19.953Z</time></trkpt><trkpt lat="45.25572619580408" lon="13.82092075319374"><ele>352.0</ele><time>2026-04-12T11:16:20.953Z</time></trkpt><trkpt lat="45.255834356713414" lon="13.820854291070114"><ele>351.0</ele><time>2026-04-12T11:16:21.953Z</time></trkpt><trkpt lat="45.255952387225825" lon="13.820767944774545"><ele>350.0</ele><time>2026-04-12T11:16:22.953Z</time></trkpt><trkpt lat="45.25607998286001" lon="13.82067547846293"><ele>350.0</ele><time>2026-04-12T11:16:23.953Z</time></trkpt><trkpt lat="45.25620667787688" lon="13.820587364807334"><ele>350.0</ele><time>2026-04-12T11:16:24.953Z</time></trkpt><trkpt lat="45.256323796176865" lon="13.820501837246399"><ele>350.0</ele><time>2026-04-12T11:16:25.953Z</time></trkpt><trkpt lat="45.2564359414095" lon="13.820412640721875"><ele>350.0</ele><time>2026-04-12T11:16:26.953Z</time></trkpt><trkpt lat="45.25652563605108" lon="13.820334639193739"><ele>348.8</ele><time>2026-04-12T11:16:27.953Z</time></trkpt><trkpt lat="45.25660838247745" lon="13.820270118419065"><ele>347.6</ele><time>2026-04-12T11:16:28.953Z</time></trkpt><trkpt lat="45.25669671053449" lon="13.820173073446215"><ele>346.4</ele><time>2026-04-12T11:16:29.953Z</time></trkpt><trkpt lat="45.25677686419002" lon="13.820070090544483"><ele>345.2</ele><time>2026-04-12T11:16:30.953Z</time></trkpt><trkpt lat="45.25685886033711" lon="13.81994382392643"><ele>344.0</ele><time>2026-04-12T11:16:31.953Z</time></trkpt><trkpt lat="45.256944176124" lon="13.819819606491636"><ele>343.79999999999995</ele><time>2026-04-12T11:16:32.953Z</time></trkpt><trkpt lat="45.25701574424101" lon="13.819694264629709"><ele>343.59999999999997</ele><time>2026-04-12T11:16:33.953Z</time></trkpt><trkpt lat="45.25707814659093" lon="13.819564391135165"><ele>343.4</ele><time>2026-04-12T11:16:34.953Z</time></trkpt><trkpt lat="45.25712966724412" lon="13.819449751355368"><ele>343.2</ele><time>2026-04-12T11:16:35.953Z</time></trkpt><trkpt lat="45.25722273874" lon="13.819327626264359"><ele>343.0</ele><time>2026-04-12T11:16:37.953Z</time></trkpt><trkpt lat="45.25735181517" lon="13.819260438112321"><ele>342.66666666666663</ele><time>2026-04-12T11:16:39.953Z</time></trkpt><trkpt lat="45.257447293134" lon="13.819266863474605"><ele>342.3333333333333</ele><time>2026-04-12T11:16:40.953Z</time></trkpt><trkpt lat="45.25751319938911" lon="13.819288165565252"><ele>342.0</ele><time>2026-04-12T11:16:41.953Z</time></trkpt><trkpt lat="45.25757962022434" lon="13.81932565229991"><ele>341.6666666666667</ele><time>2026-04-12T11:16:43.953Z</time></trkpt><trkpt lat="45.2576489829682" lon="13.819385344796903"><ele>341.33333333333337</ele><time>2026-04-12T11:16:45.953Z</time></trkpt><trkpt lat="45.25768834093428" lon="13.81948824071592"><ele>341.0</ele><time>2026-04-12T11:16:46.953Z</time></trkpt><trkpt lat="45.257757314697066" lon="13.81961908626216"><ele>341.0</ele><time>2026-04-12T11:16:47.953Z</time></trkpt><trkpt lat="45.25783909422077" lon="13.819751161477932"><ele>341.0</ele><time>2026-04-12T11:16:48.953Z</time></trkpt><trkpt lat="45.257913177848785" lon="13.81987947140276"><ele>341.0</ele><time>2026-04-12T11:16:49.953Z</time></trkpt><trkpt lat="45.25799139910373" lon="13.820022199476155"><ele>341.0</ele><time>2026-04-12T11:16:50.953Z</time></trkpt><trkpt lat="45.258071241949985" lon="13.820163379084885"><ele>341.0</ele><time>2026-04-12T11:16:51.953Z</time></trkpt><trkpt lat="45.2581385498375" lon="13.820288999793538"><ele>341.0</ele><time>2026-04-12T11:16:52.953Z</time></trkpt><trkpt lat="45.258201690978346" lon="13.820394510709342"><ele>341.0</ele><time>2026-04-12T11:16:53.953Z</time></trkpt><trkpt lat="45.25826109006712" lon="13.82051758892338"><ele>341.0</ele><time>2026-04-12T11:16:54.953Z</time></trkpt><trkpt lat="45.25831393703035" lon="13.820616956235448"><ele>341.0</ele><time>2026-04-12T11:16:55.953Z</time></trkpt><trkpt lat="45.2583666484241" lon="13.82070366022788"><ele>341.0</ele><time>2026-04-12T11:16:56.953Z</time></trkpt><trkpt lat="45.2584295010075" lon="13.820757876697595"><ele>341.0</ele><time>2026-04-12T11:16:57.953Z</time></trkpt><trkpt lat="45.25849822067005" lon="13.820792562841234"><ele>341.0</ele><time>2026-04-12T11:16:58.953Z</time></trkpt><trkpt lat="45.25858140541871" lon="13.820788702733896"><ele>341.0</ele><time>2026-04-12T11:16:59.953Z</time></trkpt><trkpt lat="45.25867229544636" lon="13.82079492572478"><ele>341.0</ele><time>2026-04-12T11:17:00.953Z</time></trkpt><trkpt lat="45.25878320705578" lon="13.820846352938714"><ele>341.0</ele><time>2026-04-12T11:17:01.953Z</time></trkpt><trkpt lat="45.2588922410532" lon="13.820831326412693"><ele>341.0</ele><time>2026-04-12T11:17:02.953Z</time></trkpt><trkpt lat="45.258996387589896" lon="13.820798522757615"><ele>341.0</ele><time>2026-04-12T11:17:03.953Z</time></trkpt><trkpt lat="45.25906582297875" lon="13.820737911275026"><ele>341.0</ele><time>2026-04-12T11:17:04.953Z</time></trkpt><trkpt lat="45.25914665999797" lon="13.82068755294619"><ele>341.0</ele><time>2026-04-12T11:17:05.953Z</time></trkpt><trkpt lat="45.25923253231741" lon="13.820601616409492"><ele>341.0</ele><time>2026-04-12T11:17:06.953Z</time></trkpt><trkpt lat="45.25933434840307" lon="13.820495408487206"><ele>341.0</ele><time>2026-04-12T11:17:07.953Z</time></trkpt><trkpt lat="45.259447212967025" lon="13.820384658960863"><ele>341.0</ele><time>2026-04-12T11:17:08.953Z</time></trkpt><trkpt lat="45.25955129807821" lon="13.820312623113635"><ele>341.0</ele><time>2026-04-12T11:17:09.953Z</time></trkpt><trkpt lat="45.259652330016934" lon="13.820279494486494"><ele>341.0</ele><time>2026-04-12T11:17:10.953Z</time></trkpt><trkpt lat="45.259749219941035" lon="13.820333869671265"><ele>340.8</ele><time>2026-04-12T11:17:11.953Z</time></trkpt><trkpt lat="45.25984857173256" lon="13.820336613514089"><ele>340.6</ele><time>2026-04-12T11:17:12.953Z</time></trkpt><trkpt lat="45.25995116853718" lon="13.82036044043707"><ele>340.4</ele><time>2026-04-12T11:17:13.953Z</time></trkpt><trkpt lat="45.26003976444791" lon="13.82039986048557"><ele>340.2</ele><time>2026-04-12T11:17:14.953Z</time></trkpt><trkpt lat="45.26010600498552" lon="13.820507805125342"><ele>340.0</ele><time>2026-04-12T11:17:15.953Z</time></trkpt><trkpt lat="45.26019778056924" lon="13.820614509057432"><ele>340.0</ele><time>2026-04-12T11:17:16.953Z</time></trkpt><trkpt lat="45.26028051293029" lon="13.820702496519964"><ele>340.0</ele><time>2026-04-12T11:17:17.953Z</time></trkpt><trkpt lat="45.26037236525504" lon="13.820764191830634"><ele>340.0</ele><time>2026-04-12T11:17:18.953Z</time></trkpt><trkpt lat="45.2604820175389" lon="13.820820693683856"><ele>340.0</ele><time>2026-04-12T11:17:19.953Z</time></trkpt><trkpt lat="45.26059640102877" lon="13.820867289580006"><ele>340.0</ele><time>2026-04-12T11:17:20.953Z</time></trkpt><trkpt lat="45.26069061244749" lon="13.820898538827075"><ele>339.6</ele><time>2026-04-12T11:17:21.953Z</time></trkpt><trkpt lat="45.26077000132648" lon="13.820906820626481"><ele>339.2</ele><time>2026-04-12T11:17:22.953Z</time></trkpt><trkpt lat="45.26084527713923" lon="13.820889171274366"><ele>338.79999999999995</ele><time>2026-04-12T11:17:23.953Z</time></trkpt><trkpt lat="45.26092965130121" lon="13.820842709253238"><ele>338.4</ele><time>2026-04-12T11:17:24.953Z</time></trkpt><trkpt lat="45.26102513032549" lon="13.82077034403901"><ele>338.0</ele><time>2026-04-12T11:17:25.953Z</time></trkpt><trkpt lat="45.261118396531934" lon="13.820677270893338"><ele>338.0</ele><time>2026-04-12T11:17:26.953Z</time></trkpt><trkpt lat="45.26122323996857" lon="13.820616715523348"><ele>338.0</ele><time>2026-04-12T11:17:27.953Z</time></trkpt><trkpt lat="45.261325129980705" lon="13.820564166711065"><ele>338.0</ele><time>2026-04-12T11:17:28.953Z</time></trkpt><trkpt lat="45.26142837237384" lon="13.820502111787828"><ele>338.0</ele><time>2026-04-12T11:17:29.953Z</time></trkpt><trkpt lat="45.26155465517744" lon="13.820482600698165"><ele>337.75</ele><time>2026-04-12T11:17:30.953Z</time></trkpt><trkpt lat="45.261683183814334" lon="13.820501068380148"><ele>337.5</ele><time>2026-04-12T11:17:31.953Z</time></trkpt><trkpt lat="45.26183330982486" lon="13.820503943280793"><ele>337.25</ele><time>2026-04-12T11:17:32.953Z</time></trkpt><trkpt lat="45.26197073799456" lon="13.820513234221643"><ele>337.0</ele><time>2026-04-12T11:17:33.953Z</time></trkpt><trkpt lat="45.262109764095825" lon="13.82052500542598"><ele>337.0</ele><time>2026-04-12T11:17:34.953Z</time></trkpt><trkpt lat="45.26224329624205" lon="13.820537015985655"><ele>337.0</ele><time>2026-04-12T11:17:35.953Z</time></trkpt><trkpt lat="45.262366290378864" lon="13.820552798241161"><ele>337.0</ele><time>2026-04-12T11:17:36.953Z</time></trkpt><trkpt lat="45.26247451414725" lon="13.820574649091384"><ele>337.0</ele><time>2026-04-12T11:17:37.954Z</time></trkpt><trkpt lat="45.262584512391804" lon="13.820599983571045"><ele>337.8</ele><time>2026-04-12T11:17:38.954Z</time></trkpt><trkpt lat="45.2626973057402" lon="13.820612028902481"><ele>338.6</ele><time>2026-04-12T11:17:39.954Z</time></trkpt><trkpt lat="45.26280145815245" lon="13.820639527808813"><ele>339.40000000000003</ele><time>2026-04-12T11:17:40.954Z</time></trkpt><trkpt lat="45.26290894799393" lon="13.820662815333677"><ele>340.20000000000005</ele><time>2026-04-12T11:17:41.954Z</time></trkpt><trkpt lat="45.263008148240274" lon="13.820695024426373"><ele>341.0</ele><time>2026-04-12T11:17:42.954Z</time></trkpt><trkpt lat="45.26310441137547" lon="13.820754970802724"><ele>342.0</ele><time>2026-04-12T11:17:43.954Z</time></trkpt><trkpt lat="45.26319204958621" lon="13.820811544145359"><ele>343.0</ele><time>2026-04-12T11:17:44.954Z</time></trkpt><trkpt lat="45.26328037612407" lon="13.820834978060676"><ele>344.0</ele><time>2026-04-12T11:17:45.954Z</time></trkpt><trkpt lat="45.26338139581937" lon="13.820833784483519"><ele>345.0</ele><time>2026-04-12T11:17:46.954Z</time></trkpt><trkpt lat="45.26348656637509" lon="13.82081161302758"><ele>346.0</ele><time>2026-04-12T11:17:47.954Z</time></trkpt><trkpt lat="45.26358771714486" lon="13.82082194752952"><ele>346.0</ele><time>2026-04-12T11:17:48.954Z</time></trkpt><trkpt lat="45.26368164479876" lon="13.820813881525433"><ele>346.0</ele><time>2026-04-12T11:17:49.954Z</time></trkpt><trkpt lat="45.26377202553733" lon="13.820792093329676"><ele>346.0</ele><time>2026-04-12T11:17:50.954Z</time></trkpt><trkpt lat="45.26384176260392" lon="13.820815507014784"><ele>346.0</ele><time>2026-04-12T11:17:51.954Z</time></trkpt><trkpt lat="45.26390555401165" lon="13.82081900039305"><ele>346.0</ele><time>2026-04-12T11:17:52.954Z</time></trkpt><trkpt lat="45.26399290930741" lon="13.82080486691934"><ele>346.0</ele><time>2026-04-12T11:17:55.954Z</time></trkpt><trkpt lat="45.264074047502575" lon="13.820705984135902"><ele>345.8</ele><time>2026-04-12T11:17:57.954Z</time></trkpt><trkpt lat="45.26412974861437" lon="13.820646593612604"><ele>345.6</ele><time>2026-04-12T11:17:58.954Z</time></trkpt><trkpt lat="45.26417724270578" lon="13.82052587705318"><ele>345.4</ele><time>2026-04-12T11:17:59.954Z</time></trkpt><trkpt lat="45.264209620698054" lon="13.820400755374997"><ele>345.2</ele><time>2026-04-12T11:18:00.954Z</time></trkpt><trkpt lat="45.26424389183458" lon="13.820254252611523"><ele>345.0</ele><time>2026-04-12T11:18:01.954Z</time></trkpt><trkpt lat="45.26426101156436" lon="13.820085156809025"><ele>345.0</ele><time>2026-04-12T11:18:02.954Z</time></trkpt><trkpt lat="45.26423411497148" lon="13.81991363558566"><ele>345.0</ele><time>2026-04-12T11:18:03.954Z</time></trkpt><trkpt lat="45.26422609109245" lon="13.819732258640341"><ele>345.0</ele><time>2026-04-12T11:18:04.954Z</time></trkpt><trkpt lat="45.2642359031078" lon="13.819544035068233"><ele>345.0</ele><time>2026-04-12T11:18:05.954Z</time></trkpt><trkpt lat="45.264238905515754" lon="13.819363111783913"><ele>345.75</ele><time>2026-04-12T11:18:06.954Z</time></trkpt><trkpt lat="45.26424360968628" lon="13.819184775526663"><ele>346.5</ele><time>2026-04-12T11:18:07.954Z</time></trkpt><trkpt lat="45.26425429637577" lon="13.818993195580537"><ele>347.25</ele><time>2026-04-12T11:18:08.954Z</time></trkpt><trkpt lat="45.2642666256106" lon="13.818794288481262"><ele>348.0</ele><time>2026-04-12T11:18:09.954Z</time></trkpt><trkpt lat="45.264269290892926" lon="13.818601700694986"><ele>348.59999999999997</ele><time>2026-04-12T11:18:10.954Z</time></trkpt><trkpt lat="45.26427044239292" lon="13.81842424598656"><ele>349.2</ele><time>2026-04-12T11:18:11.954Z</time></trkpt><trkpt lat="45.26426750927537" lon="13.818265143501812"><ele>349.8</ele><time>2026-04-12T11:18:12.954Z</time></trkpt><trkpt lat="45.2642587977506" lon="13.818120232360315"><ele>350.4</ele><time>2026-04-12T11:18:13.954Z</time></trkpt><trkpt lat="45.26425443072912" lon="13.817989763610338"><ele>351.0</ele><time>2026-04-12T11:18:14.954Z</time></trkpt><trkpt lat="45.264260961449374" lon="13.817879071291362"><ele>351.0</ele><time>2026-04-12T11:18:15.954Z</time></trkpt><trkpt lat="45.26432296480988" lon="13.817739198312905"><ele>351.0</ele><time>2026-04-12T11:18:17.954Z</time></trkpt><trkpt lat="45.26438798659524" lon="13.817724165310675"><ele>351.0</ele><time>2026-04-12T11:18:18.954Z</time></trkpt><trkpt lat="45.26445190056562" lon="13.817704240267341"><ele>351.0</ele><time>2026-04-12T11:18:19.953Z</time></trkpt><trkpt lat="45.26453246110074" lon="13.817694175805615"><ele>351.0</ele><time>2026-04-12T11:18:20.953Z</time></trkpt><trkpt lat="45.26462378284735" lon="13.817672501817608"><ele>351.0</ele><time>2026-04-12T11:18:21.953Z</time></trkpt><trkpt lat="45.26472233608598" lon="13.817636576011232"><ele>352.0</ele><time>2026-04-12T11:18:22.953Z</time></trkpt><trkpt lat="45.26480712957884" lon="13.817596216533175"><ele>353.0</ele><time>2026-04-12T11:18:23.953Z</time></trkpt><trkpt lat="45.26485933518361" lon="13.81747347184774"><ele>354.0</ele><time>2026-04-12T11:18:24.953Z</time></trkpt><trkpt lat="45.26490882373723" lon="13.817363819766625"><ele>355.0</ele><time>2026-04-12T11:18:25.953Z</time></trkpt><trkpt lat="45.26495089000439" lon="13.817220932122416"><ele>356.0</ele><time>2026-04-12T11:18:26.953Z</time></trkpt><trkpt lat="45.26497534372495" lon="13.817044000950508"><ele>356.0</ele><time>2026-04-12T11:18:27.953Z</time></trkpt><trkpt lat="45.26500646388989" lon="13.816860415260404"><ele>356.0</ele><time>2026-04-12T11:18:28.953Z</time></trkpt><trkpt lat="45.26503273794247" lon="13.816669850119945"><ele>356.0</ele><time>2026-04-12T11:18:29.953Z</time></trkpt><trkpt lat="45.26506737918358" lon="13.816497110257577"><ele>356.0</ele><time>2026-04-12T11:18:30.953Z</time></trkpt><trkpt lat="45.26510992610596" lon="13.816338554971203"><ele>355.5</ele><time>2026-04-12T11:18:31.953Z</time></trkpt><trkpt lat="45.26515107516817" lon="13.81619363575411"><ele>355.0</ele><time>2026-04-12T11:18:32.953Z</time></trkpt><trkpt lat="45.2651749707331" lon="13.816051040064092"><ele>354.5</ele><time>2026-04-12T11:18:33.953Z</time></trkpt><trkpt lat="45.26516512073019" lon="13.815857103662259"><ele>354.0</ele><time>2026-04-12T11:18:34.953Z</time></trkpt><trkpt lat="45.26515142265761" lon="13.815660240472955"><ele>353.75</ele><time>2026-04-12T11:18:35.953Z</time></trkpt><trkpt lat="45.265137437373056" lon="13.815471531158122"><ele>353.5</ele><time>2026-04-12T11:18:36.953Z</time></trkpt><trkpt lat="45.26512768026672" lon="13.815289546110193"><ele>353.25</ele><time>2026-04-12T11:18:37.953Z</time></trkpt><trkpt lat="45.265136043177414" lon="13.815104893620687"><ele>353.0</ele><time>2026-04-12T11:18:38.953Z</time></trkpt><trkpt lat="45.26513144518578" lon="13.814921105729132"><ele>354.0</ele><time>2026-04-12T11:18:39.953Z</time></trkpt><trkpt lat="45.26513280459798" lon="13.81473921280248"><ele>355.0</ele><time>2026-04-12T11:18:40.953Z</time></trkpt><trkpt lat="45.26513410805227" lon="13.814553048012282"><ele>356.0</ele><time>2026-04-12T11:18:41.953Z</time></trkpt><trkpt lat="45.26518610023438" lon="13.814385487338155"><ele>357.0</ele><time>2026-04-12T11:18:42.953Z</time></trkpt><trkpt lat="45.265200936057894" lon="13.814223587423976"><ele>357.20000000000005</ele><time>2026-04-12T11:18:43.953Z</time></trkpt><trkpt lat="45.26522476232597" lon="13.81407474356743"><ele>357.4</ele><time>2026-04-12T11:18:44.953Z</time></trkpt><trkpt lat="45.265263081314295" lon="13.813932151954736"><ele>357.6</ele><time>2026-04-12T11:18:45.953Z</time></trkpt><trkpt lat="45.26533490465604" lon="13.813817821676402"><ele>357.79999999999995</ele><time>2026-04-12T11:18:46.953Z</time></trkpt><trkpt lat="45.26538190660341" lon="13.813694323728946"><ele>358.0</ele><time>2026-04-12T11:18:47.953Z</time></trkpt><trkpt lat="45.26542092814813" lon="13.813594242720137"><ele>357.5</ele><time>2026-04-12T11:18:48.953Z</time></trkpt><trkpt lat="45.26544660850671" lon="13.813483894746316"><ele>357.0</ele><time>2026-04-12T11:18:49.953Z</time></trkpt><trkpt lat="45.265460118726246" lon="13.81337650693675"><ele>356.5</ele><time>2026-04-12T11:18:50.953Z</time></trkpt><trkpt lat="45.26546766746538" lon="13.813251298235114"><ele>356.0</ele><time>2026-04-12T11:18:51.953Z</time></trkpt><trkpt lat="45.26548393866672" lon="13.813127212140241"><ele>355.5</ele><time>2026-04-12T11:18:52.953Z</time></trkpt><trkpt lat="45.26555421353617" lon="13.813025870158219"><ele>355.0</ele><time>2026-04-12T11:18:53.953Z</time></trkpt><trkpt lat="45.265585338290364" lon="13.81291393591047"><ele>355.0</ele><time>2026-04-12T11:18:54.953Z</time></trkpt><trkpt lat="45.265618006916945" lon="13.812782272839597"><ele>355.0</ele><time>2026-04-12T11:18:55.953Z</time></trkpt><trkpt lat="45.26562337211027" lon="13.812604681569711"><ele>355.0</ele><time>2026-04-12T11:18:56.953Z</time></trkpt><trkpt lat="45.26560521113249" lon="13.812418855492641"><ele>355.0</ele><time>2026-04-12T11:18:57.953Z</time></trkpt><trkpt lat="45.265601443029375" lon="13.812235004666684"><ele>354.4</ele><time>2026-04-12T11:18:58.953Z</time></trkpt><trkpt lat="45.26558167771047" lon="13.81207167642547"><ele>353.8</ele><time>2026-04-12T11:18:59.953Z</time></trkpt><trkpt lat="45.26558301465977" lon="13.811916793247365"><ele>353.20000000000005</ele><time>2026-04-12T11:19:00.953Z</time></trkpt><trkpt lat="45.26558277236252" lon="13.81177178452849"><ele>352.6</ele><time>2026-04-12T11:19:01.953Z</time></trkpt><trkpt lat="45.26557075859754" lon="13.811607586359868"><ele>352.0</ele><time>2026-04-12T11:19:02.953Z</time></trkpt><trkpt lat="45.265530926594195" lon="13.811443020102628"><ele>351.5</ele><time>2026-04-12T11:19:03.953Z</time></trkpt><trkpt lat="45.26548728088009" lon="13.811270608400976"><ele>351.0</ele><time>2026-04-12T11:19:04.953Z</time></trkpt><trkpt lat="45.265440842787065" lon="13.811089128102301"><ele>350.5</ele><time>2026-04-12T11:19:05.953Z</time></trkpt><trkpt lat="45.26541532743168" lon="13.810886424428656"><ele>350.0</ele><time>2026-04-12T11:19:06.953Z</time></trkpt><trkpt lat="45.265388195645805" lon="13.810690845365595"><ele>349.33333333333337</ele><time>2026-04-12T11:19:07.953Z</time></trkpt><trkpt lat="45.26536178822017" lon="13.810511193022553"><ele>348.6666666666667</ele><time>2026-04-12T11:19:08.953Z</time></trkpt><trkpt lat="45.26531351750464" lon="13.810343524431499"><ele>348.0</ele><time>2026-04-12T11:19:09.953Z</time></trkpt><trkpt lat="45.26524048601921" lon="13.810046082586236"><ele>348.0</ele><time>2026-04-12T11:19:11.953Z</time></trkpt><trkpt lat="45.26523908834273" lon="13.80987828429286"><ele>348.0</ele><time>2026-04-12T11:19:12.953Z</time></trkpt><trkpt lat="45.26523504769983" lon="13.809705988241868"><ele>348.0</ele><time>2026-04-12T11:19:13.953Z</time></trkpt><trkpt lat="45.26523688222335" lon="13.809526424580076"><ele>348.0</ele><time>2026-04-12T11:19:14.953Z</time></trkpt><trkpt lat="45.26523560135465" lon="13.809371003129911"><ele>348.4</ele><time>2026-04-12T11:19:15.953Z</time></trkpt><trkpt lat="45.26522315209503" lon="13.809236736245154"><ele>348.79999999999995</ele><time>2026-04-12T11:19:16.953Z</time></trkpt><trkpt lat="45.265197062378" lon="13.809118415039347"><ele>349.2</ele><time>2026-04-12T11:19:17.953Z</time></trkpt><trkpt lat="45.26512778085499" lon="13.80900897095178"><ele>349.6</ele><time>2026-04-12T11:19:18.953Z</time></trkpt><trkpt lat="45.26502243011852" lon="13.80892886078666"><ele>350.0</ele><time>2026-04-12T11:19:19.953Z</time></trkpt><trkpt lat="45.264922494845194" lon="13.80883414406315"><ele>350.0</ele><time>2026-04-12T11:19:20.953Z</time></trkpt><trkpt lat="45.26481635885065" lon="13.808740494857938"><ele>350.0</ele><time>2026-04-12T11:19:21.953Z</time></trkpt><trkpt lat="45.264774486866585" lon="13.808606991806649"><ele>350.0</ele><time>2026-04-12T11:19:22.953Z</time></trkpt><trkpt lat="45.26473775152596" lon="13.808473958527667"><ele>350.0</ele><time>2026-04-12T11:19:23.953Z</time></trkpt><trkpt lat="45.26469559077662" lon="13.808361683781182"><ele>350.0</ele><time>2026-04-12T11:19:24.953Z</time></trkpt><trkpt lat="45.26463721214717" lon="13.80826660178001"><ele>349.0</ele><time>2026-04-12T11:19:26.953Z</time></trkpt><trkpt lat="45.2645993499437" lon="13.80818731741111"><ele>348.0</ele><time>2026-04-12T11:19:28.953Z</time></trkpt><trkpt lat="45.264529475464315" lon="13.808047623187763"><ele>347.0</ele><time>2026-04-12T11:19:30.953Z</time></trkpt><trkpt lat="45.26448484382458" lon="13.807962386905425"><ele>346.0</ele><time>2026-04-12T11:19:31.953Z</time></trkpt><trkpt lat="45.2644769213226" lon="13.808070103945035"><ele>345.0</ele><time>2026-04-12T11:19:43.953Z</time></trkpt><trkpt lat="45.26453182616158" lon="13.808124241898721"><ele>344.0</ele><time>2026-04-12T11:19:44.953Z</time></trkpt><trkpt lat="45.264587489136254" lon="13.808190822531833"><ele>344.0</ele><time>2026-04-12T11:19:45.953Z</time></trkpt><trkpt lat="45.26463549335198" lon="13.808274813621287"><ele>344.0</ele><time>2026-04-12T11:19:46.953Z</time></trkpt><trkpt lat="45.264674477621256" lon="13.808404988629542"><ele>344.0</ele><time>2026-04-12T11:19:47.953Z</time></trkpt><trkpt lat="45.2647292070585" lon="13.808553728921218"><ele>344.0</ele><time>2026-04-12T11:19:48.953Z</time></trkpt><trkpt lat="45.26477400858154" lon="13.80869632544274"><ele>344.0</ele><time>2026-04-12T11:19:49.953Z</time></trkpt><trkpt lat="45.264829357057494" lon="13.80880753810928"><ele>345.0</ele><time>2026-04-12T11:19:50.953Z</time></trkpt><trkpt lat="45.26491162384697" lon="13.808876282100254"><ele>346.0</ele><time>2026-04-12T11:19:51.953Z</time></trkpt><trkpt lat="45.26497732738408" lon="13.808935389106757"><ele>347.0</ele><time>2026-04-12T11:19:52.953Z</time></trkpt><trkpt lat="45.265047572587854" lon="13.808997649193783"><ele>348.0</ele><time>2026-04-12T11:19:53.953Z</time></trkpt><trkpt lat="45.2651250585091" lon="13.809079450102956"><ele>349.0</ele><time>2026-04-12T11:19:54.953Z</time></trkpt><trkpt lat="45.26518222007143" lon="13.809161168331405"><ele>350.0</ele><time>2026-04-12T11:19:55.953Z</time></trkpt><trkpt lat="45.265224931199086" lon="13.809229224513231"><ele>350.0</ele><time>2026-04-12T11:19:57.953Z</time></trkpt><trkpt lat="45.2653250736578" lon="13.809209574687186"><ele>350.0</ele><time>2026-04-12T11:20:00.953Z</time></trkpt><trkpt lat="45.26539862395774" lon="13.809214924527655"><ele>350.0</ele><time>2026-04-12T11:20:02.953Z</time></trkpt><trkpt lat="45.265521771379156" lon="13.809231539248788"><ele>350.0</ele><time>2026-04-12T11:20:04.953Z</time></trkpt><trkpt lat="45.265586444896066" lon="13.809239439286461"><ele>350.0</ele><time>2026-04-12T11:20:05.953Z</time></trkpt><trkpt lat="45.2656859830385" lon="13.809245983092941"><ele>350.0</ele><time>2026-04-12T11:20:07.953Z</time></trkpt><trkpt lat="45.26575289241229" lon="13.80923071750379"><ele>350.0</ele><time>2026-04-12T11:20:09.953Z</time></trkpt><trkpt lat="45.265792291110685" lon="13.809314772257366"><ele>350.0</ele><time>2026-04-12T11:20:13.953Z</time></trkpt><trkpt lat="45.26573343879378" lon="13.809375964018338"><ele>350.0</ele><time>2026-04-12T11:20:17.953Z</time></trkpt><trkpt lat="45.26566894442502" lon="13.809307743318191"><ele>350.0</ele><time>2026-04-12T11:20:23.953Z</time></trkpt><trkpt lat="45.26564250999043" lon="13.809218225664996"><ele>350.0</ele><time>2026-04-12T11:20:26.953Z</time></trkpt><trkpt lat="45.26555930201899" lon="13.809226031161005"><ele>350.0</ele><time>2026-04-12T11:20:28.953Z</time></trkpt><trkpt lat="45.26545115739596" lon="13.809232690218657"><ele>350.0</ele><time>2026-04-12T11:20:30.953Z</time></trkpt><trkpt lat="45.26537652198979" lon="13.809224691265218"><ele>350.0</ele><time>2026-04-12T11:20:32.953Z</time></trkpt><trkpt lat="45.265362899566135" lon="13.809132085586642"><ele>350.0</ele><time>2026-04-12T11:20:37.953Z</time></trkpt><trkpt lat="45.26542127187536" lon="13.8090938504486"><ele>350.0</ele><time>2026-04-12T11:20:49.953Z</time></trkpt><trkpt lat="45.265446568760346" lon="13.809192759942778"><ele>350.0</ele><time>2026-04-12T11:20:52.953Z</time></trkpt><trkpt lat="45.2653865723811" lon="13.809252585759255"><ele>350.0</ele><time>2026-04-12T11:20:54.953Z</time></trkpt><trkpt lat="45.26531556637441" lon="13.809330862008109"><ele>350.0</ele><time>2026-04-12T11:20:56.953Z</time></trkpt><trkpt lat="45.2652800594021" lon="13.809428357646029"><ele>349.6</ele><time>2026-04-12T11:20:58.953Z</time></trkpt><trkpt lat="45.26524566181124" lon="13.809559053905907"><ele>349.2</ele><time>2026-04-12T11:21:00.953Z</time></trkpt><trkpt lat="45.26522263877185" lon="13.809724845069049"><ele>348.79999999999995</ele><time>2026-04-12T11:21:02.953Z</time></trkpt><trkpt lat="45.265204013308285" lon="13.80982300011061"><ele>348.4</ele><time>2026-04-12T11:21:03.953Z</time></trkpt><trkpt lat="45.26522605292018" lon="13.809941126655582"><ele>348.0</ele><time>2026-04-12T11:21:04.953Z</time></trkpt><trkpt lat="45.265231362904956" lon="13.810055588020587"><ele>347.75</ele><time>2026-04-12T11:21:05.953Z</time></trkpt><trkpt lat="45.26527429700188" lon="13.810229914315045"><ele>347.5</ele><time>2026-04-12T11:21:07.953Z</time></trkpt><trkpt lat="45.26534093421483" lon="13.810313962368003"><ele>347.25</ele><time>2026-04-12T11:21:09.953Z</time></trkpt><trkpt lat="45.2654238313569" lon="13.810340767415331"><ele>347.0</ele><time>2026-04-12T11:21:11.953Z</time></trkpt><trkpt lat="45.26557723398461" lon="13.81031946086105"><ele>347.5</ele><time>2026-04-12T11:21:13.953Z</time></trkpt><trkpt lat="45.2656873028652" lon="13.810310171083934"><ele>348.0</ele><time>2026-04-12T11:21:14.953Z</time></trkpt><trkpt lat="45.265813072649586" lon="13.810308613791317"><ele>348.5</ele><time>2026-04-12T11:21:15.953Z</time></trkpt><trkpt lat="45.265946211470514" lon="13.810335566020983"><ele>349.0</ele><time>2026-04-12T11:21:16.953Z</time></trkpt><trkpt lat="45.26609339492901" lon="13.810364802233027"><ele>349.0</ele><time>2026-04-12T11:21:17.953Z</time></trkpt><trkpt lat="45.26625436786809" lon="13.810387765611905"><ele>349.0</ele><time>2026-04-12T11:21:18.953Z</time></trkpt><trkpt lat="45.26642324326591" lon="13.810396109194405"><ele>349.0</ele><time>2026-04-12T11:21:19.953Z</time></trkpt><trkpt lat="45.266591716128566" lon="13.810408269246533"><ele>347.0</ele><time>2026-04-12T11:21:20.953Z</time></trkpt><trkpt lat="45.266754337056085" lon="13.810421288491591"><ele>345.0</ele><time>2026-04-12T11:21:21.953Z</time></trkpt><trkpt lat="45.26691279779052" lon="13.81043222649171"><ele>343.0</ele><time>2026-04-12T11:21:22.953Z</time></trkpt><trkpt lat="45.26706175773236" lon="13.8104467325511"><ele>343.0</ele><time>2026-04-12T11:21:23.953Z</time></trkpt><trkpt lat="45.26720629322476" lon="13.810466016174225"><ele>343.0</ele><time>2026-04-12T11:21:24.953Z</time></trkpt><trkpt lat="45.267338262176025" lon="13.81047846511231"><ele>343.0</ele><time>2026-04-12T11:21:25.953Z</time></trkpt><trkpt lat="45.2674899390195" lon="13.810512173029759"><ele>343.0</ele><time>2026-04-12T11:21:26.953Z</time></trkpt><trkpt lat="45.26762977547808" lon="13.810520295331209"><ele>342.0</ele><time>2026-04-12T11:21:27.953Z</time></trkpt><trkpt lat="45.26776033366371" lon="13.810522987075439"><ele>341.0</ele><time>2026-04-12T11:21:28.953Z</time></trkpt><trkpt lat="45.267897186029955" lon="13.810545440391456"><ele>340.0</ele><time>2026-04-12T11:21:29.953Z</time></trkpt><trkpt lat="45.26802292906777" lon="13.810541500994537"><ele>339.0</ele><time>2026-04-12T11:21:30.953Z</time></trkpt><trkpt lat="45.26814576814775" lon="13.810545158937092"><ele>338.75</ele><time>2026-04-12T11:21:31.953Z</time></trkpt><trkpt lat="45.26828413694506" lon="13.810553268407503"><ele>338.5</ele><time>2026-04-12T11:21:32.953Z</time></trkpt><trkpt lat="45.26843000132336" lon="13.810525592928512"><ele>338.25</ele><time>2026-04-12T11:21:33.953Z</time></trkpt><trkpt lat="45.268590727507636" lon="13.810487272839227"><ele>338.0</ele><time>2026-04-12T11:21:34.953Z</time></trkpt><trkpt lat="45.26874721121106" lon="13.810434963259071"><ele>338.0</ele><time>2026-04-12T11:21:35.953Z</time></trkpt><trkpt lat="45.268898331010064" lon="13.810400022240161"><ele>338.0</ele><time>2026-04-12T11:21:36.953Z</time></trkpt><trkpt lat="45.269035309687354" lon="13.810393428631212"><ele>338.0</ele><time>2026-04-12T11:21:37.953Z</time></trkpt><trkpt lat="45.269161321014955" lon="13.810378842140853"><ele>338.0</ele><time>2026-04-12T11:21:38.953Z</time></trkpt><trkpt lat="45.26928482702335" lon="13.810372964820948"><ele>337.25</ele><time>2026-04-12T11:21:39.953Z</time></trkpt><trkpt lat="45.26940168658841" lon="13.810398042619713"><ele>336.5</ele><time>2026-04-12T11:21:40.953Z</time></trkpt><trkpt lat="45.26951230120812" lon="13.810460163906225"><ele>335.75</ele><time>2026-04-12T11:21:41.953Z</time></trkpt><trkpt lat="45.2696371026511" lon="13.810542370240258"><ele>335.0</ele><time>2026-04-12T11:21:42.953Z</time></trkpt><trkpt lat="45.26977275579481" lon="13.810618240862691"><ele>336.0</ele><time>2026-04-12T11:21:43.953Z</time></trkpt><trkpt lat="45.269899745063775" lon="13.81068368190175"><ele>337.0</ele><time>2026-04-12T11:21:44.953Z</time></trkpt><trkpt lat="45.27002329565314" lon="13.810737533861651"><ele>338.0</ele><time>2026-04-12T11:21:45.953Z</time></trkpt><trkpt lat="45.27013466889288" lon="13.810784379511825"><ele>339.0</ele><time>2026-04-12T11:21:46.953Z</time></trkpt><trkpt lat="45.270233773472995" lon="13.810835390926384"><ele>339.0</ele><time>2026-04-12T11:21:47.953Z</time></trkpt><trkpt lat="45.2703357199691" lon="13.810911162658252"><ele>339.0</ele><time>2026-04-12T11:21:48.953Z</time></trkpt><trkpt lat="45.2704504994555" lon="13.810988532691152"><ele>339.0</ele><time>2026-04-12T11:21:49.953Z</time></trkpt><trkpt lat="45.270579220449086" lon="13.811054713100695"><ele>339.0</ele><time>2026-04-12T11:21:50.953Z</time></trkpt><trkpt lat="45.270700103915445" lon="13.811110577818217"><ele>338.4</ele><time>2026-04-12T11:21:51.953Z</time></trkpt><trkpt lat="45.270806825206286" lon="13.81116754755621"><ele>337.79999999999995</ele><time>2026-04-12T11:21:52.953Z</time></trkpt><trkpt lat="45.27091218290218" lon="13.811213161861309"><ele>337.20000000000005</ele><time>2026-04-12T11:21:53.953Z</time></trkpt><trkpt lat="45.27101579305285" lon="13.811248409489586"><ele>336.6</ele><time>2026-04-12T11:21:54.953Z</time></trkpt><trkpt lat="45.271112507589606" lon="13.811271446151009"><ele>336.0</ele><time>2026-04-12T11:21:55.953Z</time></trkpt><trkpt lat="45.27121047992597" lon="13.81128879780428"><ele>336.0</ele><time>2026-04-12T11:21:56.953Z</time></trkpt><trkpt lat="45.27129779627795" lon="13.811305637108266"><ele>336.0</ele><time>2026-04-12T11:21:57.953Z</time></trkpt><trkpt lat="45.271383321541315" lon="13.811292176587395"><ele>336.0</ele><time>2026-04-12T11:21:59.953Z</time></trkpt><trkpt lat="45.271465306236884" lon="13.811188701466184"><ele>336.0</ele><time>2026-04-12T11:22:01.953Z</time></trkpt><trkpt lat="45.271520683451485" lon="13.811092006039212"><ele>336.0</ele><time>2026-04-12T11:22:02.953Z</time></trkpt><trkpt lat="45.27157941159042" lon="13.810973281257125"><ele>335.25</ele><time>2026-04-12T11:22:03.953Z</time></trkpt><trkpt lat="45.2716406391819" lon="13.810819098787073"><ele>334.5</ele><time>2026-04-12T11:22:04.953Z</time></trkpt><trkpt lat="45.27169330928042" lon="13.810632768144343"><ele>333.75</ele><time>2026-04-12T11:22:05.953Z</time></trkpt><trkpt lat="45.27174631844671" lon="13.810423632621905"><ele>333.0</ele><time>2026-04-12T11:22:06.953Z</time></trkpt><trkpt lat="45.27179531847439" lon="13.810208438614596"><ele>334.0</ele><time>2026-04-12T11:22:07.953Z</time></trkpt><trkpt lat="45.27184322388354" lon="13.80999438580499"><ele>335.0</ele><time>2026-04-12T11:22:08.953Z</time></trkpt><trkpt lat="45.271905252504546" lon="13.80978052065118"><ele>336.0</ele><time>2026-04-12T11:22:09.953Z</time></trkpt><trkpt lat="45.27196539769056" lon="13.809565855672634"><ele>336.0</ele><time>2026-04-12T11:22:10.953Z</time></trkpt><trkpt lat="45.272015372763015" lon="13.809377046193188"><ele>336.0</ele><time>2026-04-12T11:22:11.953Z</time></trkpt><trkpt lat="45.27206923006814" lon="13.809235710864492"><ele>336.0</ele><time>2026-04-12T11:22:12.953Z</time></trkpt><trkpt lat="45.27212536824716" lon="13.809083234304493"><ele>336.0</ele><time>2026-04-12T11:22:13.953Z</time></trkpt><trkpt lat="45.272167876692265" lon="13.80892910135894"><ele>335.75</ele><time>2026-04-12T11:22:14.953Z</time></trkpt><trkpt lat="45.27220157152482" lon="13.808766433004095"><ele>335.5</ele><time>2026-04-12T11:22:15.953Z</time></trkpt><trkpt lat="45.27224498931677" lon="13.808602490398473"><ele>335.25</ele><time>2026-04-12T11:22:16.953Z</time></trkpt><trkpt lat="45.27230221743453" lon="13.808452463694607"><ele>335.0</ele><time>2026-04-12T11:22:17.953Z</time></trkpt><trkpt lat="45.272364615300596" lon="13.808313177435405"><ele>335.0</ele><time>2026-04-12T11:22:18.953Z</time></trkpt><trkpt lat="45.27243719225481" lon="13.808188804896083"><ele>335.0</ele><time>2026-04-12T11:22:19.953Z</time></trkpt><trkpt lat="45.27253566579431" lon="13.808056624530028"><ele>335.0</ele><time>2026-04-12T11:22:20.953Z</time></trkpt><trkpt lat="45.2726469587301" lon="13.80793284360052"><ele>335.0</ele><time>2026-04-12T11:22:21.953Z</time></trkpt><trkpt lat="45.27274241656428" lon="13.807815427679403"><ele>335.0</ele><time>2026-04-12T11:22:22.953Z</time></trkpt><trkpt lat="45.2728198372234" lon="13.807676410842621"><ele>335.0</ele><time>2026-04-12T11:22:23.953Z</time></trkpt><trkpt lat="45.272890999849764" lon="13.80753534471237"><ele>335.0</ele><time>2026-04-12T11:22:24.953Z</time></trkpt><trkpt lat="45.27295140332368" lon="13.807396355301842"><ele>335.0</ele><time>2026-04-12T11:22:25.953Z</time></trkpt><trkpt lat="45.272993171680895" lon="13.8072469997889"><ele>335.4</ele><time>2026-04-12T11:22:26.953Z</time></trkpt><trkpt lat="45.27303487332035" lon="13.807110112097595"><ele>335.8</ele><time>2026-04-12T11:22:27.953Z</time></trkpt><trkpt lat="45.27307717435946" lon="13.806983567000957"><ele>336.20000000000005</ele><time>2026-04-12T11:22:28.953Z</time></trkpt><trkpt lat="45.273126466948355" lon="13.806849658385277"><ele>336.6</ele><time>2026-04-12T11:22:29.953Z</time></trkpt><trkpt lat="45.27316436998011" lon="13.806702326468539"><ele>337.0</ele><time>2026-04-12T11:22:30.954Z</time></trkpt><trkpt lat="45.2732033475618" lon="13.806521974818526"><ele>334.5</ele><time>2026-04-12T11:22:31.953Z</time></trkpt><trkpt lat="45.27324045545638" lon="13.806344330409367"><ele>332.0</ele><time>2026-04-12T11:22:32.953Z</time></trkpt><trkpt lat="45.27327629609288" lon="13.806182219405423"><ele>329.5</ele><time>2026-04-12T11:22:33.954Z</time></trkpt><trkpt lat="45.27333532908389" lon="13.806043488097512"><ele>327.0</ele><time>2026-04-12T11:22:34.953Z</time></trkpt><trkpt lat="45.27336112555078" lon="13.80589542634562"><ele>326.6</ele><time>2026-04-12T11:22:35.953Z</time></trkpt><trkpt lat="45.2734059797439" lon="13.805745287609298"><ele>326.20000000000005</ele><time>2026-04-12T11:22:36.954Z</time></trkpt><trkpt lat="45.2734748593992" lon="13.80562171333605"><ele>325.8</ele><time>2026-04-12T11:22:37.954Z</time></trkpt><trkpt lat="45.2735239143183" lon="13.805492366723891"><ele>325.4</ele><time>2026-04-12T11:22:38.954Z</time></trkpt><trkpt lat="45.27357069207782" lon="13.805373335555759"><ele>325.0</ele><time>2026-04-12T11:22:39.954Z</time></trkpt><trkpt lat="45.27358903923796" lon="13.805255052546464"><ele>325.0</ele><time>2026-04-12T11:22:40.954Z</time></trkpt><trkpt lat="45.27362635909792" lon="13.805181192556994"><ele>325.0</ele><time>2026-04-12T11:22:41.954Z</time></trkpt><trkpt lat="45.27370550355044" lon="13.805128890723818"><ele>325.0</ele><time>2026-04-12T11:22:43.954Z</time></trkpt><trkpt lat="45.27379094537931" lon="13.80517251619119"><ele>325.0</ele><time>2026-04-12T11:22:45.954Z</time></trkpt><trkpt lat="45.273883037595674" lon="13.805268381628904"><ele>325.0</ele><time>2026-04-12T11:22:47.954Z</time></trkpt><trkpt lat="45.27397127106792" lon="13.805349481214225"><ele>324.25</ele><time>2026-04-12T11:22:48.954Z</time></trkpt><trkpt lat="45.274082374587934" lon="13.805441957179466"><ele>323.5</ele><time>2026-04-12T11:22:49.954Z</time></trkpt><trkpt lat="45.27420442092182" lon="13.805532526481581"><ele>322.75</ele><time>2026-04-12T11:22:50.954Z</time></trkpt><trkpt lat="45.27434253025315" lon="13.805627058667717"><ele>322.0</ele><time>2026-04-12T11:22:51.954Z</time></trkpt><trkpt lat="45.27447749187456" lon="13.805717977093128"><ele>322.0</ele><time>2026-04-12T11:22:52.954Z</time></trkpt><trkpt lat="45.27461550206332" lon="13.80580738442742"><ele>322.0</ele><time>2026-04-12T11:22:53.954Z</time></trkpt><trkpt lat="45.274765946622416" lon="13.805883923582595"><ele>322.0</ele><time>2026-04-12T11:22:54.954Z</time></trkpt><trkpt lat="45.27492360549924" lon="13.805947464363394"><ele>320.66666666666663</ele><time>2026-04-12T11:22:55.954Z</time></trkpt><trkpt lat="45.27509119048176" lon="13.806004805410195"><ele>319.3333333333333</ele><time>2026-04-12T11:22:56.954Z</time></trkpt><trkpt lat="45.27525593562767" lon="13.80605809422039"><ele>318.0</ele><time>2026-04-12T11:22:57.954Z</time></trkpt><trkpt lat="45.275424804952415" lon="13.806117976158772"><ele>318.0</ele><time>2026-04-12T11:22:58.954Z</time></trkpt><trkpt lat="45.27558912103386" lon="13.806175238086132"><ele>318.0</ele><time>2026-04-12T11:22:59.954Z</time></trkpt><trkpt lat="45.275753983729956" lon="13.806252011446334"><ele>318.0</ele><time>2026-04-12T11:23:00.954Z</time></trkpt><trkpt lat="45.27591752674192" lon="13.80632901125008"><ele>317.0</ele><time>2026-04-12T11:23:01.954Z</time></trkpt><trkpt lat="45.27607335803592" lon="13.806401216753121"><ele>316.0</ele><time>2026-04-12T11:23:02.954Z</time></trkpt><trkpt lat="45.27622507193664" lon="13.806461345305088"><ele>315.0</ele><time>2026-04-12T11:23:03.954Z</time></trkpt><trkpt lat="45.27637096921305" lon="13.806530496462274"><ele>314.6666666666667</ele><time>2026-04-12T11:23:04.954Z</time></trkpt><trkpt lat="45.276510163696486" lon="13.806612743796128"><ele>314.33333333333337</ele><time>2026-04-12T11:23:05.954Z</time></trkpt><trkpt lat="45.27665158806823" lon="13.806707669335372"><ele>314.0</ele><time>2026-04-12T11:23:06.954Z</time></trkpt><trkpt lat="45.27678891925932" lon="13.806819067678289"><ele>313.6666666666667</ele><time>2026-04-12T11:23:07.954Z</time></trkpt><trkpt lat="45.276928813744625" lon="13.806953735319238"><ele>313.3333333333333</ele><time>2026-04-12T11:23:08.954Z</time></trkpt><trkpt lat="45.27709004587592" lon="13.807125652682837"><ele>313.0</ele><time>2026-04-12T11:23:09.954Z</time></trkpt><trkpt lat="45.27724652688397" lon="13.80729172081128"><ele>313.3333333333333</ele><time>2026-04-12T11:23:10.954Z</time></trkpt><trkpt lat="45.27738262536796" lon="13.807425149440418"><ele>313.6666666666667</ele><time>2026-04-12T11:23:11.954Z</time></trkpt><trkpt lat="45.27751639035942" lon="13.807557588658065"><ele>314.0</ele><time>2026-04-12T11:23:12.954Z</time></trkpt><trkpt lat="45.2776513693872" lon="13.80767806505534"><ele>313.33333333333337</ele><time>2026-04-12T11:23:13.954Z</time></trkpt><trkpt lat="45.27778169908755" lon="13.807791141778317"><ele>312.6666666666667</ele><time>2026-04-12T11:23:14.954Z</time></trkpt><trkpt lat="45.27790971300263" lon="13.807901922508607"><ele>312.0</ele><time>2026-04-12T11:23:15.954Z</time></trkpt><trkpt lat="45.278034552100564" lon="13.808014275894678"><ele>312.75</ele><time>2026-04-12T11:23:16.954Z</time></trkpt><trkpt lat="45.2781483679795" lon="13.808125312365751"><ele>313.5</ele><time>2026-04-12T11:23:17.954Z</time></trkpt><trkpt lat="45.27826091898558" lon="13.808236918155893"><ele>314.25</ele><time>2026-04-12T11:23:18.954Z</time></trkpt><trkpt lat="45.27838606161401" lon="13.808350384290115"><ele>315.0</ele><time>2026-04-12T11:23:19.954Z</time></trkpt><trkpt lat="45.27854118305411" lon="13.808471720523304"><ele>315.0</ele><time>2026-04-12T11:23:20.954Z</time></trkpt><trkpt lat="45.27870363468399" lon="13.808605651487603"><ele>315.0</ele><time>2026-04-12T11:23:21.954Z</time></trkpt><trkpt lat="45.278847867102456" lon="13.808760506025408"><ele>315.0</ele><time>2026-04-12T11:23:22.954Z</time></trkpt><trkpt lat="45.278971271466794" lon="13.808899947003047"><ele>315.0</ele><time>2026-04-12T11:23:23.954Z</time></trkpt><trkpt lat="45.27907880835105" lon="13.809040615526941"><ele>315.0</ele><time>2026-04-12T11:23:24.954Z</time></trkpt><trkpt lat="45.27917182725561" lon="13.809172792400052"><ele>315.0</ele><time>2026-04-12T11:23:25.954Z</time></trkpt><trkpt lat="45.279260907102916" lon="13.809295042442933"><ele>315.0</ele><time>2026-04-12T11:23:26.954Z</time></trkpt><trkpt lat="45.27934953873333" lon="13.809407448038083"><ele>314.6</ele><time>2026-04-12T11:23:27.954Z</time></trkpt><trkpt lat="45.27944185286913" lon="13.8095204495572"><ele>314.2</ele><time>2026-04-12T11:23:28.954Z</time></trkpt><trkpt lat="45.27952281843406" lon="13.809626323976172"><ele>313.8</ele><time>2026-04-12T11:23:29.954Z</time></trkpt><trkpt lat="45.27959118753027" lon="13.809729454780701"><ele>313.4</ele><time>2026-04-12T11:23:30.954Z</time></trkpt><trkpt lat="45.27964553181726" lon="13.809836384987129"><ele>313.0</ele><time>2026-04-12T11:23:31.954Z</time></trkpt><trkpt lat="45.27969499070142" lon="13.809946335193546"><ele>313.0</ele><time>2026-04-12T11:23:32.954Z</time></trkpt><trkpt lat="45.27974894736492" lon="13.810055330302589"><ele>313.0</ele><time>2026-04-12T11:23:33.954Z</time></trkpt><trkpt lat="45.27980347640666" lon="13.81017490862947"><ele>313.0</ele><time>2026-04-12T11:23:34.954Z</time></trkpt><trkpt lat="45.27986572349687" lon="13.810306716275322"><ele>313.0</ele><time>2026-04-12T11:23:35.954Z</time></trkpt><trkpt lat="45.279930340727496" lon="13.810439621552392"><ele>313.0</ele><time>2026-04-12T11:23:36.954Z</time></trkpt><trkpt lat="45.280007184187255" lon="13.810591380383768"><ele>314.0</ele><time>2026-04-12T11:23:37.954Z</time></trkpt><trkpt lat="45.28008280124441" lon="13.81075742135743"><ele>315.0</ele><time>2026-04-12T11:23:38.954Z</time></trkpt><trkpt lat="45.28015604738754" lon="13.810949275807117"><ele>316.0</ele><time>2026-04-12T11:23:39.954Z</time></trkpt><trkpt lat="45.28023334106395" lon="13.811145193183439"><ele>316.0</ele><time>2026-04-12T11:23:40.954Z</time></trkpt><trkpt lat="45.2803181126197" lon="13.81133280673732"><ele>316.0</ele><time>2026-04-12T11:23:41.954Z</time></trkpt><trkpt lat="45.28041251498282" lon="13.811527570443056"><ele>316.0</ele><time>2026-04-12T11:23:42.954Z</time></trkpt><trkpt lat="45.28051711542772" lon="13.811722581627699"><ele>316.75</ele><time>2026-04-12T11:23:43.954Z</time></trkpt><trkpt lat="45.28061225251692" lon="13.811893845888058"><ele>317.5</ele><time>2026-04-12T11:23:44.954Z</time></trkpt><trkpt lat="45.28069302012536" lon="13.812052326966528"><ele>318.25</ele><time>2026-04-12T11:23:45.954Z</time></trkpt><trkpt lat="45.280772449436064" lon="13.81217927051804"><ele>319.0</ele><time>2026-04-12T11:23:46.954Z</time></trkpt><trkpt lat="45.28085830489289" lon="13.812286992432945"><ele>319.0</ele><time>2026-04-12T11:23:47.954Z</time></trkpt><trkpt lat="45.28095492313923" lon="13.812384712598927"><ele>319.0</ele><time>2026-04-12T11:23:48.954Z</time></trkpt><trkpt lat="45.28107677546504" lon="13.812494138673951"><ele>319.0</ele><time>2026-04-12T11:23:49.954Z</time></trkpt><trkpt lat="45.28119764391047" lon="13.812601125734291"><ele>319.0</ele><time>2026-04-12T11:23:50.954Z</time></trkpt><trkpt lat="45.2813251178873" lon="13.812720257710481"><ele>319.0</ele><time>2026-04-12T11:23:51.954Z</time></trkpt><trkpt lat="45.28145858968434" lon="13.812833563489335"><ele>319.0</ele><time>2026-04-12T11:23:52.954Z</time></trkpt><trkpt lat="45.28158729161648" lon="13.81293271809893"><ele>319.0</ele><time>2026-04-12T11:23:53.954Z</time></trkpt><trkpt lat="45.28171399295903" lon="13.81302661004168"><ele>319.0</ele><time>2026-04-12T11:23:54.954Z</time></trkpt><trkpt lat="45.2818437082802" lon="13.81313292276185"><ele>319.0</ele><time>2026-04-12T11:23:55.954Z</time></trkpt><trkpt lat="45.28197658676607" lon="13.813251881129522"><ele>319.0</ele><time>2026-04-12T11:23:56.954Z</time></trkpt><trkpt lat="45.28209955363532" lon="13.813384511825769"><ele>319.0</ele><time>2026-04-12T11:23:57.954Z</time></trkpt><trkpt lat="45.282217405702774" lon="13.81351466392891"><ele>319.5</ele><time>2026-04-12T11:23:58.954Z</time></trkpt><trkpt lat="45.28232450614822" lon="13.813628434750141"><ele>320.0</ele><time>2026-04-12T11:23:59.954Z</time></trkpt><trkpt lat="45.282423553627424" lon="13.813731916513492"><ele>320.5</ele><time>2026-04-12T11:24:00.954Z</time></trkpt><trkpt lat="45.28250966142168" lon="13.813842779997984"><ele>321.0</ele><time>2026-04-12T11:24:01.954Z</time></trkpt><trkpt lat="45.28257643550152" lon="13.813981078683737"><ele>321.0</ele><time>2026-04-12T11:24:02.954Z</time></trkpt><trkpt lat="45.28264632518118" lon="13.814146547935946"><ele>321.0</ele><time>2026-04-12T11:24:03.954Z</time></trkpt><trkpt lat="45.282715332640315" lon="13.814320975740118"><ele>321.0</ele><time>2026-04-12T11:24:04.954Z</time></trkpt><trkpt lat="45.282775780628356" lon="13.814476536407215"><ele>321.0</ele><time>2026-04-12T11:24:05.954Z</time></trkpt><trkpt lat="45.28281622373808" lon="13.814627686783428"><ele>321.20000000000005</ele><time>2026-04-12T11:24:06.954Z</time></trkpt><trkpt lat="45.28285121846703" lon="13.814775981244424"><ele>321.40000000000003</ele><time>2026-04-12T11:24:07.954Z</time></trkpt><trkpt lat="45.28287523819088" lon="13.814898843241624"><ele>321.6</ele><time>2026-04-12T11:24:08.954Z</time></trkpt><trkpt lat="45.2828930395181" lon="13.815020412731714"><ele>321.8</ele><time>2026-04-12T11:24:09.954Z</time></trkpt><trkpt lat="45.28289507697399" lon="13.81514566176136"><ele>322.0</ele><time>2026-04-12T11:24:10.954Z</time></trkpt><trkpt lat="45.28287653670987" lon="13.815284328285843"><ele>322.40000000000003</ele><time>2026-04-12T11:24:11.954Z</time></trkpt><trkpt lat="45.2828495135095" lon="13.81543031277295"><ele>322.8</ele><time>2026-04-12T11:24:12.954Z</time></trkpt><trkpt lat="45.282847704727715" lon="13.815567975564239"><ele>323.2</ele><time>2026-04-12T11:24:13.954Z</time></trkpt><trkpt lat="45.282863869475" lon="13.81569573339943"><ele>323.6</ele><time>2026-04-12T11:24:14.954Z</time></trkpt><trkpt lat="45.282904820310904" lon="13.815806441315125"><ele>324.0</ele><time>2026-04-12T11:24:15.954Z</time></trkpt><trkpt lat="45.282978590002024" lon="13.815907191348275"><ele>324.0</ele><time>2026-04-12T11:24:16.954Z</time></trkpt><trkpt lat="45.28306527105295" lon="13.815999014070426"><ele>324.0</ele><time>2026-04-12T11:24:17.954Z</time></trkpt><trkpt lat="45.283186153354414" lon="13.81610053592638"><ele>324.0</ele><time>2026-04-12T11:24:18.954Z</time></trkpt><trkpt lat="45.28330369845207" lon="13.8162388148841"><ele>324.0</ele><time>2026-04-12T11:24:19.954Z</time></trkpt><trkpt lat="45.28342389914591" lon="13.816384449370013"><ele>324.0</ele><time>2026-04-12T11:24:20.954Z</time></trkpt><trkpt lat="45.28354139863794" lon="13.81651795107683"><ele>324.0</ele><time>2026-04-12T11:24:21.954Z</time></trkpt><trkpt lat="45.28364671529611" lon="13.816639197508831"><ele>324.0</ele><time>2026-04-12T11:24:22.954Z</time></trkpt><trkpt lat="45.28375072319906" lon="13.816753397684732"><ele>324.0</ele><time>2026-04-12T11:24:23.954Z</time></trkpt><trkpt lat="45.28386682714851" lon="13.81686458291898"><ele>324.75</ele><time>2026-04-12T11:24:24.954Z</time></trkpt><trkpt lat="45.283993369409174" lon="13.816964151828257"><ele>325.5</ele><time>2026-04-12T11:24:25.954Z</time></trkpt><trkpt lat="45.28410959041373" lon="13.817074262997702"><ele>326.25</ele><time>2026-04-12T11:24:26.954Z</time></trkpt><trkpt lat="45.284202962991316" lon="13.817184115296767"><ele>327.0</ele><time>2026-04-12T11:24:27.954Z</time></trkpt><trkpt lat="45.28427443465102" lon="13.817270874222482"><ele>327.0</ele><time>2026-04-12T11:24:28.954Z</time></trkpt><trkpt lat="45.28434843459831" lon="13.817333173521021"><ele>327.0</ele><time>2026-04-12T11:24:29.954Z</time></trkpt><trkpt lat="45.28441178724283" lon="13.817383348327134"><ele>327.0</ele><time>2026-04-12T11:24:30.954Z</time></trkpt><trkpt lat="45.28447098487648" lon="13.817444702444444"><ele>327.0</ele><time>2026-04-12T11:24:31.954Z</time></trkpt><trkpt lat="45.284506725822055" lon="13.817541628620729"><ele>327.0</ele><time>2026-04-12T11:24:32.954Z</time></trkpt><trkpt lat="45.28453372444574" lon="13.817664034559478"><ele>327.0</ele><time>2026-04-12T11:24:33.954Z</time></trkpt><trkpt lat="45.2845709646612" lon="13.817817989709097"><ele>328.0</ele><time>2026-04-12T11:24:34.954Z</time></trkpt><trkpt lat="45.2846225868737" lon="13.817962862338593"><ele>329.0</ele><time>2026-04-12T11:24:35.954Z</time></trkpt><trkpt lat="45.2846915054664" lon="13.818077407425964"><ele>330.0</ele><time>2026-04-12T11:24:36.953Z</time></trkpt><trkpt lat="45.28477158784802" lon="13.818170590431754"><ele>331.0</ele><time>2026-04-12T11:24:37.954Z</time></trkpt><trkpt lat="45.28483683453456" lon="13.818261740685493"><ele>332.0</ele><time>2026-04-12T11:24:38.954Z</time></trkpt><trkpt lat="45.284893522478036" lon="13.818361236803323"><ele>332.25</ele><time>2026-04-12T11:24:39.953Z</time></trkpt><trkpt lat="45.28495575934708" lon="13.818493493402569"><ele>332.5</ele><time>2026-04-12T11:24:40.954Z</time></trkpt><trkpt lat="45.28503040097137" lon="13.818620160297055"><ele>332.75</ele><time>2026-04-12T11:24:41.954Z</time></trkpt><trkpt lat="45.28512266103377" lon="13.818754366076456"><ele>333.0</ele><time>2026-04-12T11:24:42.954Z</time></trkpt><trkpt lat="45.285228907011415" lon="13.818895934843438"><ele>333.0</ele><time>2026-04-12T11:24:43.954Z</time></trkpt><trkpt lat="45.285350169499075" lon="13.819043964879226"><ele>333.0</ele><time>2026-04-12T11:24:44.954Z</time></trkpt><trkpt lat="45.285470585420946" lon="13.819193173197364"><ele>333.0</ele><time>2026-04-12T11:24:45.954Z</time></trkpt><trkpt lat="45.285583757244055" lon="13.819341459552286"><ele>333.5</ele><time>2026-04-12T11:24:46.955Z</time></trkpt><trkpt lat="45.28567940325267" lon="13.819465556719498"><ele>334.0</ele><time>2026-04-12T11:24:47.955Z</time></trkpt><trkpt lat="45.28577369956656" lon="13.819586709843865"><ele>334.5</ele><time>2026-04-12T11:24:48.954Z</time></trkpt><trkpt lat="45.285866576969724" lon="13.819672966948994"><ele>335.0</ele><time>2026-04-12T11:24:49.954Z</time></trkpt><trkpt lat="45.28594665641016" lon="13.819763853238587"><ele>335.0</ele><time>2026-04-12T11:24:50.955Z</time></trkpt><trkpt lat="45.28602089356655" lon="13.819838113806595"><ele>335.0</ele><time>2026-04-12T11:24:51.955Z</time></trkpt><trkpt lat="45.286093351810734" lon="13.819919697966748"><ele>335.0</ele><time>2026-04-12T11:24:52.955Z</time></trkpt><trkpt lat="45.28617583879323" lon="13.820014624439745"><ele>335.0</ele><time>2026-04-12T11:24:53.955Z</time></trkpt><trkpt lat="45.28625887075917" lon="13.82010024981839"><ele>335.0</ele><time>2026-04-12T11:24:54.955Z</time></trkpt><trkpt lat="45.28634612493007" lon="13.82018546098331"><ele>335.2</ele><time>2026-04-12T11:24:55.955Z</time></trkpt><trkpt lat="45.28643593194365" lon="13.820263561158965"><ele>335.4</ele><time>2026-04-12T11:24:56.955Z</time></trkpt><trkpt lat="45.28649275040979" lon="13.820361915510446"><ele>335.6</ele><time>2026-04-12T11:24:57.955Z</time></trkpt><trkpt lat="45.28657502193553" lon="13.820479955950276"><ele>335.8</ele><time>2026-04-12T11:24:59.955Z</time></trkpt><trkpt lat="45.28665095637127" lon="13.820574106644177"><ele>336.0</ele><time>2026-04-12T11:25:01.955Z</time></trkpt><trkpt lat="45.286749761332366" lon="13.820682642928496"><ele>336.0</ele><time>2026-04-12T11:25:03.955Z</time></trkpt><trkpt lat="45.28680275634112" lon="13.82073741157653"><ele>336.0</ele><time>2026-04-12T11:25:04.955Z</time></trkpt><trkpt lat="45.286875478696814" lon="13.820818206532412"><ele>336.0</ele><time>2026-04-12T11:25:05.955Z</time></trkpt><trkpt lat="45.286946939504446" lon="13.820899997006276"><ele>336.0</ele><time>2026-04-12T11:25:06.955Z</time></trkpt><trkpt lat="45.28702328586377" lon="13.820990232205562"><ele>336.0</ele><time>2026-04-12T11:25:07.955Z</time></trkpt><trkpt lat="45.28708520894692" lon="13.821064707783673"><ele>336.0</ele><time>2026-04-12T11:25:08.955Z</time></trkpt><trkpt lat="45.28715123442641" lon="13.82112589370805"><ele>335.8</ele><time>2026-04-12T11:25:09.955Z</time></trkpt><trkpt lat="45.2872097293429" lon="13.821180163910476"><ele>335.6</ele><time>2026-04-12T11:25:10.955Z</time></trkpt><trkpt lat="45.287263174598266" lon="13.821247931693163"><ele>335.4</ele><time>2026-04-12T11:25:11.955Z</time></trkpt><trkpt lat="45.28731136544667" lon="13.82133768442439"><ele>335.2</ele><time>2026-04-12T11:25:12.955Z</time></trkpt><trkpt lat="45.28737087132833" lon="13.821471549395058"><ele>335.0</ele><time>2026-04-12T11:25:13.955Z</time></trkpt><trkpt lat="45.28745695673548" lon="13.821605707142659"><ele>336.25</ele><time>2026-04-12T11:25:14.955Z</time></trkpt><trkpt lat="45.28755318317958" lon="13.82176082243967"><ele>337.5</ele><time>2026-04-12T11:25:15.955Z</time></trkpt><trkpt lat="45.28764196440002" lon="13.821902870024282"><ele>338.75</ele><time>2026-04-12T11:25:16.955Z</time></trkpt><trkpt lat="45.287719341002266" lon="13.82201724197111"><ele>340.0</ele><time>2026-04-12T11:25:17.955Z</time></trkpt><trkpt lat="45.28777652272288" lon="13.822107069541358"><ele>340.0</ele><time>2026-04-12T11:25:18.955Z</time></trkpt><trkpt lat="45.287826785666304" lon="13.822172235709262"><ele>340.0</ele><time>2026-04-12T11:25:19.955Z</time></trkpt><trkpt lat="45.28789017856883" lon="13.822224007751517"><ele>340.0</ele><time>2026-04-12T11:25:20.955Z</time></trkpt><trkpt lat="45.28796936442342" lon="13.822251188474077"><ele>340.0</ele><time>2026-04-12T11:25:21.955Z</time></trkpt><trkpt lat="45.288062543776604" lon="13.822250267172674"><ele>340.0</ele><time>2026-04-12T11:25:22.955Z</time></trkpt><trkpt lat="45.2881553661242" lon="13.822239843328765"><ele>340.0</ele><time>2026-04-12T11:25:23.955Z</time></trkpt><trkpt lat="45.28822998479588" lon="13.822215228054851"><ele>340.0</ele><time>2026-04-12T11:25:24.955Z</time></trkpt><trkpt lat="45.2883070929204" lon="13.822211411175823"><ele>340.0</ele><time>2026-04-12T11:25:25.955Z</time></trkpt><trkpt lat="45.28836863093987" lon="13.822242988343362"><ele>340.0</ele><time>2026-04-12T11:25:26.955Z</time></trkpt><trkpt lat="45.28845968432948" lon="13.822314770107294"><ele>340.0</ele><time>2026-04-12T11:25:27.955Z</time></trkpt><trkpt lat="45.28856204225002" lon="13.822389804887667"><ele>340.0</ele><time>2026-04-12T11:25:28.955Z</time></trkpt><trkpt lat="45.28865021406795" lon="13.82244527624915"><ele>340.0</ele><time>2026-04-12T11:25:29.955Z</time></trkpt><trkpt lat="45.288729754756574" lon="13.822509018585128"><ele>340.0</ele><time>2026-04-12T11:25:30.955Z</time></trkpt><trkpt lat="45.288816552420094" lon="13.822576518450424"><ele>340.0</ele><time>2026-04-12T11:25:31.955Z</time></trkpt><trkpt lat="45.28888627439051" lon="13.822619784092996"><ele>340.0</ele><time>2026-04-12T11:25:32.955Z</time></trkpt><trkpt lat="45.28897359214943" lon="13.822622347093173"><ele>340.0</ele><time>2026-04-12T11:25:33.955Z</time></trkpt><trkpt lat="45.28907211542244" lon="13.82260923452582"><ele>339.5</ele><time>2026-04-12T11:25:34.955Z</time></trkpt><trkpt lat="45.28916609564984" lon="13.822576347871511"><ele>339.0</ele><time>2026-04-12T11:25:35.955Z</time></trkpt><trkpt lat="45.28924452170104" lon="13.822581777752594"><ele>338.5</ele><time>2026-04-12T11:25:36.955Z</time></trkpt><trkpt lat="45.28932087998355" lon="13.822594339346027"><ele>338.0</ele><time>2026-04-12T11:25:37.955Z</time></trkpt><trkpt lat="45.2894035333706" lon="13.822650946678626"><ele>337.5</ele><time>2026-04-12T11:25:38.955Z</time></trkpt><trkpt lat="45.28948014227479" lon="13.822712404085875"><ele>337.0</ele><time>2026-04-12T11:25:39.955Z</time></trkpt><trkpt lat="45.28955187320323" lon="13.822761016386915"><ele>336.6</ele><time>2026-04-12T11:25:40.955Z</time></trkpt><trkpt lat="45.28961056887026" lon="13.82280764196464"><ele>336.20000000000005</ele><time>2026-04-12T11:25:41.955Z</time></trkpt><trkpt lat="45.28973111887024" lon="13.822917919273236"><ele>335.8</ele><time>2026-04-12T11:25:43.955Z</time></trkpt><trkpt lat="45.28981504404427" lon="13.822993761991789"><ele>335.4</ele><time>2026-04-12T11:25:44.955Z</time></trkpt><trkpt lat="45.28990005882189" lon="13.82307319547199"><ele>335.0</ele><time>2026-04-12T11:25:45.955Z</time></trkpt><trkpt lat="45.28999632000858" lon="13.823140734507774"><ele>334.2</ele><time>2026-04-12T11:25:46.955Z</time></trkpt><trkpt lat="45.290093551821045" lon="13.823197304637231"><ele>333.4</ele><time>2026-04-12T11:25:47.955Z</time></trkpt><trkpt lat="45.290175693003334" lon="13.823251621671306"><ele>332.6</ele><time>2026-04-12T11:25:48.955Z</time></trkpt><trkpt lat="45.29024949423962" lon="13.823322111415873"><ele>331.8</ele><time>2026-04-12T11:25:49.955Z</time></trkpt><trkpt lat="45.29032940988199" lon="13.8233901754349"><ele>331.0</ele><time>2026-04-12T11:25:50.955Z</time></trkpt><trkpt lat="45.29040545261158" lon="13.823437752894101"><ele>331.0</ele><time>2026-04-12T11:25:51.955Z</time></trkpt><trkpt lat="45.29048797693208" lon="13.823452476117188"><ele>331.0</ele><time>2026-04-12T11:25:52.955Z</time></trkpt><trkpt lat="45.29057333629052" lon="13.823463286728282"><ele>331.0</ele><time>2026-04-12T11:25:53.955Z</time></trkpt><trkpt lat="45.290655252545385" lon="13.82345220433567"><ele>331.0</ele><time>2026-04-12T11:25:54.955Z</time></trkpt><trkpt lat="45.290733757986395" lon="13.823397606907818"><ele>331.0</ele><time>2026-04-12T11:25:55.955Z</time></trkpt><trkpt lat="45.290813050479635" lon="13.823337538586378"><ele>331.0</ele><time>2026-04-12T11:25:56.955Z</time></trkpt><trkpt lat="45.29089167243181" lon="13.823286163819715"><ele>330.6</ele><time>2026-04-12T11:25:57.955Z</time></trkpt><trkpt lat="45.29097489725016" lon="13.823259513090958"><ele>330.20000000000005</ele><time>2026-04-12T11:25:58.955Z</time></trkpt><trkpt lat="45.29107070427874" lon="13.82326456123873"><ele>329.79999999999995</ele><time>2026-04-12T11:25:59.955Z</time></trkpt><trkpt lat="45.291179304183906" lon="13.823289753361301"><ele>329.4</ele><time>2026-04-12T11:26:00.955Z</time></trkpt><trkpt lat="45.29129867142273" lon="13.82334845508036"><ele>329.0</ele><time>2026-04-12T11:26:01.955Z</time></trkpt><trkpt lat="45.291419120391" lon="13.82341594134185"><ele>327.33333333333337</ele><time>2026-04-12T11:26:02.955Z</time></trkpt><trkpt lat="45.29153340294632" lon="13.823485744190707"><ele>325.6666666666667</ele><time>2026-04-12T11:26:03.955Z</time></trkpt><trkpt lat="45.29161422169817" lon="13.823574930641135"><ele>324.0</ele><time>2026-04-12T11:26:04.955Z</time></trkpt><trkpt lat="45.291676825535056" lon="13.823654342640156"><ele>322.3333333333333</ele><time>2026-04-12T11:26:05.955Z</time></trkpt><trkpt lat="45.291719899209994" lon="13.823728991435036"><ele>320.66666666666663</ele><time>2026-04-12T11:26:06.955Z</time></trkpt><trkpt lat="45.29177300711217" lon="13.823786735534343"><ele>319.0</ele><time>2026-04-12T11:26:08.955Z</time></trkpt><trkpt lat="45.291946287443665" lon="13.823892329095104"><ele>319.0</ele><time>2026-04-12T11:30:02.955Z</time></trkpt><trkpt lat="45.29202802906626" lon="13.823911655120348"><ele>319.0</ele><time>2026-04-12T11:30:03.955Z</time></trkpt><trkpt lat="45.29212082391155" lon="13.823947430703159"><ele>319.0</ele><time>2026-04-12T11:30:04.955Z</time></trkpt><trkpt lat="45.29223676736575" lon="13.82397257493411"><ele>319.0</ele><time>2026-04-12T11:30:05.955Z</time></trkpt><trkpt lat="45.29235581515643" lon="13.8239960483974"><ele>319.0</ele><time>2026-04-12T11:30:06.955Z</time></trkpt><trkpt lat="45.2924729623927" lon="13.824027209492256"><ele>318.25</ele><time>2026-04-12T11:30:07.955Z</time></trkpt><trkpt lat="45.29261119080406" lon="13.824070586445803"><ele>317.5</ele><time>2026-04-12T11:30:08.955Z</time></trkpt><trkpt lat="45.29274375474581" lon="13.824104930983482"><ele>316.75</ele><time>2026-04-12T11:30:09.955Z</time></trkpt><trkpt lat="45.2928898398967" lon="13.82413733277396"><ele>316.0</ele><time>2026-04-12T11:30:10.955Z</time></trkpt><trkpt lat="45.293033168176684" lon="13.824173794913621"><ele>315.75</ele><time>2026-04-12T11:30:11.955Z</time></trkpt><trkpt lat="45.29316830764051" lon="13.824212244406187"><ele>315.5</ele><time>2026-04-12T11:30:12.955Z</time></trkpt><trkpt lat="45.29330070099395" lon="13.824241318606079"><ele>315.25</ele><time>2026-04-12T11:30:13.955Z</time></trkpt><trkpt lat="45.29343644396844" lon="13.824264832481843"><ele>315.0</ele><time>2026-04-12T11:30:14.955Z</time></trkpt><trkpt lat="45.29357721067494" lon="13.824293137298158"><ele>313.75</ele><time>2026-04-12T11:30:15.955Z</time></trkpt><trkpt lat="45.29370880755179" lon="13.82433429146979"><ele>312.5</ele><time>2026-04-12T11:30:16.955Z</time></trkpt><trkpt lat="45.2938604553287" lon="13.824354118468225"><ele>311.25</ele><time>2026-04-12T11:30:17.955Z</time></trkpt><trkpt lat="45.293978904661465" lon="13.824375157443788"><ele>310.0</ele><time>2026-04-12T11:30:18.955Z</time></trkpt><trkpt lat="45.29411569641459" lon="13.824406993573168"><ele>309.5</ele><time>2026-04-12T11:30:19.955Z</time></trkpt><trkpt lat="45.29426213913097" lon="13.824443283569424"><ele>309.0</ele><time>2026-04-12T11:30:20.955Z</time></trkpt><trkpt lat="45.29440321185159" lon="13.824469525420934"><ele>308.5</ele><time>2026-04-12T11:30:21.955Z</time></trkpt><trkpt lat="45.29453105037691" lon="13.824475209035437"><ele>308.0</ele><time>2026-04-12T11:30:22.955Z</time></trkpt><trkpt lat="45.29466185838384" lon="13.82443832867715"><ele>307.75</ele><time>2026-04-12T11:30:23.955Z</time></trkpt><trkpt lat="45.29478608019406" lon="13.824361393736277"><ele>307.5</ele><time>2026-04-12T11:30:24.955Z</time></trkpt><trkpt lat="45.29490086746085" lon="13.824262006187185"><ele>307.25</ele><time>2026-04-12T11:30:25.955Z</time></trkpt><trkpt lat="45.29500685622937" lon="13.824140550189338"><ele>307.0</ele><time>2026-04-12T11:30:26.955Z</time></trkpt><trkpt lat="45.29510525563785" lon="13.824008272206722"><ele>307.0</ele><time>2026-04-12T11:30:27.955Z</time></trkpt><trkpt lat="45.29521559044027" lon="13.823870134099613"><ele>307.0</ele><time>2026-04-12T11:30:28.955Z</time></trkpt><trkpt lat="45.29533126442561" lon="13.82375852414999"><ele>307.0</ele><time>2026-04-12T11:30:29.955Z</time></trkpt><trkpt lat="45.295448491035145" lon="13.823668345878154"><ele>307.0</ele><time>2026-04-12T11:30:30.956Z</time></trkpt><trkpt lat="45.2955748478399" lon="13.823598139586139"><ele>307.0</ele><time>2026-04-12T11:30:31.956Z</time></trkpt><trkpt lat="45.29571860875335" lon="13.823518015282913"><ele>307.0</ele><time>2026-04-12T11:30:32.956Z</time></trkpt><trkpt lat="45.295863910684" lon="13.823426717586841"><ele>307.0</ele><time>2026-04-12T11:30:33.956Z</time></trkpt><trkpt lat="45.2960124022077" lon="13.823333633476544"><ele>305.66666666666663</ele><time>2026-04-12T11:30:34.956Z</time></trkpt><trkpt lat="45.29616842314575" lon="13.823239695225135"><ele>304.3333333333333</ele><time>2026-04-12T11:30:35.956Z</time></trkpt><trkpt lat="45.296328745624905" lon="13.823148035851146"><ele>303.0</ele><time>2026-04-12T11:30:36.956Z</time></trkpt><trkpt lat="45.29648748148465" lon="13.823057569758834"><ele>301.6666666666667</ele><time>2026-04-12T11:30:37.956Z</time></trkpt><trkpt lat="45.29664192452513" lon="13.822962092163257"><ele>300.33333333333337</ele><time>2026-04-12T11:30:38.956Z</time></trkpt><trkpt lat="45.296791829529624" lon="13.822869229668932"><ele>299.0</ele><time>2026-04-12T11:30:39.956Z</time></trkpt><trkpt lat="45.296937292181994" lon="13.822781980151213"><ele>299.0</ele><time>2026-04-12T11:30:40.956Z</time></trkpt><trkpt lat="45.29708410096818" lon="13.822703812437688"><ele>299.0</ele><time>2026-04-12T11:30:41.956Z</time></trkpt><trkpt lat="45.297229443446675" lon="13.82265669628049"><ele>299.0</ele><time>2026-04-12T11:30:42.956Z</time></trkpt><trkpt lat="45.29737983822773" lon="13.822678638700152"><ele>298.5</ele><time>2026-04-12T11:30:43.956Z</time></trkpt><trkpt lat="45.297518157680166" lon="13.822693217959372"><ele>298.0</ele><time>2026-04-12T11:30:44.956Z</time></trkpt><trkpt lat="45.297659697648754" lon="13.82271534247595"><ele>297.5</ele><time>2026-04-12T11:30:45.956Z</time></trkpt><trkpt lat="45.297793683779076" lon="13.8227630407247"><ele>297.0</ele><time>2026-04-12T11:30:46.956Z</time></trkpt><trkpt lat="45.2979409122611" lon="13.822791860876356"><ele>293.3333333333333</ele><time>2026-04-12T11:30:47.956Z</time></trkpt><trkpt lat="45.29809837318623" lon="13.822828825929342"><ele>289.66666666666663</ele><time>2026-04-12T11:30:48.956Z</time></trkpt><trkpt lat="45.298241621235256" lon="13.822862464371351"><ele>286.0</ele><time>2026-04-12T11:30:49.956Z</time></trkpt><trkpt lat="45.29839053431155" lon="13.822902632489061"><ele>286.0</ele><time>2026-04-12T11:30:50.956Z</time></trkpt><trkpt lat="45.29853857503035" lon="13.82294223553519"><ele>286.0</ele><time>2026-04-12T11:30:51.956Z</time></trkpt><trkpt lat="45.29867895348719" lon="13.822965771467924"><ele>286.0</ele><time>2026-04-12T11:30:52.956Z</time></trkpt><trkpt lat="45.29881458914605" lon="13.822974729527589"><ele>286.0</ele><time>2026-04-12T11:30:53.956Z</time></trkpt><trkpt lat="45.298948446928875" lon="13.822988252498773"><ele>283.75</ele><time>2026-04-12T11:30:54.956Z</time></trkpt><trkpt lat="45.29906154789312" lon="13.82290583060625"><ele>281.5</ele><time>2026-04-12T11:30:55.957Z</time></trkpt><trkpt lat="45.29915726222275" lon="13.822818937316708"><ele>279.25</ele><time>2026-04-12T11:30:56.957Z</time></trkpt><trkpt lat="45.2992466663388" lon="13.822752122166108"><ele>277.0</ele><time>2026-04-12T11:30:57.956Z</time></trkpt><trkpt lat="45.29935593364694" lon="13.822734308659166"><ele>277.0</ele><time>2026-04-12T11:30:58.956Z</time></trkpt><trkpt lat="45.29945854515799" lon="13.822746124300627"><ele>277.0</ele><time>2026-04-12T11:30:59.956Z</time></trkpt><trkpt lat="45.299565578793064" lon="13.82276505767706"><ele>277.0</ele><time>2026-04-12T11:31:00.957Z</time></trkpt><trkpt lat="45.29968227791702" lon="13.822769526344983"><ele>277.0</ele><time>2026-04-12T11:31:01.956Z</time></trkpt><trkpt lat="45.299799666785" lon="13.822780384113663"><ele>277.0</ele><time>2026-04-12T11:31:02.956Z</time></trkpt><trkpt lat="45.29992446594238" lon="13.822783300754857"><ele>275.5</ele><time>2026-04-12T11:31:03.956Z</time></trkpt><trkpt lat="45.300049778465265" lon="13.822794256800051"><ele>274.0</ele><time>2026-04-12T11:31:04.957Z</time></trkpt><trkpt lat="45.300177953290024" lon="13.822806566261299"><ele>272.5</ele><time>2026-04-12T11:31:05.957Z</time></trkpt><trkpt lat="45.30030154844831" lon="13.822845124417382"><ele>271.0</ele><time>2026-04-12T11:31:06.956Z</time></trkpt><trkpt lat="45.3004129630566" lon="13.822931293132523"><ele>271.0</ele><time>2026-04-12T11:31:07.957Z</time></trkpt><trkpt lat="45.300492911264016" lon="13.823061572779968"><ele>271.0</ele><time>2026-04-12T11:31:08.957Z</time></trkpt><trkpt lat="45.30055211676505" lon="13.823210887591083"><ele>271.0</ele><time>2026-04-12T11:31:09.957Z</time></trkpt><trkpt lat="45.300620159527064" lon="13.823341721202873"><ele>271.0</ele><time>2026-04-12T11:31:10.957Z</time></trkpt><trkpt lat="45.30067988887741" lon="13.823471818725382"><ele>271.16666666666663</ele><time>2026-04-12T11:31:11.957Z</time></trkpt><trkpt lat="45.30073718573191" lon="13.823576105364054"><ele>271.3333333333333</ele><time>2026-04-12T11:31:12.957Z</time></trkpt><trkpt lat="45.300792181925395" lon="13.82367586309401"><ele>271.5</ele><time>2026-04-12T11:31:13.957Z</time></trkpt><trkpt lat="45.300843301368474" lon="13.823764830671227"><ele>271.6666666666667</ele><time>2026-04-12T11:31:14.957Z</time></trkpt><trkpt lat="45.30088530462584" lon="13.823848125301504"><ele>271.83333333333337</ele><time>2026-04-12T11:31:15.957Z</time></trkpt><trkpt lat="45.30091729132591" lon="13.823929886657162"><ele>272.0</ele><time>2026-04-12T11:31:16.957Z</time></trkpt><trkpt lat="45.30098558304954" lon="13.824075420095161"><ele>272.0</ele><time>2026-04-12T11:31:18.957Z</time></trkpt><trkpt lat="45.30103522164824" lon="13.824199808186304"><ele>272.0</ele><time>2026-04-12T11:31:20.957Z</time></trkpt><trkpt lat="45.301098599854214" lon="13.824261470329724"><ele>272.0</ele><time>2026-04-12T11:31:22.957Z</time></trkpt><trkpt lat="45.30118484335451" lon="13.824309294264479"><ele>272.0</ele><time>2026-04-12T11:31:46.957Z</time></trkpt><trkpt lat="45.30120037644381" lon="13.82421248131528"><ele>272.0</ele><time>2026-04-12T11:31:49.957Z</time></trkpt><trkpt lat="45.30113162283843" lon="13.824218077775603"><ele>272.0</ele><time>2026-04-12T11:31:51.957Z</time></trkpt><trkpt lat="45.30104898918732" lon="13.824142839503486"><ele>272.0</ele><time>2026-04-12T11:31:53.957Z</time></trkpt><trkpt lat="45.300991475577874" lon="13.824027302455397"><ele>272.0</ele><time>2026-04-12T11:31:54.957Z</time></trkpt><trkpt lat="45.300947066617105" lon="13.823924664060087"><ele>272.0</ele><time>2026-04-12T11:31:55.957Z</time></trkpt><trkpt lat="45.30089752773263" lon="13.823801049180421"><ele>272.0</ele><time>2026-04-12T11:31:56.957Z</time></trkpt><trkpt lat="45.3008534956792" lon="13.82371788068425"><ele>272.0</ele><time>2026-04-12T11:31:57.957Z</time></trkpt><trkpt lat="45.300840111778264" lon="13.823628127752853"><ele>272.0</ele><time>2026-04-12T11:31:59.957Z</time></trkpt><trkpt lat="45.3008519807392" lon="13.823817032703133"><ele>272.0</ele><time>2026-04-12T11:34:00.956Z</time></trkpt><trkpt lat="45.300898625762485" lon="13.823931882173323"><ele>272.0</ele><time>2026-04-12T11:34:01.956Z</time></trkpt><trkpt lat="45.30094441342682" lon="13.82405351947752"><ele>272.0</ele><time>2026-04-12T11:34:02.956Z</time></trkpt><trkpt lat="45.30099935136894" lon="13.824160432679326"><ele>272.0</ele><time>2026-04-12T11:34:03.956Z</time></trkpt><trkpt lat="45.3010674110894" lon="13.824264769734771"><ele>272.0</ele><time>2026-04-12T11:34:04.956Z</time></trkpt><trkpt lat="45.30114477177628" lon="13.824321637164319"><ele>271.2</ele><time>2026-04-12T11:34:05.956Z</time></trkpt><trkpt lat="45.30121986129287" lon="13.824350344217207"><ele>270.4</ele><time>2026-04-12T11:34:06.956Z</time></trkpt><trkpt lat="45.30132852484935" lon="13.824361983524245"><ele>269.6</ele><time>2026-04-12T11:34:07.956Z</time></trkpt><trkpt lat="45.301431941454176" lon="13.824354001357445"><ele>268.8</ele><time>2026-04-12T11:34:08.956Z</time></trkpt><trkpt lat="45.30152951715272" lon="13.824343938837384"><ele>268.0</ele><time>2026-04-12T11:34:09.956Z</time></trkpt><trkpt lat="45.301621294557044" lon="13.824351457584457"><ele>268.0</ele><time>2026-04-12T11:34:10.956Z</time></trkpt><trkpt lat="45.301712608453066" lon="13.824366199223363"><ele>268.0</ele><time>2026-04-12T11:34:11.956Z</time></trkpt><trkpt lat="45.30180452344363" lon="13.824373031909316"><ele>268.0</ele><time>2026-04-12T11:34:12.956Z</time></trkpt><trkpt lat="45.301912347053694" lon="13.824383421378446"><ele>268.0</ele><time>2026-04-12T11:34:13.956Z</time></trkpt><trkpt lat="45.30202582017797" lon="13.824396718425927"><ele>268.0</ele><time>2026-04-12T11:34:14.956Z</time></trkpt><trkpt lat="45.302134525645506" lon="13.824389849221362"><ele>268.0</ele><time>2026-04-12T11:34:15.956Z</time></trkpt><trkpt lat="45.30222726700485" lon="13.824381064142061"><ele>268.0</ele><time>2026-04-12T11:34:16.956Z</time></trkpt><trkpt lat="45.302300547931495" lon="13.824350883865126"><ele>268.0</ele><time>2026-04-12T11:34:17.956Z</time></trkpt><trkpt lat="45.302365198317695" lon="13.824295415170482"><ele>268.0</ele><time>2026-04-12T11:34:18.956Z</time></trkpt><trkpt lat="45.302453994627335" lon="13.824242753923158"><ele>268.0</ele><time>2026-04-12T11:34:19.956Z</time></trkpt><trkpt lat="45.30256672219244" lon="13.824185231611152"><ele>267.75</ele><time>2026-04-12T11:34:20.956Z</time></trkpt><trkpt lat="45.302687363628785" lon="13.824120329541307"><ele>267.5</ele><time>2026-04-12T11:34:21.956Z</time></trkpt><trkpt lat="45.30280439624069" lon="13.824055921647998"><ele>267.25</ele><time>2026-04-12T11:34:22.957Z</time></trkpt><trkpt lat="45.30292102929385" lon="13.823989957592522"><ele>267.0</ele><time>2026-04-12T11:34:23.957Z</time></trkpt><trkpt lat="45.303039064578996" lon="13.823924526575926"><ele>265.5</ele><time>2026-04-12T11:34:24.957Z</time></trkpt><trkpt lat="45.30315191661362" lon="13.823863358336075"><ele>264.0</ele><time>2026-04-12T11:34:25.957Z</time></trkpt><trkpt lat="45.30326644104392" lon="13.823795345115274"><ele>262.5</ele><time>2026-04-12T11:34:26.957Z</time></trkpt><trkpt lat="45.303366605501765" lon="13.823725587844816"><ele>261.0</ele><time>2026-04-12T11:34:27.957Z</time></trkpt><trkpt lat="45.303474366481964" lon="13.82366961034874"><ele>261.0</ele><time>2026-04-12T11:34:28.957Z</time></trkpt><trkpt lat="45.30356820745807" lon="13.823620658727952"><ele>261.0</ele><time>2026-04-12T11:34:29.957Z</time></trkpt><trkpt lat="45.30366381457734" lon="13.823568725092665"><ele>261.0</ele><time>2026-04-12T11:34:30.957Z</time></trkpt><trkpt lat="45.30374955738618" lon="13.823516099938585"><ele>261.0</ele><time>2026-04-12T11:34:31.957Z</time></trkpt><trkpt lat="45.303828968290446" lon="13.823461357447195"><ele>261.0</ele><time>2026-04-12T11:34:32.957Z</time></trkpt><trkpt lat="45.30390753383051" lon="13.823439047517057"><ele>261.14285714285717</ele><time>2026-04-12T11:34:33.957Z</time></trkpt><trkpt lat="45.30397810512542" lon="13.823398931769402"><ele>261.2857142857143</ele><time>2026-04-12T11:34:34.957Z</time></trkpt><trkpt lat="45.30403957614961" lon="13.82335780721678"><ele>261.42857142857144</ele><time>2026-04-12T11:34:35.957Z</time></trkpt><trkpt lat="45.30411831611807" lon="13.82332187133566"><ele>261.57142857142856</ele><time>2026-04-12T11:34:36.957Z</time></trkpt><trkpt lat="45.304184642357086" lon="13.823278316001245"><ele>261.7142857142857</ele><time>2026-04-12T11:34:37.957Z</time></trkpt><trkpt lat="45.304245968633076" lon="13.823236840228176"><ele>261.8571428571429</ele><time>2026-04-12T11:34:38.957Z</time></trkpt><trkpt lat="45.30430340825626" lon="13.82318370409287"><ele>262.0</ele><time>2026-04-12T11:34:39.957Z</time></trkpt><trkpt lat="45.30439280057679" lon="13.823143265767543"><ele>262.0</ele><time>2026-04-12T11:34:41.957Z</time></trkpt><trkpt lat="45.30442030997833" lon="13.82304764351506"><ele>262.0</ele><time>2026-04-12T11:35:06.957Z</time></trkpt><trkpt lat="45.304443114716605" lon="13.822960201445202"><ele>262.0</ele><time>2026-04-12T11:35:08.957Z</time></trkpt><trkpt lat="45.30448506829766" lon="13.822888459792567"><ele>262.0</ele><time>2026-04-12T11:35:13.957Z</time></trkpt><trkpt lat="45.30440153520761" lon="13.822823255060015"><ele>262.0</ele><time>2026-04-12T11:35:27.957Z</time></trkpt><trkpt lat="45.304278462979596" lon="13.822877066275892"><ele>262.0</ele><time>2026-04-12T11:35:29.957Z</time></trkpt><trkpt lat="45.30418775140939" lon="13.823008649944304"><ele>262.0</ele><time>2026-04-12T11:35:31.957Z</time></trkpt><trkpt lat="45.30416520338097" lon="13.823120682579274"><ele>262.0</ele><time>2026-04-12T11:35:32.957Z</time></trkpt><trkpt lat="45.304139662378944" lon="13.823223749695986"><ele>262.0</ele><time>2026-04-12T11:35:33.957Z</time></trkpt><trkpt lat="45.30409823455683" lon="13.823304818916974"><ele>262.0</ele><time>2026-04-12T11:35:34.957Z</time></trkpt><trkpt lat="45.30399608530774" lon="13.823353186362787"><ele>262.0</ele><time>2026-04-12T11:35:36.957Z</time></trkpt><trkpt lat="45.303905516022404" lon="13.823384509487857"><ele>262.0</ele><time>2026-04-12T11:35:38.957Z</time></trkpt><trkpt lat="45.30384161721191" lon="13.823426942333658"><ele>261.8333333333333</ele><time>2026-04-12T11:35:39.957Z</time></trkpt><trkpt lat="45.30377427540945" lon="13.823486320769325"><ele>261.66666666666663</ele><time>2026-04-12T11:35:43.957Z</time></trkpt><trkpt lat="45.30370414448361" lon="13.823507320737557"><ele>261.5</ele><time>2026-04-12T11:35:45.957Z</time></trkpt><trkpt lat="45.30362227486533" lon="13.823555468823088"><ele>261.3333333333333</ele><time>2026-04-12T11:36:06.958Z</time></trkpt><trkpt lat="45.303564328580066" lon="13.823608658651336"><ele>261.1666666666667</ele><time>2026-04-12T11:36:08.958Z</time></trkpt><trkpt lat="45.30367136542722" lon="13.823585926016678"><ele>261.0</ele><time>2026-04-12T11:36:19.958Z</time></trkpt><trkpt lat="45.30374314038165" lon="13.823533193420698"><ele>261.0</ele><time>2026-04-12T11:36:20.958Z</time></trkpt><trkpt lat="45.303822291181774" lon="13.82348737406061"><ele>261.0</ele><time>2026-04-12T11:36:21.958Z</time></trkpt><trkpt lat="45.30390170357585" lon="13.823442495349573"><ele>261.0</ele><time>2026-04-12T11:36:22.958Z</time></trkpt><trkpt lat="45.303987513779994" lon="13.823403539176399"><ele>261.0</ele><time>2026-04-12T11:36:23.958Z</time></trkpt><trkpt lat="45.30406733975932" lon="13.823351174605044"><ele>261.0</ele><time>2026-04-12T11:36:24.958Z</time></trkpt><trkpt lat="45.30414891209343" lon="13.823292146581098"><ele>261.0</ele><time>2026-04-12T11:36:25.958Z</time></trkpt><trkpt lat="45.3042245252795" lon="13.823240371483235"><ele>261.1666666666667</ele><time>2026-04-12T11:36:26.958Z</time></trkpt><trkpt lat="45.30429476425814" lon="13.82317376057037"><ele>261.3333333333333</ele><time>2026-04-12T11:36:27.958Z</time></trkpt><trkpt lat="45.30436593336472" lon="13.823140243337647"><ele>261.5</ele><time>2026-04-12T11:36:28.958Z</time></trkpt><trkpt lat="45.30444588460062" lon="13.823068632079696"><ele>261.66666666666663</ele><time>2026-04-12T11:36:30.958Z</time></trkpt><trkpt lat="45.304494804488925" lon="13.822955661399206"><ele>261.8333333333333</ele><time>2026-04-12T11:36:32.958Z</time></trkpt><trkpt lat="45.30453022556135" lon="13.82286837359356"><ele>262.0</ele><time>2026-04-12T11:36:33.958Z</time></trkpt><trkpt lat="45.3045914738475" lon="13.82264737968563"><ele>262.0</ele><time>2026-04-12T11:36:35.958Z</time></trkpt><trkpt lat="45.30463136280643" lon="13.822509380678193"><ele>262.0</ele><time>2026-04-12T11:36:36.958Z</time></trkpt><trkpt lat="45.30467694133095" lon="13.822374123764973"><ele>262.0</ele><time>2026-04-12T11:36:37.958Z</time></trkpt><trkpt lat="45.304734289367424" lon="13.822250793941537"><ele>262.0</ele><time>2026-04-12T11:36:38.958Z</time></trkpt><trkpt lat="45.3047938145228" lon="13.822144162508781"><ele>262.0</ele><time>2026-04-12T11:36:39.958Z</time></trkpt><trkpt lat="45.30486732420576" lon="13.822060350609632"><ele>260.0</ele><time>2026-04-12T11:36:40.958Z</time></trkpt><trkpt lat="45.3049531067622" lon="13.82200233409646"><ele>258.0</ele><time>2026-04-12T11:36:41.958Z</time></trkpt><trkpt lat="45.30505276453468" lon="13.821959200280109"><ele>256.0</ele><time>2026-04-12T11:36:42.958Z</time></trkpt><trkpt lat="45.305151856592765" lon="13.82192202765925"><ele>254.0</ele><time>2026-04-12T11:36:43.958Z</time></trkpt><trkpt lat="45.30525318943889" lon="13.821888364523156"><ele>252.0</ele><time>2026-04-12T11:36:44.958Z</time></trkpt><trkpt lat="45.305357736814095" lon="13.821858969262765"><ele>252.0</ele><time>2026-04-12T11:36:45.958Z</time></trkpt><trkpt lat="45.305471653088006" lon="13.82185574013466"><ele>252.0</ele><time>2026-04-12T11:36:46.958Z</time></trkpt><trkpt lat="45.305581742508906" lon="13.821880010520871"><ele>252.0</ele><time>2026-04-12T11:36:47.958Z</time></trkpt><trkpt lat="45.30569153945993" lon="13.821929504562558"><ele>252.0</ele><time>2026-04-12T11:36:48.958Z</time></trkpt><trkpt lat="45.305810951541105" lon="13.822022744246146"><ele>250.0</ele><time>2026-04-12T11:36:49.958Z</time></trkpt><trkpt lat="45.30591833378271" lon="13.822136444107764"><ele>248.0</ele><time>2026-04-12T11:36:50.958Z</time></trkpt><trkpt lat="45.30601555388993" lon="13.822272039264547"><ele>246.0</ele><time>2026-04-12T11:36:51.958Z</time></trkpt><trkpt lat="45.30611288095186" lon="13.822399789133096"><ele>244.0</ele><time>2026-04-12T11:36:52.958Z</time></trkpt><trkpt lat="45.30621078665214" lon="13.822512522648704"><ele>244.0</ele><time>2026-04-12T11:36:53.958Z</time></trkpt><trkpt lat="45.30630494408643" lon="13.822622779131759"><ele>244.0</ele><time>2026-04-12T11:36:54.958Z</time></trkpt><trkpt lat="45.3063963575852" lon="13.822731532983957"><ele>244.0</ele><time>2026-04-12T11:36:55.958Z</time></trkpt><trkpt lat="45.30648766849721" lon="13.822839284998325"><ele>244.0</ele><time>2026-04-12T11:36:56.958Z</time></trkpt><trkpt lat="45.30657834987933" lon="13.822940253944738"><ele>243.0</ele><time>2026-04-12T11:36:57.958Z</time></trkpt><trkpt lat="45.30666048631354" lon="13.823051047251646"><ele>241.99999999999997</ele><time>2026-04-12T11:36:58.958Z</time></trkpt><trkpt lat="45.30672597691844" lon="13.823174367670257"><ele>240.99999999999997</ele><time>2026-04-12T11:36:59.958Z</time></trkpt><trkpt lat="45.306758363789854" lon="13.823324159961741"><ele>240.0</ele><time>2026-04-12T11:37:00.958Z</time></trkpt><trkpt lat="45.30679918187401" lon="13.823466687081243"><ele>239.0</ele><time>2026-04-12T11:37:01.958Z</time></trkpt><trkpt lat="45.306826663453336" lon="13.823625934964245"><ele>237.5</ele><time>2026-04-12T11:37:02.958Z</time></trkpt><trkpt lat="45.30685963876195" lon="13.823798074407163"><ele>236.0</ele><time>2026-04-12T11:37:03.958Z</time></trkpt><trkpt lat="45.306900474108446" lon="13.823981484144479"><ele>234.5</ele><time>2026-04-12T11:37:04.958Z</time></trkpt><trkpt lat="45.30694248372297" lon="13.82417555062765"><ele>233.0</ele><time>2026-04-12T11:37:05.958Z</time></trkpt><trkpt lat="45.3069847572329" lon="13.824363836544403"><ele>232.5</ele><time>2026-04-12T11:37:06.958Z</time></trkpt><trkpt lat="45.307031885049135" lon="13.82453363774267"><ele>232.0</ele><time>2026-04-12T11:37:07.958Z</time></trkpt><trkpt lat="45.30711050832404" lon="13.824657643337334"><ele>231.5</ele><time>2026-04-12T11:37:08.958Z</time></trkpt><trkpt lat="45.307201863985476" lon="13.824737236530863"><ele>231.0</ele><time>2026-04-12T11:37:09.958Z</time></trkpt><trkpt lat="45.307315203772696" lon="13.824764360194928"><ele>230.5</ele><time>2026-04-12T11:37:10.958Z</time></trkpt><trkpt lat="45.307442611131755" lon="13.824732844533125"><ele>230.0</ele><time>2026-04-12T11:37:11.957Z</time></trkpt><trkpt lat="45.307590374851024" lon="13.824696099782164"><ele>229.5</ele><time>2026-04-12T11:37:12.957Z</time></trkpt><trkpt lat="45.30772931598032" lon="13.824674318791336"><ele>229.0</ele><time>2026-04-12T11:37:13.957Z</time></trkpt><trkpt lat="45.307864988725136" lon="13.824667802291804"><ele>229.0</ele><time>2026-04-12T11:37:14.958Z</time></trkpt><trkpt lat="45.308023469482514" lon="13.824630252775023"><ele>229.0</ele><time>2026-04-12T11:37:15.957Z</time></trkpt><trkpt lat="45.308196905529954" lon="13.824597809136163"><ele>229.0</ele><time>2026-04-12T11:37:16.957Z</time></trkpt><trkpt lat="45.30839624177902" lon="13.824561628575271"><ele>227.0</ele><time>2026-04-12T11:37:17.957Z</time></trkpt><trkpt lat="45.308594195207775" lon="13.824527632038826"><ele>225.0</ele><time>2026-04-12T11:37:18.957Z</time></trkpt><trkpt lat="45.30876316505803" lon="13.824499554875352"><ele>223.0</ele><time>2026-04-12T11:37:19.957Z</time></trkpt><trkpt lat="45.30893731426963" lon="13.824471559388156"><ele>221.66666666666666</ele><time>2026-04-12T11:37:20.957Z</time></trkpt><trkpt lat="45.30908942671381" lon="13.824437932159448"><ele>220.33333333333331</ele><time>2026-04-12T11:37:21.957Z</time></trkpt><trkpt lat="45.309256491559935" lon="13.824410124434618"><ele>219.0</ele><time>2026-04-12T11:37:22.957Z</time></trkpt><trkpt lat="45.30943697069649" lon="13.824372376831786"><ele>219.0</ele><time>2026-04-12T11:37:23.957Z</time></trkpt><trkpt lat="45.30959997766197" lon="13.824350619216352"><ele>219.0</ele><time>2026-04-12T11:37:24.957Z</time></trkpt><trkpt lat="45.309756766954834" lon="13.824323618187522"><ele>219.0</ele><time>2026-04-12T11:37:25.957Z</time></trkpt><trkpt lat="45.30991766381599" lon="13.824291861065769"><ele>217.0</ele><time>2026-04-12T11:37:26.957Z</time></trkpt><trkpt lat="45.31008244628832" lon="13.82426663932354"><ele>215.0</ele><time>2026-04-12T11:37:27.957Z</time></trkpt><trkpt lat="45.310247006902365" lon="13.824235571103799"><ele>213.0</ele><time>2026-04-12T11:37:28.957Z</time></trkpt><trkpt lat="45.31040522090593" lon="13.824213193857558"><ele>212.66666666666669</ele><time>2026-04-12T11:37:29.957Z</time></trkpt><trkpt lat="45.310574890914125" lon="13.824182845110398"><ele>212.33333333333334</ele><time>2026-04-12T11:37:30.957Z</time></trkpt><trkpt lat="45.310756924465" lon="13.824152168991038"><ele>212.0</ele><time>2026-04-12T11:37:31.957Z</time></trkpt><trkpt lat="45.31094149730096" lon="13.824112802234778"><ele>212.0</ele><time>2026-04-12T11:37:32.957Z</time></trkpt><trkpt lat="45.31111832757941" lon="13.824082809189212"><ele>212.0</ele><time>2026-04-12T11:37:33.957Z</time></trkpt><trkpt lat="45.31128928817642" lon="13.824059373277116"><ele>212.0</ele><time>2026-04-12T11:37:34.957Z</time></trkpt><trkpt lat="45.31146169895989" lon="13.824028182446904"><ele>211.33333333333334</ele><time>2026-04-12T11:37:35.957Z</time></trkpt><trkpt lat="45.31163001872511" lon="13.823998794103547"><ele>210.66666666666669</ele><time>2026-04-12T11:37:36.957Z</time></trkpt><trkpt lat="45.31180272457106" lon="13.82397096994246"><ele>210.0</ele><time>2026-04-12T11:37:37.957Z</time></trkpt><trkpt lat="45.311978142393585" lon="13.823934555686252"><ele>210.0</ele><time>2026-04-12T11:37:38.957Z</time></trkpt><trkpt lat="45.31214877675733" lon="13.823910498157618"><ele>210.0</ele><time>2026-04-12T11:37:39.957Z</time></trkpt><trkpt lat="45.31231647170867" lon="13.823887172597221"><ele>210.0</ele><time>2026-04-12T11:37:40.957Z</time></trkpt><trkpt lat="45.31248252854308" lon="13.823861808335458"><ele>213.0</ele><time>2026-04-12T11:37:41.957Z</time></trkpt><trkpt lat="45.31264868018305" lon="13.823833244499177"><ele>216.0</ele><time>2026-04-12T11:37:42.957Z</time></trkpt><trkpt lat="45.312805602532606" lon="13.823803659553556"><ele>219.0</ele><time>2026-04-12T11:37:43.957Z</time></trkpt><trkpt lat="45.312949825952046" lon="13.823748884595888"><ele>221.75</ele><time>2026-04-12T11:37:44.957Z</time></trkpt><trkpt lat="45.31307437129313" lon="13.823680139522079"><ele>224.5</ele><time>2026-04-12T11:37:45.957Z</time></trkpt><trkpt lat="45.31319545455492" lon="13.823607149881436"><ele>227.25</ele><time>2026-04-12T11:37:46.957Z</time></trkpt><trkpt lat="45.31330202924109" lon="13.823559886946368"><ele>230.0</ele><time>2026-04-12T11:37:47.957Z</time></trkpt><trkpt lat="45.31340215388617" lon="13.823551132892076"><ele>230.00000000000003</ele><time>2026-04-12T11:37:48.957Z</time></trkpt><trkpt lat="45.31349278396337" lon="13.823581349187847"><ele>230.0</ele><time>2026-04-12T11:37:49.957Z</time></trkpt><trkpt lat="45.31355998467314" lon="13.823658757376002"><ele>230.0</ele><time>2026-04-12T11:37:50.957Z</time></trkpt><trkpt lat="45.31358733825323" lon="13.823766053763757"><ele>230.0</ele><time>2026-04-12T11:37:51.957Z</time></trkpt><trkpt lat="45.31357860845652" lon="13.82388695808839"><ele>230.00000000000003</ele><time>2026-04-12T11:37:52.957Z</time></trkpt><trkpt lat="45.31353525002984" lon="13.824003393555351"><ele>230.0</ele><time>2026-04-12T11:37:53.957Z</time></trkpt><trkpt lat="45.31345150663363" lon="13.824091898322473"><ele>230.0</ele><time>2026-04-12T11:37:54.957Z</time></trkpt><trkpt lat="45.313367753361014" lon="13.824198163819087"><ele>230.0</ele><time>2026-04-12T11:37:55.957Z</time></trkpt><trkpt lat="45.31327326351428" lon="13.824321533234958"><ele>230.0</ele><time>2026-04-12T11:37:56.957Z</time></trkpt><trkpt lat="45.31318506652564" lon="13.824470931145218"><ele>230.0</ele><time>2026-04-12T11:37:57.957Z</time></trkpt><trkpt lat="45.31312906094392" lon="13.824641836448917"><ele>230.25</ele><time>2026-04-12T11:37:58.957Z</time></trkpt><trkpt lat="45.3131293917892" lon="13.824847032598502"><ele>230.5</ele><time>2026-04-12T11:37:59.957Z</time></trkpt><trkpt lat="45.313159897617204" lon="13.825041475090563"><ele>230.75</ele><time>2026-04-12T11:38:00.957Z</time></trkpt><trkpt lat="45.313227503605624" lon="13.825200899622514"><ele>231.0</ele><time>2026-04-12T11:38:01.957Z</time></trkpt><trkpt lat="45.313339279144905" lon="13.82533687954598"><ele>231.0</ele><time>2026-04-12T11:38:02.957Z</time></trkpt><trkpt lat="45.31349397677846" lon="13.825406419122288"><ele>231.0</ele><time>2026-04-12T11:38:03.957Z</time></trkpt><trkpt lat="45.31365199304027" lon="13.825395210173562"><ele>231.0</ele><time>2026-04-12T11:38:04.957Z</time></trkpt><trkpt lat="45.31381448314099" lon="13.825347832255824"><ele>233.5</ele><time>2026-04-12T11:38:05.957Z</time></trkpt><trkpt lat="45.313955579022945" lon="13.825312886734729"><ele>236.0</ele><time>2026-04-12T11:38:06.957Z</time></trkpt><trkpt lat="45.31408342130379" lon="13.825251645584487"><ele>238.5</ele><time>2026-04-12T11:38:07.957Z</time></trkpt><trkpt lat="45.314222680046214" lon="13.825200735269373"><ele>241.0</ele><time>2026-04-12T11:38:08.957Z</time></trkpt><trkpt lat="45.314386362793556" lon="13.825103716636649"><ele>244.0</ele><time>2026-04-12T11:38:09.957Z</time></trkpt><trkpt lat="45.31455645909723" lon="13.82500848983535"><ele>247.0</ele><time>2026-04-12T11:38:10.957Z</time></trkpt><trkpt lat="45.31474420109168" lon="13.824915031698605"><ele>250.0</ele><time>2026-04-12T11:38:11.957Z</time></trkpt><trkpt lat="45.314900830632574" lon="13.82487750703283"><ele>250.0</ele><time>2026-04-12T11:38:12.957Z</time></trkpt><trkpt lat="45.31505789409774" lon="13.824787112969961"><ele>250.0</ele><time>2026-04-12T11:38:13.957Z</time></trkpt><trkpt lat="45.315220221384635" lon="13.82468818702318"><ele>250.0</ele><time>2026-04-12T11:38:14.957Z</time></trkpt><trkpt lat="45.31538345104611" lon="13.824602315201199"><ele>250.0</ele><time>2026-04-12T11:38:15.957Z</time></trkpt><trkpt lat="45.31555119551258" lon="13.824520976033908"><ele>250.0</ele><time>2026-04-12T11:38:16.957Z</time></trkpt><trkpt lat="45.31573423010068" lon="13.824469629457678"><ele>250.0</ele><time>2026-04-12T11:38:17.957Z</time></trkpt><trkpt lat="45.31590758882241" lon="13.824378600339683"><ele>250.75</ele><time>2026-04-12T11:38:18.957Z</time></trkpt><trkpt lat="45.31603726637818" lon="13.824326635040473"><ele>251.5</ele><time>2026-04-12T11:38:19.957Z</time></trkpt><trkpt lat="45.31619025755827" lon="13.824299811711567"><ele>252.25</ele><time>2026-04-12T11:38:20.957Z</time></trkpt><trkpt lat="45.316343379161545" lon="13.824304696104178"><ele>253.0</ele><time>2026-04-12T11:38:21.957Z</time></trkpt><trkpt lat="45.31649917841677" lon="13.824344824374462"><ele>256.66666666666663</ele><time>2026-04-12T11:38:22.957Z</time></trkpt><trkpt lat="45.316633930464555" lon="13.824473016436418"><ele>260.3333333333333</ele><time>2026-04-12T11:38:23.957Z</time></trkpt><trkpt lat="45.31676529762144" lon="13.824607148583375"><ele>264.0</ele><time>2026-04-12T11:38:24.957Z</time></trkpt><trkpt lat="45.316892295237174" lon="13.824769062933752"><ele>264.0</ele><time>2026-04-12T11:38:25.957Z</time></trkpt><trkpt lat="45.316990289886895" lon="13.824939740737053"><ele>264.0</ele><time>2026-04-12T11:38:26.957Z</time></trkpt><trkpt lat="45.31702586965379" lon="13.825152639559501"><ele>264.0</ele><time>2026-04-12T11:38:27.957Z</time></trkpt><trkpt lat="45.317030454733896" lon="13.82533452200424"><ele>264.0</ele><time>2026-04-12T11:38:28.957Z</time></trkpt><trkpt lat="45.317024391094414" lon="13.82553751435592"><ele>264.0</ele><time>2026-04-12T11:38:29.957Z</time></trkpt><trkpt lat="45.31701536606027" lon="13.825731496782847"><ele>264.0</ele><time>2026-04-12T11:38:30.957Z</time></trkpt><trkpt lat="45.31701571234807" lon="13.825945319089454"><ele>264.0</ele><time>2026-04-12T11:38:31.957Z</time></trkpt><trkpt lat="45.31701645205824" lon="13.826163175496692"><ele>264.0</ele><time>2026-04-12T11:38:32.957Z</time></trkpt><trkpt lat="45.31701774902293" lon="13.826373831605313"><ele>265.0</ele><time>2026-04-12T11:38:33.957Z</time></trkpt><trkpt lat="45.31702025555766" lon="13.82657357943741"><ele>266.0</ele><time>2026-04-12T11:38:34.957Z</time></trkpt><trkpt lat="45.3170441682599" lon="13.826756313644097"><ele>267.0</ele><time>2026-04-12T11:38:35.957Z</time></trkpt><trkpt lat="45.317094646344465" lon="13.826924177788236"><ele>268.0</ele><time>2026-04-12T11:38:36.957Z</time></trkpt><trkpt lat="45.317164272905764" lon="13.827065265737096"><ele>268.75</ele><time>2026-04-12T11:38:37.957Z</time></trkpt><trkpt lat="45.31726538055237" lon="13.827155074020753"><ele>269.5</ele><time>2026-04-12T11:38:38.957Z</time></trkpt><trkpt lat="45.317387039108965" lon="13.827200960226621"><ele>270.25</ele><time>2026-04-12T11:38:39.957Z</time></trkpt><trkpt lat="45.31753907378868" lon="13.827176711349045"><ele>271.0</ele><time>2026-04-12T11:38:40.957Z</time></trkpt><trkpt lat="45.31769700489457" lon="13.827137469336854"><ele>271.0</ele><time>2026-04-12T11:38:41.957Z</time></trkpt><trkpt lat="45.3178690600486" lon="13.827124277105636"><ele>271.0</ele><time>2026-04-12T11:38:42.957Z</time></trkpt><trkpt lat="45.31803647041383" lon="13.82710263618913"><ele>271.0</ele><time>2026-04-12T11:38:43.957Z</time></trkpt><trkpt lat="45.31821143788783" lon="13.827082655438158"><ele>267.0</ele><time>2026-04-12T11:38:44.957Z</time></trkpt><trkpt lat="45.31837867682959" lon="13.827078864361816"><ele>263.0</ele><time>2026-04-12T11:38:45.957Z</time></trkpt><trkpt lat="45.31855312411122" lon="13.827053179504128"><ele>259.0</ele><time>2026-04-12T11:38:46.957Z</time></trkpt><trkpt lat="45.318717323890844" lon="13.82701067977938"><ele>259.0</ele><time>2026-04-12T11:38:47.957Z</time></trkpt><trkpt lat="45.31887851049744" lon="13.826925214109734"><ele>259.0</ele><time>2026-04-12T11:38:48.957Z</time></trkpt><trkpt lat="45.319039104188384" lon="13.826815482374805"><ele>259.0</ele><time>2026-04-12T11:38:49.957Z</time></trkpt><trkpt lat="45.319185736237436" lon="13.82667794715969"><ele>260.66666666666663</ele><time>2026-04-12T11:38:50.957Z</time></trkpt><trkpt lat="45.31932146724472" lon="13.826522090371805"><ele>262.3333333333333</ele><time>2026-04-12T11:38:51.957Z</time></trkpt><trkpt lat="45.319442146577764" lon="13.826336401820353"><ele>264.0</ele><time>2026-04-12T11:38:52.957Z</time></trkpt><trkpt lat="45.319541445951806" lon="13.826122604234047"><ele>268.0</ele><time>2026-04-12T11:38:53.957Z</time></trkpt><trkpt lat="45.319621957348964" lon="13.825907256910579"><ele>272.0</ele><time>2026-04-12T11:38:54.957Z</time></trkpt><trkpt lat="45.319685718636066" lon="13.825686086593928"><ele>276.0</ele><time>2026-04-12T11:38:55.957Z</time></trkpt><trkpt lat="45.319751098704614" lon="13.825473609686156"><ele>271.0</ele><time>2026-04-12T11:38:56.957Z</time></trkpt><trkpt lat="45.31983432258638" lon="13.825282314686914"><ele>266.0</ele><time>2026-04-12T11:38:57.957Z</time></trkpt><trkpt lat="45.319926151026536" lon="13.825111738504573"><ele>261.0</ele><time>2026-04-12T11:38:58.957Z</time></trkpt><trkpt lat="45.3200329071291" lon="13.824979757651992"><ele>261.0</ele><time>2026-04-12T11:38:59.957Z</time></trkpt><trkpt lat="45.320161789625814" lon="13.82489135007959"><ele>261.0</ele><time>2026-04-12T11:39:00.957Z</time></trkpt><trkpt lat="45.3203088529368" lon="13.82485541351233"><ele>261.0</ele><time>2026-04-12T11:39:01.957Z</time></trkpt><trkpt lat="45.32045887900517" lon="13.82486316325833"><ele>261.0</ele><time>2026-04-12T11:39:02.957Z</time></trkpt><trkpt lat="45.32060727012749" lon="13.824918094572386"><ele>259.3333333333333</ele><time>2026-04-12T11:39:03.957Z</time></trkpt><trkpt lat="45.320748431041906" lon="13.825015084695762"><ele>257.66666666666663</ele><time>2026-04-12T11:39:04.957Z</time></trkpt><trkpt lat="45.32086610950069" lon="13.825170920121296"><ele>256.0</ele><time>2026-04-12T11:39:05.957Z</time></trkpt><trkpt lat="45.320998217593356" lon="13.825309196441665"><ele>249.0</ele><time>2026-04-12T11:39:06.957Z</time></trkpt><trkpt lat="45.321140446044865" lon="13.825433378392601"><ele>242.0</ele><time>2026-04-12T11:39:07.957Z</time></trkpt><trkpt lat="45.32130384873052" lon="13.825517176210079"><ele>235.0</ele><time>2026-04-12T11:39:08.957Z</time></trkpt><trkpt lat="45.3214604060159" lon="13.825583894886918"><ele>235.0</ele><time>2026-04-12T11:39:09.957Z</time></trkpt><trkpt lat="45.32162477500271" lon="13.825632342507769"><ele>235.0</ele><time>2026-04-12T11:39:10.957Z</time></trkpt><trkpt lat="45.321794122977984" lon="13.825667590600036"><ele>235.0</ele><time>2026-04-12T11:39:11.957Z</time></trkpt><trkpt lat="45.321973842792154" lon="13.82568467163091"><ele>235.0</ele><time>2026-04-12T11:39:12.957Z</time></trkpt><trkpt lat="45.32213847674401" lon="13.82571975001737"><ele>235.0</ele><time>2026-04-12T11:39:13.957Z</time></trkpt><trkpt lat="45.32230476761618" lon="13.825760302561045"><ele>235.0</ele><time>2026-04-12T11:39:14.957Z</time></trkpt><trkpt lat="45.32246759099376" lon="13.825816643071192"><ele>234.33333333333331</ele><time>2026-04-12T11:39:15.957Z</time></trkpt><trkpt lat="45.32262658735127" lon="13.825893594123814"><ele>233.66666666666669</ele><time>2026-04-12T11:39:16.957Z</time></trkpt><trkpt lat="45.3227709134987" lon="13.82600110317044"><ele>233.0</ele><time>2026-04-12T11:39:17.957Z</time></trkpt><trkpt lat="45.32289935818271" lon="13.826151920115512"><ele>231.0</ele><time>2026-04-12T11:39:18.956Z</time></trkpt><trkpt lat="45.3229989369356" lon="13.826323916884588"><ele>229.0</ele><time>2026-04-12T11:39:19.956Z</time></trkpt><trkpt lat="45.32307608698986" lon="13.826511553510453"><ele>227.0</ele><time>2026-04-12T11:39:20.957Z</time></trkpt><trkpt lat="45.32314155397413" lon="13.826684838242922"><ele>225.0</ele><time>2026-04-12T11:39:21.956Z</time></trkpt><trkpt lat="45.32319812792313" lon="13.826817148673952"><ele>223.0</ele><time>2026-04-12T11:39:22.956Z</time></trkpt><trkpt lat="45.32324708168554" lon="13.826917226859821"><ele>221.0</ele><time>2026-04-12T11:39:23.957Z</time></trkpt><trkpt lat="45.323327975078016" lon="13.827029939895581"><ele>219.0</ele><time>2026-04-12T11:39:25.956Z</time></trkpt><trkpt lat="45.323395137933616" lon="13.827077008600037"><ele>217.0</ele><time>2026-04-12T11:39:27.956Z</time></trkpt><trkpt lat="45.323452863177494" lon="13.827124244738167"><ele>215.0</ele><time>2026-04-12T11:39:30.957Z</time></trkpt><trkpt lat="45.323493282160655" lon="13.827194760433084"><ele>213.0</ele><time>2026-04-12T11:40:37.957Z</time></trkpt><trkpt lat="45.32358156733751" lon="13.827182162761469"><ele>213.0</ele><time>2026-04-12T11:40:40.957Z</time></trkpt><trkpt lat="45.32367142996684" lon="13.827092340883949"><ele>213.0</ele><time>2026-04-12T11:40:42.957Z</time></trkpt><trkpt lat="45.32373974164989" lon="13.827042139053132"><ele>213.0</ele><time>2026-04-12T11:40:43.957Z</time></trkpt><trkpt lat="45.32383658257772" lon="13.826973487471667"><ele>213.0</ele><time>2026-04-12T11:40:44.957Z</time></trkpt><trkpt lat="45.323926756074" lon="13.826891409858566"><ele>213.0</ele><time>2026-04-12T11:40:45.957Z</time></trkpt><trkpt lat="45.32401789608688" lon="13.826794622326108"><ele>212.75</ele><time>2026-04-12T11:40:46.957Z</time></trkpt><trkpt lat="45.32411994591196" lon="13.826698047083726"><ele>212.5</ele><time>2026-04-12T11:40:47.957Z</time></trkpt><trkpt lat="45.32422633694968" lon="13.8265979347072"><ele>212.25</ele><time>2026-04-12T11:40:48.957Z</time></trkpt><trkpt lat="45.32433111186425" lon="13.826490203283402"><ele>212.0</ele><time>2026-04-12T11:40:49.957Z</time></trkpt><trkpt lat="45.32443502190463" lon="13.826388911268594"><ele>212.0</ele><time>2026-04-12T11:40:50.957Z</time></trkpt><trkpt lat="45.324538680126736" lon="13.826282819296926"><ele>212.0</ele><time>2026-04-12T11:40:51.957Z</time></trkpt><trkpt lat="45.324635640136236" lon="13.826180510642562"><ele>212.0</ele><time>2026-04-12T11:40:52.957Z</time></trkpt><trkpt lat="45.32473594786155" lon="13.82607503103597"><ele>212.0</ele><time>2026-04-12T11:40:53.957Z</time></trkpt><trkpt lat="45.324834942323776" lon="13.825977864612614"><ele>210.0</ele><time>2026-04-12T11:40:54.957Z</time></trkpt><trkpt lat="45.32493283946044" lon="13.825871639695807"><ele>208.0</ele><time>2026-04-12T11:40:55.957Z</time></trkpt><trkpt lat="45.32503207407547" lon="13.825773572469538"><ele>206.0</ele><time>2026-04-12T11:40:56.957Z</time></trkpt><trkpt lat="45.325132851657905" lon="13.82566445939332"><ele>204.0</ele><time>2026-04-12T11:40:57.957Z</time></trkpt><trkpt lat="45.325233355304086" lon="13.825566369964159"><ele>204.0</ele><time>2026-04-12T11:40:58.957Z</time></trkpt><trkpt lat="45.32534187178849" lon="13.825457879113015"><ele>204.0</ele><time>2026-04-12T11:40:59.957Z</time></trkpt><trkpt lat="45.325450151376316" lon="13.825359134102799"><ele>204.0</ele><time>2026-04-12T11:41:00.957Z</time></trkpt><trkpt lat="45.325553485454876" lon="13.825251831680786"><ele>204.0</ele><time>2026-04-12T11:41:01.957Z</time></trkpt><trkpt lat="45.32565920894313" lon="13.825144911933272"><ele>201.5</ele><time>2026-04-12T11:41:02.957Z</time></trkpt><trkpt lat="45.325758222733015" lon="13.825049706311415"><ele>199.0</ele><time>2026-04-12T11:41:03.957Z</time></trkpt><trkpt lat="45.32585719766722" lon="13.824954621302773"><ele>196.5</ele><time>2026-04-12T11:41:04.957Z</time></trkpt><trkpt lat="45.32596131853019" lon="13.824860161074644"><ele>194.0</ele><time>2026-04-12T11:41:05.957Z</time></trkpt><trkpt lat="45.3260757684444" lon="13.82476550559522"><ele>194.0</ele><time>2026-04-12T11:41:06.957Z</time></trkpt><trkpt lat="45.32620089215593" lon="13.824670098526516"><ele>194.0</ele><time>2026-04-12T11:41:07.957Z</time></trkpt><trkpt lat="45.32633561697943" lon="13.824597811506885"><ele>194.0</ele><time>2026-04-12T11:41:08.957Z</time></trkpt><trkpt lat="45.32648058833198" lon="13.824531056022321"><ele>194.0</ele><time>2026-04-12T11:41:09.957Z</time></trkpt><trkpt lat="45.32662457526265" lon="13.824478171861793"><ele>192.39999999999998</ele><time>2026-04-12T11:41:10.957Z</time></trkpt><trkpt lat="45.326743429950014" lon="13.824453028577121"><ele>190.8</ele><time>2026-04-12T11:41:11.957Z</time></trkpt><trkpt lat="45.32684338143582" lon="13.824423668794367"><ele>189.2</ele><time>2026-04-12T11:41:12.957Z</time></trkpt><trkpt lat="45.326934053253744" lon="13.824391627691448"><ele>187.60000000000002</ele><time>2026-04-12T11:41:13.957Z</time></trkpt><trkpt lat="45.32700093261195" lon="13.824370110660876"><ele>186.0</ele><time>2026-04-12T11:41:14.957Z</time></trkpt><trkpt lat="45.32708150409613" lon="13.824349645251067"><ele>186.0</ele><time>2026-04-12T11:41:16.957Z</time></trkpt><trkpt lat="45.3271515109914" lon="13.824351227418768"><ele>186.0</ele><time>2026-04-12T11:41:19.957Z</time></trkpt><trkpt lat="45.32720125779754" lon="13.824292392411701"><ele>186.0</ele><time>2026-04-12T11:41:38.957Z</time></trkpt><trkpt lat="45.32728135253042" lon="13.824226528053126"><ele>186.0</ele><time>2026-04-12T11:41:40.957Z</time></trkpt><trkpt lat="45.3273568342006" lon="13.82420621771871"><ele>186.0</ele><time>2026-04-12T11:41:41.957Z</time></trkpt><trkpt lat="45.327450594225546" lon="13.824182713298173"><ele>186.0</ele><time>2026-04-12T11:41:42.957Z</time></trkpt><trkpt lat="45.327567239106564" lon="13.824154766884826"><ele>184.25</ele><time>2026-04-12T11:41:43.957Z</time></trkpt><trkpt lat="45.32769636939319" lon="13.824128497433932"><ele>182.5</ele><time>2026-04-12T11:41:44.957Z</time></trkpt><trkpt lat="45.32783298182899" lon="13.824120620226257"><ele>180.75</ele><time>2026-04-12T11:41:45.957Z</time></trkpt><trkpt lat="45.32798464755432" lon="13.824140117576402"><ele>179.0</ele><time>2026-04-12T11:41:46.957Z</time></trkpt><trkpt lat="45.32814126198567" lon="13.824200737459297"><ele>176.66666666666666</ele><time>2026-04-12T11:41:47.957Z</time></trkpt><trkpt lat="45.32828357168624" lon="13.82428925448475"><ele>174.33333333333334</ele><time>2026-04-12T11:41:48.957Z</time></trkpt><trkpt lat="45.32843077338879" lon="13.82439867461305"><ele>172.0</ele><time>2026-04-12T11:41:49.957Z</time></trkpt><trkpt lat="45.3285741797577" lon="13.824514621735032"><ele>171.0</ele><time>2026-04-12T11:41:50.957Z</time></trkpt><trkpt lat="45.32871753765516" lon="13.824628880696018"><ele>170.0</ele><time>2026-04-12T11:41:51.957Z</time></trkpt><trkpt lat="45.32885931413413" lon="13.82473816739455"><ele>169.0</ele><time>2026-04-12T11:41:52.958Z</time></trkpt><trkpt lat="45.32899549901173" lon="13.824838203040668"><ele>167.5</ele><time>2026-04-12T11:41:53.958Z</time></trkpt><trkpt lat="45.329125150748574" lon="13.824923725237191"><ele>166.0</ele><time>2026-04-12T11:41:54.958Z</time></trkpt><trkpt lat="45.32924502324814" lon="13.824959016955544"><ele>164.5</ele><time>2026-04-12T11:41:55.958Z</time></trkpt><trkpt lat="45.329378958006146" lon="13.824969636824708"><ele>163.0</ele><time>2026-04-12T11:41:56.958Z</time></trkpt><trkpt lat="45.32952375107641" lon="13.824935206388473"><ele>163.0</ele><time>2026-04-12T11:41:57.958Z</time></trkpt><trkpt lat="45.3296409627517" lon="13.824864334972787"><ele>163.0</ele><time>2026-04-12T11:41:58.958Z</time></trkpt><trkpt lat="45.32977126533958" lon="13.824797945761132"><ele>163.0</ele><time>2026-04-12T11:41:59.958Z</time></trkpt><trkpt lat="45.3298829727326" lon="13.824710809399482"><ele>163.0</ele><time>2026-04-12T11:42:00.958Z</time></trkpt><trkpt lat="45.329974377721925" lon="13.824628898124649"><ele>160.25</ele><time>2026-04-12T11:42:01.958Z</time></trkpt><trkpt lat="45.33006768528711" lon="13.82456271063578"><ele>157.5</ele><time>2026-04-12T11:42:02.958Z</time></trkpt><trkpt lat="45.330182228596826" lon="13.824505079494703"><ele>154.75</ele><time>2026-04-12T11:42:03.958Z</time></trkpt><trkpt lat="45.33029301275914" lon="13.824434920832454"><ele>152.0</ele><time>2026-04-12T11:42:04.958Z</time></trkpt><trkpt lat="45.33040120435609" lon="13.824362320822972"><ele>151.6</ele><time>2026-04-12T11:42:05.958Z</time></trkpt><trkpt lat="45.3305075260387" lon="13.82429472850061"><ele>151.2</ele><time>2026-04-12T11:42:06.958Z</time></trkpt><trkpt lat="45.330595925645454" lon="13.824244491558872"><ele>150.8</ele><time>2026-04-12T11:42:07.958Z</time></trkpt><trkpt lat="45.330689275087515" lon="13.82420555543638"><ele>150.4</ele><time>2026-04-12T11:42:08.958Z</time></trkpt><trkpt lat="45.33078637501849" lon="13.82419251011339"><ele>150.0</ele><time>2026-04-12T11:42:09.958Z</time></trkpt><trkpt lat="45.33088304961293" lon="13.824217883145371"><ele>150.0</ele><time>2026-04-12T11:42:10.958Z</time></trkpt><trkpt lat="45.33097622299897" lon="13.824270720460815"><ele>150.0</ele><time>2026-04-12T11:42:11.958Z</time></trkpt><trkpt lat="45.331057383430554" lon="13.824338581600925"><ele>150.0</ele><time>2026-04-12T11:42:12.958Z</time></trkpt><trkpt lat="45.331148551262274" lon="13.824405238719832"><ele>150.0</ele><time>2026-04-12T11:42:13.958Z</time></trkpt><trkpt lat="45.33125659500501" lon="13.824480271296128"><ele>150.0</ele><time>2026-04-12T11:42:14.958Z</time></trkpt><trkpt lat="45.331363779336925" lon="13.82454784700781"><ele>148.8</ele><time>2026-04-12T11:42:15.958Z</time></trkpt><trkpt lat="45.331464338763716" lon="13.824613824642649"><ele>147.6</ele><time>2026-04-12T11:42:16.958Z</time></trkpt><trkpt lat="45.331556580931974" lon="13.824684178009539"><ele>146.4</ele><time>2026-04-12T11:42:17.958Z</time></trkpt><trkpt lat="45.33165216950864" lon="13.82474288082447"><ele>145.2</ele><time>2026-04-12T11:42:18.958Z</time></trkpt><trkpt lat="45.33173553132049" lon="13.824795676640633"><ele>144.0</ele><time>2026-04-12T11:42:19.958Z</time></trkpt><trkpt lat="45.3318156012034" lon="13.824842540008158"><ele>144.0</ele><time>2026-04-12T11:42:20.958Z</time></trkpt><trkpt lat="45.3318885886354" lon="13.824917694492932"><ele>144.0</ele><time>2026-04-12T11:42:21.958Z</time></trkpt><trkpt lat="45.33196784166545" lon="13.824971325890276"><ele>144.0</ele><time>2026-04-12T11:42:22.958Z</time></trkpt><trkpt lat="45.332044025956954" lon="13.825002520828068"><ele>144.0</ele><time>2026-04-12T11:42:23.958Z</time></trkpt><trkpt lat="45.33214812290459" lon="13.824932256201016"><ele>144.0</ele><time>2026-04-12T11:42:27.958Z</time></trkpt><trkpt lat="45.332151371916126" lon="13.824760505378427"><ele>144.0</ele><time>2026-04-12T11:42:29.958Z</time></trkpt><trkpt lat="45.33215435156304" lon="13.824668433327023"><ele>144.0</ele><time>2026-04-12T11:42:30.958Z</time></trkpt><trkpt lat="45.3320699315013" lon="13.824565942633"><ele>144.0</ele><time>2026-04-12T11:42:31.958Z</time></trkpt><trkpt lat="45.33200846451317" lon="13.824365231721872"><ele>144.0</ele><time>2026-04-12T11:42:33.958Z</time></trkpt><trkpt lat="45.331967713327515" lon="13.824249579366057"><ele>144.0</ele><time>2026-04-12T11:42:34.958Z</time></trkpt><trkpt lat="45.331918034048336" lon="13.82414976936719"><ele>143.8</ele><time>2026-04-12T11:42:35.958Z</time></trkpt><trkpt lat="45.33187319052902" lon="13.824030216282907"><ele>143.60000000000002</ele><time>2026-04-12T11:42:36.958Z</time></trkpt><trkpt lat="45.331831895935665" lon="13.82391232973371"><ele>143.4</ele><time>2026-04-12T11:42:37.958Z</time></trkpt><trkpt lat="45.33175126441387" lon="13.823814236369547"><ele>143.20000000000002</ele><time>2026-04-12T11:42:38.958Z</time></trkpt><trkpt lat="45.33167930046321" lon="13.823690404439064"><ele>143.0</ele><time>2026-04-12T11:42:39.958Z</time></trkpt><trkpt lat="45.33160635332113" lon="13.82358006047289"><ele>143.0</ele><time>2026-04-12T11:42:40.958Z</time></trkpt><trkpt lat="45.33154872620932" lon="13.823525534663034"><ele>143.0</ele><time>2026-04-12T11:42:41.958Z</time></trkpt><trkpt lat="45.33145611555925" lon="13.823415493923779"><ele>143.0</ele><time>2026-04-12T11:42:43.958Z</time></trkpt><trkpt lat="45.3313991914562" lon="13.823346912175897"><ele>143.0</ele><time>2026-04-12T11:42:44.958Z</time></trkpt><trkpt lat="45.3313357814251" lon="13.823273502148972"><ele>143.0</ele><time>2026-04-12T11:42:45.958Z</time></trkpt><trkpt lat="45.33126852563522" lon="13.823179286791289"><ele>143.0</ele><time>2026-04-12T11:42:46.958Z</time></trkpt><trkpt lat="45.33120659183299" lon="13.82308364137169"><ele>142.85714285714283</ele><time>2026-04-12T11:42:47.958Z</time></trkpt><trkpt lat="45.33116310171847" lon="13.822993576315925"><ele>142.71428571428572</ele><time>2026-04-12T11:42:48.958Z</time></trkpt><trkpt lat="45.33113301916446" lon="13.822900481054335"><ele>142.57142857142856</ele><time>2026-04-12T11:42:49.958Z</time></trkpt><trkpt lat="45.33110892451191" lon="13.82280493195371"><ele>142.42857142857142</ele><time>2026-04-12T11:42:50.958Z</time></trkpt><trkpt lat="45.33110661060069" lon="13.822708575908234"><ele>142.28571428571428</ele><time>2026-04-12T11:42:51.958Z</time></trkpt><trkpt lat="45.33107452039548" lon="13.82258072813328"><ele>142.14285714285714</ele><time>2026-04-12T11:42:53.958Z</time></trkpt><trkpt lat="45.331084739824455" lon="13.822488843654865"><ele>142.0</ele><time>2026-04-12T11:42:55.958Z</time></trkpt><trkpt lat="45.331135095261004" lon="13.822431309977649"><ele>140.0</ele><time>2026-04-12T11:42:57.958Z</time></trkpt><trkpt lat="45.33121313160027" lon="13.822462536415385"><ele>138.0</ele><time>2026-04-12T11:42:59.958Z</time></trkpt><trkpt lat="45.3312818151888" lon="13.822560614702383"><ele>136.0</ele><time>2026-04-12T11:43:01.958Z</time></trkpt><trkpt lat="45.33132999248664" lon="13.822622265351825"><ele>134.0</ele><time>2026-04-12T11:43:02.958Z</time></trkpt><trkpt lat="45.33139374408892" lon="13.822694913110407"><ele>132.0</ele><time>2026-04-12T11:43:03.958Z</time></trkpt><trkpt lat="45.33145493373523" lon="13.822765088343036"><ele>130.0</ele><time>2026-04-12T11:43:04.958Z</time></trkpt><trkpt lat="45.33151775902204" lon="13.822834547890402"><ele>130.0</ele><time>2026-04-12T11:43:05.958Z</time></trkpt><trkpt lat="45.33160317048931" lon="13.822913519312669"><ele>130.0</ele><time>2026-04-12T11:43:06.958Z</time></trkpt><trkpt lat="45.33168648167174" lon="13.823006860694157"><ele>130.0</ele><time>2026-04-12T11:43:07.958Z</time></trkpt><trkpt lat="45.33177382776033" lon="13.82308836808225"><ele>130.0</ele><time>2026-04-12T11:43:08.958Z</time></trkpt><trkpt lat="45.33186306742115" lon="13.823168809412289"><ele>130.0</ele><time>2026-04-12T11:43:09.958Z</time></trkpt><trkpt lat="45.33195812451768" lon="13.82324785011738"><ele>130.0</ele><time>2026-04-12T11:43:10.958Z</time></trkpt><trkpt lat="45.33204984990587" lon="13.82333819754657"><ele>130.0</ele><time>2026-04-12T11:43:11.958Z</time></trkpt><trkpt lat="45.332129504865" lon="13.82344363396432"><ele>130.0</ele><time>2026-04-12T11:43:12.958Z</time></trkpt><trkpt lat="45.33220357018939" lon="13.823551404999646"><ele>130.0</ele><time>2026-04-12T11:43:13.958Z</time></trkpt><trkpt lat="45.33224033289221" lon="13.823647234565517"><ele>130.0</ele><time>2026-04-12T11:43:14.958Z</time></trkpt><trkpt lat="45.33225789927833" lon="13.823751376460644"><ele>130.0</ele><time>2026-04-12T11:43:16.958Z</time></trkpt><trkpt lat="45.332248330147664" lon="13.82384853389462"><ele>130.0</ele><time>2026-04-12T11:43:56.958Z</time></trkpt><trkpt lat="45.332316209778604" lon="13.823857095084358"><ele>130.0</ele><time>2026-04-12T11:44:06.958Z</time></trkpt><trkpt lat="45.332276181313524" lon="13.823750145887008"><ele>130.0</ele><time>2026-04-12T11:44:09.958Z</time></trkpt><trkpt lat="45.33219431965117" lon="13.823607629946187"><ele>130.0</ele><time>2026-04-12T11:44:11.958Z</time></trkpt><trkpt lat="45.33214712260895" lon="13.82350538908041"><ele>130.0</ele><time>2026-04-12T11:44:12.958Z</time></trkpt><trkpt lat="45.332099738832305" lon="13.823363812194355"><ele>130.0</ele><time>2026-04-12T11:44:13.958Z</time></trkpt><trkpt lat="45.3320051973003" lon="13.823294505867993"><ele>130.0</ele><time>2026-04-12T11:44:14.958Z</time></trkpt><trkpt lat="45.33189976674131" lon="13.823203568413273"><ele>130.0</ele><time>2026-04-12T11:44:15.958Z</time></trkpt><trkpt lat="45.331775105005306" lon="13.823108931102723"><ele>130.0</ele><time>2026-04-12T11:44:16.958Z</time></trkpt><trkpt lat="45.33164754052226" lon="13.823005001215558"><ele>130.0</ele><time>2026-04-12T11:44:17.958Z</time></trkpt><trkpt lat="45.33155295798487" lon="13.822920041480991"><ele>130.0</ele><time>2026-04-12T11:44:18.958Z</time></trkpt><trkpt lat="45.33147936318228" lon="13.822828131082796"><ele>130.0</ele><time>2026-04-12T11:44:19.958Z</time></trkpt><trkpt lat="45.33141760404602" lon="13.822747685239959"><ele>130.0</ele><time>2026-04-12T11:44:20.958Z</time></trkpt><trkpt lat="45.33135847156319" lon="13.822680675419779"><ele>130.0</ele><time>2026-04-12T11:44:21.958Z</time></trkpt><trkpt lat="45.33126382050083" lon="13.822563595026388"><ele>129.5</ele><time>2026-04-12T11:44:23.958Z</time></trkpt><trkpt lat="45.3311896213599" lon="13.822451396667269"><ele>129.0</ele><time>2026-04-12T11:44:25.958Z</time></trkpt><trkpt lat="45.331129964925985" lon="13.822392049791407"><ele>128.5</ele><time>2026-04-12T11:44:27.958Z</time></trkpt><trkpt lat="45.33107314324782" lon="13.822288631326046"><ele>128.0</ele><time>2026-04-12T11:44:31.958Z</time></trkpt><trkpt lat="45.331119609702284" lon="13.822226354187505"><ele>127.50000000000001</ele><time>2026-04-12T11:44:33.958Z</time></trkpt><trkpt lat="45.33118440368617" lon="13.822195542574061"><ele>127.0</ele><time>2026-04-12T11:44:35.958Z</time></trkpt><trkpt lat="45.331270312819264" lon="13.822262678875175"><ele>124.8</ele><time>2026-04-12T11:44:37.958Z</time></trkpt><trkpt lat="45.331416824055815" lon="13.82236488882237"><ele>122.6</ele><time>2026-04-12T11:44:39.958Z</time></trkpt><trkpt lat="45.331504985123225" lon="13.822424550778786"><ele>120.39999999999999</ele><time>2026-04-12T11:44:40.958Z</time></trkpt><trkpt lat="45.33159415760074" lon="13.822485142752141"><ele>118.19999999999999</ele><time>2026-04-12T11:44:41.958Z</time></trkpt><trkpt lat="45.33167400181855" lon="13.822534534903133"><ele>116.0</ele><time>2026-04-12T11:44:42.958Z</time></trkpt><trkpt lat="45.33174877211776" lon="13.822590231590283"><ele>116.00000000000001</ele><time>2026-04-12T11:44:43.958Z</time></trkpt><trkpt lat="45.33183165401159" lon="13.82263989709642"><ele>116.0</ele><time>2026-04-12T11:44:44.958Z</time></trkpt><trkpt lat="45.331891556331165" lon="13.82268485977617"><ele>116.00000000000001</ele><time>2026-04-12T11:44:45.958Z</time></trkpt><trkpt lat="45.33195616908115" lon="13.822736659363432"><ele>116.00000000000001</ele><time>2026-04-12T11:44:46.958Z</time></trkpt><trkpt lat="45.332008949298285" lon="13.822786157020932"><ele>116.0</ele><time>2026-04-12T11:44:48.958Z</time></trkpt><trkpt lat="45.33207093477499" lon="13.822810819952954"><ele>116.00000000000001</ele><time>2026-04-12T11:45:06.958Z</time></trkpt><trkpt lat="45.33214639103069" lon="13.822870253144934"><ele>116.00000000000001</ele><time>2026-04-12T11:45:09.958Z</time></trkpt><trkpt lat="45.33219453898068" lon="13.822935918700514"><ele>115.6</ele><time>2026-04-12T11:45:12.958Z</time></trkpt><trkpt lat="45.33224208093757" lon="13.823011579392022"><ele>115.19999999999999</ele><time>2026-04-12T11:45:18.958Z</time></trkpt><trkpt lat="45.33232651222771" lon="13.823097181846991"><ele>114.80000000000001</ele><time>2026-04-12T11:45:21.958Z</time></trkpt><trkpt lat="45.3324094135129" lon="13.823149326500683"><ele>114.4</ele><time>2026-04-12T11:45:23.958Z</time></trkpt><trkpt lat="45.33251406649707" lon="13.823142563755768"><ele>114.0</ele><time>2026-04-12T11:45:25.958Z</time></trkpt><trkpt lat="45.332596959277204" lon="13.8230939490547"><ele>114.0</ele><time>2026-04-12T11:45:27.958Z</time></trkpt><trkpt lat="45.3326423631246" lon="13.82298949926658"><ele>114.0</ele><time>2026-04-12T11:45:29.958Z</time></trkpt><trkpt lat="45.33266204921405" lon="13.822899675635998"><ele>114.0</ele><time>2026-04-12T11:45:30.958Z</time></trkpt><trkpt lat="45.332672345393114" lon="13.822798066237315"><ele>114.0</ele><time>2026-04-12T11:45:31.958Z</time></trkpt><trkpt lat="45.33271524629514" lon="13.822627924603921"><ele>114.0</ele><time>2026-04-12T11:45:33.958Z</time></trkpt><trkpt lat="45.332747221634314" lon="13.822541752486158"><ele>114.0</ele><time>2026-04-12T11:45:34.958Z</time></trkpt><trkpt lat="45.332797563755676" lon="13.822403978888772"><ele>112.66666666666667</ele><time>2026-04-12T11:45:36.958Z</time></trkpt><trkpt lat="45.3328303732542" lon="13.82226271836167"><ele>111.33333333333334</ele><time>2026-04-12T11:45:38.957Z</time></trkpt><trkpt lat="45.332862833347534" lon="13.822125483905214"><ele>110.0</ele><time>2026-04-12T11:45:40.958Z</time></trkpt><trkpt lat="45.33288262047534" lon="13.822029742023922"><ele>108.66666666666667</ele><time>2026-04-12T11:45:41.958Z</time></trkpt><trkpt lat="45.33291095359037" lon="13.821936947568142"><ele>107.33333333333334</ele><time>2026-04-12T11:45:42.958Z</time></trkpt><trkpt lat="45.332935484329546" lon="13.821844331313878"><ele>106.0</ele><time>2026-04-12T11:45:43.958Z</time></trkpt><trkpt lat="45.33295921803128" lon="13.82175436678974"><ele>104.71428571428572</ele><time>2026-04-12T11:45:44.958Z</time></trkpt><trkpt lat="45.332983952282035" lon="13.821662023781785"><ele>103.42857142857142</ele><time>2026-04-12T11:45:45.958Z</time></trkpt><trkpt lat="45.33301081913051" lon="13.821566659976504"><ele>102.14285714285714</ele><time>2026-04-12T11:45:46.958Z</time></trkpt><trkpt lat="45.33304158470023" lon="13.82147084380559"><ele>100.85714285714286</ele><time>2026-04-12T11:45:47.958Z</time></trkpt><trkpt lat="45.33307063719269" lon="13.821374475973947"><ele>99.57142857142858</ele><time>2026-04-12T11:45:48.957Z</time></trkpt><trkpt lat="45.33309668375605" lon="13.821275615626215"><ele>98.28571428571428</ele><time>2026-04-12T11:45:49.958Z</time></trkpt><trkpt lat="45.33312771273239" lon="13.821181026061842"><ele>97.0</ele><time>2026-04-12T11:45:50.958Z</time></trkpt><trkpt lat="45.33315292485756" lon="13.821094980350338"><ele>96.57142857142857</ele><time>2026-04-12T11:45:51.958Z</time></trkpt><trkpt lat="45.33317103301886" lon="13.820996734658747"><ele>96.14285714285715</ele><time>2026-04-12T11:45:52.958Z</time></trkpt><trkpt lat="45.33318980741515" lon="13.820906328827617"><ele>95.71428571428572</ele><time>2026-04-12T11:45:53.958Z</time></trkpt><trkpt lat="45.33321167439414" lon="13.82079924149681"><ele>95.28571428571428</ele><time>2026-04-12T11:45:54.958Z</time></trkpt><trkpt lat="45.33324242503472" lon="13.820694688189453"><ele>94.85714285714286</ele><time>2026-04-12T11:45:55.958Z</time></trkpt><trkpt lat="45.33326501232353" lon="13.820604931192479"><ele>94.42857142857143</ele><time>2026-04-12T11:45:56.958Z</time></trkpt><trkpt lat="45.333285840251996" lon="13.820488959349303"><ele>94.0</ele><time>2026-04-12T11:45:57.958Z</time></trkpt><trkpt lat="45.33329193611188" lon="13.820389434296116"><ele>92.85714285714286</ele><time>2026-04-12T11:45:58.958Z</time></trkpt><trkpt lat="45.33330400385834" lon="13.820288923651127"><ele>91.71428571428571</ele><time>2026-04-12T11:45:59.958Z</time></trkpt><trkpt lat="45.333318337455715" lon="13.820181323673397"><ele>90.57142857142858</ele><time>2026-04-12T11:46:00.958Z</time></trkpt><trkpt lat="45.333323865194025" lon="13.820080986469485"><ele>89.42857142857143</ele><time>2026-04-12T11:46:01.958Z</time></trkpt><trkpt lat="45.33332983893221" lon="13.819970066534136"><ele>88.28571428571429</ele><time>2026-04-12T11:46:02.958Z</time></trkpt><trkpt lat="45.33333218716633" lon="13.81985905573576"><ele>87.14285714285715</ele><time>2026-04-12T11:46:03.958Z</time></trkpt><trkpt lat="45.333320418944986" lon="13.819761991799352"><ele>86.0</ele><time>2026-04-12T11:46:04.958Z</time></trkpt><trkpt lat="45.33331570176915" lon="13.819650094094598"><ele>85.0</ele><time>2026-04-12T11:46:06.958Z</time></trkpt><trkpt lat="45.33333059854824" lon="13.819552301182327"><ele>84.0</ele><time>2026-04-12T11:46:08.958Z</time></trkpt><trkpt lat="45.333362596603685" lon="13.819447328987904"><ele>83.0</ele><time>2026-04-12T11:46:10.958Z</time></trkpt><trkpt lat="45.333429475527396" lon="13.819379985297541"><ele>82.0</ele><time>2026-04-12T11:46:12.958Z</time></trkpt><trkpt lat="45.33350927054776" lon="13.819303655190936"><ele>81.0</ele><time>2026-04-12T11:46:15.958Z</time></trkpt><trkpt lat="45.33354677893455" lon="13.819230922853498"><ele>80.0</ele><time>2026-04-12T11:46:18.958Z</time></trkpt><trkpt lat="45.33353423104347" lon="13.81910216116826"><ele>79.16666666666667</ele><time>2026-04-12T11:46:22.958Z</time></trkpt><trkpt lat="45.33350376672388" lon="13.818952849243125"><ele>78.33333333333334</ele><time>2026-04-12T11:46:24.958Z</time></trkpt><trkpt lat="45.33347934810264" lon="13.818785071829195"><ele>77.5</ele><time>2026-04-12T11:46:26.958Z</time></trkpt><trkpt lat="45.33346969152444" lon="13.818694349475116"><ele>76.66666666666667</ele><time>2026-04-12T11:46:27.958Z</time></trkpt><trkpt lat="45.33346322066978" lon="13.818604262001251"><ele>75.83333333333333</ele><time>2026-04-12T11:46:28.958Z</time></trkpt><trkpt lat="45.333454990226535" lon="13.81850438757827"><ele>75.0</ele><time>2026-04-12T11:46:29.958Z</time></trkpt><trkpt lat="45.333448151847016" lon="13.818412150071987"><ele>74.99999999999999</ele><time>2026-04-12T11:46:30.958Z</time></trkpt><trkpt lat="45.33344564399366" lon="13.818302598310735"><ele>75.0</ele><time>2026-04-12T11:46:31.958Z</time></trkpt><trkpt lat="45.33343614464507" lon="13.818201921466732"><ele>75.0</ele><time>2026-04-12T11:46:32.958Z</time></trkpt><trkpt lat="45.33343592492028" lon="13.818110264748519"><ele>75.0</ele><time>2026-04-12T11:46:33.958Z</time></trkpt><trkpt lat="45.333436662506074" lon="13.818019847814366"><ele>75.0</ele><time>2026-04-12T11:46:34.958Z</time></trkpt><trkpt lat="45.333433446081834" lon="13.81792367450551"><ele>74.99999999999999</ele><time>2026-04-12T11:46:35.958Z</time></trkpt><trkpt lat="45.333412382309184" lon="13.817817045918968"><ele>75.0</ele><time>2026-04-12T11:46:36.958Z</time></trkpt><trkpt lat="45.333394497529525" lon="13.817701303244124"><ele>75.33333333333333</ele><time>2026-04-12T11:46:37.958Z</time></trkpt><trkpt lat="45.33338684128384" lon="13.817603641088251"><ele>75.66666666666667</ele><time>2026-04-12T11:46:38.958Z</time></trkpt><trkpt lat="45.333374651322586" lon="13.817492614025703"><ele>76.0</ele><time>2026-04-12T11:46:39.958Z</time></trkpt><trkpt lat="45.333361999754715" lon="13.817383038087717"><ele>76.33333333333334</ele><time>2026-04-12T11:46:40.958Z</time></trkpt><trkpt lat="45.33335779655844" lon="13.817279446842907"><ele>76.66666666666667</ele><time>2026-04-12T11:46:41.958Z</time></trkpt><trkpt lat="45.333347041233644" lon="13.817164672545893"><ele>77.0</ele><time>2026-04-12T11:46:42.958Z</time></trkpt><trkpt lat="45.333334683049486" lon="13.81704822273951"><ele>77.0</ele><time>2026-04-12T11:46:43.958Z</time></trkpt><trkpt lat="45.33332129842338" lon="13.816943692506939"><ele>77.0</ele><time>2026-04-12T11:46:44.958Z</time></trkpt><trkpt lat="45.33331013706505" lon="13.816849930655687"><ele>77.0</ele><time>2026-04-12T11:46:45.958Z</time></trkpt><trkpt lat="45.333295678598134" lon="13.816689565553077"><ele>77.0</ele><time>2026-04-12T11:46:47.958Z</time></trkpt><trkpt lat="45.33325698063428" lon="13.816600092762124"><ele>77.0</ele><time>2026-04-12T11:46:49.958Z</time></trkpt><trkpt lat="45.33318653656187" lon="13.816572172740342"><ele>77.0</ele><time>2026-04-12T11:46:51.958Z</time></trkpt><trkpt lat="45.333088727031324" lon="13.816604054984785"><ele>78.16666666666667</ele><time>2026-04-12T11:46:53.958Z</time></trkpt><trkpt lat="45.33302629492915" lon="13.816618386328784"><ele>79.33333333333334</ele><time>2026-04-12T11:46:54.958Z</time></trkpt><trkpt lat="45.33292901809454" lon="13.816617380960658"><ele>80.5</ele><time>2026-04-12T11:46:56.958Z</time></trkpt><trkpt lat="45.33286145548006" lon="13.816570190632724"><ele>81.66666666666667</ele><time>2026-04-12T11:46:58.958Z</time></trkpt><trkpt lat="45.33285027255608" lon="13.816440926811246"><ele>82.83333333333333</ele><time>2026-04-12T11:47:00.958Z</time></trkpt><trkpt lat="45.33284941923141" lon="13.816337844474605"><ele>84.0</ele><time>2026-04-12T11:47:01.958Z</time></trkpt><trkpt lat="45.33285169124505" lon="13.81621645760465"><ele>84.0</ele><time>2026-04-12T11:47:02.958Z</time></trkpt><trkpt lat="45.332852607941746" lon="13.816069766778172"><ele>84.0</ele><time>2026-04-12T11:47:03.958Z</time></trkpt><trkpt lat="45.3328458226217" lon="13.815933200406631"><ele>84.0</ele><time>2026-04-12T11:47:04.958Z</time></trkpt><trkpt lat="45.33282751320439" lon="13.815806635169562"><ele>84.0</ele><time>2026-04-12T11:47:05.958Z</time></trkpt><trkpt lat="45.33280909950123" lon="13.815689875614941"><ele>84.0</ele><time>2026-04-12T11:47:06.958Z</time></trkpt><trkpt lat="45.33279539035814" lon="13.815567463538695"><ele>84.16666666666667</ele><time>2026-04-12T11:47:07.958Z</time></trkpt><trkpt lat="45.332771282390965" lon="13.815460480174151"><ele>84.33333333333333</ele><time>2026-04-12T11:47:08.958Z</time></trkpt><trkpt lat="45.33275587530222" lon="13.815347826768646"><ele>84.5</ele><time>2026-04-12T11:47:09.958Z</time></trkpt><trkpt lat="45.332736224285135" lon="13.815235343079914"><ele>84.66666666666666</ele><time>2026-04-12T11:47:10.958Z</time></trkpt><trkpt lat="45.332739485164765" lon="13.815128745608993"><ele>84.83333333333333</ele><time>2026-04-12T11:47:11.958Z</time></trkpt><trkpt lat="45.33272388009707" lon="13.81501079095002"><ele>85.0</ele><time>2026-04-12T11:47:12.958Z</time></trkpt><trkpt lat="45.332701217410666" lon="13.814884927275845"><ele>86.2</ele><time>2026-04-12T11:47:13.958Z</time></trkpt><trkpt lat="45.33267774850006" lon="13.8147484641706"><ele>87.4</ele><time>2026-04-12T11:47:14.958Z</time></trkpt><trkpt lat="45.33265143082911" lon="13.814624077145627"><ele>88.6</ele><time>2026-04-12T11:47:15.958Z</time></trkpt><trkpt lat="45.33263270751312" lon="13.814488969910276"><ele>89.8</ele><time>2026-04-12T11:47:16.958Z</time></trkpt><trkpt lat="45.332619652515504" lon="13.814356416187728"><ele>91.0</ele><time>2026-04-12T11:47:17.958Z</time></trkpt><trkpt lat="45.332608995455644" lon="13.81424245691258"><ele>91.25</ele><time>2026-04-12T11:47:18.958Z</time></trkpt><trkpt lat="45.33258388922431" lon="13.814098978242404"><ele>91.5</ele><time>2026-04-12T11:47:20.958Z</time></trkpt><trkpt lat="45.33257393209863" lon="13.813917180489033"><ele>91.75</ele><time>2026-04-12T11:47:22.958Z</time></trkpt><trkpt lat="45.33256068880254" lon="13.813810385664356"><ele>92.0</ele><time>2026-04-12T11:47:23.958Z</time></trkpt><trkpt lat="45.332548998058954" lon="13.81359738076468"><ele>91.33333333333334</ele><time>2026-04-12T11:47:25.958Z</time></trkpt><trkpt lat="45.3325301884829" lon="13.81347130337771"><ele>90.66666666666667</ele><time>2026-04-12T11:47:26.958Z</time></trkpt><trkpt lat="45.332512492980776" lon="13.813343534587899"><ele>90.0</ele><time>2026-04-12T11:47:27.958Z</time></trkpt><trkpt lat="45.33249798090116" lon="13.813222788605696"><ele>89.33333333333333</ele><time>2026-04-12T11:47:28.958Z</time></trkpt><trkpt lat="45.33248300043624" lon="13.813111245641188"><ele>88.66666666666666</ele><time>2026-04-12T11:47:29.958Z</time></trkpt><trkpt lat="45.33247546377173" lon="13.813014248524887"><ele>88.0</ele><time>2026-04-12T11:47:30.958Z</time></trkpt><trkpt lat="45.33248039534545" lon="13.812903662111186"><ele>88.0</ele><time>2026-04-12T11:47:31.958Z</time></trkpt><trkpt lat="45.3324932338782" lon="13.812812491443296"><ele>88.0</ele><time>2026-04-12T11:47:32.958Z</time></trkpt><trkpt lat="45.332522597925276" lon="13.812728424366838"><ele>88.0</ele><time>2026-04-12T11:47:33.958Z</time></trkpt><trkpt lat="45.33254367937021" lon="13.812642208948999"><ele>88.0</ele><time>2026-04-12T11:47:34.958Z</time></trkpt><trkpt lat="45.33256001553922" lon="13.812530392974871"><ele>88.0</ele><time>2026-04-12T11:47:35.958Z</time></trkpt><trkpt lat="45.332555085364966" lon="13.81242495350501"><ele>88.0</ele><time>2026-04-12T11:47:36.958Z</time></trkpt><trkpt lat="45.332558460377946" lon="13.812314106900702"><ele>88.0</ele><time>2026-04-12T11:47:37.958Z</time></trkpt><trkpt lat="45.332553101113895" lon="13.81220672165564"><ele>87.0</ele><time>2026-04-12T11:47:38.958Z</time></trkpt><trkpt lat="45.33251228467101" lon="13.812030311972205"><ele>86.0</ele><time>2026-04-12T11:47:40.958Z</time></trkpt><trkpt lat="45.332472142944134" lon="13.811877232636183"><ele>85.0</ele><time>2026-04-12T11:47:42.958Z</time></trkpt><trkpt lat="45.332432429333906" lon="13.811800951920874"><ele>84.0</ele><time>2026-04-12T11:47:43.958Z</time></trkpt><trkpt lat="45.33235989718825" lon="13.811695014297719"><ele>83.0</ele><time>2026-04-12T11:47:45.958Z</time></trkpt><trkpt lat="45.33234170211776" lon="13.811583194120038"><ele>82.0</ele><time>2026-04-12T11:47:47.958Z</time></trkpt><trkpt lat="45.33238850664314" lon="13.811470614438589"><ele>81.0</ele><time>2026-04-12T11:47:49.958Z</time></trkpt><trkpt lat="45.332473628400834" lon="13.811387205003628"><ele>80.0</ele><time>2026-04-12T11:47:51.957Z</time></trkpt><trkpt lat="45.33252836834907" lon="13.811286149244276"><ele>79.0</ele><time>2026-04-12T11:47:52.957Z</time></trkpt><trkpt lat="45.33259797835273" lon="13.811141185020052"><ele>78.0</ele><time>2026-04-12T11:47:53.958Z</time></trkpt><trkpt lat="45.332674909589656" lon="13.810994184235676"><ele>78.8</ele><time>2026-04-12T11:47:54.958Z</time></trkpt><trkpt lat="45.33273909184693" lon="13.81085184110911"><ele>79.6</ele><time>2026-04-12T11:47:55.958Z</time></trkpt><trkpt lat="45.33279857032059" lon="13.810728081407925"><ele>80.39999999999999</ele><time>2026-04-12T11:47:56.958Z</time></trkpt><trkpt lat="45.33284274924403" lon="13.810620021790255"><ele>81.19999999999999</ele><time>2026-04-12T11:47:57.958Z</time></trkpt><trkpt lat="45.33287084700966" lon="13.810503258998017"><ele>82.0</ele><time>2026-04-12T11:47:58.958Z</time></trkpt><trkpt lat="45.33289244422208" lon="13.810378342280224"><ele>82.0</ele><time>2026-04-12T11:47:59.958Z</time></trkpt><trkpt lat="45.332909519589336" lon="13.810252286570039"><ele>82.0</ele><time>2026-04-12T11:48:00.958Z</time></trkpt><trkpt lat="45.33293048026896" lon="13.81012992787807"><ele>82.0</ele><time>2026-04-12T11:48:01.958Z</time></trkpt><trkpt lat="45.33295244286837" lon="13.81003757730839"><ele>82.0</ele><time>2026-04-12T11:48:02.958Z</time></trkpt><trkpt lat="45.33295619486193" lon="13.809930625019286"><ele>82.0</ele><time>2026-04-12T11:48:03.958Z</time></trkpt><trkpt lat="45.33296336052289" lon="13.809804401691585"><ele>82.0</ele><time>2026-04-12T11:48:04.958Z</time></trkpt><trkpt lat="45.33296012677599" lon="13.809675794209333"><ele>82.0</ele><time>2026-04-12T11:48:05.958Z</time></trkpt><trkpt lat="45.33295216850419" lon="13.809561221982035"><ele>82.0</ele><time>2026-04-12T11:48:06.958Z</time></trkpt><trkpt lat="45.33293453134002" lon="13.809436062799811"><ele>82.0</ele><time>2026-04-12T11:48:07.958Z</time></trkpt><trkpt lat="45.33291975679654" lon="13.809288517717112"><ele>82.0</ele><time>2026-04-12T11:48:08.958Z</time></trkpt><trkpt lat="45.33290802576214" lon="13.809149021548468"><ele>82.0</ele><time>2026-04-12T11:48:09.958Z</time></trkpt><trkpt lat="45.33290581704188" lon="13.808991389822701"><ele>81.8</ele><time>2026-04-12T11:48:10.958Z</time></trkpt><trkpt lat="45.33289769900184" lon="13.80884622682061"><ele>81.6</ele><time>2026-04-12T11:48:11.958Z</time></trkpt><trkpt lat="45.33288601849992" lon="13.808712510303307"><ele>81.39999999999999</ele><time>2026-04-12T11:48:12.958Z</time></trkpt><trkpt lat="45.33287114153054" lon="13.808577769741882"><ele>81.19999999999999</ele><time>2026-04-12T11:48:13.958Z</time></trkpt><trkpt lat="45.33283056496786" lon="13.808450396749848"><ele>81.0</ele><time>2026-04-12T11:48:14.958Z</time></trkpt><trkpt lat="45.332805665297315" lon="13.80830391274378"><ele>81.0</ele><time>2026-04-12T11:48:15.958Z</time></trkpt><trkpt lat="45.332782050163075" lon="13.808166264470234"><ele>81.0</ele><time>2026-04-12T11:48:16.958Z</time></trkpt><trkpt lat="45.33276881229916" lon="13.80805340172513"><ele>81.0</ele><time>2026-04-12T11:48:17.958Z</time></trkpt><trkpt lat="45.332775931374854" lon="13.807938210677513"><ele>81.0</ele><time>2026-04-12T11:48:18.958Z</time></trkpt><trkpt lat="45.33281089600227" lon="13.807807713308044"><ele>81.0</ele><time>2026-04-12T11:48:19.958Z</time></trkpt><trkpt lat="45.33284630951103" lon="13.807688703559917"><ele>81.0</ele><time>2026-04-12T11:48:20.958Z</time></trkpt><trkpt lat="45.332907982647534" lon="13.807554888509783"><ele>81.0</ele><time>2026-04-12T11:48:21.958Z</time></trkpt><trkpt lat="45.33297408868096" lon="13.807435870632782"><ele>81.0</ele><time>2026-04-12T11:48:22.958Z</time></trkpt><trkpt lat="45.333034324798355" lon="13.80734491230327"><ele>81.0</ele><time>2026-04-12T11:48:23.958Z</time></trkpt><trkpt lat="45.33307174265058" lon="13.807248912360096"><ele>81.0</ele><time>2026-04-12T11:48:24.958Z</time></trkpt><trkpt lat="45.33309944084902" lon="13.807144929506498"><ele>81.0</ele><time>2026-04-12T11:48:25.958Z</time></trkpt><trkpt lat="45.33313625343904" lon="13.806978939325901"><ele>81.0</ele><time>2026-04-12T11:48:27.958Z</time></trkpt><trkpt lat="45.33312263926732" lon="13.806806438380692"><ele>81.0</ele><time>2026-04-12T11:48:29.958Z</time></trkpt><trkpt lat="45.33310303086672" lon="13.806715533243981"><ele>81.0</ele><time>2026-04-12T11:48:30.958Z</time></trkpt><trkpt lat="45.33308766434352" lon="13.80659736277472"><ele>81.0</ele><time>2026-04-12T11:48:31.958Z</time></trkpt><trkpt lat="45.33309220563355" lon="13.806489931762627"><ele>81.33333333333333</ele><time>2026-04-12T11:48:32.958Z</time></trkpt><trkpt lat="45.33310641072319" lon="13.806395150741599"><ele>81.66666666666667</ele><time>2026-04-12T11:48:34.958Z</time></trkpt><trkpt lat="45.33305561376743" lon="13.806251853019848"><ele>82.0</ele><time>2026-04-12T11:48:43.958Z</time></trkpt><trkpt lat="45.33302696862902" lon="13.806157843102756"><ele>82.33333333333334</ele><time>2026-04-12T11:48:45.958Z</time></trkpt><trkpt lat="45.333090853121064" lon="13.806091157615572"><ele>82.66666666666667</ele><time>2026-04-12T11:48:48.958Z</time></trkpt><trkpt lat="45.333154151566" lon="13.806055785708331"><ele>83.0</ele><time>2026-04-12T11:48:50.958Z</time></trkpt><trkpt lat="45.33321812878208" lon="13.806023279338108"><ele>83.0</ele><time>2026-04-12T11:48:52.958Z</time></trkpt><trkpt lat="45.3333150698914" lon="13.805953996461845"><ele>83.0</ele><time>2026-04-12T11:48:54.958Z</time></trkpt><trkpt lat="45.33337023884686" lon="13.805897960992084"><ele>83.0</ele><time>2026-04-12T11:48:55.958Z</time></trkpt><trkpt lat="45.33342681329992" lon="13.805847703980488"><ele>83.0</ele><time>2026-04-12T11:48:56.958Z</time></trkpt><trkpt lat="45.33348336752547" lon="13.805797234644858"><ele>83.0</ele><time>2026-04-12T11:48:57.958Z</time></trkpt><trkpt lat="45.33354064701682" lon="13.805752970552929"><ele>83.0</ele><time>2026-04-12T11:48:58.958Z</time></trkpt><trkpt lat="45.33361731205346" lon="13.80571163146411"><ele>83.0</ele><time>2026-04-12T11:48:59.958Z</time></trkpt><trkpt lat="45.33369453398947" lon="13.805687227145624"><ele>83.0</ele><time>2026-04-12T11:49:00.958Z</time></trkpt><trkpt lat="45.33377677085768" lon="13.805681558407132"><ele>83.0</ele><time>2026-04-12T11:49:01.958Z</time></trkpt><trkpt lat="45.333874012960024" lon="13.805666156459454"><ele>83.0</ele><time>2026-04-12T11:49:02.958Z</time></trkpt><trkpt lat="45.333956532495456" lon="13.805648019898499"><ele>83.0</ele><time>2026-04-12T11:49:03.958Z</time></trkpt><trkpt lat="45.33403622383636" lon="13.805627158617073"><ele>83.0</ele><time>2026-04-12T11:49:05.958Z</time></trkpt><trkpt lat="45.334074451894786" lon="13.805548686351651"><ele>81.33333333333334</ele><time>2026-04-12T11:49:15.958Z</time></trkpt><trkpt lat="45.334082636225205" lon="13.805415472914202"><ele>79.66666666666667</ele><time>2026-04-12T11:49:17.958Z</time></trkpt><trkpt lat="45.33408851913879" lon="13.805325201180999"><ele>78.0</ele><time>2026-04-12T11:49:18.958Z</time></trkpt><trkpt lat="45.33409077497083" lon="13.80523456033507"><ele>76.33333333333333</ele><time>2026-04-12T11:49:19.958Z</time></trkpt><trkpt lat="45.33410005484814" lon="13.805102507071256"><ele>74.66666666666666</ele><time>2026-04-12T11:49:21.959Z</time></trkpt><trkpt lat="45.3341234059691" lon="13.804962793469082"><ele>73.0</ele><time>2026-04-12T11:49:23.959Z</time></trkpt><trkpt lat="45.334147042551436" lon="13.804872786658173"><ele>73.0</ele><time>2026-04-12T11:49:25.959Z</time></trkpt><trkpt lat="45.33419916948809" lon="13.804798077712507"><ele>73.0</ele><time>2026-04-12T11:49:27.959Z</time></trkpt><trkpt lat="45.33424558852108" lon="13.804734013082136"><ele>73.0</ele><time>2026-04-12T11:49:29.959Z</time></trkpt><trkpt lat="45.3343134197301" lon="13.804649748713846"><ele>73.0</ele><time>2026-04-12T11:49:31.959Z</time></trkpt><trkpt lat="45.334368486114606" lon="13.80455659360445"><ele>73.0</ele><time>2026-04-12T11:49:33.959Z</time></trkpt><trkpt lat="45.33441100159953" lon="13.804480749950052"><ele>73.0</ele><time>2026-04-12T11:49:35.959Z</time></trkpt><trkpt lat="45.33447383536999" lon="13.804379078720123"><ele>73.4</ele><time>2026-04-12T11:49:37.959Z</time></trkpt><trkpt lat="45.334541134941254" lon="13.804280513326553"><ele>73.8</ele><time>2026-04-12T11:49:39.959Z</time></trkpt><trkpt lat="45.334614990505116" lon="13.804148065641604"><ele>74.2</ele><time>2026-04-12T11:49:41.959Z</time></trkpt><trkpt lat="45.33467698989088" lon="13.804029277252775"><ele>74.6</ele><time>2026-04-12T11:49:43.959Z</time></trkpt><trkpt lat="45.3347684233986" lon="13.8039409387543"><ele>75.0</ele><time>2026-04-12T11:49:45.959Z</time></trkpt><trkpt lat="45.33479723659989" lon="13.803850858589772"><ele>73.8</ele><time>2026-04-12T11:49:47.958Z</time></trkpt><trkpt lat="45.33485745013454" lon="13.803728116735641"><ele>72.6</ele><time>2026-04-12T11:49:49.957Z</time></trkpt><trkpt lat="45.33491858582569" lon="13.803652715583242"><ele>71.4</ele><time>2026-04-12T11:49:51.957Z</time></trkpt><trkpt lat="45.33502048139877" lon="13.80356271383832"><ele>70.2</ele><time>2026-04-12T11:49:53.958Z</time></trkpt><trkpt lat="45.335112630536955" lon="13.803470205980528"><ele>69.0</ele><time>2026-04-12T11:49:55.957Z</time></trkpt><trkpt lat="45.33516848256517" lon="13.803428301014462"><ele>69.0</ele><time>2026-04-12T11:49:56.958Z</time></trkpt><trkpt lat="45.33526880933831" lon="13.803340264369135"><ele>69.0</ele><time>2026-04-12T11:49:58.958Z</time></trkpt><trkpt lat="45.33536093042851" lon="13.80326509638614"><ele>69.0</ele><time>2026-04-12T11:50:00.958Z</time></trkpt><trkpt lat="45.33543796090489" lon="13.803206509528147"><ele>69.0</ele><time>2026-04-12T11:50:02.958Z</time></trkpt><trkpt lat="45.335522207567315" lon="13.803141599561444"><ele>69.0</ele><time>2026-04-12T11:50:04.958Z</time></trkpt><trkpt lat="45.33563900954089" lon="13.803068116073938"><ele>67.4</ele><time>2026-04-12T11:50:06.958Z</time></trkpt><trkpt lat="45.335704446646226" lon="13.803052210105067"><ele>65.80000000000001</ele><time>2026-04-12T11:50:07.958Z</time></trkpt><trkpt lat="45.33577434444938" lon="13.802976134744243"><ele>64.19999999999999</ele><time>2026-04-12T11:50:09.958Z</time></trkpt><trkpt lat="45.33586987231179" lon="13.802955825121037"><ele>62.599999999999994</ele><time>2026-04-12T11:50:11.958Z</time></trkpt><trkpt lat="45.33597460923463" lon="13.802937521028689"><ele>61.0</ele><time>2026-04-12T11:50:13.958Z</time></trkpt><trkpt lat="45.336067364648585" lon="13.80291656200654"><ele>60.99999999999999</ele><time>2026-04-12T11:50:15.958Z</time></trkpt><trkpt lat="45.33614408423559" lon="13.802896626998786"><ele>61.0</ele><time>2026-04-12T11:50:17.958Z</time></trkpt><trkpt lat="45.33624220218222" lon="13.802864275355239"><ele>61.0</ele><time>2026-04-12T11:50:19.958Z</time></trkpt><trkpt lat="45.336345586570346" lon="13.802826470660044"><ele>61.0</ele><time>2026-04-12T11:50:21.958Z</time></trkpt><trkpt lat="45.33642246968364" lon="13.80279043136928"><ele>60.99999999999999</ele><time>2026-04-12T11:50:22.958Z</time></trkpt><trkpt lat="45.336482857521794" lon="13.802751583614432"><ele>61.0</ele><time>2026-04-12T11:50:23.958Z</time></trkpt><trkpt lat="45.33658265923407" lon="13.80267765813987"><ele>61.33333333333333</ele><time>2026-04-12T11:50:25.958Z</time></trkpt><trkpt lat="45.3366430718526" lon="13.80264840325983"><ele>61.666666666666664</ele><time>2026-04-12T11:50:26.958Z</time></trkpt><trkpt lat="45.33676935571824" lon="13.802608639022505"><ele>62.0</ele><time>2026-04-12T11:50:28.958Z</time></trkpt><trkpt lat="45.33683784063594" lon="13.802587527997154"><ele>62.33333333333333</ele><time>2026-04-12T11:50:29.958Z</time></trkpt><trkpt lat="45.33689999585856" lon="13.802567818967995"><ele>62.666666666666664</ele><time>2026-04-12T11:50:30.958Z</time></trkpt><trkpt lat="45.33697430438697" lon="13.802529097644255"><ele>63.0</ele><time>2026-04-12T11:50:32.958Z</time></trkpt><trkpt lat="45.33705096742348" lon="13.802558020747801"><ele>63.0</ele><time>2026-04-12T11:50:34.958Z</time></trkpt><trkpt lat="45.33711350738218" lon="13.802634166773998"><ele>63.0</ele><time>2026-04-12T11:50:36.958Z</time></trkpt><trkpt lat="45.337157992373726" lon="13.802724227213263"><ele>63.0</ele><time>2026-04-12T11:50:38.958Z</time></trkpt><trkpt lat="45.33720256039314" lon="13.802844996844927"><ele>63.0</ele><time>2026-04-12T11:50:40.958Z</time></trkpt><trkpt lat="45.337216965980076" lon="13.802979387511712"><ele>63.0</ele><time>2026-04-12T11:50:42.958Z</time></trkpt><trkpt lat="45.33725429891726" lon="13.80311088275231"><ele>61.8</ele><time>2026-04-12T11:50:44.958Z</time></trkpt><trkpt lat="45.337295428176645" lon="13.803258960609286"><ele>60.599999999999994</ele><time>2026-04-12T11:50:46.958Z</time></trkpt><trkpt lat="45.33729534650369" lon="13.803392444214527"><ele>59.400000000000006</ele><time>2026-04-12T11:50:48.958Z</time></trkpt><trkpt lat="45.33729843261696" lon="13.803525823219646"><ele>58.2</ele><time>2026-04-12T11:50:50.958Z</time></trkpt><trkpt lat="45.33733623229251" lon="13.803628296492235"><ele>57.0</ele><time>2026-04-12T11:50:52.958Z</time></trkpt><trkpt lat="45.337392909031784" lon="13.80370701505162"><ele>55.8</ele><time>2026-04-12T11:50:54.958Z</time></trkpt><trkpt lat="45.33749982389371" lon="13.803767459064328"><ele>54.6</ele><time>2026-04-12T11:50:56.958Z</time></trkpt><trkpt lat="45.33757473657969" lon="13.803822329966575"><ele>53.4</ele><time>2026-04-12T11:50:58.958Z</time></trkpt><trkpt lat="45.33766058077852" lon="13.803888761315"><ele>52.199999999999996</ele><time>2026-04-12T11:51:00.958Z</time></trkpt><trkpt lat="45.33776295275866" lon="13.80392177135275"><ele>51.0</ele><time>2026-04-12T11:51:02.958Z</time></trkpt><trkpt lat="45.33785142457464" lon="13.80396135903057"><ele>51.0</ele><time>2026-04-12T11:51:04.958Z</time></trkpt><trkpt lat="45.33791602609021" lon="13.804037296528989"><ele>51.0</ele><time>2026-04-12T11:51:06.958Z</time></trkpt><trkpt lat="45.33795801738254" lon="13.804108992063899"><ele>51.0</ele><time>2026-04-12T11:51:07.958Z</time></trkpt><trkpt lat="45.338015379686986" lon="13.804206769746552"><ele>51.0</ele><time>2026-04-12T11:51:09.958Z</time></trkpt><trkpt lat="45.33806294786426" lon="13.804326314704486"><ele>51.0</ele><time>2026-04-12T11:51:11.958Z</time></trkpt><trkpt lat="45.338119258835754" lon="13.804479408687635"><ele>49.714285714285715</ele><time>2026-04-12T11:51:13.958Z</time></trkpt><trkpt lat="45.338170214666626" lon="13.804570160326897"><ele>48.42857142857143</ele><time>2026-04-12T11:51:14.958Z</time></trkpt><trkpt lat="45.338202474039754" lon="13.80465337393756"><ele>47.14285714285714</ele><time>2026-04-12T11:51:15.958Z</time></trkpt><trkpt lat="45.33824020508153" lon="13.804728617619391"><ele>45.85714285714286</ele><time>2026-04-12T11:51:16.958Z</time></trkpt><trkpt lat="45.33827791205499" lon="13.804813484804262"><ele>44.57142857142857</ele><time>2026-04-12T11:51:17.958Z</time></trkpt><trkpt lat="45.33831303685228" lon="13.804890029047725"><ele>43.285714285714285</ele><time>2026-04-12T11:51:18.958Z</time></trkpt><trkpt lat="45.33834412654181" lon="13.804968371079088"><ele>42.0</ele><time>2026-04-12T11:51:19.958Z</time></trkpt><trkpt lat="45.338390391983715" lon="13.805038271982399"><ele>39.75</ele><time>2026-04-12T11:51:20.958Z</time></trkpt><trkpt lat="45.33847248506618" lon="13.80519532863754"><ele>37.5</ele><time>2026-04-12T11:51:22.958Z</time></trkpt><trkpt lat="45.33855652840645" lon="13.805323179279338"><ele>35.25</ele><time>2026-04-12T11:51:24.958Z</time></trkpt><trkpt lat="45.338657987870306" lon="13.805424110610016"><ele>33.0</ele><time>2026-04-12T11:51:26.958Z</time></trkpt><trkpt lat="45.33874193891967" lon="13.805534116321498"><ele>33.0</ele><time>2026-04-12T11:51:28.958Z</time></trkpt><trkpt lat="45.338826563635386" lon="13.805625056304065"><ele>33.0</ele><time>2026-04-12T11:51:30.958Z</time></trkpt><trkpt lat="45.33890294488098" lon="13.80572041048382"><ele>33.0</ele><time>2026-04-12T11:51:32.958Z</time></trkpt><trkpt lat="45.338968935367134" lon="13.805856184228057"><ele>33.0</ele><time>2026-04-12T11:51:34.958Z</time></trkpt><trkpt lat="45.33904263880156" lon="13.806012022323332"><ele>30.0</ele><time>2026-04-12T11:51:36.958Z</time></trkpt><trkpt lat="45.33911556753446" lon="13.80614748748721"><ele>26.999999999999996</ele><time>2026-04-12T11:51:38.958Z</time></trkpt><trkpt lat="45.33917707108446" lon="13.806244574710671"><ele>24.0</ele><time>2026-04-12T11:51:40.958Z</time></trkpt><trkpt lat="45.3392469043987" lon="13.806343621710216"><ele>21.0</ele><time>2026-04-12T11:51:42.958Z</time></trkpt><trkpt lat="45.33930605380944" lon="13.806398421001209"><ele>18.0</ele><time>2026-04-12T11:51:44.958Z</time></trkpt><trkpt lat="45.33938598596266" lon="13.806459545051267"><ele>18.0</ele><time>2026-04-12T11:51:46.958Z</time></trkpt><trkpt lat="45.339457370319884" lon="13.806508546122773"><ele>18.0</ele><time>2026-04-12T11:51:49.958Z</time></trkpt><trkpt lat="45.33949833697175" lon="13.806618014710757"><ele>18.0</ele><time>2026-04-12T11:51:52.958Z</time></trkpt><trkpt lat="45.33947104980392" lon="13.806733633931058"><ele>18.0</ele><time>2026-04-12T11:51:54.957Z</time></trkpt><trkpt lat="45.339429479925776" lon="13.806832232413013"><ele>18.0</ele><time>2026-04-12T11:51:56.958Z</time></trkpt><trkpt lat="45.339413942024834" lon="13.806935646770704"><ele>18.0</ele><time>2026-04-12T11:51:58.957Z</time></trkpt><trkpt lat="45.339400654325544" lon="13.80702557924552"><ele>16.666666666666668</ele><time>2026-04-12T11:52:00.957Z</time></trkpt><trkpt lat="45.33934892187953" lon="13.807144551184537"><ele>15.333333333333334</ele><time>2026-04-12T11:52:03.957Z</time></trkpt><trkpt lat="45.33928263692818" lon="13.80722007247989"><ele>14.0</ele><time>2026-04-12T11:52:05.958Z</time></trkpt><trkpt lat="45.33922715513586" lon="13.80731886933332"><ele>12.666666666666668</ele><time>2026-04-12T11:52:08.958Z</time></trkpt><trkpt lat="45.33918555549911" lon="13.80740250327765"><ele>11.333333333333334</ele><time>2026-04-12T11:52:10.958Z</time></trkpt><trkpt lat="45.33913637852092" lon="13.807490216927107"><ele>10.0</ele><time>2026-04-12T11:52:12.958Z</time></trkpt><trkpt lat="45.33909287092741" lon="13.807584732578082"><ele>10.166666666666668</ele><time>2026-04-12T11:52:14.958Z</time></trkpt><trkpt lat="45.339050793270054" lon="13.807685883946762"><ele>10.333333333333334</ele><time>2026-04-12T11:52:16.958Z</time></trkpt><trkpt lat="45.33900007675793" lon="13.807768389251398"><ele>10.5</ele><time>2026-04-12T11:52:18.958Z</time></trkpt><trkpt lat="45.338943122194884" lon="13.807867030631398"><ele>10.666666666666666</ele><time>2026-04-12T11:52:20.958Z</time></trkpt><trkpt lat="45.3389048069459" lon="13.807954172240375"><ele>10.833333333333332</ele><time>2026-04-12T11:52:22.958Z</time></trkpt><trkpt lat="45.33887295622718" lon="13.80803199069523"><ele>11.0</ele><time>2026-04-12T11:52:24.958Z</time></trkpt><trkpt lat="45.338844318308986" lon="13.808131624509917"><ele>11.5</ele><time>2026-04-12T11:52:26.958Z</time></trkpt><trkpt lat="45.33880702306908" lon="13.80824938947284"><ele>12.0</ele><time>2026-04-12T11:52:29.958Z</time></trkpt><trkpt lat="45.33877161564961" lon="13.808371298631174"><ele>12.5</ele><time>2026-04-12T11:52:32.958Z</time></trkpt><trkpt lat="45.33874825126925" lon="13.808459908582817"><ele>13.0</ele><time>2026-04-12T11:52:35.958Z</time></trkpt><trkpt lat="45.33872693566437" lon="13.808565553746133"><ele>13.500000000000002</ele><time>2026-04-12T11:52:58.958Z</time></trkpt><trkpt lat="45.33868099034757" lon="13.808671641494191"><ele>14.0</ele><time>2026-04-12T11:53:53.958Z</time></trkpt><trkpt lat="45.338710645898395" lon="13.808589431448453"><ele>14.000000000000002</ele><time>2026-04-12T11:57:12.958Z</time></trkpt><trkpt lat="45.33871858991765" lon="13.808484838684066"><ele>14.0</ele><time>2026-04-12T11:57:28.958Z</time></trkpt><trkpt lat="45.33873905655988" lon="13.808399862906892"><ele>14.0</ele><time>2026-04-12T11:57:31.958Z</time></trkpt><trkpt lat="45.338805403080706" lon="13.808291842178852"><ele>14.0</ele><time>2026-04-12T11:57:34.958Z</time></trkpt><trkpt lat="45.33882703978399" lon="13.808195274713595"><ele>14.000000000000002</ele><time>2026-04-12T11:57:37.958Z</time></trkpt><trkpt lat="45.338867946937086" lon="13.808097155684528"><ele>14.0</ele><time>2026-04-12T11:57:40.958Z</time></trkpt><trkpt lat="45.33891819549675" lon="13.8080037648408"><ele>13.500000000000002</ele><time>2026-04-12T11:57:43.958Z</time></trkpt><trkpt lat="45.33897129318027" lon="13.807919393739315"><ele>13.0</ele><time>2026-04-12T11:57:46.958Z</time></trkpt><trkpt lat="45.33901514859079" lon="13.807820480460645"><ele>12.5</ele><time>2026-04-12T11:57:49.958Z</time></trkpt><trkpt lat="45.33905501017531" lon="13.807719783305757"><ele>12.0</ele><time>2026-04-12T11:57:52.958Z</time></trkpt><trkpt lat="45.33909165502562" lon="13.807615241014723"><ele>11.5</ele><time>2026-04-12T11:57:55.959Z</time></trkpt><trkpt lat="45.33916454778191" lon="13.807519923981166"><ele>11.0</ele><time>2026-04-12T11:57:57.959Z</time></trkpt><trkpt lat="45.33921164238621" lon="13.807433991568605"><ele>10.833333333333332</ele><time>2026-04-12T11:57:59.959Z</time></trkpt><trkpt lat="45.3392741247127" lon="13.807329267951735"><ele>10.666666666666666</ele><time>2026-04-12T11:58:01.959Z</time></trkpt><trkpt lat="45.33933767200338" lon="13.807233554076195"><ele>10.5</ele><time>2026-04-12T11:58:03.959Z</time></trkpt><trkpt lat="45.33937626339071" lon="13.807119308151892"><ele>10.333333333333334</ele><time>2026-04-12T11:58:05.959Z</time></trkpt><trkpt lat="45.339403855020535" lon="13.807021017720967"><ele>10.166666666666668</ele><time>2026-04-12T11:58:07.959Z</time></trkpt><trkpt lat="45.339441776851444" lon="13.806938593152456"><ele>10.0</ele><time>2026-04-12T11:58:09.959Z</time></trkpt><trkpt lat="45.33947522188941" lon="13.806852890334643"><ele>10.285714285714285</ele><time>2026-04-12T11:58:11.959Z</time></trkpt><trkpt lat="45.33951170650846" lon="13.806764059932492"><ele>10.571428571428571</ele><time>2026-04-12T11:58:13.958Z</time></trkpt><trkpt lat="45.33955813334436" lon="13.806697178165948"><ele>10.857142857142858</ele><time>2026-04-12T11:58:21.959Z</time></trkpt><trkpt lat="45.33963137381675" lon="13.80668511143359"><ele>11.142857142857142</ele><time>2026-04-12T11:58:35.959Z</time></trkpt><trkpt lat="45.3396997669052" lon="13.806736093812505"><ele>11.428571428571429</ele><time>2026-04-12T11:58:38.959Z</time></trkpt><trkpt lat="45.33976170619652" lon="13.806756042398124"><ele>11.714285714285714</ele><time>2026-04-12T11:58:40.959Z</time></trkpt><trkpt lat="45.33983240859079" lon="13.806752817518687"><ele>12.0</ele><time>2026-04-12T11:58:42.959Z</time></trkpt><trkpt lat="45.33988621943218" lon="13.806685786210192"><ele>12.0</ele><time>2026-04-12T11:58:44.959Z</time></trkpt><trkpt lat="45.33995803629138" lon="13.806592713393131"><ele>12.0</ele><time>2026-04-12T11:58:46.959Z</time></trkpt><trkpt lat="45.34000573937817" lon="13.806530108771426"><ele>12.0</ele><time>2026-04-12T11:58:48.959Z</time></trkpt><trkpt lat="45.34008730102703" lon="13.80642686300833"><ele>12.0</ele><time>2026-04-12T11:58:50.959Z</time></trkpt><trkpt lat="45.340185306947625" lon="13.806310367476536"><ele>12.0</ele><time>2026-04-12T11:58:52.959Z</time></trkpt><trkpt lat="45.34025933462078" lon="13.806205937506876"><ele>12.0</ele><time>2026-04-12T11:58:54.959Z</time></trkpt><trkpt lat="45.34032407631536" lon="13.80611136277577"><ele>12.0</ele><time>2026-04-12T11:58:56.959Z</time></trkpt><trkpt lat="45.34037492543105" lon="13.806023235210798"><ele>12.0</ele><time>2026-04-12T11:58:58.959Z</time></trkpt><trkpt lat="45.340397197495264" lon="13.805898702731412"><ele>12.0</ele><time>2026-04-12T11:59:00.959Z</time></trkpt><trkpt lat="45.34044284279622" lon="13.805767964306153"><ele>12.0</ele><time>2026-04-12T11:59:02.959Z</time></trkpt><trkpt lat="45.340524021319936" lon="13.805606331010354"><ele>12.2</ele><time>2026-04-12T11:59:04.959Z</time></trkpt><trkpt lat="45.34055748469229" lon="13.805516621951375"><ele>12.399999999999999</ele><time>2026-04-12T11:59:05.959Z</time></trkpt><trkpt lat="45.34060111435063" lon="13.80535736498186"><ele>12.600000000000001</ele><time>2026-04-12T11:59:07.959Z</time></trkpt><trkpt lat="45.34064913251958" lon="13.80521116839778"><ele>12.8</ele><time>2026-04-12T11:59:09.959Z</time></trkpt><trkpt lat="45.34067501687668" lon="13.805063089959623"><ele>13.0</ele><time>2026-04-12T11:59:11.959Z</time></trkpt><trkpt lat="45.34071875152574" lon="13.804973155628904"><ele>12.999999999999998</ele><time>2026-04-12T11:59:12.959Z</time></trkpt><trkpt lat="45.34074587240307" lon="13.804887208150511"><ele>13.0</ele><time>2026-04-12T11:59:13.959Z</time></trkpt><trkpt lat="45.340791941796006" lon="13.8048039729859"><ele>13.0</ele><time>2026-04-12T11:59:14.959Z</time></trkpt><trkpt lat="45.340842461753375" lon="13.804723352433617"><ele>13.0</ele><time>2026-04-12T11:59:15.959Z</time></trkpt><trkpt lat="45.3408927764192" lon="13.804633491262486"><ele>12.999999999999998</ele><time>2026-04-12T11:59:16.959Z</time></trkpt><trkpt lat="45.3409386396921" lon="13.804571724709973"><ele>13.0</ele><time>2026-04-12T11:59:17.959Z</time></trkpt><trkpt lat="45.34101599663049" lon="13.804493734593436"><ele>13.0</ele><time>2026-04-12T11:59:19.959Z</time></trkpt><trkpt lat="45.34108979746044" lon="13.80442109770633"><ele>13.0</ele><time>2026-04-12T11:59:21.959Z</time></trkpt><trkpt lat="45.34118463912656" lon="13.804399609900468"><ele>13.0</ele><time>2026-04-12T11:59:24.959Z</time></trkpt><trkpt lat="45.341246862554954" lon="13.804381183903962"><ele>13.0</ele><time>2026-04-12T11:59:25.959Z</time></trkpt><trkpt lat="45.34134879535636" lon="13.804333621641495"><ele>13.0</ele><time>2026-04-12T11:59:26.959Z</time></trkpt><trkpt lat="45.34144301779721" lon="13.804287716669172"><ele>13.4</ele><time>2026-04-12T11:59:27.959Z</time></trkpt><trkpt lat="45.341530828706496" lon="13.804206627882278"><ele>13.8</ele><time>2026-04-12T11:59:28.959Z</time></trkpt><trkpt lat="45.341615078088765" lon="13.804112272278347"><ele>14.2</ele><time>2026-04-12T11:59:29.959Z</time></trkpt><trkpt lat="45.34169079631882" lon="13.804070733878792"><ele>14.6</ele><time>2026-04-12T11:59:30.959Z</time></trkpt><trkpt lat="45.34174981568129" lon="13.804005315291443"><ele>15.0</ele><time>2026-04-12T11:59:31.959Z</time></trkpt><trkpt lat="45.34183033184486" lon="13.803937295916857"><ele>15.0</ele><time>2026-04-12T11:59:32.959Z</time></trkpt><trkpt lat="45.341918974724074" lon="13.803891699574695"><ele>15.0</ele><time>2026-04-12T11:59:33.959Z</time></trkpt><trkpt lat="45.34201323862728" lon="13.80384587236956"><ele>15.0</ele><time>2026-04-12T11:59:35.959Z</time></trkpt><trkpt lat="45.34211910798627" lon="13.803803384820114"><ele>15.0</ele><time>2026-04-12T11:59:37.959Z</time></trkpt><trkpt lat="45.342207462295434" lon="13.803773529623044"><ele>15.0</ele><time>2026-04-12T11:59:39.959Z</time></trkpt><trkpt lat="45.342290745815504" lon="13.803711528759438"><ele>15.4</ele><time>2026-04-12T11:59:41.959Z</time></trkpt><trkpt lat="45.34236318168627" lon="13.80367202883394"><ele>15.8</ele><time>2026-04-12T11:59:43.959Z</time></trkpt><trkpt lat="45.34246425741552" lon="13.803606327588486"><ele>16.2</ele><time>2026-04-12T11:59:45.96Z</time></trkpt><trkpt lat="45.342552216332614" lon="13.8034806548296"><ele>16.6</ele><time>2026-04-12T11:59:47.96Z</time></trkpt><trkpt lat="45.342606879260416" lon="13.803419913570067"><ele>17.0</ele><time>2026-04-12T11:59:48.96Z</time></trkpt><trkpt lat="45.34266158163961" lon="13.803360594498658"><ele>17.0</ele><time>2026-04-12T11:59:49.96Z</time></trkpt><trkpt lat="45.342777743922255" lon="13.803289751311368"><ele>17.0</ele><time>2026-04-12T11:59:51.96Z</time></trkpt><trkpt lat="45.342841872553244" lon="13.803263298576734"><ele>17.0</ele><time>2026-04-12T11:59:52.96Z</time></trkpt><trkpt lat="45.34291712247034" lon="13.803237933625695"><ele>17.0</ele><time>2026-04-12T11:59:53.96Z</time></trkpt><trkpt lat="45.342999036652095" lon="13.803207687941116"><ele>17.0</ele><time>2026-04-12T11:59:54.96Z</time></trkpt><trkpt lat="45.34307051429124" lon="13.803169130193675"><ele>17.0</ele><time>2026-04-12T11:59:55.96Z</time></trkpt><trkpt lat="45.343139544306815" lon="13.803145224131516"><ele>15.666666666666668</ele><time>2026-04-12T11:59:56.96Z</time></trkpt><trkpt lat="45.34320564302742" lon="13.803138800323243"><ele>14.333333333333334</ele><time>2026-04-12T11:59:57.96Z</time></trkpt><trkpt lat="45.34333223431755" lon="13.803091534332212"><ele>13.0</ele><time>2026-04-12T11:59:59.96Z</time></trkpt><trkpt lat="45.34340322345495" lon="13.803033905190217"><ele>11.666666666666668</ele><time>2026-04-12T12:00:00.96Z</time></trkpt><trkpt lat="45.343470077007545" lon="13.802983777294214"><ele>10.333333333333334</ele><time>2026-04-12T12:00:01.96Z</time></trkpt><trkpt lat="45.34353167970937" lon="13.802932016657797"><ele>9.0</ele><time>2026-04-12T12:00:02.96Z</time></trkpt><trkpt lat="45.34359821851924" lon="13.802873193258982"><ele>9.0</ele><time>2026-04-12T12:00:03.96Z</time></trkpt><trkpt lat="45.34366594065072" lon="13.802820568586533"><ele>9.0</ele><time>2026-04-12T12:00:04.96Z</time></trkpt><trkpt lat="45.34377415430407" lon="13.802748449885849"><ele>9.0</ele><time>2026-04-12T12:00:06.96Z</time></trkpt><trkpt lat="45.34384756352207" lon="13.802727854042626"><ele>9.0</ele><time>2026-04-12T12:00:08.96Z</time></trkpt><trkpt lat="45.34398155805849" lon="13.802692354593065"><ele>9.0</ele><time>2026-04-12T12:00:40.958Z</time></trkpt><trkpt lat="45.344051820461495" lon="13.802651552697679"><ele>8.857142857142858</ele><time>2026-04-12T12:00:56.959Z</time></trkpt><trkpt lat="45.34411956737325" lon="13.802682044105554"><ele>8.714285714285715</ele><time>2026-04-12T12:01:04.959Z</time></trkpt><trkpt lat="45.34419196961488" lon="13.80264803681178"><ele>8.571428571428571</ele><time>2026-04-12T12:01:14.958Z</time></trkpt><trkpt lat="45.344257037076" lon="13.802653764503546"><ele>8.428571428571429</ele><time>2026-04-12T12:01:27.958Z</time></trkpt><trkpt lat="45.344320082783334" lon="13.802652659224472"><ele>8.285714285714285</ele><time>2026-04-12T12:01:34.958Z</time></trkpt><trkpt lat="45.34440058242679" lon="13.802677059956155"><ele>8.142857142857142</ele><time>2026-04-12T12:01:50.958Z</time></trkpt><trkpt lat="45.34445738487511" lon="13.802716492667995"><ele>8.0</ele><time>2026-04-12T12:02:06.958Z</time></trkpt><trkpt lat="45.344538635593594" lon="13.802721069302065"><ele>7.999999999999999</ele><time>2026-04-12T12:02:22.958Z</time></trkpt><trkpt lat="45.34461342958449" lon="13.802721121525966"><ele>8.0</ele><time>2026-04-12T12:02:29.957Z</time></trkpt><trkpt lat="45.344687373936345" lon="13.80273508673117"><ele>8.0</ele><time>2026-04-12T12:02:36.958Z</time></trkpt><trkpt lat="45.344755053848736" lon="13.802709357872322"><ele>8.0</ele><time>2026-04-12T12:02:42.958Z</time></trkpt><trkpt lat="45.344835736165734" lon="13.802608644544685"><ele>7.999999999999999</ele><time>2026-04-12T12:03:22.958Z</time></trkpt><trkpt lat="45.34487582874854" lon="13.802532780796183"><ele>8.0</ele><time>2026-04-12T12:06:37.957Z</time></trkpt><trkpt lat="45.344896171816856" lon="13.802445684912582"><ele>7.999999999999999</ele><time>2026-04-12T12:06:43.957Z</time></trkpt><trkpt lat="45.344894385809454" lon="13.802348603769673"><ele>8.0</ele><time>2026-04-12T12:06:56.957Z</time></trkpt><trkpt lat="45.344918571774485" lon="13.802234163195584"><ele>8.0</ele><time>2026-04-12T12:07:01.957Z</time></trkpt><trkpt lat="45.34493122307023" lon="13.802099336187245"><ele>8.0</ele><time>2026-04-12T12:10:50.96Z</time></trkpt><trkpt lat="45.34500998746445" lon="13.802101442399746"><ele>7.999999999999999</ele><time>2026-04-12T12:10:54.96Z</time></trkpt><trkpt lat="45.345032518625565" lon="13.802234190882597"><ele>8.0</ele><time>2026-04-12T12:10:57.959Z</time></trkpt><trkpt lat="45.34502360231526" lon="13.802359906797342"><ele>8.0</ele><time>2026-04-12T12:10:59.96Z</time></trkpt><trkpt lat="45.34501927702329" lon="13.802458308485008"><ele>7.999999999999999</ele><time>2026-04-12T12:11:02.96Z</time></trkpt><trkpt lat="45.345035242084855" lon="13.802548510943849"><ele>8.0</ele><time>2026-04-12T12:11:05.96Z</time></trkpt><trkpt lat="45.345050884176466" lon="13.802639210522216"><ele>8.0</ele><time>2026-04-12T12:11:09.96Z</time></trkpt><trkpt lat="45.345116629816246" lon="13.80258484132714"><ele>7.999999999999999</ele><time>2026-04-12T12:11:12.96Z</time></trkpt><trkpt lat="45.34512712173745" lon="13.802448575739815"><ele>8.0</ele><time>2026-04-12T12:11:14.96Z</time></trkpt><trkpt lat="45.34513469151867" lon="13.802349682915223"><ele>8.0</ele><time>2026-04-12T12:11:15.96Z</time></trkpt><trkpt lat="45.34517684996883" lon="13.802167509322343"><ele>7.999999999999999</ele><time>2026-04-12T12:11:17.96Z</time></trkpt><trkpt lat="45.34520114409719" lon="13.802044486340813"><ele>8.0</ele><time>2026-04-12T12:11:18.96Z</time></trkpt><trkpt lat="45.34522970548419" lon="13.801915757309262"><ele>8.0</ele><time>2026-04-12T12:11:19.96Z</time></trkpt><trkpt lat="45.34525158399252" lon="13.801821101529228"><ele>8.0</ele><time>2026-04-12T12:11:20.96Z</time></trkpt><trkpt lat="45.345263364239536" lon="13.80171321935947"><ele>7.999999999999999</ele><time>2026-04-12T12:11:21.96Z</time></trkpt><trkpt lat="45.34528484602738" lon="13.801579141159944"><ele>8.0</ele><time>2026-04-12T12:11:22.96Z</time></trkpt><trkpt lat="45.34530673668202" lon="13.801443892995469"><ele>7.999999999999999</ele><time>2026-04-12T12:11:23.96Z</time></trkpt><trkpt lat="45.345328533266425" lon="13.801302879192342"><ele>8.0</ele><time>2026-04-12T12:11:24.96Z</time></trkpt><trkpt lat="45.34535035623017" lon="13.801200552895812"><ele>8.0</ele><time>2026-04-12T12:11:25.96Z</time></trkpt><trkpt lat="45.34537691845955" lon="13.801085947581203"><ele>8.0</ele><time>2026-04-12T12:11:26.96Z</time></trkpt><trkpt lat="45.345400546448836" lon="13.800959690122014"><ele>7.999999999999999</ele><time>2026-04-12T12:11:27.96Z</time></trkpt><trkpt lat="45.3454127324521" lon="13.800845126806658"><ele>8.0</ele><time>2026-04-12T12:11:28.96Z</time></trkpt><trkpt lat="45.34541890023478" lon="13.800729897909678"><ele>7.800000000000001</ele><time>2026-04-12T12:11:29.96Z</time></trkpt><trkpt lat="45.34541706036063" lon="13.800592093043075"><ele>7.6000000000000005</ele><time>2026-04-12T12:11:30.96Z</time></trkpt><trkpt lat="45.34541797243466" lon="13.800439468510312"><ele>7.3999999999999995</ele><time>2026-04-12T12:11:31.96Z</time></trkpt><trkpt lat="45.34541338222704" lon="13.800294869173465"><ele>7.199999999999999</ele><time>2026-04-12T12:11:32.96Z</time></trkpt><trkpt lat="45.345415573175025" lon="13.800139124852421"><ele>7.0</ele><time>2026-04-12T12:11:33.96Z</time></trkpt><trkpt lat="45.34540300777398" lon="13.79997437295461"><ele>7.199999999999999</ele><time>2026-04-12T12:11:34.96Z</time></trkpt><trkpt lat="45.345388713701176" lon="13.799833226414021"><ele>7.3999999999999995</ele><time>2026-04-12T12:11:35.96Z</time></trkpt><trkpt lat="45.3453636042528" lon="13.799694166489072"><ele>7.6000000000000005</ele><time>2026-04-12T12:11:36.96Z</time></trkpt><trkpt lat="45.345347686681066" lon="13.799540049093473"><ele>7.800000000000001</ele><time>2026-04-12T12:11:37.96Z</time></trkpt><trkpt lat="45.34531973221939" lon="13.7994004739974"><ele>8.0</ele><time>2026-04-12T12:11:38.96Z</time></trkpt><trkpt lat="45.34527986226305" lon="13.799255530385459"><ele>8.0</ele><time>2026-04-12T12:11:39.96Z</time></trkpt><trkpt lat="45.34524839363098" lon="13.799107615094051"><ele>8.0</ele><time>2026-04-12T12:11:40.96Z</time></trkpt><trkpt lat="45.345224913164536" lon="13.798959801555453"><ele>8.0</ele><time>2026-04-12T12:11:41.96Z</time></trkpt><trkpt lat="45.345202735358605" lon="13.79880991850881"><ele>8.0</ele><time>2026-04-12T12:11:42.96Z</time></trkpt><trkpt lat="45.34517590056013" lon="13.798665164585978"><ele>8.0</ele><time>2026-04-12T12:11:43.96Z</time></trkpt><trkpt lat="45.345144432508" lon="13.798519144044048"><ele>7.800000000000001</ele><time>2026-04-12T12:11:44.96Z</time></trkpt><trkpt lat="45.345109969468055" lon="13.798385776925329"><ele>7.6000000000000005</ele><time>2026-04-12T12:11:45.96Z</time></trkpt><trkpt lat="45.34508671792214" lon="13.798239285286014"><ele>7.3999999999999995</ele><time>2026-04-12T12:11:46.96Z</time></trkpt><trkpt lat="45.34506751682272" lon="13.798108816798734"><ele>7.199999999999999</ele><time>2026-04-12T12:11:47.96Z</time></trkpt><trkpt lat="45.34503770330716" lon="13.797971074215019"><ele>7.0</ele><time>2026-04-12T12:11:48.96Z</time></trkpt><trkpt lat="45.34501648486855" lon="13.79783522515409"><ele>7.000000000000001</ele><time>2026-04-12T12:11:49.96Z</time></trkpt><trkpt lat="45.34498698345166" lon="13.797707782308061"><ele>7.0</ele><time>2026-04-12T12:11:50.96Z</time></trkpt><trkpt lat="45.34495376920807" lon="13.797603028733203"><ele>7.0</ele><time>2026-04-12T12:11:51.96Z</time></trkpt><trkpt lat="45.34493221902701" lon="13.797479955191328"><ele>7.0</ele><time>2026-04-12T12:11:52.96Z</time></trkpt><trkpt lat="45.34490961127198" lon="13.797352524969822"><ele>7.000000000000001</ele><time>2026-04-12T12:11:53.96Z</time></trkpt><trkpt lat="45.34488953025645" lon="13.797223548914372"><ele>7.0</ele><time>2026-04-12T12:11:54.96Z</time></trkpt><trkpt lat="45.3448605133382" lon="13.797098863060176"><ele>7.000000000000001</ele><time>2026-04-12T12:11:55.96Z</time></trkpt><trkpt lat="45.34484077519642" lon="13.796970931287367"><ele>7.0</ele><time>2026-04-12T12:11:56.96Z</time></trkpt><trkpt lat="45.34481915829176" lon="13.79686310767278"><ele>7.0</ele><time>2026-04-12T12:11:57.96Z</time></trkpt><trkpt lat="45.34479891310029" lon="13.796761508909846"><ele>7.0</ele><time>2026-04-12T12:11:58.96Z</time></trkpt><trkpt lat="45.34477848809427" lon="13.796655195272606"><ele>7.000000000000001</ele><time>2026-04-12T12:11:59.96Z</time></trkpt><trkpt lat="45.34476662377291" lon="13.796557242737967"><ele>7.0</ele><time>2026-04-12T12:12:00.96Z</time></trkpt><trkpt lat="45.34475092590433" lon="13.79644274457656"><ele>7.000000000000001</ele><time>2026-04-12T12:12:01.96Z</time></trkpt><trkpt lat="45.344733363485474" lon="13.796322092732451"><ele>7.0</ele><time>2026-04-12T12:12:02.96Z</time></trkpt><trkpt lat="45.34469843192058" lon="13.796213229219955"><ele>7.0</ele><time>2026-04-12T12:12:03.96Z</time></trkpt><trkpt lat="45.34467745747302" lon="13.796101702109913"><ele>7.0</ele><time>2026-04-12T12:12:04.96Z</time></trkpt><trkpt lat="45.34465668881907" lon="13.795991732848863"><ele>7.000000000000001</ele><time>2026-04-12T12:12:05.96Z</time></trkpt><trkpt lat="45.344637670509364" lon="13.795883496709749"><ele>7.0</ele><time>2026-04-12T12:12:06.96Z</time></trkpt><trkpt lat="45.3446097770879" lon="13.795788197891206"><ele>7.0</ele><time>2026-04-12T12:12:07.96Z</time></trkpt><trkpt lat="45.34460274565603" lon="13.795588809300463"><ele>6.999999999999999</ele><time>2026-04-12T12:12:09.96Z</time></trkpt><trkpt lat="45.344572088305796" lon="13.795456648255525"><ele>6.999999999999999</ele><time>2026-04-12T12:12:10.96Z</time></trkpt><trkpt lat="45.34454358190874" lon="13.795340073344464"><ele>7.0</ele><time>2026-04-12T12:12:11.96Z</time></trkpt><trkpt lat="45.344517021303716" lon="13.79524441313148"><ele>7.0</ele><time>2026-04-12T12:12:12.96Z</time></trkpt><trkpt lat="45.34449718593981" lon="13.795152109231584"><ele>6.714285714285714</ele><time>2026-04-12T12:12:13.96Z</time></trkpt><trkpt lat="45.34447716875553" lon="13.795062631521558"><ele>6.428571428571429</ele><time>2026-04-12T12:12:14.96Z</time></trkpt><trkpt lat="45.34446566234619" lon="13.794969355765001"><ele>6.142857142857142</ele><time>2026-04-12T12:12:15.96Z</time></trkpt><trkpt lat="45.34444436068386" lon="13.79487090771137"><ele>5.857142857142858</ele><time>2026-04-12T12:12:16.96Z</time></trkpt><trkpt lat="45.344427492449384" lon="13.794772806649219"><ele>5.571428571428571</ele><time>2026-04-12T12:12:17.96Z</time></trkpt><trkpt lat="45.344417017865155" lon="13.794680629209573"><ele>5.285714285714286</ele><time>2026-04-12T12:12:18.96Z</time></trkpt><trkpt lat="45.34441089072754" lon="13.794579707913853"><ele>5.0</ele><time>2026-04-12T12:12:19.96Z</time></trkpt><trkpt lat="45.34439498354305" lon="13.794476035170073"><ele>5.0</ele><time>2026-04-12T12:12:20.96Z</time></trkpt><trkpt lat="45.344385038811005" lon="13.794381643309483"><ele>5.0</ele><time>2026-04-12T12:12:21.96Z</time></trkpt><trkpt lat="45.34436867102908" lon="13.794285449433557"><ele>5.0</ele><time>2026-04-12T12:12:22.96Z</time></trkpt><trkpt lat="45.344349256796086" lon="13.794195497669797"><ele>5.0</ele><time>2026-04-12T12:12:23.96Z</time></trkpt><trkpt lat="45.34432269174432" lon="13.794083442516868"><ele>5.0</ele><time>2026-04-12T12:12:24.96Z</time></trkpt><trkpt lat="45.34430522790557" lon="13.793990145735497"><ele>5.0</ele><time>2026-04-12T12:12:25.96Z</time></trkpt><trkpt lat="45.344278341610654" lon="13.793882044020995"><ele>5.0</ele><time>2026-04-12T12:12:26.96Z</time></trkpt><trkpt lat="45.3442562066337" lon="13.79377774094656"><ele>4.8</ele><time>2026-04-12T12:12:27.96Z</time></trkpt><trkpt lat="45.34422906766371" lon="13.793672333805764"><ele>4.6</ele><time>2026-04-12T12:12:28.96Z</time></trkpt><trkpt lat="45.34420247747198" lon="13.793572656397542"><ele>4.4</ele><time>2026-04-12T12:12:29.96Z</time></trkpt><trkpt lat="45.34415317011215" lon="13.793442799254771"><ele>4.2</ele><time>2026-04-12T12:12:31.96Z</time></trkpt><trkpt lat="45.34409456816913" lon="13.793338380040575"><ele>4.0</ele><time>2026-04-12T12:12:33.96Z</time></trkpt><trkpt lat="45.34402991769844" lon="13.793193402240465"><ele>4.2</ele><time>2026-04-12T12:12:35.96Z</time></trkpt><trkpt lat="45.343991320018645" lon="13.793100541817218"><ele>4.4</ele><time>2026-04-12T12:12:36.96Z</time></trkpt><trkpt lat="45.34396508942327" lon="13.7930108383227"><ele>4.6</ele><time>2026-04-12T12:12:37.96Z</time></trkpt><trkpt lat="45.343945229643225" lon="13.792845258052157"><ele>4.8</ele><time>2026-04-12T12:12:39.96Z</time></trkpt><trkpt lat="45.34390690839943" lon="13.792698019973507"><ele>5.0</ele><time>2026-04-12T12:12:41.96Z</time></trkpt><trkpt lat="45.34389533905272" lon="13.792491373427564"><ele>5.0</ele><time>2026-04-12T12:12:43.96Z</time></trkpt><trkpt lat="45.343893456278586" lon="13.792355553969724"><ele>5.0</ele><time>2026-04-12T12:12:44.96Z</time></trkpt><trkpt lat="45.34388704706405" lon="13.792239930348154"><ele>5.0</ele><time>2026-04-12T12:12:45.96Z</time></trkpt><trkpt lat="45.34386613936228" lon="13.792125874531536"><ele>5.0</ele><time>2026-04-12T12:12:46.96Z</time></trkpt><trkpt lat="45.34384316400078" lon="13.792020051603725"><ele>5.0</ele><time>2026-04-12T12:12:47.96Z</time></trkpt><trkpt lat="45.34382217200806" lon="13.791888475631897"><ele>5.0</ele><time>2026-04-12T12:12:48.96Z</time></trkpt><trkpt lat="45.34380160191712" lon="13.791764076872065"><ele>5.4</ele><time>2026-04-12T12:12:49.96Z</time></trkpt><trkpt lat="45.3437759988742" lon="13.791641981719915"><ele>5.8</ele><time>2026-04-12T12:12:50.96Z</time></trkpt><trkpt lat="45.3437507594452" lon="13.791508419518607"><ele>6.199999999999999</ele><time>2026-04-12T12:12:51.96Z</time></trkpt><trkpt lat="45.343735518858914" lon="13.791393630211957"><ele>6.6</ele><time>2026-04-12T12:12:52.96Z</time></trkpt><trkpt lat="45.34372686299281" lon="13.791258510155116"><ele>7.0</ele><time>2026-04-12T12:12:53.959Z</time></trkpt><trkpt lat="45.34371731241649" lon="13.791133508527826"><ele>7.0</ele><time>2026-04-12T12:12:54.959Z</time></trkpt><trkpt lat="45.343707611051386" lon="13.791003461277283"><ele>6.999999999999999</ele><time>2026-04-12T12:12:55.959Z</time></trkpt><trkpt lat="45.34369749722099" lon="13.790862034541552"><ele>6.999999999999999</ele><time>2026-04-12T12:12:56.959Z</time></trkpt><trkpt lat="45.34369687293511" lon="13.790720478186284"><ele>7.0</ele><time>2026-04-12T12:12:57.959Z</time></trkpt><trkpt lat="45.34370281805286" lon="13.790591091211143"><ele>7.0</ele><time>2026-04-12T12:12:58.959Z</time></trkpt><trkpt lat="45.34370438570982" lon="13.790465988870904"><ele>7.0</ele><time>2026-04-12T12:12:59.959Z</time></trkpt><trkpt lat="45.34370891059221" lon="13.790327862589752"><ele>6.999999999999999</ele><time>2026-04-12T12:13:00.959Z</time></trkpt><trkpt lat="45.343715776423785" lon="13.790199505646257"><ele>6.999999999999999</ele><time>2026-04-12T12:13:01.959Z</time></trkpt><trkpt lat="45.34372428927466" lon="13.790075106738012"><ele>7.0</ele><time>2026-04-12T12:13:02.959Z</time></trkpt><trkpt lat="45.34374167180226" lon="13.789944073722761"><ele>7.0</ele><time>2026-04-12T12:13:03.959Z</time></trkpt><trkpt lat="45.34376307147577" lon="13.789818193073927"><ele>7.0</ele><time>2026-04-12T12:13:04.959Z</time></trkpt><trkpt lat="45.34378306490181" lon="13.789688291117255"><ele>6.999999999999999</ele><time>2026-04-12T12:13:05.959Z</time></trkpt><trkpt lat="45.34380963329131" lon="13.78956751728599"><ele>6.999999999999999</ele><time>2026-04-12T12:13:06.959Z</time></trkpt><trkpt lat="45.34383763602761" lon="13.789444348514897"><ele>7.0</ele><time>2026-04-12T12:13:07.959Z</time></trkpt><trkpt lat="45.34386711117971" lon="13.789313304974916"><ele>7.0</ele><time>2026-04-12T12:13:08.959Z</time></trkpt><trkpt lat="45.343896197469014" lon="13.789181323448396"><ele>6.833333333333334</ele><time>2026-04-12T12:13:09.959Z</time></trkpt><trkpt lat="45.34393720932856" lon="13.789064247311952"><ele>6.666666666666667</ele><time>2026-04-12T12:13:10.959Z</time></trkpt><trkpt lat="45.34397440908609" lon="13.788946004179135"><ele>6.5</ele><time>2026-04-12T12:13:11.959Z</time></trkpt><trkpt lat="45.3439972685309" lon="13.788818825633111"><ele>6.333333333333334</ele><time>2026-04-12T12:13:12.959Z</time></trkpt><trkpt lat="45.344028585406846" lon="13.788702144022535"><ele>6.166666666666667</ele><time>2026-04-12T12:13:13.959Z</time></trkpt><trkpt lat="45.344063200525916" lon="13.788616119233227"><ele>6.0</ele><time>2026-04-12T12:13:14.959Z</time></trkpt><trkpt lat="45.34410047754536" lon="13.78850905930261"><ele>5.833333333333333</ele><time>2026-04-12T12:13:15.959Z</time></trkpt><trkpt lat="45.34412956305954" lon="13.788406435358507"><ele>5.666666666666667</ele><time>2026-04-12T12:13:16.959Z</time></trkpt><trkpt lat="45.34415600208948" lon="13.788309066720835"><ele>5.5</ele><time>2026-04-12T12:13:17.959Z</time></trkpt><trkpt lat="45.34418088977699" lon="13.788219333096736"><ele>5.333333333333334</ele><time>2026-04-12T12:13:18.959Z</time></trkpt><trkpt lat="45.34420870174873" lon="13.788067279809374"><ele>5.166666666666667</ele><time>2026-04-12T12:13:20.959Z</time></trkpt><trkpt lat="45.34420884399232" lon="13.787928309135976"><ele>5.0</ele><time>2026-04-12T12:13:22.959Z</time></trkpt><trkpt lat="45.34419791331903" lon="13.78783355523654"><ele>5.0</ele><time>2026-04-12T12:13:23.959Z</time></trkpt><trkpt lat="45.34418422851468" lon="13.787732141152308"><ele>5.0</ele><time>2026-04-12T12:13:24.959Z</time></trkpt><trkpt lat="45.34416544731343" lon="13.787576587251227"><ele>5.0</ele><time>2026-04-12T12:13:26.959Z</time></trkpt><trkpt lat="45.34416142103465" lon="13.787453242416994"><ele>5.0</ele><time>2026-04-12T12:13:28.959Z</time></trkpt><trkpt lat="45.344215223957875" lon="13.787360071768344"><ele>5.0</ele><time>2026-04-12T12:13:30.959Z</time></trkpt><trkpt lat="45.344304398069745" lon="13.787350520162398"><ele>5.0</ele><time>2026-04-12T12:13:32.959Z</time></trkpt><trkpt lat="45.344406816229174" lon="13.787290317883773"><ele>5.4</ele><time>2026-04-12T12:13:34.959Z</time></trkpt><trkpt lat="45.344494844622666" lon="13.787156662151299"><ele>5.8</ele><time>2026-04-12T12:13:36.959Z</time></trkpt><trkpt lat="45.34453188299812" lon="13.787054110528121"><ele>6.199999999999999</ele><time>2026-04-12T12:13:37.959Z</time></trkpt><trkpt lat="45.34456759771031" lon="13.786959469942113"><ele>6.6</ele><time>2026-04-12T12:13:38.959Z</time></trkpt><trkpt lat="45.34460860730674" lon="13.786841644623085"><ele>7.0</ele><time>2026-04-12T12:13:39.959Z</time></trkpt><trkpt lat="45.344645196525626" lon="13.786742144448992"><ele>7.166666666666667</ele><time>2026-04-12T12:13:40.959Z</time></trkpt><trkpt lat="45.34468128388385" lon="13.7866453777746"><ele>7.333333333333334</ele><time>2026-04-12T12:13:41.959Z</time></trkpt><trkpt lat="45.344717488588714" lon="13.78654686092532"><ele>7.5</ele><time>2026-04-12T12:13:42.959Z</time></trkpt><trkpt lat="45.34476049368409" lon="13.786441351545173"><ele>7.666666666666666</ele><time>2026-04-12T12:13:43.959Z</time></trkpt><trkpt lat="45.34479278051036" lon="13.786359664461543"><ele>7.833333333333333</ele><time>2026-04-12T12:13:44.959Z</time></trkpt><trkpt lat="45.344855469647726" lon="13.786273052957162"><ele>8.0</ele><time>2026-04-12T12:13:45.959Z</time></trkpt><trkpt lat="45.344892245018876" lon="13.786168146325288"><ele>8.0</ele><time>2026-04-12T12:13:46.959Z</time></trkpt><trkpt lat="45.34493121767652" lon="13.78605521280778"><ele>8.0</ele><time>2026-04-12T12:13:47.959Z</time></trkpt><trkpt lat="45.34496170585346" lon="13.785945431526432"><ele>8.0</ele><time>2026-04-12T12:13:48.959Z</time></trkpt><trkpt lat="45.34500207760182" lon="13.785828828383917"><ele>8.0</ele><time>2026-04-12T12:13:49.959Z</time></trkpt><trkpt lat="45.3450579832928" lon="13.785703089358766"><ele>8.0</ele><time>2026-04-12T12:13:50.959Z</time></trkpt><trkpt lat="45.34510281459103" lon="13.785573392095873"><ele>7.800000000000001</ele><time>2026-04-12T12:13:51.959Z</time></trkpt><trkpt lat="45.345149103857125" lon="13.785446365676947"><ele>7.6000000000000005</ele><time>2026-04-12T12:13:52.959Z</time></trkpt><trkpt lat="45.34519490837829" lon="13.785312820924306"><ele>7.3999999999999995</ele><time>2026-04-12T12:13:53.959Z</time></trkpt><trkpt lat="45.34524010617667" lon="13.785156508170532"><ele>7.199999999999999</ele><time>2026-04-12T12:13:54.959Z</time></trkpt><trkpt lat="45.34528912474023" lon="13.78499615284736"><ele>7.0</ele><time>2026-04-12T12:13:55.959Z</time></trkpt><trkpt lat="45.34534139705736" lon="13.78486860463351"><ele>7.000000000000001</ele><time>2026-04-12T12:13:56.959Z</time></trkpt><trkpt lat="45.34538177756988" lon="13.784753708299796"><ele>7.0</ele><time>2026-04-12T12:13:57.959Z</time></trkpt><trkpt lat="45.34542921911257" lon="13.784646751799617"><ele>7.0</ele><time>2026-04-12T12:13:58.959Z</time></trkpt><trkpt lat="45.34547638770274" lon="13.78455693550216"><ele>7.0</ele><time>2026-04-12T12:13:59.959Z</time></trkpt><trkpt lat="45.345522812647374" lon="13.784453921768428"><ele>7.000000000000001</ele><time>2026-04-12T12:14:00.959Z</time></trkpt><trkpt lat="45.34556400388843" lon="13.78433701930373"><ele>7.0</ele><time>2026-04-12T12:14:01.959Z</time></trkpt><trkpt lat="45.34560269874976" lon="13.784217931730753"><ele>7.3999999999999995</ele><time>2026-04-12T12:14:02.959Z</time></trkpt><trkpt lat="45.345640496715326" lon="13.784102423198869"><ele>7.799999999999999</ele><time>2026-04-12T12:14:03.959Z</time></trkpt><trkpt lat="45.34568037451033" lon="13.783990282319259"><ele>8.2</ele><time>2026-04-12T12:14:04.959Z</time></trkpt><trkpt lat="45.34573001656977" lon="13.783877288684458"><ele>8.6</ele><time>2026-04-12T12:14:05.959Z</time></trkpt><trkpt lat="45.34578462308104" lon="13.783760960954567"><ele>9.0</ele><time>2026-04-12T12:14:06.959Z</time></trkpt><trkpt lat="45.34582923211298" lon="13.78365414613508"><ele>9.0</ele><time>2026-04-12T12:14:07.959Z</time></trkpt><trkpt lat="45.34587634266506" lon="13.78353522745711"><ele>9.0</ele><time>2026-04-12T12:14:08.959Z</time></trkpt><trkpt lat="45.34591864666738" lon="13.7834092436427"><ele>9.0</ele><time>2026-04-12T12:14:09.959Z</time></trkpt><trkpt lat="45.34596686400797" lon="13.783285342173743"><ele>9.0</ele><time>2026-04-12T12:14:10.959Z</time></trkpt><trkpt lat="45.34601525445534" lon="13.78315815888647"><ele>9.0</ele><time>2026-04-12T12:14:11.959Z</time></trkpt><trkpt lat="45.34605530473881" lon="13.783031753558527"><ele>9.0</ele><time>2026-04-12T12:14:12.959Z</time></trkpt><trkpt lat="45.346099089698455" lon="13.782913652128768"><ele>9.0</ele><time>2026-04-12T12:14:13.959Z</time></trkpt><trkpt lat="45.346141191568634" lon="13.782797756620216"><ele>9.0</ele><time>2026-04-12T12:14:14.959Z</time></trkpt><trkpt lat="45.34618268629922" lon="13.782677717598023"><ele>9.0</ele><time>2026-04-12T12:14:15.959Z</time></trkpt><trkpt lat="45.34622706781435" lon="13.782554751479953"><ele>9.0</ele><time>2026-04-12T12:14:16.959Z</time></trkpt><trkpt lat="45.34626876177308" lon="13.782439113738178"><ele>9.166666666666666</ele><time>2026-04-12T12:14:17.959Z</time></trkpt><trkpt lat="45.34630993714532" lon="13.782331959326703"><ele>9.333333333333334</ele><time>2026-04-12T12:14:18.959Z</time></trkpt><trkpt lat="45.34635468899255" lon="13.782242538060345"><ele>9.5</ele><time>2026-04-12T12:14:19.959Z</time></trkpt><trkpt lat="45.34638296928862" lon="13.782139540514521"><ele>9.666666666666668</ele><time>2026-04-12T12:14:20.959Z</time></trkpt><trkpt lat="45.34641816025547" lon="13.78205942331132"><ele>9.833333333333334</ele><time>2026-04-12T12:14:21.959Z</time></trkpt><trkpt lat="45.346449613056805" lon="13.781977342665378"><ele>10.0</ele><time>2026-04-12T12:14:22.959Z</time></trkpt><trkpt lat="45.34648861462104" lon="13.781883175538646"><ele>10.333333333333334</ele><time>2026-04-12T12:14:23.959Z</time></trkpt><trkpt lat="45.3465254967017" lon="13.78180855304279"><ele>10.666666666666668</ele><time>2026-04-12T12:14:24.959Z</time></trkpt><trkpt lat="45.34658747247983" lon="13.781616662500005"><ele>11.0</ele><time>2026-04-12T12:14:26.959Z</time></trkpt><trkpt lat="45.34662939115899" lon="13.781515518044557"><ele>11.333333333333334</ele><time>2026-04-12T12:14:27.959Z</time></trkpt><trkpt lat="45.34665501679543" lon="13.781427236899477"><ele>11.666666666666666</ele><time>2026-04-12T12:14:28.959Z</time></trkpt><trkpt lat="45.346702543569606" lon="13.781345205274942"><ele>12.0</ele><time>2026-04-12T12:14:29.959Z</time></trkpt><trkpt lat="45.34674316421907" lon="13.781245731817764"><ele>12.0</ele><time>2026-04-12T12:14:30.959Z</time></trkpt><trkpt lat="45.34678112661784" lon="13.781155937701469"><ele>12.0</ele><time>2026-04-12T12:14:31.959Z</time></trkpt><trkpt lat="45.34681854073751" lon="13.781064982258107"><ele>12.0</ele><time>2026-04-12T12:14:32.959Z</time></trkpt><trkpt lat="45.34685371284564" lon="13.780978930816245"><ele>12.0</ele><time>2026-04-12T12:14:33.959Z</time></trkpt><trkpt lat="45.34690441503417" lon="13.780834638349754"><ele>12.0</ele><time>2026-04-12T12:14:35.959Z</time></trkpt><trkpt lat="45.34694367919924" lon="13.780732685819252"><ele>12.0</ele><time>2026-04-12T12:14:36.959Z</time></trkpt><trkpt lat="45.34698583770679" lon="13.780633951406216"><ele>12.6</ele><time>2026-04-12T12:14:37.959Z</time></trkpt><trkpt lat="45.347028176088045" lon="13.780509344135144"><ele>13.2</ele><time>2026-04-12T12:14:38.959Z</time></trkpt><trkpt lat="45.3470518577415" lon="13.780375892037629"><ele>13.8</ele><time>2026-04-12T12:14:39.959Z</time></trkpt><trkpt lat="45.347088491831215" lon="13.780269097635303"><ele>14.4</ele><time>2026-04-12T12:14:40.959Z</time></trkpt><trkpt lat="45.347141449709845" lon="13.780164379549857"><ele>15.0</ele><time>2026-04-12T12:14:41.959Z</time></trkpt><trkpt lat="45.34719087754025" lon="13.78005940617681"><ele>13.8</ele><time>2026-04-12T12:14:42.959Z</time></trkpt><trkpt lat="45.34721876604447" lon="13.779954056679902"><ele>12.6</ele><time>2026-04-12T12:14:43.959Z</time></trkpt><trkpt lat="45.34725702353548" lon="13.779853893333978"><ele>11.4</ele><time>2026-04-12T12:14:44.959Z</time></trkpt><trkpt lat="45.34729181054263" lon="13.77976983927197"><ele>10.2</ele><time>2026-04-12T12:14:45.959Z</time></trkpt><trkpt lat="45.34729849495706" lon="13.779625635186713"><ele>9.0</ele><time>2026-04-12T12:14:47.959Z</time></trkpt><trkpt lat="45.347349547961976" lon="13.779468121915588"><ele>9.6</ele><time>2026-04-12T12:14:49.959Z</time></trkpt><trkpt lat="45.34741509471574" lon="13.77930442052575"><ele>10.2</ele><time>2026-04-12T12:14:51.959Z</time></trkpt><trkpt lat="45.347443739882365" lon="13.779190039455855"><ele>10.799999999999999</ele><time>2026-04-12T12:14:52.959Z</time></trkpt><trkpt lat="45.34748042924935" lon="13.779075140603956"><ele>11.4</ele><time>2026-04-12T12:14:53.959Z</time></trkpt><trkpt lat="45.34752678165856" lon="13.778960172826677"><ele>12.0</ele><time>2026-04-12T12:14:54.959Z</time></trkpt><trkpt lat="45.34755300178462" lon="13.778853065048377"><ele>12.0</ele><time>2026-04-12T12:14:55.959Z</time></trkpt><trkpt lat="45.34758953443814" lon="13.778738051455807"><ele>12.0</ele><time>2026-04-12T12:14:56.959Z</time></trkpt><trkpt lat="45.347618767500514" lon="13.778625255338584"><ele>12.0</ele><time>2026-04-12T12:14:57.959Z</time></trkpt><trkpt lat="45.347660211945005" lon="13.7785158366606"><ele>12.0</ele><time>2026-04-12T12:14:58.959Z</time></trkpt><trkpt lat="45.347706562391416" lon="13.778389744354422"><ele>12.0</ele><time>2026-04-12T12:14:59.959Z</time></trkpt><trkpt lat="45.34775633741416" lon="13.77826130072742"><ele>12.166666666666666</ele><time>2026-04-12T12:15:00.959Z</time></trkpt><trkpt lat="45.34779693341595" lon="13.778134476608605"><ele>12.333333333333332</ele><time>2026-04-12T12:15:01.959Z</time></trkpt><trkpt lat="45.347849880674254" lon="13.778011003787853"><ele>12.5</ele><time>2026-04-12T12:15:02.958Z</time></trkpt><trkpt lat="45.34789091118501" lon="13.777897885838936"><ele>12.666666666666666</ele><time>2026-04-12T12:15:03.959Z</time></trkpt><trkpt lat="45.34791976916124" lon="13.777792602661197"><ele>12.833333333333332</ele><time>2026-04-12T12:15:04.959Z</time></trkpt><trkpt lat="45.347943292940094" lon="13.777685169152878"><ele>13.0</ele><time>2026-04-12T12:15:05.958Z</time></trkpt><trkpt lat="45.34797858523657" lon="13.777580904099873"><ele>13.499999999999998</ele><time>2026-04-12T12:15:06.959Z</time></trkpt><trkpt lat="45.348031489163134" lon="13.777487392549956"><ele>14.0</ele><time>2026-04-12T12:15:07.959Z</time></trkpt><trkpt lat="45.348085231846305" lon="13.777385937974046"><ele>14.5</ele><time>2026-04-12T12:15:08.958Z</time></trkpt><trkpt lat="45.3481382311408" lon="13.777296193906828"><ele>15.0</ele><time>2026-04-12T12:15:09.959Z</time></trkpt><trkpt lat="45.34818487702855" lon="13.777193001615663"><ele>15.499999999999998</ele><time>2026-04-12T12:15:10.959Z</time></trkpt><trkpt lat="45.34822911256482" lon="13.777100514482783"><ele>16.0</ele><time>2026-04-12T12:15:11.958Z</time></trkpt><trkpt lat="45.348269513927114" lon="13.776987415466374"><ele>15.0</ele><time>2026-04-12T12:15:12.959Z</time></trkpt><trkpt lat="45.34831840132382" lon="13.77686481303052"><ele>14.000000000000002</ele><time>2026-04-12T12:15:13.959Z</time></trkpt><trkpt lat="45.348378295835225" lon="13.776734413459899"><ele>13.0</ele><time>2026-04-12T12:15:14.959Z</time></trkpt><trkpt lat="45.34845658781105" lon="13.776597834204777"><ele>12.0</ele><time>2026-04-12T12:15:15.959Z</time></trkpt><trkpt lat="45.34849118392326" lon="13.776477158462676"><ele>11.0</ele><time>2026-04-12T12:15:16.959Z</time></trkpt><trkpt lat="45.348510497009634" lon="13.776355354450837"><ele>11.0</ele><time>2026-04-12T12:15:17.959Z</time></trkpt><trkpt lat="45.34853676760457" lon="13.776237595586268"><ele>11.0</ele><time>2026-04-12T12:15:18.959Z</time></trkpt><trkpt lat="45.34856286838967" lon="13.776118566317841"><ele>11.0</ele><time>2026-04-12T12:15:19.959Z</time></trkpt><trkpt lat="45.34863004185354" lon="13.775987845901811"><ele>11.0</ele><time>2026-04-12T12:15:20.959Z</time></trkpt><trkpt lat="45.34868966705063" lon="13.775854474089925"><ele>11.0</ele><time>2026-04-12T12:15:21.959Z</time></trkpt><trkpt lat="45.34874271978651" lon="13.775710617331567"><ele>10.4</ele><time>2026-04-12T12:15:22.959Z</time></trkpt><trkpt lat="45.348792530562655" lon="13.775579491778679"><ele>9.8</ele><time>2026-04-12T12:15:23.959Z</time></trkpt><trkpt lat="45.348845158251876" lon="13.775451001000778"><ele>9.200000000000001</ele><time>2026-04-12T12:15:24.959Z</time></trkpt><trkpt lat="45.348899586224846" lon="13.775325771948111"><ele>8.600000000000001</ele><time>2026-04-12T12:15:25.959Z</time></trkpt><trkpt lat="45.34894663597021" lon="13.77519433060103"><ele>8.0</ele><time>2026-04-12T12:15:26.959Z</time></trkpt><trkpt lat="45.348995287162715" lon="13.775082865859027"><ele>8.0</ele><time>2026-04-12T12:15:27.959Z</time></trkpt><trkpt lat="45.349033603836794" lon="13.774994976919638"><ele>7.999999999999999</ele><time>2026-04-12T12:15:28.959Z</time></trkpt><trkpt lat="45.34905014731601" lon="13.774891373268979"><ele>8.0</ele><time>2026-04-12T12:15:30.959Z</time></trkpt><trkpt lat="45.349089885104554" lon="13.77480981638866"><ele>8.0</ele><time>2026-04-12T12:15:39.959Z</time></trkpt><trkpt lat="45.3491303433203" lon="13.774735320873889"><ele>7.999999999999999</ele><time>2026-04-12T12:15:41.959Z</time></trkpt><trkpt lat="45.349155235187446" lon="13.774646313055054"><ele>8.0</ele><time>2026-04-12T12:15:43.959Z</time></trkpt><trkpt lat="45.3491965359884" lon="13.7745526240188"><ele>8.0</ele><time>2026-04-12T12:15:45.959Z</time></trkpt><trkpt lat="45.34924007406116" lon="13.774428869476452"><ele>8.833333333333332</ele><time>2026-04-12T12:15:47.959Z</time></trkpt><trkpt lat="45.349267325123236" lon="13.7743397104103"><ele>9.666666666666666</ele><time>2026-04-12T12:15:48.959Z</time></trkpt><trkpt lat="45.34929576169835" lon="13.774252375551638"><ele>10.5</ele><time>2026-04-12T12:15:49.959Z</time></trkpt><trkpt lat="45.349322072725016" lon="13.774160263616796"><ele>11.333333333333332</ele><time>2026-04-12T12:15:50.959Z</time></trkpt><trkpt lat="45.349358035726354" lon="13.774046219659159"><ele>12.166666666666666</ele><time>2026-04-12T12:15:51.959Z</time></trkpt><trkpt lat="45.34941204304875" lon="13.773920487057168"><ele>13.0</ele><time>2026-04-12T12:15:52.959Z</time></trkpt><trkpt lat="45.349478693840155" lon="13.773778988379524"><ele>13.0</ele><time>2026-04-12T12:15:53.959Z</time></trkpt><trkpt lat="45.349524169136984" lon="13.77363752731855"><ele>13.0</ele><time>2026-04-12T12:15:54.959Z</time></trkpt><trkpt lat="45.34957219693323" lon="13.773499427557232"><ele>13.0</ele><time>2026-04-12T12:15:55.959Z</time></trkpt><trkpt lat="45.34962051543555" lon="13.773363368932246"><ele>13.0</ele><time>2026-04-12T12:15:56.959Z</time></trkpt><trkpt lat="45.3496612874549" lon="13.773217414996777"><ele>13.0</ele><time>2026-04-12T12:15:57.959Z</time></trkpt><trkpt lat="45.34971959482332" lon="13.773094961373088"><ele>12.25</ele><time>2026-04-12T12:15:58.959Z</time></trkpt><trkpt lat="45.349768466192494" lon="13.77294746046049"><ele>11.5</ele><time>2026-04-12T12:15:59.959Z</time></trkpt><trkpt lat="45.34982058291187" lon="13.772797933389167"><ele>10.75</ele><time>2026-04-12T12:16:00.959Z</time></trkpt><trkpt lat="45.34988226279454" lon="13.77266457461413"><ele>10.0</ele><time>2026-04-12T12:16:01.959Z</time></trkpt><trkpt lat="45.34994492978723" lon="13.772539218328133"><ele>10.0</ele><time>2026-04-12T12:16:02.959Z</time></trkpt><trkpt lat="45.35000209811381" lon="13.772391082842564"><ele>10.0</ele><time>2026-04-12T12:16:03.959Z</time></trkpt><trkpt lat="45.35005835115925" lon="13.772243497059339"><ele>10.0</ele><time>2026-04-12T12:16:04.959Z</time></trkpt><trkpt lat="45.35011398392419" lon="13.772093763880362"><ele>10.0</ele><time>2026-04-12T12:16:05.959Z</time></trkpt><trkpt lat="45.350161757843786" lon="13.77193702630138"><ele>10.5</ele><time>2026-04-12T12:16:06.959Z</time></trkpt><trkpt lat="45.350212034590925" lon="13.771784082878284"><ele>11.0</ele><time>2026-04-12T12:16:07.959Z</time></trkpt><trkpt lat="45.350263991242194" lon="13.771618210767448"><ele>11.5</ele><time>2026-04-12T12:16:08.959Z</time></trkpt><trkpt lat="45.35031558381444" lon="13.7714666498623"><ele>12.0</ele><time>2026-04-12T12:16:09.959Z</time></trkpt><trkpt lat="45.35036294679282" lon="13.771310453061082"><ele>12.0</ele><time>2026-04-12T12:16:10.959Z</time></trkpt><trkpt lat="45.3503997741557" lon="13.771176394866618"><ele>12.0</ele><time>2026-04-12T12:16:11.959Z</time></trkpt><trkpt lat="45.35043327675373" lon="13.771034967972124"><ele>12.0</ele><time>2026-04-12T12:16:12.959Z</time></trkpt><trkpt lat="45.35046724324897" lon="13.77086654033778"><ele>12.0</ele><time>2026-04-12T12:16:13.959Z</time></trkpt><trkpt lat="45.35050582105864" lon="13.770702703502582"><ele>12.25</ele><time>2026-04-12T12:16:14.959Z</time></trkpt><trkpt lat="45.35054092718633" lon="13.770503234848878"><ele>12.5</ele><time>2026-04-12T12:16:15.959Z</time></trkpt><trkpt lat="45.350564142222275" lon="13.770307408362976"><ele>12.75</ele><time>2026-04-12T12:16:16.959Z</time></trkpt><trkpt lat="45.35059045716797" lon="13.770125370121566"><ele>13.0</ele><time>2026-04-12T12:16:17.959Z</time></trkpt><trkpt lat="45.35060988831514" lon="13.769938120824964"><ele>11.75</ele><time>2026-04-12T12:16:18.959Z</time></trkpt><trkpt lat="45.35063020020983" lon="13.769746601459957"><ele>10.5</ele><time>2026-04-12T12:16:19.959Z</time></trkpt><trkpt lat="45.35063441907324" lon="13.76956237287807"><ele>9.25</ele><time>2026-04-12T12:16:20.959Z</time></trkpt><trkpt lat="45.3506378690223" lon="13.769383028360522"><ele>8.0</ele><time>2026-04-12T12:16:21.959Z</time></trkpt><trkpt lat="45.35064739031031" lon="13.7692102563804"><ele>8.0</ele><time>2026-04-12T12:16:22.959Z</time></trkpt><trkpt lat="45.350649022437274" lon="13.76903430338269"><ele>8.0</ele><time>2026-04-12T12:16:23.959Z</time></trkpt><trkpt lat="45.350631399543" lon="13.76886814551444"><ele>8.0</ele><time>2026-04-12T12:16:24.959Z</time></trkpt><trkpt lat="45.3506223945005" lon="13.76869821490249"><ele>8.0</ele><time>2026-04-12T12:16:25.959Z</time></trkpt><trkpt lat="45.35060236624346" lon="13.7685389565357"><ele>7.833333333333333</ele><time>2026-04-12T12:16:26.959Z</time></trkpt><trkpt lat="45.35058052201342" lon="13.768404860390334"><ele>7.666666666666666</ele><time>2026-04-12T12:16:27.959Z</time></trkpt><trkpt lat="45.35057984903237" lon="13.768299980196343"><ele>7.5</ele><time>2026-04-12T12:16:28.959Z</time></trkpt><trkpt lat="45.350577426830945" lon="13.768189215589004"><ele>7.333333333333334</ele><time>2026-04-12T12:16:30.959Z</time></trkpt><trkpt lat="45.35056253977523" lon="13.76806710409451"><ele>7.166666666666667</ele><time>2026-04-12T12:16:32.959Z</time></trkpt><trkpt lat="45.35054851732616" lon="13.7679623602326"><ele>7.0</ele><time>2026-04-12T12:16:33.959Z</time></trkpt><trkpt lat="45.35053260075234" lon="13.767840145441435"><ele>11.8</ele><time>2026-04-12T12:16:34.959Z</time></trkpt><trkpt lat="45.35052388576124" lon="13.767691391755852"><ele>16.6</ele><time>2026-04-12T12:16:35.959Z</time></trkpt><trkpt lat="45.35050950451632" lon="13.767553798073521"><ele>21.400000000000002</ele><time>2026-04-12T12:16:36.959Z</time></trkpt><trkpt lat="45.3504965473281" lon="13.76742343037056"><ele>26.2</ele><time>2026-04-12T12:16:37.959Z</time></trkpt><trkpt lat="45.35049007289385" lon="13.767288299831023"><ele>31.0</ele><time>2026-04-12T12:16:38.959Z</time></trkpt><trkpt lat="45.35047668510388" lon="13.767151651022182"><ele>31.0</ele><time>2026-04-12T12:16:39.959Z</time></trkpt><trkpt lat="45.35046062071822" lon="13.767033117429985"><ele>31.0</ele><time>2026-04-12T12:16:40.959Z</time></trkpt><trkpt lat="45.3504478121795" lon="13.76691504631341"><ele>31.0</ele><time>2026-04-12T12:16:41.959Z</time></trkpt><trkpt lat="45.3504368540472" lon="13.766806189840691"><ele>31.0</ele><time>2026-04-12T12:16:42.959Z</time></trkpt><trkpt lat="45.35044551262052" lon="13.766638419633031"><ele>31.0</ele><time>2026-04-12T12:16:44.959Z</time></trkpt><trkpt lat="45.35044145500196" lon="13.766468269099521"><ele>30.8</ele><time>2026-04-12T12:16:46.959Z</time></trkpt><trkpt lat="45.350436742154116" lon="13.766353402696302"><ele>30.6</ele><time>2026-04-12T12:16:47.959Z</time></trkpt><trkpt lat="45.35042112333415" lon="13.766236687121001"><ele>30.4</ele><time>2026-04-12T12:16:48.959Z</time></trkpt><trkpt lat="45.350411496665096" lon="13.766092730762336"><ele>30.2</ele><time>2026-04-12T12:16:49.959Z</time></trkpt><trkpt lat="45.35039699238486" lon="13.765963954207255"><ele>30.0</ele><time>2026-04-12T12:16:50.959Z</time></trkpt><trkpt lat="45.3503786122807" lon="13.765815911859983"><ele>28.5</ele><time>2026-04-12T12:16:51.959Z</time></trkpt><trkpt lat="45.35036530400195" lon="13.765681414141312"><ele>27.0</ele><time>2026-04-12T12:16:52.959Z</time></trkpt><trkpt lat="45.35036026903288" lon="13.765575923004118"><ele>25.5</ele><time>2026-04-12T12:16:53.959Z</time></trkpt><trkpt lat="45.35033117070338" lon="13.765471019095916"><ele>24.0</ele><time>2026-04-12T12:16:54.959Z</time></trkpt><trkpt lat="45.350310209842455" lon="13.765379248788888"><ele>22.5</ele><time>2026-04-12T12:16:55.959Z</time></trkpt><trkpt lat="45.35030154715231" lon="13.765289406960596"><ele>21.0</ele><time>2026-04-12T12:16:56.959Z</time></trkpt><trkpt lat="45.35032329859152" lon="13.765188288066389"><ele>20.333333333333332</ele><time>2026-04-12T12:16:57.959Z</time></trkpt><trkpt lat="45.35033998290898" lon="13.76509698494267"><ele>19.666666666666668</ele><time>2026-04-12T12:16:58.959Z</time></trkpt><trkpt lat="45.350339518277586" lon="13.764999593525056"><ele>19.0</ele><time>2026-04-12T12:16:59.959Z</time></trkpt><trkpt lat="45.350326361955524" lon="13.764869204631799"><ele>18.333333333333336</ele><time>2026-04-12T12:17:00.959Z</time></trkpt><trkpt lat="45.350323435686704" lon="13.764702540117733"><ele>17.666666666666668</ele><time>2026-04-12T12:17:01.959Z</time></trkpt><trkpt lat="45.35031848948399" lon="13.764562100745175"><ele>17.0</ele><time>2026-04-12T12:17:02.959Z</time></trkpt><trkpt lat="45.35029634557835" lon="13.764465489634283"><ele>16.6</ele><time>2026-04-12T12:17:03.959Z</time></trkpt><trkpt lat="45.350291747506944" lon="13.764338401338424"><ele>16.2</ele><time>2026-04-12T12:17:04.959Z</time></trkpt><trkpt lat="45.35028979595295" lon="13.764174810511003"><ele>15.8</ele><time>2026-04-12T12:17:05.959Z</time></trkpt><trkpt lat="45.35028104552902" lon="13.764019528058263"><ele>15.4</ele><time>2026-04-12T12:17:06.959Z</time></trkpt><trkpt lat="45.35026680752309" lon="13.763851357652964"><ele>15.0</ele><time>2026-04-12T12:17:07.959Z</time></trkpt><trkpt lat="45.350261646649045" lon="13.763699489693776"><ele>15.0</ele><time>2026-04-12T12:17:08.959Z</time></trkpt><trkpt lat="45.35025525970932" lon="13.76356110648226"><ele>15.0</ele><time>2026-04-12T12:17:09.959Z</time></trkpt><trkpt lat="45.35024170895779" lon="13.763409146254737"><ele>15.0</ele><time>2026-04-12T12:17:10.959Z</time></trkpt><trkpt lat="45.35023120105227" lon="13.763249872287659"><ele>15.0</ele><time>2026-04-12T12:17:11.959Z</time></trkpt><trkpt lat="45.35022118829105" lon="13.763096842436536"><ele>15.0</ele><time>2026-04-12T12:17:12.959Z</time></trkpt><trkpt lat="45.35021463867466" lon="13.762970929471916"><ele>14.0</ele><time>2026-04-12T12:17:13.959Z</time></trkpt><trkpt lat="45.350198292282045" lon="13.762847053375404"><ele>13.0</ele><time>2026-04-12T12:17:14.959Z</time></trkpt><trkpt lat="45.35018035349791" lon="13.76272100151962"><ele>12.0</ele><time>2026-04-12T12:17:15.959Z</time></trkpt><trkpt lat="45.3501627582552" lon="13.762593223703709"><ele>11.0</ele><time>2026-04-12T12:17:16.959Z</time></trkpt><trkpt lat="45.35015052850814" lon="13.762437818279183"><ele>10.0</ele><time>2026-04-12T12:17:17.959Z</time></trkpt><trkpt lat="45.35014848533709" lon="13.76228364689164"><ele>10.0</ele><time>2026-04-12T12:17:18.959Z</time></trkpt><trkpt lat="45.35013923640418" lon="13.762150089763844"><ele>10.0</ele><time>2026-04-12T12:17:19.959Z</time></trkpt><trkpt lat="45.35011999637559" lon="13.76201042856946"><ele>10.0</ele><time>2026-04-12T12:17:20.959Z</time></trkpt><trkpt lat="45.350105062592064" lon="13.761847488187724"><ele>10.0</ele><time>2026-04-12T12:17:21.959Z</time></trkpt><trkpt lat="45.35009085836293" lon="13.761691367814116"><ele>10.0</ele><time>2026-04-12T12:17:22.959Z</time></trkpt><trkpt lat="45.35008145848901" lon="13.761556844430078"><ele>9.8</ele><time>2026-04-12T12:17:23.959Z</time></trkpt><trkpt lat="45.35008532078446" lon="13.761416590345508"><ele>9.6</ele><time>2026-04-12T12:17:24.959Z</time></trkpt><trkpt lat="45.35006245820038" lon="13.761256767247453"><ele>9.4</ele><time>2026-04-12T12:17:25.959Z</time></trkpt><trkpt lat="45.350047035545174" lon="13.761098377979279"><ele>9.2</ele><time>2026-04-12T12:17:26.959Z</time></trkpt><trkpt lat="45.35003432462406" lon="13.760951647975345"><ele>9.0</ele><time>2026-04-12T12:17:27.959Z</time></trkpt><trkpt lat="45.350024543794426" lon="13.7608307243169"><ele>8.6</ele><time>2026-04-12T12:17:28.959Z</time></trkpt><trkpt lat="45.35000944885844" lon="13.76070597064916"><ele>8.2</ele><time>2026-04-12T12:17:29.959Z</time></trkpt><trkpt lat="45.349986529523136" lon="13.760564930795052"><ele>7.799999999999999</ele><time>2026-04-12T12:17:30.959Z</time></trkpt><trkpt lat="45.34998307297474" lon="13.760433903017299"><ele>7.3999999999999995</ele><time>2026-04-12T12:17:31.959Z</time></trkpt><trkpt lat="45.349984089887094" lon="13.76029278067371"><ele>7.0</ele><time>2026-04-12T12:17:32.959Z</time></trkpt><trkpt lat="45.349968742612425" lon="13.76014361958572"><ele>6.8</ele><time>2026-04-12T12:17:33.959Z</time></trkpt><trkpt lat="45.34995092323055" lon="13.760000947977531"><ele>6.6</ele><time>2026-04-12T12:17:34.959Z</time></trkpt><trkpt lat="45.349948760557254" lon="13.759857228492967"><ele>6.3999999999999995</ele><time>2026-04-12T12:17:35.959Z</time></trkpt><trkpt lat="45.34995128171122" lon="13.759714060697139"><ele>6.199999999999999</ele><time>2026-04-12T12:17:36.959Z</time></trkpt><trkpt lat="45.34995870920087" lon="13.759562604825115"><ele>6.0</ele><time>2026-04-12T12:17:37.959Z</time></trkpt><trkpt lat="45.349965180701744" lon="13.759405365553345"><ele>5.8</ele><time>2026-04-12T12:17:38.959Z</time></trkpt><trkpt lat="45.34997261833565" lon="13.75926151215435"><ele>5.6</ele><time>2026-04-12T12:17:39.959Z</time></trkpt><trkpt lat="45.34999092645315" lon="13.759102200250272"><ele>5.4</ele><time>2026-04-12T12:17:40.959Z</time></trkpt><trkpt lat="45.3500008869315" lon="13.758961117451035"><ele>5.2</ele><time>2026-04-12T12:17:41.959Z</time></trkpt><trkpt lat="45.35002718470586" lon="13.758811064337506"><ele>5.0</ele><time>2026-04-12T12:17:42.959Z</time></trkpt><trkpt lat="45.35005099360189" lon="13.758655543552123"><ele>5.4</ele><time>2026-04-12T12:17:43.959Z</time></trkpt><trkpt lat="45.35007083516507" lon="13.758514865047152"><ele>5.8</ele><time>2026-04-12T12:17:44.959Z</time></trkpt><trkpt lat="45.3501103046175" lon="13.758366159391564"><ele>6.199999999999999</ele><time>2026-04-12T12:17:45.959Z</time></trkpt><trkpt lat="45.35015440114061" lon="13.758212343981574"><ele>6.6</ele><time>2026-04-12T12:17:46.959Z</time></trkpt><trkpt lat="45.350186684074664" lon="13.758070457874771"><ele>7.0</ele><time>2026-04-12T12:17:47.959Z</time></trkpt><trkpt lat="45.350233047008565" lon="13.757915314118442"><ele>7.0</ele><time>2026-04-12T12:17:48.959Z</time></trkpt><trkpt lat="45.35028325568149" lon="13.757755768392938"><ele>6.999999999999999</ele><time>2026-04-12T12:17:49.959Z</time></trkpt><trkpt lat="45.35032220960221" lon="13.757615549789335"><ele>6.999999999999999</ele><time>2026-04-12T12:17:50.959Z</time></trkpt><trkpt lat="45.350364754267815" lon="13.757484377307312"><ele>7.0</ele><time>2026-04-12T12:17:51.959Z</time></trkpt><trkpt lat="45.35041637817649" lon="13.757372502952023"><ele>7.0</ele><time>2026-04-12T12:17:52.959Z</time></trkpt><trkpt lat="45.350474565162784" lon="13.757263237953303"><ele>7.0</ele><time>2026-04-12T12:17:53.959Z</time></trkpt><trkpt lat="45.35052569150782" lon="13.757130329331831"><ele>7.0</ele><time>2026-04-12T12:17:54.959Z</time></trkpt><trkpt lat="45.350590644264344" lon="13.7569764794469"><ele>7.0</ele><time>2026-04-12T12:17:55.959Z</time></trkpt><trkpt lat="45.35064439491755" lon="13.756838110792017"><ele>7.0</ele><time>2026-04-12T12:17:56.959Z</time></trkpt><trkpt lat="45.350679768405" lon="13.75669602569012"><ele>7.0</ele><time>2026-04-12T12:17:57.959Z</time></trkpt><trkpt lat="45.350719587736634" lon="13.756553832320618"><ele>6.999999999999999</ele><time>2026-04-12T12:17:58.959Z</time></trkpt><trkpt lat="45.35076144482241" lon="13.756426654475232"><ele>6.999999999999999</ele><time>2026-04-12T12:17:59.959Z</time></trkpt><trkpt lat="45.35081204761294" lon="13.756292732914186"><ele>7.0</ele><time>2026-04-12T12:18:00.959Z</time></trkpt><trkpt lat="45.35088065300443" lon="13.756159678287876"><ele>7.0</ele><time>2026-04-12T12:18:01.959Z</time></trkpt><trkpt lat="45.35092455039533" lon="13.756037985024328"><ele>7.0</ele><time>2026-04-12T12:18:02.959Z</time></trkpt><trkpt lat="45.35097716367059" lon="13.755918511714945"><ele>6.999999999999999</ele><time>2026-04-12T12:18:03.959Z</time></trkpt><trkpt lat="45.35104346005339" lon="13.755781677040664"><ele>6.999999999999999</ele><time>2026-04-12T12:18:04.959Z</time></trkpt><trkpt lat="45.35109581299365" lon="13.755643176552011"><ele>7.0</ele><time>2026-04-12T12:18:05.959Z</time></trkpt><trkpt lat="45.35114749439064" lon="13.755491781796435"><ele>7.0</ele><time>2026-04-12T12:18:06.959Z</time></trkpt><trkpt lat="45.35121369340654" lon="13.755335633609107"><ele>7.0</ele><time>2026-04-12T12:18:07.959Z</time></trkpt><trkpt lat="45.35126182747147" lon="13.755208099527646"><ele>7.0</ele><time>2026-04-12T12:18:08.959Z</time></trkpt><trkpt lat="45.35132341310583" lon="13.75504792785956"><ele>7.0</ele><time>2026-04-12T12:18:09.959Z</time></trkpt><trkpt lat="45.35138632218079" lon="13.754912283104224"><ele>7.0</ele><time>2026-04-12T12:18:10.959Z</time></trkpt><trkpt lat="45.351446933508186" lon="13.754774709549743"><ele>6.6</ele><time>2026-04-12T12:18:11.959Z</time></trkpt><trkpt lat="45.35150599623678" lon="13.754634886999522"><ele>6.199999999999999</ele><time>2026-04-12T12:18:12.959Z</time></trkpt><trkpt lat="45.351555572753114" lon="13.754490209709726"><ele>5.8</ele><time>2026-04-12T12:18:13.959Z</time></trkpt><trkpt lat="45.35160989104135" lon="13.754349834643604"><ele>5.4</ele><time>2026-04-12T12:18:14.959Z</time></trkpt><trkpt lat="45.351639799104994" lon="13.75422951816082"><ele>5.0</ele><time>2026-04-12T12:18:15.959Z</time></trkpt><trkpt lat="45.351685894547174" lon="13.75412391290253"><ele>6.0</ele><time>2026-04-12T12:18:16.959Z</time></trkpt><trkpt lat="45.35173053183217" lon="13.754040516866715"><ele>7.0</ele><time>2026-04-12T12:18:17.959Z</time></trkpt><trkpt lat="45.351793182564855" lon="13.753925667872759"><ele>8.0</ele><time>2026-04-12T12:18:18.959Z</time></trkpt><trkpt lat="45.35184270241861" lon="13.753782940070645"><ele>9.0</ele><time>2026-04-12T12:18:19.959Z</time></trkpt><trkpt lat="45.35188762906044" lon="13.753605216764267"><ele>10.0</ele><time>2026-04-12T12:18:20.959Z</time></trkpt><trkpt lat="45.35193923972932" lon="13.753447880944293"><ele>9.0</ele><time>2026-04-12T12:18:21.959Z</time></trkpt><trkpt lat="45.35199403575692" lon="13.753301309644312"><ele>8.0</ele><time>2026-04-12T12:18:22.959Z</time></trkpt><trkpt lat="45.35208436489446" lon="13.753144858691721"><ele>7.0</ele><time>2026-04-12T12:18:23.959Z</time></trkpt><trkpt lat="45.35215409106841" lon="13.753004765973666"><ele>6.0</ele><time>2026-04-12T12:18:24.959Z</time></trkpt><trkpt lat="45.35221052768175" lon="13.752870866313467"><ele>6.0</ele><time>2026-04-12T12:18:25.959Z</time></trkpt><trkpt lat="45.3522735190638" lon="13.75271703691139"><ele>6.0</ele><time>2026-04-12T12:18:26.959Z</time></trkpt><trkpt lat="45.35230572133045" lon="13.752563282013746"><ele>6.0</ele><time>2026-04-12T12:18:27.959Z</time></trkpt><trkpt lat="45.352333958729496" lon="13.752432010492962"><ele>6.0</ele><time>2026-04-12T12:18:28.959Z</time></trkpt><trkpt lat="45.352366343786485" lon="13.752318424510847"><ele>6.0</ele><time>2026-04-12T12:18:29.959Z</time></trkpt><trkpt lat="45.35236955759931" lon="13.75221719081422"><ele>6.199999999999999</ele><time>2026-04-12T12:18:30.959Z</time></trkpt><trkpt lat="45.352383184546326" lon="13.752124734144433"><ele>6.3999999999999995</ele><time>2026-04-12T12:18:31.959Z</time></trkpt><trkpt lat="45.352378664724625" lon="13.751996246192963"><ele>6.6</ele><time>2026-04-12T12:18:32.959Z</time></trkpt><trkpt lat="45.352381369567155" lon="13.751852859585593"><ele>6.8</ele><time>2026-04-12T12:18:33.959Z</time></trkpt><trkpt lat="45.35236824975727" lon="13.751687103572525"><ele>7.0</ele><time>2026-04-12T12:18:34.959Z</time></trkpt><trkpt lat="45.35235289033645" lon="13.751521101023167"><ele>7.0</ele><time>2026-04-12T12:18:35.959Z</time></trkpt><trkpt lat="45.35234682443224" lon="13.751333109059042"><ele>7.0</ele><time>2026-04-12T12:18:36.959Z</time></trkpt><trkpt lat="45.352342394057565" lon="13.751136388561365"><ele>7.0</ele><time>2026-04-12T12:18:37.959Z</time></trkpt><trkpt lat="45.35232040718617" lon="13.750962911460153"><ele>7.0</ele><time>2026-04-12T12:18:38.959Z</time></trkpt><trkpt lat="45.35230361051695" lon="13.750815409143089"><ele>7.0</ele><time>2026-04-12T12:18:39.959Z</time></trkpt><trkpt lat="45.35229006993338" lon="13.750678837641736"><ele>6.999999999999999</ele><time>2026-04-12T12:18:40.959Z</time></trkpt><trkpt lat="45.35228569210265" lon="13.750524805863398"><ele>6.999999999999999</ele><time>2026-04-12T12:18:41.959Z</time></trkpt><trkpt lat="45.35229204765014" lon="13.750353728851838"><ele>7.0</ele><time>2026-04-12T12:18:42.959Z</time></trkpt><trkpt lat="45.352291148231735" lon="13.7501830628094"><ele>7.0</ele><time>2026-04-12T12:18:43.959Z</time></trkpt><trkpt lat="45.35228655318242" lon="13.750018012109555"><ele>7.3999999999999995</ele><time>2026-04-12T12:18:44.959Z</time></trkpt><trkpt lat="45.35229972044812" lon="13.749870353437604"><ele>7.799999999999999</ele><time>2026-04-12T12:18:45.959Z</time></trkpt><trkpt lat="45.352305604670434" lon="13.749722200741186"><ele>8.2</ele><time>2026-04-12T12:18:46.959Z</time></trkpt><trkpt lat="45.352326104159246" lon="13.749545907940178"><ele>8.6</ele><time>2026-04-12T12:18:47.959Z</time></trkpt><trkpt lat="45.35233923429319" lon="13.749388180597885"><ele>9.0</ele><time>2026-04-12T12:18:48.959Z</time></trkpt><trkpt lat="45.35235085367697" lon="13.74925458621562"><ele>9.0</ele><time>2026-04-12T12:18:49.959Z</time></trkpt><trkpt lat="45.35237838021872" lon="13.749115432948042"><ele>9.0</ele><time>2026-04-12T12:18:50.959Z</time></trkpt><trkpt lat="45.35241213265444" lon="13.748987792746915"><ele>9.0</ele><time>2026-04-12T12:18:51.959Z</time></trkpt><trkpt lat="45.3524341404264" lon="13.748876641201019"><ele>9.0</ele><time>2026-04-12T12:18:52.959Z</time></trkpt><trkpt lat="45.35244575653324" lon="13.748759862288392"><ele>9.0</ele><time>2026-04-12T12:18:53.959Z</time></trkpt><trkpt lat="45.35247180970731" lon="13.748653020050119"><ele>9.0</ele><time>2026-04-12T12:18:54.959Z</time></trkpt><trkpt lat="45.352511722946055" lon="13.748523912931642"><ele>9.25</ele><time>2026-04-12T12:18:55.959Z</time></trkpt><trkpt lat="45.35255509577256" lon="13.748370611650751"><ele>9.5</ele><time>2026-04-12T12:18:56.959Z</time></trkpt><trkpt lat="45.35260617531032" lon="13.748217117688437"><ele>9.75</ele><time>2026-04-12T12:18:57.959Z</time></trkpt><trkpt lat="45.35267187310047" lon="13.748084238726264"><ele>10.0</ele><time>2026-04-12T12:18:58.959Z</time></trkpt><trkpt lat="45.352731448751534" lon="13.747949156555766"><ele>10.0</ele><time>2026-04-12T12:18:59.959Z</time></trkpt><trkpt lat="45.352781183668206" lon="13.747815120924567"><ele>10.0</ele><time>2026-04-12T12:19:00.959Z</time></trkpt><trkpt lat="45.35282461815161" lon="13.74768041682179"><ele>10.0</ele><time>2026-04-12T12:19:01.959Z</time></trkpt><trkpt lat="45.35287668665755" lon="13.747547754618466"><ele>10.0</ele><time>2026-04-12T12:19:02.959Z</time></trkpt><trkpt lat="45.35294096851483" lon="13.747431647846977"><ele>10.0</ele><time>2026-04-12T12:19:03.959Z</time></trkpt><trkpt lat="45.353019292104385" lon="13.747292254866329"><ele>9.6</ele><time>2026-04-12T12:19:04.959Z</time></trkpt><trkpt lat="45.35306043987303" lon="13.747158933623972"><ele>9.2</ele><time>2026-04-12T12:19:05.959Z</time></trkpt><trkpt lat="45.35309659450892" lon="13.747019455231808"><ele>8.8</ele><time>2026-04-12T12:19:06.959Z</time></trkpt><trkpt lat="45.35316798820556" lon="13.746870117190811"><ele>8.4</ele><time>2026-04-12T12:19:07.959Z</time></trkpt><trkpt lat="45.35321497599861" lon="13.746755526846886"><ele>8.0</ele><time>2026-04-12T12:19:08.959Z</time></trkpt><trkpt lat="45.3532568423524" lon="13.746643558812616"><ele>8.0</ele><time>2026-04-12T12:19:09.959Z</time></trkpt><trkpt lat="45.35330072514853" lon="13.746547302332823"><ele>8.0</ele><time>2026-04-12T12:19:10.959Z</time></trkpt><trkpt lat="45.35334433513533" lon="13.746450449924826"><ele>8.0</ele><time>2026-04-12T12:19:11.96Z</time></trkpt><trkpt lat="45.35338502550319" lon="13.746341926871212"><ele>8.0</ele><time>2026-04-12T12:19:12.959Z</time></trkpt><trkpt lat="45.353439951430836" lon="13.746214303887333"><ele>8.0</ele><time>2026-04-12T12:19:13.959Z</time></trkpt><trkpt lat="45.35348661018851" lon="13.746074709248811"><ele>9.5</ele><time>2026-04-12T12:19:14.96Z</time></trkpt><trkpt lat="45.35354122854744" lon="13.745927830089988"><ele>11.0</ele><time>2026-04-12T12:19:15.96Z</time></trkpt><trkpt lat="45.3536085337994" lon="13.745769037568593"><ele>12.5</ele><time>2026-04-12T12:19:16.96Z</time></trkpt><trkpt lat="45.35366697199462" lon="13.745633886207456"><ele>14.0</ele><time>2026-04-12T12:19:17.96Z</time></trkpt><trkpt lat="45.35372385756727" lon="13.745507373991847"><ele>14.0</ele><time>2026-04-12T12:19:18.96Z</time></trkpt><trkpt lat="45.353776160567385" lon="13.745365019168277"><ele>14.0</ele><time>2026-04-12T12:19:19.96Z</time></trkpt><trkpt lat="45.353831932186104" lon="13.745208243918647"><ele>14.0</ele><time>2026-04-12T12:19:20.96Z</time></trkpt><trkpt lat="45.35386794700836" lon="13.745060331406643"><ele>14.0</ele><time>2026-04-12T12:19:21.96Z</time></trkpt><trkpt lat="45.3539182092472" lon="13.744920924319933"><ele>12.5</ele><time>2026-04-12T12:19:22.96Z</time></trkpt><trkpt lat="45.3539763436929" lon="13.74478470110343"><ele>11.0</ele><time>2026-04-12T12:19:23.959Z</time></trkpt><trkpt lat="45.35402484375532" lon="13.744640310309657"><ele>9.5</ele><time>2026-04-12T12:19:24.96Z</time></trkpt><trkpt lat="45.35408693750846" lon="13.74449757507088"><ele>8.0</ele><time>2026-04-12T12:19:25.96Z</time></trkpt><trkpt lat="45.35415783861148" lon="13.744340327793333"><ele>8.0</ele><time>2026-04-12T12:19:26.96Z</time></trkpt><trkpt lat="45.35421868362565" lon="13.744184496663335"><ele>8.0</ele><time>2026-04-12T12:19:27.96Z</time></trkpt><trkpt lat="45.35428747527848" lon="13.744030322567621"><ele>8.0</ele><time>2026-04-12T12:19:28.96Z</time></trkpt><trkpt lat="45.354361068560735" lon="13.743875440906617"><ele>8.0</ele><time>2026-04-12T12:19:29.96Z</time></trkpt><trkpt lat="45.35443456614345" lon="13.743723243318163"><ele>8.0</ele><time>2026-04-12T12:19:30.96Z</time></trkpt><trkpt lat="45.35450806625292" lon="13.743586370686549"><ele>8.0</ele><time>2026-04-12T12:19:31.96Z</time></trkpt><trkpt lat="45.35457433478214" lon="13.743446011506421"><ele>8.0</ele><time>2026-04-12T12:19:32.96Z</time></trkpt><trkpt lat="45.35464830330294" lon="13.74330913918857"><ele>8.0</ele><time>2026-04-12T12:19:33.96Z</time></trkpt><trkpt lat="45.35471700812314" lon="13.743157592169071"><ele>8.5</ele><time>2026-04-12T12:19:34.96Z</time></trkpt><trkpt lat="45.35477512521139" lon="13.743001446921944"><ele>9.0</ele><time>2026-04-12T12:19:35.96Z</time></trkpt><trkpt lat="45.35485981582244" lon="13.74282273915253"><ele>9.5</ele><time>2026-04-12T12:19:36.96Z</time></trkpt><trkpt lat="45.354959510539054" lon="13.742665118547167"><ele>10.0</ele><time>2026-04-12T12:19:37.96Z</time></trkpt><trkpt lat="45.35502711481335" lon="13.742497847672336"><ele>10.0</ele><time>2026-04-12T12:19:38.96Z</time></trkpt><trkpt lat="45.35510639254277" lon="13.742349141808655"><ele>10.0</ele><time>2026-04-12T12:19:39.96Z</time></trkpt><trkpt lat="45.35517977323749" lon="13.742212441884124"><ele>10.0</ele><time>2026-04-12T12:19:40.96Z</time></trkpt><trkpt lat="45.35524524627427" lon="13.742073956532542"><ele>10.0</ele><time>2026-04-12T12:19:41.96Z</time></trkpt><trkpt lat="45.35531553619386" lon="13.741929321579251"><ele>9.0</ele><time>2026-04-12T12:19:42.96Z</time></trkpt><trkpt lat="45.355400937354716" lon="13.741771502636837"><ele>8.0</ele><time>2026-04-12T12:19:43.96Z</time></trkpt><trkpt lat="45.35547871607298" lon="13.74161535637012"><ele>7.0</ele><time>2026-04-12T12:19:44.96Z</time></trkpt><trkpt lat="45.35554363575812" lon="13.741461483663688"><ele>6.0</ele><time>2026-04-12T12:19:45.96Z</time></trkpt><trkpt lat="45.3556058920622" lon="13.741305020126052"><ele>6.0</ele><time>2026-04-12T12:19:46.96Z</time></trkpt><trkpt lat="45.35567249579812" lon="13.741157439954947"><ele>6.0</ele><time>2026-04-12T12:19:47.96Z</time></trkpt><trkpt lat="45.35575681235884" lon="13.741012945076102"><ele>6.0</ele><time>2026-04-12T12:19:48.96Z</time></trkpt><trkpt lat="45.35583365942194" lon="13.740865958656972"><ele>6.0</ele><time>2026-04-12T12:19:49.96Z</time></trkpt><trkpt lat="45.3558977901703" lon="13.740718604580776"><ele>6.199999999999999</ele><time>2026-04-12T12:19:50.96Z</time></trkpt><trkpt lat="45.35595137848827" lon="13.74057535309724"><ele>6.3999999999999995</ele><time>2026-04-12T12:19:51.96Z</time></trkpt><trkpt lat="45.35601448626396" lon="13.740444222032119"><ele>6.6</ele><time>2026-04-12T12:19:52.96Z</time></trkpt><trkpt lat="45.35608623749537" lon="13.740322751141155"><ele>6.8</ele><time>2026-04-12T12:19:53.96Z</time></trkpt><trkpt lat="45.356160053887216" lon="13.740210569236135"><ele>7.0</ele><time>2026-04-12T12:19:54.96Z</time></trkpt><trkpt lat="45.35623088182026" lon="13.7400893926912"><ele>6.5</ele><time>2026-04-12T12:19:55.96Z</time></trkpt><trkpt lat="45.35630916618469" lon="13.739959127925566"><ele>6.0</ele><time>2026-04-12T12:19:56.96Z</time></trkpt><trkpt lat="45.35638585223658" lon="13.739826483314928"><ele>5.5</ele><time>2026-04-12T12:19:57.96Z</time></trkpt><trkpt lat="45.35644516235921" lon="13.73968938129462"><ele>5.0</ele><time>2026-04-12T12:19:58.96Z</time></trkpt><trkpt lat="45.35650496046972" lon="13.739561336694036"><ele>5.0</ele><time>2026-04-12T12:19:59.96Z</time></trkpt><trkpt lat="45.356565946861714" lon="13.739457094625157"><ele>5.0</ele><time>2026-04-12T12:20:00.96Z</time></trkpt><trkpt lat="45.35662078072827" lon="13.739359640156637"><ele>5.0</ele><time>2026-04-12T12:20:01.96Z</time></trkpt><trkpt lat="45.35666883419773" lon="13.739250266657118"><ele>5.0</ele><time>2026-04-12T12:20:02.96Z</time></trkpt><trkpt lat="45.35672650579315" lon="13.73914497417499"><ele>5.0</ele><time>2026-04-12T12:20:03.96Z</time></trkpt><trkpt lat="45.35677542732567" lon="13.739040192702184"><ele>5.666666666666667</ele><time>2026-04-12T12:20:04.96Z</time></trkpt><trkpt lat="45.35682499082366" lon="13.738936849728853"><ele>6.333333333333334</ele><time>2026-04-12T12:20:05.96Z</time></trkpt><trkpt lat="45.35685138336177" lon="13.738849982494333"><ele>7.0</ele><time>2026-04-12T12:20:06.96Z</time></trkpt><trkpt lat="45.356873173292485" lon="13.738762995860343"><ele>7.666666666666667</ele><time>2026-04-12T12:20:07.96Z</time></trkpt><trkpt lat="45.356908736312725" lon="13.738671914320134"><ele>8.333333333333334</ele><time>2026-04-12T12:20:08.96Z</time></trkpt><trkpt lat="45.356969687618154" lon="13.738519157038882"><ele>9.0</ele><time>2026-04-12T12:20:11.96Z</time></trkpt><trkpt lat="45.35701759932788" lon="13.738437493988162"><ele>9.166666666666666</ele><time>2026-04-12T12:20:12.96Z</time></trkpt><trkpt lat="45.357035089359506" lon="13.738344302316477"><ele>9.333333333333334</ele><time>2026-04-12T12:20:13.96Z</time></trkpt><trkpt lat="45.357040505477116" lon="13.738241424739588"><ele>9.5</ele><time>2026-04-12T12:20:14.96Z</time></trkpt><trkpt lat="45.357038753534994" lon="13.738148280525587"><ele>9.666666666666668</ele><time>2026-04-12T12:20:15.96Z</time></trkpt><trkpt lat="45.356998980492826" lon="13.737992879749282"><ele>9.833333333333334</ele><time>2026-04-12T12:20:17.96Z</time></trkpt><trkpt lat="45.35693777435089" lon="13.73790622208549"><ele>10.0</ele><time>2026-04-12T12:20:19.96Z</time></trkpt><trkpt lat="45.35684052183945" lon="13.737855663983302"><ele>10.0</ele><time>2026-04-12T12:20:21.96Z</time></trkpt><trkpt lat="45.3567360328516" lon="13.737890276755124"><ele>10.0</ele><time>2026-04-12T12:20:23.96Z</time></trkpt><trkpt lat="45.35664027361406" lon="13.737963975030288"><ele>10.0</ele><time>2026-04-12T12:20:25.96Z</time></trkpt><trkpt lat="45.35658706186797" lon="13.738012291012646"><ele>10.0</ele><time>2026-04-12T12:20:26.96Z</time></trkpt><trkpt lat="45.35650293771988" lon="13.7381115966832"><ele>10.0</ele><time>2026-04-12T12:20:28.96Z</time></trkpt><trkpt lat="45.35644256462933" lon="13.738195323858772"><ele>10.0</ele><time>2026-04-12T12:20:30.96Z</time></trkpt><trkpt lat="45.35636068670822" lon="13.73818982310337"><ele>10.0</ele><time>2026-04-12T12:20:33.96Z</time></trkpt><trkpt lat="45.35636054921199" lon="13.738080051528637"><ele>10.0</ele><time>2026-04-12T12:20:36.96Z</time></trkpt><trkpt lat="45.35646584763136" lon="13.737988586926129"><ele>10.0</ele><time>2026-04-12T12:20:38.96Z</time></trkpt><trkpt lat="45.35654071767435" lon="13.73792090198809"><ele>10.0</ele><time>2026-04-12T12:20:39.96Z</time></trkpt><trkpt lat="45.3566395521356" lon="13.737840321219993"><ele>10.0</ele><time>2026-04-12T12:20:40.96Z</time></trkpt><trkpt lat="45.35675189196459" lon="13.737752342218561"><ele>10.0</ele><time>2026-04-12T12:20:41.96Z</time></trkpt><trkpt lat="45.35686089211872" lon="13.737701514474566"><ele>10.0</ele><time>2026-04-12T12:20:42.96Z</time></trkpt><trkpt lat="45.356968522766934" lon="13.73765035655506"><ele>10.0</ele><time>2026-04-12T12:20:43.96Z</time></trkpt><trkpt lat="45.35708253298425" lon="13.737628411892416"><ele>10.0</ele><time>2026-04-12T12:20:44.96Z</time></trkpt><trkpt lat="45.35719642892754" lon="13.737630279411244"><ele>10.0</ele><time>2026-04-12T12:20:45.96Z</time></trkpt><trkpt lat="45.35732042088008" lon="13.737653557145794"><ele>10.0</ele><time>2026-04-12T12:20:46.96Z</time></trkpt><trkpt lat="45.35745032871352" lon="13.737688788258719"><ele>10.0</ele><time>2026-04-12T12:20:47.96Z</time></trkpt><trkpt lat="45.357577425944854" lon="13.73774545264756"><ele>8.8</ele><time>2026-04-12T12:20:48.96Z</time></trkpt><trkpt lat="45.35769333608666" lon="13.737817580593982"><ele>7.6</ele><time>2026-04-12T12:20:49.96Z</time></trkpt><trkpt lat="45.3578032171173" lon="13.737896675657488"><ele>6.4</ele><time>2026-04-12T12:20:50.96Z</time></trkpt><trkpt lat="45.357905657130196" lon="13.737971522443166"><ele>5.2</ele><time>2026-04-12T12:20:51.96Z</time></trkpt><trkpt lat="45.357968996786305" lon="13.738013202685622"><ele>4.0</ele><time>2026-04-12T12:20:52.96Z</time></trkpt><trkpt lat="45.35804192086655" lon="13.7380473365575"><ele>3.9999999999999996</ele><time>2026-04-12T12:20:54.96Z</time></trkpt><trkpt lat="45.358070144875306" lon="13.737935395888904"><ele>4.0</ele><time>2026-04-12T12:20:58.96Z</time></trkpt><trkpt lat="45.3580504709448" lon="13.737846498990194"><ele>4.0</ele><time>2026-04-12T12:20:59.96Z</time></trkpt><trkpt lat="45.358031376377085" lon="13.737670186388767"><ele>4.0</ele><time>2026-04-12T12:21:01.96Z</time></trkpt><trkpt lat="45.35803046060376" lon="13.737575971581837"><ele>3.9999999999999996</ele><time>2026-04-12T12:21:02.96Z</time></trkpt><trkpt lat="45.358059243238706" lon="13.737434690784632"><ele>4.0</ele><time>2026-04-12T12:21:03.96Z</time></trkpt><trkpt lat="45.358093111422995" lon="13.737266948507706"><ele>4.0</ele><time>2026-04-12T12:21:04.96Z</time></trkpt><trkpt lat="45.35811809943325" lon="13.73713074657073"><ele>4.0</ele><time>2026-04-12T12:21:05.96Z</time></trkpt><trkpt lat="45.35814347965249" lon="13.73698336435021"><ele>4.0</ele><time>2026-04-12T12:21:06.96Z</time></trkpt><trkpt lat="45.35816270947047" lon="13.736856943753471"><ele>4.0</ele><time>2026-04-12T12:21:07.96Z</time></trkpt><trkpt lat="45.358181024177554" lon="13.736723158011285"><ele>4.0</ele><time>2026-04-12T12:21:08.96Z</time></trkpt><trkpt lat="45.358191070700215" lon="13.736576956268028"><ele>4.0</ele><time>2026-04-12T12:21:09.96Z</time></trkpt><trkpt lat="45.35819191588595" lon="13.736412002343041"><ele>4.0</ele><time>2026-04-12T12:21:10.96Z</time></trkpt><trkpt lat="45.35818368132722" lon="13.736244340363257"><ele>4.0</ele><time>2026-04-12T12:21:11.96Z</time></trkpt><trkpt lat="45.358157674529465" lon="13.736080300457063"><ele>4.0</ele><time>2026-04-12T12:21:12.96Z</time></trkpt><trkpt lat="45.35812219255451" lon="13.735905417726794"><ele>4.0</ele><time>2026-04-12T12:21:13.96Z</time></trkpt><trkpt lat="45.35807199946914" lon="13.735727834593671"><ele>4.0</ele><time>2026-04-12T12:21:14.96Z</time></trkpt><trkpt lat="45.35804068848511" lon="13.735538940698886"><ele>4.0</ele><time>2026-04-12T12:21:15.96Z</time></trkpt><trkpt lat="45.35798903072221" lon="13.73537700018877"><ele>4.0</ele><time>2026-04-12T12:21:16.96Z</time></trkpt><trkpt lat="45.35793892942377" lon="13.735230432118234"><ele>3.75</ele><time>2026-04-12T12:21:17.961Z</time></trkpt><trkpt lat="45.35789043635286" lon="13.735093096551642"><ele>3.5</ele><time>2026-04-12T12:21:18.96Z</time></trkpt><trkpt lat="45.35782275689765" lon="13.73495546762399"><ele>3.25</ele><time>2026-04-12T12:21:19.96Z</time></trkpt><trkpt lat="45.35778305753274" lon="13.73478689633063"><ele>3.0</ele><time>2026-04-12T12:21:20.961Z</time></trkpt><trkpt lat="45.3577261079799" lon="13.734629557359643"><ele>3.0</ele><time>2026-04-12T12:21:21.96Z</time></trkpt><trkpt lat="45.35767743176868" lon="13.734478162223015"><ele>3.0</ele><time>2026-04-12T12:21:22.96Z</time></trkpt><trkpt lat="45.35762256232644" lon="13.7343250763198"><ele>3.0</ele><time>2026-04-12T12:21:23.96Z</time></trkpt><trkpt lat="45.35757132256379" lon="13.734175905235242"><ele>3.0</ele><time>2026-04-12T12:21:24.961Z</time></trkpt><trkpt lat="45.35751332273813" lon="13.734036124299335"><ele>3.0</ele><time>2026-04-12T12:21:25.961Z</time></trkpt><trkpt lat="45.35747013494494" lon="13.733897561235432"><ele>3.0</ele><time>2026-04-12T12:21:26.961Z</time></trkpt><trkpt lat="45.35744340969116" lon="13.733769086634048"><ele>3.0</ele><time>2026-04-12T12:21:27.96Z</time></trkpt><trkpt lat="45.35742860619557" lon="13.733656697869455"><ele>3.0</ele><time>2026-04-12T12:21:28.96Z</time></trkpt><trkpt lat="45.35742677222698" lon="13.733549432623134"><ele>3.0</ele><time>2026-04-12T12:21:29.961Z</time></trkpt><trkpt lat="45.35742603896915" lon="13.733445692694486"><ele>3.0</ele><time>2026-04-12T12:21:30.96Z</time></trkpt><trkpt lat="45.35741072215608" lon="13.733346435235863"><ele>3.0</ele><time>2026-04-12T12:21:31.96Z</time></trkpt><trkpt lat="45.35741517307988" lon="13.733232873499464"><ele>3.0</ele><time>2026-04-12T12:21:32.96Z</time></trkpt><trkpt lat="45.35743211331478" lon="13.7331217451374"><ele>3.0</ele><time>2026-04-12T12:21:33.96Z</time></trkpt><trkpt lat="45.35746110957016" lon="13.732989659021804"><ele>3.0</ele><time>2026-04-12T12:21:34.96Z</time></trkpt><trkpt lat="45.3575004719823" lon="13.732875710101014"><ele>3.0</ele><time>2026-04-12T12:21:35.96Z</time></trkpt><trkpt lat="45.357516368427255" lon="13.732744412247717"><ele>3.0</ele><time>2026-04-12T12:21:36.96Z</time></trkpt><trkpt lat="45.357534140683164" lon="13.732618821615775"><ele>3.0</ele><time>2026-04-12T12:21:37.96Z</time></trkpt><trkpt lat="45.35754055717762" lon="13.732476161578424"><ele>3.0</ele><time>2026-04-12T12:21:38.96Z</time></trkpt><trkpt lat="45.35755877806383" lon="13.732313489315493"><ele>3.0</ele><time>2026-04-12T12:21:39.96Z</time></trkpt><trkpt lat="45.35754978263021" lon="13.732159459146082"><ele>3.0</ele><time>2026-04-12T12:21:40.96Z</time></trkpt><trkpt lat="45.3575409654634" lon="13.732012622658502"><ele>3.0</ele><time>2026-04-12T12:21:41.96Z</time></trkpt><trkpt lat="45.3575194634549" lon="13.731871931933942"><ele>3.0</ele><time>2026-04-12T12:21:42.96Z</time></trkpt><trkpt lat="45.3574887401531" lon="13.731728161799278"><ele>3.0</ele><time>2026-04-12T12:21:43.96Z</time></trkpt><trkpt lat="45.35745680222607" lon="13.731567650739128"><ele>3.0</ele><time>2026-04-12T12:21:44.96Z</time></trkpt><trkpt lat="45.35740804540829" lon="13.731405005771958"><ele>3.0</ele><time>2026-04-12T12:21:45.96Z</time></trkpt><trkpt lat="45.35735313121181" lon="13.731266079358232"><ele>3.0</ele><time>2026-04-12T12:21:46.96Z</time></trkpt><trkpt lat="45.35728472509543" lon="13.731116736084822"><ele>3.0</ele><time>2026-04-12T12:21:47.96Z</time></trkpt><trkpt lat="45.357215680502414" lon="13.730953344738005"><ele>3.0</ele><time>2026-04-12T12:21:48.96Z</time></trkpt><trkpt lat="45.357141425809864" lon="13.730804896114833"><ele>3.0</ele><time>2026-04-12T12:21:49.96Z</time></trkpt><trkpt lat="45.35709449336294" lon="13.730643623313004"><ele>2.75</ele><time>2026-04-12T12:21:50.96Z</time></trkpt><trkpt lat="45.35703965873096" lon="13.7304881624641"><ele>2.5</ele><time>2026-04-12T12:21:51.96Z</time></trkpt><trkpt lat="45.35699235516166" lon="13.730320447617407"><ele>2.25</ele><time>2026-04-12T12:21:52.96Z</time></trkpt><trkpt lat="45.356937967032486" lon="13.730136866674197"><ele>2.0</ele><time>2026-04-12T12:21:53.96Z</time></trkpt><trkpt lat="45.356894251274355" lon="13.729944722170847"><ele>2.0</ele><time>2026-04-12T12:21:54.96Z</time></trkpt><trkpt lat="45.3568528128516" lon="13.729755374097742"><ele>2.0</ele><time>2026-04-12T12:21:55.96Z</time></trkpt><trkpt lat="45.35681610747532" lon="13.72955426846429"><ele>2.0</ele><time>2026-04-12T12:21:56.96Z</time></trkpt><trkpt lat="45.356768575301075" lon="13.729362452861867"><ele>2.0</ele><time>2026-04-12T12:21:57.96Z</time></trkpt><trkpt lat="45.35671722730501" lon="13.729169640214108"><ele>2.0</ele><time>2026-04-12T12:21:58.96Z</time></trkpt><trkpt lat="45.356665361298866" lon="13.729019858920555"><ele>2.0</ele><time>2026-04-12T12:21:59.96Z</time></trkpt><trkpt lat="45.356602933453495" lon="13.728858141511648"><ele>2.0</ele><time>2026-04-12T12:22:00.96Z</time></trkpt><trkpt lat="45.35653481920524" lon="13.728686143540825"><ele>2.0</ele><time>2026-04-12T12:22:01.96Z</time></trkpt><trkpt lat="45.35646568761368" lon="13.728526354421245"><ele>2.25</ele><time>2026-04-12T12:22:02.96Z</time></trkpt><trkpt lat="45.35639286719011" lon="13.728364594266278"><ele>2.5</ele><time>2026-04-12T12:22:03.96Z</time></trkpt><trkpt lat="45.35631318693137" lon="13.728219535667225"><ele>2.75</ele><time>2026-04-12T12:22:04.96Z</time></trkpt><trkpt lat="45.35622950510339" lon="13.728082411943483"><ele>3.0</ele><time>2026-04-12T12:22:05.96Z</time></trkpt><trkpt lat="45.356127222720296" lon="13.727949880721866"><ele>3.0</ele><time>2026-04-12T12:22:06.96Z</time></trkpt><trkpt lat="45.35603549246548" lon="13.727826953179006"><ele>3.0</ele><time>2026-04-12T12:22:07.96Z</time></trkpt><trkpt lat="45.35594741226603" lon="13.727692271030744"><ele>3.0</ele><time>2026-04-12T12:22:08.96Z</time></trkpt><trkpt lat="45.35584245543711" lon="13.727560992465214"><ele>3.0</ele><time>2026-04-12T12:22:09.96Z</time></trkpt><trkpt lat="45.35574589758414" lon="13.727456915165796"><ele>2.75</ele><time>2026-04-12T12:22:10.96Z</time></trkpt><trkpt lat="45.355652160622306" lon="13.727365136696536"><ele>2.5</ele><time>2026-04-12T12:22:11.96Z</time></trkpt><trkpt lat="45.35555131166049" lon="13.727253573489815"><ele>2.25</ele><time>2026-04-12T12:22:12.96Z</time></trkpt><trkpt lat="45.3554516235648" lon="13.727148111498517"><ele>2.0</ele><time>2026-04-12T12:22:13.96Z</time></trkpt><trkpt lat="45.35535125191026" lon="13.72700919863047"><ele>1.75</ele><time>2026-04-12T12:22:14.96Z</time></trkpt><trkpt lat="45.355269460702786" lon="13.726872171108173"><ele>1.5</ele><time>2026-04-12T12:22:15.96Z</time></trkpt><trkpt lat="45.35519672720814" lon="13.726724467118313"><ele>1.25</ele><time>2026-04-12T12:22:16.96Z</time></trkpt><trkpt lat="45.35512972092058" lon="13.726567457723508"><ele>1.0</ele><time>2026-04-12T12:22:17.96Z</time></trkpt><trkpt lat="45.35506153832099" lon="13.726392978845846"><ele>1.0</ele><time>2026-04-12T12:22:18.96Z</time></trkpt><trkpt lat="45.354998636185435" lon="13.726211337993114"><ele>1.0</ele><time>2026-04-12T12:22:19.96Z</time></trkpt><trkpt lat="45.35494180272219" lon="13.726042941864899"><ele>1.0</ele><time>2026-04-12T12:22:20.96Z</time></trkpt><trkpt lat="45.354891918881016" lon="13.725855187541688"><ele>1.0</ele><time>2026-04-12T12:22:21.96Z</time></trkpt><trkpt lat="45.35482707072546" lon="13.725665643328187"><ele>1.0</ele><time>2026-04-12T12:22:22.96Z</time></trkpt><trkpt lat="45.354769527120794" lon="13.725487695306926"><ele>1.0</ele><time>2026-04-12T12:22:23.96Z</time></trkpt><trkpt lat="45.35471056416534" lon="13.725311745599788"><ele>1.0</ele><time>2026-04-12T12:22:24.96Z</time></trkpt><trkpt lat="45.35464977351269" lon="13.725131038971915"><ele>1.0</ele><time>2026-04-12T12:22:25.96Z</time></trkpt><trkpt lat="45.3545819040483" lon="13.724949335825942"><ele>1.0</ele><time>2026-04-12T12:22:26.96Z</time></trkpt><trkpt lat="45.35449970609702" lon="13.724766871153658"><ele>1.0</ele><time>2026-04-12T12:22:27.96Z</time></trkpt><trkpt lat="45.35442400258967" lon="13.724586694338887"><ele>1.0</ele><time>2026-04-12T12:22:28.96Z</time></trkpt><trkpt lat="45.35433859786328" lon="13.724407606047587"><ele>1.0</ele><time>2026-04-12T12:22:29.96Z</time></trkpt><trkpt lat="45.35424997212971" lon="13.724269542925772"><ele>1.0</ele><time>2026-04-12T12:22:30.96Z</time></trkpt><trkpt lat="45.35417912732269" lon="13.724101263356504"><ele>1.0</ele><time>2026-04-12T12:22:31.96Z</time></trkpt><trkpt lat="45.35411120978635" lon="13.723934812231583"><ele>1.0</ele><time>2026-04-12T12:22:32.96Z</time></trkpt><trkpt lat="45.354035211987856" lon="13.723762486560071"><ele>1.5</ele><time>2026-04-12T12:22:33.96Z</time></trkpt><trkpt lat="45.35398844414828" lon="13.723551958764023"><ele>2.0</ele><time>2026-04-12T12:22:34.96Z</time></trkpt><trkpt lat="45.35394114915541" lon="13.723360466799102"><ele>2.5</ele><time>2026-04-12T12:22:35.96Z</time></trkpt><trkpt lat="45.35388316658506" lon="13.72318572064413"><ele>3.0</ele><time>2026-04-12T12:22:36.96Z</time></trkpt><trkpt lat="45.35384069220511" lon="13.723013932158699"><ele>2.75</ele><time>2026-04-12T12:22:37.96Z</time></trkpt><trkpt lat="45.353798646115294" lon="13.722845253294839"><ele>2.5</ele><time>2026-04-12T12:22:38.96Z</time></trkpt><trkpt lat="45.35375471353755" lon="13.722675262343042"><ele>2.25</ele><time>2026-04-12T12:22:39.96Z</time></trkpt><trkpt lat="45.3537016278802" lon="13.722500699624796"><ele>2.0</ele><time>2026-04-12T12:22:40.96Z</time></trkpt><trkpt lat="45.353662286719995" lon="13.722297398368745"><ele>2.0</ele><time>2026-04-12T12:22:41.96Z</time></trkpt><trkpt lat="45.353590785869066" lon="13.722115867346742"><ele>2.0</ele><time>2026-04-12T12:22:42.96Z</time></trkpt><trkpt lat="45.353513448402104" lon="13.721944976539602"><ele>2.0</ele><time>2026-04-12T12:22:43.96Z</time></trkpt><trkpt lat="45.35342584402782" lon="13.721772623324572"><ele>2.0</ele><time>2026-04-12T12:22:44.96Z</time></trkpt><trkpt lat="45.35335125800431" lon="13.72159300643657"><ele>2.0</ele><time>2026-04-12T12:22:45.96Z</time></trkpt><trkpt lat="45.35327647896641" lon="13.72142826080134"><ele>2.0</ele><time>2026-04-12T12:22:46.96Z</time></trkpt><trkpt lat="45.35321005881417" lon="13.721263266932572"><ele>2.0</ele><time>2026-04-12T12:22:47.96Z</time></trkpt><trkpt lat="45.3531452391284" lon="13.721090889375478"><ele>2.0</ele><time>2026-04-12T12:22:48.96Z</time></trkpt><trkpt lat="45.35309598477788" lon="13.720911505908806"><ele>2.333333333333333</ele><time>2026-04-12T12:22:49.96Z</time></trkpt><trkpt lat="45.35304849672852" lon="13.720713723503184"><ele>2.6666666666666665</ele><time>2026-04-12T12:22:50.96Z</time></trkpt><trkpt lat="45.35300498001814" lon="13.720507218002503"><ele>3.0</ele><time>2026-04-12T12:22:51.96Z</time></trkpt><trkpt lat="45.35297140081293" lon="13.720292948194265"><ele>2.6666666666666665</ele><time>2026-04-12T12:22:52.96Z</time></trkpt><trkpt lat="45.35293726132465" lon="13.720081782424801"><ele>2.333333333333333</ele><time>2026-04-12T12:22:53.96Z</time></trkpt><trkpt lat="45.352903252952274" lon="13.71985286140652"><ele>2.0</ele><time>2026-04-12T12:22:54.96Z</time></trkpt><trkpt lat="45.35287940505662" lon="13.719651635627859"><ele>2.0</ele><time>2026-04-12T12:22:55.96Z</time></trkpt><trkpt lat="45.35285155926241" lon="13.719420449859232"><ele>2.0</ele><time>2026-04-12T12:22:56.96Z</time></trkpt><trkpt lat="45.35283083786895" lon="13.719208828881445"><ele>2.0</ele><time>2026-04-12T12:22:57.96Z</time></trkpt><trkpt lat="45.35281300350427" lon="13.718987862984662"><ele>2.333333333333333</ele><time>2026-04-12T12:22:58.96Z</time></trkpt><trkpt lat="45.352797618364406" lon="13.71877177490476"><ele>2.6666666666666665</ele><time>2026-04-12T12:22:59.96Z</time></trkpt><trkpt lat="45.352804296820864" lon="13.718549625340112"><ele>3.0</ele><time>2026-04-12T12:23:00.96Z</time></trkpt><trkpt lat="45.35279812568302" lon="13.718321295954878"><ele>3.0</ele><time>2026-04-12T12:23:01.96Z</time></trkpt><trkpt lat="45.352793798462706" lon="13.718100226391481"><ele>3.0</ele><time>2026-04-12T12:23:02.96Z</time></trkpt><trkpt lat="45.35278733673134" lon="13.717870540710376"><ele>3.0</ele><time>2026-04-12T12:23:03.96Z</time></trkpt><trkpt lat="45.35277984119955" lon="13.717637181041148"><ele>2.6666666666666665</ele><time>2026-04-12T12:23:04.96Z</time></trkpt><trkpt lat="45.35277036942057" lon="13.71740628316727"><ele>2.333333333333333</ele><time>2026-04-12T12:23:05.96Z</time></trkpt><trkpt lat="45.35273772930808" lon="13.717176435030733"><ele>2.0</ele><time>2026-04-12T12:23:06.96Z</time></trkpt><trkpt lat="45.35272140425517" lon="13.716944045470548"><ele>3.333333333333333</ele><time>2026-04-12T12:23:07.96Z</time></trkpt><trkpt lat="45.352695024394414" lon="13.716733254662378"><ele>4.666666666666667</ele><time>2026-04-12T12:23:08.96Z</time></trkpt><trkpt lat="45.35266531996526" lon="13.716517164100452"><ele>6.0</ele><time>2026-04-12T12:23:09.96Z</time></trkpt><trkpt lat="45.352648913398355" lon="13.716306576567687"><ele>6.0</ele><time>2026-04-12T12:23:10.96Z</time></trkpt><trkpt lat="45.35260799400438" lon="13.716092488556159"><ele>6.0</ele><time>2026-04-12T12:23:11.96Z</time></trkpt><trkpt lat="45.35257948912331" lon="13.715866680634841"><ele>6.0</ele><time>2026-04-12T12:23:12.96Z</time></trkpt><trkpt lat="45.352545642339365" lon="13.715649779877763"><ele>5.333333333333333</ele><time>2026-04-12T12:23:13.96Z</time></trkpt><trkpt lat="45.35251236013752" lon="13.715429839442109"><ele>4.666666666666666</ele><time>2026-04-12T12:23:14.96Z</time></trkpt><trkpt lat="45.352481434456095" lon="13.715205949634878"><ele>4.0</ele><time>2026-04-12T12:23:15.96Z</time></trkpt><trkpt lat="45.35244678091436" lon="13.714984433271653"><ele>4.0</ele><time>2026-04-12T12:23:16.96Z</time></trkpt><trkpt lat="45.352413574285464" lon="13.714756506911575"><ele>4.0</ele><time>2026-04-12T12:23:17.96Z</time></trkpt><trkpt lat="45.35238161475103" lon="13.714537083642819"><ele>4.0</ele><time>2026-04-12T12:23:18.96Z</time></trkpt><trkpt lat="45.35234676111105" lon="13.714312261158904"><ele>4.333333333333333</ele><time>2026-04-12T12:23:19.96Z</time></trkpt><trkpt lat="45.35231233691234" lon="13.71409277530758"><ele>4.666666666666667</ele><time>2026-04-12T12:23:20.96Z</time></trkpt><trkpt lat="45.35227898117606" lon="13.713877018305158"><ele>5.0</ele><time>2026-04-12T12:23:21.96Z</time></trkpt><trkpt lat="45.35224075459503" lon="13.713673157329056"><ele>7.333333333333334</ele><time>2026-04-12T12:23:22.96Z</time></trkpt><trkpt lat="45.35220367032491" lon="13.713466567689197"><ele>9.666666666666666</ele><time>2026-04-12T12:23:23.961Z</time></trkpt><trkpt lat="45.35217156542417" lon="13.713254705421162"><ele>12.0</ele><time>2026-04-12T12:23:24.961Z</time></trkpt><trkpt lat="45.352149797296256" lon="13.713042457680336"><ele>12.0</ele><time>2026-04-12T12:23:25.961Z</time></trkpt><trkpt lat="45.352121022303464" lon="13.712843813567112"><ele>12.0</ele><time>2026-04-12T12:23:26.961Z</time></trkpt><trkpt lat="45.35209971683176" lon="13.712633050404925"><ele>12.0</ele><time>2026-04-12T12:23:27.961Z</time></trkpt><trkpt lat="45.35208954099809" lon="13.71240262731672"><ele>11.0</ele><time>2026-04-12T12:23:28.961Z</time></trkpt><trkpt lat="45.35210064584951" lon="13.712180072633993"><ele>10.0</ele><time>2026-04-12T12:23:29.961Z</time></trkpt><trkpt lat="45.35210208384866" lon="13.711950832090064"><ele>9.0</ele><time>2026-04-12T12:23:30.961Z</time></trkpt><trkpt lat="45.35210478118728" lon="13.711710618612626"><ele>8.0</ele><time>2026-04-12T12:23:31.961Z</time></trkpt><trkpt lat="45.352107754693286" lon="13.711475576561137"><ele>7.0</ele><time>2026-04-12T12:23:32.961Z</time></trkpt><trkpt lat="45.35210992296146" lon="13.711245055806826"><ele>6.0</ele><time>2026-04-12T12:23:33.961Z</time></trkpt><trkpt lat="45.352097859163784" lon="13.710992900692876"><ele>5.0</ele><time>2026-04-12T12:23:34.961Z</time></trkpt><trkpt lat="45.35210756862971" lon="13.710752202042096"><ele>4.0</ele><time>2026-04-12T12:23:35.962Z</time></trkpt><trkpt lat="45.352108846342816" lon="13.710502451069821"><ele>3.0</ele><time>2026-04-12T12:23:36.961Z</time></trkpt><trkpt lat="45.35212602949391" lon="13.710274414007404"><ele>2.6666666666666665</ele><time>2026-04-12T12:23:37.961Z</time></trkpt><trkpt lat="45.352129927389086" lon="13.710030307109088"><ele>2.333333333333333</ele><time>2026-04-12T12:23:38.961Z</time></trkpt><trkpt lat="45.352111820938674" lon="13.709782824868807"><ele>2.0</ele><time>2026-04-12T12:23:39.961Z</time></trkpt><trkpt lat="45.35211333678087" lon="13.709555598741186"><ele>1.6666666666666665</ele><time>2026-04-12T12:23:40.961Z</time></trkpt><trkpt lat="45.35211687343224" lon="13.709322547051721"><ele>1.3333333333333333</ele><time>2026-04-12T12:23:41.961Z</time></trkpt><trkpt lat="45.352119377921085" lon="13.709092105934086"><ele>1.0</ele><time>2026-04-12T12:23:42.961Z</time></trkpt><trkpt lat="45.35211847100094" lon="13.708846388451812"><ele>1.0</ele><time>2026-04-12T12:23:43.961Z</time></trkpt><trkpt lat="45.35212275877671" lon="13.70862261451731"><ele>1.0</ele><time>2026-04-12T12:23:44.961Z</time></trkpt><trkpt lat="45.352124130909054" lon="13.708396756150325"><ele>1.0</ele><time>2026-04-12T12:23:45.961Z</time></trkpt><trkpt lat="45.35212094379949" lon="13.70816284290286"><ele>0.6666666666666666</ele><time>2026-04-12T12:23:46.961Z</time></trkpt><trkpt lat="45.3521159746627" lon="13.707915869793212"><ele>0.3333333333333333</ele><time>2026-04-12T12:23:47.961Z</time></trkpt><trkpt lat="45.35211939926224" lon="13.707687303764953"><ele>0.0</ele><time>2026-04-12T12:23:48.961Z</time></trkpt><trkpt lat="45.352123356716874" lon="13.7074444223151"><ele>0.6666666666666666</ele><time>2026-04-12T12:23:49.961Z</time></trkpt><trkpt lat="45.352128637390095" lon="13.707204194958821"><ele>1.3333333333333333</ele><time>2026-04-12T12:23:50.961Z</time></trkpt><trkpt lat="45.35215566446224" lon="13.706961652832682"><ele>2.0</ele><time>2026-04-12T12:23:51.961Z</time></trkpt><trkpt lat="45.352175897829156" lon="13.706722212800383"><ele>2.333333333333333</ele><time>2026-04-12T12:23:52.961Z</time></trkpt><trkpt lat="45.35219515228242" lon="13.706506226459268"><ele>2.6666666666666665</ele><time>2026-04-12T12:23:53.961Z</time></trkpt><trkpt lat="45.35221462926949" lon="13.706287224941343"><ele>3.0</ele><time>2026-04-12T12:23:54.961Z</time></trkpt><trkpt lat="45.35223471925421" lon="13.706071750083995"><ele>2.3333333333333335</ele><time>2026-04-12T12:23:55.961Z</time></trkpt><trkpt lat="45.35225611242564" lon="13.705852794736453"><ele>1.6666666666666665</ele><time>2026-04-12T12:23:56.961Z</time></trkpt><trkpt lat="45.3522755505103" lon="13.705639830190421"><ele>1.0</ele><time>2026-04-12T12:23:57.961Z</time></trkpt><trkpt lat="45.35229481677823" lon="13.705422860974295"><ele>1.0</ele><time>2026-04-12T12:23:58.961Z</time></trkpt><trkpt lat="45.35231319292964" lon="13.705213117289473"><ele>1.0</ele><time>2026-04-12T12:23:59.961Z</time></trkpt><trkpt lat="45.35232784093627" lon="13.705020012213941"><ele>1.0</ele><time>2026-04-12T12:24:00.961Z</time></trkpt><trkpt lat="45.35234168550439" lon="13.70483753434211"><ele>1.0</ele><time>2026-04-12T12:24:01.961Z</time></trkpt><trkpt lat="45.3523547563412" lon="13.704644649259174"><ele>1.0</ele><time>2026-04-12T12:24:02.961Z</time></trkpt><trkpt lat="45.35236206664157" lon="13.70446061309898"><ele>1.0</ele><time>2026-04-12T12:24:03.961Z</time></trkpt><trkpt lat="45.352357362249336" lon="13.70427548527446"><ele>1.0</ele><time>2026-04-12T12:24:04.961Z</time></trkpt><trkpt lat="45.352350027544986" lon="13.704096991506002"><ele>1.0</ele><time>2026-04-12T12:24:05.961Z</time></trkpt><trkpt lat="45.35233550344664" lon="13.703914064524477"><ele>1.5</ele><time>2026-04-12T12:24:06.961Z</time></trkpt><trkpt lat="45.352313944501795" lon="13.703729718065327"><ele>2.0</ele><time>2026-04-12T12:24:07.961Z</time></trkpt><trkpt lat="45.35227798267921" lon="13.703545245878303"><ele>2.5</ele><time>2026-04-12T12:24:08.961Z</time></trkpt><trkpt lat="45.35223663913846" lon="13.703377455982347"><ele>3.0</ele><time>2026-04-12T12:24:09.961Z</time></trkpt><trkpt lat="45.352180673642984" lon="13.703216053708706"><ele>3.0</ele><time>2026-04-12T12:24:10.961Z</time></trkpt><trkpt lat="45.3521381585412" lon="13.703042740657366"><ele>3.0</ele><time>2026-04-12T12:24:11.961Z</time></trkpt><trkpt lat="45.352094373549264" lon="13.702871950600839"><ele>3.0</ele><time>2026-04-12T12:24:12.961Z</time></trkpt><trkpt lat="45.35204416681373" lon="13.702711529845704"><ele>3.0</ele><time>2026-04-12T12:24:13.961Z</time></trkpt><trkpt lat="45.35198279659238" lon="13.702554258424476"><ele>2.5</ele><time>2026-04-12T12:24:14.961Z</time></trkpt><trkpt lat="45.35190739173981" lon="13.702408270616147"><ele>2.0</ele><time>2026-04-12T12:24:15.962Z</time></trkpt><trkpt lat="45.35182486679711" lon="13.702261896190512"><ele>1.5</ele><time>2026-04-12T12:24:16.962Z</time></trkpt><trkpt lat="45.351736183651006" lon="13.70210500012313"><ele>1.0</ele><time>2026-04-12T12:24:17.962Z</time></trkpt><trkpt lat="45.35162953406652" lon="13.701929982831079"><ele>1.3333333333333333</ele><time>2026-04-12T12:24:18.962Z</time></trkpt><trkpt lat="45.351523618344515" lon="13.701764965968538"><ele>1.6666666666666665</ele><time>2026-04-12T12:24:19.962Z</time></trkpt><trkpt lat="45.351418276216236" lon="13.701613128015445"><ele>2.0</ele><time>2026-04-12T12:24:20.962Z</time></trkpt><trkpt lat="45.351304986025156" lon="13.701461147828578"><ele>2.0</ele><time>2026-04-12T12:24:21.962Z</time></trkpt><trkpt lat="45.351190056306855" lon="13.701325656958728"><ele>2.0</ele><time>2026-04-12T12:24:22.962Z</time></trkpt><trkpt lat="45.35108348541713" lon="13.701194510917377"><ele>2.0</ele><time>2026-04-12T12:24:23.962Z</time></trkpt><trkpt lat="45.350964558031436" lon="13.701066610350958"><ele>2.0</ele><time>2026-04-12T12:24:24.962Z</time></trkpt><trkpt lat="45.35083875468356" lon="13.700945675610308"><ele>2.333333333333333</ele><time>2026-04-12T12:24:25.962Z</time></trkpt><trkpt lat="45.35070237765499" lon="13.700823301516378"><ele>2.6666666666666665</ele><time>2026-04-12T12:24:26.962Z</time></trkpt><trkpt lat="45.35057107072807" lon="13.700679155776855"><ele>3.0</ele><time>2026-04-12T12:24:27.962Z</time></trkpt><trkpt lat="45.35043054907084" lon="13.700557480012652"><ele>3.0</ele><time>2026-04-12T12:24:28.962Z</time></trkpt><trkpt lat="45.35029692354516" lon="13.700448232914475"><ele>3.0</ele><time>2026-04-12T12:24:29.962Z</time></trkpt><trkpt lat="45.3501747425013" lon="13.700344070871438"><ele>3.0</ele><time>2026-04-12T12:24:30.962Z</time></trkpt><trkpt lat="45.35004403470687" lon="13.700238042262496"><ele>3.0</ele><time>2026-04-12T12:24:31.962Z</time></trkpt><trkpt lat="45.349914176972895" lon="13.700156349965443"><ele>3.666666666666667</ele><time>2026-04-12T12:24:32.962Z</time></trkpt><trkpt lat="45.34977509942897" lon="13.70006820055586"><ele>4.333333333333334</ele><time>2026-04-12T12:24:33.962Z</time></trkpt><trkpt lat="45.34963790006881" lon="13.699977297329216"><ele>5.0</ele><time>2026-04-12T12:24:34.962Z</time></trkpt><trkpt lat="45.34948135329318" lon="13.699882497882447"><ele>5.0</ele><time>2026-04-12T12:24:35.962Z</time></trkpt><trkpt lat="45.349332138741936" lon="13.699795711791484"><ele>5.0</ele><time>2026-04-12T12:24:36.962Z</time></trkpt><trkpt lat="45.3491820979857" lon="13.699679711209907"><ele>5.0</ele><time>2026-04-12T12:24:37.962Z</time></trkpt><trkpt lat="45.349034149807444" lon="13.69958380357693"><ele>5.0</ele><time>2026-04-12T12:24:38.962Z</time></trkpt><trkpt lat="45.348884021789445" lon="13.699487150469249"><ele>5.0</ele><time>2026-04-12T12:24:39.962Z</time></trkpt><trkpt lat="45.3487340588436" lon="13.699390598314759"><ele>5.0</ele><time>2026-04-12T12:24:40.962Z</time></trkpt><trkpt lat="45.34857664813088" lon="13.699309329798446"><ele>4.333333333333334</ele><time>2026-04-12T12:24:41.962Z</time></trkpt><trkpt lat="45.34842487098581" lon="13.699204710166473"><ele>3.666666666666667</ele><time>2026-04-12T12:24:42.962Z</time></trkpt><trkpt lat="45.348275775321206" lon="13.699098677756087"><ele>3.0</ele><time>2026-04-12T12:24:43.962Z</time></trkpt><trkpt lat="45.34812458890942" lon="13.698989135596998"><ele>2.3333333333333335</ele><time>2026-04-12T12:24:44.962Z</time></trkpt><trkpt lat="45.347974455000674" lon="13.698885418870681"><ele>1.6666666666666665</ele><time>2026-04-12T12:24:45.962Z</time></trkpt><trkpt lat="45.347825717928856" lon="13.698788156328005"><ele>1.0</ele><time>2026-04-12T12:24:46.962Z</time></trkpt><trkpt lat="45.34768099907143" lon="13.698695278239978"><ele>1.0</ele><time>2026-04-12T12:24:47.962Z</time></trkpt><trkpt lat="45.34754174936272" lon="13.698609869418274"><ele>1.0</ele><time>2026-04-12T12:24:48.962Z</time></trkpt><trkpt lat="45.34743194615755" lon="13.698495595193474"><ele>1.0</ele><time>2026-04-12T12:24:49.962Z</time></trkpt><trkpt lat="45.347319383179325" lon="13.69839086038014"><ele>1.0</ele><time>2026-04-12T12:24:50.962Z</time></trkpt><trkpt lat="45.34719975113077" lon="13.698270264207524"><ele>1.0</ele><time>2026-04-12T12:24:51.962Z</time></trkpt><trkpt lat="45.34707436856888" lon="13.698160276556104"><ele>1.0</ele><time>2026-04-12T12:24:52.962Z</time></trkpt><trkpt lat="45.34696514828623" lon="13.698027860639975"><ele>1.0</ele><time>2026-04-12T12:24:53.962Z</time></trkpt><trkpt lat="45.346888032945856" lon="13.697885809233266"><ele>1.0</ele><time>2026-04-12T12:24:54.962Z</time></trkpt><trkpt lat="45.346820996153355" lon="13.697752749191126"><ele>1.0</ele><time>2026-04-12T12:24:55.962Z</time></trkpt><trkpt lat="45.34677288374625" lon="13.697621992085281"><ele>1.0</ele><time>2026-04-12T12:24:56.962Z</time></trkpt><trkpt lat="45.34673581045778" lon="13.697472528990794"><ele>1.0</ele><time>2026-04-12T12:24:57.962Z</time></trkpt><trkpt lat="45.346705821343534" lon="13.697294876139647"><ele>1.0</ele><time>2026-04-12T12:24:58.962Z</time></trkpt><trkpt lat="45.34667891928863" lon="13.697109939196336"><ele>1.0</ele><time>2026-04-12T12:24:59.962Z</time></trkpt><trkpt lat="45.34664287507308" lon="13.696931958154403"><ele>1.0</ele><time>2026-04-12T12:25:00.962Z</time></trkpt><trkpt lat="45.346584634258264" lon="13.696775783879598"><ele>1.0</ele><time>2026-04-12T12:25:01.962Z</time></trkpt><trkpt lat="45.34651868632294" lon="13.696613236427538"><ele>1.0</ele><time>2026-04-12T12:25:02.962Z</time></trkpt><trkpt lat="45.34643870842581" lon="13.696459311691653"><ele>1.25</ele><time>2026-04-12T12:25:03.962Z</time></trkpt><trkpt lat="45.346336856273936" lon="13.696333184803688"><ele>1.5</ele><time>2026-04-12T12:25:04.962Z</time></trkpt><trkpt lat="45.34621685062916" lon="13.696213036144453"><ele>1.75</ele><time>2026-04-12T12:25:05.962Z</time></trkpt><trkpt lat="45.34608616757357" lon="13.69609649844893"><ele>2.0</ele><time>2026-04-12T12:25:06.962Z</time></trkpt><trkpt lat="45.34596335828824" lon="13.695958915529232"><ele>2.0</ele><time>2026-04-12T12:25:07.962Z</time></trkpt><trkpt lat="45.345835458008814" lon="13.695839716446901"><ele>2.0</ele><time>2026-04-12T12:25:08.962Z</time></trkpt><trkpt lat="45.34570580838544" lon="13.695718887225281"><ele>2.0</ele><time>2026-04-12T12:25:09.962Z</time></trkpt><trkpt lat="45.3455729709194" lon="13.695595088391707"><ele>1.5</ele><time>2026-04-12T12:25:10.962Z</time></trkpt><trkpt lat="45.34545467948491" lon="13.695484996711636"><ele>1.0</ele><time>2026-04-12T12:25:11.962Z</time></trkpt><trkpt lat="45.34532876956496" lon="13.69536890350231"><ele>0.5</ele><time>2026-04-12T12:25:12.962Z</time></trkpt><trkpt lat="45.34521082049675" lon="13.69526346418367"><ele>0.0</ele><time>2026-04-12T12:25:13.962Z</time></trkpt><trkpt lat="45.34510379806905" lon="13.69515764749939"><ele>0.0</ele><time>2026-04-12T12:25:14.962Z</time></trkpt><trkpt lat="45.344996159620656" lon="13.695038093782168"><ele>0.0</ele><time>2026-04-12T12:25:15.962Z</time></trkpt><trkpt lat="45.34488248157243" lon="13.694904191051762"><ele>0.0</ele><time>2026-04-12T12:25:16.962Z</time></trkpt><trkpt lat="45.344766697714746" lon="13.694759329387027"><ele>0.0</ele><time>2026-04-12T12:25:17.962Z</time></trkpt><trkpt lat="45.344649832742775" lon="13.694623086778119"><ele>0.25</ele><time>2026-04-12T12:25:18.962Z</time></trkpt><trkpt lat="45.34455101215547" lon="13.694461629211428"><ele>0.5</ele><time>2026-04-12T12:25:19.962Z</time></trkpt><trkpt lat="45.34444891410981" lon="13.694310650839636"><ele>0.75</ele><time>2026-04-12T12:25:20.962Z</time></trkpt><trkpt lat="45.344350916624954" lon="13.694172367253978"><ele>1.0</ele><time>2026-04-12T12:25:21.962Z</time></trkpt><trkpt lat="45.3442558857815" lon="13.694025998951519"><ele>1.0</ele><time>2026-04-12T12:25:22.962Z</time></trkpt><trkpt lat="45.344175414783784" lon="13.693871663360012"><ele>1.0</ele><time>2026-04-12T12:25:23.962Z</time></trkpt><trkpt lat="45.34410325155738" lon="13.693720830819602"><ele>1.0</ele><time>2026-04-12T12:25:24.962Z</time></trkpt><trkpt lat="45.344046671541754" lon="13.693559562424689"><ele>1.0</ele><time>2026-04-12T12:25:25.962Z</time></trkpt><trkpt lat="45.343982032836244" lon="13.693398126601148"><ele>1.0</ele><time>2026-04-12T12:25:26.962Z</time></trkpt><trkpt lat="45.34392798790178" lon="13.693217255411582"><ele>1.0</ele><time>2026-04-12T12:25:27.962Z</time></trkpt><trkpt lat="45.34387583607523" lon="13.693020992487709"><ele>1.0</ele><time>2026-04-12T12:25:28.962Z</time></trkpt><trkpt lat="45.34384307236253" lon="13.692814213460528"><ele>1.0</ele><time>2026-04-12T12:25:29.963Z</time></trkpt><trkpt lat="45.34378861313784" lon="13.692620837843116"><ele>1.25</ele><time>2026-04-12T12:25:30.962Z</time></trkpt><trkpt lat="45.34372484543762" lon="13.692429398957067"><ele>1.5</ele><time>2026-04-12T12:25:31.962Z</time></trkpt><trkpt lat="45.34367694843155" lon="13.692256663692365"><ele>1.75</ele><time>2026-04-12T12:25:32.962Z</time></trkpt><trkpt lat="45.343635522457504" lon="13.692073878607955"><ele>2.0</ele><time>2026-04-12T12:25:33.962Z</time></trkpt><trkpt lat="45.34361400684411" lon="13.69186396035693"><ele>2.0</ele><time>2026-04-12T12:25:34.962Z</time></trkpt><trkpt lat="45.343617690603445" lon="13.691641092893033"><ele>2.0</ele><time>2026-04-12T12:25:35.963Z</time></trkpt><trkpt lat="45.34360816079921" lon="13.691414528468384"><ele>2.0</ele><time>2026-04-12T12:25:36.962Z</time></trkpt><trkpt lat="45.34360206373194" lon="13.691208288635272"><ele>1.5</ele><time>2026-04-12T12:25:37.962Z</time></trkpt><trkpt lat="45.34359304732409" lon="13.69100262759743"><ele>1.0</ele><time>2026-04-12T12:25:38.963Z</time></trkpt><trkpt lat="45.34358320749816" lon="13.690798495012551"><ele>0.5</ele><time>2026-04-12T12:25:39.962Z</time></trkpt><trkpt lat="45.34357535470183" lon="13.690610195005178"><ele>0.0</ele><time>2026-04-12T12:25:40.962Z</time></trkpt><trkpt lat="45.34357254588153" lon="13.690442126937441"><ele>0.0</ele><time>2026-04-12T12:25:41.963Z</time></trkpt><trkpt lat="45.34357969594213" lon="13.690285112937156"><ele>0.0</ele><time>2026-04-12T12:25:42.963Z</time></trkpt><trkpt lat="45.34360480362262" lon="13.690119406282834"><ele>0.0</ele><time>2026-04-12T12:25:43.963Z</time></trkpt><trkpt lat="45.34365802309469" lon="13.689963867617069"><ele>0.0</ele><time>2026-04-12T12:25:44.963Z</time></trkpt><trkpt lat="45.34371880614346" lon="13.689794681497071"><ele>0.0</ele><time>2026-04-12T12:25:45.963Z</time></trkpt><trkpt lat="45.343786622500474" lon="13.68960914020495"><ele>0.0</ele><time>2026-04-12T12:25:46.963Z</time></trkpt><trkpt lat="45.343852972506646" lon="13.689426677085585"><ele>0.0</ele><time>2026-04-12T12:25:47.963Z</time></trkpt><trkpt lat="45.34392261505921" lon="13.68923603887014"><ele>0.0</ele><time>2026-04-12T12:25:48.963Z</time></trkpt><trkpt lat="45.343998559212416" lon="13.689027615366948"><ele>0.0</ele><time>2026-04-12T12:25:49.963Z</time></trkpt><trkpt lat="45.34407416925926" lon="13.688816255103774"><ele>0.0</ele><time>2026-04-12T12:25:50.963Z</time></trkpt><trkpt lat="45.344149891050684" lon="13.688585711661121"><ele>0.0</ele><time>2026-04-12T12:25:51.963Z</time></trkpt><trkpt lat="45.344223917911606" lon="13.688367553810469"><ele>0.0</ele><time>2026-04-12T12:25:52.963Z</time></trkpt><trkpt lat="45.344299123509444" lon="13.68814584427112"><ele>0.0</ele><time>2026-04-12T12:25:53.963Z</time></trkpt><trkpt lat="45.34437943551906" lon="13.68793520388285"><ele>0.0</ele><time>2026-04-12T12:25:54.963Z</time></trkpt><trkpt lat="45.34446341123633" lon="13.687720333852166"><ele>0.0</ele><time>2026-04-12T12:25:55.963Z</time></trkpt><trkpt lat="45.34456013420278" lon="13.687525355445388"><ele>0.0</ele><time>2026-04-12T12:25:56.963Z</time></trkpt><trkpt lat="45.34464541306337" lon="13.68732289629983"><ele>0.0</ele><time>2026-04-12T12:25:57.963Z</time></trkpt><trkpt lat="45.344727995635104" lon="13.68712584267082"><ele>-0.25</ele><time>2026-04-12T12:25:58.963Z</time></trkpt><trkpt lat="45.344790949701974" lon="13.68692766340157"><ele>-0.5</ele><time>2026-04-12T12:25:59.963Z</time></trkpt><trkpt lat="45.34486378061727" lon="13.686744369758882"><ele>-0.75</ele><time>2026-04-12T12:26:00.963Z</time></trkpt><trkpt lat="45.34494000095997" lon="13.686578886512175"><ele>-1.0</ele><time>2026-04-12T12:26:01.963Z</time></trkpt><trkpt lat="45.34499504281901" lon="13.686406428866665"><ele>-1.0</ele><time>2026-04-12T12:26:02.963Z</time></trkpt><trkpt lat="45.34504013768659" lon="13.68621193011579"><ele>-1.0</ele><time>2026-04-12T12:26:03.963Z</time></trkpt><trkpt lat="45.34507426587611" lon="13.685994875493924"><ele>-1.0</ele><time>2026-04-12T12:26:04.963Z</time></trkpt><trkpt lat="45.34508097623739" lon="13.685787783627175"><ele>-1.0</ele><time>2026-04-12T12:26:05.963Z</time></trkpt><trkpt lat="45.34509864003153" lon="13.685597206658052"><ele>-1.0</ele><time>2026-04-12T12:26:06.963Z</time></trkpt><trkpt lat="45.34511595711571" lon="13.685420426365917"><ele>-1.0</ele><time>2026-04-12T12:26:07.963Z</time></trkpt><trkpt lat="45.34514628948262" lon="13.685261168725553"><ele>-1.0</ele><time>2026-04-12T12:26:08.963Z</time></trkpt><trkpt lat="45.345211738143476" lon="13.685114506159232"><ele>-1.0</ele><time>2026-04-12T12:26:09.963Z</time></trkpt><trkpt lat="45.34525507671091" lon="13.684970569822488"><ele>-1.0</ele><time>2026-04-12T12:26:10.963Z</time></trkpt><trkpt lat="45.34531867447947" lon="13.684866500444361"><ele>-1.0</ele><time>2026-04-12T12:26:11.963Z</time></trkpt><trkpt lat="45.34539375230473" lon="13.684750657628623"><ele>-1.0</ele><time>2026-04-12T12:26:12.963Z</time></trkpt><trkpt lat="45.34547475556829" lon="13.684614877322526"><ele>-1.0</ele><time>2026-04-12T12:26:13.963Z</time></trkpt><trkpt lat="45.345573563335286" lon="13.684490789831273"><ele>-1.3333333333333333</ele><time>2026-04-12T12:26:14.963Z</time></trkpt><trkpt lat="45.34567450353439" lon="13.684324062309324"><ele>-1.6666666666666665</ele><time>2026-04-12T12:26:15.963Z</time></trkpt><trkpt lat="45.34576849932297" lon="13.684141282539063"><ele>-2.0</ele><time>2026-04-12T12:26:16.963Z</time></trkpt><trkpt lat="45.34585828033598" lon="13.683954185138573"><ele>-2.0</ele><time>2026-04-12T12:26:17.963Z</time></trkpt><trkpt lat="45.34593406530946" lon="13.683765829069754"><ele>-2.0</ele><time>2026-04-12T12:26:18.963Z</time></trkpt><trkpt lat="45.34601741318079" lon="13.683559200763106"><ele>-2.0</ele><time>2026-04-12T12:26:19.963Z</time></trkpt><trkpt lat="45.34609785807131" lon="13.683343105170112"><ele>-2.0</ele><time>2026-04-12T12:26:20.963Z</time></trkpt><trkpt lat="45.3461942442398" lon="13.683141627620842"><ele>-2.0</ele><time>2026-04-12T12:26:21.963Z</time></trkpt><trkpt lat="45.34626066700576" lon="13.682934159536957"><ele>-2.0</ele><time>2026-04-12T12:26:22.963Z</time></trkpt><trkpt lat="45.34635798240831" lon="13.68269775271542"><ele>-1.0</ele><time>2026-04-12T12:26:23.963Z</time></trkpt><trkpt lat="45.34644171978185" lon="13.682487690791781"><ele>0.0</ele><time>2026-04-12T12:26:24.963Z</time></trkpt><trkpt lat="45.34651285023451" lon="13.682292036865574"><ele>1.0</ele><time>2026-04-12T12:26:25.963Z</time></trkpt><trkpt lat="45.3466066043177" lon="13.682096168672501"><ele>1.3333333333333333</ele><time>2026-04-12T12:26:26.963Z</time></trkpt><trkpt lat="45.346687380260065" lon="13.68189343188484"><ele>1.6666666666666665</ele><time>2026-04-12T12:26:27.963Z</time></trkpt><trkpt lat="45.34676428883129" lon="13.681676061834034"><ele>2.0</ele><time>2026-04-12T12:26:28.963Z</time></trkpt><trkpt lat="45.346857849779724" lon="13.681464461309362"><ele>2.0</ele><time>2026-04-12T12:26:29.963Z</time></trkpt><trkpt lat="45.34693908688057" lon="13.681257040557966"><ele>2.0</ele><time>2026-04-12T12:26:30.963Z</time></trkpt><trkpt lat="45.34701330067903" lon="13.681060965906902"><ele>2.0</ele><time>2026-04-12T12:26:31.963Z</time></trkpt><trkpt lat="45.347080570557985" lon="13.680875750733005"><ele>2.0</ele><time>2026-04-12T12:26:32.963Z</time></trkpt><trkpt lat="45.347141012786466" lon="13.680682245652687"><ele>2.0</ele><time>2026-04-12T12:26:33.963Z</time></trkpt><trkpt lat="45.347190587391275" lon="13.680468115799457"><ele>2.0</ele><time>2026-04-12T12:26:34.963Z</time></trkpt><trkpt lat="45.34721113458298" lon="13.680255092406352"><ele>2.0</ele><time>2026-04-12T12:26:35.963Z</time></trkpt><trkpt lat="45.347244395902955" lon="13.680043268231392"><ele>2.0</ele><time>2026-04-12T12:26:36.963Z</time></trkpt><trkpt lat="45.34728655709443" lon="13.679827344744371"><ele>2.0</ele><time>2026-04-12T12:26:37.963Z</time></trkpt><trkpt lat="45.34733083113795" lon="13.679608980344655"><ele>1.0</ele><time>2026-04-12T12:26:38.963Z</time></trkpt><trkpt lat="45.3473819942254" lon="13.679377630646396"><ele>0.0</ele><time>2026-04-12T12:26:39.963Z</time></trkpt><trkpt lat="45.347435719383085" lon="13.679174122597603"><ele>-1.0</ele><time>2026-04-12T12:26:40.963Z</time></trkpt><trkpt lat="45.347499672652035" lon="13.678985578447417"><ele>-1.0</ele><time>2026-04-12T12:26:41.963Z</time></trkpt><trkpt lat="45.34758041839361" lon="13.678829235019942"><ele>-1.0</ele><time>2026-04-12T12:26:42.963Z</time></trkpt><trkpt lat="45.34764617591295" lon="13.67867979121342"><ele>-1.0</ele><time>2026-04-12T12:26:43.963Z</time></trkpt><trkpt lat="45.34771128003928" lon="13.678541167802663"><ele>-1.0</ele><time>2026-04-12T12:26:44.963Z</time></trkpt><trkpt lat="45.347778988792435" lon="13.678401893947209"><ele>-1.2000000000000002</ele><time>2026-04-12T12:26:45.963Z</time></trkpt><trkpt lat="45.34784486114725" lon="13.678270096994325"><ele>-1.4000000000000001</ele><time>2026-04-12T12:26:46.963Z</time></trkpt><trkpt lat="45.347909834487226" lon="13.678146638134766"><ele>-1.6</ele><time>2026-04-12T12:26:47.963Z</time></trkpt><trkpt lat="45.34796926481321" lon="13.678038314745642"><ele>-1.8</ele><time>2026-04-12T12:26:48.963Z</time></trkpt><trkpt lat="45.348023610926916" lon="13.677939302786372"><ele>-2.0</ele><time>2026-04-12T12:26:49.963Z</time></trkpt><trkpt lat="45.34806481360009" lon="13.677830296594468"><ele>-1.6666666666666665</ele><time>2026-04-12T12:26:50.963Z</time></trkpt><trkpt lat="45.34813278540064" lon="13.67774676077347"><ele>-1.3333333333333333</ele><time>2026-04-12T12:26:51.963Z</time></trkpt><trkpt lat="45.3481822141647" lon="13.677657119673816"><ele>-1.0</ele><time>2026-04-12T12:26:52.963Z</time></trkpt><trkpt lat="45.34822772845022" lon="13.677565159014765"><ele>-0.6666666666666666</ele><time>2026-04-12T12:26:53.963Z</time></trkpt><trkpt lat="45.34826813876574" lon="13.677467337168453"><ele>-0.3333333333333333</ele><time>2026-04-12T12:26:54.963Z</time></trkpt><trkpt lat="45.34832599671898" lon="13.677390431778683"><ele>0.0</ele><time>2026-04-12T12:26:55.963Z</time></trkpt><trkpt lat="45.3483790572711" lon="13.677283142557433"><ele>0.0</ele><time>2026-04-12T12:26:56.963Z</time></trkpt><trkpt lat="45.348437522129565" lon="13.67716492578978"><ele>0.0</ele><time>2026-04-12T12:26:57.963Z</time></trkpt><trkpt lat="45.348478645335526" lon="13.677042030937184"><ele>0.0</ele><time>2026-04-12T12:26:58.963Z</time></trkpt><trkpt lat="45.34853618453336" lon="13.676941458409434"><ele>0.0</ele><time>2026-04-12T12:26:59.963Z</time></trkpt><trkpt lat="45.3485715117581" lon="13.67684973575202"><ele>0.0</ele><time>2026-04-12T12:27:00.963Z</time></trkpt><trkpt lat="45.34862288594186" lon="13.676727642369725"><ele>0.0</ele><time>2026-04-12T12:27:02.963Z</time></trkpt><trkpt lat="45.348710810179156" lon="13.67671301466306"><ele>0.0</ele><time>2026-04-12T12:27:04.963Z</time></trkpt><trkpt lat="45.34879071694691" lon="13.676761377214603"><ele>0.0</ele><time>2026-04-12T12:27:06.963Z</time></trkpt><trkpt lat="45.34884172273523" lon="13.676844698146754"><ele>0.0</ele><time>2026-04-12T12:27:08.963Z</time></trkpt><trkpt lat="45.3489403849736" lon="13.676873126477368"><ele>0.0</ele><time>2026-04-12T12:28:33.963Z</time></trkpt><trkpt lat="45.34902000204166" lon="13.67676156350565"><ele>0.0</ele><time>2026-04-12T12:28:35.963Z</time></trkpt><trkpt lat="45.34904978508598" lon="13.676645696907702"><ele>0.0</ele><time>2026-04-12T12:28:36.963Z</time></trkpt><trkpt lat="45.34907657912903" lon="13.676509109107988"><ele>0.0</ele><time>2026-04-12T12:28:37.963Z</time></trkpt><trkpt lat="45.349120339474545" lon="13.676342199111476"><ele>0.0</ele><time>2026-04-12T12:28:38.963Z</time></trkpt><trkpt lat="45.34915616724649" lon="13.676174540816662"><ele>0.0</ele><time>2026-04-12T12:28:39.963Z</time></trkpt><trkpt lat="45.349188457488104" lon="13.6760114522944"><ele>0.0</ele><time>2026-04-12T12:28:40.963Z</time></trkpt><trkpt lat="45.349218066070165" lon="13.675853638704737"><ele>0.0</ele><time>2026-04-12T12:28:41.963Z</time></trkpt><trkpt lat="45.3492335417727" lon="13.675696853650624"><ele>0.0</ele><time>2026-04-12T12:28:42.962Z</time></trkpt><trkpt lat="45.34925203815828" lon="13.675539585732194"><ele>0.0</ele><time>2026-04-12T12:28:43.962Z</time></trkpt><trkpt lat="45.34926884398134" lon="13.675399141819282"><ele>0.0</ele><time>2026-04-12T12:28:44.962Z</time></trkpt><trkpt lat="45.34928260643011" lon="13.675264135634563"><ele>-0.2</ele><time>2026-04-12T12:28:45.962Z</time></trkpt><trkpt lat="45.349289536003816" lon="13.675120841756973"><ele>-0.4</ele><time>2026-04-12T12:28:46.962Z</time></trkpt><trkpt lat="45.34928960069105" lon="13.67496677105229"><ele>-0.6000000000000001</ele><time>2026-04-12T12:28:47.962Z</time></trkpt><trkpt lat="45.34929144811443" lon="13.674808225180914"><ele>-0.8</ele><time>2026-04-12T12:28:48.962Z</time></trkpt><trkpt lat="45.34929751932387" lon="13.674649597542512"><ele>-1.0</ele><time>2026-04-12T12:28:49.962Z</time></trkpt><trkpt lat="45.34929680543384" lon="13.674478289936404"><ele>-0.75</ele><time>2026-04-12T12:28:50.962Z</time></trkpt><trkpt lat="45.3492834938737" lon="13.67427864725559"><ele>-0.5</ele><time>2026-04-12T12:28:51.962Z</time></trkpt><trkpt lat="45.34926526762405" lon="13.674064437762208"><ele>-0.25</ele><time>2026-04-12T12:28:52.962Z</time></trkpt><trkpt lat="45.349241514414075" lon="13.673858122835922"><ele>0.0</ele><time>2026-04-12T12:28:53.962Z</time></trkpt><trkpt lat="45.349213514093776" lon="13.673653871827376"><ele>0.25</ele><time>2026-04-12T12:28:54.962Z</time></trkpt><trkpt lat="45.34918351730415" lon="13.67346208347186"><ele>0.5</ele><time>2026-04-12T12:28:55.962Z</time></trkpt><trkpt lat="45.34914901075997" lon="13.673286771050298"><ele>0.75</ele><time>2026-04-12T12:28:56.962Z</time></trkpt><trkpt lat="45.3491132116282" lon="13.673123830867667"><ele>1.0</ele><time>2026-04-12T12:28:57.962Z</time></trkpt><trkpt lat="45.34909392559535" lon="13.672962321214625"><ele>1.0</ele><time>2026-04-12T12:28:58.962Z</time></trkpt><trkpt lat="45.34905586224436" lon="13.672814946394004"><ele>1.0</ele><time>2026-04-12T12:28:59.962Z</time></trkpt><trkpt lat="45.34901267017025" lon="13.672670662172553"><ele>1.0</ele><time>2026-04-12T12:29:00.962Z</time></trkpt><trkpt lat="45.34896668576039" lon="13.67253239727988"><ele>1.0</ele><time>2026-04-12T12:29:01.962Z</time></trkpt><trkpt lat="45.34891672522532" lon="13.67239091373844"><ele>1.0</ele><time>2026-04-12T12:29:02.962Z</time></trkpt><trkpt lat="45.34886389802366" lon="13.672253092018371"><ele>1.0</ele><time>2026-04-12T12:29:03.962Z</time></trkpt><trkpt lat="45.34880847147423" lon="13.672122382188228"><ele>1.0</ele><time>2026-04-12T12:29:04.962Z</time></trkpt><trkpt lat="45.34874818531067" lon="13.671983994744163"><ele>1.0</ele><time>2026-04-12T12:29:05.962Z</time></trkpt><trkpt lat="45.34868401334181" lon="13.671837951895492"><ele>1.0</ele><time>2026-04-12T12:29:06.962Z</time></trkpt><trkpt lat="45.34860824743183" lon="13.671681665088908"><ele>1.0</ele><time>2026-04-12T12:29:07.962Z</time></trkpt><trkpt lat="45.348526283899574" lon="13.671527828899976"><ele>1.0</ele><time>2026-04-12T12:29:08.962Z</time></trkpt><trkpt lat="45.348438879462954" lon="13.671374617617884"><ele>1.0</ele><time>2026-04-12T12:29:09.962Z</time></trkpt><trkpt lat="45.34834479642551" lon="13.67121667291886"><ele>1.0</ele><time>2026-04-12T12:29:10.962Z</time></trkpt><trkpt lat="45.348246341737806" lon="13.671069796512825"><ele>0.8</ele><time>2026-04-12T12:29:11.962Z</time></trkpt><trkpt lat="45.34815233988246" lon="13.670948247734701"><ele>0.6000000000000001</ele><time>2026-04-12T12:29:12.962Z</time></trkpt><trkpt lat="45.348070103734145" lon="13.67084101527254"><ele>0.4</ele><time>2026-04-12T12:29:13.962Z</time></trkpt><trkpt lat="45.34800440639698" lon="13.670767055013822"><ele>0.2</ele><time>2026-04-12T12:29:14.962Z</time></trkpt><trkpt lat="45.34799878496192" lon="13.67066458163162"><ele>0.0</ele><time>2026-04-12T12:29:17.962Z</time></trkpt><trkpt lat="45.34811141623398" lon="13.670491080482595"><ele>-0.2</ele><time>2026-04-12T12:29:44.962Z</time></trkpt><trkpt lat="45.348193616241424" lon="13.670375142906492"><ele>-0.4</ele><time>2026-04-12T12:29:46.962Z</time></trkpt><trkpt lat="45.348311051306986" lon="13.67026248085664"><ele>-0.6000000000000001</ele><time>2026-04-12T12:29:48.962Z</time></trkpt><trkpt lat="45.348365596788184" lon="13.670202655273668"><ele>-0.8</ele><time>2026-04-12T12:29:49.962Z</time></trkpt><trkpt lat="45.34845998350637" lon="13.670114089401507"><ele>-1.0</ele><time>2026-04-12T12:29:51.962Z</time></trkpt><trkpt lat="45.348509833262256" lon="13.670059029583765"><ele>-1.1666666666666665</ele><time>2026-04-12T12:29:52.962Z</time></trkpt><trkpt lat="45.348569175206734" lon="13.669982957015032"><ele>-1.3333333333333333</ele><time>2026-04-12T12:29:53.962Z</time></trkpt><trkpt lat="45.34863459946303" lon="13.669910580960734"><ele>-1.5</ele><time>2026-04-12T12:29:54.962Z</time></trkpt><trkpt lat="45.348700226957725" lon="13.66983766027448"><ele>-1.6666666666666665</ele><time>2026-04-12T12:29:55.962Z</time></trkpt><trkpt lat="45.34876153184944" lon="13.66976829291038"><ele>-1.8333333333333333</ele><time>2026-04-12T12:29:56.962Z</time></trkpt><trkpt lat="45.34882280262741" lon="13.669700195521328"><ele>-2.0</ele><time>2026-04-12T12:29:57.962Z</time></trkpt><trkpt lat="45.34887560416624" lon="13.669635520799268"><ele>-1.8333333333333333</ele><time>2026-04-12T12:29:58.962Z</time></trkpt><trkpt lat="45.34892682171368" lon="13.669563383503775"><ele>-1.6666666666666665</ele><time>2026-04-12T12:29:59.962Z</time></trkpt><trkpt lat="45.34903541946023" lon="13.669448181427027"><ele>-1.5</ele><time>2026-04-12T12:30:01.962Z</time></trkpt><trkpt lat="45.34910254322304" lon="13.669378846901525"><ele>-1.3333333333333333</ele><time>2026-04-12T12:30:02.962Z</time></trkpt><trkpt lat="45.34915682214695" lon="13.669318853270154"><ele>-1.1666666666666665</ele><time>2026-04-12T12:30:03.961Z</time></trkpt><trkpt lat="45.349215624998486" lon="13.669254332999854"><ele>-1.0</ele><time>2026-04-12T12:30:04.961Z</time></trkpt><trkpt lat="45.34926508471127" lon="13.669196003379943"><ele>-1.0</ele><time>2026-04-12T12:30:05.961Z</time></trkpt><trkpt lat="45.34931692522689" lon="13.669127083087124"><ele>-0.9999999999999999</ele><time>2026-04-12T12:30:06.961Z</time></trkpt><trkpt lat="45.349371007719945" lon="13.66906654166572"><ele>-1.0</ele><time>2026-04-12T12:30:07.961Z</time></trkpt><trkpt lat="45.34942818146933" lon="13.66900277902541"><ele>-1.0</ele><time>2026-04-12T12:30:08.961Z</time></trkpt><trkpt lat="45.34947947276859" lon="13.668930753639138"><ele>-0.9999999999999999</ele><time>2026-04-12T12:30:09.961Z</time></trkpt><trkpt lat="45.349539326725946" lon="13.668857009976229"><ele>-1.0</ele><time>2026-04-12T12:30:10.961Z</time></trkpt><trkpt lat="45.34959657664094" lon="13.668794786001076"><ele>-1.0</ele><time>2026-04-12T12:30:11.961Z</time></trkpt><trkpt lat="45.34966035169067" lon="13.668718408084624"><ele>-0.9999999999999999</ele><time>2026-04-12T12:30:12.961Z</time></trkpt><trkpt lat="45.34972910487656" lon="13.668642962130232"><ele>-1.0</ele><time>2026-04-12T12:30:13.961Z</time></trkpt><trkpt lat="45.34979220189944" lon="13.668565534080754"><ele>-1.0</ele><time>2026-04-12T12:30:14.961Z</time></trkpt><trkpt lat="45.34986107439575" lon="13.668484386334478"><ele>-1.0</ele><time>2026-04-12T12:30:15.961Z</time></trkpt><trkpt lat="45.349936062445984" lon="13.668402892668844"><ele>-0.9999999999999999</ele><time>2026-04-12T12:30:16.961Z</time></trkpt><trkpt lat="45.35000430409814" lon="13.66833298105217"><ele>-1.0</ele><time>2026-04-12T12:30:17.961Z</time></trkpt><trkpt lat="45.35006073644825" lon="13.668274334173821"><ele>-0.8333333333333333</ele><time>2026-04-12T12:30:18.961Z</time></trkpt><trkpt lat="45.350118692503536" lon="13.668207130186978"><ele>-0.6666666666666666</ele><time>2026-04-12T12:30:19.961Z</time></trkpt><trkpt lat="45.35017368859521" lon="13.668138038794828"><ele>-0.5</ele><time>2026-04-12T12:30:20.961Z</time></trkpt><trkpt lat="45.35022561898962" lon="13.668072192802997"><ele>-0.3333333333333333</ele><time>2026-04-12T12:30:21.961Z</time></trkpt><trkpt lat="45.35029124681928" lon="13.66800584324248"><ele>-0.16666666666666666</ele><time>2026-04-12T12:30:22.961Z</time></trkpt><trkpt lat="45.35036270337351" lon="13.66793327513241"><ele>0.0</ele><time>2026-04-12T12:30:23.961Z</time></trkpt><trkpt lat="45.35042227359499" lon="13.667861713686436"><ele>0.0</ele><time>2026-04-12T12:30:24.961Z</time></trkpt><trkpt lat="45.35048281963434" lon="13.6677982909374"><ele>0.0</ele><time>2026-04-12T12:30:25.961Z</time></trkpt><trkpt lat="45.35055164012639" lon="13.667724031159613"><ele>0.0</ele><time>2026-04-12T12:30:26.961Z</time></trkpt><trkpt lat="45.35061126130287" lon="13.66764080529296"><ele>0.0</ele><time>2026-04-12T12:30:27.961Z</time></trkpt><trkpt lat="45.350685050680056" lon="13.667550545902516"><ele>0.0</ele><time>2026-04-12T12:30:28.961Z</time></trkpt><trkpt lat="45.35076330709958" lon="13.667470119168295"><ele>0.0</ele><time>2026-04-12T12:30:29.961Z</time></trkpt><trkpt lat="45.3508431566537" lon="13.667385859674836"><ele>0.0</ele><time>2026-04-12T12:30:30.961Z</time></trkpt><trkpt lat="45.350923943624075" lon="13.667299666070699"><ele>0.0</ele><time>2026-04-12T12:30:31.961Z</time></trkpt><trkpt lat="45.350995449326305" lon="13.667218412600704"><ele>0.0</ele><time>2026-04-12T12:30:32.961Z</time></trkpt><trkpt lat="45.35107046945728" lon="13.667139786898877"><ele>0.0</ele><time>2026-04-12T12:30:33.961Z</time></trkpt><trkpt lat="45.351147988880015" lon="13.66706845381338"><ele>0.0</ele><time>2026-04-12T12:30:34.961Z</time></trkpt><trkpt lat="45.35122203587067" lon="13.66698508695861"><ele>-0.2</ele><time>2026-04-12T12:30:35.961Z</time></trkpt><trkpt lat="45.35129356225" lon="13.666894859670494"><ele>-0.4</ele><time>2026-04-12T12:30:36.961Z</time></trkpt><trkpt lat="45.35137734917981" lon="13.666806110280577"><ele>-0.6000000000000001</ele><time>2026-04-12T12:30:37.961Z</time></trkpt><trkpt lat="45.35144512205896" lon="13.666733656295214"><ele>-0.8</ele><time>2026-04-12T12:30:38.961Z</time></trkpt><trkpt lat="45.35151505257837" lon="13.666650245875699"><ele>-1.0</ele><time>2026-04-12T12:30:39.961Z</time></trkpt><trkpt lat="45.351592327272584" lon="13.666566787315906"><ele>-0.9999999999999999</ele><time>2026-04-12T12:30:40.961Z</time></trkpt><trkpt lat="45.351653375427695" lon="13.666494527512612"><ele>-1.0</ele><time>2026-04-12T12:30:41.961Z</time></trkpt><trkpt lat="45.351711542338535" lon="13.666426277899143"><ele>-1.0</ele><time>2026-04-12T12:30:42.961Z</time></trkpt><trkpt lat="45.35176893659443" lon="13.666374861066203"><ele>-1.0</ele><time>2026-04-12T12:30:43.961Z</time></trkpt><trkpt lat="45.35183961959426" lon="13.666274826980656"><ele>-0.9999999999999999</ele><time>2026-04-12T12:30:45.961Z</time></trkpt><trkpt lat="45.35187485461841" lon="13.666181547247804"><ele>-1.0</ele><time>2026-04-12T12:30:47.961Z</time></trkpt><trkpt lat="45.35184647464727" lon="13.666078404690348"><ele>-1.0</ele><time>2026-04-12T12:30:49.961Z</time></trkpt><trkpt lat="45.35178364659257" lon="13.665949950463904"><ele>-1.0</ele><time>2026-04-12T12:30:51.961Z</time></trkpt><trkpt lat="45.35172792580482" lon="13.66587853615726"><ele>-1.0</ele><time>2026-04-12T12:30:52.961Z</time></trkpt><trkpt lat="45.35165970948632" lon="13.665761091770506"><ele>-1.0</ele><time>2026-04-12T12:30:54.961Z</time></trkpt><trkpt lat="45.35159829702702" lon="13.665637796123011"><ele>-1.0</ele><time>2026-04-12T12:30:56.961Z</time></trkpt><trkpt lat="45.351552779948555" lon="13.665566075565874"><ele>-0.9999999999999999</ele><time>2026-04-12T12:30:57.961Z</time></trkpt><trkpt lat="45.35151639989983" lon="13.665484877947648"><ele>-1.0</ele><time>2026-04-12T12:30:58.961Z</time></trkpt><trkpt lat="45.351474504451495" lon="13.66541082009613"><ele>-1.0</ele><time>2026-04-12T12:30:59.961Z</time></trkpt><trkpt lat="45.351429003311466" lon="13.665340426234291"><ele>-1.0</ele><time>2026-04-12T12:31:00.961Z</time></trkpt><trkpt lat="45.35136945628165" lon="13.665210242920764"><ele>-0.9999999999999999</ele><time>2026-04-12T12:31:02.961Z</time></trkpt><trkpt lat="45.35132221843236" lon="13.66510687689334"><ele>-1.0</ele><time>2026-04-12T12:31:04.961Z</time></trkpt><trkpt lat="45.35124645639727" lon="13.665000574107708"><ele>-1.2000000000000002</ele><time>2026-04-12T12:31:06.961Z</time></trkpt><trkpt lat="45.35119876400575" lon="13.664935831741298"><ele>-1.4000000000000001</ele><time>2026-04-12T12:31:07.961Z</time></trkpt><trkpt lat="45.35111933649502" lon="13.664911261035291"><ele>-1.6</ele><time>2026-04-12T12:31:09.961Z</time></trkpt><trkpt lat="45.35112094723334" lon="13.664783944351173"><ele>-1.8</ele><time>2026-04-12T12:31:11.961Z</time></trkpt><trkpt lat="45.35118562525956" lon="13.664686131210578"><ele>-2.0</ele><time>2026-04-12T12:31:13.961Z</time></trkpt><trkpt lat="45.35128450105361" lon="13.664586395832055"><ele>-1.9999999999999998</ele><time>2026-04-12T12:31:15.961Z</time></trkpt><trkpt lat="45.35134377149161" lon="13.664513009900844"><ele>-2.0</ele><time>2026-04-12T12:31:16.961Z</time></trkpt><trkpt lat="45.35139467239978" lon="13.664455598624272"><ele>-2.0</ele><time>2026-04-12T12:31:17.961Z</time></trkpt><trkpt lat="45.35145439905933" lon="13.664388388821312"><ele>-2.0</ele><time>2026-04-12T12:31:18.961Z</time></trkpt><trkpt lat="45.35151245470632" lon="13.664329342341825"><ele>-1.9999999999999998</ele><time>2026-04-12T12:31:19.961Z</time></trkpt><trkpt lat="45.35158660934472" lon="13.664288692096529"><ele>-2.0</ele><time>2026-04-12T12:31:20.961Z</time></trkpt><trkpt lat="45.351688896041445" lon="13.664223531863634"><ele>-1.6666666666666665</ele><time>2026-04-12T12:31:21.961Z</time></trkpt><trkpt lat="45.3517707213831" lon="13.664164906518774"><ele>-1.3333333333333333</ele><time>2026-04-12T12:31:22.961Z</time></trkpt><trkpt lat="45.351842979227726" lon="13.664095312521871"><ele>-1.0</ele><time>2026-04-12T12:31:23.961Z</time></trkpt><trkpt lat="45.351919314853575" lon="13.664046340778883"><ele>-0.6666666666666666</ele><time>2026-04-12T12:31:24.961Z</time></trkpt><trkpt lat="45.35199384304713" lon="13.664001509693952"><ele>-0.3333333333333333</ele><time>2026-04-12T12:31:25.961Z</time></trkpt><trkpt lat="45.35206613814473" lon="13.663958408669943"><ele>0.0</ele><time>2026-04-12T12:31:26.961Z</time></trkpt><trkpt lat="45.352153669200696" lon="13.663931672529642"><ele>-0.4</ele><time>2026-04-12T12:31:27.961Z</time></trkpt><trkpt lat="45.35224255916931" lon="13.663906696836241"><ele>-0.8</ele><time>2026-04-12T12:31:28.961Z</time></trkpt><trkpt lat="45.3523443840405" lon="13.663868852550724"><ele>-1.2000000000000002</ele><time>2026-04-12T12:31:29.961Z</time></trkpt><trkpt lat="45.35243783955506" lon="13.663822705104655"><ele>-1.6</ele><time>2026-04-12T12:31:30.961Z</time></trkpt><trkpt lat="45.352523683128275" lon="13.663767518183557"><ele>-2.0</ele><time>2026-04-12T12:31:31.961Z</time></trkpt><trkpt lat="45.35260583748299" lon="13.6637166490905"><ele>-1.9999999999999998</ele><time>2026-04-12T12:31:32.961Z</time></trkpt><trkpt lat="45.352688883221546" lon="13.66367790049392"><ele>-2.0</ele><time>2026-04-12T12:31:33.961Z</time></trkpt><trkpt lat="45.35277572901982" lon="13.663635596489382"><ele>-2.0</ele><time>2026-04-12T12:31:34.961Z</time></trkpt><trkpt lat="45.352850335653784" lon="13.663597979194806"><ele>-2.0</ele><time>2026-04-12T12:31:35.961Z</time></trkpt><trkpt lat="45.35292618302792" lon="13.66355236420339"><ele>-1.9999999999999998</ele><time>2026-04-12T12:31:36.961Z</time></trkpt><trkpt lat="45.353007340383584" lon="13.6635091570887"><ele>-2.0</ele><time>2026-04-12T12:31:37.961Z</time></trkpt><trkpt lat="45.3530904382204" lon="13.663467247794587"><ele>-1.4000000000000001</ele><time>2026-04-12T12:31:38.961Z</time></trkpt><trkpt lat="45.35318199251317" lon="13.66341992058494"><ele>-0.8000000000000002</ele><time>2026-04-12T12:31:39.961Z</time></trkpt><trkpt lat="45.35327302731103" lon="13.663368952888401"><ele>-0.19999999999999996</ele><time>2026-04-12T12:31:40.961Z</time></trkpt><trkpt lat="45.35335741016922" lon="13.663315088403214"><ele>0.4</ele><time>2026-04-12T12:31:41.961Z</time></trkpt><trkpt lat="45.353443195258066" lon="13.663270280317558"><ele>1.0</ele><time>2026-04-12T12:31:42.961Z</time></trkpt><trkpt lat="45.35352164441229" lon="13.663231098922726"><ele>1.0</ele><time>2026-04-12T12:31:43.961Z</time></trkpt><trkpt lat="45.35361361691538" lon="13.663186018159147"><ele>1.0</ele><time>2026-04-12T12:31:44.961Z</time></trkpt><trkpt lat="45.35371269076939" lon="13.663138528210764"><ele>1.0</ele><time>2026-04-12T12:31:45.961Z</time></trkpt><trkpt lat="45.35380394953737" lon="13.663083060655019"><ele>1.0</ele><time>2026-04-12T12:31:46.961Z</time></trkpt><trkpt lat="45.35390568259855" lon="13.663029799072591"><ele>1.0</ele><time>2026-04-12T12:31:47.962Z</time></trkpt><trkpt lat="45.35400385393709" lon="13.6629758514921"><ele>1.2000000000000002</ele><time>2026-04-12T12:31:48.962Z</time></trkpt><trkpt lat="45.35410288451296" lon="13.662921768185912"><ele>1.4000000000000001</ele><time>2026-04-12T12:31:49.962Z</time></trkpt><trkpt lat="45.3542007824584" lon="13.662868270672737"><ele>1.6</ele><time>2026-04-12T12:31:50.962Z</time></trkpt><trkpt lat="45.35428982034188" lon="13.662809349289311"><ele>1.8</ele><time>2026-04-12T12:31:51.962Z</time></trkpt><trkpt lat="45.3543696352317" lon="13.662750505966054"><ele>2.0</ele><time>2026-04-12T12:31:52.962Z</time></trkpt><trkpt lat="45.35444882562985" lon="13.662705303777637"><ele>2.0</ele><time>2026-04-12T12:31:53.962Z</time></trkpt><trkpt lat="45.354530134520296" lon="13.66266689779821"><ele>2.0</ele><time>2026-04-12T12:31:54.962Z</time></trkpt><trkpt lat="45.35462957477543" lon="13.662623453211648"><ele>2.0</ele><time>2026-04-12T12:31:55.962Z</time></trkpt><trkpt lat="45.35472563065008" lon="13.662578668062821"><ele>2.0</ele><time>2026-04-12T12:31:56.962Z</time></trkpt><trkpt lat="45.35481179438846" lon="13.662532112864227"><ele>2.0</ele><time>2026-04-12T12:31:57.962Z</time></trkpt><trkpt lat="45.354882540643814" lon="13.662481767379102"><ele>1.8333333333333333</ele><time>2026-04-12T12:31:58.962Z</time></trkpt><trkpt lat="45.35494971388592" lon="13.662430409686037"><ele>1.6666666666666665</ele><time>2026-04-12T12:31:59.962Z</time></trkpt><trkpt lat="45.35502267056457" lon="13.662388660175644"><ele>1.5</ele><time>2026-04-12T12:32:00.962Z</time></trkpt><trkpt lat="45.355102379723476" lon="13.662352057016097"><ele>1.3333333333333333</ele><time>2026-04-12T12:32:01.962Z</time></trkpt><trkpt lat="45.35518373523014" lon="13.662318045938763"><ele>1.1666666666666665</ele><time>2026-04-12T12:32:02.962Z</time></trkpt><trkpt lat="45.35526571449455" lon="13.662283371254887"><ele>1.0</ele><time>2026-04-12T12:32:03.962Z</time></trkpt><trkpt lat="45.35536140173562" lon="13.662253181835936"><ele>1.0</ele><time>2026-04-12T12:32:04.962Z</time></trkpt><trkpt lat="45.35545339369042" lon="13.662205096505987"><ele>1.0</ele><time>2026-04-12T12:32:05.962Z</time></trkpt><trkpt lat="45.355535285288546" lon="13.662151520844736"><ele>1.0</ele><time>2026-04-12T12:32:06.962Z</time></trkpt><trkpt lat="45.35561858463627" lon="13.662105557009266"><ele>1.0</ele><time>2026-04-12T12:32:07.962Z</time></trkpt><trkpt lat="45.35571465304987" lon="13.662054586248416"><ele>1.0</ele><time>2026-04-12T12:32:08.962Z</time></trkpt><trkpt lat="45.355797281603394" lon="13.662006271158019"><ele>0.9999999999999999</ele><time>2026-04-12T12:32:09.962Z</time></trkpt><trkpt lat="45.3558785470226" lon="13.661961858092043"><ele>1.0</ele><time>2026-04-12T12:32:10.962Z</time></trkpt><trkpt lat="45.35595885303037" lon="13.661927065349042"><ele>1.0</ele><time>2026-04-12T12:32:11.962Z</time></trkpt><trkpt lat="45.356033543595" lon="13.66188953631023"><ele>1.0</ele><time>2026-04-12T12:32:12.962Z</time></trkpt><trkpt lat="45.35612043753616" lon="13.661859898677097"><ele>0.9999999999999999</ele><time>2026-04-12T12:32:13.962Z</time></trkpt><trkpt lat="45.35621000700841" lon="13.661803163301785"><ele>1.0</ele><time>2026-04-12T12:32:14.962Z</time></trkpt><trkpt lat="45.356307855836796" lon="13.66175501098573"><ele>1.6</ele><time>2026-04-12T12:32:15.962Z</time></trkpt><trkpt lat="45.35640094131045" lon="13.66172052107529"><ele>2.2</ele><time>2026-04-12T12:32:16.962Z</time></trkpt><trkpt lat="45.356494081897154" lon="13.661702371463884"><ele>2.8000000000000003</ele><time>2026-04-12T12:32:17.962Z</time></trkpt><trkpt lat="45.356590686677" lon="13.661703086826968"><ele>3.4000000000000004</ele><time>2026-04-12T12:32:18.962Z</time></trkpt><trkpt lat="45.356689264323876" lon="13.661708258047355"><ele>4.0</ele><time>2026-04-12T12:32:19.962Z</time></trkpt><trkpt lat="45.35679282169904" lon="13.66172378306495"><ele>4.0</ele><time>2026-04-12T12:32:20.962Z</time></trkpt><trkpt lat="45.35688799795983" lon="13.661744390298045"><ele>4.0</ele><time>2026-04-12T12:32:21.962Z</time></trkpt><trkpt lat="45.35697078672414" lon="13.661753772435041"><ele>4.0</ele><time>2026-04-12T12:32:22.962Z</time></trkpt><trkpt lat="45.35707671678039" lon="13.661754615693072"><ele>4.0</ele><time>2026-04-12T12:32:23.962Z</time></trkpt><trkpt lat="45.357178117771575" lon="13.661762955344232"><ele>4.0</ele><time>2026-04-12T12:32:24.962Z</time></trkpt><trkpt lat="45.35726989370859" lon="13.661772347420037"><ele>4.0</ele><time>2026-04-12T12:32:25.962Z</time></trkpt><trkpt lat="45.35737405844386" lon="13.661783907335613"><ele>4.0</ele><time>2026-04-12T12:32:26.962Z</time></trkpt><trkpt lat="45.35747593736732" lon="13.66180023983018"><ele>4.0</ele><time>2026-04-12T12:32:27.962Z</time></trkpt><trkpt lat="45.35756709937397" lon="13.661816618996207"><ele>4.0</ele><time>2026-04-12T12:32:28.962Z</time></trkpt><trkpt lat="45.35767150270874" lon="13.66184017996025"><ele>4.0</ele><time>2026-04-12T12:32:29.962Z</time></trkpt><trkpt lat="45.35777112062321" lon="13.661846664524742"><ele>3.9999999999999996</ele><time>2026-04-12T12:32:30.962Z</time></trkpt><trkpt lat="45.35787134412969" lon="13.661856099035266"><ele>4.0</ele><time>2026-04-12T12:32:31.962Z</time></trkpt><trkpt lat="45.35796412173675" lon="13.661870955536278"><ele>4.0</ele><time>2026-04-12T12:32:32.962Z</time></trkpt><trkpt lat="45.35805696004299" lon="13.661885207762037"><ele>4.0</ele><time>2026-04-12T12:32:33.962Z</time></trkpt><trkpt lat="45.3581390870503" lon="13.661906318222055"><ele>3.9999999999999996</ele><time>2026-04-12T12:32:34.962Z</time></trkpt><trkpt lat="45.35821027174095" lon="13.66193818628597"><ele>4.0</ele><time>2026-04-12T12:32:35.962Z</time></trkpt><trkpt lat="45.35828258014458" lon="13.661992485197095"><ele>4.333333333333333</ele><time>2026-04-12T12:32:36.962Z</time></trkpt><trkpt lat="45.35834363854096" lon="13.662057111717308"><ele>4.666666666666666</ele><time>2026-04-12T12:32:37.962Z</time></trkpt><trkpt lat="45.3584019684115" lon="13.662120572083898"><ele>5.0</ele><time>2026-04-12T12:32:38.962Z</time></trkpt><trkpt lat="45.35847119699928" lon="13.662161244993204"><ele>5.333333333333333</ele><time>2026-04-12T12:32:39.962Z</time></trkpt><trkpt lat="45.35854812123344" lon="13.662173356955467"><ele>5.666666666666667</ele><time>2026-04-12T12:32:40.962Z</time></trkpt><trkpt lat="45.35863187944441" lon="13.66219328145247"><ele>6.0</ele><time>2026-04-12T12:32:41.962Z</time></trkpt><trkpt lat="45.35872129442585" lon="13.662204593409632"><ele>6.0</ele><time>2026-04-12T12:32:42.962Z</time></trkpt><trkpt lat="45.35880998102982" lon="13.662210045357167"><ele>6.0</ele><time>2026-04-12T12:32:43.962Z</time></trkpt><trkpt lat="45.35891667729909" lon="13.662229520632104"><ele>6.0</ele><time>2026-04-12T12:32:44.962Z</time></trkpt><trkpt lat="45.35902162940016" lon="13.662241088783167"><ele>6.0</ele><time>2026-04-12T12:32:45.962Z</time></trkpt><trkpt lat="45.35911756893964" lon="13.662249098997648"><ele>6.0</ele><time>2026-04-12T12:32:46.962Z</time></trkpt><trkpt lat="45.35921776137766" lon="13.662256209738125"><ele>6.0</ele><time>2026-04-12T12:32:47.962Z</time></trkpt><trkpt lat="45.3593127219553" lon="13.662265578519145"><ele>6.0</ele><time>2026-04-12T12:32:48.962Z</time></trkpt><trkpt lat="45.35939905624405" lon="13.662275989514779"><ele>6.0</ele><time>2026-04-12T12:32:49.962Z</time></trkpt><trkpt lat="45.35948717368655" lon="13.662294059037274"><ele>6.0</ele><time>2026-04-12T12:32:50.962Z</time></trkpt><trkpt lat="45.3595816660978" lon="13.662302781240903"><ele>6.0</ele><time>2026-04-12T12:32:51.962Z</time></trkpt><trkpt lat="45.359686961567185" lon="13.662314735422466"><ele>6.199999999999999</ele><time>2026-04-12T12:32:52.962Z</time></trkpt><trkpt lat="45.35980898571536" lon="13.662324021918982"><ele>6.3999999999999995</ele><time>2026-04-12T12:32:53.962Z</time></trkpt><trkpt lat="45.35990988801032" lon="13.662333165054603"><ele>6.6</ele><time>2026-04-12T12:32:54.962Z</time></trkpt><trkpt lat="45.360012175210024" lon="13.662344148722582"><ele>6.8</ele><time>2026-04-12T12:32:55.962Z</time></trkpt><trkpt lat="45.360092871773595" lon="13.662371446512045"><ele>7.0</ele><time>2026-04-12T12:32:56.962Z</time></trkpt><trkpt lat="45.36017628496115" lon="13.662383912250485"><ele>7.0</ele><time>2026-04-12T12:32:57.962Z</time></trkpt><trkpt lat="45.360268376867175" lon="13.662384723386417"><ele>6.999999999999999</ele><time>2026-04-12T12:32:58.962Z</time></trkpt><trkpt lat="45.36036500206642" lon="13.662382083581896"><ele>6.999999999999999</ele><time>2026-04-12T12:32:59.962Z</time></trkpt><trkpt lat="45.36046045572155" lon="13.662392971029243"><ele>7.0</ele><time>2026-04-12T12:33:00.962Z</time></trkpt><trkpt lat="45.36056250126541" lon="13.662413052332694"><ele>7.0</ele><time>2026-04-12T12:33:01.962Z</time></trkpt><trkpt lat="45.36066184334681" lon="13.662427084363804"><ele>6.6</ele><time>2026-04-12T12:33:02.962Z</time></trkpt><trkpt lat="45.360760669422156" lon="13.662419535749535"><ele>6.199999999999999</ele><time>2026-04-12T12:33:03.962Z</time></trkpt><trkpt lat="45.36085570407287" lon="13.662412940287195"><ele>5.8</ele><time>2026-04-12T12:33:04.962Z</time></trkpt><trkpt lat="45.36095172742544" lon="13.662428371089602"><ele>5.4</ele><time>2026-04-12T12:33:05.962Z</time></trkpt><trkpt lat="45.36105222068508" lon="13.6624461714717"><ele>5.0</ele><time>2026-04-12T12:33:06.962Z</time></trkpt><trkpt lat="45.36114467168996" lon="13.66245355117626"><ele>5.0</ele><time>2026-04-12T12:33:07.962Z</time></trkpt><trkpt lat="45.361248836327526" lon="13.662455804537398"><ele>5.0</ele><time>2026-04-12T12:33:08.962Z</time></trkpt><trkpt lat="45.361360240189065" lon="13.662472997349903"><ele>5.0</ele><time>2026-04-12T12:33:09.962Z</time></trkpt><trkpt lat="45.361472082083374" lon="13.662488138736814"><ele>5.0</ele><time>2026-04-12T12:33:10.962Z</time></trkpt><trkpt lat="45.3615858380928" lon="13.662499961202041"><ele>5.0</ele><time>2026-04-12T12:33:11.962Z</time></trkpt><trkpt lat="45.361691564871556" lon="13.662506073944932"><ele>5.4</ele><time>2026-04-12T12:33:12.962Z</time></trkpt><trkpt lat="45.3617914582498" lon="13.662511248772732"><ele>5.8</ele><time>2026-04-12T12:33:13.962Z</time></trkpt><trkpt lat="45.36187684693894" lon="13.662520524579588"><ele>6.199999999999999</ele><time>2026-04-12T12:33:14.962Z</time></trkpt><trkpt lat="45.36194491651874" lon="13.662528300699597"><ele>6.6</ele><time>2026-04-12T12:33:15.962Z</time></trkpt><trkpt lat="45.36202812270278" lon="13.66260858162393"><ele>7.0</ele><time>2026-04-12T12:33:17.962Z</time></trkpt><trkpt lat="45.36207012249912" lon="13.662747758104668"><ele>6.75</ele><time>2026-04-12T12:33:19.962Z</time></trkpt><trkpt lat="45.36209042404554" lon="13.662950603701681"><ele>6.5</ele><time>2026-04-12T12:33:21.962Z</time></trkpt><trkpt lat="45.36210886297135" lon="13.66309432820938"><ele>6.25</ele><time>2026-04-12T12:33:22.962Z</time></trkpt><trkpt lat="45.362136447458816" lon="13.663250125085835"><ele>6.0</ele><time>2026-04-12T12:33:23.962Z</time></trkpt><trkpt lat="45.362168011089665" lon="13.663386225030864"><ele>6.0</ele><time>2026-04-12T12:33:24.962Z</time></trkpt><trkpt lat="45.36219540249505" lon="13.663509293406436"><ele>6.0</ele><time>2026-04-12T12:33:25.962Z</time></trkpt><trkpt lat="45.36221784682387" lon="13.66364140366826"><ele>6.0</ele><time>2026-04-12T12:33:26.962Z</time></trkpt><trkpt lat="45.36226448918146" lon="13.663764163346817"><ele>6.0</ele><time>2026-04-12T12:33:27.962Z</time></trkpt><trkpt lat="45.36229429676255" lon="13.663879384370846"><ele>6.0</ele><time>2026-04-12T12:33:28.962Z</time></trkpt><trkpt lat="45.36231485061937" lon="13.663989314252424"><ele>7.0</ele><time>2026-04-12T12:33:29.962Z</time></trkpt><trkpt lat="45.36232257859761" lon="13.664082651440962"><ele>8.0</ele><time>2026-04-12T12:33:30.962Z</time></trkpt><trkpt lat="45.36233240513885" lon="13.664226217562295"><ele>9.0</ele><time>2026-04-12T12:33:32.962Z</time></trkpt><trkpt lat="45.362393074595886" lon="13.664270105593"><ele>10.0</ele><time>2026-04-12T12:33:34.962Z</time></trkpt><trkpt lat="45.36245484972161" lon="13.664289403459113"><ele>11.0</ele><time>2026-04-12T12:33:36.962Z</time></trkpt><trkpt lat="45.362509301611865" lon="13.664239839797915"><ele>12.0</ele><time>2026-04-12T12:33:38.962Z</time></trkpt><trkpt lat="45.362628834476006" lon="13.664202767225616"><ele>12.0</ele><time>2026-04-12T12:33:40.962Z</time></trkpt><trkpt lat="45.36270930267418" lon="13.664207024658479"><ele>12.0</ele><time>2026-04-12T12:33:41.962Z</time></trkpt><trkpt lat="45.36278162245482" lon="13.664226895388293"><ele>12.0</ele><time>2026-04-12T12:33:42.962Z</time></trkpt><trkpt lat="45.36285310387256" lon="13.664246416929146"><ele>12.0</ele><time>2026-04-12T12:33:43.962Z</time></trkpt><trkpt lat="45.36295730416612" lon="13.664273849168072"><ele>12.0</ele><time>2026-04-12T12:33:44.962Z</time></trkpt><trkpt lat="45.36306562517714" lon="13.664298209940604"><ele>12.0</ele><time>2026-04-12T12:33:45.962Z</time></trkpt><trkpt lat="45.36317735343794" lon="13.664311800584034"><ele>12.0</ele><time>2026-04-12T12:33:46.962Z</time></trkpt><trkpt lat="45.363271698260654" lon="13.664315778104061"><ele>12.0</ele><time>2026-04-12T12:33:47.962Z</time></trkpt><trkpt lat="45.36335413269626" lon="13.664325861985544"><ele>12.0</ele><time>2026-04-12T12:33:48.962Z</time></trkpt><trkpt lat="45.3634378411701" lon="13.66433742512628"><ele>12.0</ele><time>2026-04-12T12:33:49.962Z</time></trkpt><trkpt lat="45.36352556207395" lon="13.664332894681523"><ele>12.0</ele><time>2026-04-12T12:33:50.962Z</time></trkpt><trkpt lat="45.363599891632994" lon="13.664318996135448"><ele>12.0</ele><time>2026-04-12T12:33:51.962Z</time></trkpt><trkpt lat="45.363679474867894" lon="13.664296131474636"><ele>12.0</ele><time>2026-04-12T12:33:52.962Z</time></trkpt><trkpt lat="45.36375618612811" lon="13.664277963917515"><ele>12.0</ele><time>2026-04-12T12:33:53.962Z</time></trkpt><trkpt lat="45.36384313586063" lon="13.664254638543609"><ele>12.0</ele><time>2026-04-12T12:33:54.963Z</time></trkpt><trkpt lat="45.363927144236015" lon="13.66422582361339"><ele>12.0</ele><time>2026-04-12T12:33:55.963Z</time></trkpt><trkpt lat="45.36403906985842" lon="13.664178953122242"><ele>12.0</ele><time>2026-04-12T12:33:56.963Z</time></trkpt><trkpt lat="45.364140319311296" lon="13.664128497425523"><ele>13.2</ele><time>2026-04-12T12:33:57.963Z</time></trkpt><trkpt lat="45.364240011311196" lon="13.664098566442746"><ele>14.399999999999999</ele><time>2026-04-12T12:33:58.963Z</time></trkpt><trkpt lat="45.364347685088056" lon="13.664064775763492"><ele>15.600000000000001</ele><time>2026-04-12T12:33:59.963Z</time></trkpt><trkpt lat="45.364448626912235" lon="13.664034422999878"><ele>16.8</ele><time>2026-04-12T12:34:00.963Z</time></trkpt><trkpt lat="45.36454369959274" lon="13.664004076644767"><ele>18.0</ele><time>2026-04-12T12:34:01.963Z</time></trkpt><trkpt lat="45.36464494871499" lon="13.663972204090408"><ele>18.75</ele><time>2026-04-12T12:34:02.963Z</time></trkpt><trkpt lat="45.36476536353628" lon="13.66392126137109"><ele>19.5</ele><time>2026-04-12T12:34:03.962Z</time></trkpt><trkpt lat="45.36487247437988" lon="13.663886333400393"><ele>20.25</ele><time>2026-04-12T12:34:04.962Z</time></trkpt><trkpt lat="45.364982164027545" lon="13.663861918470879"><ele>21.0</ele><time>2026-04-12T12:34:05.962Z</time></trkpt><trkpt lat="45.36508970005267" lon="13.663835808887795"><ele>21.0</ele><time>2026-04-12T12:34:06.962Z</time></trkpt><trkpt lat="45.36520035386112" lon="13.663815172633685"><ele>21.0</ele><time>2026-04-12T12:34:07.962Z</time></trkpt><trkpt lat="45.365312622314306" lon="13.663799626121172"><ele>21.0</ele><time>2026-04-12T12:34:08.962Z</time></trkpt><trkpt lat="45.36542425350332" lon="13.663788008287652"><ele>21.0</ele><time>2026-04-12T12:34:09.963Z</time></trkpt><trkpt lat="45.365530525976276" lon="13.663774618057479"><ele>21.0</ele><time>2026-04-12T12:34:10.963Z</time></trkpt><trkpt lat="45.365628650282574" lon="13.66376976144307"><ele>21.666666666666668</ele><time>2026-04-12T12:34:11.963Z</time></trkpt><trkpt lat="45.36572697193212" lon="13.663776921676162"><ele>22.333333333333336</ele><time>2026-04-12T12:34:12.963Z</time></trkpt><trkpt lat="45.3658006872809" lon="13.663814565426291"><ele>23.0</ele><time>2026-04-12T12:34:13.963Z</time></trkpt><trkpt lat="45.36587060185472" lon="13.663862973630799"><ele>23.666666666666668</ele><time>2026-04-12T12:34:14.963Z</time></trkpt><trkpt lat="45.36592449118151" lon="13.663919026418563"><ele>24.333333333333336</ele><time>2026-04-12T12:34:15.963Z</time></trkpt><trkpt lat="45.366010584068306" lon="13.664017830001164"><ele>25.0</ele><time>2026-04-12T12:34:17.963Z</time></trkpt><trkpt lat="45.36609595524077" lon="13.664055629882096"><ele>25.0</ele><time>2026-04-12T12:34:19.963Z</time></trkpt><trkpt lat="45.3662168816564" lon="13.664013759907608"><ele>25.0</ele><time>2026-04-12T12:34:21.963Z</time></trkpt><trkpt lat="45.36628916410856" lon="13.664004701007284"><ele>25.0</ele><time>2026-04-12T12:34:22.963Z</time></trkpt><trkpt lat="45.366379996541745" lon="13.663978510136783"><ele>25.0</ele><time>2026-04-12T12:34:24.963Z</time></trkpt><trkpt lat="45.366493432639544" lon="13.663986065103431"><ele>25.0</ele><time>2026-04-12T12:34:26.963Z</time></trkpt><trkpt lat="45.36661318232124" lon="13.663990523418672"><ele>24.2</ele><time>2026-04-12T12:34:28.963Z</time></trkpt><trkpt lat="45.366722476620936" lon="13.664015320399349"><ele>23.4</ele><time>2026-04-12T12:34:30.963Z</time></trkpt><trkpt lat="45.36683881580271" lon="13.664022516244561"><ele>22.6</ele><time>2026-04-12T12:34:32.963Z</time></trkpt><trkpt lat="45.366953213864186" lon="13.664065245190192"><ele>21.8</ele><time>2026-04-12T12:34:34.963Z</time></trkpt><trkpt lat="45.367030708016756" lon="13.664106730281704"><ele>21.0</ele><time>2026-04-12T12:34:35.963Z</time></trkpt><trkpt lat="45.367144892498004" lon="13.664147892423403"><ele>22.833333333333332</ele><time>2026-04-12T12:34:37.963Z</time></trkpt><trkpt lat="45.36725359411868" lon="13.664147306778673"><ele>24.666666666666664</ele><time>2026-04-12T12:34:39.963Z</time></trkpt><trkpt lat="45.36736599584225" lon="13.664140636972459"><ele>26.5</ele><time>2026-04-12T12:34:41.963Z</time></trkpt><trkpt lat="45.36744121674748" lon="13.664153165221943"><ele>28.333333333333332</ele><time>2026-04-12T12:34:42.963Z</time></trkpt><trkpt lat="45.36751262468583" lon="13.664150018133416"><ele>30.166666666666664</ele><time>2026-04-12T12:34:43.963Z</time></trkpt><trkpt lat="45.367589497029016" lon="13.664144959307215"><ele>32.0</ele><time>2026-04-12T12:34:44.963Z</time></trkpt><trkpt lat="45.36766388602027" lon="13.664166535455392"><ele>32.0</ele><time>2026-04-12T12:34:45.963Z</time></trkpt><trkpt lat="45.367752827455185" lon="13.664185877485284"><ele>31.999999999999996</ele><time>2026-04-12T12:34:46.963Z</time></trkpt><trkpt lat="45.3678137411283" lon="13.664215033161513"><ele>32.0</ele><time>2026-04-12T12:34:47.963Z</time></trkpt><trkpt lat="45.36788326329657" lon="13.664255146174174"><ele>32.0</ele><time>2026-04-12T12:34:48.963Z</time></trkpt><trkpt lat="45.36794902264825" lon="13.664299192193141"><ele>31.999999999999996</ele><time>2026-04-12T12:34:49.963Z</time></trkpt><trkpt lat="45.368004037217446" lon="13.664365237114378"><ele>32.0</ele><time>2026-04-12T12:34:50.963Z</time></trkpt><trkpt lat="45.36805597809591" lon="13.66442987388297"><ele>32.0</ele><time>2026-04-12T12:34:51.963Z</time></trkpt><trkpt lat="45.36810954217659" lon="13.66450322748747"><ele>33.33333333333333</ele><time>2026-04-12T12:34:52.963Z</time></trkpt><trkpt lat="45.36816734215985" lon="13.664574627851"><ele>34.666666666666664</ele><time>2026-04-12T12:34:53.963Z</time></trkpt><trkpt lat="45.36824797395296" lon="13.664668930566592"><ele>36.0</ele><time>2026-04-12T12:34:55.963Z</time></trkpt><trkpt lat="45.36830130178465" lon="13.664745381860945"><ele>37.333333333333336</ele><time>2026-04-12T12:34:56.963Z</time></trkpt><trkpt lat="45.36836248133321" lon="13.664804002849545"><ele>38.66666666666667</ele><time>2026-04-12T12:34:57.963Z</time></trkpt><trkpt lat="45.36841551754484" lon="13.6648920905329"><ele>40.0</ele><time>2026-04-12T12:34:58.963Z</time></trkpt><trkpt lat="45.368482101311415" lon="13.664931329129374"><ele>40.0</ele><time>2026-04-12T12:34:59.963Z</time></trkpt><trkpt lat="45.368552546138886" lon="13.664966536380833"><ele>40.0</ele><time>2026-04-12T12:35:00.963Z</time></trkpt><trkpt lat="45.36861879333633" lon="13.665024323017116"><ele>40.0</ele><time>2026-04-12T12:35:01.963Z</time></trkpt><trkpt lat="45.36868662711771" lon="13.665054120137784"><ele>40.0</ele><time>2026-04-12T12:35:02.963Z</time></trkpt><trkpt lat="45.368785104568964" lon="13.665138724076172"><ele>40.0</ele><time>2026-04-12T12:35:04.963Z</time></trkpt><trkpt lat="45.368851324800964" lon="13.66517334779871"><ele>40.0</ele><time>2026-04-12T12:35:05.963Z</time></trkpt><trkpt lat="45.36891198164359" lon="13.665205668291092"><ele>41.333333333333336</ele><time>2026-04-12T12:35:06.963Z</time></trkpt><trkpt lat="45.368979390624006" lon="13.665247428856595"><ele>42.66666666666667</ele><time>2026-04-12T12:35:07.963Z</time></trkpt><trkpt lat="45.36905091939575" lon="13.665295142171903"><ele>44.0</ele><time>2026-04-12T12:35:08.963Z</time></trkpt><trkpt lat="45.36909928144924" lon="13.665355453930953"><ele>45.333333333333336</ele><time>2026-04-12T12:35:09.963Z</time></trkpt><trkpt lat="45.369165558786996" lon="13.665402383905775"><ele>46.666666666666664</ele><time>2026-04-12T12:35:10.963Z</time></trkpt><trkpt lat="45.36925254870259" lon="13.665469145013327"><ele>48.0</ele><time>2026-04-12T12:35:12.963Z</time></trkpt><trkpt lat="45.369315916029834" lon="13.665544367362827"><ele>48.0</ele><time>2026-04-12T12:35:14.963Z</time></trkpt><trkpt lat="45.369415787848666" lon="13.665599054759948"><ele>48.0</ele><time>2026-04-12T12:35:16.963Z</time></trkpt><trkpt lat="45.36947660783742" lon="13.665644047461068"><ele>48.0</ele><time>2026-04-12T12:35:17.963Z</time></trkpt><trkpt lat="45.3695672975738" lon="13.665713772709408"><ele>48.0</ele><time>2026-04-12T12:35:19.963Z</time></trkpt><trkpt lat="45.369645967899494" lon="13.665736219244165"><ele>48.0</ele><time>2026-04-12T12:35:20.963Z</time></trkpt><trkpt lat="45.36970467624452" lon="13.665771358717521"><ele>48.0</ele><time>2026-04-12T12:35:21.963Z</time></trkpt><trkpt lat="45.369807851500276" lon="13.66583572765676"><ele>53.0</ele><time>2026-04-12T12:35:23.963Z</time></trkpt><trkpt lat="45.369946285351915" lon="13.665905202062923"><ele>58.0</ele><time>2026-04-12T12:35:25.963Z</time></trkpt><trkpt lat="45.37000766395307" lon="13.665930650947418"><ele>63.0</ele><time>2026-04-12T12:35:26.963Z</time></trkpt><trkpt lat="45.37007695882843" lon="13.665947134877262"><ele>68.0</ele><time>2026-04-12T12:35:27.963Z</time></trkpt><trkpt lat="45.37015606342266" lon="13.666030189472295"><ele>73.0</ele><time>2026-04-12T12:35:29.963Z</time></trkpt><trkpt lat="45.370234620048635" lon="13.666034298311288"><ele>73.0</ele><time>2026-04-12T12:53:05.978Z</time></trkpt><trkpt lat="45.37029441079022" lon="13.66608540871921"><ele>73.0</ele><time>2026-04-12T12:53:08.978Z</time></trkpt><trkpt lat="45.37035450974694" lon="13.66614453196561"><ele>73.0</ele><time>2026-04-12T12:53:10.978Z</time></trkpt><trkpt lat="45.37044165345901" lon="13.666130304145431"><ele>73.0</ele><time>2026-04-12T12:53:13.978Z</time></trkpt><trkpt lat="45.370543763234906" lon="13.666134367649445"><ele>73.0</ele><time>2026-04-12T12:53:15.978Z</time></trkpt><trkpt lat="45.3706635123721" lon="13.666078362363054"><ele>75.0</ele><time>2026-04-12T12:53:17.978Z</time></trkpt><trkpt lat="45.370747447096015" lon="13.666025721940345"><ele>77.0</ele><time>2026-04-12T12:53:19.978Z</time></trkpt><trkpt lat="45.37080791208827" lon="13.66594703064611"><ele>79.0</ele><time>2026-04-12T12:53:21.978Z</time></trkpt><trkpt lat="45.3708325240217" lon="13.66586121373801"><ele>81.0</ele><time>2026-04-12T12:53:23.978Z</time></trkpt><trkpt lat="45.37079846672963" lon="13.665782038853541"><ele>83.0</ele><time>2026-04-12T12:53:25.978Z</time></trkpt><trkpt lat="45.370748609713985" lon="13.665715721948914"><ele>85.0</ele><time>2026-04-12T12:53:26.978Z</time></trkpt><trkpt lat="45.37070345297877" lon="13.665645953798016"><ele>87.0</ele><time>2026-04-12T12:53:27.978Z</time></trkpt><trkpt lat="45.37060952146695" lon="13.665496031288685"><ele>87.0</ele><time>2026-04-12T12:53:29.978Z</time></trkpt><trkpt lat="45.3705644315738" lon="13.665432885503028"><ele>87.0</ele><time>2026-04-12T12:53:30.978Z</time></trkpt><trkpt lat="45.3704805308636" lon="13.665305598038595"><ele>87.0</ele><time>2026-04-12T12:53:32.978Z</time></trkpt><trkpt lat="45.370406802000836" lon="13.665174983290768"><ele>87.0</ele><time>2026-04-12T12:53:34.978Z</time></trkpt><trkpt lat="45.37036877977996" lon="13.665095087688883"><ele>87.0</ele><time>2026-04-12T12:53:35.978Z</time></trkpt><trkpt lat="45.370314674609084" lon="13.665007245071877"><ele>88.19999999999999</ele><time>2026-04-12T12:53:36.978Z</time></trkpt><trkpt lat="45.370270976310465" lon="13.66492401081624"><ele>89.4</ele><time>2026-04-12T12:53:37.978Z</time></trkpt><trkpt lat="45.37021872180314" lon="13.664792677964774"><ele>90.6</ele><time>2026-04-12T12:53:39.978Z</time></trkpt><trkpt lat="45.37014348246563" lon="13.664628436407833"><ele>91.80000000000001</ele><time>2026-04-12T12:53:41.978Z</time></trkpt><trkpt lat="45.37010581166696" lon="13.664460610321907"><ele>93.0</ele><time>2026-04-12T12:53:43.978Z</time></trkpt><trkpt lat="45.3700856593891" lon="13.664360967549761"><ele>95.80000000000001</ele><time>2026-04-12T12:53:44.978Z</time></trkpt><trkpt lat="45.370067269481346" lon="13.664178818644164"><ele>98.6</ele><time>2026-04-12T12:53:46.978Z</time></trkpt><trkpt lat="45.3700660033232" lon="13.664040907507157"><ele>101.39999999999999</ele><time>2026-04-12T12:53:48.978Z</time></trkpt><trkpt lat="45.37012439525334" lon="13.663923772759041"><ele>104.19999999999999</ele><time>2026-04-12T12:53:52.978Z</time></trkpt><trkpt lat="45.3702255924064" lon="13.663830175476214"><ele>107.0</ele><time>2026-04-12T12:53:54.978Z</time></trkpt><trkpt lat="45.37032044010791" lon="13.66373716954165"><ele>107.0</ele><time>2026-04-12T12:53:56.978Z</time></trkpt><trkpt lat="45.370408492953054" lon="13.66364965575848"><ele>107.0</ele><time>2026-04-12T12:53:58.978Z</time></trkpt><trkpt lat="45.37049330038078" lon="13.663527982361991"><ele>107.0</ele><time>2026-04-12T12:54:00.978Z</time></trkpt><trkpt lat="45.370547114600015" lon="13.66337125170693"><ele>107.0</ele><time>2026-04-12T12:54:02.978Z</time></trkpt><trkpt lat="45.37055869164296" lon="13.663211181812978"><ele>109.16666666666666</ele><time>2026-04-12T12:54:04.978Z</time></trkpt><trkpt lat="45.370586340066296" lon="13.663083474014483"><ele>111.33333333333333</ele><time>2026-04-12T12:54:06.978Z</time></trkpt><trkpt lat="45.370650508261" lon="13.663018146564253"><ele>113.5</ele><time>2026-04-12T12:54:08.978Z</time></trkpt><trkpt lat="45.370724409642655" lon="13.662993388422294"><ele>115.66666666666666</ele><time>2026-04-12T12:54:10.978Z</time></trkpt><trkpt lat="45.370831414317344" lon="13.66294503410686"><ele>117.83333333333333</ele><time>2026-04-12T13:05:30.996Z</time></trkpt><trkpt lat="45.37091334646086" lon="13.662901916882316"><ele>120.0</ele><time>2026-04-12T13:05:32.996Z</time></trkpt><trkpt lat="45.371000684244976" lon="13.66281408418331"><ele>120.8</ele><time>2026-04-12T13:05:34.996Z</time></trkpt><trkpt lat="45.3710510010362" lon="13.662753863739313"><ele>121.6</ele><time>2026-04-12T13:05:35.996Z</time></trkpt><trkpt lat="45.37112849389364" lon="13.662616419921333"><ele>122.4</ele><time>2026-04-12T13:05:37.995Z</time></trkpt><trkpt lat="45.37115967263439" lon="13.662537143127514"><ele>123.2</ele><time>2026-04-12T13:05:38.995Z</time></trkpt><trkpt lat="45.37119109514553" lon="13.662452763951716"><ele>124.0</ele><time>2026-04-12T13:05:39.995Z</time></trkpt><trkpt lat="45.37127256075679" lon="13.66229694604211"><ele>124.0</ele><time>2026-04-12T13:05:41.995Z</time></trkpt><trkpt lat="45.37132115823585" lon="13.662162816189383"><ele>124.0</ele><time>2026-04-12T13:05:43.995Z</time></trkpt><trkpt lat="45.37134866788003" lon="13.662081834439794"><ele>124.0</ele><time>2026-04-12T13:05:44.995Z</time></trkpt><trkpt lat="45.371406349595624" lon="13.661959193457092"><ele>124.0</ele><time>2026-04-12T13:05:46.995Z</time></trkpt><trkpt lat="45.37150568057976" lon="13.661875559018155"><ele>124.0</ele><time>2026-04-12T13:05:48.995Z</time></trkpt><trkpt lat="45.371602136507896" lon="13.66179292767782"><ele>124.66666666666667</ele><time>2026-04-12T13:05:50.995Z</time></trkpt><trkpt lat="45.37165681340294" lon="13.661742846791325"><ele>125.33333333333334</ele><time>2026-04-12T13:05:51.995Z</time></trkpt><trkpt lat="45.37171337555711" lon="13.661670701732412"><ele>126.0</ele><time>2026-04-12T13:05:52.995Z</time></trkpt><trkpt lat="45.37176160910017" lon="13.661599716309315"><ele>126.66666666666666</ele><time>2026-04-12T13:05:53.995Z</time></trkpt><trkpt lat="45.37183181248007" lon="13.661439398051803"><ele>127.33333333333333</ele><time>2026-04-12T13:05:55.995Z</time></trkpt><trkpt lat="45.371854797713695" lon="13.661350827157"><ele>128.0</ele><time>2026-04-12T13:05:56.995Z</time></trkpt><trkpt lat="45.37189174646819" lon="13.661169360337114"><ele>128.4</ele><time>2026-04-12T13:05:58.995Z</time></trkpt><trkpt lat="45.37190424135542" lon="13.661078760391913"><ele>128.8</ele><time>2026-04-12T13:05:59.995Z</time></trkpt><trkpt lat="45.37194554968475" lon="13.66091344202935"><ele>129.2</ele><time>2026-04-12T13:06:01.995Z</time></trkpt><trkpt lat="45.37202327717459" lon="13.660789930691449"><ele>129.6</ele><time>2026-04-12T13:06:03.995Z</time></trkpt><trkpt lat="45.37213309812815" lon="13.660686651495766"><ele>130.0</ele><time>2026-04-12T13:06:05.995Z</time></trkpt><trkpt lat="45.37221788685901" lon="13.660582608804164"><ele>130.33333333333334</ele><time>2026-04-12T13:06:07.995Z</time></trkpt><trkpt lat="45.37229725783298" lon="13.660560016399229"><ele>130.66666666666669</ele><time>2026-04-12T13:06:09.995Z</time></trkpt><trkpt lat="45.372368533810025" lon="13.66049893420194"><ele>131.0</ele><time>2026-04-12T13:06:11.995Z</time></trkpt><trkpt lat="45.37240118604707" lon="13.66040012706579"><ele>131.33333333333334</ele><time>2026-04-12T13:06:13.995Z</time></trkpt><trkpt lat="45.37240089240774" lon="13.660299656066568"><ele>131.66666666666666</ele><time>2026-04-12T13:06:14.995Z</time></trkpt><trkpt lat="45.372395277000834" lon="13.660195944855595"><ele>132.0</ele><time>2026-04-12T13:06:15.995Z</time></trkpt><trkpt lat="45.37239527421982" lon="13.660102027295155"><ele>133.0</ele><time>2026-04-12T13:06:16.995Z</time></trkpt><trkpt lat="45.37243075207544" lon="13.65994418542909"><ele>134.0</ele><time>2026-04-12T13:06:18.995Z</time></trkpt><trkpt lat="45.3724897413053" lon="13.65985591914335"><ele>135.0</ele><time>2026-04-12T13:06:20.995Z</time></trkpt><trkpt lat="45.37256565831192" lon="13.65978929742098"><ele>136.0</ele><time>2026-04-12T13:06:22.995Z</time></trkpt><trkpt lat="45.372655799477585" lon="13.659684096947709"><ele>137.0</ele><time>2026-04-12T13:06:24.995Z</time></trkpt><trkpt lat="45.37275438712272" lon="13.659646334488727"><ele>137.0</ele><time>2026-04-12T13:06:26.995Z</time></trkpt><trkpt lat="45.37285979904214" lon="13.659614306982489"><ele>137.0</ele><time>2026-04-12T13:06:28.995Z</time></trkpt><trkpt lat="45.372917963256086" lon="13.659564719156426"><ele>137.0</ele><time>2026-04-12T13:06:29.995Z</time></trkpt><trkpt lat="45.373021111710344" lon="13.659470793642432"><ele>137.0</ele><time>2026-04-12T13:06:31.995Z</time></trkpt><trkpt lat="45.373101186041296" lon="13.659340022353776"><ele>137.0</ele><time>2026-04-12T13:06:33.995Z</time></trkpt><trkpt lat="45.37314007298032" lon="13.65919874543598"><ele>139.5</ele><time>2026-04-12T13:06:35.995Z</time></trkpt><trkpt lat="45.373149754915204" lon="13.659017611431446"><ele>142.0</ele><time>2026-04-12T13:06:37.995Z</time></trkpt><trkpt lat="45.3731691021166" lon="13.658843914322128"><ele>144.5</ele><time>2026-04-12T13:06:39.995Z</time></trkpt><trkpt lat="45.37323249209924" lon="13.65868886883601"><ele>147.0</ele><time>2026-04-12T13:06:41.995Z</time></trkpt><trkpt lat="45.37331422194112" lon="13.658558097216659"><ele>147.0</ele><time>2026-04-12T13:06:43.995Z</time></trkpt><trkpt lat="45.37341300541095" lon="13.658451517945783"><ele>147.0</ele><time>2026-04-12T13:06:45.995Z</time></trkpt><trkpt lat="45.37346658233993" lon="13.658389032266975"><ele>147.0</ele><time>2026-04-12T13:06:46.995Z</time></trkpt><trkpt lat="45.373524786633084" lon="13.658319912776733"><ele>147.0</ele><time>2026-04-12T13:06:47.995Z</time></trkpt><trkpt lat="45.373582992630254" lon="13.658256225273906"><ele>147.0</ele><time>2026-04-12T13:06:48.995Z</time></trkpt><trkpt lat="45.37364560109975" lon="13.658226649936394"><ele>147.0</ele><time>2026-04-12T13:06:49.995Z</time></trkpt><trkpt lat="45.37371210825523" lon="13.658205539462525"><ele>147.0</ele><time>2026-04-12T13:06:50.995Z</time></trkpt><trkpt lat="45.373780174699526" lon="13.658179432033512"><ele>147.0</ele><time>2026-04-12T13:06:51.995Z</time></trkpt><trkpt lat="45.3738524510094" lon="13.658141007758621"><ele>147.0</ele><time>2026-04-12T13:06:52.995Z</time></trkpt><trkpt lat="45.37393151606028" lon="13.65810640005762"><ele>147.0</ele><time>2026-04-12T13:06:53.995Z</time></trkpt><trkpt lat="45.37405223637475" lon="13.658096566322138"><ele>147.0</ele><time>2026-04-12T13:06:55.995Z</time></trkpt><trkpt lat="45.37412205198446" lon="13.658107126268135"><ele>147.0</ele><time>2026-04-12T13:06:57.995Z</time></trkpt><trkpt lat="45.37418678281237" lon="13.658172420515328"><ele>149.5</ele><time>2026-04-12T13:06:59.994Z</time></trkpt><trkpt lat="45.37429039940692" lon="13.658355845046032"><ele>152.0</ele><time>2026-04-12T13:07:02.994Z</time></trkpt><trkpt lat="45.374357981990386" lon="13.658493712309411"><ele>154.5</ele><time>2026-04-12T13:07:04.994Z</time></trkpt><trkpt lat="45.37439946726364" lon="13.658629035154698"><ele>157.0</ele><time>2026-04-12T13:07:06.994Z</time></trkpt><trkpt lat="45.374415897674844" lon="13.658722691612583"><ele>157.6</ele><time>2026-04-12T13:07:07.994Z</time></trkpt><trkpt lat="45.37445529267632" lon="13.658922954238715"><ele>158.2</ele><time>2026-04-12T13:07:09.994Z</time></trkpt><trkpt lat="45.374498432901746" lon="13.659040965099887"><ele>158.8</ele><time>2026-04-12T13:07:10.994Z</time></trkpt><trkpt lat="45.37452858410664" lon="13.659161143109502"><ele>159.4</ele><time>2026-04-12T13:07:11.994Z</time></trkpt><trkpt lat="45.37456695840132" lon="13.659256495936527"><ele>160.0</ele><time>2026-04-12T13:07:12.994Z</time></trkpt><trkpt lat="45.374603333560735" lon="13.659363617346823"><ele>160.0</ele><time>2026-04-12T13:07:13.994Z</time></trkpt><trkpt lat="45.37464320165556" lon="13.65945081169062"><ele>160.0</ele><time>2026-04-12T13:07:14.994Z</time></trkpt><trkpt lat="45.37468457206035" lon="13.6595254545999"><ele>160.0</ele><time>2026-04-12T13:07:15.994Z</time></trkpt><trkpt lat="45.374722856086166" lon="13.659619123383509"><ele>160.0</ele><time>2026-04-12T13:07:16.994Z</time></trkpt><trkpt lat="45.37476374102612" lon="13.659691373093144"><ele>160.0</ele><time>2026-04-12T13:07:17.994Z</time></trkpt><trkpt lat="45.37481040087923" lon="13.65976238221506"><ele>160.0</ele><time>2026-04-12T13:07:18.994Z</time></trkpt><trkpt lat="45.37489064584885" lon="13.659895298450815"><ele>160.0</ele><time>2026-04-12T13:07:20.994Z</time></trkpt><trkpt lat="45.374934359177665" lon="13.659970503082505"><ele>160.0</ele><time>2026-04-12T13:07:21.994Z</time></trkpt><trkpt lat="45.37499276827586" lon="13.660061605518028"><ele>160.0</ele><time>2026-04-12T13:07:22.994Z</time></trkpt><trkpt lat="45.37505439412301" lon="13.660162997981205"><ele>160.0</ele><time>2026-04-12T13:07:23.994Z</time></trkpt><trkpt lat="45.375122731903026" lon="13.660278932734114"><ele>160.0</ele><time>2026-04-12T13:07:24.994Z</time></trkpt><trkpt lat="45.37519231154848" lon="13.660391019822502"><ele>160.0</ele><time>2026-04-12T13:07:25.994Z</time></trkpt><trkpt lat="45.375261389977176" lon="13.660493552125757"><ele>160.0</ele><time>2026-04-12T13:07:26.994Z</time></trkpt><trkpt lat="45.37533070992714" lon="13.660594281369962"><ele>160.0</ele><time>2026-04-12T13:07:27.994Z</time></trkpt><trkpt lat="45.375404717637046" lon="13.660708709935736"><ele>160.0</ele><time>2026-04-12T13:07:28.994Z</time></trkpt><trkpt lat="45.37548069598184" lon="13.660820093751699"><ele>160.0</ele><time>2026-04-12T13:07:29.994Z</time></trkpt><trkpt lat="45.37555452876083" lon="13.660930073933542"><ele>160.0</ele><time>2026-04-12T13:07:30.994Z</time></trkpt><trkpt lat="45.3756196067351" lon="13.661036673183803"><ele>160.0</ele><time>2026-04-12T13:07:31.994Z</time></trkpt><trkpt lat="45.37567164624015" lon="13.661135785584536"><ele>160.0</ele><time>2026-04-12T13:07:32.994Z</time></trkpt><trkpt lat="45.37571203982431" lon="13.661235483934764"><ele>160.0</ele><time>2026-04-12T13:07:33.994Z</time></trkpt><trkpt lat="45.37574184770212" lon="13.661333277812394"><ele>160.0</ele><time>2026-04-12T13:07:34.994Z</time></trkpt><trkpt lat="45.375763826909164" lon="13.661424911852345"><ele>160.0</ele><time>2026-04-12T13:07:35.994Z</time></trkpt><trkpt lat="45.375787924373775" lon="13.661530269076167"><ele>160.6</ele><time>2026-04-12T13:07:36.994Z</time></trkpt><trkpt lat="45.375822990753406" lon="13.66164876445069"><ele>161.2</ele><time>2026-04-12T13:07:37.994Z</time></trkpt><trkpt lat="45.37587786399476" lon="13.661752897634154"><ele>161.8</ele><time>2026-04-12T13:07:38.994Z</time></trkpt><trkpt lat="45.37589041200496" lon="13.66188514894739"><ele>162.4</ele><time>2026-04-12T13:07:39.994Z</time></trkpt><trkpt lat="45.375918489007596" lon="13.662006517333776"><ele>163.0</ele><time>2026-04-12T13:07:40.994Z</time></trkpt><trkpt lat="45.375955644251974" lon="13.662119071561474"><ele>163.0</ele><time>2026-04-12T13:07:41.994Z</time></trkpt><trkpt lat="45.3760174461877" lon="13.66223757596111"><ele>163.0</ele><time>2026-04-12T13:07:42.994Z</time></trkpt><trkpt lat="45.37606710594931" lon="13.66237436211461"><ele>163.0</ele><time>2026-04-12T13:07:43.994Z</time></trkpt><trkpt lat="45.376116602701586" lon="13.66252091059228"><ele>163.0</ele><time>2026-04-12T13:07:44.994Z</time></trkpt><trkpt lat="45.3761735263934" lon="13.662669404783125"><ele>163.0</ele><time>2026-04-12T13:07:45.994Z</time></trkpt><trkpt lat="45.37623144022273" lon="13.662811578409011"><ele>162.0</ele><time>2026-04-12T13:07:46.994Z</time></trkpt><trkpt lat="45.376279523529355" lon="13.662954445574243"><ele>161.0</ele><time>2026-04-12T13:07:47.994Z</time></trkpt><trkpt lat="45.37633757012378" lon="13.663087083437656"><ele>160.0</ele><time>2026-04-12T13:07:48.994Z</time></trkpt><trkpt lat="45.3763920624415" lon="13.663234682195284"><ele>159.0</ele><time>2026-04-12T13:07:49.994Z</time></trkpt><trkpt lat="45.37645953993218" lon="13.663393257221411"><ele>160.75</ele><time>2026-04-12T13:07:50.994Z</time></trkpt><trkpt lat="45.376520947392024" lon="13.663561335603925"><ele>162.5</ele><time>2026-04-12T13:07:51.994Z</time></trkpt><trkpt lat="45.37658827055261" lon="13.663731496175023"><ele>164.25</ele><time>2026-04-12T13:07:52.994Z</time></trkpt><trkpt lat="45.376671235294346" lon="13.663890936394688"><ele>166.0</ele><time>2026-04-12T13:07:53.994Z</time></trkpt><trkpt lat="45.37675752109033" lon="13.664024597633311"><ele>166.0</ele><time>2026-04-12T13:07:54.994Z</time></trkpt><trkpt lat="45.376845025250084" lon="13.664155713196248"><ele>166.0</ele><time>2026-04-12T13:07:55.994Z</time></trkpt><trkpt lat="45.376933081116896" lon="13.664286698228427"><ele>166.0</ele><time>2026-04-12T13:07:56.994Z</time></trkpt><trkpt lat="45.37702921222993" lon="13.664413204113247"><ele>166.0</ele><time>2026-04-12T13:07:57.994Z</time></trkpt><trkpt lat="45.37711791593911" lon="13.66453522905133"><ele>167.5</ele><time>2026-04-12T13:07:58.994Z</time></trkpt><trkpt lat="45.377205281446216" lon="13.66465188272086"><ele>169.0</ele><time>2026-04-12T13:07:59.994Z</time></trkpt><trkpt lat="45.3772934796495" lon="13.664764138261956"><ele>170.5</ele><time>2026-04-12T13:08:00.994Z</time></trkpt><trkpt lat="45.3773618109923" lon="13.66490293193744"><ele>172.0</ele><time>2026-04-12T13:08:01.994Z</time></trkpt><trkpt lat="45.377437275168404" lon="13.665032242780068"><ele>172.0</ele><time>2026-04-12T13:08:02.994Z</time></trkpt><trkpt lat="45.37748770352803" lon="13.665179545281479"><ele>172.0</ele><time>2026-04-12T13:08:03.994Z</time></trkpt><trkpt lat="45.377525462117994" lon="13.665337049486768"><ele>172.0</ele><time>2026-04-12T13:08:04.994Z</time></trkpt><trkpt lat="45.37754262391287" lon="13.665506466532802"><ele>172.0</ele><time>2026-04-12T13:08:05.994Z</time></trkpt><trkpt lat="45.377585243696515" lon="13.665681008520174"><ele>172.75</ele><time>2026-04-12T13:08:06.994Z</time></trkpt><trkpt lat="45.37761227226888" lon="13.665851601021936"><ele>173.5</ele><time>2026-04-12T13:08:07.994Z</time></trkpt><trkpt lat="45.37766881580486" lon="13.666018810416515"><ele>174.25</ele><time>2026-04-12T13:08:08.994Z</time></trkpt><trkpt lat="45.377706117703596" lon="13.666168063468191"><ele>175.0</ele><time>2026-04-12T13:08:09.994Z</time></trkpt><trkpt lat="45.377770058241985" lon="13.666334697838161"><ele>175.0</ele><time>2026-04-12T13:08:10.994Z</time></trkpt><trkpt lat="45.37782688729035" lon="13.666459706917921"><ele>175.0</ele><time>2026-04-12T13:08:11.994Z</time></trkpt><trkpt lat="45.3778753473602" lon="13.66656786360821"><ele>175.0</ele><time>2026-04-12T13:08:12.994Z</time></trkpt><trkpt lat="45.377912047509014" lon="13.666660124222082"><ele>175.0</ele><time>2026-04-12T13:08:13.994Z</time></trkpt><trkpt lat="45.37795017585962" lon="13.666735194485588"><ele>175.0</ele><time>2026-04-12T13:08:14.994Z</time></trkpt><trkpt lat="45.37799783389447" lon="13.666811987959608"><ele>175.0</ele><time>2026-04-12T13:08:15.994Z</time></trkpt><trkpt lat="45.37805073683433" lon="13.666894057311788"><ele>177.2</ele><time>2026-04-12T13:08:16.994Z</time></trkpt><trkpt lat="45.378111976010324" lon="13.666987080696028"><ele>179.4</ele><time>2026-04-12T13:08:17.994Z</time></trkpt><trkpt lat="45.378183321064924" lon="13.667073594419332"><ele>181.60000000000002</ele><time>2026-04-12T13:08:18.994Z</time></trkpt><trkpt lat="45.37826490067036" lon="13.667156659270882"><ele>183.8</ele><time>2026-04-12T13:08:19.994Z</time></trkpt><trkpt lat="45.37835852553543" lon="13.667241695728173"><ele>186.0</ele><time>2026-04-12T13:08:20.994Z</time></trkpt><trkpt lat="45.37845565829692" lon="13.66731526305062"><ele>186.0</ele><time>2026-04-12T13:08:21.994Z</time></trkpt><trkpt lat="45.37856853145848" lon="13.66737794938805"><ele>186.0</ele><time>2026-04-12T13:08:22.994Z</time></trkpt><trkpt lat="45.37868268533909" lon="13.667416121155904"><ele>186.0</ele><time>2026-04-12T13:08:23.993Z</time></trkpt><trkpt lat="45.378797003279566" lon="13.66744302968606"><ele>186.0</ele><time>2026-04-12T13:08:24.993Z</time></trkpt><trkpt lat="45.37891427341205" lon="13.667426870061561"><ele>187.4</ele><time>2026-04-12T13:08:25.993Z</time></trkpt><trkpt lat="45.379012496092216" lon="13.667413343239579"><ele>188.8</ele><time>2026-04-12T13:08:26.993Z</time></trkpt><trkpt lat="45.37910877056358" lon="13.667390578501317"><ele>190.20000000000002</ele><time>2026-04-12T13:08:27.993Z</time></trkpt><trkpt lat="45.37920200117872" lon="13.667369937777185"><ele>191.60000000000002</ele><time>2026-04-12T13:08:28.993Z</time></trkpt><trkpt lat="45.37929402182688" lon="13.667318835174601"><ele>193.0</ele><time>2026-04-12T13:08:29.993Z</time></trkpt><trkpt lat="45.379400865057264" lon="13.667282314847343"><ele>193.0</ele><time>2026-04-12T13:08:30.993Z</time></trkpt><trkpt lat="45.37951925889895" lon="13.667246499323706"><ele>193.0</ele><time>2026-04-12T13:08:31.993Z</time></trkpt><trkpt lat="45.37963450617761" lon="13.667217903284087"><ele>193.0</ele><time>2026-04-12T13:08:32.993Z</time></trkpt><trkpt lat="45.3797504445605" lon="13.667204519309584"><ele>193.0</ele><time>2026-04-12T13:08:33.993Z</time></trkpt><trkpt lat="45.37985633898504" lon="13.667240419487577"><ele>193.2</ele><time>2026-04-12T13:08:34.993Z</time></trkpt><trkpt lat="45.379951809615825" lon="13.667259356297802"><ele>193.4</ele><time>2026-04-12T13:08:35.993Z</time></trkpt><trkpt lat="45.38003916886026" lon="13.667253951984183"><ele>193.6</ele><time>2026-04-12T13:08:36.993Z</time></trkpt><trkpt lat="45.38012320420814" lon="13.66728951058728"><ele>193.79999999999998</ele><time>2026-04-12T13:08:37.993Z</time></trkpt><trkpt lat="45.380199935317286" lon="13.667307448511353"><ele>194.0</ele><time>2026-04-12T13:08:38.993Z</time></trkpt><trkpt lat="45.38024472352217" lon="13.667454838660918"><ele>194.0</ele><time>2026-04-12T13:08:39.993Z</time></trkpt><trkpt lat="45.380327012753575" lon="13.667531838970145"><ele>194.0</ele><time>2026-04-12T13:08:40.993Z</time></trkpt><trkpt lat="45.3803999665283" lon="13.667641182434055"><ele>194.0</ele><time>2026-04-12T13:08:41.993Z</time></trkpt><trkpt lat="45.38048502645818" lon="13.667750650471971"><ele>194.0</ele><time>2026-04-12T13:08:42.993Z</time></trkpt><trkpt lat="45.38057405779228" lon="13.667860576543893"><ele>194.0</ele><time>2026-04-12T13:08:43.993Z</time></trkpt><trkpt lat="45.38065633335473" lon="13.667966683690464"><ele>193.50000000000003</ele><time>2026-04-12T13:08:44.993Z</time></trkpt><trkpt lat="45.38073681126875" lon="13.668063266625538"><ele>193.0</ele><time>2026-04-12T13:08:45.993Z</time></trkpt><trkpt lat="45.380791005045786" lon="13.668169687957947"><ele>192.5</ele><time>2026-04-12T13:08:46.993Z</time></trkpt><trkpt lat="45.38084522504294" lon="13.66824445322508"><ele>192.0</ele><time>2026-04-12T13:08:47.993Z</time></trkpt><trkpt lat="45.38088869390567" lon="13.668319530925068"><ele>191.5</ele><time>2026-04-12T13:08:48.993Z</time></trkpt><trkpt lat="45.380939602456735" lon="13.668428480100054"><ele>191.0</ele><time>2026-04-12T13:08:50.993Z</time></trkpt><trkpt lat="45.38097678795927" lon="13.668534567337803"><ele>190.4</ele><time>2026-04-12T13:09:19.993Z</time></trkpt><trkpt lat="45.381050981362705" lon="13.668675277436291"><ele>189.8</ele><time>2026-04-12T13:09:21.993Z</time></trkpt><trkpt lat="45.381091922667785" lon="13.668775291073853"><ele>189.20000000000002</ele><time>2026-04-12T13:09:22.993Z</time></trkpt><trkpt lat="45.38112577326554" lon="13.668906520124361"><ele>188.60000000000002</ele><time>2026-04-12T13:09:23.993Z</time></trkpt><trkpt lat="45.381158459589685" lon="13.669042461678893"><ele>188.0</ele><time>2026-04-12T13:09:24.993Z</time></trkpt><trkpt lat="45.38118790709303" lon="13.669183248918806"><ele>188.0</ele><time>2026-04-12T13:09:25.993Z</time></trkpt><trkpt lat="45.381225435639905" lon="13.669336665706888"><ele>188.0</ele><time>2026-04-12T13:09:26.993Z</time></trkpt><trkpt lat="45.38126502132348" lon="13.669501395516072"><ele>188.0</ele><time>2026-04-12T13:09:27.993Z</time></trkpt><trkpt lat="45.38130520630963" lon="13.669671506208815"><ele>188.0</ele><time>2026-04-12T13:09:28.993Z</time></trkpt><trkpt lat="45.38134599390635" lon="13.669847464784013"><ele>192.5</ele><time>2026-04-12T13:09:29.993Z</time></trkpt><trkpt lat="45.38137859822119" lon="13.670029530965957"><ele>197.0</ele><time>2026-04-12T13:09:30.993Z</time></trkpt><trkpt lat="45.381415103936995" lon="13.67023091665213"><ele>201.5</ele><time>2026-04-12T13:09:31.993Z</time></trkpt><trkpt lat="45.381445002896804" lon="13.67040874003016"><ele>206.0</ele><time>2026-04-12T13:09:32.993Z</time></trkpt><trkpt lat="45.38146047024262" lon="13.670585029175747"><ele>207.0</ele><time>2026-04-12T13:09:33.993Z</time></trkpt><trkpt lat="45.381476209503475" lon="13.670771507212939"><ele>208.0</ele><time>2026-04-12T13:09:34.993Z</time></trkpt><trkpt lat="45.38148802827009" lon="13.670956979513639"><ele>209.0</ele><time>2026-04-12T13:09:35.992Z</time></trkpt><trkpt lat="45.381498082092406" lon="13.671142334572316"><ele>210.0</ele><time>2026-04-12T13:09:36.992Z</time></trkpt><trkpt lat="45.381509141620995" lon="13.671322299753925"><ele>210.25</ele><time>2026-04-12T13:09:37.992Z</time></trkpt><trkpt lat="45.38151742661481" lon="13.671509482225927"><ele>210.5</ele><time>2026-04-12T13:09:38.992Z</time></trkpt><trkpt lat="45.381522205105675" lon="13.671693409915095"><ele>210.75</ele><time>2026-04-12T13:09:39.992Z</time></trkpt><trkpt lat="45.3815239655164" lon="13.671870192446308"><ele>211.0</ele><time>2026-04-12T13:09:40.992Z</time></trkpt><trkpt lat="45.38152477194303" lon="13.672032835952523"><ele>211.0</ele><time>2026-04-12T13:09:41.992Z</time></trkpt><trkpt lat="45.381532937695575" lon="13.672179897289551"><ele>211.0</ele><time>2026-04-12T13:09:42.992Z</time></trkpt><trkpt lat="45.3815467490465" lon="13.672328413629865"><ele>211.0</ele><time>2026-04-12T13:09:43.992Z</time></trkpt><trkpt lat="45.381567187726915" lon="13.67246302928369"><ele>211.0</ele><time>2026-04-12T13:09:44.992Z</time></trkpt><trkpt lat="45.381595146815506" lon="13.672587249203218"><ele>211.0</ele><time>2026-04-12T13:09:45.992Z</time></trkpt><trkpt lat="45.381624003530156" lon="13.672720669149447"><ele>211.0</ele><time>2026-04-12T13:09:46.992Z</time></trkpt><trkpt lat="45.3816711662374" lon="13.672857808586805"><ele>211.0</ele><time>2026-04-12T13:09:47.991Z</time></trkpt><trkpt lat="45.381712020390964" lon="13.673005139464989"><ele>211.0</ele><time>2026-04-12T13:09:48.991Z</time></trkpt><trkpt lat="45.381733369795604" lon="13.673162188268092"><ele>211.0</ele><time>2026-04-12T13:09:49.991Z</time></trkpt><trkpt lat="45.38176014992523" lon="13.67331957991076"><ele>211.0</ele><time>2026-04-12T13:09:50.991Z</time></trkpt><trkpt lat="45.381773345394514" lon="13.673482389745923"><ele>210.75</ele><time>2026-04-12T13:09:51.991Z</time></trkpt><trkpt lat="45.38177733235709" lon="13.673644042187416"><ele>210.5</ele><time>2026-04-12T13:09:52.991Z</time></trkpt><trkpt lat="45.38178839357125" lon="13.673809304547042"><ele>210.25</ele><time>2026-04-12T13:09:53.991Z</time></trkpt><trkpt lat="45.381773391061024" lon="13.673967513548062"><ele>210.0</ele><time>2026-04-12T13:09:54.991Z</time></trkpt><trkpt lat="45.38175694443256" lon="13.674119133582296"><ele>210.0</ele><time>2026-04-12T13:09:55.991Z</time></trkpt><trkpt lat="45.38174369218738" lon="13.674260359183418"><ele>210.0</ele><time>2026-04-12T13:09:56.991Z</time></trkpt><trkpt lat="45.38174121732518" lon="13.674409084750998"><ele>210.0</ele><time>2026-04-12T13:09:57.991Z</time></trkpt><trkpt lat="45.38174661077036" lon="13.674559037524348"><ele>210.0</ele><time>2026-04-12T13:09:58.991Z</time></trkpt><trkpt lat="45.38177086397622" lon="13.674736605612306"><ele>210.0</ele><time>2026-04-12T13:09:59.991Z</time></trkpt><trkpt lat="45.381808422901955" lon="13.674924875229541"><ele>210.25</ele><time>2026-04-12T13:10:00.991Z</time></trkpt><trkpt lat="45.38188185162639" lon="13.675122738057569"><ele>210.5</ele><time>2026-04-12T13:10:01.991Z</time></trkpt><trkpt lat="45.381934321239676" lon="13.675303962724321"><ele>210.75</ele><time>2026-04-12T13:10:02.991Z</time></trkpt><trkpt lat="45.381986674687866" lon="13.675492498823903"><ele>211.0</ele><time>2026-04-12T13:10:03.991Z</time></trkpt><trkpt lat="45.38203754168588" lon="13.67568735994278"><ele>211.0</ele><time>2026-04-12T13:10:04.991Z</time></trkpt><trkpt lat="45.382086414079005" lon="13.675891771380057"><ele>211.0</ele><time>2026-04-12T13:10:05.991Z</time></trkpt><trkpt lat="45.382144877623325" lon="13.676101358176998"><ele>211.0</ele><time>2026-04-12T13:10:06.991Z</time></trkpt><trkpt lat="45.382208108543935" lon="13.676289074810905"><ele>211.0</ele><time>2026-04-12T13:10:07.991Z</time></trkpt><trkpt lat="45.382270210278136" lon="13.676468315978314"><ele>211.0</ele><time>2026-04-12T13:10:08.991Z</time></trkpt><trkpt lat="45.382349793060015" lon="13.676650656137275"><ele>211.0</ele><time>2026-04-12T13:10:09.991Z</time></trkpt><trkpt lat="45.38243735925669" lon="13.67682250962632"><ele>211.0</ele><time>2026-04-12T13:10:10.991Z</time></trkpt><trkpt lat="45.38252616646373" lon="13.676990116703607"><ele>211.0</ele><time>2026-04-12T13:10:11.991Z</time></trkpt><trkpt lat="45.3826118326679" lon="13.677129019644996"><ele>211.0</ele><time>2026-04-12T13:10:12.991Z</time></trkpt><trkpt lat="45.382705090447935" lon="13.677261141043301"><ele>211.0</ele><time>2026-04-12T13:10:13.991Z</time></trkpt><trkpt lat="45.38281002016413" lon="13.67738745047263"><ele>211.0</ele><time>2026-04-12T13:10:14.991Z</time></trkpt><trkpt lat="45.38289558757833" lon="13.677542623375464"><ele>211.0</ele><time>2026-04-12T13:10:15.991Z</time></trkpt><trkpt lat="45.38299930937551" lon="13.677651792981674"><ele>211.0</ele><time>2026-04-12T13:10:16.991Z</time></trkpt><trkpt lat="45.383104375499855" lon="13.677767292320608"><ele>211.0</ele><time>2026-04-12T13:10:17.991Z</time></trkpt><trkpt lat="45.383208855529325" lon="13.67788623102684"><ele>211.0</ele><time>2026-04-12T13:10:18.991Z</time></trkpt><trkpt lat="45.383305587897134" lon="13.678011170134843"><ele>210.5</ele><time>2026-04-12T13:10:19.991Z</time></trkpt><trkpt lat="45.38340969855741" lon="13.678139948831104"><ele>210.0</ele><time>2026-04-12T13:10:20.991Z</time></trkpt><trkpt lat="45.383511076488475" lon="13.678257142719799"><ele>209.5</ele><time>2026-04-12T13:10:21.991Z</time></trkpt><trkpt lat="45.383605947680124" lon="13.678388363027226"><ele>209.0</ele><time>2026-04-12T13:10:22.991Z</time></trkpt><trkpt lat="45.383691197104845" lon="13.67852690303381"><ele>209.0</ele><time>2026-04-12T13:10:23.991Z</time></trkpt><trkpt lat="45.38377292960257" lon="13.678680536669297"><ele>209.0</ele><time>2026-04-12T13:10:24.991Z</time></trkpt><trkpt lat="45.383850526962185" lon="13.678832414163658"><ele>209.0</ele><time>2026-04-12T13:10:25.991Z</time></trkpt><trkpt lat="45.38391785852743" lon="13.678978514539665"><ele>209.0</ele><time>2026-04-12T13:10:26.991Z</time></trkpt><trkpt lat="45.383971747297934" lon="13.679113608525512"><ele>209.00000000000003</ele><time>2026-04-12T13:10:27.991Z</time></trkpt><trkpt lat="45.38401926556299" lon="13.679230981018225"><ele>209.0</ele><time>2026-04-12T13:10:28.991Z</time></trkpt><trkpt lat="45.384059808059845" lon="13.679342751619187"><ele>209.0</ele><time>2026-04-12T13:10:29.991Z</time></trkpt><trkpt lat="45.384097256101114" lon="13.679439776445438"><ele>209.0</ele><time>2026-04-12T13:10:30.991Z</time></trkpt><trkpt lat="45.38413202782513" lon="13.67952792880806"><ele>209.00000000000003</ele><time>2026-04-12T13:10:31.991Z</time></trkpt><trkpt lat="45.3841645265081" lon="13.679606407453502"><ele>209.0</ele><time>2026-04-12T13:10:32.991Z</time></trkpt><trkpt lat="45.38419901982695" lon="13.679702269916643"><ele>208.79999999999998</ele><time>2026-04-12T13:10:33.991Z</time></trkpt><trkpt lat="45.38424129293604" lon="13.679806060715437"><ele>208.6</ele><time>2026-04-12T13:10:34.991Z</time></trkpt><trkpt lat="45.384278644796105" lon="13.679919630509467"><ele>208.4</ele><time>2026-04-12T13:10:35.991Z</time></trkpt><trkpt lat="45.38433074107072" lon="13.68003985213827"><ele>208.2</ele><time>2026-04-12T13:10:36.991Z</time></trkpt><trkpt lat="45.38438690562007" lon="13.680167577719029"><ele>208.0</ele><time>2026-04-12T13:10:37.991Z</time></trkpt><trkpt lat="45.38444356786103" lon="13.68029958935119"><ele>206.25</ele><time>2026-04-12T13:10:38.991Z</time></trkpt><trkpt lat="45.38449180270584" lon="13.680435816855024"><ele>204.5</ele><time>2026-04-12T13:10:39.991Z</time></trkpt><trkpt lat="45.384564476102554" lon="13.680730271226075"><ele>202.75</ele><time>2026-04-12T13:10:41.991Z</time></trkpt><trkpt lat="45.384607006540925" lon="13.680885576189265"><ele>201.0</ele><time>2026-04-12T13:10:42.991Z</time></trkpt><trkpt lat="45.38466843161168" lon="13.681048406052104"><ele>202.5</ele><time>2026-04-12T13:10:43.991Z</time></trkpt><trkpt lat="45.384699376685354" lon="13.681220876395372"><ele>204.0</ele><time>2026-04-12T13:10:44.991Z</time></trkpt><trkpt lat="45.38470868099954" lon="13.681398582577817"><ele>205.5</ele><time>2026-04-12T13:10:45.991Z</time></trkpt><trkpt lat="45.38469677895011" lon="13.681570000724415"><ele>207.0</ele><time>2026-04-12T13:10:46.991Z</time></trkpt><trkpt lat="45.38469433126615" lon="13.681734097080511"><ele>207.0</ele><time>2026-04-12T13:10:47.991Z</time></trkpt><trkpt lat="45.38469533387037" lon="13.68189628461097"><ele>207.0</ele><time>2026-04-12T13:10:48.991Z</time></trkpt><trkpt lat="45.38469446222662" lon="13.68205791488534"><ele>207.0</ele><time>2026-04-12T13:10:49.991Z</time></trkpt><trkpt lat="45.3847073388135" lon="13.682210421318404"><ele>207.0</ele><time>2026-04-12T13:10:50.991Z</time></trkpt><trkpt lat="45.38473015299961" lon="13.68236462685576"><ele>207.0</ele><time>2026-04-12T13:10:51.991Z</time></trkpt><trkpt lat="45.38478540905804" lon="13.682514395480524"><ele>208.0</ele><time>2026-04-12T13:10:52.991Z</time></trkpt><trkpt lat="45.384857550332676" lon="13.682656383254548"><ele>209.0</ele><time>2026-04-12T13:10:53.991Z</time></trkpt><trkpt lat="45.38490780537711" lon="13.682822034591927"><ele>210.0</ele><time>2026-04-12T13:10:54.991Z</time></trkpt><trkpt lat="45.38495165645961" lon="13.682969763712814"><ele>211.0</ele><time>2026-04-12T13:10:55.991Z</time></trkpt><trkpt lat="45.384971799686916" lon="13.683122956241917"><ele>213.75</ele><time>2026-04-12T13:10:56.991Z</time></trkpt><trkpt lat="45.384992430152074" lon="13.683300539263776"><ele>216.5</ele><time>2026-04-12T13:10:57.991Z</time></trkpt><trkpt lat="45.38497486472528" lon="13.683486929171199"><ele>219.25</ele><time>2026-04-12T13:10:58.991Z</time></trkpt><trkpt lat="45.38497331752304" lon="13.68368350576156"><ele>222.0</ele><time>2026-04-12T13:10:59.991Z</time></trkpt><trkpt lat="45.38497571622432" lon="13.68388578973913"><ele>222.2</ele><time>2026-04-12T13:11:00.991Z</time></trkpt><trkpt lat="45.38499242750353" lon="13.684040380138498"><ele>222.39999999999998</ele><time>2026-04-12T13:11:01.991Z</time></trkpt><trkpt lat="45.384962855495225" lon="13.684199937621788"><ele>222.60000000000002</ele><time>2026-04-12T13:11:02.991Z</time></trkpt><trkpt lat="45.38493796833036" lon="13.684353294198106"><ele>222.8</ele><time>2026-04-12T13:11:03.991Z</time></trkpt><trkpt lat="45.38490006437038" lon="13.68449885096201"><ele>223.0</ele><time>2026-04-12T13:11:04.991Z</time></trkpt><trkpt lat="45.384823699473756" lon="13.68459544562962"><ele>224.25</ele><time>2026-04-12T13:11:05.991Z</time></trkpt><trkpt lat="45.384734625049404" lon="13.684709348689381"><ele>225.5</ele><time>2026-04-12T13:11:06.991Z</time></trkpt><trkpt lat="45.38462230358639" lon="13.68481267841693"><ele>226.75</ele><time>2026-04-12T13:11:07.991Z</time></trkpt><trkpt lat="45.3845109312901" lon="13.684916032318792"><ele>228.0</ele><time>2026-04-12T13:11:08.991Z</time></trkpt><trkpt lat="45.38441711213387" lon="13.68502236809017"><ele>228.0</ele><time>2026-04-12T13:11:09.991Z</time></trkpt><trkpt lat="45.38430862044223" lon="13.685108226010904"><ele>228.0</ele><time>2026-04-12T13:11:10.991Z</time></trkpt><trkpt lat="45.38423264228642" lon="13.685183214635119"><ele>228.0</ele><time>2026-04-12T13:11:11.99Z</time></trkpt><trkpt lat="45.384166600106084" lon="13.685252603525315"><ele>228.0</ele><time>2026-04-12T13:11:12.99Z</time></trkpt><trkpt lat="45.38410648121313" lon="13.685313361744852"><ele>228.0</ele><time>2026-04-12T13:11:13.99Z</time></trkpt><trkpt lat="45.384039203046775" lon="13.68535238713465"><ele>228.0</ele><time>2026-04-12T13:11:15.99Z</time></trkpt><trkpt lat="45.38407625800666" lon="13.685465456899077"><ele>228.66666666666666</ele><time>2026-04-12T13:11:18.99Z</time></trkpt><trkpt lat="45.38411857235962" lon="13.685550324909654"><ele>229.33333333333331</ele><time>2026-04-12T13:11:22.99Z</time></trkpt><trkpt lat="45.38415530656465" lon="13.685627971424525"><ele>230.0</ele><time>2026-04-12T13:12:00.99Z</time></trkpt><trkpt lat="45.38419328234512" lon="13.68574449992178"><ele>230.66666666666666</ele><time>2026-04-12T13:12:02.99Z</time></trkpt><trkpt lat="45.3842476420851" lon="13.685879511304325"><ele>231.33333333333331</ele><time>2026-04-12T13:12:04.99Z</time></trkpt><trkpt lat="45.38427839963873" lon="13.685957736822413"><ele>232.0</ele><time>2026-04-12T13:12:05.99Z</time></trkpt><trkpt lat="45.38434820084434" lon="13.686048487906556"><ele>233.5</ele><time>2026-04-12T13:12:06.99Z</time></trkpt><trkpt lat="45.38422893809684" lon="13.686290471492784"><ele>235.0</ele><time>2026-04-12T13:12:07.99Z</time></trkpt><trkpt lat="45.38427308931762" lon="13.686379418496193"><ele>236.5</ele><time>2026-04-12T13:12:08.99Z</time></trkpt><trkpt lat="45.38432379730386" lon="13.68648135775758"><ele>238.0</ele><time>2026-04-12T13:12:09.99Z</time></trkpt><trkpt lat="45.38437472142729" lon="13.686583731508165"><ele>238.0</ele><time>2026-04-12T13:12:10.99Z</time></trkpt><trkpt lat="45.38442441730462" lon="13.686683636114406"><ele>238.0</ele><time>2026-04-12T13:12:11.99Z</time></trkpt><trkpt lat="45.38470225673382" lon="13.686570457203295"><ele>238.0</ele><time>2026-04-12T13:12:12.99Z</time></trkpt><trkpt lat="45.38475741043326" lon="13.686632085505678"><ele>238.0</ele><time>2026-04-12T13:12:13.99Z</time></trkpt><trkpt lat="45.3848232043604" lon="13.68670359454172"><ele>235.83333333333331</ele><time>2026-04-12T13:12:14.99Z</time></trkpt><trkpt lat="45.38489745989985" lon="13.68675839758774"><ele>233.66666666666666</ele><time>2026-04-12T13:12:15.99Z</time></trkpt><trkpt lat="45.384972914631454" lon="13.686815435487002"><ele>231.5</ele><time>2026-04-12T13:12:16.99Z</time></trkpt><trkpt lat="45.38503924527757" lon="13.686861361389308"><ele>229.33333333333331</ele><time>2026-04-12T13:12:17.99Z</time></trkpt><trkpt lat="45.385099790697296" lon="13.686918529085322"><ele>227.16666666666666</ele><time>2026-04-12T13:12:18.99Z</time></trkpt><trkpt lat="45.38515891547393" lon="13.686986859436724"><ele>225.0</ele><time>2026-04-12T13:12:19.99Z</time></trkpt><trkpt lat="45.38526293021719" lon="13.687091200208378"><ele>225.0</ele><time>2026-04-12T13:12:21.99Z</time></trkpt><trkpt lat="45.38532478544614" lon="13.687215399214654"><ele>225.0</ele><time>2026-04-12T13:12:23.99Z</time></trkpt><trkpt lat="45.38538543539881" lon="13.687307408948769"><ele>225.0</ele><time>2026-04-12T13:12:25.99Z</time></trkpt><trkpt lat="45.3854408903317" lon="13.687365856191205"><ele>225.0</ele><time>2026-04-12T13:12:27.99Z</time></trkpt><trkpt lat="45.385501016496924" lon="13.687416887858928"><ele>225.0</ele><time>2026-04-12T13:12:29.99Z</time></trkpt><trkpt lat="45.385575211041335" lon="13.687495112015208"><ele>225.0</ele><time>2026-04-12T13:12:31.99Z</time></trkpt><trkpt lat="45.38564600937848" lon="13.687615966173716"><ele>222.66666666666666</ele><time>2026-04-12T13:12:33.989Z</time></trkpt><trkpt lat="45.38568138192258" lon="13.68770012231171"><ele>220.33333333333331</ele><time>2026-04-12T13:12:34.989Z</time></trkpt><trkpt lat="45.38571701104421" lon="13.687815703905208"><ele>218.0</ele><time>2026-04-12T13:12:35.989Z</time></trkpt><trkpt lat="45.385750935912434" lon="13.687932607673696"><ele>215.66666666666666</ele><time>2026-04-12T13:12:36.989Z</time></trkpt><trkpt lat="45.38578307771789" lon="13.688052866884558"><ele>213.33333333333331</ele><time>2026-04-12T13:12:37.989Z</time></trkpt><trkpt lat="45.38582063521872" lon="13.688131954720685"><ele>211.0</ele><time>2026-04-12T13:12:38.989Z</time></trkpt><trkpt lat="45.38588267114263" lon="13.688265863884661"><ele>210.99999999999997</ele><time>2026-04-12T13:12:40.989Z</time></trkpt><trkpt lat="45.385946840983515" lon="13.688314391403622"><ele>211.0</ele><time>2026-04-12T13:12:42.989Z</time></trkpt><trkpt lat="45.386003790675915" lon="13.688266788597124"><ele>211.0</ele><time>2026-04-12T13:12:44.989Z</time></trkpt><trkpt lat="45.38602804732623" lon="13.688124389477974"><ele>211.0</ele><time>2026-04-12T13:12:47.989Z</time></trkpt><trkpt lat="45.38604229044566" lon="13.688029570268982"><ele>210.99999999999997</ele><time>2026-04-12T13:12:48.989Z</time></trkpt><trkpt lat="45.386086521419465" lon="13.687917863177447"><ele>211.0</ele><time>2026-04-12T13:12:49.989Z</time></trkpt><trkpt lat="45.386146677210846" lon="13.687813382858169"><ele>210.99999999999997</ele><time>2026-04-12T13:12:50.989Z</time></trkpt><trkpt lat="45.386211966643195" lon="13.687747720552153"><ele>211.0</ele><time>2026-04-12T13:12:51.989Z</time></trkpt><trkpt lat="45.3862788382703" lon="13.687695188847"><ele>211.0</ele><time>2026-04-12T13:12:52.989Z</time></trkpt><trkpt lat="45.386338243063854" lon="13.68763326600022"><ele>211.0</ele><time>2026-04-12T13:12:53.989Z</time></trkpt><trkpt lat="45.386410422832284" lon="13.687561030567798"><ele>210.99999999999997</ele><time>2026-04-12T13:12:54.989Z</time></trkpt><trkpt lat="45.38648254664093" lon="13.687496920558436"><ele>211.0</ele><time>2026-04-12T13:12:55.989Z</time></trkpt><trkpt lat="45.38655292186673" lon="13.687431219293112"><ele>210.99999999999997</ele><time>2026-04-12T13:12:56.989Z</time></trkpt><trkpt lat="45.3866167137312" lon="13.687370436052522"><ele>211.0</ele><time>2026-04-12T13:12:57.989Z</time></trkpt><trkpt lat="45.386687384812575" lon="13.687273644458346"><ele>211.0</ele><time>2026-04-12T13:12:59.989Z</time></trkpt><trkpt lat="45.38676876234593" lon="13.687209723190623"><ele>211.0</ele><time>2026-04-12T13:13:02.989Z</time></trkpt><trkpt lat="45.38685156808092" lon="13.687162867926522"><ele>210.99999999999997</ele><time>2026-04-12T13:13:04.989Z</time></trkpt><trkpt lat="45.38691483043362" lon="13.687147330353053"><ele>211.0</ele><time>2026-04-12T13:13:05.989Z</time></trkpt><trkpt lat="45.38698530565702" lon="13.687119103472577"><ele>211.0</ele><time>2026-04-12T13:13:08.989Z</time></trkpt><trkpt lat="45.387021622600614" lon="13.687199200262262"><ele>211.0</ele><time>2026-04-12T13:13:11.989Z</time></trkpt><trkpt lat="45.38697376287938" lon="13.687377765139694"><ele>211.0</ele><time>2026-04-12T13:13:13.989Z</time></trkpt><trkpt lat="45.38697786896024" lon="13.687508072582506"><ele>211.0</ele><time>2026-04-12T13:13:14.989Z</time></trkpt><trkpt lat="45.387000847500296" lon="13.68764643850859"><ele>211.0</ele><time>2026-04-12T13:13:15.989Z</time></trkpt><trkpt lat="45.3870261874524" lon="13.687734291860727"><ele>211.0</ele><time>2026-04-12T13:13:16.989Z</time></trkpt><trkpt lat="45.387106625684304" lon="13.687705168017509"><ele>211.0</ele><time>2026-04-12T13:13:19.989Z</time></trkpt><trkpt lat="45.38723112546614" lon="13.68757235614987"><ele>211.0</ele><time>2026-04-12T13:13:21.989Z</time></trkpt><trkpt lat="45.38729595018066" lon="13.687459657475756"><ele>211.0</ele><time>2026-04-12T13:13:22.989Z</time></trkpt><trkpt lat="45.38738523391356" lon="13.687338617192358"><ele>212.5</ele><time>2026-04-12T13:13:23.989Z</time></trkpt><trkpt lat="45.38749235814567" lon="13.687201760213542"><ele>214.0</ele><time>2026-04-12T13:13:24.989Z</time></trkpt><trkpt lat="45.387608756236354" lon="13.687073739940931"><ele>215.5</ele><time>2026-04-12T13:13:25.989Z</time></trkpt><trkpt lat="45.38771696865427" lon="13.686965539089359"><ele>217.0</ele><time>2026-04-12T13:13:26.989Z</time></trkpt><trkpt lat="45.38783584471913" lon="13.686860316966678"><ele>217.0</ele><time>2026-04-12T13:13:27.989Z</time></trkpt><trkpt lat="45.38797382380411" lon="13.686743248687776"><ele>217.0</ele><time>2026-04-12T13:13:28.989Z</time></trkpt><trkpt lat="45.38813442573882" lon="13.686622256039158"><ele>217.0</ele><time>2026-04-12T13:13:29.989Z</time></trkpt><trkpt lat="45.38828330549436" lon="13.686513247078574"><ele>219.75</ele><time>2026-04-12T13:13:30.989Z</time></trkpt><trkpt lat="45.38841124351334" lon="13.686434090159262"><ele>222.5</ele><time>2026-04-12T13:13:31.989Z</time></trkpt><trkpt lat="45.388529169430484" lon="13.686358630332583"><ele>225.25</ele><time>2026-04-12T13:13:32.989Z</time></trkpt><trkpt lat="45.38864330696366" lon="13.686319906129137"><ele>228.0</ele><time>2026-04-12T13:13:33.989Z</time></trkpt><trkpt lat="45.388759754067486" lon="13.686349141570437"><ele>228.8</ele><time>2026-04-12T13:13:34.989Z</time></trkpt><trkpt lat="45.3888662902698" lon="13.686406441299809"><ele>229.60000000000002</ele><time>2026-04-12T13:13:35.989Z</time></trkpt><trkpt lat="45.38897684848897" lon="13.686452832014758"><ele>230.39999999999998</ele><time>2026-04-12T13:13:36.989Z</time></trkpt><trkpt lat="45.38908622358096" lon="13.686481226998016"><ele>231.2</ele><time>2026-04-12T13:13:37.989Z</time></trkpt><trkpt lat="45.38917916133696" lon="13.686521995516205"><ele>232.0</ele><time>2026-04-12T13:13:38.989Z</time></trkpt><trkpt lat="45.38928415796816" lon="13.686547631522114"><ele>232.0</ele><time>2026-04-12T13:13:39.989Z</time></trkpt><trkpt lat="45.38940989913909" lon="13.686540535383667"><ele>232.0</ele><time>2026-04-12T13:13:40.989Z</time></trkpt><trkpt lat="45.38954047658596" lon="13.686513078177901"><ele>232.0</ele><time>2026-04-12T13:13:41.989Z</time></trkpt><trkpt lat="45.38970104207972" lon="13.686468650406818"><ele>232.0</ele><time>2026-04-12T13:13:42.989Z</time></trkpt><trkpt lat="45.389821542567105" lon="13.686391161482263"><ele>232.0</ele><time>2026-04-12T13:13:43.989Z</time></trkpt><trkpt lat="45.38997883661984" lon="13.686333936172737"><ele>232.0</ele><time>2026-04-12T13:13:44.989Z</time></trkpt><trkpt lat="45.39012242565522" lon="13.686291901549511"><ele>232.0</ele><time>2026-04-12T13:13:45.989Z</time></trkpt><trkpt lat="45.39028090569721" lon="13.68629427497304"><ele>232.0</ele><time>2026-04-12T13:13:46.989Z</time></trkpt><trkpt lat="45.39044482140186" lon="13.686275874997941"><ele>232.0</ele><time>2026-04-12T13:13:47.989Z</time></trkpt><trkpt lat="45.39060864499126" lon="13.686249585723463"><ele>232.0</ele><time>2026-04-12T13:13:48.989Z</time></trkpt><trkpt lat="45.39075874306634" lon="13.686226358259"><ele>232.25</ele><time>2026-04-12T13:13:49.989Z</time></trkpt><trkpt lat="45.39089258126027" lon="13.686194460617537"><ele>232.5</ele><time>2026-04-12T13:13:50.989Z</time></trkpt><trkpt lat="45.391037389303264" lon="13.686121694067708"><ele>232.75</ele><time>2026-04-12T13:13:51.989Z</time></trkpt><trkpt lat="45.39117122185341" lon="13.686011781297097"><ele>233.0</ele><time>2026-04-12T13:13:52.989Z</time></trkpt><trkpt lat="45.39130525908687" lon="13.685882105606472"><ele>226.66666666666669</ele><time>2026-04-12T13:13:53.989Z</time></trkpt><trkpt lat="45.3914298205118" lon="13.68572136407918"><ele>220.33333333333331</ele><time>2026-04-12T13:13:54.989Z</time></trkpt><trkpt lat="45.39155224904251" lon="13.68555946614582"><ele>214.0</ele><time>2026-04-12T13:13:55.989Z</time></trkpt><trkpt lat="45.39166730611527" lon="13.685373612318315"><ele>212.0</ele><time>2026-04-12T13:13:56.989Z</time></trkpt><trkpt lat="45.39177452780018" lon="13.685187598097004"><ele>210.0</ele><time>2026-04-12T13:13:57.988Z</time></trkpt><trkpt lat="45.391882813310424" lon="13.684987800980043"><ele>208.0</ele><time>2026-04-12T13:13:58.988Z</time></trkpt><trkpt lat="45.39198636909018" lon="13.68478064429703"><ele>208.0</ele><time>2026-04-12T13:13:59.988Z</time></trkpt><trkpt lat="45.392098174809576" lon="13.684559990612255"><ele>208.0</ele><time>2026-04-12T13:14:00.988Z</time></trkpt><trkpt lat="45.39220304879003" lon="13.684324052347467"><ele>208.0</ele><time>2026-04-12T13:14:01.988Z</time></trkpt><trkpt lat="45.39229380577895" lon="13.68411153358793"><ele>207.0</ele><time>2026-04-12T13:14:02.988Z</time></trkpt><trkpt lat="45.39239576567569" lon="13.683896577124678"><ele>206.0</ele><time>2026-04-12T13:14:03.988Z</time></trkpt><trkpt lat="45.39248796808311" lon="13.68369268174514"><ele>205.0</ele><time>2026-04-12T13:14:04.988Z</time></trkpt><trkpt lat="45.39259046918625" lon="13.683491032734317"><ele>205.0</ele><time>2026-04-12T13:14:05.988Z</time></trkpt><trkpt lat="45.39270827997465" lon="13.68331533264946"><ele>205.0</ele><time>2026-04-12T13:14:06.988Z</time></trkpt><trkpt lat="45.392843027133374" lon="13.683158929251722"><ele>205.0</ele><time>2026-04-12T13:14:07.988Z</time></trkpt><trkpt lat="45.392978089448604" lon="13.68299585743046"><ele>206.0</ele><time>2026-04-12T13:14:08.988Z</time></trkpt><trkpt lat="45.393127281133665" lon="13.682825215925423"><ele>207.0</ele><time>2026-04-12T13:14:09.988Z</time></trkpt><trkpt lat="45.39326433129095" lon="13.682636315782414"><ele>208.0</ele><time>2026-04-12T13:14:10.988Z</time></trkpt><trkpt lat="45.39340172291368" lon="13.682453978231326"><ele>208.0</ele><time>2026-04-12T13:14:11.988Z</time></trkpt><trkpt lat="45.39354147677147" lon="13.682277964379548"><ele>208.0</ele><time>2026-04-12T13:14:12.988Z</time></trkpt><trkpt lat="45.39368520397181" lon="13.682089803915288"><ele>208.0</ele><time>2026-04-12T13:14:13.988Z</time></trkpt><trkpt lat="45.39383243791369" lon="13.681908831363076"><ele>208.66666666666666</ele><time>2026-04-12T13:14:14.988Z</time></trkpt><trkpt lat="45.39397286529493" lon="13.681729304796578"><ele>209.33333333333331</ele><time>2026-04-12T13:14:15.988Z</time></trkpt><trkpt lat="45.39411262153811" lon="13.681553826899503"><ele>210.0</ele><time>2026-04-12T13:14:16.988Z</time></trkpt><trkpt lat="45.39424780876042" lon="13.681386462565545"><ele>210.0</ele><time>2026-04-12T13:14:17.988Z</time></trkpt><trkpt lat="45.39437941923444" lon="13.681223994677232"><ele>210.0</ele><time>2026-04-12T13:14:18.988Z</time></trkpt><trkpt lat="45.39451114642094" lon="13.681057892101972"><ele>210.0</ele><time>2026-04-12T13:14:19.988Z</time></trkpt><trkpt lat="45.39464288317157" lon="13.680888002255642"><ele>209.33333333333331</ele><time>2026-04-12T13:14:20.988Z</time></trkpt><trkpt lat="45.39477956612799" lon="13.680719714626429"><ele>208.66666666666666</ele><time>2026-04-12T13:14:21.988Z</time></trkpt><trkpt lat="45.39491213050101" lon="13.68055577778262"><ele>208.0</ele><time>2026-04-12T13:14:22.988Z</time></trkpt><trkpt lat="45.395046962565615" lon="13.68037983198698"><ele>207.0</ele><time>2026-04-12T13:14:23.988Z</time></trkpt><trkpt lat="45.39517911446689" lon="13.680207980476164"><ele>206.0</ele><time>2026-04-12T13:14:24.988Z</time></trkpt><trkpt lat="45.395307338685086" lon="13.68003968451619"><ele>205.0</ele><time>2026-04-12T13:14:25.988Z</time></trkpt><trkpt lat="45.39543823672511" lon="13.679878415748268"><ele>207.66666666666666</ele><time>2026-04-12T13:14:26.988Z</time></trkpt><trkpt lat="45.39558231917144" lon="13.67974838871968"><ele>210.33333333333331</ele><time>2026-04-12T13:14:27.988Z</time></trkpt><trkpt lat="45.39573405003555" lon="13.679690678167963"><ele>213.0</ele><time>2026-04-12T13:14:28.988Z</time></trkpt><trkpt lat="45.395898237627684" lon="13.679674780056944"><ele>213.0</ele><time>2026-04-12T13:14:29.988Z</time></trkpt><trkpt lat="45.39606356245428" lon="13.679690128627986"><ele>213.0</ele><time>2026-04-12T13:14:30.988Z</time></trkpt><trkpt lat="45.39624379947714" lon="13.679677384977598"><ele>213.0</ele><time>2026-04-12T13:14:31.988Z</time></trkpt><trkpt lat="45.39641901622392" lon="13.679674191057153"><ele>213.66666666666669</ele><time>2026-04-12T13:14:32.988Z</time></trkpt><trkpt lat="45.396588893677276" lon="13.679655916978469"><ele>214.33333333333334</ele><time>2026-04-12T13:14:33.988Z</time></trkpt><trkpt lat="45.396748369655505" lon="13.679602529300043"><ele>215.0</ele><time>2026-04-12T13:14:34.988Z</time></trkpt><trkpt lat="45.396896692922766" lon="13.679517563681697"><ele>215.33333333333334</ele><time>2026-04-12T13:14:35.988Z</time></trkpt><trkpt lat="45.39702327462081" lon="13.67939975906111"><ele>215.66666666666669</ele><time>2026-04-12T13:14:36.988Z</time></trkpt><trkpt lat="45.397146564050594" lon="13.679229343871885"><ele>216.0</ele><time>2026-04-12T13:14:37.988Z</time></trkpt><trkpt lat="45.397238766092016" lon="13.679047948794079"><ele>216.0</ele><time>2026-04-12T13:14:38.988Z</time></trkpt><trkpt lat="45.39732928746506" lon="13.67885558837318"><ele>216.0</ele><time>2026-04-12T13:14:39.988Z</time></trkpt><trkpt lat="45.39743231892127" lon="13.678663507877577"><ele>216.0</ele><time>2026-04-12T13:14:40.988Z</time></trkpt><trkpt lat="45.39752317329319" lon="13.678478132363633"><ele>213.33333333333331</ele><time>2026-04-12T13:14:41.988Z</time></trkpt><trkpt lat="45.39761860505476" lon="13.678299551011001"><ele>210.66666666666666</ele><time>2026-04-12T13:14:42.988Z</time></trkpt><trkpt lat="45.39771336715216" lon="13.678112940800585"><ele>208.0</ele><time>2026-04-12T13:14:43.988Z</time></trkpt><trkpt lat="45.39781173353758" lon="13.677930220259094"><ele>209.66666666666666</ele><time>2026-04-12T13:14:44.988Z</time></trkpt><trkpt lat="45.39791867948269" lon="13.677763846868162"><ele>211.33333333333331</ele><time>2026-04-12T13:14:45.988Z</time></trkpt><trkpt lat="45.39805603449357" lon="13.677648489342584"><ele>213.0</ele><time>2026-04-12T13:14:46.988Z</time></trkpt><trkpt lat="45.39819499401203" lon="13.67752190614602"><ele>213.0</ele><time>2026-04-12T13:14:47.988Z</time></trkpt><trkpt lat="45.398330907287566" lon="13.67738767240976"><ele>213.0</ele><time>2026-04-12T13:14:48.988Z</time></trkpt><trkpt lat="45.3984805204209" lon="13.677263876496113"><ele>213.0</ele><time>2026-04-12T13:14:49.988Z</time></trkpt><trkpt lat="45.398632064083934" lon="13.677129665605351"><ele>213.0</ele><time>2026-04-12T13:14:50.988Z</time></trkpt><trkpt lat="45.398779998152854" lon="13.676991107129695"><ele>213.0</ele><time>2026-04-12T13:14:51.988Z</time></trkpt><trkpt lat="45.398925164305496" lon="13.676843709789763"><ele>213.0</ele><time>2026-04-12T13:14:52.988Z</time></trkpt><trkpt lat="45.39906275776097" lon="13.676665969814028"><ele>211.33333333333331</ele><time>2026-04-12T13:14:53.988Z</time></trkpt><trkpt lat="45.39917733549152" lon="13.67646119699019"><ele>209.66666666666666</ele><time>2026-04-12T13:14:54.988Z</time></trkpt><trkpt lat="45.39926277234661" lon="13.676226401013322"><ele>208.0</ele><time>2026-04-12T13:14:55.988Z</time></trkpt><trkpt lat="45.39932237901659" lon="13.675967229994791"><ele>206.66666666666666</ele><time>2026-04-12T13:14:56.988Z</time></trkpt><trkpt lat="45.39935942513356" lon="13.675692789874484"><ele>205.33333333333331</ele><time>2026-04-12T13:14:57.988Z</time></trkpt><trkpt lat="45.39936368863259" lon="13.675415310533346"><ele>204.0</ele><time>2026-04-12T13:14:58.988Z</time></trkpt><trkpt lat="45.39935410592622" lon="13.675131443021145"><ele>204.0</ele><time>2026-04-12T13:14:59.988Z</time></trkpt><trkpt lat="45.399341423283836" lon="13.674849229468421"><ele>204.0</ele><time>2026-04-12T13:15:00.988Z</time></trkpt><trkpt lat="45.39933612467808" lon="13.674588922736106"><ele>204.0</ele><time>2026-04-12T13:15:01.988Z</time></trkpt><trkpt lat="45.399341607288555" lon="13.67434707552942"><ele>203.75</ele><time>2026-04-12T13:15:02.988Z</time></trkpt><trkpt lat="45.399357629667925" lon="13.674145141687191"><ele>203.5</ele><time>2026-04-12T13:15:03.988Z</time></trkpt><trkpt lat="45.399424658323944" lon="13.673976238661295"><ele>203.25</ele><time>2026-04-12T13:15:04.988Z</time></trkpt><trkpt lat="45.39950810226721" lon="13.6738438871316"><ele>203.0</ele><time>2026-04-12T13:15:05.988Z</time></trkpt><trkpt lat="45.39961812264208" lon="13.673745695527284"><ele>201.66666666666669</ele><time>2026-04-12T13:15:06.988Z</time></trkpt><trkpt lat="45.39974643698105" lon="13.67367745589396"><ele>200.33333333333331</ele><time>2026-04-12T13:15:07.988Z</time></trkpt><trkpt lat="45.39990218885152" lon="13.673596757590225"><ele>199.0</ele><time>2026-04-12T13:15:08.988Z</time></trkpt><trkpt lat="45.400041541449646" lon="13.673509977039243"><ele>199.0</ele><time>2026-04-12T13:15:09.988Z</time></trkpt><trkpt lat="45.40018987245153" lon="13.673406658419909"><ele>199.0</ele><time>2026-04-12T13:15:10.988Z</time></trkpt><trkpt lat="45.40033830663054" lon="13.673273849646502"><ele>199.0</ele><time>2026-04-12T13:15:11.988Z</time></trkpt><trkpt lat="45.400477312858555" lon="13.673096948946458"><ele>199.0</ele><time>2026-04-12T13:15:12.988Z</time></trkpt><trkpt lat="45.400601103075836" lon="13.67291406373719"><ele>199.0</ele><time>2026-04-12T13:15:13.988Z</time></trkpt><trkpt lat="45.40072653292097" lon="13.672697773181667"><ele>199.0</ele><time>2026-04-12T13:15:14.988Z</time></trkpt><trkpt lat="45.40083051586044" lon="13.672479027292308"><ele>199.0</ele><time>2026-04-12T13:15:15.988Z</time></trkpt><trkpt lat="45.40093717964798" lon="13.672276322795529"><ele>199.0</ele><time>2026-04-12T13:15:16.988Z</time></trkpt><trkpt lat="45.40104330112059" lon="13.672046408276367"><ele>199.0</ele><time>2026-04-12T13:15:17.988Z</time></trkpt><trkpt lat="45.40116064328814" lon="13.671831980569149"><ele>198.0</ele><time>2026-04-12T13:15:18.988Z</time></trkpt><trkpt lat="45.40127852110008" lon="13.671626045712165"><ele>197.0</ele><time>2026-04-12T13:15:19.988Z</time></trkpt><trkpt lat="45.40139594269869" lon="13.6714158430415"><ele>196.0</ele><time>2026-04-12T13:15:20.988Z</time></trkpt><trkpt lat="45.40150923839713" lon="13.671211715988512"><ele>199.33333333333331</ele><time>2026-04-12T13:15:21.987Z</time></trkpt><trkpt lat="45.40161693715872" lon="13.671009955522559"><ele>202.66666666666669</ele><time>2026-04-12T13:15:22.987Z</time></trkpt><trkpt lat="45.401729052411106" lon="13.670803307116016"><ele>206.0</ele><time>2026-04-12T13:15:23.987Z</time></trkpt><trkpt lat="45.401832724332216" lon="13.670611322493594"><ele>206.0</ele><time>2026-04-12T13:15:24.987Z</time></trkpt><trkpt lat="45.40192481586235" lon="13.670437535795456"><ele>206.0</ele><time>2026-04-12T13:15:25.987Z</time></trkpt><trkpt lat="45.40201570076797" lon="13.670276817157243"><ele>206.0</ele><time>2026-04-12T13:15:26.987Z</time></trkpt><trkpt lat="45.402089456005356" lon="13.670108388218067"><ele>206.0</ele><time>2026-04-12T13:15:27.987Z</time></trkpt><trkpt lat="45.402141539426886" lon="13.66993855952742"><ele>203.75</ele><time>2026-04-12T13:15:28.987Z</time></trkpt><trkpt lat="45.402160732696" lon="13.669758391279238"><ele>201.5</ele><time>2026-04-12T13:15:29.987Z</time></trkpt><trkpt lat="45.40216656357432" lon="13.669580662004675"><ele>199.25</ele><time>2026-04-12T13:15:30.987Z</time></trkpt><trkpt lat="45.40213638091615" lon="13.66939996574822"><ele>197.0</ele><time>2026-04-12T13:15:31.987Z</time></trkpt><trkpt lat="45.402089579859826" lon="13.669225573467326"><ele>196.0</ele><time>2026-04-12T13:15:32.987Z</time></trkpt><trkpt lat="45.402031448661" lon="13.669065814077504"><ele>195.0</ele><time>2026-04-12T13:15:33.987Z</time></trkpt><trkpt lat="45.40195781158388" lon="13.668918812744689"><ele>194.0</ele><time>2026-04-12T13:15:34.987Z</time></trkpt><trkpt lat="45.40187197501387" lon="13.668777229708555"><ele>193.0</ele><time>2026-04-12T13:15:35.987Z</time></trkpt><trkpt lat="45.4017815799075" lon="13.66862563813755"><ele>194.5</ele><time>2026-04-12T13:15:36.987Z</time></trkpt><trkpt lat="45.40169534543626" lon="13.668471329129774"><ele>196.0</ele><time>2026-04-12T13:15:37.987Z</time></trkpt><trkpt lat="45.401639891842656" lon="13.668304052968391"><ele>197.5</ele><time>2026-04-12T13:15:38.987Z</time></trkpt><trkpt lat="45.401603828892675" lon="13.668139606479228"><ele>199.0</ele><time>2026-04-12T13:15:39.987Z</time></trkpt><trkpt lat="45.40158266010637" lon="13.667953597362812"><ele>199.0</ele><time>2026-04-12T13:15:40.987Z</time></trkpt><trkpt lat="45.40160142264153" lon="13.667778507628036"><ele>199.0</ele><time>2026-04-12T13:15:41.987Z</time></trkpt><trkpt lat="45.40164342598465" lon="13.667611581605984"><ele>199.0</ele><time>2026-04-12T13:15:42.987Z</time></trkpt><trkpt lat="45.40171216064499" lon="13.667446875246183"><ele>199.0</ele><time>2026-04-12T13:15:43.987Z</time></trkpt><trkpt lat="45.401785003971185" lon="13.667277504749965"><ele>197.33333333333331</ele><time>2026-04-12T13:15:44.987Z</time></trkpt><trkpt lat="45.40185100796681" lon="13.66709249229812"><ele>195.66666666666669</ele><time>2026-04-12T13:15:45.987Z</time></trkpt><trkpt lat="45.401945843026276" lon="13.666903795993345"><ele>194.0</ele><time>2026-04-12T13:15:46.987Z</time></trkpt><trkpt lat="45.40203859624815" lon="13.666715165882913"><ele>194.33333333333334</ele><time>2026-04-12T13:15:47.987Z</time></trkpt><trkpt lat="45.40211612176012" lon="13.666524691894162"><ele>194.66666666666669</ele><time>2026-04-12T13:15:48.987Z</time></trkpt><trkpt lat="45.40219727531378" lon="13.666337298922702"><ele>195.0</ele><time>2026-04-12T13:15:49.987Z</time></trkpt><trkpt lat="45.40227943117796" lon="13.666156745016833"><ele>192.5</ele><time>2026-04-12T13:15:50.987Z</time></trkpt><trkpt lat="45.40236551549677" lon="13.665973307089377"><ele>190.0</ele><time>2026-04-12T13:15:51.987Z</time></trkpt><trkpt lat="45.40245531937647" lon="13.665805073469661"><ele>187.5</ele><time>2026-04-12T13:15:52.987Z</time></trkpt><trkpt lat="45.40255666744269" lon="13.665664396442494"><ele>185.0</ele><time>2026-04-12T13:15:53.987Z</time></trkpt><trkpt lat="45.402654258842354" lon="13.665512106648576"><ele>185.0</ele><time>2026-04-12T13:15:54.987Z</time></trkpt><trkpt lat="45.40274566474327" lon="13.665355444521468"><ele>185.0</ele><time>2026-04-12T13:15:55.987Z</time></trkpt><trkpt lat="45.4028438989195" lon="13.665227437724093"><ele>185.0</ele><time>2026-04-12T13:15:56.987Z</time></trkpt><trkpt lat="45.40293520565517" lon="13.665106685034223"><ele>185.0</ele><time>2026-04-12T13:15:57.987Z</time></trkpt><trkpt lat="45.40301990803118" lon="13.665000572790667"><ele>183.0</ele><time>2026-04-12T13:15:58.987Z</time></trkpt><trkpt lat="45.40310729491187" lon="13.664900510402338"><ele>181.0</ele><time>2026-04-12T13:15:59.987Z</time></trkpt><trkpt lat="45.40319641304525" lon="13.66480358560816"><ele>179.0</ele><time>2026-04-12T13:16:00.987Z</time></trkpt><trkpt lat="45.40329003016197" lon="13.664704620324262"><ele>177.0</ele><time>2026-04-12T13:16:01.987Z</time></trkpt><trkpt lat="45.403393386655495" lon="13.664607041384398"><ele>177.0</ele><time>2026-04-12T13:16:02.987Z</time></trkpt><trkpt lat="45.40350551431088" lon="13.66451347837427"><ele>177.0</ele><time>2026-04-12T13:16:03.987Z</time></trkpt><trkpt lat="45.40362476048008" lon="13.664455251490269"><ele>177.0</ele><time>2026-04-12T13:16:04.987Z</time></trkpt><trkpt lat="45.40371311555089" lon="13.664399534840754"><ele>177.0</ele><time>2026-04-12T13:16:05.987Z</time></trkpt><trkpt lat="45.403768831439145" lon="13.66435698931244"><ele>177.0</ele><time>2026-04-12T13:16:06.987Z</time></trkpt><trkpt lat="45.40377511031709" lon="13.664235484001383"><ele>177.2</ele><time>2026-04-12T13:16:09.987Z</time></trkpt><trkpt lat="45.403762086145484" lon="13.66406731511784"><ele>177.39999999999998</ele><time>2026-04-12T13:16:11.987Z</time></trkpt><trkpt lat="45.40376169830285" lon="13.663948874462056"><ele>177.60000000000002</ele><time>2026-04-12T13:16:12.987Z</time></trkpt><trkpt lat="45.40377021408734" lon="13.663824229393674"><ele>177.8</ele><time>2026-04-12T13:16:13.987Z</time></trkpt><trkpt lat="45.40382560265944" lon="13.6637249220989"><ele>178.0</ele><time>2026-04-12T13:16:14.987Z</time></trkpt><trkpt lat="45.4039019821379" lon="13.663634013308387"><ele>179.60000000000002</ele><time>2026-04-12T13:16:15.987Z</time></trkpt><trkpt lat="45.40396515671327" lon="13.663518404303897"><ele>181.20000000000002</ele><time>2026-04-12T13:16:16.987Z</time></trkpt><trkpt lat="45.40403452823148" lon="13.663408426922802"><ele>182.8</ele><time>2026-04-12T13:16:17.987Z</time></trkpt><trkpt lat="45.40409868822661" lon="13.663315170491598"><ele>184.4</ele><time>2026-04-12T13:16:18.987Z</time></trkpt><trkpt lat="45.40416847335135" lon="13.663210203210946"><ele>186.0</ele><time>2026-04-12T13:16:19.987Z</time></trkpt><trkpt lat="45.40423898655345" lon="13.663106026359872"><ele>186.0</ele><time>2026-04-12T13:16:20.987Z</time></trkpt><trkpt lat="45.404311654061964" lon="13.662991464071332"><ele>186.0</ele><time>2026-04-12T13:16:21.987Z</time></trkpt><trkpt lat="45.40438068769733" lon="13.662896828640745"><ele>186.0</ele><time>2026-04-12T13:16:22.987Z</time></trkpt><trkpt lat="45.404443657844155" lon="13.662809744237652"><ele>186.0</ele><time>2026-04-12T13:16:23.987Z</time></trkpt><trkpt lat="45.40460717293509" lon="13.66269623911431"><ele>187.4</ele><time>2026-04-12T13:16:25.987Z</time></trkpt><trkpt lat="45.404679658523534" lon="13.662626229642294"><ele>188.8</ele><time>2026-04-12T13:16:26.987Z</time></trkpt><trkpt lat="45.40476371594563" lon="13.662567590136996"><ele>190.20000000000002</ele><time>2026-04-12T13:16:27.987Z</time></trkpt><trkpt lat="45.4048504572559" lon="13.662497186677456"><ele>191.60000000000002</ele><time>2026-04-12T13:16:28.987Z</time></trkpt><trkpt lat="45.404944503096935" lon="13.66244244029744"><ele>193.0</ele><time>2026-04-12T13:16:29.987Z</time></trkpt><trkpt lat="45.40502698028301" lon="13.662390033636227"><ele>193.0</ele><time>2026-04-12T13:16:30.987Z</time></trkpt><trkpt lat="45.40511021583195" lon="13.662344342553473"><ele>193.0</ele><time>2026-04-12T13:16:31.987Z</time></trkpt><trkpt lat="45.40519952379659" lon="13.66229726396754"><ele>193.0</ele><time>2026-04-12T13:16:32.987Z</time></trkpt><trkpt lat="45.40529011754775" lon="13.662250078891363"><ele>193.0</ele><time>2026-04-12T13:16:33.987Z</time></trkpt><trkpt lat="45.40537775012747" lon="13.6622169230256"><ele>193.0</ele><time>2026-04-12T13:16:34.987Z</time></trkpt><trkpt lat="45.40547200375614" lon="13.662206081580965"><ele>194.0</ele><time>2026-04-12T13:16:35.987Z</time></trkpt><trkpt lat="45.40556826828648" lon="13.662203111971863"><ele>195.0</ele><time>2026-04-12T13:16:36.987Z</time></trkpt><trkpt lat="45.405678449606306" lon="13.662217008133927"><ele>196.0</ele><time>2026-04-12T13:16:37.987Z</time></trkpt><trkpt lat="45.40578455127271" lon="13.662240864044156"><ele>197.0</ele><time>2026-04-12T13:16:38.987Z</time></trkpt><trkpt lat="45.40588991762501" lon="13.662259948644147"><ele>198.0</ele><time>2026-04-12T13:16:39.987Z</time></trkpt><trkpt lat="45.406004993124895" lon="13.662259454173192"><ele>198.0</ele><time>2026-04-12T13:16:40.987Z</time></trkpt><trkpt lat="45.40612857361531" lon="13.662271371211169"><ele>198.0</ele><time>2026-04-12T13:16:41.987Z</time></trkpt><trkpt lat="45.40624979173684" lon="13.662278328562657"><ele>198.0</ele><time>2026-04-12T13:16:42.987Z</time></trkpt><trkpt lat="45.40637497585039" lon="13.662255889848106"><ele>198.0</ele><time>2026-04-12T13:16:43.987Z</time></trkpt><trkpt lat="45.40649547317604" lon="13.6622067694247"><ele>198.75</ele><time>2026-04-12T13:16:44.987Z</time></trkpt><trkpt lat="45.40659949439117" lon="13.662121029123599"><ele>199.5</ele><time>2026-04-12T13:16:45.986Z</time></trkpt><trkpt lat="45.40668816035786" lon="13.662016868408365"><ele>200.25</ele><time>2026-04-12T13:16:46.986Z</time></trkpt><trkpt lat="45.406777375941864" lon="13.661914094840572"><ele>201.0</ele><time>2026-04-12T13:16:47.986Z</time></trkpt><trkpt lat="45.40686549037231" lon="13.661825830024078"><ele>200.0</ele><time>2026-04-12T13:16:48.986Z</time></trkpt><trkpt lat="45.406953939462234" lon="13.661735572556063"><ele>199.0</ele><time>2026-04-12T13:16:49.986Z</time></trkpt><trkpt lat="45.407030959467114" lon="13.661641861656683"><ele>198.0</ele><time>2026-04-12T13:16:50.986Z</time></trkpt><trkpt lat="45.40710123826254" lon="13.66153951893388"><ele>197.0</ele><time>2026-04-12T13:16:51.986Z</time></trkpt><trkpt lat="45.40716465425403" lon="13.661412503122165"><ele>196.0</ele><time>2026-04-12T13:16:52.986Z</time></trkpt><trkpt lat="45.407210084150314" lon="13.661304355142713"><ele>196.0</ele><time>2026-04-12T13:16:53.986Z</time></trkpt><trkpt lat="45.40725691245696" lon="13.661185387654609"><ele>196.0</ele><time>2026-04-12T13:16:54.986Z</time></trkpt><trkpt lat="45.40729550005292" lon="13.661061224711885"><ele>196.0</ele><time>2026-04-12T13:16:55.986Z</time></trkpt><trkpt lat="45.40734113536856" lon="13.66093929688132"><ele>196.0</ele><time>2026-04-12T13:16:56.986Z</time></trkpt><trkpt lat="45.40739072237083" lon="13.660820440400686"><ele>196.0</ele><time>2026-04-12T13:16:57.986Z</time></trkpt><trkpt lat="45.40744263032989" lon="13.6607067696782"><ele>195.99999999999997</ele><time>2026-04-12T13:16:58.986Z</time></trkpt><trkpt lat="45.407485233794574" lon="13.660585532235142"><ele>196.0</ele><time>2026-04-12T13:16:59.986Z</time></trkpt><trkpt lat="45.407521106119354" lon="13.6604920430926"><ele>196.0</ele><time>2026-04-12T13:17:00.986Z</time></trkpt><trkpt lat="45.40757160317232" lon="13.66039551730139"><ele>196.0</ele><time>2026-04-12T13:17:02.986Z</time></trkpt><trkpt lat="45.407611820452765" lon="13.660304577543403"><ele>195.99999999999997</ele><time>2026-04-12T13:17:04.986Z</time></trkpt><trkpt lat="45.40765006100996" lon="13.660202003300233"><ele>196.0</ele><time>2026-04-12T13:17:06.986Z</time></trkpt><trkpt lat="45.407709257892094" lon="13.66006412714469"><ele>194.8</ele><time>2026-04-12T13:17:08.986Z</time></trkpt><trkpt lat="45.40777401269693" lon="13.659914599178098"><ele>193.60000000000002</ele><time>2026-04-12T13:17:10.986Z</time></trkpt><trkpt lat="45.407852269476614" lon="13.659738794345543"><ele>192.4</ele><time>2026-04-12T13:17:12.986Z</time></trkpt><trkpt lat="45.40788964393529" lon="13.659638464958041"><ele>191.2</ele><time>2026-04-12T13:17:13.986Z</time></trkpt><trkpt lat="45.407930128722334" lon="13.659546443733309"><ele>190.0</ele><time>2026-04-12T13:17:14.986Z</time></trkpt><trkpt lat="45.40797212094544" lon="13.65945860359367"><ele>190.57142857142858</ele><time>2026-04-12T13:17:15.986Z</time></trkpt><trkpt lat="45.40801250482004" lon="13.65936799053883"><ele>191.14285714285717</ele><time>2026-04-12T13:17:16.986Z</time></trkpt><trkpt lat="45.408056895984" lon="13.659284260700566"><ele>191.71428571428572</ele><time>2026-04-12T13:17:17.986Z</time></trkpt><trkpt lat="45.40809611758741" lon="13.659203428966574"><ele>192.28571428571428</ele><time>2026-04-12T13:17:18.986Z</time></trkpt><trkpt lat="45.408144287850604" lon="13.659124101048533"><ele>192.85714285714286</ele><time>2026-04-12T13:17:19.986Z</time></trkpt><trkpt lat="45.40819515880607" lon="13.65906323659304"><ele>193.42857142857142</ele><time>2026-04-12T13:17:20.986Z</time></trkpt><trkpt lat="45.408265549245385" lon="13.658982706209084"><ele>194.0</ele><time>2026-04-12T13:17:22.986Z</time></trkpt><trkpt lat="45.40832962230357" lon="13.658935095475053"><ele>194.0</ele><time>2026-04-12T13:17:24.986Z</time></trkpt><trkpt lat="45.408426867757726" lon="13.659044910782189"><ele>194.0</ele><time>2026-04-12T13:17:29.986Z</time></trkpt><trkpt lat="45.40849086326725" lon="13.65913667729547"><ele>194.0</ele><time>2026-04-12T13:17:30.986Z</time></trkpt><trkpt lat="45.40856495782891" lon="13.659230535603196"><ele>194.0</ele><time>2026-04-12T13:17:31.986Z</time></trkpt><trkpt lat="45.40865620434731" lon="13.659327268724924"><ele>194.0</ele><time>2026-04-12T13:17:32.986Z</time></trkpt><trkpt lat="45.408749320729264" lon="13.659402503367783"><ele>194.0</ele><time>2026-04-12T13:17:33.986Z</time></trkpt><trkpt lat="45.40884414260524" lon="13.659461141657133"><ele>194.0</ele><time>2026-04-12T13:17:34.986Z</time></trkpt><trkpt lat="45.40894684559836" lon="13.659508416641458"><ele>194.0</ele><time>2026-04-12T13:17:35.986Z</time></trkpt><trkpt lat="45.40905319197902" lon="13.659556883660603"><ele>194.0</ele><time>2026-04-12T13:17:36.986Z</time></trkpt><trkpt lat="45.40915649144248" lon="13.659620967495277"><ele>194.0</ele><time>2026-04-12T13:17:37.986Z</time></trkpt><trkpt lat="45.40926589206312" lon="13.659702094195005"><ele>194.0</ele><time>2026-04-12T13:17:38.986Z</time></trkpt><trkpt lat="45.409336387935404" lon="13.659824093349815"><ele>194.0</ele><time>2026-04-12T13:17:39.986Z</time></trkpt><trkpt lat="45.40942177197659" lon="13.659960137335117"><ele>194.0</ele><time>2026-04-12T13:17:40.986Z</time></trkpt><trkpt lat="45.409530214985466" lon="13.660090197435547"><ele>194.0</ele><time>2026-04-12T13:17:41.986Z</time></trkpt><trkpt lat="45.40964491070861" lon="13.660249229146975"><ele>190.33333333333334</ele><time>2026-04-12T13:17:42.986Z</time></trkpt><trkpt lat="45.409764499016454" lon="13.660428557757358"><ele>186.66666666666669</ele><time>2026-04-12T13:17:43.986Z</time></trkpt><trkpt lat="45.40988343681962" lon="13.660590755663605"><ele>183.0</ele><time>2026-04-12T13:17:44.986Z</time></trkpt><trkpt lat="45.4100099987227" lon="13.66075238945043"><ele>183.0</ele><time>2026-04-12T13:17:45.986Z</time></trkpt><trkpt lat="45.41012339205756" lon="13.660932164677652"><ele>183.0</ele><time>2026-04-12T13:17:46.986Z</time></trkpt><trkpt lat="45.410240035002445" lon="13.661086534426037"><ele>183.0</ele><time>2026-04-12T13:17:47.986Z</time></trkpt><trkpt lat="45.41036448141565" lon="13.661217292007406"><ele>187.66666666666669</ele><time>2026-04-12T13:17:48.986Z</time></trkpt><trkpt lat="45.4104883076084" lon="13.661365692884566"><ele>192.33333333333334</ele><time>2026-04-12T13:17:49.986Z</time></trkpt><trkpt lat="45.41059094996594" lon="13.66152568475732"><ele>197.0</ele><time>2026-04-12T13:17:50.986Z</time></trkpt><trkpt lat="45.41070931159333" lon="13.661661059653182"><ele>190.25</ele><time>2026-04-12T13:17:51.986Z</time></trkpt><trkpt lat="45.410824833573194" lon="13.661795380469835"><ele>183.5</ele><time>2026-04-12T13:17:52.986Z</time></trkpt><trkpt lat="45.41089927102678" lon="13.66197217376783"><ele>176.75</ele><time>2026-04-12T13:17:53.986Z</time></trkpt><trkpt lat="45.410967606727326" lon="13.662155788891383"><ele>170.0</ele><time>2026-04-12T13:17:54.986Z</time></trkpt><trkpt lat="45.411019408157685" lon="13.662339204463724"><ele>170.0</ele><time>2026-04-12T13:17:55.986Z</time></trkpt><trkpt lat="45.411056659904055" lon="13.662536733559794"><ele>170.0</ele><time>2026-04-12T13:17:56.986Z</time></trkpt><trkpt lat="45.41109618695809" lon="13.662726741225514"><ele>170.0</ele><time>2026-04-12T13:17:57.986Z</time></trkpt><trkpt lat="45.41115238574367" lon="13.66289507212023"><ele>170.0</ele><time>2026-04-12T13:17:58.986Z</time></trkpt><trkpt lat="45.411204300838435" lon="13.663061215117665"><ele>167.75</ele><time>2026-04-12T13:17:59.986Z</time></trkpt><trkpt lat="45.41127435701161" lon="13.663213690582223"><ele>165.5</ele><time>2026-04-12T13:18:00.986Z</time></trkpt><trkpt lat="45.41136393270645" lon="13.663340949004038"><ele>163.25</ele><time>2026-04-12T13:18:01.986Z</time></trkpt><trkpt lat="45.41147348217507" lon="13.663427073871922"><ele>161.0</ele><time>2026-04-12T13:18:02.986Z</time></trkpt><trkpt lat="45.411583644593115" lon="13.663475949868474"><ele>159.8</ele><time>2026-04-12T13:18:03.986Z</time></trkpt><trkpt lat="45.41168418655548" lon="13.663564777493995"><ele>158.60000000000002</ele><time>2026-04-12T13:18:04.986Z</time></trkpt><trkpt lat="45.41175438606029" lon="13.663688704567686"><ele>157.4</ele><time>2026-04-12T13:18:05.986Z</time></trkpt><trkpt lat="45.41180060835342" lon="13.663820042739427"><ele>156.2</ele><time>2026-04-12T13:18:06.986Z</time></trkpt><trkpt lat="45.41183287318605" lon="13.663940583325742"><ele>155.0</ele><time>2026-04-12T13:18:07.986Z</time></trkpt><trkpt lat="45.41192408796818" lon="13.664021359834422"><ele>155.0</ele><time>2026-04-12T13:18:09.985Z</time></trkpt><trkpt lat="45.41199003134488" lon="13.663972253959786"><ele>155.0</ele><time>2026-04-12T13:18:10.985Z</time></trkpt><trkpt lat="45.412038072417886" lon="13.663888013166622"><ele>155.0</ele><time>2026-04-12T13:18:11.985Z</time></trkpt><trkpt lat="45.412094404321074" lon="13.663794063352013"><ele>155.0</ele><time>2026-04-12T13:18:12.985Z</time></trkpt><trkpt lat="45.41215149107727" lon="13.663667559422707"><ele>155.0</ele><time>2026-04-12T13:18:13.985Z</time></trkpt><trkpt lat="45.41223243520637" lon="13.663559540260518"><ele>156.25</ele><time>2026-04-12T13:18:14.985Z</time></trkpt><trkpt lat="45.41237372580045" lon="13.663524977283942"><ele>157.5</ele><time>2026-04-12T13:18:15.985Z</time></trkpt><trkpt lat="45.412478246058136" lon="13.663464912228484"><ele>158.75</ele><time>2026-04-12T13:18:16.985Z</time></trkpt><trkpt lat="45.412573589364854" lon="13.663406300218998"><ele>160.0</ele><time>2026-04-12T13:18:17.985Z</time></trkpt><trkpt lat="45.412671125570625" lon="13.6633389903604"><ele>160.0</ele><time>2026-04-12T13:18:18.985Z</time></trkpt><trkpt lat="45.41277081871785" lon="13.66327152707514"><ele>160.0</ele><time>2026-04-12T13:18:19.985Z</time></trkpt><trkpt lat="45.412873339544525" lon="13.663219452745546"><ele>160.0</ele><time>2026-04-12T13:18:20.985Z</time></trkpt><trkpt lat="45.41297515221994" lon="13.663152054945344"><ele>160.0</ele><time>2026-04-12T13:18:21.985Z</time></trkpt><trkpt lat="45.413072994217586" lon="13.663084836093732"><ele>160.0</ele><time>2026-04-12T13:18:22.985Z</time></trkpt><trkpt lat="45.41316169008904" lon="13.663028941753916"><ele>161.6</ele><time>2026-04-12T13:18:23.985Z</time></trkpt><trkpt lat="45.413248051420425" lon="13.662978854260874"><ele>163.2</ele><time>2026-04-12T13:18:24.985Z</time></trkpt><trkpt lat="45.41334040040751" lon="13.66293277485737"><ele>164.8</ele><time>2026-04-12T13:18:25.985Z</time></trkpt><trkpt lat="45.41343514542681" lon="13.662906542414023"><ele>166.4</ele><time>2026-04-12T13:18:26.985Z</time></trkpt><trkpt lat="45.4135417468808" lon="13.662888821255363"><ele>168.0</ele><time>2026-04-12T13:18:27.985Z</time></trkpt><trkpt lat="45.413654360762216" lon="13.662891833971758"><ele>168.0</ele><time>2026-04-12T13:18:28.985Z</time></trkpt><trkpt lat="45.41377202060615" lon="13.662898912887556"><ele>168.0</ele><time>2026-04-12T13:18:29.985Z</time></trkpt><trkpt lat="45.41389069488234" lon="13.662935144941644"><ele>168.0</ele><time>2026-04-12T13:18:30.985Z</time></trkpt><trkpt lat="45.414006479929895" lon="13.662943473305596"><ele>168.0</ele><time>2026-04-12T13:18:31.985Z</time></trkpt><trkpt lat="45.41410373424652" lon="13.662934950546248"><ele>168.5</ele><time>2026-04-12T13:18:32.985Z</time></trkpt><trkpt lat="45.414194628262436" lon="13.662930936520487"><ele>169.0</ele><time>2026-04-12T13:18:33.985Z</time></trkpt><trkpt lat="45.414274378216646" lon="13.662908044854989"><ele>169.5</ele><time>2026-04-12T13:18:34.985Z</time></trkpt><trkpt lat="45.41436336549958" lon="13.662928108216079"><ele>170.0</ele><time>2026-04-12T13:18:35.985Z</time></trkpt><trkpt lat="45.414443023218475" lon="13.662961241546832"><ele>170.5</ele><time>2026-04-12T13:18:36.985Z</time></trkpt><trkpt lat="45.41451456766182" lon="13.663019494062572"><ele>171.0</ele><time>2026-04-12T13:18:37.985Z</time></trkpt><trkpt lat="45.41458089616437" lon="13.66303385709125"><ele>171.0</ele><time>2026-04-12T13:18:38.985Z</time></trkpt><trkpt lat="45.41464803075468" lon="13.663050373236997"><ele>171.0</ele><time>2026-04-12T13:18:39.985Z</time></trkpt><trkpt lat="45.41472259834139" lon="13.66305769295749"><ele>171.0</ele><time>2026-04-12T13:18:40.985Z</time></trkpt><trkpt lat="45.41480654129034" lon="13.663123723366922"><ele>171.0</ele><time>2026-04-12T13:18:41.985Z</time></trkpt><trkpt lat="45.41490293489413" lon="13.663161500884502"><ele>171.0</ele><time>2026-04-12T13:18:42.985Z</time></trkpt><trkpt lat="45.415012047864735" lon="13.663194670234176"><ele>171.0</ele><time>2026-04-12T13:18:43.985Z</time></trkpt><trkpt lat="45.41513299225938" lon="13.663220738826164"><ele>171.0</ele><time>2026-04-12T13:18:44.985Z</time></trkpt><trkpt lat="45.41526150161302" lon="13.663247357290249"><ele>171.0</ele><time>2026-04-12T13:18:45.985Z</time></trkpt><trkpt lat="45.41539442468528" lon="13.663278318129832"><ele>171.0</ele><time>2026-04-12T13:18:46.985Z</time></trkpt><trkpt lat="45.415523898634724" lon="13.663298648378696"><ele>171.0</ele><time>2026-04-12T13:18:47.985Z</time></trkpt><trkpt lat="45.415651392867076" lon="13.663314279617277"><ele>171.0</ele><time>2026-04-12T13:18:48.985Z</time></trkpt><trkpt lat="45.415787451843755" lon="13.663315161191823"><ele>171.0</ele><time>2026-04-12T13:18:49.985Z</time></trkpt><trkpt lat="45.41592640375891" lon="13.663291837648542"><ele>171.0</ele><time>2026-04-12T13:18:50.985Z</time></trkpt><trkpt lat="45.4160665321115" lon="13.66325761604243"><ele>171.0</ele><time>2026-04-12T13:18:51.985Z</time></trkpt><trkpt lat="45.416211706687534" lon="13.663219760580262"><ele>171.0</ele><time>2026-04-12T13:18:52.985Z</time></trkpt><trkpt lat="45.41636017029387" lon="13.66317827253839"><ele>171.0</ele><time>2026-04-12T13:18:53.985Z</time></trkpt><trkpt lat="45.416507178731784" lon="13.663145497903157"><ele>171.0</ele><time>2026-04-12T13:18:54.985Z</time></trkpt><trkpt lat="45.41664810388853" lon="13.663106876528655"><ele>171.25</ele><time>2026-04-12T13:18:55.985Z</time></trkpt><trkpt lat="45.416781018938465" lon="13.663065601982932"><ele>171.5</ele><time>2026-04-12T13:18:56.985Z</time></trkpt><trkpt lat="45.41691537408519" lon="13.663032729715963"><ele>171.75</ele><time>2026-04-12T13:18:57.985Z</time></trkpt><trkpt lat="45.4170583972208" lon="13.662993644744082"><ele>172.0</ele><time>2026-04-12T13:18:58.985Z</time></trkpt><trkpt lat="45.41719848612979" lon="13.662952573037634"><ele>172.5</ele><time>2026-04-12T13:18:59.985Z</time></trkpt><trkpt lat="45.417341101244205" lon="13.662913447378367"><ele>173.0</ele><time>2026-04-12T13:19:00.985Z</time></trkpt><trkpt lat="45.4174866296949" lon="13.662870367219073"><ele>173.5</ele><time>2026-04-12T13:19:01.985Z</time></trkpt><trkpt lat="45.41763391285284" lon="13.662823857263792"><ele>174.0</ele><time>2026-04-12T13:19:02.985Z</time></trkpt><trkpt lat="45.417786252130895" lon="13.66278258713302"><ele>171.0</ele><time>2026-04-12T13:19:03.985Z</time></trkpt><trkpt lat="45.41808964650594" lon="13.66269796485869"><ele>168.0</ele><time>2026-04-12T13:19:05.985Z</time></trkpt><trkpt lat="45.418234771583755" lon="13.662661580689408"><ele>168.0</ele><time>2026-04-12T13:19:06.985Z</time></trkpt><trkpt lat="45.41837197038129" lon="13.662622468528834"><ele>168.0</ele><time>2026-04-12T13:19:07.985Z</time></trkpt><trkpt lat="45.41849382602249" lon="13.662585878510978"><ele>168.0</ele><time>2026-04-12T13:19:08.985Z</time></trkpt><trkpt lat="45.41862955517564" lon="13.662545176967058"><ele>168.0</ele><time>2026-04-12T13:19:09.985Z</time></trkpt><trkpt lat="45.418770647438784" lon="13.6625027611461"><ele>167.66666666666666</ele><time>2026-04-12T13:19:10.985Z</time></trkpt><trkpt lat="45.41892034497442" lon="13.662460156145087"><ele>167.33333333333331</ele><time>2026-04-12T13:19:11.985Z</time></trkpt><trkpt lat="45.419078348673416" lon="13.66241566339425"><ele>167.0</ele><time>2026-04-12T13:19:12.985Z</time></trkpt><trkpt lat="45.41924476643992" lon="13.662367185276414"><ele>167.0</ele><time>2026-04-12T13:19:13.985Z</time></trkpt><trkpt lat="45.41942070059652" lon="13.66231523433636"><ele>167.0</ele><time>2026-04-12T13:19:14.985Z</time></trkpt><trkpt lat="45.41959525125239" lon="13.662264390962331"><ele>167.0</ele><time>2026-04-12T13:19:15.992Z</time></trkpt><trkpt lat="45.419759426524756" lon="13.66221587531744"><ele>167.0</ele><time>2026-04-12T13:19:16.992Z</time></trkpt><trkpt lat="45.419920663567595" lon="13.66217035826861"><ele>167.0</ele><time>2026-04-12T13:19:17.992Z</time></trkpt><trkpt lat="45.42008381870758" lon="13.662131691638328"><ele>167.0</ele><time>2026-04-12T13:19:18.992Z</time></trkpt><trkpt lat="45.42025097667918" lon="13.662089197825885"><ele>167.0</ele><time>2026-04-12T13:19:19.992Z</time></trkpt><trkpt lat="45.42042134888153" lon="13.66203347981251"><ele>167.0</ele><time>2026-04-12T13:19:20.992Z</time></trkpt><trkpt lat="45.42058817087136" lon="13.66198223565281"><ele>167.0</ele><time>2026-04-12T13:19:21.992Z</time></trkpt><trkpt lat="45.42076091612842" lon="13.661928473135552"><ele>166.33333333333331</ele><time>2026-04-12T13:19:22.992Z</time></trkpt><trkpt lat="45.42093723511295" lon="13.661878602575118"><ele>165.66666666666666</ele><time>2026-04-12T13:19:23.992Z</time></trkpt><trkpt lat="45.42110824020466" lon="13.661829048614694"><ele>165.0</ele><time>2026-04-12T13:19:24.992Z</time></trkpt><trkpt lat="45.42127141893799" lon="13.661778749713292"><ele>164.66666666666666</ele><time>2026-04-12T13:19:25.992Z</time></trkpt><trkpt lat="45.421425699569085" lon="13.661734399550271"><ele>164.33333333333331</ele><time>2026-04-12T13:19:26.992Z</time></trkpt><trkpt lat="45.42157407547287" lon="13.66169146615031"><ele>164.0</ele><time>2026-04-12T13:19:27.992Z</time></trkpt><trkpt lat="45.42172351783039" lon="13.661647184753615"><ele>164.0</ele><time>2026-04-12T13:19:28.992Z</time></trkpt><trkpt lat="45.42187080870052" lon="13.661606791720075"><ele>164.0</ele><time>2026-04-12T13:19:29.992Z</time></trkpt><trkpt lat="45.422011492864726" lon="13.661571123759101"><ele>164.0</ele><time>2026-04-12T13:19:30.992Z</time></trkpt><trkpt lat="45.42215113971165" lon="13.661535694424828"><ele>164.0</ele><time>2026-04-12T13:19:31.992Z</time></trkpt><trkpt lat="45.42228569918832" lon="13.661491692560448"><ele>163.0</ele><time>2026-04-12T13:19:32.992Z</time></trkpt><trkpt lat="45.42242144659566" lon="13.661440261852833"><ele>162.0</ele><time>2026-04-12T13:19:33.992Z</time></trkpt><trkpt lat="45.42255094566648" lon="13.661379489111642"><ele>161.0</ele><time>2026-04-12T13:19:34.992Z</time></trkpt><trkpt lat="45.42268114170255" lon="13.661292239961476"><ele>160.0</ele><time>2026-04-12T13:19:35.992Z</time></trkpt><trkpt lat="45.42280826748228" lon="13.661169400731787"><ele>160.66666666666669</ele><time>2026-04-12T13:19:36.992Z</time></trkpt><trkpt lat="45.422922413238" lon="13.661039238478255"><ele>161.33333333333334</ele><time>2026-04-12T13:19:37.992Z</time></trkpt><trkpt lat="45.423037963187426" lon="13.660881456934884"><ele>162.0</ele><time>2026-04-12T13:19:38.992Z</time></trkpt><trkpt lat="45.423149050233945" lon="13.660710146504359"><ele>160.66666666666666</ele><time>2026-04-12T13:19:39.992Z</time></trkpt><trkpt lat="45.423277656756895" lon="13.660535059559171"><ele>159.33333333333331</ele><time>2026-04-12T13:19:40.992Z</time></trkpt><trkpt lat="45.423401562104836" lon="13.66038076997564"><ele>158.0</ele><time>2026-04-12T13:19:41.992Z</time></trkpt><trkpt lat="45.42353443477392" lon="13.660195443887206"><ele>158.0</ele><time>2026-04-12T13:19:42.992Z</time></trkpt><trkpt lat="45.42367474188729" lon="13.660007886382074"><ele>158.0</ele><time>2026-04-12T13:19:43.992Z</time></trkpt><trkpt lat="45.42381603126071" lon="13.659825044259874"><ele>158.0</ele><time>2026-04-12T13:19:44.992Z</time></trkpt><trkpt lat="45.423962316424614" lon="13.659658315915195"><ele>157.66666666666666</ele><time>2026-04-12T13:19:45.992Z</time></trkpt><trkpt lat="45.42413821239831" lon="13.65956156039812"><ele>157.33333333333334</ele><time>2026-04-12T13:19:46.991Z</time></trkpt><trkpt lat="45.424311012850325" lon="13.65948231590002"><ele>157.0</ele><time>2026-04-12T13:19:47.991Z</time></trkpt><trkpt lat="45.42449070239025" lon="13.65941290278651"><ele>157.0</ele><time>2026-04-12T13:19:48.991Z</time></trkpt><trkpt lat="45.4246747614829" lon="13.659355902238799"><ele>157.0</ele><time>2026-04-12T13:19:49.991Z</time></trkpt><trkpt lat="45.42485934925139" lon="13.659289943523023"><ele>157.0</ele><time>2026-04-12T13:19:50.991Z</time></trkpt><trkpt lat="45.425041517465075" lon="13.659229203834142"><ele>157.0</ele><time>2026-04-12T13:19:51.991Z</time></trkpt><trkpt lat="45.4252296086738" lon="13.659155797817391"><ele>157.0</ele><time>2026-04-12T13:19:52.991Z</time></trkpt><trkpt lat="45.42541840965777" lon="13.659089513130715"><ele>157.0</ele><time>2026-04-12T13:19:53.991Z</time></trkpt><trkpt lat="45.425604014302266" lon="13.659024757566046"><ele>157.66666666666669</ele><time>2026-04-12T13:19:54.991Z</time></trkpt><trkpt lat="45.425780468903596" lon="13.658961353470412"><ele>158.33333333333334</ele><time>2026-04-12T13:19:55.991Z</time></trkpt><trkpt lat="45.4259431772808" lon="13.658903101546173"><ele>159.0</ele><time>2026-04-12T13:19:56.991Z</time></trkpt><trkpt lat="45.42610358767772" lon="13.658842574219985"><ele>159.0</ele><time>2026-04-12T13:19:57.991Z</time></trkpt><trkpt lat="45.42627054335036" lon="13.658785043966928"><ele>159.0</ele><time>2026-04-12T13:19:58.991Z</time></trkpt><trkpt lat="45.42642993151411" lon="13.658726671792115"><ele>159.0</ele><time>2026-04-12T13:19:59.991Z</time></trkpt><trkpt lat="45.426587270295386" lon="13.658668584856967"><ele>159.33333333333334</ele><time>2026-04-12T13:20:00.991Z</time></trkpt><trkpt lat="45.42674454883829" lon="13.658613696818266"><ele>159.66666666666669</ele><time>2026-04-12T13:20:01.992Z</time></trkpt><trkpt lat="45.42690728150636" lon="13.658548354588792"><ele>160.0</ele><time>2026-04-12T13:20:02.992Z</time></trkpt><trkpt lat="45.427065928174834" lon="13.658466499821298"><ele>162.0</ele><time>2026-04-12T13:20:03.992Z</time></trkpt><trkpt lat="45.42721985070894" lon="13.658350677250832"><ele>164.0</ele><time>2026-04-12T13:20:04.992Z</time></trkpt><trkpt lat="45.42736813404511" lon="13.658236753682077"><ele>166.0</ele><time>2026-04-12T13:20:05.992Z</time></trkpt><trkpt lat="45.42750188658229" lon="13.658093922434158"><ele>166.0</ele><time>2026-04-12T13:20:06.992Z</time></trkpt><trkpt lat="45.4276358589278" lon="13.657955603213923"><ele>166.0</ele><time>2026-04-12T13:20:07.992Z</time></trkpt><trkpt lat="45.42777301289442" lon="13.65782934135125"><ele>166.0</ele><time>2026-04-12T13:20:08.992Z</time></trkpt><trkpt lat="45.42791725431784" lon="13.657687077950534"><ele>167.0</ele><time>2026-04-12T13:20:09.992Z</time></trkpt><trkpt lat="45.42805959501707" lon="13.657551152139321"><ele>168.0</ele><time>2026-04-12T13:20:10.992Z</time></trkpt><trkpt lat="45.428194816492734" lon="13.657414320137605"><ele>169.0</ele><time>2026-04-12T13:20:11.992Z</time></trkpt><trkpt lat="45.428335992855004" lon="13.65728199551284"><ele>169.0</ele><time>2026-04-12T13:20:12.992Z</time></trkpt><trkpt lat="45.428472189302475" lon="13.657158436259506"><ele>169.0</ele><time>2026-04-12T13:20:13.992Z</time></trkpt><trkpt lat="45.42861776808769" lon="13.657022047756916"><ele>169.0</ele><time>2026-04-12T13:20:14.991Z</time></trkpt><trkpt lat="45.42876511917023" lon="13.656897564893285"><ele>169.0</ele><time>2026-04-12T13:20:15.991Z</time></trkpt><trkpt lat="45.4289089293791" lon="13.656790359167431"><ele>169.0</ele><time>2026-04-12T13:20:16.991Z</time></trkpt><trkpt lat="45.42905551732982" lon="13.656735568433223"><ele>169.0</ele><time>2026-04-12T13:20:17.991Z</time></trkpt><trkpt lat="45.42920216471277" lon="13.656728603777907"><ele>169.0</ele><time>2026-04-12T13:20:18.991Z</time></trkpt><trkpt lat="45.429365738392534" lon="13.656764711048897"><ele>169.0</ele><time>2026-04-12T13:20:19.991Z</time></trkpt><trkpt lat="45.429525382793194" lon="13.656833339012648"><ele>169.0</ele><time>2026-04-12T13:20:20.991Z</time></trkpt><trkpt lat="45.42967025124343" lon="13.656893780959459"><ele>168.66666666666669</ele><time>2026-04-12T13:20:21.991Z</time></trkpt><trkpt lat="45.42982150917785" lon="13.656946844732454"><ele>168.33333333333334</ele><time>2026-04-12T13:20:22.991Z</time></trkpt><trkpt lat="45.429977732296514" lon="13.657008506949333"><ele>168.0</ele><time>2026-04-12T13:20:23.991Z</time></trkpt><trkpt lat="45.43014445109966" lon="13.65706600745714"><ele>168.0</ele><time>2026-04-12T13:20:24.991Z</time></trkpt><trkpt lat="45.43031370571389" lon="13.657134504938986"><ele>168.0</ele><time>2026-04-12T13:20:25.991Z</time></trkpt><trkpt lat="45.43048127756609" lon="13.657189354456305"><ele>168.0</ele><time>2026-04-12T13:20:26.991Z</time></trkpt><trkpt lat="45.43065841475346" lon="13.65724429719894"><ele>168.0</ele><time>2026-04-12T13:20:27.991Z</time></trkpt><trkpt lat="45.430843485539036" lon="13.657308821295468"><ele>168.0</ele><time>2026-04-12T13:20:28.991Z</time></trkpt><trkpt lat="45.431021863433244" lon="13.65739384410671"><ele>168.0</ele><time>2026-04-12T13:20:29.991Z</time></trkpt><trkpt lat="45.431204570274936" lon="13.657470445518081"><ele>167.66666666666666</ele><time>2026-04-12T13:20:30.991Z</time></trkpt><trkpt lat="45.43139880223715" lon="13.657530152854955"><ele>167.33333333333331</ele><time>2026-04-12T13:20:31.991Z</time></trkpt><trkpt lat="45.43157667379009" lon="13.657595204409947"><ele>167.0</ele><time>2026-04-12T13:20:32.991Z</time></trkpt><trkpt lat="45.43175830984141" lon="13.657659186307782"><ele>167.0</ele><time>2026-04-12T13:20:33.991Z</time></trkpt><trkpt lat="45.43196305168428" lon="13.657707729617659"><ele>167.0</ele><time>2026-04-12T13:20:34.991Z</time></trkpt><trkpt lat="45.432143590161495" lon="13.657775057434067"><ele>167.0</ele><time>2026-04-12T13:20:35.991Z</time></trkpt><trkpt lat="45.43231542594001" lon="13.657848264800748"><ele>167.0</ele><time>2026-04-12T13:20:36.991Z</time></trkpt><trkpt lat="45.43249147178098" lon="13.6579276281285"><ele>167.0</ele><time>2026-04-12T13:20:37.991Z</time></trkpt><trkpt lat="45.43266637090308" lon="13.657992093422733"><ele>167.0</ele><time>2026-04-12T13:20:38.991Z</time></trkpt><trkpt lat="45.43283451835627" lon="13.658050299078248"><ele>167.33333333333331</ele><time>2026-04-12T13:20:39.991Z</time></trkpt><trkpt lat="45.43300516887448" lon="13.65810890312927"><ele>167.66666666666666</ele><time>2026-04-12T13:20:40.991Z</time></trkpt><trkpt lat="45.43317033776384" lon="13.658156547448673"><ele>168.0</ele><time>2026-04-12T13:20:41.991Z</time></trkpt><trkpt lat="45.43335015079276" lon="13.658181729649211"><ele>168.0</ele><time>2026-04-12T13:20:42.991Z</time></trkpt><trkpt lat="45.43351745553254" lon="13.658181636233321"><ele>168.0</ele><time>2026-04-12T13:20:43.991Z</time></trkpt><trkpt lat="45.43368645499755" lon="13.65813971266542"><ele>168.0</ele><time>2026-04-12T13:20:44.991Z</time></trkpt><trkpt lat="45.433849313654044" lon="13.65805601103725"><ele>168.0</ele><time>2026-04-12T13:20:45.991Z</time></trkpt><trkpt lat="45.43401185366458" lon="13.657953206932715"><ele>168.0</ele><time>2026-04-12T13:20:46.991Z</time></trkpt><trkpt lat="45.43417274628739" lon="13.657823288833105"><ele>168.0</ele><time>2026-04-12T13:20:47.991Z</time></trkpt><trkpt lat="45.4343353953502" lon="13.657711079818416"><ele>168.0</ele><time>2026-04-12T13:20:48.991Z</time></trkpt><trkpt lat="45.43450183284601" lon="13.657597536416853"><ele>168.0</ele><time>2026-04-12T13:20:49.991Z</time></trkpt><trkpt lat="45.434678266265614" lon="13.657499440705948"><ele>168.0</ele><time>2026-04-12T13:20:50.991Z</time></trkpt><trkpt lat="45.434850292876725" lon="13.657419012503452"><ele>164.33333333333334</ele><time>2026-04-12T13:20:51.991Z</time></trkpt><trkpt lat="45.435030954521245" lon="13.65739397628013"><ele>160.66666666666669</ele><time>2026-04-12T13:20:52.99Z</time></trkpt><trkpt lat="45.43520776443299" lon="13.657388748716535"><ele>157.0</ele><time>2026-04-12T13:20:53.99Z</time></trkpt><trkpt lat="45.435382999967075" lon="13.65740583587642"><ele>157.0</ele><time>2026-04-12T13:20:54.99Z</time></trkpt><trkpt lat="45.43555299481468" lon="13.657419841867489"><ele>157.0</ele><time>2026-04-12T13:20:55.99Z</time></trkpt><trkpt lat="45.43571846410833" lon="13.657416654816146"><ele>157.0</ele><time>2026-04-12T13:20:56.99Z</time></trkpt><trkpt lat="45.43590212665237" lon="13.657410736051713"><ele>157.0</ele><time>2026-04-12T13:20:57.99Z</time></trkpt><trkpt lat="45.43607662957499" lon="13.65740441692385"><ele>157.0</ele><time>2026-04-12T13:20:58.99Z</time></trkpt><trkpt lat="45.436246125332914" lon="13.657393116495143"><ele>157.0</ele><time>2026-04-12T13:20:59.99Z</time></trkpt><trkpt lat="45.436414854321775" lon="13.657387397147856"><ele>157.75</ele><time>2026-04-12T13:21:00.99Z</time></trkpt><trkpt lat="45.43657338853461" lon="13.657387867024338"><ele>158.5</ele><time>2026-04-12T13:21:01.99Z</time></trkpt><trkpt lat="45.436722334689094" lon="13.657393361949657"><ele>159.25</ele><time>2026-04-12T13:21:02.99Z</time></trkpt><trkpt lat="45.43686077830215" lon="13.657398690037123"><ele>160.0</ele><time>2026-04-12T13:21:03.99Z</time></trkpt><trkpt lat="45.43699485678391" lon="13.657429144573321"><ele>159.75</ele><time>2026-04-12T13:21:04.99Z</time></trkpt><trkpt lat="45.43713863623421" lon="13.657469145713085"><ele>159.5</ele><time>2026-04-12T13:21:05.99Z</time></trkpt><trkpt lat="45.43728062082118" lon="13.657525963315667"><ele>159.25</ele><time>2026-04-12T13:21:06.99Z</time></trkpt><trkpt lat="45.437424140111226" lon="13.657591111321667"><ele>159.0</ele><time>2026-04-12T13:21:07.99Z</time></trkpt><trkpt lat="45.437587237290764" lon="13.657649245201153"><ele>159.0</ele><time>2026-04-12T13:21:08.99Z</time></trkpt><trkpt lat="45.43775720808224" lon="13.65767544458721"><ele>159.0</ele><time>2026-04-12T13:21:09.99Z</time></trkpt><trkpt lat="45.43793355875972" lon="13.65770992939227"><ele>159.0</ele><time>2026-04-12T13:21:10.99Z</time></trkpt><trkpt lat="45.43811528387488" lon="13.657749018194986"><ele>157.0</ele><time>2026-04-12T13:21:11.99Z</time></trkpt><trkpt lat="45.43829586099176" lon="13.657757978324328"><ele>155.0</ele><time>2026-04-12T13:21:12.99Z</time></trkpt><trkpt lat="45.43849001492011" lon="13.657755227036104"><ele>153.0</ele><time>2026-04-12T13:21:13.99Z</time></trkpt><trkpt lat="45.43867311255578" lon="13.657747696816452"><ele>152.66666666666666</ele><time>2026-04-12T13:21:14.99Z</time></trkpt><trkpt lat="45.43884708588577" lon="13.657759776507936"><ele>152.33333333333331</ele><time>2026-04-12T13:21:15.99Z</time></trkpt><trkpt lat="45.43900932409835" lon="13.657758945682058"><ele>152.0</ele><time>2026-04-12T13:21:16.99Z</time></trkpt><trkpt lat="45.43914644132323" lon="13.657766610898669"><ele>152.0</ele><time>2026-04-12T13:21:17.99Z</time></trkpt><trkpt lat="45.43925854410457" lon="13.657779619632677"><ele>152.0</ele><time>2026-04-12T13:21:18.99Z</time></trkpt><trkpt lat="45.439374152639374" lon="13.657794193273721"><ele>152.0</ele><time>2026-04-12T13:21:19.99Z</time></trkpt><trkpt lat="45.4394875212756" lon="13.657799218618194"><ele>152.0</ele><time>2026-04-12T13:21:20.99Z</time></trkpt><trkpt lat="45.43959255053612" lon="13.657799360958268"><ele>152.0</ele><time>2026-04-12T13:21:21.99Z</time></trkpt><trkpt lat="45.43969908344098" lon="13.657808627769787"><ele>152.2</ele><time>2026-04-12T13:21:22.99Z</time></trkpt><trkpt lat="45.43980460199154" lon="13.65780798469841"><ele>152.39999999999998</ele><time>2026-04-12T13:21:23.99Z</time></trkpt><trkpt lat="45.43991099167641" lon="13.657813279220301"><ele>152.60000000000002</ele><time>2026-04-12T13:21:24.99Z</time></trkpt><trkpt lat="45.440020399203284" lon="13.65782190226997"><ele>152.8</ele><time>2026-04-12T13:21:25.99Z</time></trkpt><trkpt lat="45.44014659779939" lon="13.657818787923583"><ele>153.0</ele><time>2026-04-12T13:21:26.99Z</time></trkpt><trkpt lat="45.44027711956221" lon="13.657842466361883"><ele>153.0</ele><time>2026-04-12T13:21:27.99Z</time></trkpt><trkpt lat="45.44040239615414" lon="13.65786981608292"><ele>153.0</ele><time>2026-04-12T13:21:28.99Z</time></trkpt><trkpt lat="45.44053688967853" lon="13.65784915559351"><ele>153.0</ele><time>2026-04-12T13:21:29.99Z</time></trkpt><trkpt lat="45.4406552127813" lon="13.657824933145804"><ele>153.0</ele><time>2026-04-12T13:21:30.99Z</time></trkpt><trkpt lat="45.4407650633976" lon="13.657772288592703"><ele>152.0</ele><time>2026-04-12T13:21:31.99Z</time></trkpt><trkpt lat="45.440865219664786" lon="13.657677607571527"><ele>151.0</ele><time>2026-04-12T13:21:32.99Z</time></trkpt><trkpt lat="45.44095965708112" lon="13.657585288834882"><ele>150.0</ele><time>2026-04-12T13:21:33.99Z</time></trkpt><trkpt lat="45.44104998129462" lon="13.657506626100592"><ele>149.0</ele><time>2026-04-12T13:21:34.99Z</time></trkpt><trkpt lat="45.441136461016015" lon="13.657446544272096"><ele>148.0</ele><time>2026-04-12T13:21:35.99Z</time></trkpt><trkpt lat="45.44122217845782" lon="13.657394407423743"><ele>149.6</ele><time>2026-04-12T13:21:36.99Z</time></trkpt><trkpt lat="45.441300783814334" lon="13.657346075358934"><ele>151.20000000000002</ele><time>2026-04-12T13:21:37.99Z</time></trkpt><trkpt lat="45.441366079375115" lon="13.657298066734041"><ele>152.8</ele><time>2026-04-12T13:21:38.99Z</time></trkpt><trkpt lat="45.441427703369754" lon="13.65725523045284"><ele>154.4</ele><time>2026-04-12T13:21:39.99Z</time></trkpt><trkpt lat="45.441536617074185" lon="13.657178454145052"><ele>156.0</ele><time>2026-04-12T13:21:41.99Z</time></trkpt><trkpt lat="45.44163411730427" lon="13.65711412424175"><ele>156.0</ele><time>2026-04-12T13:21:43.99Z</time></trkpt><trkpt lat="45.44173052881345" lon="13.657050205228673"><ele>156.0</ele><time>2026-04-12T13:21:45.99Z</time></trkpt><trkpt lat="45.4417996295733" lon="13.657034838465503"><ele>156.0</ele><time>2026-04-12T13:21:47.99Z</time></trkpt><trkpt lat="45.44185479571944" lon="13.656982857795423"><ele>156.0</ele><time>2026-04-12T13:22:04.99Z</time></trkpt><trkpt lat="45.44194292745475" lon="13.656895822818043"><ele>156.0</ele><time>2026-04-12T13:22:06.989Z</time></trkpt><trkpt lat="45.44199501693423" lon="13.656844888900919"><ele>156.0</ele><time>2026-04-12T13:22:07.989Z</time></trkpt><trkpt lat="45.442053758620816" lon="13.656804824561236"><ele>156.16666666666666</ele><time>2026-04-12T13:22:08.989Z</time></trkpt><trkpt lat="45.44213085740069" lon="13.656752768964836"><ele>156.33333333333334</ele><time>2026-04-12T13:22:09.989Z</time></trkpt><trkpt lat="45.44221242679593" lon="13.656699630904027"><ele>156.5</ele><time>2026-04-12T13:22:10.989Z</time></trkpt><trkpt lat="45.44227362754689" lon="13.656644887648785"><ele>156.66666666666669</ele><time>2026-04-12T13:22:11.989Z</time></trkpt><trkpt lat="45.44236728172728" lon="13.656584126139718"><ele>156.83333333333334</ele><time>2026-04-12T13:22:13.989Z</time></trkpt><trkpt lat="45.44241794555114" lon="13.656519098335565"><ele>157.0</ele><time>2026-04-12T13:22:15.989Z</time></trkpt><trkpt lat="45.44248429804357" lon="13.656443798660511"><ele>157.0</ele><time>2026-04-12T13:22:18.989Z</time></trkpt><trkpt lat="45.44255543305588" lon="13.656404212902466"><ele>157.0</ele><time>2026-04-12T13:22:21.989Z</time></trkpt><trkpt lat="45.4424758508886" lon="13.656373624881768"><ele>157.0</ele><time>2026-04-12T13:23:47.988Z</time></trkpt></trkseg></trk></gpx>